<?xml version='1.0' encoding='UTF-8'?><gpx version="1.1" creator="JPX - https://github.com/jenetics/jpx" xmlns="http://www.topografix.com/GPX/1/1"><trk><trkseg><trkpt lat="45.35562537337965" lon="11.954465040339693"><ele>3.0</ele><time>2026-04-11T13:20:38Z</time></trkpt><trkpt lat="45.35555505315025" lon="11.954465992758005"><ele>3.0</ele><time>2026-04-11T13:20:40Z</time></trkpt><trkpt lat="45.35549652956667" lon="11.954423155376682"><ele>3.0</ele><time>2026-04-11T13:20:43Z</time></trkpt><trkpt lat="45.355501546802316" lon="11.954289926910691"><ele>3.0</ele><time>2026-04-11T13:20:46Z</time></trkpt><trkpt lat="45.355510858491584" lon="11.9541613965825"><ele>3.0</ele><time>2026-04-11T13:20:48Z</time></trkpt><trkpt lat="45.355508518991876" lon="11.954066958512486"><ele>3.0</ele><time>2026-04-11T13:20:49Z</time></trkpt><trkpt lat="45.35549962538683" lon="11.953968733400966"><ele>3.5</ele><time>2026-04-11T13:20:50Z</time></trkpt><trkpt lat="45.3554961570061" lon="11.953853956013793"><ele>4.0</ele><time>2026-04-11T13:20:51.001Z</time></trkpt><trkpt lat="45.35549580857884" lon="11.953750011746521"><ele>4.5</ele><time>2026-04-11T13:20:52.001Z</time></trkpt><trkpt lat="45.355493629213974" lon="11.953644981142633"><ele>5.0</ele><time>2026-04-11T13:20:53.001Z</time></trkpt><trkpt lat="45.35548829151138" lon="11.953522960429702"><ele>5.5</ele><time>2026-04-11T13:20:54Z</time></trkpt><trkpt lat="45.35548227904662" lon="11.953407185590015"><ele>6.0</ele><time>2026-04-11T13:20:55Z</time></trkpt><trkpt lat="45.355476345639154" lon="11.953293752137734"><ele>6.0</ele><time>2026-04-11T13:20:56Z</time></trkpt><trkpt lat="45.35546451836377" lon="11.953182769660911"><ele>6.0</ele><time>2026-04-11T13:20:57Z</time></trkpt><trkpt lat="45.35546821815973" lon="11.953089647774004"><ele>6.0</ele><time>2026-04-11T13:20:58Z</time></trkpt><trkpt lat="45.355367796934104" lon="11.953022357416144"><ele>6.0</ele><time>2026-04-11T13:20:59Z</time></trkpt><trkpt lat="45.35530570884673" lon="11.952964701309428"><ele>6.0</ele><time>2026-04-11T13:21:00Z</time></trkpt><trkpt lat="45.355247340301915" lon="11.95290501989803"><ele>6.0</ele><time>2026-04-11T13:21:01Z</time></trkpt><trkpt lat="45.35519330676341" lon="11.95283861195518"><ele>6.0</ele><time>2026-04-11T13:21:02Z</time></trkpt><trkpt lat="45.355139997185326" lon="11.952774829728227"><ele>6.0</ele><time>2026-04-11T13:21:03Z</time></trkpt><trkpt lat="45.35509235904192" lon="11.95270653678678"><ele>6.0</ele><time>2026-04-11T13:21:04Z</time></trkpt><trkpt lat="45.35504420538336" lon="11.952639066013882"><ele>6.0</ele><time>2026-04-11T13:21:05Z</time></trkpt><trkpt lat="45.35497280248537" lon="11.952527937820104"><ele>6.0</ele><time>2026-04-11T13:21:07Z</time></trkpt><trkpt lat="45.35491198914484" lon="11.952472418282163"><ele>6.0</ele><time>2026-04-11T13:22:55.999Z</time></trkpt><trkpt lat="45.3548470011021" lon="11.952414516790665"><ele>6.0</ele><time>2026-04-11T13:22:58Z</time></trkpt><trkpt lat="45.35475937212824" lon="11.952279450546964"><ele>6.0</ele><time>2026-04-11T13:23:00Z</time></trkpt><trkpt lat="45.35470084132677" lon="11.952201774246172"><ele>6.0</ele><time>2026-04-11T13:23:01Z</time></trkpt><trkpt lat="45.35463849274415" lon="11.952119031402724"><ele>6.0</ele><time>2026-04-11T13:23:02Z</time></trkpt><trkpt lat="45.35457789461927" lon="11.9520386115705"><ele>6.0</ele><time>2026-04-11T13:23:03Z</time></trkpt><trkpt lat="45.35451358162243" lon="11.951970444380667"><ele>6.0</ele><time>2026-04-11T13:23:04Z</time></trkpt><trkpt lat="45.35446498463306" lon="11.951892763946493"><ele>6.0</ele><time>2026-04-11T13:23:05Z</time></trkpt><trkpt lat="45.35438469465145" lon="11.951804950357104"><ele>6.0</ele><time>2026-04-11T13:23:07Z</time></trkpt><trkpt lat="45.3543124269555" lon="11.95182933920268"><ele>6.0</ele><time>2026-04-11T13:23:09Z</time></trkpt><trkpt lat="45.35419653036395" lon="11.951866587475376"><ele>6.0</ele><time>2026-04-11T13:23:11Z</time></trkpt><trkpt lat="45.35413193318221" lon="11.951820624135614"><ele>6.0</ele><time>2026-04-11T13:23:12Z</time></trkpt><trkpt lat="45.35408649638355" lon="11.951740634526768"><ele>6.0</ele><time>2026-04-11T13:23:13Z</time></trkpt><trkpt lat="45.35402198049673" lon="11.951726224354383"><ele>6.0</ele><time>2026-04-11T13:23:14Z</time></trkpt><trkpt lat="45.35401420992885" lon="11.951513272649992"><ele>6.0</ele><time>2026-04-11T13:23:15Z</time></trkpt><trkpt lat="45.35400419099166" lon="11.951378732045034"><ele>6.0</ele><time>2026-04-11T13:23:16Z</time></trkpt><trkpt lat="45.354090347975806" lon="11.95123577035701"><ele>6.0</ele><time>2026-04-11T13:23:17Z</time></trkpt><trkpt lat="45.35414901949602" lon="11.951117389271753"><ele>6.0</ele><time>2026-04-11T13:23:18Z</time></trkpt><trkpt lat="45.354216317343464" lon="11.95100398802522"><ele>6.0</ele><time>2026-04-11T13:23:19Z</time></trkpt><trkpt lat="45.354283535201496" lon="11.950893425351325"><ele>6.0</ele><time>2026-04-11T13:23:20Z</time></trkpt><trkpt lat="45.35435342917824" lon="11.950788854087474"><ele>6.0</ele><time>2026-04-11T13:23:21Z</time></trkpt><trkpt lat="45.354417722086794" lon="11.950683152163938"><ele>6.0</ele><time>2026-04-11T13:23:22Z</time></trkpt><trkpt lat="45.354484009242796" lon="11.950579582077882"><ele>6.0</ele><time>2026-04-11T13:23:23Z</time></trkpt><trkpt lat="45.35454540768079" lon="11.950480483363943"><ele>6.0</ele><time>2026-04-11T13:23:24Z</time></trkpt><trkpt lat="45.35460722315418" lon="11.950384856962817"><ele>6.0</ele><time>2026-04-11T13:23:25Z</time></trkpt><trkpt lat="45.354667373520144" lon="11.950291886140231"><ele>6.0</ele><time>2026-04-11T13:23:26Z</time></trkpt><trkpt lat="45.35472928613812" lon="11.950196141023032"><ele>6.0</ele><time>2026-04-11T13:23:27Z</time></trkpt><trkpt lat="45.3547906182189" lon="11.950098805029842"><ele>6.166666666666667</ele><time>2026-04-11T13:23:28Z</time></trkpt><trkpt lat="45.35484898873888" lon="11.950015586419394"><ele>6.333333333333334</ele><time>2026-04-11T13:23:29Z</time></trkpt><trkpt lat="45.35490961149351" lon="11.949925062209584"><ele>6.5</ele><time>2026-04-11T13:23:30Z</time></trkpt><trkpt lat="45.35497285627714" lon="11.9498328438704"><ele>6.666666666666667</ele><time>2026-04-11T13:23:31Z</time></trkpt><trkpt lat="45.355035369801485" lon="11.949739919556059"><ele>6.833333333333334</ele><time>2026-04-11T13:23:32Z</time></trkpt><trkpt lat="45.35509986900713" lon="11.949644205465052"><ele>7.0</ele><time>2026-04-11T13:23:33Z</time></trkpt><trkpt lat="45.35517231549956" lon="11.949538776506897"><ele>7.0</ele><time>2026-04-11T13:23:34Z</time></trkpt><trkpt lat="45.35524746745476" lon="11.949426353140378"><ele>7.0</ele><time>2026-04-11T13:23:35Z</time></trkpt><trkpt lat="45.35533113450959" lon="11.949301121783128"><ele>7.0</ele><time>2026-04-11T13:23:36Z</time></trkpt><trkpt lat="45.355426064466" lon="11.94916053598633"><ele>7.0</ele><time>2026-04-11T13:23:37Z</time></trkpt><trkpt lat="45.35551555194697" lon="11.949021187034468"><ele>6.75</ele><time>2026-04-11T13:23:38Z</time></trkpt><trkpt lat="45.35561407781382" lon="11.948868724859313"><ele>6.5</ele><time>2026-04-11T13:23:39Z</time></trkpt><trkpt lat="45.355710511641256" lon="11.948715170315275"><ele>6.25</ele><time>2026-04-11T13:23:40Z</time></trkpt><trkpt lat="45.355803104807514" lon="11.94857854717697"><ele>6.0</ele><time>2026-04-11T13:23:41Z</time></trkpt><trkpt lat="45.355894159086546" lon="11.948440820952962"><ele>6.25</ele><time>2026-04-11T13:23:42Z</time></trkpt><trkpt lat="45.35598709698789" lon="11.948299970840655"><ele>6.5</ele><time>2026-04-11T13:23:43Z</time></trkpt><trkpt lat="45.35608031273821" lon="11.948164225440463"><ele>6.75</ele><time>2026-04-11T13:23:44Z</time></trkpt><trkpt lat="45.356170863507515" lon="11.948028259544934"><ele>7.0</ele><time>2026-04-11T13:23:45Z</time></trkpt><trkpt lat="45.356260049029636" lon="11.947890369036863"><ele>7.0</ele><time>2026-04-11T13:23:46Z</time></trkpt><trkpt lat="45.35634864423907" lon="11.947750874786092"><ele>7.0</ele><time>2026-04-11T13:23:47Z</time></trkpt><trkpt lat="45.35643702391625" lon="11.947616085096376"><ele>7.0</ele><time>2026-04-11T13:23:48Z</time></trkpt><trkpt lat="45.356530176898005" lon="11.947476250181944"><ele>7.0</ele><time>2026-04-11T13:23:49Z</time></trkpt><trkpt lat="45.35662592034119" lon="11.947328694321074"><ele>6.0</ele><time>2026-04-11T13:23:50Z</time></trkpt><trkpt lat="45.35672701572352" lon="11.94717505778596"><ele>5.0</ele><time>2026-04-11T13:23:51Z</time></trkpt><trkpt lat="45.35683481148713" lon="11.947011928881862"><ele>4.0</ele><time>2026-04-11T13:23:52Z</time></trkpt><trkpt lat="45.35695112609944" lon="11.94683760072196"><ele>4.333333333333333</ele><time>2026-04-11T13:23:53Z</time></trkpt><trkpt lat="45.35707015908142" lon="11.94666101509401"><ele>4.666666666666667</ele><time>2026-04-11T13:23:54Z</time></trkpt><trkpt lat="45.357185522004485" lon="11.946484421864422"><ele>5.0</ele><time>2026-04-11T13:23:55Z</time></trkpt><trkpt lat="45.357296610857965" lon="11.946313030162244"><ele>5.333333333333334</ele><time>2026-04-11T13:23:56Z</time></trkpt><trkpt lat="45.357407148613795" lon="11.94614366276311"><ele>5.666666666666667</ele><time>2026-04-11T13:23:57Z</time></trkpt><trkpt lat="45.35752562034959" lon="11.945966392919438"><ele>6.0</ele><time>2026-04-11T13:23:58Z</time></trkpt><trkpt lat="45.35764529258655" lon="11.94578539724516"><ele>6.0</ele><time>2026-04-11T13:23:59Z</time></trkpt><trkpt lat="45.35776337918412" lon="11.94560183092904"><ele>6.0</ele><time>2026-04-11T13:24:00Z</time></trkpt><trkpt lat="45.35787869119934" lon="11.945419651126123"><ele>6.0</ele><time>2026-04-11T13:24:01Z</time></trkpt><trkpt lat="45.35799847912417" lon="11.945235365823127"><ele>6.0</ele><time>2026-04-11T13:24:02Z</time></trkpt><trkpt lat="45.35811223295861" lon="11.94505777285718"><ele>6.0</ele><time>2026-04-11T13:24:03Z</time></trkpt><trkpt lat="45.35823016560858" lon="11.944871489917832"><ele>6.0</ele><time>2026-04-11T13:24:04Z</time></trkpt><trkpt lat="45.358350470069006" lon="11.944688976876499"><ele>6.333333333333334</ele><time>2026-04-11T13:24:05Z</time></trkpt><trkpt lat="45.35846827981743" lon="11.944509776047058"><ele>6.666666666666667</ele><time>2026-04-11T13:24:06Z</time></trkpt><trkpt lat="45.35857942843118" lon="11.944341777694873"><ele>7.0</ele><time>2026-04-11T13:24:07Z</time></trkpt><trkpt lat="45.35867964968633" lon="11.944189477509667"><ele>7.0</ele><time>2026-04-11T13:24:08Z</time></trkpt><trkpt lat="45.35877518124878" lon="11.944043185096339"><ele>7.0</ele><time>2026-04-11T13:24:09Z</time></trkpt><trkpt lat="45.358866157267585" lon="11.943906384205048"><ele>7.0</ele><time>2026-04-11T13:24:10Z</time></trkpt><trkpt lat="45.35896507467791" lon="11.943754683138161"><ele>7.0</ele><time>2026-04-11T13:24:11Z</time></trkpt><trkpt lat="45.35905574447736" lon="11.943612977523598"><ele>7.25</ele><time>2026-04-11T13:24:12Z</time></trkpt><trkpt lat="45.35914718327527" lon="11.943473304244577"><ele>7.5</ele><time>2026-04-11T13:24:13Z</time></trkpt><trkpt lat="45.359242885696084" lon="11.943336058542855"><ele>7.75</ele><time>2026-04-11T13:24:14Z</time></trkpt><trkpt lat="45.35933218309449" lon="11.943201836140352"><ele>8.0</ele><time>2026-04-11T13:24:15Z</time></trkpt><trkpt lat="45.359422387616654" lon="11.943060524375612"><ele>8.25</ele><time>2026-04-11T13:24:16Z</time></trkpt><trkpt lat="45.35951994795991" lon="11.94291440439833"><ele>8.5</ele><time>2026-04-11T13:24:17Z</time></trkpt><trkpt lat="45.35961863961874" lon="11.942765997029662"><ele>8.75</ele><time>2026-04-11T13:24:18Z</time></trkpt><trkpt lat="45.3597149287883" lon="11.94262069710673"><ele>9.0</ele><time>2026-04-11T13:24:19Z</time></trkpt><trkpt lat="45.35980855938979" lon="11.94247519836918"><ele>9.0</ele><time>2026-04-11T13:24:20Z</time></trkpt><trkpt lat="45.359892997186506" lon="11.942347105531601"><ele>9.0</ele><time>2026-04-11T13:24:21Z</time></trkpt><trkpt lat="45.359971954886475" lon="11.942230879524502"><ele>9.0</ele><time>2026-04-11T13:24:22Z</time></trkpt><trkpt lat="45.36004361591087" lon="11.942130351418893"><ele>9.0</ele><time>2026-04-11T13:24:23Z</time></trkpt><trkpt lat="45.36011140864741" lon="11.942025340521598"><ele>9.0</ele><time>2026-04-11T13:24:24Z</time></trkpt><trkpt lat="45.360179063112305" lon="11.94192002621689"><ele>9.0</ele><time>2026-04-11T13:24:25Z</time></trkpt><trkpt lat="45.36024729784104" lon="11.941822114695874"><ele>9.0</ele><time>2026-04-11T13:24:26Z</time></trkpt><trkpt lat="45.36031620917789" lon="11.941724280312226"><ele>9.0</ele><time>2026-04-11T13:24:27Z</time></trkpt><trkpt lat="45.36038633397652" lon="11.941617640112627"><ele>9.0</ele><time>2026-04-11T13:24:28Z</time></trkpt><trkpt lat="45.36045934281457" lon="11.941506926141424"><ele>9.0</ele><time>2026-04-11T13:24:29Z</time></trkpt><trkpt lat="45.360534074276" lon="11.941391201406201"><ele>8.75</ele><time>2026-04-11T13:24:29.999Z</time></trkpt><trkpt lat="45.360611614875765" lon="11.94127308900211"><ele>8.5</ele><time>2026-04-11T13:24:30.999Z</time></trkpt><trkpt lat="45.36068851651858" lon="11.941154356815002"><ele>8.25</ele><time>2026-04-11T13:24:31.999Z</time></trkpt><trkpt lat="45.36076664544891" lon="11.941031343133767"><ele>8.0</ele><time>2026-04-11T13:24:32.999Z</time></trkpt><trkpt lat="45.360839140299575" lon="11.940917530000304"><ele>8.200000000000001</ele><time>2026-04-11T13:24:33.999Z</time></trkpt><trkpt lat="45.36091075015652" lon="11.9408087315178"><ele>8.4</ele><time>2026-04-11T13:24:34.999Z</time></trkpt><trkpt lat="45.36097840039146" lon="11.94070288988438"><ele>8.600000000000001</ele><time>2026-04-11T13:24:35.999Z</time></trkpt><trkpt lat="45.3610393533093" lon="11.940601706390945"><ele>8.8</ele><time>2026-04-11T13:24:36.999Z</time></trkpt><trkpt lat="45.36109780458569" lon="11.940505999280486"><ele>9.0</ele><time>2026-04-11T13:24:37.999Z</time></trkpt><trkpt lat="45.3611510899893" lon="11.940408734012793"><ele>9.0</ele><time>2026-04-11T13:24:38.999Z</time></trkpt><trkpt lat="45.36120363130127" lon="11.940314387859658"><ele>9.0</ele><time>2026-04-11T13:24:39.999Z</time></trkpt><trkpt lat="45.36126144779836" lon="11.940230078914428"><ele>9.0</ele><time>2026-04-11T13:24:40.999Z</time></trkpt><trkpt lat="45.3613321131311" lon="11.940152954313552"><ele>9.0</ele><time>2026-04-11T13:24:41.999Z</time></trkpt><trkpt lat="45.36140883450028" lon="11.940059036393098"><ele>9.0</ele><time>2026-04-11T13:24:42.999Z</time></trkpt><trkpt lat="45.3615763891338" lon="11.939787912827686"><ele>9.0</ele><time>2026-04-11T13:24:44.999Z</time></trkpt><trkpt lat="45.36168037426166" lon="11.939636711629404"><ele>9.0</ele><time>2026-04-11T13:24:45.999Z</time></trkpt><trkpt lat="45.361784389036096" lon="11.939481434159777"><ele>9.0</ele><time>2026-04-11T13:24:46.999Z</time></trkpt><trkpt lat="45.361887337593494" lon="11.939329675459772"><ele>9.0</ele><time>2026-04-11T13:24:47.999Z</time></trkpt><trkpt lat="45.361984213229576" lon="11.939181600339348"><ele>8.75</ele><time>2026-04-11T13:24:48.999Z</time></trkpt><trkpt lat="45.36208272542219" lon="11.939031397938898"><ele>8.5</ele><time>2026-04-11T13:24:49.999Z</time></trkpt><trkpt lat="45.362181266699984" lon="11.938882946384153"><ele>8.25</ele><time>2026-04-11T13:24:50.999Z</time></trkpt><trkpt lat="45.36228103852634" lon="11.938734314139605"><ele>8.0</ele><time>2026-04-11T13:24:51.999Z</time></trkpt><trkpt lat="45.362373631217864" lon="11.938592938316303"><ele>7.75</ele><time>2026-04-11T13:24:52.999Z</time></trkpt><trkpt lat="45.362465356340124" lon="11.938457470606236"><ele>7.5</ele><time>2026-04-11T13:24:53.999Z</time></trkpt><trkpt lat="45.36255144542499" lon="11.938328213152044"><ele>7.25</ele><time>2026-04-11T13:24:54.999Z</time></trkpt><trkpt lat="45.36263841385566" lon="11.938196452731244"><ele>7.0</ele><time>2026-04-11T13:24:55.999Z</time></trkpt><trkpt lat="45.362727576387385" lon="11.938066119259503"><ele>7.25</ele><time>2026-04-11T13:24:56.999Z</time></trkpt><trkpt lat="45.36281525605566" lon="11.937934180442676"><ele>7.5</ele><time>2026-04-11T13:24:57.999Z</time></trkpt><trkpt lat="45.362906278668504" lon="11.937794867853016"><ele>7.75</ele><time>2026-04-11T13:24:58.999Z</time></trkpt><trkpt lat="45.36300100649768" lon="11.937651746051973"><ele>8.0</ele><time>2026-04-11T13:24:59.999Z</time></trkpt><trkpt lat="45.363100011727" lon="11.937503869231362"><ele>8.0</ele><time>2026-04-11T13:25:00.999Z</time></trkpt><trkpt lat="45.36319506324623" lon="11.937359899182121"><ele>8.0</ele><time>2026-04-11T13:25:01.999Z</time></trkpt><trkpt lat="45.36328879900605" lon="11.937215506167885"><ele>8.0</ele><time>2026-04-11T13:25:02.999Z</time></trkpt><trkpt lat="45.363390790093085" lon="11.937063637805906"><ele>8.0</ele><time>2026-04-11T13:25:03.999Z</time></trkpt><trkpt lat="45.36349172057894" lon="11.936920101181597"><ele>8.0</ele><time>2026-04-11T13:25:04.999Z</time></trkpt><trkpt lat="45.363594859745575" lon="11.936771227822458"><ele>8.0</ele><time>2026-04-11T13:25:05.999Z</time></trkpt><trkpt lat="45.36370679285795" lon="11.936634237779407"><ele>8.0</ele><time>2026-04-11T13:25:06.999Z</time></trkpt><trkpt lat="45.36382293028856" lon="11.936492028310207"><ele>8.0</ele><time>2026-04-11T13:25:07.999Z</time></trkpt><trkpt lat="45.36393670351384" lon="11.93634114975226"><ele>8.0</ele><time>2026-04-11T13:25:08.999Z</time></trkpt><trkpt lat="45.36404196316263" lon="11.936193913458773"><ele>8.0</ele><time>2026-04-11T13:25:09.999Z</time></trkpt><trkpt lat="45.36414024489732" lon="11.93604821057973"><ele>8.0</ele><time>2026-04-11T13:25:10.999Z</time></trkpt><trkpt lat="45.3642298915495" lon="11.93590483027824"><ele>8.0</ele><time>2026-04-11T13:25:11.999Z</time></trkpt><trkpt lat="45.36430270291085" lon="11.935762257689385"><ele>8.0</ele><time>2026-04-11T13:25:12.999Z</time></trkpt><trkpt lat="45.36436157250101" lon="11.935615452480999"><ele>8.0</ele><time>2026-04-11T13:25:13.999Z</time></trkpt><trkpt lat="45.36439328047875" lon="11.935460005449077"><ele>8.0</ele><time>2026-04-11T13:25:14.999Z</time></trkpt><trkpt lat="45.36441543601598" lon="11.935309242064102"><ele>8.0</ele><time>2026-04-11T13:25:15.999Z</time></trkpt><trkpt lat="45.3644292726578" lon="11.935170802540496"><ele>8.0</ele><time>2026-04-11T13:25:17Z</time></trkpt><trkpt lat="45.36444696597259" lon="11.935037135002059"><ele>7.833333333333333</ele><time>2026-04-11T13:25:18Z</time></trkpt><trkpt lat="45.364482133974846" lon="11.934907830046061"><ele>7.666666666666666</ele><time>2026-04-11T13:25:19Z</time></trkpt><trkpt lat="45.36450240183818" lon="11.93478101644406"><ele>7.5</ele><time>2026-04-11T13:25:20Z</time></trkpt><trkpt lat="45.364522877092114" lon="11.934652905214497"><ele>7.333333333333334</ele><time>2026-04-11T13:25:21Z</time></trkpt><trkpt lat="45.36454134240089" lon="11.934537369983522"><ele>7.166666666666667</ele><time>2026-04-11T13:25:22Z</time></trkpt><trkpt lat="45.364543038032565" lon="11.934426600275467"><ele>7.0</ele><time>2026-04-11T13:25:23Z</time></trkpt><trkpt lat="45.36456842281109" lon="11.934317523368282"><ele>7.199999999999999</ele><time>2026-04-11T13:25:24Z</time></trkpt><trkpt lat="45.36459022688171" lon="11.93419285756889"><ele>7.3999999999999995</ele><time>2026-04-11T13:25:25Z</time></trkpt><trkpt lat="45.364629870326524" lon="11.934060338268566"><ele>7.6000000000000005</ele><time>2026-04-11T13:25:26Z</time></trkpt><trkpt lat="45.364681581103014" lon="11.933925161394868"><ele>7.800000000000001</ele><time>2026-04-11T13:25:27Z</time></trkpt><trkpt lat="45.36474556003557" lon="11.933779503116524"><ele>8.0</ele><time>2026-04-11T13:25:28Z</time></trkpt><trkpt lat="45.36481873000887" lon="11.933637849805082"><ele>7.5</ele><time>2026-04-11T13:25:29Z</time></trkpt><trkpt lat="45.36489727497463" lon="11.933488523618"><ele>7.0</ele><time>2026-04-11T13:25:30Z</time></trkpt><trkpt lat="45.364978722614545" lon="11.933328058399548"><ele>6.5</ele><time>2026-04-11T13:25:31Z</time></trkpt><trkpt lat="45.365061627510585" lon="11.933169161742306"><ele>6.0</ele><time>2026-04-11T13:25:32Z</time></trkpt><trkpt lat="45.36514511843368" lon="11.933011342351364"><ele>7.0</ele><time>2026-04-11T13:25:33Z</time></trkpt><trkpt lat="45.36522947770102" lon="11.932848835171052"><ele>8.0</ele><time>2026-04-11T13:25:34Z</time></trkpt><trkpt lat="45.36531684145165" lon="11.932686173682537"><ele>9.0</ele><time>2026-04-11T13:25:35Z</time></trkpt><trkpt lat="45.36540318610004" lon="11.932519670789253"><ele>10.0</ele><time>2026-04-11T13:25:36Z</time></trkpt><trkpt lat="45.365495079116656" lon="11.93235783288338"><ele>9.25</ele><time>2026-04-11T13:25:37Z</time></trkpt><trkpt lat="45.36557944685379" lon="11.93218892022131"><ele>8.5</ele><time>2026-04-11T13:25:38Z</time></trkpt><trkpt lat="45.36565980337356" lon="11.932033449327863"><ele>7.75</ele><time>2026-04-11T13:25:39Z</time></trkpt><trkpt lat="45.36572755253492" lon="11.931884917305444"><ele>7.0</ele><time>2026-04-11T13:25:40Z</time></trkpt><trkpt lat="45.365787124902965" lon="11.931738551715716"><ele>7.0</ele><time>2026-04-11T13:25:41Z</time></trkpt><trkpt lat="45.3658370281242" lon="11.931600767650197"><ele>6.999999999999999</ele><time>2026-04-11T13:25:42Z</time></trkpt><trkpt lat="45.36588122014248" lon="11.931475557308765"><ele>6.999999999999999</ele><time>2026-04-11T13:25:43Z</time></trkpt><trkpt lat="45.36593353229721" lon="11.931361531176451"><ele>7.0</ele><time>2026-04-11T13:25:44Z</time></trkpt><trkpt lat="45.36598329796304" lon="11.931262499560379"><ele>7.0</ele><time>2026-04-11T13:25:45Z</time></trkpt><trkpt lat="45.36602467874679" lon="11.931161718811877"><ele>7.0</ele><time>2026-04-11T13:25:46Z</time></trkpt><trkpt lat="45.36611103294594" lon="11.930896353185423"><ele>7.0</ele><time>2026-04-11T13:25:48Z</time></trkpt><trkpt lat="45.366175010212956" lon="11.930751532014147"><ele>7.0</ele><time>2026-04-11T13:25:49Z</time></trkpt><trkpt lat="45.36627207129761" lon="11.930609411379303"><ele>7.0</ele><time>2026-04-11T13:25:50Z</time></trkpt><trkpt lat="45.3663363509767" lon="11.930431347909154"><ele>7.0</ele><time>2026-04-11T13:25:51Z</time></trkpt><trkpt lat="45.366420654653695" lon="11.93025832022787"><ele>7.0</ele><time>2026-04-11T13:25:52Z</time></trkpt><trkpt lat="45.366507050900964" lon="11.930067746146827"><ele>7.0</ele><time>2026-04-11T13:25:53Z</time></trkpt><trkpt lat="45.36658756592097" lon="11.929874141843456"><ele>7.333333333333334</ele><time>2026-04-11T13:25:54Z</time></trkpt><trkpt lat="45.36667341277932" lon="11.929669310325759"><ele>7.666666666666666</ele><time>2026-04-11T13:25:55Z</time></trkpt><trkpt lat="45.36675823410827" lon="11.929468930045854"><ele>8.0</ele><time>2026-04-11T13:25:56Z</time></trkpt><trkpt lat="45.366839995142925" lon="11.92926655677936"><ele>8.0</ele><time>2026-04-11T13:25:57Z</time></trkpt><trkpt lat="45.366920759385515" lon="11.929072462205196"><ele>8.0</ele><time>2026-04-11T13:25:58Z</time></trkpt><trkpt lat="45.367007489917825" lon="11.928870736268099"><ele>8.0</ele><time>2026-04-11T13:25:59Z</time></trkpt><trkpt lat="45.36709204505373" lon="11.928674366277182"><ele>8.0</ele><time>2026-04-11T13:26:00Z</time></trkpt><trkpt lat="45.367176623067884" lon="11.92847965676625"><ele>8.0</ele><time>2026-04-11T13:26:01Z</time></trkpt><trkpt lat="45.3672606367376" lon="11.928276267413294"><ele>8.0</ele><time>2026-04-11T13:26:02Z</time></trkpt><trkpt lat="45.367348042690054" lon="11.928064100036503"><ele>8.333333333333332</ele><time>2026-04-11T13:26:03Z</time></trkpt><trkpt lat="45.36743364389827" lon="11.927852474997543"><ele>8.666666666666666</ele><time>2026-04-11T13:26:04Z</time></trkpt><trkpt lat="45.367516984364435" lon="11.927655982533034"><ele>9.0</ele><time>2026-04-11T13:26:05Z</time></trkpt><trkpt lat="45.36760808471525" lon="11.9274849548441"><ele>9.25</ele><time>2026-04-11T13:26:06Z</time></trkpt><trkpt lat="45.36766745869487" lon="11.927300311502137"><ele>9.5</ele><time>2026-04-11T13:26:07Z</time></trkpt><trkpt lat="45.36774296374471" lon="11.927124957225526"><ele>9.75</ele><time>2026-04-11T13:26:08Z</time></trkpt><trkpt lat="45.36782255730723" lon="11.926953367496381"><ele>10.0</ele><time>2026-04-11T13:26:09Z</time></trkpt><trkpt lat="45.367891334654786" lon="11.926782437315259"><ele>10.0</ele><time>2026-04-11T13:26:10Z</time></trkpt><trkpt lat="45.367964030979294" lon="11.92662191961701"><ele>10.0</ele><time>2026-04-11T13:26:11Z</time></trkpt><trkpt lat="45.36802962565121" lon="11.92646460696303"><ele>10.0</ele><time>2026-04-11T13:26:12Z</time></trkpt><trkpt lat="45.368091750891054" lon="11.926309841228358"><ele>10.0</ele><time>2026-04-11T13:26:13Z</time></trkpt><trkpt lat="45.368175311699225" lon="11.926148976451795"><ele>9.666666666666668</ele><time>2026-04-11T13:26:14Z</time></trkpt><trkpt lat="45.368258027695965" lon="11.925955204806671"><ele>9.333333333333334</ele><time>2026-04-11T13:26:15Z</time></trkpt><trkpt lat="45.368341570352065" lon="11.925759498452708"><ele>9.0</ele><time>2026-04-11T13:26:15.999Z</time></trkpt><trkpt lat="45.368427657068835" lon="11.925559181366358"><ele>8.75</ele><time>2026-04-11T13:26:16.999Z</time></trkpt><trkpt lat="45.36850276238646" lon="11.92538321624931"><ele>8.5</ele><time>2026-04-11T13:26:17.999Z</time></trkpt><trkpt lat="45.36855695235891" lon="11.925211517530794"><ele>8.25</ele><time>2026-04-11T13:26:18.999Z</time></trkpt><trkpt lat="45.36862482904629" lon="11.925054776283497"><ele>8.0</ele><time>2026-04-11T13:26:19.999Z</time></trkpt><trkpt lat="45.3686870042017" lon="11.924897189665552"><ele>8.0</ele><time>2026-04-11T13:26:20.999Z</time></trkpt><trkpt lat="45.36877457259111" lon="11.924736505769662"><ele>8.0</ele><time>2026-04-11T13:26:21.999Z</time></trkpt><trkpt lat="45.36884949764181" lon="11.924556598791696"><ele>8.0</ele><time>2026-04-11T13:26:22.999Z</time></trkpt><trkpt lat="45.368912296567956" lon="11.924349818146899"><ele>8.0</ele><time>2026-04-11T13:26:23.999Z</time></trkpt><trkpt lat="45.36900208164212" lon="11.924150856968463"><ele>8.0</ele><time>2026-04-11T13:26:24.999Z</time></trkpt><trkpt lat="45.36909266110643" lon="11.923931474786707"><ele>8.0</ele><time>2026-04-11T13:26:25.999Z</time></trkpt><trkpt lat="45.36918663716512" lon="11.923691825161297"><ele>8.0</ele><time>2026-04-11T13:26:26.999Z</time></trkpt><trkpt lat="45.369290466735734" lon="11.92344278254141"><ele>8.0</ele><time>2026-04-11T13:26:27.999Z</time></trkpt><trkpt lat="45.369397536960314" lon="11.923189991177663"><ele>8.0</ele><time>2026-04-11T13:26:28.999Z</time></trkpt><trkpt lat="45.369506841384045" lon="11.92295142872963"><ele>8.0</ele><time>2026-04-11T13:26:29.999Z</time></trkpt><trkpt lat="45.36960405165424" lon="11.922747352733994"><ele>8.666666666666666</ele><time>2026-04-11T13:26:30.999Z</time></trkpt><trkpt lat="45.369694958557176" lon="11.92255217261184"><ele>9.333333333333334</ele><time>2026-04-11T13:26:31.999Z</time></trkpt><trkpt lat="45.36977617711584" lon="11.922365835021282"><ele>10.0</ele><time>2026-04-11T13:26:32.999Z</time></trkpt><trkpt lat="45.36984571303267" lon="11.922193690119238"><ele>10.0</ele><time>2026-04-11T13:26:33.999Z</time></trkpt><trkpt lat="45.36991134558926" lon="11.922028700337059"><ele>10.0</ele><time>2026-04-11T13:26:34.999Z</time></trkpt><trkpt lat="45.36997245553446" lon="11.921873941645226"><ele>10.0</ele><time>2026-04-11T13:26:35.999Z</time></trkpt><trkpt lat="45.370029707431904" lon="11.921738488096981"><ele>10.0</ele><time>2026-04-11T13:26:36.999Z</time></trkpt><trkpt lat="45.37008520800419" lon="11.921611967625045"><ele>9.833333333333334</ele><time>2026-04-11T13:26:37.999Z</time></trkpt><trkpt lat="45.370135664173596" lon="11.921494195638797"><ele>9.666666666666668</ele><time>2026-04-11T13:26:38.999Z</time></trkpt><trkpt lat="45.370186496744005" lon="11.921388792402041"><ele>9.5</ele><time>2026-04-11T13:26:39.999Z</time></trkpt><trkpt lat="45.370229140098886" lon="11.92128740450516"><ele>9.333333333333334</ele><time>2026-04-11T13:26:40.999Z</time></trkpt><trkpt lat="45.37026866169186" lon="11.921190747619043"><ele>9.166666666666666</ele><time>2026-04-11T13:26:41.999Z</time></trkpt><trkpt lat="45.37030249674346" lon="11.921101466679579"><ele>9.0</ele><time>2026-04-11T13:26:42.999Z</time></trkpt><trkpt lat="45.37033839561149" lon="11.921016152011518"><ele>9.0</ele><time>2026-04-11T13:26:43.999Z</time></trkpt><trkpt lat="45.37038587363649" lon="11.920904962289878"><ele>9.0</ele><time>2026-04-11T13:26:45.999Z</time></trkpt><trkpt lat="45.370445503641996" lon="11.920789093939284"><ele>9.0</ele><time>2026-04-11T13:27:11.999Z</time></trkpt><trkpt lat="45.37047827118765" lon="11.92070680683888"><ele>9.0</ele><time>2026-04-11T13:27:12.999Z</time></trkpt><trkpt lat="45.37052789285531" lon="11.92061130845628"><ele>9.0</ele><time>2026-04-11T13:27:13.999Z</time></trkpt><trkpt lat="45.370571187985846" lon="11.920509492518779"><ele>9.0</ele><time>2026-04-11T13:27:14.999Z</time></trkpt><trkpt lat="45.370627862912336" lon="11.920374584866387"><ele>9.0</ele><time>2026-04-11T13:27:15.999Z</time></trkpt><trkpt lat="45.37067694424291" lon="11.920224312764695"><ele>9.0</ele><time>2026-04-11T13:27:16.999Z</time></trkpt><trkpt lat="45.370744918426" lon="11.92008246065537"><ele>9.0</ele><time>2026-04-11T13:27:17.999Z</time></trkpt><trkpt lat="45.37081137461916" lon="11.919939562121034"><ele>9.0</ele><time>2026-04-11T13:27:18.999Z</time></trkpt><trkpt lat="45.370876238319525" lon="11.919805401856618"><ele>9.25</ele><time>2026-04-11T13:27:19.999Z</time></trkpt><trkpt lat="45.370939814650505" lon="11.91966992365062"><ele>9.5</ele><time>2026-04-11T13:27:20.999Z</time></trkpt><trkpt lat="45.37100222773239" lon="11.919508688634576"><ele>9.75</ele><time>2026-04-11T13:27:21.999Z</time></trkpt><trkpt lat="45.37106888728495" lon="11.919331138911948"><ele>10.0</ele><time>2026-04-11T13:27:22.999Z</time></trkpt><trkpt lat="45.371140796651794" lon="11.919144898238455"><ele>10.0</ele><time>2026-04-11T13:27:23.999Z</time></trkpt><trkpt lat="45.371223934031875" lon="11.918941032549805"><ele>10.0</ele><time>2026-04-11T13:27:24.999Z</time></trkpt><trkpt lat="45.37131621259652" lon="11.918732300855027"><ele>10.0</ele><time>2026-04-11T13:27:25.999Z</time></trkpt><trkpt lat="45.37140895135115" lon="11.91852298026822"><ele>10.0</ele><time>2026-04-11T13:27:26.999Z</time></trkpt><trkpt lat="45.37149613348396" lon="11.918319323126209"><ele>10.0</ele><time>2026-04-11T13:27:27.999Z</time></trkpt><trkpt lat="45.37157644048848" lon="11.918132546649913"><ele>10.0</ele><time>2026-04-11T13:27:28.999Z</time></trkpt><trkpt lat="45.37164204375557" lon="11.917972715342275"><ele>10.0</ele><time>2026-04-11T13:27:29.999Z</time></trkpt><trkpt lat="45.37170322723631" lon="11.917837504118328"><ele>10.0</ele><time>2026-04-11T13:27:30.999Z</time></trkpt><trkpt lat="45.37174905980566" lon="11.917722917440077"><ele>10.0</ele><time>2026-04-11T13:27:31.999Z</time></trkpt><trkpt lat="45.37178569959493" lon="11.917637800089853"><ele>10.0</ele><time>2026-04-11T13:27:33Z</time></trkpt><trkpt lat="45.37182399587757" lon="11.917542421965845"><ele>10.0</ele><time>2026-04-11T13:27:35Z</time></trkpt><trkpt lat="45.37187304972352" lon="11.917447207634709"><ele>10.0</ele><time>2026-04-11T13:28:02Z</time></trkpt><trkpt lat="45.37191362575065" lon="11.917352297911183"><ele>10.0</ele><time>2026-04-11T13:28:03Z</time></trkpt><trkpt lat="45.371963472378205" lon="11.917238546057813"><ele>10.0</ele><time>2026-04-11T13:28:04Z</time></trkpt><trkpt lat="45.3720235079173" lon="11.917097442462433"><ele>10.0</ele><time>2026-04-11T13:28:05Z</time></trkpt><trkpt lat="45.37209424772687" lon="11.916933379474063"><ele>10.0</ele><time>2026-04-11T13:28:06Z</time></trkpt><trkpt lat="45.372166350231595" lon="11.91676515643472"><ele>10.0</ele><time>2026-04-11T13:28:07Z</time></trkpt><trkpt lat="45.372246483504036" lon="11.916578196709471"><ele>10.0</ele><time>2026-04-11T13:28:08Z</time></trkpt><trkpt lat="45.37233309852634" lon="11.916375048961793"><ele>10.0</ele><time>2026-04-11T13:28:09Z</time></trkpt><trkpt lat="45.37240119086216" lon="11.91616875291562"><ele>10.0</ele><time>2026-04-11T13:28:10Z</time></trkpt><trkpt lat="45.372484968297" lon="11.915974893351652"><ele>10.0</ele><time>2026-04-11T13:28:11Z</time></trkpt><trkpt lat="45.37256879020987" lon="11.915777075280324"><ele>10.0</ele><time>2026-04-11T13:28:12Z</time></trkpt><trkpt lat="45.372666581987026" lon="11.915590249728034"><ele>9.666666666666668</ele><time>2026-04-11T13:28:13Z</time></trkpt><trkpt lat="45.37275261631453" lon="11.915390203383996"><ele>9.333333333333334</ele><time>2026-04-11T13:28:14Z</time></trkpt><trkpt lat="45.37281851675281" lon="11.91517441217427"><ele>9.0</ele><time>2026-04-11T13:28:15Z</time></trkpt><trkpt lat="45.372906859697736" lon="11.914970155548827"><ele>9.0</ele><time>2026-04-11T13:28:16Z</time></trkpt><trkpt lat="45.373000327638344" lon="11.914763639997714"><ele>9.0</ele><time>2026-04-11T13:28:17Z</time></trkpt><trkpt lat="45.37309110422237" lon="11.91455715549843"><ele>9.0</ele><time>2026-04-11T13:28:18Z</time></trkpt><trkpt lat="45.373180993389" lon="11.91434449900572"><ele>9.333333333333334</ele><time>2026-04-11T13:28:19Z</time></trkpt><trkpt lat="45.37326902447006" lon="11.914129048641618"><ele>9.666666666666668</ele><time>2026-04-11T13:28:20Z</time></trkpt><trkpt lat="45.37336188752801" lon="11.9139184894624"><ele>10.0</ele><time>2026-04-11T13:28:21Z</time></trkpt><trkpt lat="45.37345578103581" lon="11.913701257487826"><ele>10.0</ele><time>2026-04-11T13:28:22Z</time></trkpt><trkpt lat="45.373545493944846" lon="11.91349159489226"><ele>10.0</ele><time>2026-04-11T13:28:23Z</time></trkpt><trkpt lat="45.37363957883891" lon="11.91327354483672"><ele>10.0</ele><time>2026-04-11T13:28:24Z</time></trkpt><trkpt lat="45.373730808130546" lon="11.913051635502619"><ele>10.0</ele><time>2026-04-11T13:28:25Z</time></trkpt><trkpt lat="45.37382178920826" lon="11.912838193902155"><ele>10.0</ele><time>2026-04-11T13:28:26Z</time></trkpt><trkpt lat="45.37391748228659" lon="11.912619019562392"><ele>10.0</ele><time>2026-04-11T13:28:27Z</time></trkpt><trkpt lat="45.37401947840738" lon="11.91240561824215"><ele>10.0</ele><time>2026-04-11T13:28:28Z</time></trkpt><trkpt lat="45.3741052282881" lon="11.912194879473507"><ele>10.0</ele><time>2026-04-11T13:28:29Z</time></trkpt><trkpt lat="45.37419115090857" lon="11.911979467249969"><ele>10.0</ele><time>2026-04-11T13:28:30Z</time></trkpt><trkpt lat="45.374279754010615" lon="11.911761467740321"><ele>10.333333333333334</ele><time>2026-04-11T13:28:30.999Z</time></trkpt><trkpt lat="45.37437479370348" lon="11.911536036079557"><ele>10.666666666666666</ele><time>2026-04-11T13:28:31.999Z</time></trkpt><trkpt lat="45.37447116923194" lon="11.91131103062926"><ele>11.0</ele><time>2026-04-11T13:28:32.999Z</time></trkpt><trkpt lat="45.3745838535298" lon="11.911096739785153"><ele>11.0</ele><time>2026-04-11T13:28:33.999Z</time></trkpt><trkpt lat="45.37465698331034" lon="11.910863849351934"><ele>11.0</ele><time>2026-04-11T13:28:34.999Z</time></trkpt><trkpt lat="45.37474218404798" lon="11.910673182135682"><ele>11.0</ele><time>2026-04-11T13:28:35.999Z</time></trkpt><trkpt lat="45.374822799460155" lon="11.910502975082794"><ele>10.8</ele><time>2026-04-11T13:28:36.999Z</time></trkpt><trkpt lat="45.3748979202687" lon="11.910347792243918"><ele>10.600000000000001</ele><time>2026-04-11T13:28:37.999Z</time></trkpt><trkpt lat="45.374965661443966" lon="11.910218622045752"><ele>10.4</ele><time>2026-04-11T13:28:38.999Z</time></trkpt><trkpt lat="45.37502509322954" lon="11.910120210067603"><ele>10.2</ele><time>2026-04-11T13:28:39.999Z</time></trkpt><trkpt lat="45.37507476641858" lon="11.910051768354716"><ele>10.0</ele><time>2026-04-11T13:28:40.999Z</time></trkpt><trkpt lat="45.37513295252525" lon="11.909997901060152"><ele>10.0</ele><time>2026-04-11T13:28:42.999Z</time></trkpt><trkpt lat="45.37522005878646" lon="11.909911622233361"><ele>10.0</ele><time>2026-04-11T13:28:45.999Z</time></trkpt><trkpt lat="45.37525189799176" lon="11.909814050407027"><ele>10.0</ele><time>2026-04-11T13:28:46.999Z</time></trkpt><trkpt lat="45.37526853783552" lon="11.909690438573048"><ele>10.0</ele><time>2026-04-11T13:28:47.999Z</time></trkpt><trkpt lat="45.375282765775886" lon="11.909563769237833"><ele>10.0</ele><time>2026-04-11T13:28:48.999Z</time></trkpt><trkpt lat="45.375320834631864" lon="11.909434515894564"><ele>10.0</ele><time>2026-04-11T13:28:49.999Z</time></trkpt><trkpt lat="45.37535907522494" lon="11.909330856495044"><ele>10.0</ele><time>2026-04-11T13:28:50.999Z</time></trkpt><trkpt lat="45.375396730842326" lon="11.909246806952277"><ele>10.0</ele><time>2026-04-11T13:28:51.999Z</time></trkpt><trkpt lat="45.375427169236694" lon="11.909167490397007"><ele>10.0</ele><time>2026-04-11T13:28:52.999Z</time></trkpt><trkpt lat="45.375417008434276" lon="11.909018317963607"><ele>10.0</ele><time>2026-04-11T13:28:54.999Z</time></trkpt><trkpt lat="45.375345983041775" lon="11.908984120159852"><ele>10.0</ele><time>2026-04-11T13:28:55.999Z</time></trkpt><trkpt lat="45.375278790443126" lon="11.908968256664584"><ele>10.4</ele><time>2026-04-11T13:28:56.999Z</time></trkpt><trkpt lat="45.37520206258613" lon="11.908940495863895"><ele>10.8</ele><time>2026-04-11T13:28:57.999Z</time></trkpt><trkpt lat="45.37511677144253" lon="11.908877486326348"><ele>11.2</ele><time>2026-04-11T13:28:58.999Z</time></trkpt><trkpt lat="45.375022598244676" lon="11.908789944901947"><ele>11.6</ele><time>2026-04-11T13:28:59.999Z</time></trkpt><trkpt lat="45.37492104554452" lon="11.908679724758871"><ele>12.0</ele><time>2026-04-11T13:29:00.999Z</time></trkpt><trkpt lat="45.374817197977876" lon="11.908558197358218"><ele>12.0</ele><time>2026-04-11T13:29:01.999Z</time></trkpt><trkpt lat="45.37471660927011" lon="11.908445669724344"><ele>12.0</ele><time>2026-04-11T13:29:02.999Z</time></trkpt><trkpt lat="45.374605648243616" lon="11.90831974834565"><ele>12.0</ele><time>2026-04-11T13:29:03.999Z</time></trkpt><trkpt lat="45.37448881173442" lon="11.908183211042637"><ele>12.0</ele><time>2026-04-11T13:29:04.999Z</time></trkpt><trkpt lat="45.37436822166434" lon="11.908038598778768"><ele>11.0</ele><time>2026-04-11T13:29:05.999Z</time></trkpt><trkpt lat="45.374237992319514" lon="11.907884117171848"><ele>10.0</ele><time>2026-04-11T13:29:06.999Z</time></trkpt><trkpt lat="45.37410603195889" lon="11.907733426734955"><ele>9.0</ele><time>2026-04-11T13:29:07.999Z</time></trkpt><trkpt lat="45.37398038277169" lon="11.90758571640035"><ele>8.666666666666666</ele><time>2026-04-11T13:29:08.999Z</time></trkpt><trkpt lat="45.3738542499476" lon="11.907441957307467"><ele>8.333333333333332</ele><time>2026-04-11T13:29:09.999Z</time></trkpt><trkpt lat="45.373721288498906" lon="11.90729022915546"><ele>8.0</ele><time>2026-04-11T13:29:10.999Z</time></trkpt><trkpt lat="45.37358941779916" lon="11.907132107810007"><ele>8.0</ele><time>2026-04-11T13:29:11.999Z</time></trkpt><trkpt lat="45.37345995392877" lon="11.906967205903355"><ele>8.0</ele><time>2026-04-11T13:29:12.999Z</time></trkpt><trkpt lat="45.37333283785343" lon="11.90679428185505"><ele>8.0</ele><time>2026-04-11T13:29:13.999Z</time></trkpt><trkpt lat="45.37320415697587" lon="11.906621324394617"><ele>7.666666666666666</ele><time>2026-04-11T13:29:15Z</time></trkpt><trkpt lat="45.373074632042126" lon="11.906448018764825"><ele>7.333333333333334</ele><time>2026-04-11T13:29:16Z</time></trkpt><trkpt lat="45.37294481753642" lon="11.906266399145037"><ele>7.0</ele><time>2026-04-11T13:29:17Z</time></trkpt><trkpt lat="45.37281690223065" lon="11.906082759244912"><ele>7.333333333333334</ele><time>2026-04-11T13:29:18Z</time></trkpt><trkpt lat="45.37268791010852" lon="11.905889980173194"><ele>7.666666666666666</ele><time>2026-04-11T13:29:19Z</time></trkpt><trkpt lat="45.372553006044356" lon="11.905691492207088"><ele>8.0</ele><time>2026-04-11T13:29:20Z</time></trkpt><trkpt lat="45.372415973034364" lon="11.905479647573339"><ele>8.0</ele><time>2026-04-11T13:29:21Z</time></trkpt><trkpt lat="45.37228133138308" lon="11.905254600871059"><ele>8.0</ele><time>2026-04-11T13:29:22Z</time></trkpt><trkpt lat="45.37215102001089" lon="11.905013400038246"><ele>8.0</ele><time>2026-04-11T13:29:23Z</time></trkpt><trkpt lat="45.3720283269802" lon="11.904760731497044"><ele>7.666666666666666</ele><time>2026-04-11T13:29:24Z</time></trkpt><trkpt lat="45.37191270110437" lon="11.9045085298759"><ele>7.333333333333334</ele><time>2026-04-11T13:29:25Z</time></trkpt><trkpt lat="45.37180148694115" lon="11.904258948163486"><ele>7.0</ele><time>2026-04-11T13:29:26Z</time></trkpt><trkpt lat="45.37169385882299" lon="11.904007262131255"><ele>7.0</ele><time>2026-04-11T13:29:27Z</time></trkpt><trkpt lat="45.37158836086337" lon="11.903746315100966"><ele>7.0</ele><time>2026-04-11T13:29:28Z</time></trkpt><trkpt lat="45.37148069304246" lon="11.903485279044334"><ele>7.0</ele><time>2026-04-11T13:29:29Z</time></trkpt><trkpt lat="45.37137472264268" lon="11.903223641690877"><ele>7.0</ele><time>2026-04-11T13:29:30Z</time></trkpt><trkpt lat="45.37127234702879" lon="11.902955931208785"><ele>7.0</ele><time>2026-04-11T13:29:31Z</time></trkpt><trkpt lat="45.37117549033686" lon="11.902681611888093"><ele>7.0</ele><time>2026-04-11T13:29:32Z</time></trkpt><trkpt lat="45.37108777197569" lon="11.902407966849884"><ele>7.0</ele><time>2026-04-11T13:29:33Z</time></trkpt><trkpt lat="45.37100189187972" lon="11.902125795966652"><ele>7.0</ele><time>2026-04-11T13:29:34Z</time></trkpt><trkpt lat="45.37091938653037" lon="11.90184552934954"><ele>7.0</ele><time>2026-04-11T13:29:35Z</time></trkpt><trkpt lat="45.37083386218762" lon="11.901557842954361"><ele>7.333333333333334</ele><time>2026-04-11T13:29:36Z</time></trkpt><trkpt lat="45.37075003015071" lon="11.901277251398035"><ele>7.666666666666666</ele><time>2026-04-11T13:29:37Z</time></trkpt><trkpt lat="45.370664887525294" lon="11.900993287707927"><ele>8.0</ele><time>2026-04-11T13:29:38Z</time></trkpt><trkpt lat="45.370579940076304" lon="11.900711532442338"><ele>7.666666666666666</ele><time>2026-04-11T13:29:39Z</time></trkpt><trkpt lat="45.370497882490994" lon="11.900427704959869"><ele>7.333333333333334</ele><time>2026-04-11T13:29:40Z</time></trkpt><trkpt lat="45.370415068841744" lon="11.900142154351284"><ele>7.0</ele><time>2026-04-11T13:29:41Z</time></trkpt><trkpt lat="45.37033271670335" lon="11.899860709575107"><ele>7.0</ele><time>2026-04-11T13:29:42Z</time></trkpt><trkpt lat="45.370249635126186" lon="11.899578443817775"><ele>7.0</ele><time>2026-04-11T13:29:43Z</time></trkpt><trkpt lat="45.370169574849776" lon="11.899294066425986"><ele>7.0</ele><time>2026-04-11T13:29:44Z</time></trkpt><trkpt lat="45.3700860383906" lon="11.899010391652194"><ele>7.0</ele><time>2026-04-11T13:29:45Z</time></trkpt><trkpt lat="45.37000134667394" lon="11.898726502572806"><ele>7.0</ele><time>2026-04-11T13:29:46Z</time></trkpt><trkpt lat="45.36992127684123" lon="11.898440341977006"><ele>7.0</ele><time>2026-04-11T13:29:47Z</time></trkpt><trkpt lat="45.36983897549094" lon="11.89815167490514"><ele>7.0</ele><time>2026-04-11T13:29:48Z</time></trkpt><trkpt lat="45.369753906853845" lon="11.897866632084815"><ele>7.0</ele><time>2026-04-11T13:29:49Z</time></trkpt><trkpt lat="45.369673737549434" lon="11.897580638908856"><ele>7.0</ele><time>2026-04-11T13:29:50Z</time></trkpt><trkpt lat="45.369591885961896" lon="11.897295188064081"><ele>7.333333333333334</ele><time>2026-04-11T13:29:51Z</time></trkpt><trkpt lat="45.36951022055603" lon="11.897011555329597"><ele>7.666666666666666</ele><time>2026-04-11T13:29:52Z</time></trkpt><trkpt lat="45.36943032049418" lon="11.896724463348608"><ele>8.0</ele><time>2026-04-11T13:29:53Z</time></trkpt><trkpt lat="45.369351193981096" lon="11.896440545519887"><ele>7.0</ele><time>2026-04-11T13:29:54Z</time></trkpt><trkpt lat="45.36926917709128" lon="11.896151696162136"><ele>6.0</ele><time>2026-04-11T13:29:55Z</time></trkpt><trkpt lat="45.36918394763271" lon="11.895866137980489"><ele>5.0</ele><time>2026-04-11T13:29:56Z</time></trkpt><trkpt lat="45.3691016202779" lon="11.895580476307924"><ele>5.0</ele><time>2026-04-11T13:29:57Z</time></trkpt><trkpt lat="45.369023617624435" lon="11.895289587841386"><ele>5.0</ele><time>2026-04-11T13:29:58Z</time></trkpt><trkpt lat="45.36894882439141" lon="11.89499710627057"><ele>5.0</ele><time>2026-04-11T13:29:59Z</time></trkpt><trkpt lat="45.36887142357434" lon="11.894717450317136"><ele>5.666666666666667</ele><time>2026-04-11T13:30:00Z</time></trkpt><trkpt lat="45.36879932406593" lon="11.894423052814561"><ele>6.333333333333334</ele><time>2026-04-11T13:30:01Z</time></trkpt><trkpt lat="45.368733519164905" lon="11.894136100145548"><ele>7.0</ele><time>2026-04-11T13:30:02Z</time></trkpt><trkpt lat="45.36866856359625" lon="11.893843612025114"><ele>7.333333333333334</ele><time>2026-04-11T13:30:03Z</time></trkpt><trkpt lat="45.3686009537446" lon="11.893554905301151"><ele>7.666666666666666</ele><time>2026-04-11T13:30:04Z</time></trkpt><trkpt lat="45.36853467115226" lon="11.893266736497264"><ele>8.0</ele><time>2026-04-11T13:30:05Z</time></trkpt><trkpt lat="45.36847374138296" lon="11.892972560544917"><ele>8.0</ele><time>2026-04-11T13:30:06Z</time></trkpt><trkpt lat="45.36841342690243" lon="11.892686603144192"><ele>8.0</ele><time>2026-04-11T13:30:07Z</time></trkpt><trkpt lat="45.36835526836113" lon="11.892394829662548"><ele>8.0</ele><time>2026-04-11T13:30:08Z</time></trkpt><trkpt lat="45.36830263477195" lon="11.892096339084407"><ele>8.0</ele><time>2026-04-11T13:30:09Z</time></trkpt><trkpt lat="45.368243672914346" lon="11.891807620988637"><ele>8.0</ele><time>2026-04-11T13:30:10Z</time></trkpt><trkpt lat="45.36818866476107" lon="11.891511277982653"><ele>8.0</ele><time>2026-04-11T13:30:11Z</time></trkpt><trkpt lat="45.36813231627843" lon="11.891215568822062"><ele>7.666666666666666</ele><time>2026-04-11T13:30:12Z</time></trkpt><trkpt lat="45.36807874221058" lon="11.890914721528924"><ele>7.333333333333334</ele><time>2026-04-11T13:30:13Z</time></trkpt><trkpt lat="45.36802322143579" lon="11.890620755722523"><ele>7.0</ele><time>2026-04-11T13:30:14Z</time></trkpt><trkpt lat="45.367967836761906" lon="11.890320015833655"><ele>7.333333333333334</ele><time>2026-04-11T13:30:15Z</time></trkpt><trkpt lat="45.36791025644033" lon="11.890015956892697"><ele>7.666666666666666</ele><time>2026-04-11T13:30:16Z</time></trkpt><trkpt lat="45.36785519300924" lon="11.889711060619659"><ele>8.0</ele><time>2026-04-11T13:30:17Z</time></trkpt><trkpt lat="45.36779764856923" lon="11.889408787389344"><ele>8.0</ele><time>2026-04-11T13:30:18Z</time></trkpt><trkpt lat="45.36774291817345" lon="11.889102589877961"><ele>8.0</ele><time>2026-04-11T13:30:19Z</time></trkpt><trkpt lat="45.36768680982993" lon="11.888798293461303"><ele>8.0</ele><time>2026-04-11T13:30:20Z</time></trkpt><trkpt lat="45.36763082756809" lon="11.888492111172102"><ele>8.0</ele><time>2026-04-11T13:30:21Z</time></trkpt><trkpt lat="45.36757516175462" lon="11.888185257052205"><ele>8.0</ele><time>2026-04-11T13:30:22Z</time></trkpt><trkpt lat="45.36752026934495" lon="11.887880762198213"><ele>8.0</ele><time>2026-04-11T13:30:23Z</time></trkpt><trkpt lat="45.367465383203175" lon="11.88758345198462"><ele>8.0</ele><time>2026-04-11T13:30:24Z</time></trkpt><trkpt lat="45.367414857192884" lon="11.887282155068933"><ele>8.0</ele><time>2026-04-11T13:30:25Z</time></trkpt><trkpt lat="45.3673580565385" lon="11.886988783148636"><ele>8.0</ele><time>2026-04-11T13:30:26Z</time></trkpt><trkpt lat="45.36730032406895" lon="11.886696738687332"><ele>7.666666666666666</ele><time>2026-04-11T13:30:27Z</time></trkpt><trkpt lat="45.367247706524445" lon="11.886398862747756"><ele>7.333333333333334</ele><time>2026-04-11T13:30:28Z</time></trkpt><trkpt lat="45.36719411506402" lon="11.886103663356643"><ele>7.0</ele><time>2026-04-11T13:30:29Z</time></trkpt><trkpt lat="45.367136243682644" lon="11.885814253001321"><ele>7.0</ele><time>2026-04-11T13:30:30Z</time></trkpt><trkpt lat="45.36708442170913" lon="11.885518589566482"><ele>7.0</ele><time>2026-04-11T13:30:31Z</time></trkpt><trkpt lat="45.36703175925111" lon="11.885220675360122"><ele>7.0</ele><time>2026-04-11T13:30:32Z</time></trkpt><trkpt lat="45.36698128613268" lon="11.884920457506967"><ele>7.0</ele><time>2026-04-11T13:30:33Z</time></trkpt><trkpt lat="45.36692436881479" lon="11.884628403065971"><ele>7.0</ele><time>2026-04-11T13:30:34Z</time></trkpt><trkpt lat="45.36686917313118" lon="11.884333770758671"><ele>7.0</ele><time>2026-04-11T13:30:35Z</time></trkpt><trkpt lat="45.36680913402861" lon="11.884038929127536"><ele>7.0</ele><time>2026-04-11T13:30:36Z</time></trkpt><trkpt lat="45.36674328149999" lon="11.883747310231493"><ele>7.0</ele><time>2026-04-11T13:30:37Z</time></trkpt><trkpt lat="45.36667655219801" lon="11.883440195881095"><ele>7.0</ele><time>2026-04-11T13:30:38Z</time></trkpt><trkpt lat="45.36661590990702" lon="11.883122414613567"><ele>8.0</ele><time>2026-04-11T13:30:39Z</time></trkpt><trkpt lat="45.36655864689163" lon="11.882803412654102"><ele>9.0</ele><time>2026-04-11T13:30:40Z</time></trkpt><trkpt lat="45.3665015201969" lon="11.882469453214787"><ele>9.0</ele><time>2026-04-11T13:30:41Z</time></trkpt><trkpt lat="45.3664378654072" lon="11.88212786557699"><ele>9.0</ele><time>2026-04-11T13:30:42Z</time></trkpt><trkpt lat="45.36637051073851" lon="11.881779635002038"><ele>8.5</ele><time>2026-04-11T13:30:43Z</time></trkpt><trkpt lat="45.366305902454336" lon="11.881427296339062"><ele>8.0</ele><time>2026-04-11T13:30:44Z</time></trkpt><trkpt lat="45.36624152712396" lon="11.881077197528873"><ele>8.0</ele><time>2026-04-11T13:30:45Z</time></trkpt><trkpt lat="45.36617832044985" lon="11.880727414826207"><ele>8.0</ele><time>2026-04-11T13:30:46Z</time></trkpt><trkpt lat="45.366115085525955" lon="11.88037936125476"><ele>8.0</ele><time>2026-04-11T13:30:47Z</time></trkpt><trkpt lat="45.366050641136134" lon="11.88003047967584"><ele>8.0</ele><time>2026-04-11T13:30:48Z</time></trkpt><trkpt lat="45.36598775938082" lon="11.87968416840568"><ele>8.0</ele><time>2026-04-11T13:30:49Z</time></trkpt><trkpt lat="45.36592537452622" lon="11.879335554102749"><ele>8.0</ele><time>2026-04-11T13:30:50Z</time></trkpt><trkpt lat="45.36586107529923" lon="11.87899015102838"><ele>8.0</ele><time>2026-04-11T13:30:51Z</time></trkpt><trkpt lat="45.365794601392345" lon="11.87863715541841"><ele>8.0</ele><time>2026-04-11T13:30:52Z</time></trkpt><trkpt lat="45.365729389693435" lon="11.878295469076825"><ele>7.5</ele><time>2026-04-11T13:30:53Z</time></trkpt><trkpt lat="45.36566338273615" lon="11.877949312907463"><ele>7.0</ele><time>2026-04-11T13:30:54Z</time></trkpt><trkpt lat="45.365600145250106" lon="11.877597922594637"><ele>7.0</ele><time>2026-04-11T13:30:55Z</time></trkpt><trkpt lat="45.36553905641606" lon="11.877247637518066"><ele>7.0</ele><time>2026-04-11T13:30:56Z</time></trkpt><trkpt lat="45.365478163815126" lon="11.876898451593481"><ele>7.0</ele><time>2026-04-11T13:30:57Z</time></trkpt><trkpt lat="45.36541345053141" lon="11.876549308705231"><ele>7.0</ele><time>2026-04-11T13:30:58Z</time></trkpt><trkpt lat="45.36534943398519" lon="11.876199402095246"><ele>7.5</ele><time>2026-04-11T13:30:59Z</time></trkpt><trkpt lat="45.36528649750174" lon="11.875846557294263"><ele>8.0</ele><time>2026-04-11T13:31:00Z</time></trkpt><trkpt lat="45.36522354717518" lon="11.875485655774405"><ele>8.0</ele><time>2026-04-11T13:31:01Z</time></trkpt><trkpt lat="45.36515567605503" lon="11.875118655383078"><ele>8.0</ele><time>2026-04-11T13:31:02Z</time></trkpt><trkpt lat="45.36508596140516" lon="11.874740704356427"><ele>8.5</ele><time>2026-04-11T13:31:03Z</time></trkpt><trkpt lat="45.36501777637316" lon="11.874359177021953"><ele>9.0</ele><time>2026-04-11T13:31:04Z</time></trkpt><trkpt lat="45.364947493652394" lon="11.8739743629505"><ele>9.0</ele><time>2026-04-11T13:31:05Z</time></trkpt><trkpt lat="45.36487812231797" lon="11.873586047648452"><ele>9.0</ele><time>2026-04-11T13:31:06Z</time></trkpt><trkpt lat="45.36480926406785" lon="11.873199255330372"><ele>9.0</ele><time>2026-04-11T13:31:07Z</time></trkpt><trkpt lat="45.36473983088304" lon="11.872811924389467"><ele>9.0</ele><time>2026-04-11T13:31:08Z</time></trkpt><trkpt lat="45.36466917287301" lon="11.872431066677446"><ele>9.0</ele><time>2026-04-11T13:31:09Z</time></trkpt><trkpt lat="45.3645998793807" lon="11.87205657384156"><ele>9.0</ele><time>2026-04-11T13:31:10Z</time></trkpt><trkpt lat="45.364530965975256" lon="11.871678906480948"><ele>10.0</ele><time>2026-04-11T13:31:11Z</time></trkpt><trkpt lat="45.364463008403916" lon="11.87130585869976"><ele>11.0</ele><time>2026-04-11T13:31:12Z</time></trkpt><trkpt lat="45.36439648930519" lon="11.870929378781472"><ele>11.0</ele><time>2026-04-11T13:31:13Z</time></trkpt><trkpt lat="45.36433400589378" lon="11.870557118868069"><ele>11.0</ele><time>2026-04-11T13:31:14Z</time></trkpt><trkpt lat="45.364273400562936" lon="11.870178818613157"><ele>9.5</ele><time>2026-04-11T13:31:15Z</time></trkpt><trkpt lat="45.3642151350657" lon="11.86980222430055"><ele>8.0</ele><time>2026-04-11T13:31:16Z</time></trkpt><trkpt lat="45.36415937626489" lon="11.86941866817764"><ele>8.0</ele><time>2026-04-11T13:31:17Z</time></trkpt><trkpt lat="45.36410578473696" lon="11.869033868875015"><ele>8.0</ele><time>2026-04-11T13:31:18Z</time></trkpt><trkpt lat="45.36405291594737" lon="11.86864928202658"><ele>8.0</ele><time>2026-04-11T13:31:19Z</time></trkpt><trkpt lat="45.364002449138034" lon="11.868265315522487"><ele>8.0</ele><time>2026-04-11T13:31:20Z</time></trkpt><trkpt lat="45.3639564099338" lon="11.867880180495053"><ele>7.5</ele><time>2026-04-11T13:31:21Z</time></trkpt><trkpt lat="45.36391265617277" lon="11.867508167223741"><ele>7.0</ele><time>2026-04-11T13:31:22Z</time></trkpt><trkpt lat="45.36388225987383" lon="11.867153842896194"><ele>7.0</ele><time>2026-04-11T13:31:23Z</time></trkpt><trkpt lat="45.36385592418599" lon="11.866808637459968"><ele>7.0</ele><time>2026-04-11T13:31:24Z</time></trkpt><trkpt lat="45.363833561785235" lon="11.866467873906364"><ele>7.5</ele><time>2026-04-11T13:31:25Z</time></trkpt><trkpt lat="45.36381166802154" lon="11.866129749406015"><ele>8.0</ele><time>2026-04-11T13:31:26Z</time></trkpt><trkpt lat="45.36378989456503" lon="11.865806916571586"><ele>8.5</ele><time>2026-04-11T13:31:27Z</time></trkpt><trkpt lat="45.363767591756" lon="11.865464257716978"><ele>9.0</ele><time>2026-04-11T13:31:28Z</time></trkpt><trkpt lat="45.36374117570539" lon="11.86513820607178"><ele>8.5</ele><time>2026-04-11T13:31:29Z</time></trkpt><trkpt lat="45.363720302151435" lon="11.864821581037061"><ele>8.0</ele><time>2026-04-11T13:31:30Z</time></trkpt><trkpt lat="45.36370261012647" lon="11.864498453087277"><ele>7.666666666666666</ele><time>2026-04-11T13:31:31Z</time></trkpt><trkpt lat="45.36368547255656" lon="11.864190850911"><ele>7.333333333333334</ele><time>2026-04-11T13:31:32Z</time></trkpt><trkpt lat="45.363673314277754" lon="11.863896162899456"><ele>7.0</ele><time>2026-04-11T13:31:33Z</time></trkpt><trkpt lat="45.36366100105691" lon="11.863609540903674"><ele>7.0</ele><time>2026-04-11T13:31:34Z</time></trkpt><trkpt lat="45.36364619963977" lon="11.863350289908135"><ele>7.0</ele><time>2026-04-11T13:31:35Z</time></trkpt><trkpt lat="45.363633065280894" lon="11.863094373598164"><ele>7.0</ele><time>2026-04-11T13:31:36Z</time></trkpt><trkpt lat="45.363632012168225" lon="11.862818364463221"><ele>7.333333333333334</ele><time>2026-04-11T13:31:37Z</time></trkpt><trkpt lat="45.36363043623035" lon="11.86251283431714"><ele>7.666666666666666</ele><time>2026-04-11T13:31:38Z</time></trkpt><trkpt lat="45.363631505594014" lon="11.862195906529802"><ele>8.0</ele><time>2026-04-11T13:31:39Z</time></trkpt><trkpt lat="45.36362988459885" lon="11.861871592769877"><ele>8.0</ele><time>2026-04-11T13:31:40Z</time></trkpt><trkpt lat="45.36362587508104" lon="11.861545153560286"><ele>8.0</ele><time>2026-04-11T13:31:41Z</time></trkpt><trkpt lat="45.36362450137579" lon="11.861207978522465"><ele>7.5</ele><time>2026-04-11T13:31:42Z</time></trkpt><trkpt lat="45.36361646405894" lon="11.860863872145597"><ele>7.0</ele><time>2026-04-11T13:31:43Z</time></trkpt><trkpt lat="45.36360651012592" lon="11.860512365739497"><ele>7.0</ele><time>2026-04-11T13:31:44Z</time></trkpt><trkpt lat="45.363596941329845" lon="11.860156378183985"><ele>7.0</ele><time>2026-04-11T13:31:45Z</time></trkpt><trkpt lat="45.36358331200792" lon="11.859796563441165"><ele>7.0</ele><time>2026-04-11T13:31:46Z</time></trkpt><trkpt lat="45.36356892439673" lon="11.859432847921644"><ele>7.0</ele><time>2026-04-11T13:31:47Z</time></trkpt><trkpt lat="45.36355406870459" lon="11.85907159620322"><ele>7.5</ele><time>2026-04-11T13:31:48Z</time></trkpt><trkpt lat="45.36353653571935" lon="11.858723743646689"><ele>8.0</ele><time>2026-04-11T13:31:49Z</time></trkpt><trkpt lat="45.36352466050581" lon="11.858400381978951"><ele>8.0</ele><time>2026-04-11T13:31:50Z</time></trkpt><trkpt lat="45.36351369354675" lon="11.858091607803992"><ele>8.0</ele><time>2026-04-11T13:31:51Z</time></trkpt><trkpt lat="45.36349960586151" lon="11.857806136036288"><ele>8.0</ele><time>2026-04-11T13:31:52Z</time></trkpt><trkpt lat="45.36348610293583" lon="11.857535239359121"><ele>8.333333333333332</ele><time>2026-04-11T13:31:53Z</time></trkpt><trkpt lat="45.363474341496975" lon="11.857271006068947"><ele>8.666666666666666</ele><time>2026-04-11T13:31:54Z</time></trkpt><trkpt lat="45.36346190632788" lon="11.857026782047814"><ele>9.0</ele><time>2026-04-11T13:31:55Z</time></trkpt><trkpt lat="45.363457960945055" lon="11.856785588493873"><ele>8.0</ele><time>2026-04-11T13:31:56Z</time></trkpt><trkpt lat="45.36346196135568" lon="11.85656247148801"><ele>7.0</ele><time>2026-04-11T13:31:57Z</time></trkpt><trkpt lat="45.36348558903008" lon="11.856340247368397"><ele>6.0</ele><time>2026-04-11T13:31:58Z</time></trkpt><trkpt lat="45.363533065747085" lon="11.856131317612803"><ele>6.0</ele><time>2026-04-11T13:31:59Z</time></trkpt><trkpt lat="45.36359771380724" lon="11.855934019974772"><ele>6.0</ele><time>2026-04-11T13:32:00Z</time></trkpt><trkpt lat="45.363684721576995" lon="11.855748452321432"><ele>6.0</ele><time>2026-04-11T13:32:01Z</time></trkpt><trkpt lat="45.36378797590367" lon="11.855584975639436"><ele>6.333333333333334</ele><time>2026-04-11T13:32:02Z</time></trkpt><trkpt lat="45.36390862468048" lon="11.855450453499998"><ele>6.666666666666667</ele><time>2026-04-11T13:32:03Z</time></trkpt><trkpt lat="45.36405139771908" lon="11.855330248350032"><ele>7.0</ele><time>2026-04-11T13:32:04Z</time></trkpt><trkpt lat="45.36419830916796" lon="11.855237345773723"><ele>7.0</ele><time>2026-04-11T13:32:05Z</time></trkpt><trkpt lat="45.36435564030195" lon="11.85517606488963"><ele>7.0</ele><time>2026-04-11T13:32:06Z</time></trkpt><trkpt lat="45.36451979863467" lon="11.855146413001261"><ele>7.0</ele><time>2026-04-11T13:32:07Z</time></trkpt><trkpt lat="45.36469387798637" lon="11.855130683038606"><ele>7.0</ele><time>2026-04-11T13:32:08Z</time></trkpt><trkpt lat="45.36487418299591" lon="11.855107844769446"><ele>7.0</ele><time>2026-04-11T13:32:09Z</time></trkpt><trkpt lat="45.36506632251997" lon="11.855067518569658"><ele>7.0</ele><time>2026-04-11T13:32:10Z</time></trkpt><trkpt lat="45.36527407691981" lon="11.855017577547294"><ele>7.0</ele><time>2026-04-11T13:32:11Z</time></trkpt><trkpt lat="45.36549280592273" lon="11.85497563929953"><ele>7.0</ele><time>2026-04-11T13:32:12Z</time></trkpt><trkpt lat="45.365726898164546" lon="11.854943973423184"><ele>8.5</ele><time>2026-04-11T13:32:13Z</time></trkpt><trkpt lat="45.36597595549023" lon="11.854920062182671"><ele>10.0</ele><time>2026-04-11T13:32:14Z</time></trkpt><trkpt lat="45.366241753552046" lon="11.85489374568805"><ele>9.0</ele><time>2026-04-11T13:32:15Z</time></trkpt><trkpt lat="45.366510443603964" lon="11.854876602752782"><ele>8.0</ele><time>2026-04-11T13:32:16Z</time></trkpt><trkpt lat="45.36677742242657" lon="11.85486202131104"><ele>8.0</ele><time>2026-04-11T13:32:17Z</time></trkpt><trkpt lat="45.36705463796485" lon="11.854847701312043"><ele>8.0</ele><time>2026-04-11T13:32:18Z</time></trkpt><trkpt lat="45.367343834687595" lon="11.8548299326013"><ele>8.5</ele><time>2026-04-11T13:32:19Z</time></trkpt><trkpt lat="45.367639409203214" lon="11.854810002753554"><ele>9.0</ele><time>2026-04-11T13:32:20Z</time></trkpt><trkpt lat="45.36793455461413" lon="11.854792226410794"><ele>10.0</ele><time>2026-04-11T13:32:21Z</time></trkpt><trkpt lat="45.36823125403709" lon="11.85477685858452"><ele>11.0</ele><time>2026-04-11T13:32:22Z</time></trkpt><trkpt lat="45.36852853525451" lon="11.854761175828548"><ele>11.0</ele><time>2026-04-11T13:32:23Z</time></trkpt><trkpt lat="45.36882922522288" lon="11.854742294303662"><ele>11.0</ele><time>2026-04-11T13:32:24Z</time></trkpt><trkpt lat="45.36912693248749" lon="11.854721571971186"><ele>11.5</ele><time>2026-04-11T13:32:25Z</time></trkpt><trkpt lat="45.369416154708176" lon="11.854699866802761"><ele>12.0</ele><time>2026-04-11T13:32:26Z</time></trkpt><trkpt lat="45.36969218928558" lon="11.854676941956402"><ele>12.0</ele><time>2026-04-11T13:32:27Z</time></trkpt><trkpt lat="45.369953206170166" lon="11.854637909641841"><ele>12.0</ele><time>2026-04-11T13:32:28Z</time></trkpt><trkpt lat="45.37019512041325" lon="11.854589769319505"><ele>12.0</ele><time>2026-04-11T13:32:29Z</time></trkpt><trkpt lat="45.37043292788994" lon="11.854524798650493"><ele>12.0</ele><time>2026-04-11T13:32:30Z</time></trkpt><trkpt lat="45.37066321405573" lon="11.85444615842755"><ele>11.5</ele><time>2026-04-11T13:32:31Z</time></trkpt><trkpt lat="45.370890421339496" lon="11.854358703338598"><ele>11.0</ele><time>2026-04-11T13:32:32Z</time></trkpt><trkpt lat="45.37111194094479" lon="11.854254678681373"><ele>11.0</ele><time>2026-04-11T13:32:33Z</time></trkpt><trkpt lat="45.37132285071076" lon="11.854145007034807"><ele>11.0</ele><time>2026-04-11T13:32:34Z</time></trkpt><trkpt lat="45.37151961297159" lon="11.854033255487655"><ele>11.0</ele><time>2026-04-11T13:32:35Z</time></trkpt><trkpt lat="45.37170018529923" lon="11.853916416995158"><ele>11.0</ele><time>2026-04-11T13:32:36Z</time></trkpt><trkpt lat="45.37187225889721" lon="11.853788298992248"><ele>11.0</ele><time>2026-04-11T13:32:37Z</time></trkpt><trkpt lat="45.37216398526222" lon="11.853540314420338"><ele>11.0</ele><time>2026-04-11T13:32:39Z</time></trkpt><trkpt lat="45.372295924626236" lon="11.853411585691015"><ele>11.0</ele><time>2026-04-11T13:32:40Z</time></trkpt><trkpt lat="45.372423589203834" lon="11.853282476489028"><ele>11.0</ele><time>2026-04-11T13:32:41Z</time></trkpt><trkpt lat="45.37255269350277" lon="11.85314506976479"><ele>11.0</ele><time>2026-04-11T13:32:42Z</time></trkpt><trkpt lat="45.372683363708965" lon="11.853003040811215"><ele>11.0</ele><time>2026-04-11T13:32:43Z</time></trkpt><trkpt lat="45.3728182022011" lon="11.852855173892777"><ele>11.0</ele><time>2026-04-11T13:32:44Z</time></trkpt><trkpt lat="45.3729480314016" lon="11.852697265958104"><ele>11.666666666666666</ele><time>2026-04-11T13:32:45Z</time></trkpt><trkpt lat="45.373067948399466" lon="11.852530914534443"><ele>12.333333333333332</ele><time>2026-04-11T13:32:46Z</time></trkpt><trkpt lat="45.37318961521935" lon="11.852352566647538"><ele>13.0</ele><time>2026-04-11T13:32:47Z</time></trkpt><trkpt lat="45.37330383047075" lon="11.852169306985113"><ele>13.0</ele><time>2026-04-11T13:32:48Z</time></trkpt><trkpt lat="45.37341755620379" lon="11.851980019744369"><ele>13.0</ele><time>2026-04-11T13:32:49Z</time></trkpt><trkpt lat="45.3735289981246" lon="11.851788436956785"><ele>13.0</ele><time>2026-04-11T13:32:50Z</time></trkpt><trkpt lat="45.373630343014575" lon="11.851598201327871"><ele>12.666666666666666</ele><time>2026-04-11T13:32:51Z</time></trkpt><trkpt lat="45.37373361973634" lon="11.851397988543187"><ele>12.333333333333332</ele><time>2026-04-11T13:32:52Z</time></trkpt><trkpt lat="45.37384058335226" lon="11.85117531143391"><ele>12.0</ele><time>2026-04-11T13:32:53Z</time></trkpt><trkpt lat="45.37394761958574" lon="11.850929265493019"><ele>12.0</ele><time>2026-04-11T13:32:54Z</time></trkpt><trkpt lat="45.37405376162538" lon="11.850663201895145"><ele>12.0</ele><time>2026-04-11T13:32:55Z</time></trkpt><trkpt lat="45.37415685731735" lon="11.850383197594436"><ele>12.0</ele><time>2026-04-11T13:32:56Z</time></trkpt><trkpt lat="45.3742504233853" lon="11.850116304152289"><ele>12.0</ele><time>2026-04-11T13:32:57Z</time></trkpt><trkpt lat="45.374345673589325" lon="11.849854374782842"><ele>12.0</ele><time>2026-04-11T13:32:58Z</time></trkpt><trkpt lat="45.374442394651055" lon="11.84959800160066"><ele>12.0</ele><time>2026-04-11T13:32:59Z</time></trkpt><trkpt lat="45.37454537732507" lon="11.8493317838353"><ele>12.333333333333332</ele><time>2026-04-11T13:33:00Z</time></trkpt><trkpt lat="45.37464404905959" lon="11.849068136158257"><ele>12.666666666666666</ele><time>2026-04-11T13:33:01Z</time></trkpt><trkpt lat="45.37474103840975" lon="11.848802547556613"><ele>13.0</ele><time>2026-04-11T13:33:02Z</time></trkpt><trkpt lat="45.37483918167208" lon="11.84853217553615"><ele>12.666666666666666</ele><time>2026-04-11T13:33:03Z</time></trkpt><trkpt lat="45.37493901126497" lon="11.848251124227273"><ele>12.333333333333332</ele><time>2026-04-11T13:33:04Z</time></trkpt><trkpt lat="45.375038186565426" lon="11.84796597448928"><ele>12.0</ele><time>2026-04-11T13:33:05Z</time></trkpt><trkpt lat="45.37513911898212" lon="11.847681723040873"><ele>12.0</ele><time>2026-04-11T13:33:06Z</time></trkpt><trkpt lat="45.375242978370764" lon="11.847401381649282"><ele>12.0</ele><time>2026-04-11T13:33:07Z</time></trkpt><trkpt lat="45.37535011778339" lon="11.847119064499829"><ele>12.0</ele><time>2026-04-11T13:33:08Z</time></trkpt><trkpt lat="45.37545552568854" lon="11.84684101253247"><ele>11.666666666666666</ele><time>2026-04-11T13:33:09Z</time></trkpt><trkpt lat="45.375559827322654" lon="11.846566933416186"><ele>11.333333333333332</ele><time>2026-04-11T13:33:10Z</time></trkpt><trkpt lat="45.37566133680485" lon="11.846300094799407"><ele>11.0</ele><time>2026-04-11T13:33:11Z</time></trkpt><trkpt lat="45.37576109032366" lon="11.846029595386197"><ele>10.666666666666666</ele><time>2026-04-11T13:33:12Z</time></trkpt><trkpt lat="45.37585815656128" lon="11.845760518301503"><ele>10.333333333333334</ele><time>2026-04-11T13:33:13Z</time></trkpt><trkpt lat="45.375955114733905" lon="11.845489393475805"><ele>10.0</ele><time>2026-04-11T13:33:14Z</time></trkpt><trkpt lat="45.376051560397826" lon="11.84521859050531"><ele>10.0</ele><time>2026-04-11T13:33:15Z</time></trkpt><trkpt lat="45.376147202747056" lon="11.844944847812728"><ele>10.0</ele><time>2026-04-11T13:33:16Z</time></trkpt><trkpt lat="45.37624085387294" lon="11.844672358391138"><ele>10.0</ele><time>2026-04-11T13:33:17Z</time></trkpt><trkpt lat="45.37633206746921" lon="11.844401764599983"><ele>10.0</ele><time>2026-04-11T13:33:18Z</time></trkpt><trkpt lat="45.37642742387104" lon="11.844126779065874"><ele>10.0</ele><time>2026-04-11T13:33:19Z</time></trkpt><trkpt lat="45.37652196181772" lon="11.843852461273686"><ele>10.0</ele><time>2026-04-11T13:33:20Z</time></trkpt><trkpt lat="45.376618330380566" lon="11.843580040486255"><ele>10.0</ele><time>2026-04-11T13:33:21Z</time></trkpt><trkpt lat="45.37671425235805" lon="11.84330771115035"><ele>10.0</ele><time>2026-04-11T13:33:22Z</time></trkpt><trkpt lat="45.37680819449715" lon="11.84303471223643"><ele>10.0</ele><time>2026-04-11T13:33:23Z</time></trkpt><trkpt lat="45.37690335501418" lon="11.842761235578346"><ele>9.666666666666668</ele><time>2026-04-11T13:33:24Z</time></trkpt><trkpt lat="45.37699912581338" lon="11.842485844914085"><ele>9.333333333333334</ele><time>2026-04-11T13:33:25Z</time></trkpt><trkpt lat="45.37709207260039" lon="11.842209932871294"><ele>9.0</ele><time>2026-04-11T13:33:26Z</time></trkpt><trkpt lat="45.37718431707162" lon="11.84193006523931"><ele>8.333333333333334</ele><time>2026-04-11T13:33:27Z</time></trkpt><trkpt lat="45.37727496996376" lon="11.841651375219547"><ele>7.666666666666667</ele><time>2026-04-11T13:33:28Z</time></trkpt><trkpt lat="45.37736469627677" lon="11.841371571675282"><ele>7.0</ele><time>2026-04-11T13:33:29Z</time></trkpt><trkpt lat="45.377454291551686" lon="11.841089687653854"><ele>7.666666666666667</ele><time>2026-04-11T13:33:30Z</time></trkpt><trkpt lat="45.37754267041364" lon="11.840810144469017"><ele>8.333333333333334</ele><time>2026-04-11T13:33:31Z</time></trkpt><trkpt lat="45.3776298724135" lon="11.840528040676485"><ele>9.0</ele><time>2026-04-11T13:33:32Z</time></trkpt><trkpt lat="45.37771806527027" lon="11.84024737491231"><ele>9.333333333333334</ele><time>2026-04-11T13:33:33Z</time></trkpt><trkpt lat="45.37780563694451" lon="11.839967451606144"><ele>9.666666666666668</ele><time>2026-04-11T13:33:34Z</time></trkpt><trkpt lat="45.377891521822264" lon="11.839688250000444"><ele>10.0</ele><time>2026-04-11T13:33:35Z</time></trkpt><trkpt lat="45.377978731456935" lon="11.839402612910161"><ele>9.666666666666668</ele><time>2026-04-11T13:33:36Z</time></trkpt><trkpt lat="45.378066477657" lon="11.839118543680016"><ele>9.333333333333334</ele><time>2026-04-11T13:33:37Z</time></trkpt><trkpt lat="45.37815493706414" lon="11.838823807651487"><ele>9.0</ele><time>2026-04-11T13:33:38Z</time></trkpt><trkpt lat="45.37824741245641" lon="11.838515753326943"><ele>8.5</ele><time>2026-04-11T13:33:39Z</time></trkpt><trkpt lat="45.37834171211219" lon="11.838203451409955"><ele>8.0</ele><time>2026-04-11T13:33:40Z</time></trkpt><trkpt lat="45.37843353055965" lon="11.83789086818724"><ele>9.0</ele><time>2026-04-11T13:33:41Z</time></trkpt><trkpt lat="45.3785306154527" lon="11.837571743229075"><ele>10.0</ele><time>2026-04-11T13:33:42Z</time></trkpt><trkpt lat="45.37862838099057" lon="11.837256976551503"><ele>10.0</ele><time>2026-04-11T13:33:43Z</time></trkpt><trkpt lat="45.37872385115384" lon="11.836944687729579"><ele>10.0</ele><time>2026-04-11T13:33:44Z</time></trkpt><trkpt lat="45.3788179236996" lon="11.836636059982473"><ele>10.0</ele><time>2026-04-11T13:33:45Z</time></trkpt><trkpt lat="45.3789125472651" lon="11.83632269625318"><ele>10.0</ele><time>2026-04-11T13:33:46Z</time></trkpt><trkpt lat="45.379008059193275" lon="11.836012564046293"><ele>9.5</ele><time>2026-04-11T13:33:47Z</time></trkpt><trkpt lat="45.37909669003279" lon="11.835707837024822"><ele>9.0</ele><time>2026-04-11T13:33:48Z</time></trkpt><trkpt lat="45.379191335702835" lon="11.83539697282003"><ele>10.0</ele><time>2026-04-11T13:33:49Z</time></trkpt><trkpt lat="45.37928740751899" lon="11.835083950119241"><ele>11.0</ele><time>2026-04-11T13:33:50Z</time></trkpt><trkpt lat="45.379385262462996" lon="11.83477308369192"><ele>11.0</ele><time>2026-04-11T13:33:51Z</time></trkpt><trkpt lat="45.37948082452136" lon="11.834464575026104"><ele>11.0</ele><time>2026-04-11T13:33:52Z</time></trkpt><trkpt lat="45.37958038027455" lon="11.834154441984087"><ele>11.5</ele><time>2026-04-11T13:33:53Z</time></trkpt><trkpt lat="45.37967509727796" lon="11.833853285678526"><ele>12.0</ele><time>2026-04-11T13:33:54Z</time></trkpt><trkpt lat="45.379772760765796" lon="11.833546873722357"><ele>12.0</ele><time>2026-04-11T13:33:55Z</time></trkpt><trkpt lat="45.379874434883554" lon="11.833237491084978"><ele>12.0</ele><time>2026-04-11T13:33:56Z</time></trkpt><trkpt lat="45.379973027587404" lon="11.832931239472986"><ele>12.0</ele><time>2026-04-11T13:33:57Z</time></trkpt><trkpt lat="45.38007256366036" lon="11.832618429631545"><ele>12.0</ele><time>2026-04-11T13:33:58Z</time></trkpt><trkpt lat="45.38017030248838" lon="11.832311973070466"><ele>12.0</ele><time>2026-04-11T13:33:59Z</time></trkpt><trkpt lat="45.38026437764471" lon="11.832009977235543"><ele>12.0</ele><time>2026-04-11T13:34:00Z</time></trkpt><trkpt lat="45.38035268135303" lon="11.831736677052536"><ele>12.0</ele><time>2026-04-11T13:34:01Z</time></trkpt><trkpt lat="45.38043768228426" lon="11.831478122272125"><ele>12.0</ele><time>2026-04-11T13:34:02Z</time></trkpt><trkpt lat="45.38051591637713" lon="11.831229810639064"><ele>12.0</ele><time>2026-04-11T13:34:03Z</time></trkpt><trkpt lat="45.380595508577436" lon="11.830986831213878"><ele>12.0</ele><time>2026-04-11T13:34:04Z</time></trkpt><trkpt lat="45.38067527024451" lon="11.830740409028673"><ele>12.0</ele><time>2026-04-11T13:34:05Z</time></trkpt><trkpt lat="45.38075243492133" lon="11.83049446496853"><ele>12.0</ele><time>2026-04-11T13:34:06Z</time></trkpt><trkpt lat="45.380831972199175" lon="11.830247773349313"><ele>12.0</ele><time>2026-04-11T13:34:07Z</time></trkpt><trkpt lat="45.380912688641814" lon="11.830002333072771"><ele>13.0</ele><time>2026-04-11T13:34:08Z</time></trkpt><trkpt lat="45.38099318566724" lon="11.82975963486888"><ele>14.0</ele><time>2026-04-11T13:34:09Z</time></trkpt><trkpt lat="45.381075438338385" lon="11.82951366684295"><ele>15.0</ele><time>2026-04-11T13:34:10Z</time></trkpt><trkpt lat="45.381155433389026" lon="11.829263696718348"><ele>15.0</ele><time>2026-04-11T13:34:11Z</time></trkpt><trkpt lat="45.38123409059701" lon="11.829017554907395"><ele>15.0</ele><time>2026-04-11T13:34:12Z</time></trkpt><trkpt lat="45.38130923570409" lon="11.828776650213781"><ele>15.0</ele><time>2026-04-11T13:34:13Z</time></trkpt><trkpt lat="45.38138221132539" lon="11.828547271413095"><ele>14.333333333333332</ele><time>2026-04-11T13:34:14Z</time></trkpt><trkpt lat="45.38145257781075" lon="11.828327360723472"><ele>13.666666666666666</ele><time>2026-04-11T13:34:15Z</time></trkpt><trkpt lat="45.38152382362124" lon="11.828106435456464"><ele>13.0</ele><time>2026-04-11T13:34:16Z</time></trkpt><trkpt lat="45.38159394383836" lon="11.827889534052566"><ele>13.0</ele><time>2026-04-11T13:34:17Z</time></trkpt><trkpt lat="45.38166107491563" lon="11.82768156059246"><ele>13.0</ele><time>2026-04-11T13:34:18Z</time></trkpt><trkpt lat="45.38172577984535" lon="11.827479065175778"><ele>13.0</ele><time>2026-04-11T13:34:19Z</time></trkpt><trkpt lat="45.381791730835225" lon="11.827274940448337"><ele>12.333333333333332</ele><time>2026-04-11T13:34:20Z</time></trkpt><trkpt lat="45.3818558294789" lon="11.82706701034878"><ele>11.666666666666666</ele><time>2026-04-11T13:34:21Z</time></trkpt><trkpt lat="45.38192430368626" lon="11.826852874099243"><ele>11.0</ele><time>2026-04-11T13:34:22Z</time></trkpt><trkpt lat="45.38199548835213" lon="11.826634460645217"><ele>11.0</ele><time>2026-04-11T13:34:23Z</time></trkpt><trkpt lat="45.38207056045467" lon="11.826416077645238"><ele>11.0</ele><time>2026-04-11T13:34:24Z</time></trkpt><trkpt lat="45.38214710179728" lon="11.826196637929646"><ele>11.0</ele><time>2026-04-11T13:34:25Z</time></trkpt><trkpt lat="45.382225199241944" lon="11.825977670159975"><ele>11.0</ele><time>2026-04-11T13:34:26Z</time></trkpt><trkpt lat="45.382295926276484" lon="11.825771064079927"><ele>11.0</ele><time>2026-04-11T13:34:27Z</time></trkpt><trkpt lat="45.38236734957134" lon="11.82556994352334"><ele>11.0</ele><time>2026-04-11T13:34:28Z</time></trkpt><trkpt lat="45.38243191028971" lon="11.825369510428057"><ele>11.0</ele><time>2026-04-11T13:34:29Z</time></trkpt><trkpt lat="45.38250001846106" lon="11.82516704646966"><ele>11.0</ele><time>2026-04-11T13:34:30Z</time></trkpt><trkpt lat="45.382568117294426" lon="11.824957841635303"><ele>11.0</ele><time>2026-04-11T13:34:31Z</time></trkpt><trkpt lat="45.382625223812134" lon="11.824770090847917"><ele>11.0</ele><time>2026-04-11T13:34:32Z</time></trkpt><trkpt lat="45.382688169729946" lon="11.824584944485277"><ele>11.0</ele><time>2026-04-11T13:34:33Z</time></trkpt><trkpt lat="45.38275375784519" lon="11.824380835587009"><ele>11.0</ele><time>2026-04-11T13:34:34Z</time></trkpt><trkpt lat="45.382809678051665" lon="11.82418645920133"><ele>11.0</ele><time>2026-04-11T13:34:35Z</time></trkpt><trkpt lat="45.38285589992962" lon="11.824004741676749"><ele>11.0</ele><time>2026-04-11T13:34:36Z</time></trkpt><trkpt lat="45.382896211318716" lon="11.823825214206499"><ele>11.0</ele><time>2026-04-11T13:34:37Z</time></trkpt><trkpt lat="45.3829322116451" lon="11.823650055141558"><ele>11.0</ele><time>2026-04-11T13:34:38Z</time></trkpt><trkpt lat="45.38296820013128" lon="11.823465112616416"><ele>11.0</ele><time>2026-04-11T13:34:39Z</time></trkpt><trkpt lat="45.38300211234309" lon="11.823262739550994"><ele>11.0</ele><time>2026-04-11T13:34:40Z</time></trkpt><trkpt lat="45.38303313503243" lon="11.823042980608548"><ele>11.0</ele><time>2026-04-11T13:34:41Z</time></trkpt><trkpt lat="45.38306811074872" lon="11.822786849087262"><ele>11.0</ele><time>2026-04-11T13:34:42Z</time></trkpt><trkpt lat="45.38310518945947" lon="11.822512125011846"><ele>11.0</ele><time>2026-04-11T13:34:43Z</time></trkpt><trkpt lat="45.38314256157308" lon="11.822241798607495"><ele>11.0</ele><time>2026-04-11T13:34:44Z</time></trkpt><trkpt lat="45.383174057250955" lon="11.821986961817748"><ele>10.666666666666666</ele><time>2026-04-11T13:34:45Z</time></trkpt><trkpt lat="45.38320890298581" lon="11.821741902071091"><ele>10.333333333333334</ele><time>2026-04-11T13:34:46Z</time></trkpt><trkpt lat="45.38323748718237" lon="11.82151324137772"><ele>10.0</ele><time>2026-04-11T13:34:47Z</time></trkpt><trkpt lat="45.38326577663481" lon="11.821291870620332"><ele>10.0</ele><time>2026-04-11T13:34:48Z</time></trkpt><trkpt lat="45.38329320035395" lon="11.821072441642464"><ele>10.0</ele><time>2026-04-11T13:34:49Z</time></trkpt><trkpt lat="45.38331939101435" lon="11.82086699137319"><ele>10.0</ele><time>2026-04-11T13:34:50Z</time></trkpt><trkpt lat="45.383349358783114" lon="11.820652506945258"><ele>10.0</ele><time>2026-04-11T13:34:51Z</time></trkpt><trkpt lat="45.38337732050845" lon="11.820430113449701"><ele>10.0</ele><time>2026-04-11T13:34:52Z</time></trkpt><trkpt lat="45.38340299204953" lon="11.820200104501826"><ele>10.0</ele><time>2026-04-11T13:34:53Z</time></trkpt><trkpt lat="45.383423438912054" lon="11.819973085057335"><ele>10.0</ele><time>2026-04-11T13:34:54Z</time></trkpt><trkpt lat="45.383439094147185" lon="11.819741545768405"><ele>10.0</ele><time>2026-04-11T13:34:55Z</time></trkpt><trkpt lat="45.383454769905846" lon="11.819510894058846"><ele>10.0</ele><time>2026-04-11T13:34:56Z</time></trkpt><trkpt lat="45.38346932758874" lon="11.819283551988299"><ele>9.666666666666668</ele><time>2026-04-11T13:34:57Z</time></trkpt><trkpt lat="45.38347988669405" lon="11.819054450459015"><ele>9.333333333333334</ele><time>2026-04-11T13:34:58Z</time></trkpt><trkpt lat="45.383488243930884" lon="11.818824595506404"><ele>9.0</ele><time>2026-04-11T13:34:59Z</time></trkpt><trkpt lat="45.38349440795202" lon="11.818590643821606"><ele>9.666666666666666</ele><time>2026-04-11T13:35:00Z</time></trkpt><trkpt lat="45.383498090996525" lon="11.818360491378705"><ele>10.333333333333332</ele><time>2026-04-11T13:35:01Z</time></trkpt><trkpt lat="45.383496323683325" lon="11.818121537984652"><ele>11.0</ele><time>2026-04-11T13:35:02Z</time></trkpt><trkpt lat="45.383494550033774" lon="11.817868116021474"><ele>11.333333333333332</ele><time>2026-04-11T13:35:03Z</time></trkpt><trkpt lat="45.383489137783336" lon="11.817619103557501"><ele>11.666666666666666</ele><time>2026-04-11T13:35:04Z</time></trkpt><trkpt lat="45.383476193120764" lon="11.817365468980869"><ele>12.0</ele><time>2026-04-11T13:35:05Z</time></trkpt><trkpt lat="45.38346152110753" lon="11.817110403150533"><ele>12.0</ele><time>2026-04-11T13:35:06Z</time></trkpt><trkpt lat="45.383443506686056" lon="11.81685568778959"><ele>12.0</ele><time>2026-04-11T13:35:07Z</time></trkpt><trkpt lat="45.38342290795395" lon="11.816609372479254"><ele>12.0</ele><time>2026-04-11T13:35:08Z</time></trkpt><trkpt lat="45.38340181290305" lon="11.81636689901553"><ele>12.666666666666668</ele><time>2026-04-11T13:35:09Z</time></trkpt><trkpt lat="45.38338154693679" lon="11.816121454478294"><ele>13.333333333333334</ele><time>2026-04-11T13:35:10Z</time></trkpt><trkpt lat="45.383357656924346" lon="11.815886892800195"><ele>14.0</ele><time>2026-04-11T13:35:11Z</time></trkpt><trkpt lat="45.38333516326169" lon="11.815655628393818"><ele>14.333333333333334</ele><time>2026-04-11T13:35:12Z</time></trkpt><trkpt lat="45.38331339505476" lon="11.815422009091472"><ele>14.666666666666668</ele><time>2026-04-11T13:35:13Z</time></trkpt><trkpt lat="45.383294731391246" lon="11.815188451623198"><ele>15.0</ele><time>2026-04-11T13:35:14Z</time></trkpt><trkpt lat="45.38327634067083" lon="11.814949167011887"><ele>14.0</ele><time>2026-04-11T13:35:15Z</time></trkpt><trkpt lat="45.3832575609719" lon="11.814718650336047"><ele>13.0</ele><time>2026-04-11T13:35:16Z</time></trkpt><trkpt lat="45.38323739841673" lon="11.814493306274024"><ele>12.0</ele><time>2026-04-11T13:35:17Z</time></trkpt><trkpt lat="45.383216122375764" lon="11.814266831458163"><ele>11.666666666666666</ele><time>2026-04-11T13:35:18Z</time></trkpt><trkpt lat="45.38320038705222" lon="11.814054035212713"><ele>11.333333333333332</ele><time>2026-04-11T13:35:19Z</time></trkpt><trkpt lat="45.38317904172836" lon="11.813838876256948"><ele>11.0</ele><time>2026-04-11T13:35:20Z</time></trkpt><trkpt lat="45.38315662134204" lon="11.813617294454172"><ele>11.0</ele><time>2026-04-11T13:35:21Z</time></trkpt><trkpt lat="45.383126469026834" lon="11.813397917011143"><ele>11.0</ele><time>2026-04-11T13:35:22Z</time></trkpt><trkpt lat="45.383092818219865" lon="11.81318375596848"><ele>11.0</ele><time>2026-04-11T13:35:23Z</time></trkpt><trkpt lat="45.38305100818422" lon="11.812966473235296"><ele>11.0</ele><time>2026-04-11T13:35:24Z</time></trkpt><trkpt lat="45.38300908799073" lon="11.81274575827612"><ele>11.0</ele><time>2026-04-11T13:35:25Z</time></trkpt><trkpt lat="45.382962310218645" lon="11.812529678451"><ele>11.0</ele><time>2026-04-11T13:35:26Z</time></trkpt><trkpt lat="45.38290437809422" lon="11.812304453698442"><ele>10.666666666666666</ele><time>2026-04-11T13:35:27Z</time></trkpt><trkpt lat="45.38283797084635" lon="11.812081036998693"><ele>10.333333333333334</ele><time>2026-04-11T13:35:28Z</time></trkpt><trkpt lat="45.38276587094016" lon="11.811858913475223"><ele>10.0</ele><time>2026-04-11T13:35:29Z</time></trkpt><trkpt lat="45.38268996779602" lon="11.811644468165172"><ele>10.666666666666668</ele><time>2026-04-11T13:35:30Z</time></trkpt><trkpt lat="45.382611887357854" lon="11.811433663839042"><ele>11.333333333333334</ele><time>2026-04-11T13:35:31Z</time></trkpt><trkpt lat="45.382525831107365" lon="11.811224631674618"><ele>12.0</ele><time>2026-04-11T13:35:32Z</time></trkpt><trkpt lat="45.38243636383694" lon="11.81102335956176"><ele>11.666666666666666</ele><time>2026-04-11T13:35:33Z</time></trkpt><trkpt lat="45.382343096391864" lon="11.810829910594347"><ele>11.333333333333332</ele><time>2026-04-11T13:35:34Z</time></trkpt><trkpt lat="45.38224066587492" lon="11.810644649829056"><ele>11.0</ele><time>2026-04-11T13:35:35Z</time></trkpt><trkpt lat="45.38213320924814" lon="11.81046487333036"><ele>11.333333333333332</ele><time>2026-04-11T13:35:36Z</time></trkpt><trkpt lat="45.38202452816975" lon="11.81029116897817"><ele>11.666666666666666</ele><time>2026-04-11T13:35:37Z</time></trkpt><trkpt lat="45.381909628451886" lon="11.810119382019437"><ele>12.0</ele><time>2026-04-11T13:35:38Z</time></trkpt><trkpt lat="45.38178731671439" lon="11.80994863710164"><ele>12.0</ele><time>2026-04-11T13:35:39Z</time></trkpt><trkpt lat="45.381658087424285" lon="11.809778925037845"><ele>12.0</ele><time>2026-04-11T13:35:40Z</time></trkpt><trkpt lat="45.38152009008007" lon="11.809611088806072"><ele>12.0</ele><time>2026-04-11T13:35:41Z</time></trkpt><trkpt lat="45.3813818449724" lon="11.809440631938772"><ele>11.666666666666666</ele><time>2026-04-11T13:35:42Z</time></trkpt><trkpt lat="45.381237525529116" lon="11.809274439589801"><ele>11.333333333333332</ele><time>2026-04-11T13:35:43Z</time></trkpt><trkpt lat="45.38109244511696" lon="11.809101393005909"><ele>11.0</ele><time>2026-04-11T13:35:44Z</time></trkpt><trkpt lat="45.38094986286861" lon="11.808926822288177"><ele>11.0</ele><time>2026-04-11T13:35:45Z</time></trkpt><trkpt lat="45.38081142778641" lon="11.808756400709099"><ele>11.0</ele><time>2026-04-11T13:35:46Z</time></trkpt><trkpt lat="45.380674465620444" lon="11.80858761301296"><ele>11.0</ele><time>2026-04-11T13:35:47Z</time></trkpt><trkpt lat="45.380535677491565" lon="11.80841778475734"><ele>11.333333333333332</ele><time>2026-04-11T13:35:48Z</time></trkpt><trkpt lat="45.38039840429679" lon="11.80825653886036"><ele>11.666666666666666</ele><time>2026-04-11T13:35:49Z</time></trkpt><trkpt lat="45.380260056018756" lon="11.808089083133831"><ele>12.0</ele><time>2026-04-11T13:35:50Z</time></trkpt><trkpt lat="45.3801212846862" lon="11.807917613157432"><ele>12.0</ele><time>2026-04-11T13:35:51Z</time></trkpt><trkpt lat="45.379983270275545" lon="11.807741157687904"><ele>12.0</ele><time>2026-04-11T13:35:52Z</time></trkpt><trkpt lat="45.37984195022933" lon="11.807559945928094"><ele>12.0</ele><time>2026-04-11T13:35:53Z</time></trkpt><trkpt lat="45.37969919378355" lon="11.807364774636792"><ele>11.666666666666666</ele><time>2026-04-11T13:35:54Z</time></trkpt><trkpt lat="45.379556525771356" lon="11.807173664735325"><ele>11.333333333333332</ele><time>2026-04-11T13:35:55Z</time></trkpt><trkpt lat="45.37940835883531" lon="11.806983936008615"><ele>11.0</ele><time>2026-04-11T13:35:56Z</time></trkpt><trkpt lat="45.379262331143764" lon="11.806797946187663"><ele>11.0</ele><time>2026-04-11T13:35:57Z</time></trkpt><trkpt lat="45.379114711567574" lon="11.80660420006271"><ele>11.0</ele><time>2026-04-11T13:35:58Z</time></trkpt><trkpt lat="45.37898104695921" lon="11.80641793274921"><ele>11.0</ele><time>2026-04-11T13:35:59Z</time></trkpt><trkpt lat="45.378857126036536" lon="11.806245051298113"><ele>11.333333333333332</ele><time>2026-04-11T13:36:00Z</time></trkpt><trkpt lat="45.37873938178145" lon="11.806083248764605"><ele>11.666666666666666</ele><time>2026-04-11T13:36:01Z</time></trkpt><trkpt lat="45.37862654202825" lon="11.805934666558292"><ele>12.0</ele><time>2026-04-11T13:36:02Z</time></trkpt><trkpt lat="45.378519384921596" lon="11.805786482819022"><ele>12.0</ele><time>2026-04-11T13:36:03Z</time></trkpt><trkpt lat="45.37841990257563" lon="11.805645201197894"><ele>12.0</ele><time>2026-04-11T13:36:04Z</time></trkpt><trkpt lat="45.37832602900198" lon="11.805503775636923"><ele>12.0</ele><time>2026-04-11T13:36:05Z</time></trkpt><trkpt lat="45.37824472909148" lon="11.805362916307864"><ele>12.0</ele><time>2026-04-11T13:36:06Z</time></trkpt><trkpt lat="45.378174333554746" lon="11.805233241383132"><ele>12.0</ele><time>2026-04-11T13:36:07Z</time></trkpt><trkpt lat="45.378111737188924" lon="11.805113424656199"><ele>12.0</ele><time>2026-04-11T13:36:08Z</time></trkpt><trkpt lat="45.37805494852771" lon="11.805000745120816"><ele>12.0</ele><time>2026-04-11T13:36:09Z</time></trkpt><trkpt lat="45.378005020350955" lon="11.80489308463214"><ele>12.0</ele><time>2026-04-11T13:36:10Z</time></trkpt><trkpt lat="45.377966725820535" lon="11.804789780996044"><ele>12.0</ele><time>2026-04-11T13:36:11Z</time></trkpt><trkpt lat="45.37795252392423" lon="11.80468077773322"><ele>12.0</ele><time>2026-04-11T13:36:12Z</time></trkpt><trkpt lat="45.37794312546787" lon="11.804577647426063"><ele>12.0</ele><time>2026-04-11T13:36:13Z</time></trkpt><trkpt lat="45.37791967458778" lon="11.804494431565578"><ele>12.0</ele><time>2026-04-11T13:36:14Z</time></trkpt><trkpt lat="45.377879940796454" lon="11.804420571197412"><ele>12.0</ele><time>2026-04-11T13:36:15Z</time></trkpt><trkpt lat="45.37781951953175" lon="11.804359642431844"><ele>12.0</ele><time>2026-04-11T13:36:16Z</time></trkpt><trkpt lat="45.37774769476725" lon="11.804332016917575"><ele>12.0</ele><time>2026-04-11T13:36:17Z</time></trkpt><trkpt lat="45.37761828526596" lon="11.804431237400546"><ele>12.0</ele><time>2026-04-11T13:36:19Z</time></trkpt><trkpt lat="45.3775703284507" lon="11.804533567214587"><ele>12.0</ele><time>2026-04-11T13:36:20Z</time></trkpt><trkpt lat="45.37751785355017" lon="11.804624141269226"><ele>12.0</ele><time>2026-04-11T13:36:21Z</time></trkpt><trkpt lat="45.37744368434466" lon="11.804664267023124"><ele>12.0</ele><time>2026-04-11T13:36:22Z</time></trkpt><trkpt lat="45.37736153959318" lon="11.804646720442742"><ele>12.0</ele><time>2026-04-11T13:36:23Z</time></trkpt><trkpt lat="45.377286363211994" lon="11.804568489817306"><ele>12.0</ele><time>2026-04-11T13:36:24Z</time></trkpt><trkpt lat="45.37720711311848" lon="11.804466228125566"><ele>11.75</ele><time>2026-04-11T13:36:25Z</time></trkpt><trkpt lat="45.377106460658645" lon="11.804370186732347"><ele>11.5</ele><time>2026-04-11T13:36:26Z</time></trkpt><trkpt lat="45.37698058897255" lon="11.804302831759635"><ele>11.25</ele><time>2026-04-11T13:36:27Z</time></trkpt><trkpt lat="45.37684866900393" lon="11.804250311218885"><ele>11.0</ele><time>2026-04-11T13:36:28Z</time></trkpt><trkpt lat="45.37673384819197" lon="11.804200234768896"><ele>11.0</ele><time>2026-04-11T13:36:29Z</time></trkpt><trkpt lat="45.37663435968973" lon="11.804151585603218"><ele>11.0</ele><time>2026-04-11T13:36:30Z</time></trkpt><trkpt lat="45.37654727293472" lon="11.804107182045803"><ele>11.0</ele><time>2026-04-11T13:36:31Z</time></trkpt><trkpt lat="45.376465840358854" lon="11.804070604212393"><ele>11.0</ele><time>2026-04-11T13:36:32Z</time></trkpt><trkpt lat="45.37639144186561" lon="11.80403712339762"><ele>11.0</ele><time>2026-04-11T13:36:33Z</time></trkpt><trkpt lat="45.376316973138934" lon="11.804003193122922"><ele>11.0</ele><time>2026-04-11T13:36:34Z</time></trkpt><trkpt lat="45.3762333821861" lon="11.803958711343473"><ele>11.0</ele><time>2026-04-11T13:36:35Z</time></trkpt><trkpt lat="45.376135285404196" lon="11.803907852453769"><ele>11.0</ele><time>2026-04-11T13:36:36Z</time></trkpt><trkpt lat="45.37602399936486" lon="11.803827840259583"><ele>11.0</ele><time>2026-04-11T13:36:37Z</time></trkpt><trkpt lat="45.37589989651802" lon="11.803747844628086"><ele>11.0</ele><time>2026-04-11T13:36:38Z</time></trkpt><trkpt lat="45.37576331810488" lon="11.80365604915019"><ele>11.0</ele><time>2026-04-11T13:36:39Z</time></trkpt><trkpt lat="45.37561836210205" lon="11.803560988018441"><ele>11.0</ele><time>2026-04-11T13:36:40Z</time></trkpt><trkpt lat="45.3754806400309" lon="11.803477565049489"><ele>11.0</ele><time>2026-04-11T13:36:41Z</time></trkpt><trkpt lat="45.37535328785247" lon="11.803405855635127"><ele>11.0</ele><time>2026-04-11T13:36:42Z</time></trkpt><trkpt lat="45.37523661322722" lon="11.803352226221909"><ele>11.0</ele><time>2026-04-11T13:36:43Z</time></trkpt><trkpt lat="45.37512447732226" lon="11.80330899185245"><ele>11.0</ele><time>2026-04-11T13:36:44Z</time></trkpt><trkpt lat="45.375024574371196" lon="11.803275739366363"><ele>11.0</ele><time>2026-04-11T13:36:45Z</time></trkpt><trkpt lat="45.374936820519416" lon="11.803241565086864"><ele>11.0</ele><time>2026-04-11T13:36:46Z</time></trkpt><trkpt lat="45.3748665304235" lon="11.803195902936347"><ele>11.0</ele><time>2026-04-11T13:36:47Z</time></trkpt><trkpt lat="45.37476495857178" lon="11.803119079313218"><ele>11.200000000000001</ele><time>2026-04-11T13:36:49Z</time></trkpt><trkpt lat="45.374661689066606" lon="11.80304985227165"><ele>11.4</ele><time>2026-04-11T13:36:51Z</time></trkpt><trkpt lat="45.37454712435508" lon="11.802974146340615"><ele>11.6</ele><time>2026-04-11T13:36:53Z</time></trkpt><trkpt lat="45.37448716861874" lon="11.802904115865953"><ele>11.8</ele><time>2026-04-11T13:36:54Z</time></trkpt><trkpt lat="45.374447271332286" lon="11.802812406429243"><ele>12.0</ele><time>2026-04-11T13:36:55Z</time></trkpt><trkpt lat="45.37443055081281" lon="11.802707207805119"><ele>12.0</ele><time>2026-04-11T13:36:56Z</time></trkpt><trkpt lat="45.37443583907736" lon="11.802578297695359"><ele>12.0</ele><time>2026-04-11T13:36:57Z</time></trkpt><trkpt lat="45.37443959266653" lon="11.802437201455165"><ele>12.0</ele><time>2026-04-11T13:36:58Z</time></trkpt><trkpt lat="45.3744162718704" lon="11.802291434881695"><ele>12.0</ele><time>2026-04-11T13:36:59Z</time></trkpt><trkpt lat="45.37437542052931" lon="11.802135399017594"><ele>12.0</ele><time>2026-04-11T13:37:00Z</time></trkpt><trkpt lat="45.374332892010784" lon="11.801999377750189"><ele>12.0</ele><time>2026-04-11T13:37:01Z</time></trkpt><trkpt lat="45.37428880164842" lon="11.80188500637404"><ele>12.0</ele><time>2026-04-11T13:37:02Z</time></trkpt><trkpt lat="45.374249792688026" lon="11.801785271022194"><ele>12.0</ele><time>2026-04-11T13:37:03Z</time></trkpt><trkpt lat="45.374214777477604" lon="11.801700540996666"><ele>12.0</ele><time>2026-04-11T13:37:04Z</time></trkpt><trkpt lat="45.37417500232702" lon="11.801600380019194"><ele>12.0</ele><time>2026-04-11T13:37:05Z</time></trkpt><trkpt lat="45.37412733300188" lon="11.80147689381654"><ele>12.0</ele><time>2026-04-11T13:37:06Z</time></trkpt><trkpt lat="45.374071784626544" lon="11.80133999000406"><ele>11.75</ele><time>2026-04-11T13:37:07Z</time></trkpt><trkpt lat="45.3740076195254" lon="11.801191737110868"><ele>11.5</ele><time>2026-04-11T13:37:08Z</time></trkpt><trkpt lat="45.37394011929984" lon="11.801036008886264"><ele>11.25</ele><time>2026-04-11T13:37:09Z</time></trkpt><trkpt lat="45.373842526478725" lon="11.80089839223025"><ele>11.0</ele><time>2026-04-11T13:37:10Z</time></trkpt><trkpt lat="45.373740516281025" lon="11.800767710520907"><ele>11.0</ele><time>2026-04-11T13:37:11Z</time></trkpt><trkpt lat="45.37363311895857" lon="11.800639260064562"><ele>11.0</ele><time>2026-04-11T13:37:12Z</time></trkpt><trkpt lat="45.373528331198926" lon="11.800515115968572"><ele>11.0</ele><time>2026-04-11T13:37:13Z</time></trkpt><trkpt lat="45.37342819917378" lon="11.800405321680643"><ele>11.0</ele><time>2026-04-11T13:37:14Z</time></trkpt><trkpt lat="45.37333529940359" lon="11.800298020696482"><ele>11.0</ele><time>2026-04-11T13:37:15Z</time></trkpt><trkpt lat="45.37325498505921" lon="11.800200493104624"><ele>11.0</ele><time>2026-04-11T13:37:16Z</time></trkpt><trkpt lat="45.373189686801226" lon="11.800116064568142"><ele>11.0</ele><time>2026-04-11T13:37:17Z</time></trkpt><trkpt lat="45.37313435899716" lon="11.800042733356522"><ele>11.0</ele><time>2026-04-11T13:37:18Z</time></trkpt><trkpt lat="45.373086996139165" lon="11.799975420514205"><ele>11.0</ele><time>2026-04-11T13:37:19Z</time></trkpt><trkpt lat="45.373035535770576" lon="11.799905731119393"><ele>11.0</ele><time>2026-04-11T13:37:20Z</time></trkpt><trkpt lat="45.3729813717654" lon="11.799827755729751"><ele>11.0</ele><time>2026-04-11T13:37:21Z</time></trkpt><trkpt lat="45.372916536986004" lon="11.799735960756555"><ele>11.0</ele><time>2026-04-11T13:37:22Z</time></trkpt><trkpt lat="45.372841301823954" lon="11.799633273654191"><ele>11.0</ele><time>2026-04-11T13:37:23Z</time></trkpt><trkpt lat="45.372756417806514" lon="11.799529284790788"><ele>11.0</ele><time>2026-04-11T13:37:24Z</time></trkpt><trkpt lat="45.37266446978856" lon="11.799426739364963"><ele>11.0</ele><time>2026-04-11T13:37:25Z</time></trkpt><trkpt lat="45.37256517676259" lon="11.799328370181017"><ele>11.0</ele><time>2026-04-11T13:37:26Z</time></trkpt><trkpt lat="45.372470723609375" lon="11.799242892098084"><ele>11.0</ele><time>2026-04-11T13:37:27Z</time></trkpt><trkpt lat="45.37237889343554" lon="11.799163006915268"><ele>11.0</ele><time>2026-04-11T13:37:28Z</time></trkpt><trkpt lat="45.372293917692915" lon="11.79908550102371"><ele>11.0</ele><time>2026-04-11T13:37:29Z</time></trkpt><trkpt lat="45.37221847832917" lon="11.799017238801538"><ele>11.0</ele><time>2026-04-11T13:37:30Z</time></trkpt><trkpt lat="45.37214537556711" lon="11.798955454856435"><ele>11.0</ele><time>2026-04-11T13:37:31Z</time></trkpt><trkpt lat="45.37208176803716" lon="11.798895956700271"><ele>11.0</ele><time>2026-04-11T13:37:32Z</time></trkpt><trkpt lat="45.372039823198875" lon="11.798827645832114"><ele>11.0</ele><time>2026-04-11T13:37:33Z</time></trkpt><trkpt lat="45.3719682552757" lon="11.79864552639033"><ele>11.0</ele><time>2026-04-11T13:37:35Z</time></trkpt><trkpt lat="45.37200541354917" lon="11.798473160047502"><ele>11.0</ele><time>2026-04-11T13:37:36Z</time></trkpt><trkpt lat="45.37199189920088" lon="11.798320246890706"><ele>11.0</ele><time>2026-04-11T13:37:37Z</time></trkpt><trkpt lat="45.37196689611773" lon="11.79815518329864"><ele>11.0</ele><time>2026-04-11T13:37:38Z</time></trkpt><trkpt lat="45.37193990110705" lon="11.797977134976728"><ele>11.0</ele><time>2026-04-11T13:37:39Z</time></trkpt><trkpt lat="45.371910712945855" lon="11.797784391169097"><ele>11.0</ele><time>2026-04-11T13:37:40Z</time></trkpt><trkpt lat="45.37188528706701" lon="11.79760168262328"><ele>11.0</ele><time>2026-04-11T13:37:41Z</time></trkpt><trkpt lat="45.37186151506297" lon="11.797438032836364"><ele>11.0</ele><time>2026-04-11T13:37:42Z</time></trkpt><trkpt lat="45.37184287675495" lon="11.797280841288915"><ele>11.0</ele><time>2026-04-11T13:37:43Z</time></trkpt><trkpt lat="45.37182974836185" lon="11.797115014769904"><ele>11.0</ele><time>2026-04-11T13:37:44Z</time></trkpt><trkpt lat="45.371828066272585" lon="11.796936341306898"><ele>10.75</ele><time>2026-04-11T13:37:45Z</time></trkpt><trkpt lat="45.37184049670546" lon="11.796747857636456"><ele>10.5</ele><time>2026-04-11T13:37:46Z</time></trkpt><trkpt lat="45.37186617566398" lon="11.79655241960003"><ele>10.25</ele><time>2026-04-11T13:37:47Z</time></trkpt><trkpt lat="45.37190885627124" lon="11.796362798560583"><ele>10.0</ele><time>2026-04-11T13:37:48Z</time></trkpt><trkpt lat="45.37195295285817" lon="11.79617764830349"><ele>10.25</ele><time>2026-04-11T13:37:49Z</time></trkpt><trkpt lat="45.371994262460525" lon="11.795996131341113"><ele>10.5</ele><time>2026-04-11T13:37:50Z</time></trkpt><trkpt lat="45.37203036376587" lon="11.795813995086736"><ele>10.75</ele><time>2026-04-11T13:37:51Z</time></trkpt><trkpt lat="45.37206469565471" lon="11.795630556185541"><ele>11.0</ele><time>2026-04-11T13:37:52Z</time></trkpt><trkpt lat="45.37209473982673" lon="11.795452278102722"><ele>11.0</ele><time>2026-04-11T13:37:53Z</time></trkpt><trkpt lat="45.37212180103645" lon="11.795292690531495"><ele>11.0</ele><time>2026-04-11T13:37:54Z</time></trkpt><trkpt lat="45.37214485927049" lon="11.795142277887258"><ele>11.0</ele><time>2026-04-11T13:37:55Z</time></trkpt><trkpt lat="45.372163128957496" lon="11.795000636792029"><ele>11.0</ele><time>2026-04-11T13:37:56Z</time></trkpt><trkpt lat="45.372179908111015" lon="11.794872600191908"><ele>11.0</ele><time>2026-04-11T13:37:57Z</time></trkpt><trkpt lat="45.372193612760434" lon="11.794752002623266"><ele>11.4</ele><time>2026-04-11T13:37:58Z</time></trkpt><trkpt lat="45.37220831962224" lon="11.794633620569943"><ele>11.8</ele><time>2026-04-11T13:37:59Z</time></trkpt><trkpt lat="45.37222585448233" lon="11.794500917957246"><ele>12.200000000000001</ele><time>2026-04-11T13:38:00Z</time></trkpt><trkpt lat="45.3722474529235" lon="11.794352944204377"><ele>12.600000000000001</ele><time>2026-04-11T13:38:01Z</time></trkpt><trkpt lat="45.3722739976129" lon="11.794185803491017"><ele>13.0</ele><time>2026-04-11T13:38:02Z</time></trkpt><trkpt lat="45.37230683474235" lon="11.794008154637899"><ele>13.0</ele><time>2026-04-11T13:38:03Z</time></trkpt><trkpt lat="45.37234657969254" lon="11.793820591880399"><ele>13.0</ele><time>2026-04-11T13:38:04Z</time></trkpt><trkpt lat="45.372390324246375" lon="11.793626954420551"><ele>13.0</ele><time>2026-04-11T13:38:05Z</time></trkpt><trkpt lat="45.37243671859587" lon="11.793427262809868"><ele>13.0</ele><time>2026-04-11T13:38:06Z</time></trkpt><trkpt lat="45.37248205952771" lon="11.79323323033394"><ele>13.0</ele><time>2026-04-11T13:38:07Z</time></trkpt><trkpt lat="45.37252283502702" lon="11.793055397550683"><ele>13.0</ele><time>2026-04-11T13:38:08Z</time></trkpt><trkpt lat="45.372560321162155" lon="11.792892508184853"><ele>13.0</ele><time>2026-04-11T13:38:09Z</time></trkpt><trkpt lat="45.37259554792061" lon="11.792742381282238"><ele>13.0</ele><time>2026-04-11T13:38:10Z</time></trkpt><trkpt lat="45.372628391662744" lon="11.792612660874537"><ele>13.0</ele><time>2026-04-11T13:38:11Z</time></trkpt><trkpt lat="45.37265758840042" lon="11.792498541808657"><ele>13.0</ele><time>2026-04-11T13:38:12Z</time></trkpt><trkpt lat="45.37267914219205" lon="11.792406630185013"><ele>13.0</ele><time>2026-04-11T13:38:13Z</time></trkpt><trkpt lat="45.37272523402099" lon="11.792277505605934"><ele>13.0</ele><time>2026-04-11T13:38:15Z</time></trkpt><trkpt lat="45.37275750890269" lon="11.792151000737077"><ele>13.0</ele><time>2026-04-11T13:38:17Z</time></trkpt><trkpt lat="45.37267626136814" lon="11.792043268872332"><ele>13.0</ele><time>2026-04-11T13:38:19Z</time></trkpt><trkpt lat="45.37260049721733" lon="11.792008082575405"><ele>13.0</ele><time>2026-04-11T13:38:20Z</time></trkpt><trkpt lat="45.372506085205444" lon="11.791961868323167"><ele>13.0</ele><time>2026-04-11T13:38:21Z</time></trkpt><trkpt lat="45.37240209734578" lon="11.791892522174525"><ele>13.0</ele><time>2026-04-11T13:38:22Z</time></trkpt><trkpt lat="45.372281962153345" lon="11.791816517472173"><ele>13.0</ele><time>2026-04-11T13:38:23Z</time></trkpt><trkpt lat="45.372166575328116" lon="11.791739490208446"><ele>13.0</ele><time>2026-04-11T13:38:24Z</time></trkpt><trkpt lat="45.37204627104169" lon="11.791661874716201"><ele>13.0</ele><time>2026-04-11T13:38:25Z</time></trkpt><trkpt lat="45.37192249820219" lon="11.79158481857698"><ele>13.0</ele><time>2026-04-11T13:38:26Z</time></trkpt><trkpt lat="45.371798281361755" lon="11.791503161339701"><ele>13.0</ele><time>2026-04-11T13:38:27Z</time></trkpt><trkpt lat="45.37166821747331" lon="11.791423244719471"><ele>13.0</ele><time>2026-04-11T13:38:28Z</time></trkpt><trkpt lat="45.37153866813056" lon="11.791341641597569"><ele>13.0</ele><time>2026-04-11T13:38:29Z</time></trkpt><trkpt lat="45.37140810689722" lon="11.79126765414067"><ele>13.0</ele><time>2026-04-11T13:38:30Z</time></trkpt><trkpt lat="45.37127267989397" lon="11.79118372787738"><ele>13.0</ele><time>2026-04-11T13:38:31Z</time></trkpt><trkpt lat="45.37113871041318" lon="11.791098721800068"><ele>13.0</ele><time>2026-04-11T13:38:32Z</time></trkpt><trkpt lat="45.37100439340268" lon="11.791014014173859"><ele>13.0</ele><time>2026-04-11T13:38:33Z</time></trkpt><trkpt lat="45.370865583894734" lon="11.790929881799498"><ele>13.0</ele><time>2026-04-11T13:38:34Z</time></trkpt><trkpt lat="45.37072418168711" lon="11.79085251356639"><ele>13.0</ele><time>2026-04-11T13:38:35Z</time></trkpt><trkpt lat="45.370580251846945" lon="11.79079414856452"><ele>12.333333333333332</ele><time>2026-04-11T13:38:36Z</time></trkpt><trkpt lat="45.37043138411153" lon="11.790757118532293"><ele>11.666666666666666</ele><time>2026-04-11T13:38:37Z</time></trkpt><trkpt lat="45.37028130692687" lon="11.79073230725824"><ele>11.0</ele><time>2026-04-11T13:38:38Z</time></trkpt><trkpt lat="45.370124874922126" lon="11.79070647835679"><ele>11.0</ele><time>2026-04-11T13:38:39Z</time></trkpt><trkpt lat="45.3699725126387" lon="11.790680248593711"><ele>11.0</ele><time>2026-04-11T13:38:40Z</time></trkpt><trkpt lat="45.369819778383224" lon="11.790651017131452"><ele>11.0</ele><time>2026-04-11T13:38:41Z</time></trkpt><trkpt lat="45.369672283900925" lon="11.790618077255974"><ele>11.5</ele><time>2026-04-11T13:38:42Z</time></trkpt><trkpt lat="45.369535339235824" lon="11.790587395345348"><ele>12.0</ele><time>2026-04-11T13:38:43Z</time></trkpt><trkpt lat="45.36939937196254" lon="11.790556925995807"><ele>12.5</ele><time>2026-04-11T13:38:44Z</time></trkpt><trkpt lat="45.36926738676994" lon="11.790529295898422"><ele>13.0</ele><time>2026-04-11T13:38:45Z</time></trkpt><trkpt lat="45.36914254684805" lon="11.790507403435706"><ele>13.0</ele><time>2026-04-11T13:38:46Z</time></trkpt><trkpt lat="45.36902520979073" lon="11.790480638491015"><ele>13.0</ele><time>2026-04-11T13:38:47Z</time></trkpt><trkpt lat="45.36891482954388" lon="11.790458314234426"><ele>13.0</ele><time>2026-04-11T13:38:48Z</time></trkpt><trkpt lat="45.368810178717624" lon="11.790434726816004"><ele>13.0</ele><time>2026-04-11T13:38:49Z</time></trkpt><trkpt lat="45.36871716920145" lon="11.7904013542387"><ele>13.0</ele><time>2026-04-11T13:38:50Z</time></trkpt><trkpt lat="45.36863627470418" lon="11.79035154950726"><ele>13.0</ele><time>2026-04-11T13:38:51Z</time></trkpt><trkpt lat="45.368568335779244" lon="11.790278555505253"><ele>13.0</ele><time>2026-04-11T13:38:52Z</time></trkpt><trkpt lat="45.36851422925161" lon="11.790188581488424"><ele>13.0</ele><time>2026-04-11T13:38:53Z</time></trkpt><trkpt lat="45.368455791769904" lon="11.790124731621349"><ele>13.0</ele><time>2026-04-11T13:38:54Z</time></trkpt><trkpt lat="45.368389033138804" lon="11.79011718036531"><ele>13.0</ele><time>2026-04-11T13:38:55Z</time></trkpt><trkpt lat="45.3682661470276" lon="11.79023866301855"><ele>13.0</ele><time>2026-04-11T13:38:57Z</time></trkpt><trkpt lat="45.36820599438854" lon="11.790318688980742"><ele>13.0</ele><time>2026-04-11T13:38:58Z</time></trkpt><trkpt lat="45.36812163680065" lon="11.790374755851891"><ele>13.0</ele><time>2026-04-11T13:38:59Z</time></trkpt><trkpt lat="45.368043111318485" lon="11.790456040747253"><ele>13.0</ele><time>2026-04-11T13:39:00Z</time></trkpt><trkpt lat="45.36791385087183" lon="11.79038527151837"><ele>13.0</ele><time>2026-04-11T13:39:01Z</time></trkpt><trkpt lat="45.36779570072466" lon="11.79035815355658"><ele>13.0</ele><time>2026-04-11T13:39:02Z</time></trkpt><trkpt lat="45.36766814305781" lon="11.790337948876052"><ele>13.0</ele><time>2026-04-11T13:39:03Z</time></trkpt><trkpt lat="45.36753559045301" lon="11.790336405185805"><ele>13.0</ele><time>2026-04-11T13:39:04Z</time></trkpt><trkpt lat="45.36740389973565" lon="11.790351318054416"><ele>13.0</ele><time>2026-04-11T13:39:05Z</time></trkpt><trkpt lat="45.36728143942575" lon="11.790376863009294"><ele>13.0</ele><time>2026-04-11T13:39:06Z</time></trkpt><trkpt lat="45.367170732799075" lon="11.79039650588634"><ele>13.0</ele><time>2026-04-11T13:39:07Z</time></trkpt><trkpt lat="45.36707063354118" lon="11.790414462016741"><ele>13.0</ele><time>2026-04-11T13:39:08Z</time></trkpt><trkpt lat="45.3669793461486" lon="11.790425002310375"><ele>13.0</ele><time>2026-04-11T13:39:09Z</time></trkpt><trkpt lat="45.3668953455148" lon="11.79043328861662"><ele>13.0</ele><time>2026-04-11T13:39:10Z</time></trkpt><trkpt lat="45.366827360107045" lon="11.790436891167065"><ele>12.999999999999998</ele><time>2026-04-11T13:39:11Z</time></trkpt><trkpt lat="45.36674404990002" lon="11.790428681736378"><ele>13.0</ele><time>2026-04-11T13:39:12Z</time></trkpt><trkpt lat="45.36665588847118" lon="11.79040830251831"><ele>13.0</ele><time>2026-04-11T13:39:13Z</time></trkpt><trkpt lat="45.36659157045125" lon="11.79037658507981"><ele>13.0</ele><time>2026-04-11T13:39:14Z</time></trkpt><trkpt lat="45.36651562028084" lon="11.790346423126524"><ele>12.999999999999998</ele><time>2026-04-11T13:39:15Z</time></trkpt><trkpt lat="45.36642100496548" lon="11.790309332627489"><ele>13.0</ele><time>2026-04-11T13:39:16Z</time></trkpt><trkpt lat="45.36630176714878" lon="11.790286211447421"><ele>13.0</ele><time>2026-04-11T13:39:17Z</time></trkpt><trkpt lat="45.366175265260864" lon="11.790254712371958"><ele>13.0</ele><time>2026-04-11T13:39:18Z</time></trkpt><trkpt lat="45.366045858825316" lon="11.790206882763552"><ele>13.0</ele><time>2026-04-11T13:39:19Z</time></trkpt><trkpt lat="45.365919167922996" lon="11.790167723227535"><ele>13.0</ele><time>2026-04-11T13:39:20Z</time></trkpt><trkpt lat="45.36578926021792" lon="11.79012960927288"><ele>13.0</ele><time>2026-04-11T13:39:21Z</time></trkpt><trkpt lat="45.365655434408126" lon="11.790099765634716"><ele>13.0</ele><time>2026-04-11T13:39:22Z</time></trkpt><trkpt lat="45.36551360751972" lon="11.790083119008129"><ele>13.0</ele><time>2026-04-11T13:39:23Z</time></trkpt><trkpt lat="45.36537419102724" lon="11.790092403629643"><ele>13.0</ele><time>2026-04-11T13:39:24Z</time></trkpt><trkpt lat="45.36523041768538" lon="11.790110747857995"><ele>13.0</ele><time>2026-04-11T13:39:25Z</time></trkpt><trkpt lat="45.36509269438842" lon="11.79014065020083"><ele>13.0</ele><time>2026-04-11T13:39:26Z</time></trkpt><trkpt lat="45.36496138086937" lon="11.790169886313706"><ele>13.0</ele><time>2026-04-11T13:39:27Z</time></trkpt><trkpt lat="45.36483620628337" lon="11.790191758826486"><ele>13.0</ele><time>2026-04-11T13:39:28Z</time></trkpt><trkpt lat="45.364713531946734" lon="11.790186494866322"><ele>12.75</ele><time>2026-04-11T13:39:29Z</time></trkpt><trkpt lat="45.36459236188653" lon="11.790151098719438"><ele>12.5</ele><time>2026-04-11T13:39:30Z</time></trkpt><trkpt lat="45.364467090561554" lon="11.790109133882611"><ele>12.25</ele><time>2026-04-11T13:39:31Z</time></trkpt><trkpt lat="45.36434103098438" lon="11.790061337960804"><ele>12.0</ele><time>2026-04-11T13:39:32Z</time></trkpt><trkpt lat="45.36421066149678" lon="11.790020295901787"><ele>12.0</ele><time>2026-04-11T13:39:33Z</time></trkpt><trkpt lat="45.36408987718808" lon="11.789984790841839"><ele>12.0</ele><time>2026-04-11T13:39:34Z</time></trkpt><trkpt lat="45.36397738072944" lon="11.789967473223859"><ele>12.0</ele><time>2026-04-11T13:39:35Z</time></trkpt><trkpt lat="45.36386897533999" lon="11.789965301337027"><ele>12.0</ele><time>2026-04-11T13:39:36Z</time></trkpt><trkpt lat="45.363756360034" lon="11.789996323008056"><ele>12.0</ele><time>2026-04-11T13:39:37Z</time></trkpt><trkpt lat="45.36364264889735" lon="11.790054944496054"><ele>12.0</ele><time>2026-04-11T13:39:38Z</time></trkpt><trkpt lat="45.363528118508405" lon="11.790127094690588"><ele>12.0</ele><time>2026-04-11T13:39:39Z</time></trkpt><trkpt lat="45.36341642341974" lon="11.790205784641659"><ele>12.0</ele><time>2026-04-11T13:39:40Z</time></trkpt><trkpt lat="45.36330713778889" lon="11.790268629863258"><ele>12.399999999999999</ele><time>2026-04-11T13:39:41Z</time></trkpt><trkpt lat="45.36319868454392" lon="11.790314934734875"><ele>12.799999999999999</ele><time>2026-04-11T13:39:42Z</time></trkpt><trkpt lat="45.363100269951715" lon="11.790363065437889"><ele>13.2</ele><time>2026-04-11T13:39:43Z</time></trkpt><trkpt lat="45.363004789174425" lon="11.790411534759782"><ele>13.6</ele><time>2026-04-11T13:39:44Z</time></trkpt><trkpt lat="45.36290589180779" lon="11.790442802299149"><ele>14.0</ele><time>2026-04-11T13:39:45Z</time></trkpt><trkpt lat="45.36279828622269" lon="11.790444134509867"><ele>14.2</ele><time>2026-04-11T13:39:46Z</time></trkpt><trkpt lat="45.36268707906055" lon="11.790413973336436"><ele>14.399999999999999</ele><time>2026-04-11T13:39:47Z</time></trkpt><trkpt lat="45.362582673651" lon="11.790364136249119"><ele>14.6</ele><time>2026-04-11T13:39:48Z</time></trkpt><trkpt lat="45.362494884951865" lon="11.790318626669288"><ele>14.8</ele><time>2026-04-11T13:39:49Z</time></trkpt><trkpt lat="45.362426507703226" lon="11.790283449748753"><ele>15.0</ele><time>2026-04-11T13:39:50Z</time></trkpt><trkpt lat="45.36234052771834" lon="11.79026466136616"><ele>15.0</ele><time>2026-04-11T13:39:52Z</time></trkpt><trkpt lat="45.36223546385753" lon="11.790259621397203"><ele>15.0</ele><time>2026-04-11T13:39:54Z</time></trkpt><trkpt lat="45.362172492690846" lon="11.790246167796768"><ele>15.0</ele><time>2026-04-11T13:39:57Z</time></trkpt><trkpt lat="45.362078420343835" lon="11.790207838487007"><ele>15.0</ele><time>2026-04-11T13:39:59Z</time></trkpt><trkpt lat="45.36201694018717" lon="11.790176984871689"><ele>15.0</ele><time>2026-04-11T13:40:00Z</time></trkpt><trkpt lat="45.361942326628004" lon="11.790147372216293"><ele>15.0</ele><time>2026-04-11T13:40:01Z</time></trkpt><trkpt lat="45.36187064694433" lon="11.790112898050253"><ele>15.166666666666666</ele><time>2026-04-11T13:40:02Z</time></trkpt><trkpt lat="45.361808436555656" lon="11.79008013998113"><ele>15.333333333333332</ele><time>2026-04-11T13:40:03Z</time></trkpt><trkpt lat="45.361699298289594" lon="11.790044481619544"><ele>15.5</ele><time>2026-04-11T13:40:05Z</time></trkpt><trkpt lat="45.3616277152783" lon="11.790017279873021"><ele>15.666666666666666</ele><time>2026-04-11T13:40:06Z</time></trkpt><trkpt lat="45.36155446748049" lon="11.789992949097552"><ele>15.833333333333332</ele><time>2026-04-11T13:40:07Z</time></trkpt><trkpt lat="45.361477516042875" lon="11.789969698474476"><ele>16.0</ele><time>2026-04-11T13:40:08Z</time></trkpt><trkpt lat="45.36139524463915" lon="11.789958053869183"><ele>15.499999999999998</ele><time>2026-04-11T13:40:09Z</time></trkpt><trkpt lat="45.361315815238136" lon="11.789945440954064"><ele>15.0</ele><time>2026-04-11T13:40:10Z</time></trkpt><trkpt lat="45.361233135993785" lon="11.78994011728329"><ele>14.5</ele><time>2026-04-11T13:40:11Z</time></trkpt><trkpt lat="45.36114813043172" lon="11.78993904232509"><ele>14.0</ele><time>2026-04-11T13:40:12Z</time></trkpt><trkpt lat="45.361059991441465" lon="11.789930050524989"><ele>13.499999999999998</ele><time>2026-04-11T13:40:13Z</time></trkpt><trkpt lat="45.36098440941056" lon="11.78993043129513"><ele>13.0</ele><time>2026-04-11T13:40:14Z</time></trkpt><trkpt lat="45.360915816943525" lon="11.789932603404432"><ele>13.0</ele><time>2026-04-11T13:40:15Z</time></trkpt><trkpt lat="45.36080191039433" lon="11.789931190942921"><ele>13.0</ele><time>2026-04-11T13:40:17Z</time></trkpt><trkpt lat="45.36070656873162" lon="11.789907287371346"><ele>13.0</ele><time>2026-04-11T13:40:19Z</time></trkpt><trkpt lat="45.360606204368274" lon="11.789860097732099"><ele>13.0</ele><time>2026-04-11T13:40:21Z</time></trkpt><trkpt lat="45.360500715047216" lon="11.789828134104273"><ele>13.0</ele><time>2026-04-11T13:40:23Z</time></trkpt><trkpt lat="45.36037584014853" lon="11.789758818825222"><ele>13.333333333333332</ele><time>2026-04-11T13:40:25Z</time></trkpt><trkpt lat="45.36030593818129" lon="11.789715947694402"><ele>13.666666666666666</ele><time>2026-04-11T13:40:26Z</time></trkpt><trkpt lat="45.3602316494184" lon="11.789666235337341"><ele>14.0</ele><time>2026-04-11T13:40:27Z</time></trkpt><trkpt lat="45.36015905056455" lon="11.78960870594262"><ele>14.333333333333332</ele><time>2026-04-11T13:40:28Z</time></trkpt><trkpt lat="45.36008615711597" lon="11.789552405075742"><ele>14.666666666666666</ele><time>2026-04-11T13:40:29Z</time></trkpt><trkpt lat="45.36001391703183" lon="11.789493835725"><ele>15.0</ele><time>2026-04-11T13:40:30Z</time></trkpt><trkpt lat="45.359933627060975" lon="11.789442170821628"><ele>15.0</ele><time>2026-04-11T13:40:31Z</time></trkpt><trkpt lat="45.35985081122734" lon="11.789387618727543"><ele>15.0</ele><time>2026-04-11T13:40:32Z</time></trkpt><trkpt lat="45.35976855925547" lon="11.789326675231049"><ele>15.0</ele><time>2026-04-11T13:40:33Z</time></trkpt><trkpt lat="45.35970800294254" lon="11.789260353664131"><ele>15.0</ele><time>2026-04-11T13:40:34Z</time></trkpt><trkpt lat="45.359648210735486" lon="11.789208245795612"><ele>15.0</ele><time>2026-04-11T13:40:35Z</time></trkpt><trkpt lat="45.35960262029496" lon="11.789145181315249"><ele>15.0</ele><time>2026-04-11T13:40:36Z</time></trkpt><trkpt lat="45.359527512827796" lon="11.789056826478406"><ele>14.8</ele><time>2026-04-11T13:40:38Z</time></trkpt><trkpt lat="45.35957411712388" lon="11.78892487949267"><ele>14.6</ele><time>2026-04-11T13:40:40Z</time></trkpt><trkpt lat="45.35963563904039" lon="11.788757150764997"><ele>14.399999999999999</ele><time>2026-04-11T13:40:42Z</time></trkpt><trkpt lat="45.35967047873541" lon="11.788662606135631"><ele>14.2</ele><time>2026-04-11T13:40:43Z</time></trkpt><trkpt lat="45.35970226812937" lon="11.788567541534707"><ele>14.0</ele><time>2026-04-11T13:40:44Z</time></trkpt><trkpt lat="45.3597316968538" lon="11.788479178769691"><ele>13.666666666666668</ele><time>2026-04-11T13:40:45Z</time></trkpt><trkpt lat="45.359785896554556" lon="11.788311638080119"><ele>13.333333333333334</ele><time>2026-04-11T13:40:47Z</time></trkpt><trkpt lat="45.359814127822645" lon="11.7882054133434"><ele>13.0</ele><time>2026-04-11T13:40:48Z</time></trkpt><trkpt lat="45.35984801739606" lon="11.788100107123498"><ele>12.666666666666668</ele><time>2026-04-11T13:40:49Z</time></trkpt><trkpt lat="45.3598776197427" lon="11.788002010784126"><ele>12.333333333333334</ele><time>2026-04-11T13:40:50Z</time></trkpt><trkpt lat="45.359920987624214" lon="11.787921382399933"><ele>12.0</ele><time>2026-04-11T13:40:51Z</time></trkpt><trkpt lat="45.35998027972179" lon="11.787788885143549"><ele>12.0</ele><time>2026-04-11T13:40:53Z</time></trkpt><trkpt lat="45.360090978640834" lon="11.787827303918327"><ele>12.0</ele><time>2026-04-11T13:40:55Z</time></trkpt><trkpt lat="45.36014808258393" lon="11.787874179281078"><ele>12.0</ele><time>2026-04-11T13:40:56Z</time></trkpt><trkpt lat="45.360211508598624" lon="11.787921634364782"><ele>12.0</ele><time>2026-04-11T13:40:57Z</time></trkpt><trkpt lat="45.36028952874926" lon="11.787957830138087"><ele>12.0</ele><time>2026-04-11T13:40:58Z</time></trkpt><trkpt lat="45.36036909666164" lon="11.787994881192763"><ele>12.0</ele><time>2026-04-11T13:40:59Z</time></trkpt><trkpt lat="45.360456332694056" lon="11.788047312001014"><ele>12.166666666666666</ele><time>2026-04-11T13:41:00Z</time></trkpt><trkpt lat="45.36054097292121" lon="11.78809705286575"><ele>12.333333333333332</ele><time>2026-04-11T13:41:01Z</time></trkpt><trkpt lat="45.360615278227534" lon="11.78812700069819"><ele>12.5</ele><time>2026-04-11T13:41:02Z</time></trkpt><trkpt lat="45.36068459742127" lon="11.788159268329046"><ele>12.666666666666666</ele><time>2026-04-11T13:41:03Z</time></trkpt><trkpt lat="45.360757880110164" lon="11.788193113080299"><ele>12.833333333333332</ele><time>2026-04-11T13:41:04Z</time></trkpt><trkpt lat="45.36082332896072" lon="11.788219990767875"><ele>13.0</ele><time>2026-04-11T13:41:05Z</time></trkpt><trkpt lat="45.36092132635619" lon="11.788260025357701"><ele>12.999999999999998</ele><time>2026-04-11T13:41:07Z</time></trkpt><trkpt lat="45.3609859958598" lon="11.78828800715563"><ele>13.0</ele><time>2026-04-11T13:41:10Z</time></trkpt><trkpt lat="45.36106107487025" lon="11.788285916547679"><ele>13.0</ele><time>2026-04-11T13:41:16Z</time></trkpt><trkpt lat="45.36111431869747" lon="11.78821779029429"><ele>13.0</ele><time>2026-04-11T13:41:17Z</time></trkpt><trkpt lat="45.36114515318007" lon="11.788111888807284"><ele>12.999999999999998</ele><time>2026-04-11T13:41:18Z</time></trkpt><trkpt lat="45.36117238318075" lon="11.788011954549265"><ele>13.0</ele><time>2026-04-11T13:41:19Z</time></trkpt><trkpt lat="45.361216620608346" lon="11.78780872293278"><ele>13.0</ele><time>2026-04-11T13:41:21Z</time></trkpt><trkpt lat="45.36126508616747" lon="11.787693683028031"><ele>13.0</ele><time>2026-04-11T13:41:22Z</time></trkpt><trkpt lat="45.3612885619928" lon="11.787564790224378"><ele>13.0</ele><time>2026-04-11T13:41:23Z</time></trkpt><trkpt lat="45.36132937324611" lon="11.787441009412419"><ele>13.0</ele><time>2026-04-11T13:41:24Z</time></trkpt><trkpt lat="45.36135802776284" lon="11.787304352388265"><ele>13.0</ele><time>2026-04-11T13:41:25Z</time></trkpt><trkpt lat="45.36140750161018" lon="11.787171663804253"><ele>13.0</ele><time>2026-04-11T13:41:26Z</time></trkpt><trkpt lat="45.36143558169072" lon="11.78702076242216"><ele>13.0</ele><time>2026-04-11T13:41:27Z</time></trkpt><trkpt lat="45.36145939581571" lon="11.786872490880828"><ele>13.0</ele><time>2026-04-11T13:41:28Z</time></trkpt><trkpt lat="45.3614805982542" lon="11.786729289437382"><ele>13.0</ele><time>2026-04-11T13:41:29Z</time></trkpt><trkpt lat="45.361497681337184" lon="11.786595276390324"><ele>13.0</ele><time>2026-04-11T13:41:30Z</time></trkpt><trkpt lat="45.361498720810395" lon="11.786450962697003"><ele>13.0</ele><time>2026-04-11T13:41:31Z</time></trkpt><trkpt lat="45.361522275292515" lon="11.786309991493544"><ele>13.0</ele><time>2026-04-11T13:41:32Z</time></trkpt><trkpt lat="45.36154462593425" lon="11.786156306225818"><ele>13.0</ele><time>2026-04-11T13:41:33Z</time></trkpt><trkpt lat="45.361561066892484" lon="11.785996062615606"><ele>13.0</ele><time>2026-04-11T13:41:34Z</time></trkpt><trkpt lat="45.36158368371765" lon="11.785823747001569"><ele>13.0</ele><time>2026-04-11T13:41:35Z</time></trkpt><trkpt lat="45.361606869513736" lon="11.785656001287993"><ele>13.4</ele><time>2026-04-11T13:41:36Z</time></trkpt><trkpt lat="45.36162296647896" lon="11.78551022517879"><ele>13.8</ele><time>2026-04-11T13:41:37Z</time></trkpt><trkpt lat="45.36164305610675" lon="11.785368473046017"><ele>14.2</ele><time>2026-04-11T13:41:38Z</time></trkpt><trkpt lat="45.361659172257895" lon="11.785236218582344"><ele>14.6</ele><time>2026-04-11T13:41:39Z</time></trkpt><trkpt lat="45.36167274080016" lon="11.785112223878864"><ele>15.0</ele><time>2026-04-11T13:41:40Z</time></trkpt><trkpt lat="45.36168569145381" lon="11.784998276086695"><ele>15.2</ele><time>2026-04-11T13:41:41Z</time></trkpt><trkpt lat="45.361702031596536" lon="11.784886469668605"><ele>15.4</ele><time>2026-04-11T13:41:42Z</time></trkpt><trkpt lat="45.36171351472312" lon="11.784768953331845"><ele>15.600000000000001</ele><time>2026-04-11T13:41:43Z</time></trkpt><trkpt lat="45.36172720129367" lon="11.784641998865895"><ele>15.8</ele><time>2026-04-11T13:41:44Z</time></trkpt><trkpt lat="45.361740375702325" lon="11.784504768747958"><ele>16.0</ele><time>2026-04-11T13:41:45Z</time></trkpt><trkpt lat="45.361759031492895" lon="11.784360922698154"><ele>15.5</ele><time>2026-04-11T13:41:46Z</time></trkpt><trkpt lat="45.361777749266224" lon="11.784206459901284"><ele>15.0</ele><time>2026-04-11T13:41:47Z</time></trkpt><trkpt lat="45.36180091268139" lon="11.784045742943947"><ele>14.5</ele><time>2026-04-11T13:41:48Z</time></trkpt><trkpt lat="45.36182730508613" lon="11.783865854759025"><ele>14.0</ele><time>2026-04-11T13:41:49Z</time></trkpt><trkpt lat="45.36184766304604" lon="11.783679216243826"><ele>13.5</ele><time>2026-04-11T13:41:50Z</time></trkpt><trkpt lat="45.36187257176826" lon="11.783484240029685"><ele>13.0</ele><time>2026-04-11T13:41:51Z</time></trkpt><trkpt lat="45.36189644883344" lon="11.78329266936694"><ele>12.5</ele><time>2026-04-11T13:41:52Z</time></trkpt><trkpt lat="45.361920423207025" lon="11.78310894850212"><ele>12.0</ele><time>2026-04-11T13:41:53Z</time></trkpt><trkpt lat="45.361946084276106" lon="11.782928105124695"><ele>12.0</ele><time>2026-04-11T13:41:54Z</time></trkpt><trkpt lat="45.361970718443665" lon="11.782755984301279"><ele>12.0</ele><time>2026-04-11T13:41:55Z</time></trkpt><trkpt lat="45.36199180279929" lon="11.782589037585366"><ele>12.0</ele><time>2026-04-11T13:41:56Z</time></trkpt><trkpt lat="45.362015480549225" lon="11.782426906984064"><ele>12.0</ele><time>2026-04-11T13:41:57Z</time></trkpt><trkpt lat="45.36203413924419" lon="11.782276684418939"><ele>12.0</ele><time>2026-04-11T13:41:58Z</time></trkpt><trkpt lat="45.36205486498904" lon="11.782139499586023"><ele>12.0</ele><time>2026-04-11T13:41:59Z</time></trkpt><trkpt lat="45.36208009587802" lon="11.782010179515174"><ele>12.0</ele><time>2026-04-11T13:42:00Z</time></trkpt><trkpt lat="45.3621007138535" lon="11.781887392924169"><ele>12.0</ele><time>2026-04-11T13:42:01Z</time></trkpt><trkpt lat="45.36212366274867" lon="11.78179907326809"><ele>12.0</ele><time>2026-04-11T13:42:02Z</time></trkpt><trkpt lat="45.36215405823578" lon="11.78167669287814"><ele>12.0</ele><time>2026-04-11T13:42:04Z</time></trkpt><trkpt lat="45.36219355628482" lon="11.781563537619132"><ele>11.6</ele><time>2026-04-11T13:42:17Z</time></trkpt><trkpt lat="45.36224879164321" lon="11.781431256580195"><ele>11.2</ele><time>2026-04-11T13:42:19Z</time></trkpt><trkpt lat="45.36225121575835" lon="11.781297278159634"><ele>10.8</ele><time>2026-04-11T13:42:21Z</time></trkpt><trkpt lat="45.36216148456022" lon="11.781171164710264"><ele>10.4</ele><time>2026-04-11T13:42:23Z</time></trkpt><trkpt lat="45.362080717110516" lon="11.781111888477371"><ele>10.0</ele><time>2026-04-11T13:42:24Z</time></trkpt><trkpt lat="45.361980902931414" lon="11.781016550638082"><ele>10.333333333333334</ele><time>2026-04-11T13:42:25Z</time></trkpt><trkpt lat="45.361872702418985" lon="11.780884741005254"><ele>10.666666666666666</ele><time>2026-04-11T13:42:26Z</time></trkpt><trkpt lat="45.36176876455414" lon="11.780737863209657"><ele>11.0</ele><time>2026-04-11T13:42:27Z</time></trkpt><trkpt lat="45.36164617686139" lon="11.780567684136058"><ele>11.0</ele><time>2026-04-11T13:42:28Z</time></trkpt><trkpt lat="45.36150821125862" lon="11.78039041870194"><ele>11.0</ele><time>2026-04-11T13:42:29Z</time></trkpt><trkpt lat="45.36137112890622" lon="11.780216057454187"><ele>11.0</ele><time>2026-04-11T13:42:30Z</time></trkpt><trkpt lat="45.36123609601546" lon="11.780049628147914"><ele>10.666666666666666</ele><time>2026-04-11T13:42:31Z</time></trkpt><trkpt lat="45.36109500620601" lon="11.779874970668219"><ele>10.333333333333334</ele><time>2026-04-11T13:42:32Z</time></trkpt><trkpt lat="45.36095940116561" lon="11.77969396954179"><ele>10.0</ele><time>2026-04-11T13:42:33Z</time></trkpt><trkpt lat="45.36081910678923" lon="11.77951584061106"><ele>9.666666666666668</ele><time>2026-04-11T13:42:34Z</time></trkpt><trkpt lat="45.36068176043101" lon="11.779336000039319"><ele>9.333333333333334</ele><time>2026-04-11T13:42:35Z</time></trkpt><trkpt lat="45.360540052202644" lon="11.779160576902088"><ele>9.0</ele><time>2026-04-11T13:42:36Z</time></trkpt><trkpt lat="45.36039749373819" lon="11.778994505442943"><ele>9.666666666666666</ele><time>2026-04-11T13:42:37Z</time></trkpt><trkpt lat="45.360263705103016" lon="11.778830045652276"><ele>10.333333333333332</ele><time>2026-04-11T13:42:38Z</time></trkpt><trkpt lat="45.360135469582914" lon="11.778677351517986"><ele>11.0</ele><time>2026-04-11T13:42:39Z</time></trkpt><trkpt lat="45.36002357602032" lon="11.778531176502668"><ele>10.75</ele><time>2026-04-11T13:42:40Z</time></trkpt><trkpt lat="45.35991972486031" lon="11.778398643731151"><ele>10.5</ele><time>2026-04-11T13:42:41Z</time></trkpt><trkpt lat="45.35982373582285" lon="11.778278574040883"><ele>10.25</ele><time>2026-04-11T13:42:42Z</time></trkpt><trkpt lat="45.359738081160145" lon="11.778169544919987"><ele>10.0</ele><time>2026-04-11T13:42:43Z</time></trkpt><trkpt lat="45.359670321897916" lon="11.778054441431186"><ele>9.5</ele><time>2026-04-11T13:42:44Z</time></trkpt><trkpt lat="45.359634402555166" lon="11.777914398311857"><ele>9.0</ele><time>2026-04-11T13:42:45Z</time></trkpt><trkpt lat="45.359572852124984" lon="11.777801554351278"><ele>8.5</ele><time>2026-04-11T13:42:46Z</time></trkpt><trkpt lat="45.35946013135262" lon="11.777733326054616"><ele>8.0</ele><time>2026-04-11T13:42:47Z</time></trkpt><trkpt lat="45.35936288764465" lon="11.777606355680447"><ele>8.0</ele><time>2026-04-11T13:42:48Z</time></trkpt><trkpt lat="45.35925156135301" lon="11.777480654164615"><ele>8.0</ele><time>2026-04-11T13:42:49Z</time></trkpt><trkpt lat="45.35913373558085" lon="11.777335134073656"><ele>8.0</ele><time>2026-04-11T13:42:50Z</time></trkpt><trkpt lat="45.35901637240958" lon="11.77717592982336"><ele>8.0</ele><time>2026-04-11T13:42:51Z</time></trkpt><trkpt lat="45.35889059728439" lon="11.777015664370095"><ele>8.0</ele><time>2026-04-11T13:42:52Z</time></trkpt><trkpt lat="45.35876638510161" lon="11.776856808013187"><ele>8.0</ele><time>2026-04-11T13:42:53Z</time></trkpt><trkpt lat="45.358641156023936" lon="11.776700050571518"><ele>8.0</ele><time>2026-04-11T13:42:54Z</time></trkpt><trkpt lat="45.35851425096955" lon="11.776534559861828"><ele>8.0</ele><time>2026-04-11T13:42:55Z</time></trkpt><trkpt lat="45.35837905334007" lon="11.776366760016257"><ele>8.0</ele><time>2026-04-11T13:42:56Z</time></trkpt><trkpt lat="45.358247335661325" lon="11.776202385473573"><ele>8.0</ele><time>2026-04-11T13:42:57Z</time></trkpt><trkpt lat="45.35811144127888" lon="11.776042963993198"><ele>8.0</ele><time>2026-04-11T13:42:58Z</time></trkpt><trkpt lat="45.35797312261794" lon="11.775883193968456"><ele>8.0</ele><time>2026-04-11T13:42:59Z</time></trkpt><trkpt lat="45.357834575394975" lon="11.775724175001605"><ele>7.666666666666666</ele><time>2026-04-11T13:43:00Z</time></trkpt><trkpt lat="45.35768580545924" lon="11.775569003837479"><ele>7.333333333333334</ele><time>2026-04-11T13:43:01Z</time></trkpt><trkpt lat="45.35754042697239" lon="11.775412372080668"><ele>7.0</ele><time>2026-04-11T13:43:02Z</time></trkpt><trkpt lat="45.357391482291106" lon="11.775256594396927"><ele>6.666666666666667</ele><time>2026-04-11T13:43:03Z</time></trkpt><trkpt lat="45.35723509060489" lon="11.77510039082726"><ele>6.333333333333334</ele><time>2026-04-11T13:43:04Z</time></trkpt><trkpt lat="45.35708057194968" lon="11.774950374530036"><ele>6.0</ele><time>2026-04-11T13:43:05Z</time></trkpt><trkpt lat="45.35692144622932" lon="11.774803321103754"><ele>7.333333333333334</ele><time>2026-04-11T13:43:06Z</time></trkpt><trkpt lat="45.35675990754117" lon="11.7746585935182"><ele>8.666666666666668</ele><time>2026-04-11T13:43:07Z</time></trkpt><trkpt lat="45.356600306151535" lon="11.774519343828104"><ele>10.0</ele><time>2026-04-11T13:43:08Z</time></trkpt><trkpt lat="45.35643525241973" lon="11.774381520574531"><ele>9.333333333333334</ele><time>2026-04-11T13:43:09Z</time></trkpt><trkpt lat="45.3562747406756" lon="11.774249227202791"><ele>8.666666666666666</ele><time>2026-04-11T13:43:10Z</time></trkpt><trkpt lat="45.35611531705373" lon="11.77412379156086"><ele>8.0</ele><time>2026-04-11T13:43:11Z</time></trkpt><trkpt lat="45.355957110278474" lon="11.77400391208237"><ele>8.0</ele><time>2026-04-11T13:43:12Z</time></trkpt><trkpt lat="45.35580926165897" lon="11.773905130574832"><ele>8.0</ele><time>2026-04-11T13:43:13Z</time></trkpt><trkpt lat="45.35567064258119" lon="11.773817666012713"><ele>8.0</ele><time>2026-04-11T13:43:14Z</time></trkpt><trkpt lat="45.35554293352461" lon="11.77374083167684"><ele>8.25</ele><time>2026-04-11T13:43:15Z</time></trkpt><trkpt lat="45.35542147146239" lon="11.773657429978291"><ele>8.5</ele><time>2026-04-11T13:43:16Z</time></trkpt><trkpt lat="45.35530731846305" lon="11.773582747835048"><ele>8.75</ele><time>2026-04-11T13:43:17Z</time></trkpt><trkpt lat="45.3552011186744" lon="11.77351635619156"><ele>9.0</ele><time>2026-04-11T13:43:18Z</time></trkpt><trkpt lat="45.35510735864284" lon="11.773461148682491"><ele>8.666666666666666</ele><time>2026-04-11T13:43:19Z</time></trkpt><trkpt lat="45.355023948988816" lon="11.77341699403053"><ele>8.333333333333334</ele><time>2026-04-11T13:43:20Z</time></trkpt><trkpt lat="45.354946821104654" lon="11.773371811900175"><ele>8.0</ele><time>2026-04-11T13:43:21Z</time></trkpt><trkpt lat="45.35488267240778" lon="11.77333069100947"><ele>7.666666666666667</ele><time>2026-04-11T13:43:22Z</time></trkpt><trkpt lat="45.35482156237515" lon="11.773269594736936"><ele>7.333333333333334</ele><time>2026-04-11T13:43:25Z</time></trkpt><trkpt lat="45.354779542860385" lon="11.773164445193732"><ele>7.0</ele><time>2026-04-11T13:43:27Z</time></trkpt><trkpt lat="45.35476299942365" lon="11.773068399546386"><ele>7.000000000000001</ele><time>2026-04-11T13:43:28Z</time></trkpt><trkpt lat="45.35475717339113" lon="11.772955825593609"><ele>7.0</ele><time>2026-04-11T13:43:29Z</time></trkpt><trkpt lat="45.35476594843518" lon="11.772830733593867"><ele>7.0</ele><time>2026-04-11T13:43:30Z</time></trkpt><trkpt lat="45.35479145714658" lon="11.772700947440145"><ele>7.0</ele><time>2026-04-11T13:43:31Z</time></trkpt><trkpt lat="45.35481968146547" lon="11.77257246513909"><ele>7.000000000000001</ele><time>2026-04-11T13:43:32Z</time></trkpt><trkpt lat="45.354846895612596" lon="11.772455846386492"><ele>7.0</ele><time>2026-04-11T13:43:33Z</time></trkpt><trkpt lat="45.354868944260595" lon="11.772354561472746"><ele>7.500000000000001</ele><time>2026-04-11T13:43:34Z</time></trkpt><trkpt lat="45.35489141242835" lon="11.772259331145388"><ele>8.0</ele><time>2026-04-11T13:43:35Z</time></trkpt><trkpt lat="45.35491759183894" lon="11.772157065475497"><ele>8.5</ele><time>2026-04-11T13:43:36Z</time></trkpt><trkpt lat="45.354946017391946" lon="11.772050503016807"><ele>9.0</ele><time>2026-04-11T13:43:37Z</time></trkpt><trkpt lat="45.35497370227564" lon="11.771933547447725"><ele>9.5</ele><time>2026-04-11T13:43:38Z</time></trkpt><trkpt lat="45.354999812727534" lon="11.771797441382382"><ele>10.0</ele><time>2026-04-11T13:43:39Z</time></trkpt><trkpt lat="45.35502177217086" lon="11.771662988992102"><ele>10.2</ele><time>2026-04-11T13:43:40Z</time></trkpt><trkpt lat="45.355043782326014" lon="11.771519194446643"><ele>10.4</ele><time>2026-04-11T13:43:41Z</time></trkpt><trkpt lat="45.3550608900735" lon="11.771374106702739"><ele>10.600000000000001</ele><time>2026-04-11T13:43:42Z</time></trkpt><trkpt lat="45.35507475532916" lon="11.771225563828358"><ele>10.8</ele><time>2026-04-11T13:43:43Z</time></trkpt><trkpt lat="45.35509961466303" lon="11.771086011754432"><ele>11.0</ele><time>2026-04-11T13:43:44Z</time></trkpt><trkpt lat="45.35508449239653" lon="11.770946548401138"><ele>11.0</ele><time>2026-04-11T13:43:45Z</time></trkpt><trkpt lat="45.35509765026153" lon="11.770812300156734"><ele>11.0</ele><time>2026-04-11T13:43:46Z</time></trkpt><trkpt lat="45.35508888823278" lon="11.77067561183378"><ele>11.0</ele><time>2026-04-11T13:43:47Z</time></trkpt><trkpt lat="45.35507737013395" lon="11.77053970660018"><ele>11.0</ele><time>2026-04-11T13:43:48Z</time></trkpt><trkpt lat="45.35505491392804" lon="11.77041040283037"><ele>11.0</ele><time>2026-04-11T13:43:49Z</time></trkpt><trkpt lat="45.3550385674898" lon="11.770279850771265"><ele>10.8</ele><time>2026-04-11T13:43:50Z</time></trkpt><trkpt lat="45.3550205994702" lon="11.770146287849585"><ele>10.600000000000001</ele><time>2026-04-11T13:43:51Z</time></trkpt><trkpt lat="45.35500546852865" lon="11.770010638478267"><ele>10.4</ele><time>2026-04-11T13:43:52Z</time></trkpt><trkpt lat="45.354986494360034" lon="11.769873594995014"><ele>10.2</ele><time>2026-04-11T13:43:53Z</time></trkpt><trkpt lat="45.35496675189545" lon="11.769739244769356"><ele>10.0</ele><time>2026-04-11T13:43:54Z</time></trkpt><trkpt lat="45.35495509654531" lon="11.769606874037976"><ele>10.0</ele><time>2026-04-11T13:43:55Z</time></trkpt><trkpt lat="45.35493069696127" lon="11.769463796555488"><ele>10.0</ele><time>2026-04-11T13:43:56Z</time></trkpt><trkpt lat="45.35491076270949" lon="11.769312014956528"><ele>10.0</ele><time>2026-04-11T13:43:57Z</time></trkpt><trkpt lat="45.35489304825602" lon="11.769158110322103"><ele>10.0</ele><time>2026-04-11T13:43:58Z</time></trkpt><trkpt lat="45.35487180076329" lon="11.769001460095234"><ele>10.0</ele><time>2026-04-11T13:43:59Z</time></trkpt><trkpt lat="45.354852357789355" lon="11.76884749401262"><ele>10.0</ele><time>2026-04-11T13:44:00Z</time></trkpt><trkpt lat="45.354832310491894" lon="11.768699874496663"><ele>10.0</ele><time>2026-04-11T13:44:01Z</time></trkpt><trkpt lat="45.35481230507513" lon="11.768557673978112"><ele>10.0</ele><time>2026-04-11T13:44:02Z</time></trkpt><trkpt lat="45.35479171047598" lon="11.768424683922085"><ele>10.0</ele><time>2026-04-11T13:44:03Z</time></trkpt><trkpt lat="45.35477263395255" lon="11.768299355288864"><ele>10.0</ele><time>2026-04-11T13:44:04Z</time></trkpt><trkpt lat="45.35475336540857" lon="11.76819339971076"><ele>10.0</ele><time>2026-04-11T13:44:05Z</time></trkpt><trkpt lat="45.35474711902135" lon="11.768103595199593"><ele>10.0</ele><time>2026-04-11T13:44:06Z</time></trkpt><trkpt lat="45.35473370992216" lon="11.767951110703514"><ele>10.0</ele><time>2026-04-11T13:44:08Z</time></trkpt><trkpt lat="45.35470896651082" lon="11.767784583134764"><ele>10.0</ele><time>2026-04-11T13:44:10Z</time></trkpt><trkpt lat="45.354691961201006" lon="11.76768170235806"><ele>10.0</ele><time>2026-04-11T13:44:11Z</time></trkpt><trkpt lat="45.35467300909344" lon="11.767565710661968"><ele>10.0</ele><time>2026-04-11T13:44:12Z</time></trkpt><trkpt lat="45.354654541865465" lon="11.76744800081"><ele>10.0</ele><time>2026-04-11T13:44:13Z</time></trkpt><trkpt lat="45.35464173830788" lon="11.767330336562567"><ele>10.0</ele><time>2026-04-11T13:44:14Z</time></trkpt><trkpt lat="45.354618250513056" lon="11.7671951362197"><ele>10.0</ele><time>2026-04-11T13:44:15Z</time></trkpt><trkpt lat="45.35459396068326" lon="11.767048075661084"><ele>10.0</ele><time>2026-04-11T13:44:16Z</time></trkpt><trkpt lat="45.354567921352945" lon="11.76689288032497"><ele>10.0</ele><time>2026-04-11T13:44:17Z</time></trkpt><trkpt lat="45.35455397826933" lon="11.766720173477"><ele>10.0</ele><time>2026-04-11T13:44:18Z</time></trkpt><trkpt lat="45.35452896168323" lon="11.766576544278141"><ele>10.0</ele><time>2026-04-11T13:44:19Z</time></trkpt><trkpt lat="45.35450437936577" lon="11.766432469695665"><ele>10.0</ele><time>2026-04-11T13:44:20Z</time></trkpt><trkpt lat="45.35448417679393" lon="11.76628567504712"><ele>10.0</ele><time>2026-04-11T13:44:21Z</time></trkpt><trkpt lat="45.35446533012087" lon="11.766139364319244"><ele>10.0</ele><time>2026-04-11T13:44:22Z</time></trkpt><trkpt lat="45.354446636294064" lon="11.765986455109852"><ele>10.0</ele><time>2026-04-11T13:44:23Z</time></trkpt><trkpt lat="45.354422674787486" lon="11.76581869548714"><ele>10.0</ele><time>2026-04-11T13:44:24Z</time></trkpt><trkpt lat="45.35439931648288" lon="11.765645633335932"><ele>10.0</ele><time>2026-04-11T13:44:25Z</time></trkpt><trkpt lat="45.35437386264985" lon="11.76548971413823"><ele>10.0</ele><time>2026-04-11T13:44:26Z</time></trkpt><trkpt lat="45.35434797173148" lon="11.765326520819197"><ele>10.25</ele><time>2026-04-11T13:44:27Z</time></trkpt><trkpt lat="45.35432607288655" lon="11.765168659482493"><ele>10.5</ele><time>2026-04-11T13:44:28Z</time></trkpt><trkpt lat="45.35422263068778" lon="11.765035209534553"><ele>10.75</ele><time>2026-04-11T13:44:29Z</time></trkpt><trkpt lat="45.35428092352766" lon="11.764864147880337"><ele>11.0</ele><time>2026-04-11T13:44:30Z</time></trkpt><trkpt lat="45.354261410312866" lon="11.764730623231756"><ele>11.0</ele><time>2026-04-11T13:44:31Z</time></trkpt><trkpt lat="45.3542429876134" lon="11.764614179275005"><ele>11.0</ele><time>2026-04-11T13:44:32Z</time></trkpt><trkpt lat="45.3542223168438" lon="11.764457247261921"><ele>11.0</ele><time>2026-04-11T13:44:34Z</time></trkpt><trkpt lat="45.354201618286965" lon="11.764285384680571"><ele>11.0</ele><time>2026-04-11T13:44:36Z</time></trkpt><trkpt lat="45.354204726860424" lon="11.764167211982377"><ele>11.0</ele><time>2026-04-11T13:44:37Z</time></trkpt><trkpt lat="45.35419548156503" lon="11.76403991266166"><ele>10.8</ele><time>2026-04-11T13:44:38Z</time></trkpt><trkpt lat="45.35419314583556" lon="11.763902902592157"><ele>10.600000000000001</ele><time>2026-04-11T13:44:39Z</time></trkpt><trkpt lat="45.354199943710285" lon="11.76375615405929"><ele>10.4</ele><time>2026-04-11T13:44:40Z</time></trkpt><trkpt lat="45.35420999610716" lon="11.763600201789615"><ele>10.2</ele><time>2026-04-11T13:44:41Z</time></trkpt><trkpt lat="45.35421873446838" lon="11.763464640878043"><ele>10.0</ele><time>2026-04-11T13:44:42Z</time></trkpt><trkpt lat="45.35422840964582" lon="11.763326372053621"><ele>10.0</ele><time>2026-04-11T13:44:43Z</time></trkpt><trkpt lat="45.35423773837158" lon="11.763189190432316"><ele>10.0</ele><time>2026-04-11T13:44:44Z</time></trkpt><trkpt lat="45.35424761033442" lon="11.763044021129106"><ele>10.0</ele><time>2026-04-11T13:44:45Z</time></trkpt><trkpt lat="45.35424682897778" lon="11.762884500247653"><ele>10.0</ele><time>2026-04-11T13:44:46Z</time></trkpt><trkpt lat="45.35426081746029" lon="11.762719861310615"><ele>10.0</ele><time>2026-04-11T13:44:47Z</time></trkpt><trkpt lat="45.35426637657782" lon="11.76254830574878"><ele>10.0</ele><time>2026-04-11T13:44:48Z</time></trkpt><trkpt lat="45.35427798760418" lon="11.762374769552276"><ele>10.0</ele><time>2026-04-11T13:44:49Z</time></trkpt><trkpt lat="45.3542902390275" lon="11.762202036012871"><ele>10.0</ele><time>2026-04-11T13:44:50Z</time></trkpt><trkpt lat="45.35429875358513" lon="11.76202357144583"><ele>10.0</ele><time>2026-04-11T13:44:51Z</time></trkpt><trkpt lat="45.3543240768228" lon="11.761838364875944"><ele>10.5</ele><time>2026-04-11T13:44:52Z</time></trkpt><trkpt lat="45.35431839980776" lon="11.76165167218113"><ele>11.0</ele><time>2026-04-11T13:44:53Z</time></trkpt><trkpt lat="45.354321783261604" lon="11.761475317113346"><ele>11.5</ele><time>2026-04-11T13:44:54Z</time></trkpt><trkpt lat="45.35431298255402" lon="11.76130480133532"><ele>12.0</ele><time>2026-04-11T13:44:55Z</time></trkpt><trkpt lat="45.3542956563726" lon="11.761142200939537"><ele>12.399999999999999</ele><time>2026-04-11T13:44:56Z</time></trkpt><trkpt lat="45.35426627274111" lon="11.760983988161833"><ele>12.799999999999999</ele><time>2026-04-11T13:44:57Z</time></trkpt><trkpt lat="45.35423746209837" lon="11.760838301861888"><ele>13.2</ele><time>2026-04-11T13:44:58Z</time></trkpt><trkpt lat="45.35420566456186" lon="11.76070084414011"><ele>13.6</ele><time>2026-04-11T13:44:59Z</time></trkpt><trkpt lat="45.35417203286205" lon="11.760582504996151"><ele>14.0</ele><time>2026-04-11T13:45:00Z</time></trkpt><trkpt lat="45.35413392859666" lon="11.760466307577168"><ele>14.0</ele><time>2026-04-11T13:45:01Z</time></trkpt><trkpt lat="45.35409387707868" lon="11.760338817094015"><ele>13.999999999999998</ele><time>2026-04-11T13:45:02Z</time></trkpt><trkpt lat="45.354052584321586" lon="11.760202989510297"><ele>13.999999999999998</ele><time>2026-04-11T13:45:03Z</time></trkpt><trkpt lat="45.354000162127214" lon="11.760069239371953"><ele>14.0</ele><time>2026-04-11T13:45:04Z</time></trkpt><trkpt lat="45.35393515177467" lon="11.759938011865302"><ele>14.0</ele><time>2026-04-11T13:45:05Z</time></trkpt><trkpt lat="45.35385854201542" lon="11.759812307255615"><ele>13.5</ele><time>2026-04-11T13:45:06Z</time></trkpt><trkpt lat="45.35377656528058" lon="11.759686419246764"><ele>13.0</ele><time>2026-04-11T13:45:07Z</time></trkpt><trkpt lat="45.35368495998701" lon="11.759575589884507"><ele>12.5</ele><time>2026-04-11T13:45:08Z</time></trkpt><trkpt lat="45.35359246650817" lon="11.759477938526764"><ele>12.0</ele><time>2026-04-11T13:45:09Z</time></trkpt><trkpt lat="45.353505591159305" lon="11.759393483292392"><ele>12.8</ele><time>2026-04-11T13:45:10Z</time></trkpt><trkpt lat="45.35342051357169" lon="11.759319138756355"><ele>13.6</ele><time>2026-04-11T13:45:11Z</time></trkpt><trkpt lat="45.35334117353984" lon="11.759258422588768"><ele>14.400000000000002</ele><time>2026-04-11T13:45:12Z</time></trkpt><trkpt lat="45.35325182430813" lon="11.759213954169686"><ele>15.200000000000001</ele><time>2026-04-11T13:45:13Z</time></trkpt><trkpt lat="45.35314990058566" lon="11.759175072579431"><ele>16.0</ele><time>2026-04-11T13:45:14Z</time></trkpt><trkpt lat="45.353040173331095" lon="11.759158835042829"><ele>15.200000000000001</ele><time>2026-04-11T13:45:15Z</time></trkpt><trkpt lat="45.352930480631045" lon="11.759151118762905"><ele>14.400000000000002</ele><time>2026-04-11T13:45:16Z</time></trkpt><trkpt lat="45.352821908310595" lon="11.759142808162435"><ele>13.6</ele><time>2026-04-11T13:45:17Z</time></trkpt><trkpt lat="45.35271882873838" lon="11.759135041734048"><ele>12.8</ele><time>2026-04-11T13:45:18Z</time></trkpt><trkpt lat="45.352615626260906" lon="11.759123227962101"><ele>12.0</ele><time>2026-04-11T13:45:19Z</time></trkpt><trkpt lat="45.35250151131217" lon="11.759106218085073"><ele>12.0</ele><time>2026-04-11T13:45:20Z</time></trkpt><trkpt lat="45.35238007004537" lon="11.75906295494179"><ele>12.0</ele><time>2026-04-11T13:45:21Z</time></trkpt><trkpt lat="45.352253640110966" lon="11.758997891449578"><ele>12.0</ele><time>2026-04-11T13:45:22Z</time></trkpt><trkpt lat="45.35212298438173" lon="11.758913488907378"><ele>12.0</ele><time>2026-04-11T13:45:23Z</time></trkpt><trkpt lat="45.351984187264364" lon="11.758823991859934"><ele>11.666666666666666</ele><time>2026-04-11T13:45:24Z</time></trkpt><trkpt lat="45.351839559376096" lon="11.758726295504895"><ele>11.333333333333332</ele><time>2026-04-11T13:45:25Z</time></trkpt><trkpt lat="45.35168841691585" lon="11.758631214314658"><ele>11.0</ele><time>2026-04-11T13:45:26Z</time></trkpt><trkpt lat="45.35152792172112" lon="11.758534539112835"><ele>11.0</ele><time>2026-04-11T13:45:27Z</time></trkpt><trkpt lat="45.351376877192465" lon="11.758469367274992"><ele>11.0</ele><time>2026-04-11T13:45:28Z</time></trkpt><trkpt lat="45.35123052839325" lon="11.758419513938804"><ele>11.0</ele><time>2026-04-11T13:45:29Z</time></trkpt><trkpt lat="45.351093642480095" lon="11.758394652157968"><ele>11.0</ele><time>2026-04-11T13:45:30Z</time></trkpt><trkpt lat="45.35095896151515" lon="11.758380241026037"><ele>11.25</ele><time>2026-04-11T13:45:31Z</time></trkpt><trkpt lat="45.3508351385147" lon="11.758363229642653"><ele>11.5</ele><time>2026-04-11T13:45:32Z</time></trkpt><trkpt lat="45.35072192167287" lon="11.758326395540829"><ele>11.75</ele><time>2026-04-11T13:45:33Z</time></trkpt><trkpt lat="45.35061495727234" lon="11.758264611627034"><ele>12.0</ele><time>2026-04-11T13:45:34Z</time></trkpt><trkpt lat="45.35052175718744" lon="11.758146588065191"><ele>11.5</ele><time>2026-04-11T13:45:35Z</time></trkpt><trkpt lat="45.350418215356044" lon="11.758041690796109"><ele>11.0</ele><time>2026-04-11T13:45:36Z</time></trkpt><trkpt lat="45.350344632542665" lon="11.757887313387045"><ele>10.5</ele><time>2026-04-11T13:45:37Z</time></trkpt><trkpt lat="45.350284975629044" lon="11.757713561133627"><ele>10.0</ele><time>2026-04-11T13:45:38Z</time></trkpt><trkpt lat="45.35026404884828" lon="11.757518500379371"><ele>9.75</ele><time>2026-04-11T13:45:39Z</time></trkpt><trkpt lat="45.35025549961589" lon="11.757315651167202"><ele>9.5</ele><time>2026-04-11T13:45:40Z</time></trkpt><trkpt lat="45.35022511712968" lon="11.757108209619073"><ele>9.25</ele><time>2026-04-11T13:45:41Z</time></trkpt><trkpt lat="45.350221558386735" lon="11.756885540602404"><ele>9.0</ele><time>2026-04-11T13:45:42Z</time></trkpt><trkpt lat="45.35021365033722" lon="11.756661142552604"><ele>8.75</ele><time>2026-04-11T13:45:43Z</time></trkpt><trkpt lat="45.35020222277305" lon="11.756442042661408"><ele>8.5</ele><time>2026-04-11T13:45:44Z</time></trkpt><trkpt lat="45.35019476731956" lon="11.756234224362906"><ele>8.25</ele><time>2026-04-11T13:45:45Z</time></trkpt><trkpt lat="45.35018890647851" lon="11.75602460973641"><ele>8.0</ele><time>2026-04-11T13:45:46Z</time></trkpt><trkpt lat="45.35017643217142" lon="11.75580571468299"><ele>9.0</ele><time>2026-04-11T13:45:47Z</time></trkpt><trkpt lat="45.35017933447716" lon="11.755566719738551"><ele>10.0</ele><time>2026-04-11T13:45:48Z</time></trkpt><trkpt lat="45.35015646359023" lon="11.755318493458567"><ele>11.0</ele><time>2026-04-11T13:45:49Z</time></trkpt><trkpt lat="45.350151109471305" lon="11.755078388280323"><ele>11.666666666666666</ele><time>2026-04-11T13:45:50Z</time></trkpt><trkpt lat="45.35014352884259" lon="11.75481595197365"><ele>12.333333333333332</ele><time>2026-04-11T13:45:51Z</time></trkpt><trkpt lat="45.350133052755254" lon="11.75455142302451"><ele>13.0</ele><time>2026-04-11T13:45:52Z</time></trkpt><trkpt lat="45.35012505328366" lon="11.754286338124258"><ele>13.0</ele><time>2026-04-11T13:45:53Z</time></trkpt><trkpt lat="45.35011204747004" lon="11.75402173085754"><ele>13.0</ele><time>2026-04-11T13:45:54Z</time></trkpt><trkpt lat="45.35010284420369" lon="11.753753772264403"><ele>13.0</ele><time>2026-04-11T13:45:55Z</time></trkpt><trkpt lat="45.350100334507545" lon="11.753499244882045"><ele>12.666666666666666</ele><time>2026-04-11T13:45:56Z</time></trkpt><trkpt lat="45.35012101758063" lon="11.75324977806132"><ele>12.333333333333332</ele><time>2026-04-11T13:45:57Z</time></trkpt><trkpt lat="45.350138838413706" lon="11.75300191185919"><ele>12.0</ele><time>2026-04-11T13:45:58Z</time></trkpt><trkpt lat="45.350160250429695" lon="11.752751017450137"><ele>12.0</ele><time>2026-04-11T13:45:59Z</time></trkpt><trkpt lat="45.35018212299234" lon="11.75249834926945"><ele>12.0</ele><time>2026-04-11T13:46:00Z</time></trkpt><trkpt lat="45.350190714209525" lon="11.752249146806323"><ele>12.0</ele><time>2026-04-11T13:46:01Z</time></trkpt><trkpt lat="45.35022351715735" lon="11.751998332840978"><ele>12.0</ele><time>2026-04-11T13:46:02Z</time></trkpt><trkpt lat="45.350259411585455" lon="11.751758295605947"><ele>12.0</ele><time>2026-04-11T13:46:03Z</time></trkpt><trkpt lat="45.350296277131825" lon="11.751520652477451"><ele>12.0</ele><time>2026-04-11T13:46:04Z</time></trkpt><trkpt lat="45.350332373534904" lon="11.751291581379325"><ele>12.0</ele><time>2026-04-11T13:46:05Z</time></trkpt><trkpt lat="45.35037303662511" lon="11.751059897881353"><ele>12.0</ele><time>2026-04-11T13:46:06Z</time></trkpt><trkpt lat="45.35041534872305" lon="11.750837971168004"><ele>12.0</ele><time>2026-04-11T13:46:07Z</time></trkpt><trkpt lat="45.35046343354821" lon="11.750614953889055"><ele>11.75</ele><time>2026-04-11T13:46:08Z</time></trkpt><trkpt lat="45.35051349431441" lon="11.750412365797676"><ele>11.5</ele><time>2026-04-11T13:46:09Z</time></trkpt><trkpt lat="45.35057822439182" lon="11.750234397389168"><ele>11.25</ele><time>2026-04-11T13:46:10Z</time></trkpt><trkpt lat="45.35065564501415" lon="11.750066846876415"><ele>11.0</ele><time>2026-04-11T13:46:11Z</time></trkpt><trkpt lat="45.350739223088794" lon="11.749908763883301"><ele>11.25</ele><time>2026-04-11T13:46:12Z</time></trkpt><trkpt lat="45.35081713594937" lon="11.749758917304597"><ele>11.5</ele><time>2026-04-11T13:46:13Z</time></trkpt><trkpt lat="45.350891117669825" lon="11.74960438026983"><ele>11.75</ele><time>2026-04-11T13:46:14Z</time></trkpt><trkpt lat="45.350967633102684" lon="11.749432411650368"><ele>12.0</ele><time>2026-04-11T13:46:15Z</time></trkpt><trkpt lat="45.351046164076855" lon="11.749254907729105"><ele>12.0</ele><time>2026-04-11T13:46:16Z</time></trkpt><trkpt lat="45.35115003810838" lon="11.749090976084462"><ele>12.0</ele><time>2026-04-11T13:46:17Z</time></trkpt><trkpt lat="45.35123170728392" lon="11.748899902070711"><ele>12.0</ele><time>2026-04-11T13:46:18Z</time></trkpt><trkpt lat="45.3513313640944" lon="11.74871922531933"><ele>13.0</ele><time>2026-04-11T13:46:19Z</time></trkpt><trkpt lat="45.35143037266671" lon="11.748546720360233"><ele>14.0</ele><time>2026-04-11T13:46:20Z</time></trkpt><trkpt lat="45.3515302897724" lon="11.748377593053242"><ele>15.0</ele><time>2026-04-11T13:46:21Z</time></trkpt><trkpt lat="45.351631309912044" lon="11.748236794934456"><ele>15.0</ele><time>2026-04-11T13:46:22Z</time></trkpt><trkpt lat="45.35171694466817" lon="11.748096754628866"><ele>15.0</ele><time>2026-04-11T13:46:23Z</time></trkpt><trkpt lat="45.35180216109841" lon="11.747963415592409"><ele>15.0</ele><time>2026-04-11T13:46:24Z</time></trkpt><trkpt lat="45.35188751045227" lon="11.747842659091047"><ele>15.0</ele><time>2026-04-11T13:46:25Z</time></trkpt><trkpt lat="45.35198146499001" lon="11.747751093636852"><ele>15.0</ele><time>2026-04-11T13:46:26Z</time></trkpt><trkpt lat="45.35208761139498" lon="11.747689251614732"><ele>15.0</ele><time>2026-04-11T13:46:27Z</time></trkpt><trkpt lat="45.35219654806924" lon="11.74762310512441"><ele>15.0</ele><time>2026-04-11T13:46:28Z</time></trkpt><trkpt lat="45.3523084996343" lon="11.747598866658205"><ele>15.0</ele><time>2026-04-11T13:46:29Z</time></trkpt><trkpt lat="45.3524126957414" lon="11.74757245318489"><ele>15.0</ele><time>2026-04-11T13:46:30Z</time></trkpt><trkpt lat="45.352519018306346" lon="11.747544344597951"><ele>15.0</ele><time>2026-04-11T13:46:31Z</time></trkpt><trkpt lat="45.35263126203658" lon="11.74751045257418"><ele>15.0</ele><time>2026-04-11T13:46:32Z</time></trkpt><trkpt lat="45.3527367055906" lon="11.747472010769725"><ele>15.0</ele><time>2026-04-11T13:46:33Z</time></trkpt><trkpt lat="45.352836560578744" lon="11.747424560910943"><ele>15.0</ele><time>2026-04-11T13:46:34Z</time></trkpt><trkpt lat="45.35292824982319" lon="11.747368907758696"><ele>15.0</ele><time>2026-04-11T13:46:35Z</time></trkpt><trkpt lat="45.35300369783688" lon="11.747292164949277"><ele>15.0</ele><time>2026-04-11T13:46:36Z</time></trkpt><trkpt lat="45.35307365039518" lon="11.74722519425796"><ele>15.0</ele><time>2026-04-11T13:46:37Z</time></trkpt><trkpt lat="45.353096879939194" lon="11.747105585240476"><ele>15.0</ele><time>2026-04-11T13:46:38Z</time></trkpt><trkpt lat="45.35310228515947" lon="11.746983434039688"><ele>15.0</ele><time>2026-04-11T13:46:39Z</time></trkpt><trkpt lat="45.35312032364741" lon="11.746834419790225"><ele>13.333333333333334</ele><time>2026-04-11T13:46:40Z</time></trkpt><trkpt lat="45.35311560900661" lon="11.746630219518815"><ele>11.666666666666668</ele><time>2026-04-11T13:46:41Z</time></trkpt><trkpt lat="45.35310282872463" lon="11.746399720622529"><ele>10.0</ele><time>2026-04-11T13:46:42Z</time></trkpt><trkpt lat="45.353071860041226" lon="11.746149565961298"><ele>10.333333333333334</ele><time>2026-04-11T13:46:43Z</time></trkpt><trkpt lat="45.353061949678555" lon="11.745898920195156"><ele>10.666666666666666</ele><time>2026-04-11T13:46:44Z</time></trkpt><trkpt lat="45.35307738498358" lon="11.745656298356405"><ele>11.0</ele><time>2026-04-11T13:46:45Z</time></trkpt><trkpt lat="45.353088329552065" lon="11.745402429938544"><ele>11.0</ele><time>2026-04-11T13:46:46Z</time></trkpt><trkpt lat="45.35310587946204" lon="11.745147885877635"><ele>11.0</ele><time>2026-04-11T13:46:47Z</time></trkpt><trkpt lat="45.35312151579368" lon="11.74489065586212"><ele>11.0</ele><time>2026-04-11T13:46:48Z</time></trkpt><trkpt lat="45.35315626911766" lon="11.744655293598207"><ele>11.0</ele><time>2026-04-11T13:46:49Z</time></trkpt><trkpt lat="45.35318894855119" lon="11.744407581337201"><ele>11.0</ele><time>2026-04-11T13:46:50Z</time></trkpt><trkpt lat="45.35322020833202" lon="11.744153858148048"><ele>11.0</ele><time>2026-04-11T13:46:51Z</time></trkpt><trkpt lat="45.35326912437368" lon="11.7439141283015"><ele>11.333333333333332</ele><time>2026-04-11T13:46:52Z</time></trkpt><trkpt lat="45.35330192486939" lon="11.743674336239893"><ele>11.666666666666666</ele><time>2026-04-11T13:46:53Z</time></trkpt><trkpt lat="45.3533194643031" lon="11.743423967321196"><ele>12.0</ele><time>2026-04-11T13:46:54Z</time></trkpt><trkpt lat="45.35335217256366" lon="11.743199525677976"><ele>12.0</ele><time>2026-04-11T13:46:55Z</time></trkpt><trkpt lat="45.35337982400163" lon="11.742992759570397"><ele>12.0</ele><time>2026-04-11T13:46:56Z</time></trkpt><trkpt lat="45.35340849459252" lon="11.742774516737091"><ele>12.0</ele><time>2026-04-11T13:46:57Z</time></trkpt><trkpt lat="45.35342808988865" lon="11.7425510072416"><ele>12.0</ele><time>2026-04-11T13:46:58Z</time></trkpt><trkpt lat="45.35343215560483" lon="11.742321428437428"><ele>12.0</ele><time>2026-04-11T13:46:59Z</time></trkpt><trkpt lat="45.353418796175674" lon="11.742091790077854"><ele>12.0</ele><time>2026-04-11T13:47:00Z</time></trkpt><trkpt lat="45.353393138947055" lon="11.74186241636132"><ele>12.0</ele><time>2026-04-11T13:47:01Z</time></trkpt><trkpt lat="45.353360075390874" lon="11.74162948591349"><ele>12.0</ele><time>2026-04-11T13:47:02Z</time></trkpt><trkpt lat="45.35332448705519" lon="11.741395412166126"><ele>12.0</ele><time>2026-04-11T13:47:03Z</time></trkpt><trkpt lat="45.353287641462614" lon="11.741168926496027"><ele>12.25</ele><time>2026-04-11T13:47:04Z</time></trkpt><trkpt lat="45.353252730342874" lon="11.740946394536524"><ele>12.5</ele><time>2026-04-11T13:47:05Z</time></trkpt><trkpt lat="45.35322558041817" lon="11.74074888064341"><ele>12.75</ele><time>2026-04-11T13:47:06Z</time></trkpt><trkpt lat="45.35320080271277" lon="11.740570390585129"><ele>13.0</ele><time>2026-04-11T13:47:07Z</time></trkpt><trkpt lat="45.35318090406071" lon="11.740408389231794"><ele>13.0</ele><time>2026-04-11T13:47:08Z</time></trkpt><trkpt lat="45.353173408609294" lon="11.740248536109174"><ele>13.0</ele><time>2026-04-11T13:47:09Z</time></trkpt><trkpt lat="45.35317336354803" lon="11.740073336244919"><ele>13.0</ele><time>2026-04-11T13:47:10Z</time></trkpt><trkpt lat="45.35319475637301" lon="11.739896945211472"><ele>13.0</ele><time>2026-04-11T13:47:11Z</time></trkpt><trkpt lat="45.35322460786413" lon="11.739710947465374"><ele>13.25</ele><time>2026-04-11T13:47:12Z</time></trkpt><trkpt lat="45.353255560166524" lon="11.739512486752837"><ele>13.5</ele><time>2026-04-11T13:47:13Z</time></trkpt><trkpt lat="45.353274178782016" lon="11.7393147572673"><ele>13.75</ele><time>2026-04-11T13:47:14Z</time></trkpt><trkpt lat="45.35327125798692" lon="11.739111994584112"><ele>14.0</ele><time>2026-04-11T13:47:15Z</time></trkpt><trkpt lat="45.353246407405294" lon="11.738904525997414"><ele>14.5</ele><time>2026-04-11T13:47:16Z</time></trkpt><trkpt lat="45.353207103208916" lon="11.738702922716405"><ele>15.0</ele><time>2026-04-11T13:47:17Z</time></trkpt><trkpt lat="45.35319711411294" lon="11.738486538838131"><ele>15.5</ele><time>2026-04-11T13:47:18Z</time></trkpt><trkpt lat="45.35317589247642" lon="11.738279266738104"><ele>16.0</ele><time>2026-04-11T13:47:19Z</time></trkpt><trkpt lat="45.3531426953212" lon="11.73806599232467"><ele>16.333333333333332</ele><time>2026-04-11T13:47:20Z</time></trkpt><trkpt lat="45.35314745303663" lon="11.737844583232404"><ele>16.666666666666668</ele><time>2026-04-11T13:47:21Z</time></trkpt><trkpt lat="45.35312697040093" lon="11.73763157896896"><ele>17.0</ele><time>2026-04-11T13:47:22Z</time></trkpt><trkpt lat="45.353122512897876" lon="11.737424228054142"><ele>17.0</ele><time>2026-04-11T13:47:23Z</time></trkpt><trkpt lat="45.353112131265235" lon="11.737222216331647"><ele>17.0</ele><time>2026-04-11T13:47:24Z</time></trkpt><trkpt lat="45.35309082746651" lon="11.73702071695648"><ele>17.0</ele><time>2026-04-11T13:47:25Z</time></trkpt><trkpt lat="45.353063739987704" lon="11.73682320440405"><ele>17.0</ele><time>2026-04-11T13:47:26Z</time></trkpt><trkpt lat="45.35302449091097" lon="11.736650645533222"><ele>16.25</ele><time>2026-04-11T13:47:27Z</time></trkpt><trkpt lat="45.35297324104464" lon="11.736485066237499"><ele>15.5</ele><time>2026-04-11T13:47:28Z</time></trkpt><trkpt lat="45.35291220866554" lon="11.736346662985252"><ele>14.75</ele><time>2026-04-11T13:47:29Z</time></trkpt><trkpt lat="45.35284258062008" lon="11.736225880019377"><ele>14.0</ele><time>2026-04-11T13:47:30Z</time></trkpt><trkpt lat="45.35276084611032" lon="11.73612754327493"><ele>14.0</ele><time>2026-04-11T13:47:31Z</time></trkpt><trkpt lat="45.35266733857087" lon="11.736061966975265"><ele>14.0</ele><time>2026-04-11T13:47:32Z</time></trkpt><trkpt lat="45.35256002930962" lon="11.736024086075904"><ele>14.0</ele><time>2026-04-11T13:47:33Z</time></trkpt><trkpt lat="45.352448335849594" lon="11.735990515060468"><ele>14.0</ele><time>2026-04-11T13:47:34Z</time></trkpt><trkpt lat="45.35233177036607" lon="11.735946011965208"><ele>14.25</ele><time>2026-04-11T13:47:35Z</time></trkpt><trkpt lat="45.35221039642685" lon="11.735886555165337"><ele>14.5</ele><time>2026-04-11T13:47:36Z</time></trkpt><trkpt lat="45.35208724506005" lon="11.735820745386219"><ele>14.75</ele><time>2026-04-11T13:47:37Z</time></trkpt><trkpt lat="45.351959474306796" lon="11.735769482868816"><ele>15.0</ele><time>2026-04-11T13:47:38Z</time></trkpt><trkpt lat="45.3518276065634" lon="11.735742333477871"><ele>15.0</ele><time>2026-04-11T13:47:39Z</time></trkpt><trkpt lat="45.35169153924541" lon="11.735748632435033"><ele>15.0</ele><time>2026-04-11T13:47:40Z</time></trkpt><trkpt lat="45.351547641996646" lon="11.735756356547283"><ele>15.0</ele><time>2026-04-11T13:47:41Z</time></trkpt><trkpt lat="45.351400863336316" lon="11.735762698093069"><ele>15.0</ele><time>2026-04-11T13:47:42Z</time></trkpt><trkpt lat="45.351244764897565" lon="11.735764249750375"><ele>15.0</ele><time>2026-04-11T13:47:43Z</time></trkpt><trkpt lat="45.35108278163352" lon="11.735760843995878"><ele>15.0</ele><time>2026-04-11T13:47:44Z</time></trkpt><trkpt lat="45.350911451842656" lon="11.735750970860673"><ele>15.0</ele><time>2026-04-11T13:47:45Z</time></trkpt><trkpt lat="45.35075337952694" lon="11.735750030611221"><ele>15.0</ele><time>2026-04-11T13:47:46Z</time></trkpt><trkpt lat="45.35059008625005" lon="11.73574081129694"><ele>15.0</ele><time>2026-04-11T13:47:47Z</time></trkpt><trkpt lat="45.35042600976937" lon="11.735735983433607"><ele>15.0</ele><time>2026-04-11T13:47:48Z</time></trkpt><trkpt lat="45.35026053645015" lon="11.73572861729072"><ele>15.333333333333332</ele><time>2026-04-11T13:47:49Z</time></trkpt><trkpt lat="45.35009400563927" lon="11.735715140639398"><ele>15.666666666666666</ele><time>2026-04-11T13:47:50Z</time></trkpt><trkpt lat="45.34993135856211" lon="11.735721292215421"><ele>16.0</ele><time>2026-04-11T13:47:51Z</time></trkpt><trkpt lat="45.34977724452754" lon="11.735756022440192"><ele>16.666666666666664</ele><time>2026-04-11T13:47:52Z</time></trkpt><trkpt lat="45.34962787149658" lon="11.735821404104692"><ele>17.333333333333332</ele><time>2026-04-11T13:47:53Z</time></trkpt><trkpt lat="45.34948332246664" lon="11.73591691110759"><ele>18.0</ele><time>2026-04-11T13:47:54Z</time></trkpt><trkpt lat="45.34934486975869" lon="11.736033590681938"><ele>16.333333333333332</ele><time>2026-04-11T13:47:55Z</time></trkpt><trkpt lat="45.34920897283853" lon="11.736171586256331"><ele>14.666666666666666</ele><time>2026-04-11T13:47:56Z</time></trkpt><trkpt lat="45.34907704175126" lon="11.736325150037354"><ele>13.0</ele><time>2026-04-11T13:47:57Z</time></trkpt><trkpt lat="45.34895054852985" lon="11.736485250875566"><ele>13.0</ele><time>2026-04-11T13:47:58Z</time></trkpt><trkpt lat="45.348817645411586" lon="11.736652961820118"><ele>13.0</ele><time>2026-04-11T13:47:59Z</time></trkpt><trkpt lat="45.3486834556915" lon="11.736817128771014"><ele>13.0</ele><time>2026-04-11T13:48:00Z</time></trkpt><trkpt lat="45.34853379754148" lon="11.736982445843466"><ele>13.0</ele><time>2026-04-11T13:48:01Z</time></trkpt><trkpt lat="45.34838976273405" lon="11.737147614814239"><ele>13.0</ele><time>2026-04-11T13:48:02Z</time></trkpt><trkpt lat="45.34824464606175" lon="11.737307303923554"><ele>13.0</ele><time>2026-04-11T13:48:03Z</time></trkpt><trkpt lat="45.348107096878515" lon="11.737466941130327"><ele>12.666666666666666</ele><time>2026-04-11T13:48:04Z</time></trkpt><trkpt lat="45.3479605849534" lon="11.737617804396105"><ele>12.333333333333332</ele><time>2026-04-11T13:48:05Z</time></trkpt><trkpt lat="45.34781666673909" lon="11.73776070840064"><ele>12.0</ele><time>2026-04-11T13:48:06Z</time></trkpt><trkpt lat="45.34766744427235" lon="11.737890775783535"><ele>12.0</ele><time>2026-04-11T13:48:07Z</time></trkpt><trkpt lat="45.34750917753429" lon="11.738012387467727"><ele>12.0</ele><time>2026-04-11T13:48:08Z</time></trkpt><trkpt lat="45.347355849057216" lon="11.738125532907574"><ele>12.0</ele><time>2026-04-11T13:48:09Z</time></trkpt><trkpt lat="45.347198293341066" lon="11.7382250480655"><ele>16.666666666666664</ele><time>2026-04-11T13:48:10Z</time></trkpt><trkpt lat="45.34703552599147" lon="11.738320140754183"><ele>21.333333333333332</ele><time>2026-04-11T13:48:11Z</time></trkpt><trkpt lat="45.34686673397745" lon="11.738409172136333"><ele>26.0</ele><time>2026-04-11T13:48:12Z</time></trkpt><trkpt lat="45.34669948777502" lon="11.738492310927212"><ele>21.333333333333332</ele><time>2026-04-11T13:48:13Z</time></trkpt><trkpt lat="45.34653766967963" lon="11.738576440453935"><ele>16.666666666666664</ele><time>2026-04-11T13:48:14Z</time></trkpt><trkpt lat="45.346386252116936" lon="11.738648168940468"><ele>12.0</ele><time>2026-04-11T13:48:15Z</time></trkpt><trkpt lat="45.34625702168464" lon="11.738715085841172"><ele>11.75</ele><time>2026-04-11T13:48:16Z</time></trkpt><trkpt lat="45.346122304047604" lon="11.738766781070916"><ele>11.5</ele><time>2026-04-11T13:48:17Z</time></trkpt><trkpt lat="45.34598739788058" lon="11.738806791098677"><ele>11.25</ele><time>2026-04-11T13:48:18Z</time></trkpt><trkpt lat="45.34585018162117" lon="11.738814873545858"><ele>11.0</ele><time>2026-04-11T13:48:19Z</time></trkpt><trkpt lat="45.34571683951845" lon="11.738799408697135"><ele>11.0</ele><time>2026-04-11T13:48:20Z</time></trkpt><trkpt lat="45.34558372100356" lon="11.738764577281385"><ele>11.0</ele><time>2026-04-11T13:48:21Z</time></trkpt><trkpt lat="45.34544549184575" lon="11.738711596008924"><ele>11.0</ele><time>2026-04-11T13:48:22Z</time></trkpt><trkpt lat="45.34530060368302" lon="11.738657023274218"><ele>11.0</ele><time>2026-04-11T13:48:23Z</time></trkpt><trkpt lat="45.345155447403634" lon="11.73859515481922"><ele>11.333333333333332</ele><time>2026-04-11T13:48:24Z</time></trkpt><trkpt lat="45.34500398395826" lon="11.738542258450007"><ele>11.666666666666666</ele><time>2026-04-11T13:48:25Z</time></trkpt><trkpt lat="45.34485084074864" lon="11.73848581760614"><ele>12.0</ele><time>2026-04-11T13:48:26Z</time></trkpt><trkpt lat="45.344691249572065" lon="11.738424413411629"><ele>12.0</ele><time>2026-04-11T13:48:27Z</time></trkpt><trkpt lat="45.344527757554275" lon="11.73836052213283"><ele>12.0</ele><time>2026-04-11T13:48:28Z</time></trkpt><trkpt lat="45.3443591995229" lon="11.738294760993702"><ele>12.0</ele><time>2026-04-11T13:48:29Z</time></trkpt><trkpt lat="45.34418779628463" lon="11.738230016226401"><ele>12.0</ele><time>2026-04-11T13:48:30Z</time></trkpt><trkpt lat="45.34401725796653" lon="11.738167652458444"><ele>12.0</ele><time>2026-04-11T13:48:31Z</time></trkpt><trkpt lat="45.343856949272364" lon="11.7381058196468"><ele>12.0</ele><time>2026-04-11T13:48:32Z</time></trkpt><trkpt lat="45.343706361578256" lon="11.738048018760512"><ele>12.0</ele><time>2026-04-11T13:48:33Z</time></trkpt><trkpt lat="45.343561223489814" lon="11.737993416393554"><ele>12.0</ele><time>2026-04-11T13:48:34Z</time></trkpt><trkpt lat="45.343427363458154" lon="11.737929550463882"><ele>12.0</ele><time>2026-04-11T13:48:35Z</time></trkpt><trkpt lat="45.34330109147308" lon="11.737839842047753"><ele>12.0</ele><time>2026-04-11T13:48:36Z</time></trkpt><trkpt lat="45.343178257464224" lon="11.737738672208105"><ele>12.0</ele><time>2026-04-11T13:48:37Z</time></trkpt><trkpt lat="45.343056264615676" lon="11.737627070293238"><ele>12.0</ele><time>2026-04-11T13:48:38Z</time></trkpt><trkpt lat="45.34293903284641" lon="11.737488711594457"><ele>12.0</ele><time>2026-04-11T13:48:39Z</time></trkpt><trkpt lat="45.342822576234575" lon="11.737336276393995"><ele>12.0</ele><time>2026-04-11T13:48:40Z</time></trkpt><trkpt lat="45.34270900471591" lon="11.737169314904028"><ele>12.0</ele><time>2026-04-11T13:48:41Z</time></trkpt><trkpt lat="45.3425910915435" lon="11.736990351068664"><ele>12.0</ele><time>2026-04-11T13:48:42Z</time></trkpt><trkpt lat="45.34247416921468" lon="11.736791399903575"><ele>15.333333333333332</ele><time>2026-04-11T13:48:43Z</time></trkpt><trkpt lat="45.3423740352149" lon="11.736595880355587"><ele>18.666666666666664</ele><time>2026-04-11T13:48:44Z</time></trkpt><trkpt lat="45.34229760371963" lon="11.736406072225662"><ele>22.0</ele><time>2026-04-11T13:48:45Z</time></trkpt><trkpt lat="45.3422463784293" lon="11.736217946763368"><ele>20.5</ele><time>2026-04-11T13:48:46Z</time></trkpt><trkpt lat="45.342211716491306" lon="11.73604139314054"><ele>19.0</ele><time>2026-04-11T13:48:47Z</time></trkpt><trkpt lat="45.342187962188646" lon="11.735862112713003"><ele>17.5</ele><time>2026-04-11T13:48:48Z</time></trkpt><trkpt lat="45.34219672966723" lon="11.735662786431808"><ele>16.0</ele><time>2026-04-11T13:48:49Z</time></trkpt><trkpt lat="45.34217967438381" lon="11.7354597328048"><ele>16.0</ele><time>2026-04-11T13:48:50Z</time></trkpt><trkpt lat="45.34216290256242" lon="11.735253520780079"><ele>16.0</ele><time>2026-04-11T13:48:51Z</time></trkpt><trkpt lat="45.34212573446872" lon="11.735046032849237"><ele>16.0</ele><time>2026-04-11T13:48:52Z</time></trkpt><trkpt lat="45.34206608786738" lon="11.734848626957525"><ele>16.0</ele><time>2026-04-11T13:48:53Z</time></trkpt><trkpt lat="45.34198571918516" lon="11.734652302191142"><ele>16.0</ele><time>2026-04-11T13:48:54Z</time></trkpt><trkpt lat="45.34188651518776" lon="11.734463787437825"><ele>16.0</ele><time>2026-04-11T13:48:55Z</time></trkpt><trkpt lat="45.341777147909774" lon="11.734277414213235"><ele>16.0</ele><time>2026-04-11T13:48:56Z</time></trkpt><trkpt lat="45.34166616522107" lon="11.734103034035531"><ele>16.0</ele><time>2026-04-11T13:48:57Z</time></trkpt><trkpt lat="45.34154764628952" lon="11.733951075395183"><ele>16.0</ele><time>2026-04-11T13:48:58Z</time></trkpt><trkpt lat="45.34141890428966" lon="11.733815054480628"><ele>16.0</ele><time>2026-04-11T13:48:59Z</time></trkpt><trkpt lat="45.341276720520284" lon="11.7337049903815"><ele>15.333333333333332</ele><time>2026-04-11T13:49:00Z</time></trkpt><trkpt lat="45.34112611083698" lon="11.733613820258022"><ele>14.666666666666668</ele><time>2026-04-11T13:49:01Z</time></trkpt><trkpt lat="45.340968277567434" lon="11.733548177705439"><ele>14.0</ele><time>2026-04-11T13:49:02Z</time></trkpt><trkpt lat="45.34080935680916" lon="11.73350749753116"><ele>14.0</ele><time>2026-04-11T13:49:03Z</time></trkpt><trkpt lat="45.340644750528035" lon="11.73348417582513"><ele>14.0</ele><time>2026-04-11T13:49:04Z</time></trkpt><trkpt lat="45.34048092121886" lon="11.733477297702521"><ele>14.0</ele><time>2026-04-11T13:49:05Z</time></trkpt><trkpt lat="45.34032939454842" lon="11.733468203055999"><ele>13.75</ele><time>2026-04-11T13:49:06Z</time></trkpt><trkpt lat="45.34019222485233" lon="11.733452671492872"><ele>13.5</ele><time>2026-04-11T13:49:07Z</time></trkpt><trkpt lat="45.340068262679516" lon="11.733439884134533"><ele>13.25</ele><time>2026-04-11T13:49:08Z</time></trkpt><trkpt lat="45.3399593282606" lon="11.733427206915227"><ele>13.0</ele><time>2026-04-11T13:49:09Z</time></trkpt><trkpt lat="45.339872559724" lon="11.733426168403986"><ele>12.999999999999998</ele><time>2026-04-11T13:49:10Z</time></trkpt><trkpt lat="45.33980214991944" lon="11.733423728916224"><ele>13.0</ele><time>2026-04-11T13:49:11Z</time></trkpt><trkpt lat="45.33970750270884" lon="11.733395661180186"><ele>13.0</ele><time>2026-04-11T13:49:13Z</time></trkpt><trkpt lat="45.33962989605342" lon="11.733292523704941"><ele>13.0</ele><time>2026-04-11T13:49:15Z</time></trkpt><trkpt lat="45.33958392537041" lon="11.733194220187707"><ele>12.999999999999998</ele><time>2026-04-11T13:49:16Z</time></trkpt><trkpt lat="45.33952004238278" lon="11.733105927909483"><ele>13.0</ele><time>2026-04-11T13:49:17Z</time></trkpt><trkpt lat="45.3394329854451" lon="11.73301180844186"><ele>12.75</ele><time>2026-04-11T13:49:18Z</time></trkpt><trkpt lat="45.33933004849854" lon="11.732933425900475"><ele>12.5</ele><time>2026-04-11T13:49:19Z</time></trkpt><trkpt lat="45.33922282249372" lon="11.732879864014661"><ele>12.25</ele><time>2026-04-11T13:49:20Z</time></trkpt><trkpt lat="45.33910230813703" lon="11.73282922465234"><ele>12.0</ele><time>2026-04-11T13:49:21Z</time></trkpt><trkpt lat="45.33897045181808" lon="11.73277989748112"><ele>12.0</ele><time>2026-04-11T13:49:22Z</time></trkpt><trkpt lat="45.338834762627535" lon="11.732730309636578"><ele>12.0</ele><time>2026-04-11T13:49:23Z</time></trkpt><trkpt lat="45.33869187120208" lon="11.732677568776712"><ele>12.0</ele><time>2026-04-11T13:49:24Z</time></trkpt><trkpt lat="45.33853596486945" lon="11.732621376321573"><ele>12.0</ele><time>2026-04-11T13:49:25Z</time></trkpt><trkpt lat="45.33838059557601" lon="11.73256641894819"><ele>12.0</ele><time>2026-04-11T13:49:26Z</time></trkpt><trkpt lat="45.33823659127912" lon="11.732510578300984"><ele>12.0</ele><time>2026-04-11T13:49:27Z</time></trkpt><trkpt lat="45.338099536617406" lon="11.732465067374342"><ele>12.0</ele><time>2026-04-11T13:49:28Z</time></trkpt><trkpt lat="45.3379487718007" lon="11.732408740710735"><ele>12.0</ele><time>2026-04-11T13:49:29Z</time></trkpt><trkpt lat="45.337799353790686" lon="11.732352978268722"><ele>12.0</ele><time>2026-04-11T13:49:30Z</time></trkpt><trkpt lat="45.33765815906811" lon="11.732297759156676"><ele>12.0</ele><time>2026-04-11T13:49:31Z</time></trkpt><trkpt lat="45.33751981905475" lon="11.732239085530889"><ele>12.0</ele><time>2026-04-11T13:49:32Z</time></trkpt><trkpt lat="45.337387969498565" lon="11.732186719616594"><ele>12.0</ele><time>2026-04-11T13:49:33Z</time></trkpt><trkpt lat="45.33724605395686" lon="11.732137896671734"><ele>12.333333333333332</ele><time>2026-04-11T13:49:34Z</time></trkpt><trkpt lat="45.33710100612134" lon="11.732095857641268"><ele>12.666666666666666</ele><time>2026-04-11T13:49:35Z</time></trkpt><trkpt lat="45.336954615359566" lon="11.73206160443502"><ele>13.0</ele><time>2026-04-11T13:49:36Z</time></trkpt><trkpt lat="45.33679723061035" lon="11.732043575440558"><ele>13.0</ele><time>2026-04-11T13:49:37Z</time></trkpt><trkpt lat="45.336657390559324" lon="11.732048608129032"><ele>13.0</ele><time>2026-04-11T13:49:38Z</time></trkpt><trkpt lat="45.336531384281216" lon="11.732041780364916"><ele>13.0</ele><time>2026-04-11T13:49:39Z</time></trkpt><trkpt lat="45.336409127194415" lon="11.732046153453787"><ele>13.0</ele><time>2026-04-11T13:49:40Z</time></trkpt><trkpt lat="45.33629664952429" lon="11.732039757421875"><ele>13.0</ele><time>2026-04-11T13:49:41Z</time></trkpt><trkpt lat="45.33619401258472" lon="11.732031126114563"><ele>13.0</ele><time>2026-04-11T13:49:42Z</time></trkpt><trkpt lat="45.33609231242706" lon="11.732023811617575"><ele>13.0</ele><time>2026-04-11T13:49:43Z</time></trkpt><trkpt lat="45.33599029157529" lon="11.732014284560309"><ele>13.0</ele><time>2026-04-11T13:49:44Z</time></trkpt><trkpt lat="45.33591499543889" lon="11.732011078853338"><ele>13.0</ele><time>2026-04-11T13:49:45Z</time></trkpt><trkpt lat="45.33583429750185" lon="11.73200580641494"><ele>13.0</ele><time>2026-04-11T13:49:47Z</time></trkpt><trkpt lat="45.335768879055685" lon="11.732006620618186"><ele>13.0</ele><time>2026-04-11T13:49:55Z</time></trkpt><trkpt lat="45.3356964981087" lon="11.732002047407358"><ele>13.0</ele><time>2026-04-11T13:49:57Z</time></trkpt><trkpt lat="45.33562625935674" lon="11.731971548818715"><ele>13.0</ele><time>2026-04-11T13:50:01Z</time></trkpt><trkpt lat="45.33554152007775" lon="11.731904201596826"><ele>13.0</ele><time>2026-04-11T13:50:03Z</time></trkpt><trkpt lat="45.335489600552364" lon="11.731841362178411"><ele>13.0</ele><time>2026-04-11T13:50:04Z</time></trkpt><trkpt lat="45.335449922766244" lon="11.731767579984135"><ele>13.0</ele><time>2026-04-11T13:50:05Z</time></trkpt><trkpt lat="45.335414621530035" lon="11.73166992049503"><ele>13.4</ele><time>2026-04-11T13:50:06Z</time></trkpt><trkpt lat="45.335383731252435" lon="11.731560535008489"><ele>13.8</ele><time>2026-04-11T13:50:07Z</time></trkpt><trkpt lat="45.33535674256877" lon="11.731437952161697"><ele>14.2</ele><time>2026-04-11T13:50:08Z</time></trkpt><trkpt lat="45.335339173467425" lon="11.731305529177158"><ele>14.6</ele><time>2026-04-11T13:50:09Z</time></trkpt><trkpt lat="45.33533524878128" lon="11.731155999783216"><ele>15.0</ele><time>2026-04-11T13:50:10Z</time></trkpt><trkpt lat="45.33533085360781" lon="11.730993042856174"><ele>15.25</ele><time>2026-04-11T13:50:11Z</time></trkpt><trkpt lat="45.335328707867674" lon="11.730821352163245"><ele>15.5</ele><time>2026-04-11T13:50:12Z</time></trkpt><trkpt lat="45.33533042897245" lon="11.730639803308854"><ele>15.75</ele><time>2026-04-11T13:50:13Z</time></trkpt><trkpt lat="45.33533650658403" lon="11.730470504187107"><ele>16.0</ele><time>2026-04-11T13:50:14Z</time></trkpt><trkpt lat="45.33534623075456" lon="11.73031798912777"><ele>16.25</ele><time>2026-04-11T13:50:15Z</time></trkpt><trkpt lat="45.335365818759946" lon="11.730159787805501"><ele>16.5</ele><time>2026-04-11T13:50:16Z</time></trkpt><trkpt lat="45.33539262006132" lon="11.729998352327643"><ele>16.75</ele><time>2026-04-11T13:50:17Z</time></trkpt><trkpt lat="45.33542013005501" lon="11.729825919391159"><ele>17.0</ele><time>2026-04-11T13:50:18Z</time></trkpt><trkpt lat="45.335439021049794" lon="11.72966017679089"><ele>17.0</ele><time>2026-04-11T13:50:19Z</time></trkpt><trkpt lat="45.33544362632639" lon="11.72948976848615"><ele>17.0</ele><time>2026-04-11T13:50:20Z</time></trkpt><trkpt lat="45.3354354636491" lon="11.729319756585271"><ele>17.0</ele><time>2026-04-11T13:50:21Z</time></trkpt><trkpt lat="45.33541879353066" lon="11.729156585271946"><ele>17.0</ele><time>2026-04-11T13:50:22Z</time></trkpt><trkpt lat="45.33539825599328" lon="11.729003559513957"><ele>17.2</ele><time>2026-04-11T13:50:23Z</time></trkpt><trkpt lat="45.33538300456206" lon="11.728863246788784"><ele>17.4</ele><time>2026-04-11T13:50:24Z</time></trkpt><trkpt lat="45.335365194682815" lon="11.728722533301568"><ele>17.6</ele><time>2026-04-11T13:50:25Z</time></trkpt><trkpt lat="45.33535365424037" lon="11.728584075615279"><ele>17.8</ele><time>2026-04-11T13:50:26Z</time></trkpt><trkpt lat="45.335351792042246" lon="11.728440558024975"><ele>18.0</ele><time>2026-04-11T13:50:27Z</time></trkpt><trkpt lat="45.335352810542304" lon="11.728296710815412"><ele>18.0</ele><time>2026-04-11T13:50:28Z</time></trkpt><trkpt lat="45.3353591113876" lon="11.728151973087689"><ele>18.0</ele><time>2026-04-11T13:50:29Z</time></trkpt><trkpt lat="45.335361965491124" lon="11.72801191553325"><ele>18.0</ele><time>2026-04-11T13:50:30Z</time></trkpt><trkpt lat="45.33536948051251" lon="11.727870146358176"><ele>18.0</ele><time>2026-04-11T13:50:31Z</time></trkpt><trkpt lat="45.33540519507025" lon="11.72773566965057"><ele>18.0</ele><time>2026-04-11T13:50:32Z</time></trkpt><trkpt lat="45.33541484136574" lon="11.727589874147965"><ele>18.2</ele><time>2026-04-11T13:50:33Z</time></trkpt><trkpt lat="45.335450062478195" lon="11.727454710190612"><ele>18.4</ele><time>2026-04-11T13:50:34Z</time></trkpt><trkpt lat="45.33548548723038" lon="11.72731477055653"><ele>18.599999999999998</ele><time>2026-04-11T13:50:35Z</time></trkpt><trkpt lat="45.33551987751863" lon="11.72717888110364"><ele>18.8</ele><time>2026-04-11T13:50:36Z</time></trkpt><trkpt lat="45.33554994097476" lon="11.727040426200032"><ele>19.0</ele><time>2026-04-11T13:50:37Z</time></trkpt><trkpt lat="45.33559108390212" lon="11.726904683182088"><ele>19.0</ele><time>2026-04-11T13:50:38Z</time></trkpt><trkpt lat="45.33562705836389" lon="11.72676757936822"><ele>19.0</ele><time>2026-04-11T13:50:39Z</time></trkpt><trkpt lat="45.3356608283169" lon="11.726630354817186"><ele>19.0</ele><time>2026-04-11T13:50:40Z</time></trkpt><trkpt lat="45.33569351197113" lon="11.726501769540224"><ele>19.0</ele><time>2026-04-11T13:50:41Z</time></trkpt><trkpt lat="45.33571114509309" lon="11.726366064563921"><ele>19.0</ele><time>2026-04-11T13:50:42Z</time></trkpt><trkpt lat="45.335733877088295" lon="11.72622923477891"><ele>19.0</ele><time>2026-04-11T13:50:43Z</time></trkpt><trkpt lat="45.33575630563631" lon="11.726086135444708"><ele>19.0</ele><time>2026-04-11T13:50:44Z</time></trkpt><trkpt lat="45.335778871680276" lon="11.72594400059855"><ele>19.0</ele><time>2026-04-11T13:50:45Z</time></trkpt><trkpt lat="45.335798618126084" lon="11.725796074572424"><ele>19.0</ele><time>2026-04-11T13:50:46Z</time></trkpt><trkpt lat="45.3358139812259" lon="11.725642869460195"><ele>19.0</ele><time>2026-04-11T13:50:47Z</time></trkpt><trkpt lat="45.335824908946506" lon="11.725487877152997"><ele>19.2</ele><time>2026-04-11T13:50:48Z</time></trkpt><trkpt lat="45.33583220724257" lon="11.72533397746874"><ele>19.4</ele><time>2026-04-11T13:50:49Z</time></trkpt><trkpt lat="45.335839198293776" lon="11.725190186312942"><ele>19.6</ele><time>2026-04-11T13:50:50Z</time></trkpt><trkpt lat="45.33584343928386" lon="11.725046725364454"><ele>19.8</ele><time>2026-04-11T13:50:51Z</time></trkpt><trkpt lat="45.33584278910374" lon="11.724897895012852"><ele>20.0</ele><time>2026-04-11T13:50:52Z</time></trkpt><trkpt lat="45.335841157950256" lon="11.724764088702836"><ele>20.333333333333336</ele><time>2026-04-11T13:50:53Z</time></trkpt><trkpt lat="45.33582584220935" lon="11.724642090018381"><ele>20.666666666666668</ele><time>2026-04-11T13:50:54Z</time></trkpt><trkpt lat="45.33579565410472" lon="11.724528717840585"><ele>21.0</ele><time>2026-04-11T13:50:55Z</time></trkpt><trkpt lat="45.33574637043765" lon="11.724423364389997"><ele>21.333333333333332</ele><time>2026-04-11T13:50:56Z</time></trkpt><trkpt lat="45.3356771328848" lon="11.724333822612417"><ele>21.666666666666664</ele><time>2026-04-11T13:50:57Z</time></trkpt><trkpt lat="45.33560496293591" lon="11.724263331879364"><ele>22.0</ele><time>2026-04-11T13:50:58Z</time></trkpt><trkpt lat="45.335533026397734" lon="11.724203562963917"><ele>22.200000000000003</ele><time>2026-04-11T13:50:59Z</time></trkpt><trkpt lat="45.33545090742848" lon="11.724153676146354"><ele>22.4</ele><time>2026-04-11T13:51:00Z</time></trkpt><trkpt lat="45.335366456308705" lon="11.724084670333202"><ele>22.6</ele><time>2026-04-11T13:51:01Z</time></trkpt><trkpt lat="45.335289172225266" lon="11.72399367709188"><ele>22.799999999999997</ele><time>2026-04-11T13:51:02Z</time></trkpt><trkpt lat="45.33525742236045" lon="11.723835726303962"><ele>23.0</ele><time>2026-04-11T13:51:03Z</time></trkpt><trkpt lat="45.33522613813201" lon="11.723671769316828"><ele>23.0</ele><time>2026-04-11T13:51:04Z</time></trkpt><trkpt lat="45.335218756243286" lon="11.723491900953112"><ele>23.0</ele><time>2026-04-11T13:51:05Z</time></trkpt><trkpt lat="45.335216645841975" lon="11.723291661573608"><ele>23.0</ele><time>2026-04-11T13:51:06Z</time></trkpt><trkpt lat="45.33522301629624" lon="11.72307885863773"><ele>23.0</ele><time>2026-04-11T13:51:07Z</time></trkpt><trkpt lat="45.33523314894865" lon="11.722889331640769"><ele>23.599999999999998</ele><time>2026-04-11T13:51:08Z</time></trkpt><trkpt lat="45.33524652651254" lon="11.72271863233249"><ele>24.2</ele><time>2026-04-11T13:51:09Z</time></trkpt><trkpt lat="45.33524452203689" lon="11.722557961084902"><ele>24.8</ele><time>2026-04-11T13:51:10Z</time></trkpt><trkpt lat="45.33525289396871" lon="11.722410913024424"><ele>25.4</ele><time>2026-04-11T13:51:11Z</time></trkpt><trkpt lat="45.33523647337598" lon="11.722277048276796"><ele>26.0</ele><time>2026-04-11T13:51:12Z</time></trkpt><trkpt lat="45.335186184346696" lon="11.722147369195524"><ele>26.0</ele><time>2026-04-11T13:51:13Z</time></trkpt><trkpt lat="45.33512149538509" lon="11.722025844853777"><ele>26.0</ele><time>2026-04-11T13:51:14Z</time></trkpt><trkpt lat="45.33507602508391" lon="11.721893105916259"><ele>26.0</ele><time>2026-04-11T13:51:15Z</time></trkpt><trkpt lat="45.33501728868367" lon="11.72177087327477"><ele>26.0</ele><time>2026-04-11T13:51:16Z</time></trkpt><trkpt lat="45.334960015656456" lon="11.721646232749034"><ele>26.0</ele><time>2026-04-11T13:51:17Z</time></trkpt><trkpt lat="45.33491479205702" lon="11.7215038808554"><ele>26.0</ele><time>2026-04-11T13:51:18Z</time></trkpt><trkpt lat="45.33486912054123" lon="11.721358969375677"><ele>26.0</ele><time>2026-04-11T13:51:19Z</time></trkpt><trkpt lat="45.33487725717371" lon="11.721201938154104"><ele>26.0</ele><time>2026-04-11T13:51:20Z</time></trkpt><trkpt lat="45.33487040200098" lon="11.721048367633434"><ele>26.0</ele><time>2026-04-11T13:51:21Z</time></trkpt><trkpt lat="45.33484901042347" lon="11.720897028092272"><ele>26.0</ele><time>2026-04-11T13:51:22Z</time></trkpt><trkpt lat="45.334841434575836" lon="11.720755755391098"><ele>26.5</ele><time>2026-04-11T13:51:23Z</time></trkpt><trkpt lat="45.33482244561788" lon="11.720605241612438"><ele>27.0</ele><time>2026-04-11T13:51:24Z</time></trkpt><trkpt lat="45.33480603610847" lon="11.720430721265032"><ele>27.5</ele><time>2026-04-11T13:51:25Z</time></trkpt><trkpt lat="45.33476772000089" lon="11.720240693776237"><ele>28.0</ele><time>2026-04-11T13:51:26Z</time></trkpt><trkpt lat="45.334723703011015" lon="11.72002114622397"><ele>30.0</ele><time>2026-04-11T13:51:27Z</time></trkpt><trkpt lat="45.33467927951935" lon="11.719800561310569"><ele>32.0</ele><time>2026-04-11T13:51:28Z</time></trkpt><trkpt lat="45.33461837234423" lon="11.719571800909268"><ele>34.0</ele><time>2026-04-11T13:51:29Z</time></trkpt><trkpt lat="45.334578008909446" lon="11.71933355126774"><ele>34.25</ele><time>2026-04-11T13:51:30Z</time></trkpt><trkpt lat="45.334536400572816" lon="11.719124523061026"><ele>34.5</ele><time>2026-04-11T13:51:31Z</time></trkpt><trkpt lat="45.33449760843984" lon="11.71893012259666"><ele>34.75</ele><time>2026-04-11T13:51:32Z</time></trkpt><trkpt lat="45.33445862965263" lon="11.718756348706302"><ele>35.0</ele><time>2026-04-11T13:51:33Z</time></trkpt><trkpt lat="45.33441222032419" lon="11.718602856532783"><ele>35.75</ele><time>2026-04-11T13:51:34Z</time></trkpt><trkpt lat="45.334340981383086" lon="11.718480369084139"><ele>36.5</ele><time>2026-04-11T13:51:35Z</time></trkpt><trkpt lat="45.33424893103979" lon="11.718382325423821"><ele>37.25</ele><time>2026-04-11T13:51:36Z</time></trkpt><trkpt lat="45.33413958125006" lon="11.71829714571994"><ele>38.0</ele><time>2026-04-11T13:51:37Z</time></trkpt><trkpt lat="45.334024457211214" lon="11.71820549166864"><ele>38.0</ele><time>2026-04-11T13:51:38Z</time></trkpt><trkpt lat="45.333916689634144" lon="11.71809293850685"><ele>38.0</ele><time>2026-04-11T13:51:39Z</time></trkpt><trkpt lat="45.333823080372824" lon="11.717954479157799"><ele>38.0</ele><time>2026-04-11T13:51:40Z</time></trkpt><trkpt lat="45.33375189363909" lon="11.7177995600845"><ele>38.0</ele><time>2026-04-11T13:51:41Z</time></trkpt><trkpt lat="45.33368904573822" lon="11.717621825796934"><ele>40.5</ele><time>2026-04-11T13:51:42Z</time></trkpt><trkpt lat="45.333634187204225" lon="11.717435088903786"><ele>43.0</ele><time>2026-04-11T13:51:43Z</time></trkpt><trkpt lat="45.33356747935419" lon="11.717252896591049"><ele>45.5</ele><time>2026-04-11T13:51:44Z</time></trkpt><trkpt lat="45.333480114281954" lon="11.717085882738408"><ele>48.0</ele><time>2026-04-11T13:51:45Z</time></trkpt><trkpt lat="45.33338127371681" lon="11.71691354400332"><ele>46.333333333333336</ele><time>2026-04-11T13:51:46Z</time></trkpt><trkpt lat="45.33327368749939" lon="11.71674372619175"><ele>44.66666666666667</ele><time>2026-04-11T13:51:47Z</time></trkpt><trkpt lat="45.33317015943641" lon="11.716572464576451"><ele>43.0</ele><time>2026-04-11T13:51:48Z</time></trkpt><trkpt lat="45.33306468579254" lon="11.716396352396298"><ele>43.66666666666667</ele><time>2026-04-11T13:51:49Z</time></trkpt><trkpt lat="45.332960521667125" lon="11.716212663367674"><ele>44.333333333333336</ele><time>2026-04-11T13:51:50Z</time></trkpt><trkpt lat="45.33284540216965" lon="11.71603837569377"><ele>45.0</ele><time>2026-04-11T13:51:51Z</time></trkpt><trkpt lat="45.33271882671636" lon="11.715898482109633"><ele>45.0</ele><time>2026-04-11T13:51:52Z</time></trkpt><trkpt lat="45.33257744137766" lon="11.715776499387156"><ele>45.0</ele><time>2026-04-11T13:51:53Z</time></trkpt><trkpt lat="45.33243846789471" lon="11.71566037403496"><ele>45.0</ele><time>2026-04-11T13:51:54Z</time></trkpt><trkpt lat="45.33232691524207" lon="11.71552359165137"><ele>45.0</ele><time>2026-04-11T13:51:55Z</time></trkpt><trkpt lat="45.33222478149345" lon="11.715395059441825"><ele>45.0</ele><time>2026-04-11T13:51:56Z</time></trkpt><trkpt lat="45.33215291504916" lon="11.715243990260458"><ele>45.0</ele><time>2026-04-11T13:51:57Z</time></trkpt><trkpt lat="45.332096712876286" lon="11.715062858092898"><ele>45.0</ele><time>2026-04-11T13:51:58Z</time></trkpt><trkpt lat="45.332041250835" lon="11.714865709629391"><ele>47.0</ele><time>2026-04-11T13:51:59Z</time></trkpt><trkpt lat="45.33197471517091" lon="11.714670947597309"><ele>49.0</ele><time>2026-04-11T13:52:00Z</time></trkpt><trkpt lat="45.331934567692926" lon="11.714473557530804"><ele>51.0</ele><time>2026-04-11T13:52:01Z</time></trkpt><trkpt lat="45.331892566372424" lon="11.714312855809355"><ele>53.0</ele><time>2026-04-11T13:52:02Z</time></trkpt><trkpt lat="45.33185128090194" lon="11.714173752556013"><ele>54.333333333333336</ele><time>2026-04-11T13:52:03Z</time></trkpt><trkpt lat="45.33180853997125" lon="11.714079278424174"><ele>55.66666666666667</ele><time>2026-04-11T13:52:04Z</time></trkpt><trkpt lat="45.331752804558654" lon="11.714026154474121"><ele>57.0</ele><time>2026-04-11T13:52:05Z</time></trkpt><trkpt lat="45.33168739768811" lon="11.714006468484659"><ele>58.33333333333333</ele><time>2026-04-11T13:52:06Z</time></trkpt><trkpt lat="45.33161579443368" lon="11.714034731352088"><ele>59.666666666666664</ele><time>2026-04-11T13:52:07Z</time></trkpt><trkpt lat="45.33155012296281" lon="11.714085402270074"><ele>61.0</ele><time>2026-04-11T13:52:08Z</time></trkpt><trkpt lat="45.33151592816107" lon="11.714221242640273"><ele>61.0</ele><time>2026-04-11T13:52:09Z</time></trkpt><trkpt lat="45.33147727897839" lon="11.714335216306138"><ele>60.99999999999999</ele><time>2026-04-11T13:52:10Z</time></trkpt><trkpt lat="45.33142586735344" lon="11.714448066657148"><ele>60.99999999999999</ele><time>2026-04-11T13:52:11Z</time></trkpt><trkpt lat="45.331355651004976" lon="11.714554511087757"><ele>61.0</ele><time>2026-04-11T13:52:12Z</time></trkpt><trkpt lat="45.331277509961375" lon="11.714655326984401"><ele>61.0</ele><time>2026-04-11T13:52:13Z</time></trkpt><trkpt lat="45.33121218667845" lon="11.714742425198422"><ele>61.666666666666664</ele><time>2026-04-11T13:52:14Z</time></trkpt><trkpt lat="45.33116193482824" lon="11.714798215652538"><ele>62.33333333333333</ele><time>2026-04-11T13:52:15Z</time></trkpt><trkpt lat="45.33110125325506" lon="11.714830701262615"><ele>63.0</ele><time>2026-04-11T13:52:16Z</time></trkpt><trkpt lat="45.331028745129174" lon="11.71481655157658"><ele>63.66666666666667</ele><time>2026-04-11T13:52:17Z</time></trkpt><trkpt lat="45.3309588206113" lon="11.714755675584192"><ele>64.33333333333334</ele><time>2026-04-11T13:52:18Z</time></trkpt><trkpt lat="45.33090621055095" lon="11.714661846899384"><ele>65.0</ele><time>2026-04-11T13:52:19Z</time></trkpt><trkpt lat="45.33085945032902" lon="11.714543526604452"><ele>66.2</ele><time>2026-04-11T13:52:20Z</time></trkpt><trkpt lat="45.33083124997147" lon="11.714395817270928"><ele>67.4</ele><time>2026-04-11T13:52:21Z</time></trkpt><trkpt lat="45.33078182744013" lon="11.714258019918706"><ele>68.6</ele><time>2026-04-11T13:52:22Z</time></trkpt><trkpt lat="45.33076144986083" lon="11.714134181303999"><ele>69.8</ele><time>2026-04-11T13:52:23Z</time></trkpt><trkpt lat="45.330723400038295" lon="11.714011690595768"><ele>71.0</ele><time>2026-04-11T13:52:24Z</time></trkpt><trkpt lat="45.33066522152768" lon="11.713927305185134"><ele>71.0</ele><time>2026-04-11T13:52:25Z</time></trkpt><trkpt lat="45.330592778954376" lon="11.713870751067123"><ele>71.0</ele><time>2026-04-11T13:52:26Z</time></trkpt><trkpt lat="45.33050971879428" lon="11.713858981050063"><ele>71.0</ele><time>2026-04-11T13:52:27Z</time></trkpt><trkpt lat="45.330416762369445" lon="11.713879450473607"><ele>71.0</ele><time>2026-04-11T13:52:28Z</time></trkpt><trkpt lat="45.33032709043216" lon="11.713926404830573"><ele>71.0</ele><time>2026-04-11T13:52:29Z</time></trkpt><trkpt lat="45.33024715724448" lon="11.713997286605993"><ele>73.75</ele><time>2026-04-11T13:52:30Z</time></trkpt><trkpt lat="45.330186024423114" lon="11.714107183972976"><ele>76.5</ele><time>2026-04-11T13:52:31Z</time></trkpt><trkpt lat="45.33013461326039" lon="11.714247009948949"><ele>79.25</ele><time>2026-04-11T13:52:32Z</time></trkpt><trkpt lat="45.330083397049115" lon="11.714400833743495"><ele>82.0</ele><time>2026-04-11T13:52:33Z</time></trkpt><trkpt lat="45.33001921117525" lon="11.714559332209364"><ele>82.0</ele><time>2026-04-11T13:52:34Z</time></trkpt><trkpt lat="45.32994475748619" lon="11.7147268792189"><ele>82.0</ele><time>2026-04-11T13:52:35Z</time></trkpt><trkpt lat="45.32986764518066" lon="11.714908896423742"><ele>82.0</ele><time>2026-04-11T13:52:36Z</time></trkpt><trkpt lat="45.32979807956665" lon="11.715081779025756"><ele>82.0</ele><time>2026-04-11T13:52:37Z</time></trkpt><trkpt lat="45.32971892341725" lon="11.715241989894443"><ele>87.0</ele><time>2026-04-11T13:52:38Z</time></trkpt><trkpt lat="45.32963599791275" lon="11.71540157910503"><ele>92.0</ele><time>2026-04-11T13:52:39Z</time></trkpt><trkpt lat="45.32954864884544" lon="11.715559376556572"><ele>97.0</ele><time>2026-04-11T13:52:40Z</time></trkpt><trkpt lat="45.32946156555465" lon="11.715706505520346"><ele>102.0</ele><time>2026-04-11T13:52:41Z</time></trkpt><trkpt lat="45.32936906368855" lon="11.715836697770124"><ele>102.0</ele><time>2026-04-11T13:52:42Z</time></trkpt><trkpt lat="45.329273472663566" lon="11.715961211675971"><ele>102.0</ele><time>2026-04-11T13:52:43Z</time></trkpt><trkpt lat="45.329170420818464" lon="11.716079087695858"><ele>102.0</ele><time>2026-04-11T13:52:44Z</time></trkpt><trkpt lat="45.32906077363994" lon="11.716191123254493"><ele>102.0</ele><time>2026-04-11T13:52:45Z</time></trkpt><trkpt lat="45.32894397798408" lon="11.716291111549456"><ele>104.25</ele><time>2026-04-11T13:52:46Z</time></trkpt><trkpt lat="45.32882295875197" lon="11.716363127706362"><ele>106.5</ele><time>2026-04-11T13:52:47Z</time></trkpt><trkpt lat="45.32871519301024" lon="11.716414759116153"><ele>108.75</ele><time>2026-04-11T13:52:48Z</time></trkpt><trkpt lat="45.32862088658967" lon="11.716487728410467"><ele>111.0</ele><time>2026-04-11T13:52:49Z</time></trkpt><trkpt lat="45.328542036920375" lon="11.71660186734417"><ele>111.0</ele><time>2026-04-11T13:52:50Z</time></trkpt><trkpt lat="45.32847936985726" lon="11.716745259225107"><ele>111.0</ele><time>2026-04-11T13:52:51Z</time></trkpt><trkpt lat="45.32841325372913" lon="11.716897275353876"><ele>111.0</ele><time>2026-04-11T13:52:52Z</time></trkpt><trkpt lat="45.328332611844516" lon="11.71702661081654"><ele>111.0</ele><time>2026-04-11T13:52:53Z</time></trkpt><trkpt lat="45.32825840976763" lon="11.717154756313864"><ele>110.5</ele><time>2026-04-11T13:52:54Z</time></trkpt><trkpt lat="45.32817942699042" lon="11.717288028171092"><ele>110.0</ele><time>2026-04-11T13:52:55Z</time></trkpt><trkpt lat="45.328068796770204" lon="11.717374682232663"><ele>109.5</ele><time>2026-04-11T13:52:56Z</time></trkpt><trkpt lat="45.32797289564875" lon="11.717490146638903"><ele>109.0</ele><time>2026-04-11T13:52:57Z</time></trkpt><trkpt lat="45.327870345439905" lon="11.717579028981536"><ele>109.42857142857143</ele><time>2026-04-11T13:52:58Z</time></trkpt><trkpt lat="45.32779182470964" lon="11.717645306560126"><ele>109.85714285714286</ele><time>2026-04-11T13:52:59Z</time></trkpt><trkpt lat="45.32773163605204" lon="11.717705129602217"><ele>110.28571428571428</ele><time>2026-04-11T13:53:00Z</time></trkpt><trkpt lat="45.32768239327293" lon="11.717786030006895"><ele>110.71428571428572</ele><time>2026-04-11T13:53:01Z</time></trkpt><trkpt lat="45.32765063071241" lon="11.717879260037531"><ele>111.14285714285714</ele><time>2026-04-11T13:53:02Z</time></trkpt><trkpt lat="45.327654076159504" lon="11.717974695805152"><ele>111.57142857142857</ele><time>2026-04-11T13:53:03Z</time></trkpt><trkpt lat="45.32766849008516" lon="11.718063698927049"><ele>112.0</ele><time>2026-04-11T13:53:04Z</time></trkpt><trkpt lat="45.32759753071605" lon="11.718140040969244"><ele>112.00000000000001</ele><time>2026-04-11T13:53:06Z</time></trkpt><trkpt lat="45.3275380847784" lon="11.718109234349349"><ele>112.0</ele><time>2026-04-11T13:53:07Z</time></trkpt><trkpt lat="45.327506483123514" lon="11.718029262655804"><ele>112.0</ele><time>2026-04-11T13:53:08Z</time></trkpt><trkpt lat="45.32752256094881" lon="11.717940379441469"><ele>112.0</ele><time>2026-04-11T13:53:09Z</time></trkpt><trkpt lat="45.32757152939946" lon="11.717851067617927"><ele>112.00000000000001</ele><time>2026-04-11T13:53:10Z</time></trkpt><trkpt lat="45.3276433517617" lon="11.71775009667632"><ele>112.0</ele><time>2026-04-11T13:53:11Z</time></trkpt><trkpt lat="45.32772240543898" lon="11.717621219539195"><ele>115.5</ele><time>2026-04-11T13:53:12Z</time></trkpt><trkpt lat="45.327801439092696" lon="11.71746210897572"><ele>119.0</ele><time>2026-04-11T13:53:13Z</time></trkpt><trkpt lat="45.327887806119655" lon="11.717275959268314"><ele>122.5</ele><time>2026-04-11T13:53:14Z</time></trkpt><trkpt lat="45.327962256863" lon="11.717096762311687"><ele>126.0</ele><time>2026-04-11T13:53:15Z</time></trkpt><trkpt lat="45.328029195937795" lon="11.716900719639161"><ele>121.0</ele><time>2026-04-11T13:53:16Z</time></trkpt><trkpt lat="45.32809479270828" lon="11.71667705317378"><ele>116.0</ele><time>2026-04-11T13:53:17Z</time></trkpt><trkpt lat="45.32815634497507" lon="11.716432725214084"><ele>111.0</ele><time>2026-04-11T13:53:18Z</time></trkpt><trkpt lat="45.32821033990271" lon="11.71617927137547"><ele>115.0</ele><time>2026-04-11T13:53:19Z</time></trkpt><trkpt lat="45.328261487301965" lon="11.715925108276306"><ele>119.0</ele><time>2026-04-11T13:53:20Z</time></trkpt><trkpt lat="45.32831975316331" lon="11.715694551281278"><ele>123.0</ele><time>2026-04-11T13:53:21Z</time></trkpt><trkpt lat="45.32838049857217" lon="11.715512822338395"><ele>123.0</ele><time>2026-04-11T13:53:22Z</time></trkpt><trkpt lat="45.3284355359871" lon="11.715353803492496"><ele>123.0</ele><time>2026-04-11T13:53:23Z</time></trkpt><trkpt lat="45.32847543260947" lon="11.715199386742961"><ele>123.0</ele><time>2026-04-11T13:53:24Z</time></trkpt><trkpt lat="45.328489569348875" lon="11.715038491395063"><ele>123.0</ele><time>2026-04-11T13:53:25Z</time></trkpt><trkpt lat="45.328478927345415" lon="11.714873179115788"><ele>124.5</ele><time>2026-04-11T13:53:26Z</time></trkpt><trkpt lat="45.32844916923445" lon="11.714716524168145"><ele>126.0</ele><time>2026-04-11T13:53:27Z</time></trkpt><trkpt lat="45.3283957754436" lon="11.71456888729878"><ele>127.5</ele><time>2026-04-11T13:53:28Z</time></trkpt><trkpt lat="45.32832649678325" lon="11.714425578214119"><ele>129.0</ele><time>2026-04-11T13:53:29Z</time></trkpt><trkpt lat="45.328235916427815" lon="11.714291018385483"><ele>129.0</ele><time>2026-04-11T13:53:30Z</time></trkpt><trkpt lat="45.328135302494175" lon="11.714159129154112"><ele>129.0</ele><time>2026-04-11T13:53:31Z</time></trkpt><trkpt lat="45.32802582059006" lon="11.714018202601986"><ele>129.0</ele><time>2026-04-11T13:53:32Z</time></trkpt><trkpt lat="45.327919841854296" lon="11.713871030143396"><ele>129.0</ele><time>2026-04-11T13:53:33Z</time></trkpt><trkpt lat="45.327815545623615" lon="11.713705380410843"><ele>133.5</ele><time>2026-04-11T13:53:34Z</time></trkpt><trkpt lat="45.32773236985621" lon="11.71353516834254"><ele>138.0</ele><time>2026-04-11T13:53:35Z</time></trkpt><trkpt lat="45.32766537096436" lon="11.713352960575723"><ele>142.5</ele><time>2026-04-11T13:53:36Z</time></trkpt><trkpt lat="45.32762346871184" lon="11.713141625952757"><ele>147.0</ele><time>2026-04-11T13:53:37Z</time></trkpt><trkpt lat="45.32756094213606" lon="11.71293168092462"><ele>144.33333333333334</ele><time>2026-04-11T13:53:38Z</time></trkpt><trkpt lat="45.327511422654844" lon="11.712712860717803"><ele>141.66666666666669</ele><time>2026-04-11T13:53:39Z</time></trkpt><trkpt lat="45.32745664135767" lon="11.712500987591033"><ele>139.0</ele><time>2026-04-11T13:53:40Z</time></trkpt><trkpt lat="45.327390848780034" lon="11.712305919612696"><ele>139.0</ele><time>2026-04-11T13:53:41Z</time></trkpt><trkpt lat="45.32732008978069" lon="11.712142692510088"><ele>139.0</ele><time>2026-04-11T13:53:42Z</time></trkpt><trkpt lat="45.32723967953563" lon="11.711994873937396"><ele>139.0</ele><time>2026-04-11T13:53:43Z</time></trkpt><trkpt lat="45.32714499876573" lon="11.711862452334998"><ele>139.0</ele><time>2026-04-11T13:53:44Z</time></trkpt><trkpt lat="45.327036945122195" lon="11.711754681596352"><ele>144.75</ele><time>2026-04-11T13:53:45Z</time></trkpt><trkpt lat="45.326947904564946" lon="11.71165093993737"><ele>150.5</ele><time>2026-04-11T13:53:46Z</time></trkpt><trkpt lat="45.32688471997963" lon="11.711520304713552"><ele>156.25</ele><time>2026-04-11T13:53:47Z</time></trkpt><trkpt lat="45.32684705879918" lon="11.711362397072193"><ele>162.0</ele><time>2026-04-11T13:53:48Z</time></trkpt><trkpt lat="45.326845381218405" lon="11.71118047938899"><ele>161.8</ele><time>2026-04-11T13:53:49Z</time></trkpt><trkpt lat="45.32682553442587" lon="11.711019710387843"><ele>161.6</ele><time>2026-04-11T13:53:50Z</time></trkpt><trkpt lat="45.32681571421963" lon="11.710883378468617"><ele>161.4</ele><time>2026-04-11T13:53:51Z</time></trkpt><trkpt lat="45.326783023328076" lon="11.710745460418504"><ele>161.20000000000002</ele><time>2026-04-11T13:53:52Z</time></trkpt><trkpt lat="45.32672144640851" lon="11.71062764648758"><ele>161.0</ele><time>2026-04-11T13:53:53Z</time></trkpt><trkpt lat="45.32664338086726" lon="11.710533236396182"><ele>161.0</ele><time>2026-04-11T13:53:54Z</time></trkpt><trkpt lat="45.3265507814298" lon="11.71046247877919"><ele>161.0</ele><time>2026-04-11T13:53:55Z</time></trkpt><trkpt lat="45.326451753841056" lon="11.710419346929655"><ele>161.0</ele><time>2026-04-11T13:53:56Z</time></trkpt><trkpt lat="45.32633145391889" lon="11.710403290884647"><ele>161.0</ele><time>2026-04-11T13:53:57Z</time></trkpt><trkpt lat="45.32622674269448" lon="11.710361285922792"><ele>161.0</ele><time>2026-04-11T13:53:58Z</time></trkpt><trkpt lat="45.32615798385336" lon="11.710270341328048"><ele>163.0</ele><time>2026-04-11T13:53:59Z</time></trkpt><trkpt lat="45.32609914550492" lon="11.710168737701704"><ele>165.0</ele><time>2026-04-11T13:54:00Z</time></trkpt><trkpt lat="45.326088943916496" lon="11.710022771855106"><ele>167.0</ele><time>2026-04-11T13:54:01Z</time></trkpt><trkpt lat="45.32606849289897" lon="11.709862962259324"><ele>169.0</ele><time>2026-04-11T13:54:02Z</time></trkpt><trkpt lat="45.32609361302486" lon="11.709691305997625"><ele>171.0</ele><time>2026-04-11T13:54:03Z</time></trkpt><trkpt lat="45.32613337723671" lon="11.709521567304154"><ele>171.25</ele><time>2026-04-11T13:54:04Z</time></trkpt><trkpt lat="45.32616923034219" lon="11.709343779449732"><ele>171.5</ele><time>2026-04-11T13:54:05Z</time></trkpt><trkpt lat="45.326184691254035" lon="11.709150438063848"><ele>171.75</ele><time>2026-04-11T13:54:06Z</time></trkpt><trkpt lat="45.3261817672322" lon="11.708954694857994"><ele>172.0</ele><time>2026-04-11T13:54:07Z</time></trkpt><trkpt lat="45.32615784156412" lon="11.708773158853262"><ele>172.0</ele><time>2026-04-11T13:54:08Z</time></trkpt><trkpt lat="45.326130408719486" lon="11.708594497923288"><ele>172.0</ele><time>2026-04-11T13:54:09Z</time></trkpt><trkpt lat="45.3260883108523" lon="11.708418246682383"><ele>172.0</ele><time>2026-04-11T13:54:10Z</time></trkpt><trkpt lat="45.32602731234366" lon="11.708243632773797"><ele>172.0</ele><time>2026-04-11T13:54:11Z</time></trkpt><trkpt lat="45.32594617055927" lon="11.708075879704754"><ele>173.75</ele><time>2026-04-11T13:54:12Z</time></trkpt><trkpt lat="45.325881556325086" lon="11.707881537407397"><ele>175.5</ele><time>2026-04-11T13:54:13Z</time></trkpt><trkpt lat="45.32582617691333" lon="11.707725145981742"><ele>177.25</ele><time>2026-04-11T13:54:14Z</time></trkpt><trkpt lat="45.325774060574545" lon="11.70759235719439"><ele>179.0</ele><time>2026-04-11T13:54:15Z</time></trkpt><trkpt lat="45.32578433282845" lon="11.707443954499935"><ele>180.2</ele><time>2026-04-11T13:54:16Z</time></trkpt><trkpt lat="45.325805901397814" lon="11.707321921967319"><ele>181.39999999999998</ele><time>2026-04-11T13:54:17Z</time></trkpt><trkpt lat="45.32582748009474" lon="11.707189825700462"><ele>182.6</ele><time>2026-04-11T13:54:18Z</time></trkpt><trkpt lat="45.32585031762673" lon="11.707063600050663"><ele>183.8</ele><time>2026-04-11T13:54:19Z</time></trkpt><trkpt lat="45.32583704997574" lon="11.706928560831635"><ele>185.0</ele><time>2026-04-11T13:54:20Z</time></trkpt><trkpt lat="45.32579498970587" lon="11.706804314097743"><ele>185.4</ele><time>2026-04-11T13:54:21Z</time></trkpt><trkpt lat="45.3257310783473" lon="11.706686027072982"><ele>185.8</ele><time>2026-04-11T13:54:22Z</time></trkpt><trkpt lat="45.325668320528905" lon="11.706553393533264"><ele>186.2</ele><time>2026-04-11T13:54:23Z</time></trkpt><trkpt lat="45.325609166533674" lon="11.706417280375346"><ele>186.6</ele><time>2026-04-11T13:54:24Z</time></trkpt><trkpt lat="45.325536443548536" lon="11.706286879318963"><ele>187.0</ele><time>2026-04-11T13:54:25Z</time></trkpt><trkpt lat="45.32544580048663" lon="11.706183712910164"><ele>187.75</ele><time>2026-04-11T13:54:26Z</time></trkpt><trkpt lat="45.32533806392598" lon="11.706106328410819"><ele>188.5</ele><time>2026-04-11T13:54:27Z</time></trkpt><trkpt lat="45.32521987614436" lon="11.70605739461144"><ele>189.25</ele><time>2026-04-11T13:54:28Z</time></trkpt><trkpt lat="45.325089446652115" lon="11.706029464691934"><ele>190.0</ele><time>2026-04-11T13:54:29Z</time></trkpt><trkpt lat="45.32496076071531" lon="11.706022424881754"><ele>190.0</ele><time>2026-04-11T13:54:30Z</time></trkpt><trkpt lat="45.32484572763665" lon="11.706014551538281"><ele>190.0</ele><time>2026-04-11T13:54:31Z</time></trkpt><trkpt lat="45.32473868814468" lon="11.70599323725459"><ele>190.0</ele><time>2026-04-11T13:54:32Z</time></trkpt><trkpt lat="45.32464099109233" lon="11.705951393018758"><ele>190.0</ele><time>2026-04-11T13:54:33Z</time></trkpt><trkpt lat="45.32455388949425" lon="11.705888073865587"><ele>190.0</ele><time>2026-04-11T13:54:34Z</time></trkpt><trkpt lat="45.324479479880246" lon="11.705816325262674"><ele>192.2</ele><time>2026-04-11T13:54:35Z</time></trkpt><trkpt lat="45.32441929056253" lon="11.705750848345234"><ele>194.4</ele><time>2026-04-11T13:54:36Z</time></trkpt><trkpt lat="45.32434242232251" lon="11.705671340428884"><ele>196.60000000000002</ele><time>2026-04-11T13:54:38Z</time></trkpt><trkpt lat="45.32422553597887" lon="11.705716036722421"><ele>198.8</ele><time>2026-04-11T13:54:42Z</time></trkpt><trkpt lat="45.32413535998104" lon="11.705825033670509"><ele>201.0</ele><time>2026-04-11T13:54:44Z</time></trkpt><trkpt lat="45.324075303434746" lon="11.705873350152018"><ele>201.0</ele><time>2026-04-11T13:54:45Z</time></trkpt><trkpt lat="45.324013311449605" lon="11.705894099911061"><ele>201.0</ele><time>2026-04-11T13:54:46Z</time></trkpt><trkpt lat="45.32393392941493" lon="11.705899959815062"><ele>201.0</ele><time>2026-04-11T13:54:47Z</time></trkpt><trkpt lat="45.32383714858747" lon="11.705900834838323"><ele>201.0</ele><time>2026-04-11T13:54:48Z</time></trkpt><trkpt lat="45.32372355475521" lon="11.70588128856338"><ele>201.0</ele><time>2026-04-11T13:54:49Z</time></trkpt><trkpt lat="45.3236025815503" lon="11.705846611645486"><ele>202.20000000000002</ele><time>2026-04-11T13:54:50Z</time></trkpt><trkpt lat="45.3234928024122" lon="11.705776995157548"><ele>203.4</ele><time>2026-04-11T13:54:51Z</time></trkpt><trkpt lat="45.32339090372164" lon="11.705739192113661"><ele>204.6</ele><time>2026-04-11T13:54:52Z</time></trkpt><trkpt lat="45.32329977599255" lon="11.705742124092088"><ele>205.8</ele><time>2026-04-11T13:54:53Z</time></trkpt><trkpt lat="45.32320821502663" lon="11.705718031673955"><ele>207.0</ele><time>2026-04-11T13:54:54Z</time></trkpt><trkpt lat="45.32311008055058" lon="11.705744135349825"><ele>207.8</ele><time>2026-04-11T13:54:55Z</time></trkpt><trkpt lat="45.323016181094374" lon="11.70581033295622"><ele>208.6</ele><time>2026-04-11T13:54:56Z</time></trkpt><trkpt lat="45.32293132236153" lon="11.705913813037602"><ele>209.4</ele><time>2026-04-11T13:54:57Z</time></trkpt><trkpt lat="45.322858356350835" lon="11.706023218626337"><ele>210.20000000000002</ele><time>2026-04-11T13:54:58Z</time></trkpt><trkpt lat="45.32280043852963" lon="11.706160068828728"><ele>211.0</ele><time>2026-04-11T13:54:59Z</time></trkpt><trkpt lat="45.3227403993936" lon="11.706291062486624"><ele>212.5</ele><time>2026-04-11T13:55:00Z</time></trkpt><trkpt lat="45.322666158679326" lon="11.706414036068974"><ele>214.0</ele><time>2026-04-11T13:55:01Z</time></trkpt><trkpt lat="45.32259770694925" lon="11.706549448358716"><ele>215.5</ele><time>2026-04-11T13:55:02Z</time></trkpt><trkpt lat="45.32252592683041" lon="11.706682774325767"><ele>217.0</ele><time>2026-04-11T13:55:03Z</time></trkpt><trkpt lat="45.32242382122204" lon="11.706780817775174"><ele>217.0</ele><time>2026-04-11T13:55:04Z</time></trkpt><trkpt lat="45.32229921379261" lon="11.706819687554212"><ele>217.0</ele><time>2026-04-11T13:55:05Z</time></trkpt><trkpt lat="45.322171235287975" lon="11.706882421511402"><ele>217.0</ele><time>2026-04-11T13:55:06Z</time></trkpt><trkpt lat="45.32202592072459" lon="11.706919374117168"><ele>217.0</ele><time>2026-04-11T13:55:07Z</time></trkpt><trkpt lat="45.321874152137006" lon="11.706975977598686"><ele>220.25</ele><time>2026-04-11T13:55:08Z</time></trkpt><trkpt lat="45.32172370298316" lon="11.707039884478224"><ele>223.5</ele><time>2026-04-11T13:55:09Z</time></trkpt><trkpt lat="45.32157561667226" lon="11.707095542032636"><ele>226.75</ele><time>2026-04-11T13:55:10Z</time></trkpt><trkpt lat="45.321448506340815" lon="11.707141576869276"><ele>230.0</ele><time>2026-04-11T13:55:11Z</time></trkpt><trkpt lat="45.32134322167327" lon="11.707185686137523"><ele>232.0</ele><time>2026-04-11T13:55:12Z</time></trkpt><trkpt lat="45.32126486016693" lon="11.707234664559696"><ele>234.0</ele><time>2026-04-11T13:55:13Z</time></trkpt><trkpt lat="45.32119186166973" lon="11.707303934796213"><ele>236.0</ele><time>2026-04-11T13:55:14Z</time></trkpt><trkpt lat="45.32112787975137" lon="11.707401255987772"><ele>238.0</ele><time>2026-04-11T13:55:15Z</time></trkpt><trkpt lat="45.321079622906275" lon="11.707531491304783"><ele>240.0</ele><time>2026-04-11T13:55:16Z</time></trkpt><trkpt lat="45.3210369638749" lon="11.707673684022984"><ele>241.33333333333334</ele><time>2026-04-11T13:55:17Z</time></trkpt><trkpt lat="45.320997950535656" lon="11.707822524172803"><ele>242.66666666666669</ele><time>2026-04-11T13:55:18Z</time></trkpt><trkpt lat="45.320943533659715" lon="11.707954669579014"><ele>244.0</ele><time>2026-04-11T13:55:19Z</time></trkpt><trkpt lat="45.320910720634444" lon="11.708057990632177"><ele>245.33333333333334</ele><time>2026-04-11T13:55:20Z</time></trkpt><trkpt lat="45.32087855237658" lon="11.708144418392058"><ele>246.66666666666669</ele><time>2026-04-11T13:55:21Z</time></trkpt><trkpt lat="45.32084056139908" lon="11.708227263957506"><ele>248.0</ele><time>2026-04-11T13:55:22Z</time></trkpt><trkpt lat="45.32076323980587" lon="11.708260912863965"><ele>248.0</ele><time>2026-04-11T13:55:23Z</time></trkpt><trkpt lat="45.32067594150309" lon="11.70823668411572"><ele>248.0</ele><time>2026-04-11T13:55:24Z</time></trkpt><trkpt lat="45.320592728889835" lon="11.708170317595274"><ele>248.0</ele><time>2026-04-11T13:55:25Z</time></trkpt><trkpt lat="45.320517326591506" lon="11.708048067022952"><ele>248.0</ele><time>2026-04-11T13:55:26Z</time></trkpt><trkpt lat="45.32042012764787" lon="11.70794837146022"><ele>248.0</ele><time>2026-04-11T13:55:27Z</time></trkpt><trkpt lat="45.32033100868039" lon="11.707818540152557"><ele>250.75</ele><time>2026-04-11T13:55:28Z</time></trkpt><trkpt lat="45.320237656338264" lon="11.707689829054988"><ele>253.5</ele><time>2026-04-11T13:55:29Z</time></trkpt><trkpt lat="45.32014741578099" lon="11.707571925011063"><ele>256.25</ele><time>2026-04-11T13:55:30Z</time></trkpt><trkpt lat="45.3200658322462" lon="11.707463500463613"><ele>259.0</ele><time>2026-04-11T13:55:31Z</time></trkpt><trkpt lat="45.32001158873504" lon="11.707338392684308"><ele>259.0</ele><time>2026-04-11T13:55:32Z</time></trkpt><trkpt lat="45.31997693507027" lon="11.707216279360601"><ele>259.0</ele><time>2026-04-11T13:55:33Z</time></trkpt><trkpt lat="45.31995917863479" lon="11.707063708053512"><ele>259.0</ele><time>2026-04-11T13:55:34Z</time></trkpt><trkpt lat="45.319936755949996" lon="11.706905500954374"><ele>259.0</ele><time>2026-04-11T13:55:35Z</time></trkpt><trkpt lat="45.31992046001493" lon="11.706736646796776"><ele>259.0</ele><time>2026-04-11T13:55:36Z</time></trkpt><trkpt lat="45.31989938666508" lon="11.706564768723657"><ele>257.8</ele><time>2026-04-11T13:55:37Z</time></trkpt><trkpt lat="45.31989095479835" lon="11.706405024426722"><ele>256.59999999999997</ele><time>2026-04-11T13:55:38Z</time></trkpt><trkpt lat="45.31990588206309" lon="11.706264666691244"><ele>255.4</ele><time>2026-04-11T13:55:39Z</time></trkpt><trkpt lat="45.319939042137406" lon="11.706137918768258"><ele>254.2</ele><time>2026-04-11T13:55:40Z</time></trkpt><trkpt lat="45.31995975053672" lon="11.70602164255948"><ele>253.0</ele><time>2026-04-11T13:55:41Z</time></trkpt><trkpt lat="45.31995950222332" lon="11.705930431177231"><ele>252.83333333333331</ele><time>2026-04-11T13:55:42Z</time></trkpt><trkpt lat="45.31993225826676" lon="11.705837199136461"><ele>252.66666666666666</ele><time>2026-04-11T13:55:43Z</time></trkpt><trkpt lat="45.31988461913832" lon="11.705763378750003"><ele>252.5</ele><time>2026-04-11T13:55:44Z</time></trkpt><trkpt lat="45.3198190215862" lon="11.705729338615239"><ele>252.33333333333331</ele><time>2026-04-11T13:55:45Z</time></trkpt><trkpt lat="45.31973297626797" lon="11.70574736374521"><ele>252.16666666666666</ele><time>2026-04-11T13:55:46Z</time></trkpt><trkpt lat="45.319649123181996" lon="11.70579845467779"><ele>252.0</ele><time>2026-04-11T13:55:47Z</time></trkpt><trkpt lat="45.31957988301858" lon="11.705881936888341"><ele>256.5</ele><time>2026-04-11T13:55:48Z</time></trkpt><trkpt lat="45.31949775671807" lon="11.70596223173286"><ele>261.0</ele><time>2026-04-11T13:55:49Z</time></trkpt><trkpt lat="45.319430213795364" lon="11.706063042874153"><ele>265.5</ele><time>2026-04-11T13:55:50Z</time></trkpt><trkpt lat="45.319369030801596" lon="11.706154662305677"><ele>270.0</ele><time>2026-04-11T13:55:51Z</time></trkpt><trkpt lat="45.31932105959912" lon="11.706219366044763"><ele>274.5</ele><time>2026-04-11T13:55:52Z</time></trkpt><trkpt lat="45.31926621025706" lon="11.706277225248686"><ele>279.0</ele><time>2026-04-11T13:55:53Z</time></trkpt><trkpt lat="45.319196065257856" lon="11.706280111299456"><ele>279.0</ele><time>2026-04-11T13:55:54Z</time></trkpt><trkpt lat="45.3191281193521" lon="11.706251780264639"><ele>279.0</ele><time>2026-04-11T13:55:55Z</time></trkpt><trkpt lat="45.31906036904557" lon="11.706195388002815"><ele>279.0</ele><time>2026-04-11T13:55:56Z</time></trkpt><trkpt lat="45.31900412116254" lon="11.70611504998221"><ele>279.0</ele><time>2026-04-11T13:55:57Z</time></trkpt><trkpt lat="45.31896004197857" lon="11.706001977474312"><ele>279.0</ele><time>2026-04-11T13:55:58Z</time></trkpt><trkpt lat="45.31894133407743" lon="11.705858814817818"><ele>279.0</ele><time>2026-04-11T13:55:59Z</time></trkpt><trkpt lat="45.318942644336765" lon="11.705705718855583"><ele>279.0</ele><time>2026-04-11T13:56:00Z</time></trkpt><trkpt lat="45.318962273053934" lon="11.705553283443338"><ele>279.0</ele><time>2026-04-11T13:56:01Z</time></trkpt><trkpt lat="45.31903266602" lon="11.705434679011502"><ele>279.0</ele><time>2026-04-11T13:56:02Z</time></trkpt><trkpt lat="45.319072759049725" lon="11.70532573218854"><ele>279.0</ele><time>2026-04-11T13:56:03Z</time></trkpt><trkpt lat="45.319103244054034" lon="11.705219203972332"><ele>279.0</ele><time>2026-04-11T13:56:04Z</time></trkpt><trkpt lat="45.319104363168826" lon="11.705092423859496"><ele>280.4</ele><time>2026-04-11T13:56:05Z</time></trkpt><trkpt lat="45.31907070206501" lon="11.704952185057138"><ele>281.79999999999995</ele><time>2026-04-11T13:56:06Z</time></trkpt><trkpt lat="45.31901982522183" lon="11.704797523257083"><ele>283.20000000000005</ele><time>2026-04-11T13:56:07Z</time></trkpt><trkpt lat="45.31897862367253" lon="11.704646939775282"><ele>284.6</ele><time>2026-04-11T13:56:08Z</time></trkpt><trkpt lat="45.31895637257315" lon="11.704503041909158"><ele>286.0</ele><time>2026-04-11T13:56:09Z</time></trkpt><trkpt lat="45.31895516339082" lon="11.704360382249654"><ele>287.0</ele><time>2026-04-11T13:56:10Z</time></trkpt><trkpt lat="45.31897361832486" lon="11.704205294879767"><ele>288.0</ele><time>2026-04-11T13:56:11Z</time></trkpt><trkpt lat="45.31901540849461" lon="11.704048398373802"><ele>289.0</ele><time>2026-04-11T13:56:12Z</time></trkpt><trkpt lat="45.31908190472245" lon="11.70389522624913"><ele>290.0</ele><time>2026-04-11T13:56:13Z</time></trkpt><trkpt lat="45.31916079934784" lon="11.703742627214375"><ele>295.0</ele><time>2026-04-11T13:56:14Z</time></trkpt><trkpt lat="45.31923377522779" lon="11.703570429340818"><ele>300.0</ele><time>2026-04-11T13:56:15Z</time></trkpt><trkpt lat="45.31929814699945" lon="11.70338528218346"><ele>305.0</ele><time>2026-04-11T13:56:16Z</time></trkpt><trkpt lat="45.31935520214644" lon="11.70321149481403"><ele>310.0</ele><time>2026-04-11T13:56:17Z</time></trkpt><trkpt lat="45.31940321953643" lon="11.70306204549407"><ele>310.0</ele><time>2026-04-11T13:56:18Z</time></trkpt><trkpt lat="45.31945166817513" lon="11.7029386778714"><ele>310.0</ele><time>2026-04-11T13:56:19Z</time></trkpt><trkpt lat="45.31950105620846" lon="11.702834513714627"><ele>310.0</ele><time>2026-04-11T13:56:20Z</time></trkpt><trkpt lat="45.31954769490975" lon="11.702749515400537"><ele>310.0</ele><time>2026-04-11T13:56:21Z</time></trkpt><trkpt lat="45.319600978270046" lon="11.702631910479663"><ele>310.0</ele><time>2026-04-11T13:56:23Z</time></trkpt><trkpt lat="45.31952130688833" lon="11.702524238656851"><ele>310.0</ele><time>2026-04-11T13:56:25Z</time></trkpt><trkpt lat="45.31944731175636" lon="11.702516488701212"><ele>310.0</ele><time>2026-04-11T13:56:26Z</time></trkpt><trkpt lat="45.319375185214675" lon="11.702557870588775"><ele>310.0</ele><time>2026-04-11T13:56:27Z</time></trkpt><trkpt lat="45.31930904890638" lon="11.702650493007184"><ele>310.0</ele><time>2026-04-11T13:56:28Z</time></trkpt><trkpt lat="45.31924559593531" lon="11.70276106292698"><ele>310.0</ele><time>2026-04-11T13:56:29Z</time></trkpt><trkpt lat="45.319180643108545" lon="11.702894462187018"><ele>310.0</ele><time>2026-04-11T13:56:30Z</time></trkpt><trkpt lat="45.319107999742094" lon="11.703023347777542"><ele>310.0</ele><time>2026-04-11T13:56:31Z</time></trkpt><trkpt lat="45.319055991838226" lon="11.703138896972765"><ele>310.0</ele><time>2026-04-11T13:56:32Z</time></trkpt><trkpt lat="45.319012639800604" lon="11.703235214560177"><ele>310.0</ele><time>2026-04-11T13:56:33Z</time></trkpt><trkpt lat="45.31897458031678" lon="11.703310108141748"><ele>310.0</ele><time>2026-04-11T13:56:34Z</time></trkpt><trkpt lat="45.31890684673777" lon="11.703398397550147"><ele>310.0</ele><time>2026-04-11T13:56:36Z</time></trkpt><trkpt lat="45.318856123915204" lon="11.70328043225964"><ele>310.0</ele><time>2026-04-11T13:56:39Z</time></trkpt><trkpt lat="45.318950347222994" lon="11.703143452679717"><ele>310.0</ele><time>2026-04-11T13:56:41Z</time></trkpt><trkpt lat="45.31897508285311" lon="11.703029047056242"><ele>310.0</ele><time>2026-04-11T13:56:42Z</time></trkpt><trkpt lat="45.319010985111014" lon="11.702905725354594"><ele>310.0</ele><time>2026-04-11T13:56:43Z</time></trkpt><trkpt lat="45.31905211588356" lon="11.702774423514917"><ele>314.0</ele><time>2026-04-11T13:56:44Z</time></trkpt><trkpt lat="45.319110002065315" lon="11.702639388120732"><ele>318.0</ele><time>2026-04-11T13:56:45Z</time></trkpt><trkpt lat="45.31916719189105" lon="11.702511902140115"><ele>322.0</ele><time>2026-04-11T13:56:46Z</time></trkpt><trkpt lat="45.31921972981382" lon="11.702380957574741"><ele>326.0</ele><time>2026-04-11T13:56:47Z</time></trkpt><trkpt lat="45.319264145093946" lon="11.702244507254854"><ele>330.0</ele><time>2026-04-11T13:56:48Z</time></trkpt><trkpt lat="45.31929212918327" lon="11.702099573527699"><ele>330.0</ele><time>2026-04-11T13:56:49Z</time></trkpt><trkpt lat="45.31931360680036" lon="11.701966367556857"><ele>330.0</ele><time>2026-04-11T13:56:50Z</time></trkpt><trkpt lat="45.31933413597637" lon="11.701825904903785"><ele>330.0</ele><time>2026-04-11T13:56:51Z</time></trkpt><trkpt lat="45.319346487275105" lon="11.701711412514966"><ele>330.0</ele><time>2026-04-11T13:56:52Z</time></trkpt><trkpt lat="45.31936324469663" lon="11.701614124326513"><ele>330.0</ele><time>2026-04-11T13:56:53Z</time></trkpt><trkpt lat="45.31937921478023" lon="11.701521012822552"><ele>330.0</ele><time>2026-04-11T13:56:54Z</time></trkpt><trkpt lat="45.319426302954135" lon="11.701367420585628"><ele>332.1666666666667</ele><time>2026-04-11T13:56:56Z</time></trkpt><trkpt lat="45.31945031493752" lon="11.701252166337893"><ele>334.3333333333333</ele><time>2026-04-11T13:56:58Z</time></trkpt><trkpt lat="45.319299674147324" lon="11.701220962452329"><ele>336.5</ele><time>2026-04-11T13:57:02Z</time></trkpt><trkpt lat="45.31924408046805" lon="11.701287999563924"><ele>338.66666666666663</ele><time>2026-04-11T13:57:03Z</time></trkpt><trkpt lat="45.31919637389517" lon="11.701358585214155"><ele>340.8333333333333</ele><time>2026-04-11T13:57:04Z</time></trkpt><trkpt lat="45.3191489721171" lon="11.701433132355376"><ele>343.0</ele><time>2026-04-11T13:57:05Z</time></trkpt><trkpt lat="45.319095722047486" lon="11.701516858426674"><ele>343.0</ele><time>2026-04-11T13:57:06Z</time></trkpt><trkpt lat="45.31904421977652" lon="11.701597836411466"><ele>343.0</ele><time>2026-04-11T13:57:07Z</time></trkpt><trkpt lat="45.31899681145353" lon="11.701673407050304"><ele>343.0</ele><time>2026-04-11T13:57:08Z</time></trkpt><trkpt lat="45.3189258480992" lon="11.701822835674308"><ele>343.0</ele><time>2026-04-11T13:57:10Z</time></trkpt><trkpt lat="45.31884145797571" lon="11.701949871940585"><ele>343.0</ele><time>2026-04-11T13:57:12Z</time></trkpt><trkpt lat="45.318766127469964" lon="11.702068390027476"><ele>346.59999999999997</ele><time>2026-04-11T13:57:14Z</time></trkpt><trkpt lat="45.31868963053423" lon="11.702194633156534"><ele>350.2</ele><time>2026-04-11T13:57:16Z</time></trkpt><trkpt lat="45.31859987513901" lon="11.7022698177421"><ele>353.8</ele><time>2026-04-11T13:57:18Z</time></trkpt><trkpt lat="45.31853647116337" lon="11.702258801333416"><ele>357.4</ele><time>2026-04-11T13:57:19Z</time></trkpt><trkpt lat="45.318466109810764" lon="11.702163585037884"><ele>361.0</ele><time>2026-04-11T13:57:21Z</time></trkpt><trkpt lat="45.3184167991626" lon="11.702065710672874"><ele>361.0</ele><time>2026-04-11T13:57:24Z</time></trkpt><trkpt lat="45.31841182545842" lon="11.701969713132339"><ele>361.0</ele><time>2026-04-11T13:57:29Z</time></trkpt><trkpt lat="45.31841216925415" lon="11.701870674523297"><ele>361.0</ele><time>2026-04-11T13:58:07Z</time></trkpt><trkpt lat="45.31842410018702" lon="11.701779387687639"><ele>361.0</ele><time>2026-04-11T13:59:26Z</time></trkpt><trkpt lat="45.3184435646218" lon="11.701675120480768"><ele>361.0</ele><time>2026-04-11T13:59:58Z</time></trkpt><trkpt lat="45.31846073290673" lon="11.701587249835612"><ele>361.0</ele><time>2026-04-11T14:00:04Z</time></trkpt><trkpt lat="45.31847967901521" lon="11.701501465035326"><ele>361.0</ele><time>2026-04-11T14:00:12Z</time></trkpt><trkpt lat="45.318498719554896" lon="11.701415252750145"><ele>359.5</ele><time>2026-04-11T14:00:17Z</time></trkpt><trkpt lat="45.31875406987039" lon="11.701267465947184"><ele>358.0</ele><time>2026-04-11T14:00:35Z</time></trkpt><trkpt lat="45.31888989255628" lon="11.701531479534019"><ele>358.00000000000006</ele><time>2026-04-11T14:01:01Z</time></trkpt><trkpt lat="45.31883281343509" lon="11.701576873547847"><ele>358.0</ele><time>2026-04-11T14:04:18Z</time></trkpt><trkpt lat="45.31876183759599" lon="11.70155857287419"><ele>358.0</ele><time>2026-04-11T14:04:25Z</time></trkpt><trkpt lat="45.31870035874572" lon="11.701522887852265"><ele>358.0</ele><time>2026-04-11T14:04:33Z</time></trkpt><trkpt lat="45.318634545371836" lon="11.701511307218881"><ele>358.0</ele><time>2026-04-11T14:04:41Z</time></trkpt><trkpt lat="45.31858737507512" lon="11.701581947243612"><ele>358.00000000000006</ele><time>2026-04-11T14:04:49Z</time></trkpt><trkpt lat="45.318548909256364" lon="11.701655339609317"><ele>358.0</ele><time>2026-04-11T14:04:58.001Z</time></trkpt><trkpt lat="45.3185130636464" lon="11.701739460258494"><ele>358.0</ele><time>2026-04-11T14:05:06Z</time></trkpt><trkpt lat="45.318482118949525" lon="11.701824854158447"><ele>358.0</ele><time>2026-04-11T14:05:13Z</time></trkpt><trkpt lat="45.318400311850944" lon="11.701776700158085"><ele>358.0</ele><time>2026-04-11T14:08:29.999Z</time></trkpt><trkpt lat="45.31841926746318" lon="11.70167472201307"><ele>358.0</ele><time>2026-04-11T14:08:31.999Z</time></trkpt><trkpt lat="45.31844587545261" lon="11.701555130142255"><ele>358.0</ele><time>2026-04-11T14:08:33.999Z</time></trkpt><trkpt lat="45.31848057392489" lon="11.701397023014474"><ele>358.0</ele><time>2026-04-11T14:08:35.999Z</time></trkpt><trkpt lat="45.31851138907149" lon="11.701220072921277"><ele>357.2</ele><time>2026-04-11T14:08:37.999Z</time></trkpt><trkpt lat="45.31849589297918" lon="11.701045205845574"><ele>356.4</ele><time>2026-04-11T14:08:39.999Z</time></trkpt><trkpt lat="45.31845672589918" lon="11.70097228089399"><ele>355.59999999999997</ele><time>2026-04-11T14:08:40.999Z</time></trkpt><trkpt lat="45.318381517218285" lon="11.700840843080293"><ele>354.79999999999995</ele><time>2026-04-11T14:08:42.999Z</time></trkpt><trkpt lat="45.31831054857321" lon="11.700699191959094"><ele>354.0</ele><time>2026-04-11T14:08:44.999Z</time></trkpt><trkpt lat="45.318265538944814" lon="11.700635120495388"><ele>354.0</ele><time>2026-04-11T14:08:45.999Z</time></trkpt><trkpt lat="45.318209469944186" lon="11.700586907623912"><ele>354.0</ele><time>2026-04-11T14:08:46.999Z</time></trkpt><trkpt lat="45.31815032269189" lon="11.700525219455509"><ele>354.0</ele><time>2026-04-11T14:08:47.999Z</time></trkpt><trkpt lat="45.31807948256755" lon="11.700506809248965"><ele>354.0</ele><time>2026-04-11T14:08:48.999Z</time></trkpt><trkpt lat="45.31800148858068" lon="11.700520314572445"><ele>354.0</ele><time>2026-04-11T14:08:49.999Z</time></trkpt><trkpt lat="45.31792452963293" lon="11.700579923906481"><ele>354.0</ele><time>2026-04-11T14:08:50.999Z</time></trkpt><trkpt lat="45.317852583841415" lon="11.700641199851356"><ele>352.6</ele><time>2026-04-11T14:08:51.999Z</time></trkpt><trkpt lat="45.31777618613002" lon="11.700707108881963"><ele>351.2</ele><time>2026-04-11T14:08:52.999Z</time></trkpt><trkpt lat="45.31770998060502" lon="11.700787589874784"><ele>349.8</ele><time>2026-04-11T14:08:53.999Z</time></trkpt><trkpt lat="45.31762554955429" lon="11.700851207139916"><ele>348.40000000000003</ele><time>2026-04-11T14:08:54.999Z</time></trkpt><trkpt lat="45.31753314801644" lon="11.700871736649706"><ele>347.0</ele><time>2026-04-11T14:08:55.999Z</time></trkpt><trkpt lat="45.31744043788017" lon="11.700897973177533"><ele>347.0</ele><time>2026-04-11T14:08:56.999Z</time></trkpt><trkpt lat="45.317345592958276" lon="11.70091914078699"><ele>347.0</ele><time>2026-04-11T14:08:57.999Z</time></trkpt><trkpt lat="45.317253057604596" lon="11.700940256616782"><ele>347.0</ele><time>2026-04-11T14:08:58.999Z</time></trkpt><trkpt lat="45.31715879995536" lon="11.70096206793056"><ele>347.0</ele><time>2026-04-11T14:08:59.999Z</time></trkpt><trkpt lat="45.31706146479601" lon="11.70098459146305"><ele>347.0</ele><time>2026-04-11T14:09:00.999Z</time></trkpt><trkpt lat="45.31696281183871" lon="11.70100741990944"><ele>346.0</ele><time>2026-04-11T14:09:01.999Z</time></trkpt><trkpt lat="45.31686315029368" lon="11.701030481745612"><ele>345.0</ele><time>2026-04-11T14:09:02.999Z</time></trkpt><trkpt lat="45.316763487298786" lon="11.701054589177604"><ele>344.0</ele><time>2026-04-11T14:09:03.999Z</time></trkpt><trkpt lat="45.316661044508265" lon="11.701080102560077"><ele>343.0</ele><time>2026-04-11T14:09:04.999Z</time></trkpt><trkpt lat="45.31655844849461" lon="11.701105528808045"><ele>342.0</ele><time>2026-04-11T14:09:05.999Z</time></trkpt><trkpt lat="45.316450769649784" lon="11.701125421024146"><ele>332.5</ele><time>2026-04-11T14:09:06.999Z</time></trkpt><trkpt lat="45.316336942268485" lon="11.701103464662285"><ele>323.0</ele><time>2026-04-11T14:09:07.999Z</time></trkpt><trkpt lat="45.3162235970608" lon="11.701120253811961"><ele>313.5</ele><time>2026-04-11T14:09:09Z</time></trkpt><trkpt lat="45.316102557911016" lon="11.701111269325727"><ele>304.0</ele><time>2026-04-11T14:09:10Z</time></trkpt><trkpt lat="45.31597337298652" lon="11.701115324158977"><ele>304.0</ele><time>2026-04-11T14:09:11Z</time></trkpt><trkpt lat="45.31584819660209" lon="11.701095044907854"><ele>304.0</ele><time>2026-04-11T14:09:12Z</time></trkpt><trkpt lat="45.315717957326186" lon="11.701094892370262"><ele>304.0</ele><time>2026-04-11T14:09:13Z</time></trkpt><trkpt lat="45.315585593127224" lon="11.701106462080398"><ele>304.0</ele><time>2026-04-11T14:09:14Z</time></trkpt><trkpt lat="45.315458873417484" lon="11.701111611528388"><ele>302.75</ele><time>2026-04-11T14:09:15Z</time></trkpt><trkpt lat="45.31532516675287" lon="11.701147455528234"><ele>301.5</ele><time>2026-04-11T14:09:16Z</time></trkpt><trkpt lat="45.31518865397877" lon="11.701197870443625"><ele>300.25</ele><time>2026-04-11T14:09:17Z</time></trkpt><trkpt lat="45.315048502284206" lon="11.701258477498568"><ele>299.0</ele><time>2026-04-11T14:09:18Z</time></trkpt><trkpt lat="45.314912027279185" lon="11.701298491127295"><ele>299.0</ele><time>2026-04-11T14:09:19Z</time></trkpt><trkpt lat="45.3147778632471" lon="11.7013510611596"><ele>299.0</ele><time>2026-04-11T14:09:20Z</time></trkpt><trkpt lat="45.3146417089787" lon="11.701398764135625"><ele>299.0</ele><time>2026-04-11T14:09:21Z</time></trkpt><trkpt lat="45.31451938187546" lon="11.701438426406773"><ele>299.0</ele><time>2026-04-11T14:09:22Z</time></trkpt><trkpt lat="45.31440105773818" lon="11.701496611821996"><ele>300.59999999999997</ele><time>2026-04-11T14:09:23Z</time></trkpt><trkpt lat="45.314285682252226" lon="11.701572880320876"><ele>302.2</ele><time>2026-04-11T14:09:24Z</time></trkpt><trkpt lat="45.3141910083123" lon="11.701641782639122"><ele>303.79999999999995</ele><time>2026-04-11T14:09:25Z</time></trkpt><trkpt lat="45.31409764875446" lon="11.701721240429043"><ele>305.4</ele><time>2026-04-11T14:09:26Z</time></trkpt><trkpt lat="45.314015248897334" lon="11.701787378226413"><ele>307.0</ele><time>2026-04-11T14:09:27Z</time></trkpt><trkpt lat="45.31394026762153" lon="11.701869692714164"><ele>306.3333333333333</ele><time>2026-04-11T14:09:28Z</time></trkpt><trkpt lat="45.31387553986744" lon="11.701934610023535"><ele>305.66666666666663</ele><time>2026-04-11T14:09:29Z</time></trkpt><trkpt lat="45.313810945849475" lon="11.701991164644802"><ele>305.0</ele><time>2026-04-11T14:09:30Z</time></trkpt><trkpt lat="45.31374935394638" lon="11.702028573002575"><ele>304.3333333333333</ele><time>2026-04-11T14:09:31Z</time></trkpt><trkpt lat="45.31363182632455" lon="11.701994432336669"><ele>303.6666666666667</ele><time>2026-04-11T14:09:33Z</time></trkpt><trkpt lat="45.313588069748185" lon="11.701927915598668"><ele>303.0</ele><time>2026-04-11T14:09:34Z</time></trkpt><trkpt lat="45.31355757521112" lon="11.701843314511338"><ele>301.4</ele><time>2026-04-11T14:09:35Z</time></trkpt><trkpt lat="45.31354507967909" lon="11.701732321131077"><ele>299.8</ele><time>2026-04-11T14:09:36Z</time></trkpt><trkpt lat="45.31353001488849" lon="11.701601158782758"><ele>298.2</ele><time>2026-04-11T14:09:37Z</time></trkpt><trkpt lat="45.313512805702125" lon="11.7014602015831"><ele>296.6</ele><time>2026-04-11T14:09:38Z</time></trkpt><trkpt lat="45.31348816126999" lon="11.701314256191619"><ele>295.0</ele><time>2026-04-11T14:09:39Z</time></trkpt><trkpt lat="45.313453649566675" lon="11.701172730563433"><ele>295.2</ele><time>2026-04-11T14:09:40Z</time></trkpt><trkpt lat="45.31340916318775" lon="11.701038818878436"><ele>295.4</ele><time>2026-04-11T14:09:41Z</time></trkpt><trkpt lat="45.31336370000145" lon="11.70091068022315"><ele>295.6</ele><time>2026-04-11T14:09:42Z</time></trkpt><trkpt lat="45.31331216003825" lon="11.700787206117706"><ele>295.8</ele><time>2026-04-11T14:09:43Z</time></trkpt><trkpt lat="45.31325741929934" lon="11.700669311696917"><ele>296.0</ele><time>2026-04-11T14:09:44Z</time></trkpt><trkpt lat="45.3132015910101" lon="11.700558013631133"><ele>296.0</ele><time>2026-04-11T14:09:45Z</time></trkpt><trkpt lat="45.3131398715867" lon="11.700452006789067"><ele>296.0</ele><time>2026-04-11T14:09:46Z</time></trkpt><trkpt lat="45.31306735346297" lon="11.700352031145439"><ele>296.0</ele><time>2026-04-11T14:09:47Z</time></trkpt><trkpt lat="45.31296923563796" lon="11.70025869062057"><ele>296.0</ele><time>2026-04-11T14:09:48Z</time></trkpt><trkpt lat="45.31286759879306" lon="11.70016722037091"><ele>296.0</ele><time>2026-04-11T14:09:49Z</time></trkpt><trkpt lat="45.31276466575267" lon="11.700102524537265"><ele>293.5</ele><time>2026-04-11T14:09:50Z</time></trkpt><trkpt lat="45.31266239624368" lon="11.700039950049087"><ele>291.0</ele><time>2026-04-11T14:09:51Z</time></trkpt><trkpt lat="45.31256185998116" lon="11.699966231989078"><ele>288.5</ele><time>2026-04-11T14:09:52Z</time></trkpt><trkpt lat="45.31244938057042" lon="11.699953108213126"><ele>286.0</ele><time>2026-04-11T14:09:53Z</time></trkpt><trkpt lat="45.31234127278498" lon="11.699997458378217"><ele>286.0</ele><time>2026-04-11T14:09:54Z</time></trkpt><trkpt lat="45.312246719941065" lon="11.700015118766961"><ele>286.0</ele><time>2026-04-11T14:09:55Z</time></trkpt><trkpt lat="45.31215654670104" lon="11.70002234158452"><ele>286.0</ele><time>2026-04-11T14:09:56Z</time></trkpt><trkpt lat="45.31205938883017" lon="11.699974803891628"><ele>286.0</ele><time>2026-04-11T14:09:57Z</time></trkpt><trkpt lat="45.31195887875128" lon="11.699928281238344"><ele>286.0</ele><time>2026-04-11T14:09:58Z</time></trkpt><trkpt lat="45.31185600670991" lon="11.699900796708397"><ele>285.8333333333333</ele><time>2026-04-11T14:09:59Z</time></trkpt><trkpt lat="45.311761783373484" lon="11.69985697665314"><ele>285.66666666666663</ele><time>2026-04-11T14:10:00Z</time></trkpt><trkpt lat="45.31167202822617" lon="11.699835831563904"><ele>285.5</ele><time>2026-04-11T14:10:01Z</time></trkpt><trkpt lat="45.31159152335497" lon="11.699840579173882"><ele>285.3333333333333</ele><time>2026-04-11T14:10:02Z</time></trkpt><trkpt lat="45.31151726842457" lon="11.699863795331247"><ele>285.1666666666667</ele><time>2026-04-11T14:10:03Z</time></trkpt><trkpt lat="45.31144243870791" lon="11.69988295847337"><ele>285.0</ele><time>2026-04-11T14:10:04Z</time></trkpt><trkpt lat="45.31137232402258" lon="11.699863891521943"><ele>284.0</ele><time>2026-04-11T14:10:05Z</time></trkpt><trkpt lat="45.31131693817039" lon="11.69980903926905"><ele>283.0</ele><time>2026-04-11T14:10:06Z</time></trkpt><trkpt lat="45.31127423975287" lon="11.699717446717523"><ele>282.0</ele><time>2026-04-11T14:10:07Z</time></trkpt><trkpt lat="45.31124073862163" lon="11.699598980669117"><ele>281.0</ele><time>2026-04-11T14:10:08Z</time></trkpt><trkpt lat="45.31119350240421" lon="11.699474036897257"><ele>280.0</ele><time>2026-04-11T14:10:09Z</time></trkpt><trkpt lat="45.31112032711052" lon="11.699350837637523"><ele>279.0</ele><time>2026-04-11T14:10:10Z</time></trkpt><trkpt lat="45.311040155048794" lon="11.699237348040942"><ele>279.0</ele><time>2026-04-11T14:10:11Z</time></trkpt><trkpt lat="45.310947693138786" lon="11.699135286390375"><ele>279.0</ele><time>2026-04-11T14:10:12Z</time></trkpt><trkpt lat="45.310853206380486" lon="11.699057643563886"><ele>279.0</ele><time>2026-04-11T14:10:13Z</time></trkpt><trkpt lat="45.310751837509976" lon="11.699000731404617"><ele>279.0</ele><time>2026-04-11T14:10:14Z</time></trkpt><trkpt lat="45.310649945967036" lon="11.698955303704064"><ele>279.0</ele><time>2026-04-11T14:10:15Z</time></trkpt><trkpt lat="45.31054778287907" lon="11.698924049087422"><ele>277.3333333333333</ele><time>2026-04-11T14:10:16Z</time></trkpt><trkpt lat="45.310453810584285" lon="11.698910390016957"><ele>275.6666666666667</ele><time>2026-04-11T14:10:17Z</time></trkpt><trkpt lat="45.31036612582069" lon="11.698919979474235"><ele>274.0</ele><time>2026-04-11T14:10:18Z</time></trkpt><trkpt lat="45.31028445755789" lon="11.698963018741422"><ele>272.33333333333337</ele><time>2026-04-11T14:10:18.999Z</time></trkpt><trkpt lat="45.31021260480849" lon="11.699036958175006"><ele>270.6666666666667</ele><time>2026-04-11T14:10:19.999Z</time></trkpt><trkpt lat="45.31014547042411" lon="11.699119200655275"><ele>269.0</ele><time>2026-04-11T14:10:20.999Z</time></trkpt><trkpt lat="45.31012040710451" lon="11.699255648177438"><ele>269.0</ele><time>2026-04-11T14:10:21.999Z</time></trkpt><trkpt lat="45.31008923022608" lon="11.699397639414292"><ele>269.0</ele><time>2026-04-11T14:10:22.999Z</time></trkpt><trkpt lat="45.31003092532795" lon="11.699519655588134"><ele>269.0</ele><time>2026-04-11T14:10:23.999Z</time></trkpt><trkpt lat="45.3099733819393" lon="11.699637660859901"><ele>269.0</ele><time>2026-04-11T14:10:24.999Z</time></trkpt><trkpt lat="45.309901494719284" lon="11.699723981045668"><ele>269.0</ele><time>2026-04-11T14:10:25.999Z</time></trkpt><trkpt lat="45.309823921551356" lon="11.699806838346136"><ele>267.8</ele><time>2026-04-11T14:10:26.999Z</time></trkpt><trkpt lat="45.30973566885349" lon="11.699844310165867"><ele>266.59999999999997</ele><time>2026-04-11T14:10:27.999Z</time></trkpt><trkpt lat="45.309643712268716" lon="11.699887937346588"><ele>265.4</ele><time>2026-04-11T14:10:28.999Z</time></trkpt><trkpt lat="45.30954306353579" lon="11.699946115965874"><ele>264.2</ele><time>2026-04-11T14:10:29.999Z</time></trkpt><trkpt lat="45.30944782543622" lon="11.700050441240032"><ele>263.0</ele><time>2026-04-11T14:10:30.999Z</time></trkpt><trkpt lat="45.309348689724565" lon="11.700141428011493"><ele>263.0</ele><time>2026-04-11T14:10:31.999Z</time></trkpt><trkpt lat="45.30925067799358" lon="11.700223496102263"><ele>263.0</ele><time>2026-04-11T14:10:32.999Z</time></trkpt><trkpt lat="45.30915791508578" lon="11.700287047333811"><ele>263.0</ele><time>2026-04-11T14:10:33.999Z</time></trkpt><trkpt lat="45.3090724358481" lon="11.700335755351443"><ele>263.0</ele><time>2026-04-11T14:10:34.999Z</time></trkpt><trkpt lat="45.308969142119665" lon="11.700323882524426"><ele>263.0</ele><time>2026-04-11T14:10:35.999Z</time></trkpt><trkpt lat="45.30885418618478" lon="11.700299814142138"><ele>263.75</ele><time>2026-04-11T14:10:36.999Z</time></trkpt><trkpt lat="45.30872274687152" lon="11.700285622879386"><ele>264.5</ele><time>2026-04-11T14:10:37.999Z</time></trkpt><trkpt lat="45.30859495047328" lon="11.700271692509983"><ele>265.25</ele><time>2026-04-11T14:10:38.999Z</time></trkpt><trkpt lat="45.308471592150894" lon="11.70024449806957"><ele>266.0</ele><time>2026-04-11T14:10:39.999Z</time></trkpt><trkpt lat="45.30834682602747" lon="11.700181979390905"><ele>266.0</ele><time>2026-04-11T14:10:40.999Z</time></trkpt><trkpt lat="45.30821903426285" lon="11.700123710435857"><ele>266.0</ele><time>2026-04-11T14:10:41.999Z</time></trkpt><trkpt lat="45.308071378811924" lon="11.700061565912343"><ele>266.0</ele><time>2026-04-11T14:10:42.999Z</time></trkpt><trkpt lat="45.30791910958503" lon="11.700018149616083"><ele>266.0</ele><time>2026-04-11T14:10:43.999Z</time></trkpt><trkpt lat="45.30778443833708" lon="11.699903591097799"><ele>263.0</ele><time>2026-04-11T14:10:44.999Z</time></trkpt><trkpt lat="45.3076462229799" lon="11.699802051504678"><ele>260.0</ele><time>2026-04-11T14:10:45.999Z</time></trkpt><trkpt lat="45.307519653707686" lon="11.699733740060601"><ele>257.0</ele><time>2026-04-11T14:10:46.999Z</time></trkpt><trkpt lat="45.30741721881014" lon="11.699662995180834"><ele>254.0</ele><time>2026-04-11T14:10:47.999Z</time></trkpt><trkpt lat="45.30732999816174" lon="11.69958056636557"><ele>254.5</ele><time>2026-04-11T14:10:48.999Z</time></trkpt><trkpt lat="45.307243222142546" lon="11.699464685697933"><ele>255.0</ele><time>2026-04-11T14:10:49.999Z</time></trkpt><trkpt lat="45.307148982193844" lon="11.699338608506023"><ele>255.5</ele><time>2026-04-11T14:10:50.999Z</time></trkpt><trkpt lat="45.307053313986756" lon="11.699213825579383"><ele>256.0</ele><time>2026-04-11T14:10:51.999Z</time></trkpt><trkpt lat="45.30695467722759" lon="11.69912044114844"><ele>257.66666666666663</ele><time>2026-04-11T14:10:52.999Z</time></trkpt><trkpt lat="45.306884037895344" lon="11.699021637564329"><ele>259.3333333333333</ele><time>2026-04-11T14:10:53.999Z</time></trkpt><trkpt lat="45.30681159586137" lon="11.698936533551274"><ele>261.0</ele><time>2026-04-11T14:10:54.999Z</time></trkpt><trkpt lat="45.30675244903295" lon="11.698860304114463"><ele>262.6666666666667</ele><time>2026-04-11T14:10:55.999Z</time></trkpt><trkpt lat="45.30670034740648" lon="11.69878997215328"><ele>264.33333333333337</ele><time>2026-04-11T14:10:56.999Z</time></trkpt><trkpt lat="45.30664734771679" lon="11.698715055214501"><ele>266.0</ele><time>2026-04-11T14:10:57.999Z</time></trkpt><trkpt lat="45.3065635533583" lon="11.698588718504226"><ele>267.0</ele><time>2026-04-11T14:10:59.999Z</time></trkpt><trkpt lat="45.30648619838602" lon="11.698442545990615"><ele>268.0</ele><time>2026-04-11T14:11:01.999Z</time></trkpt><trkpt lat="45.30645821457684" lon="11.69836194155185"><ele>269.0</ele><time>2026-04-11T14:11:02.999Z</time></trkpt><trkpt lat="45.30640539705439" lon="11.698228824336363"><ele>270.0</ele><time>2026-04-11T14:11:04.999Z</time></trkpt><trkpt lat="45.306357302811975" lon="11.69812037656998"><ele>271.0</ele><time>2026-04-11T14:11:06.999Z</time></trkpt><trkpt lat="45.306323057384006" lon="11.698040883929838"><ele>271.0</ele><time>2026-04-11T14:11:07.999Z</time></trkpt><trkpt lat="45.306278900950254" lon="11.697939670264445"><ele>271.0</ele><time>2026-04-11T14:11:08.999Z</time></trkpt><trkpt lat="45.30622654826574" lon="11.697815882681708"><ele>271.0</ele><time>2026-04-11T14:11:09.999Z</time></trkpt><trkpt lat="45.30617398867906" lon="11.697683379726469"><ele>271.0</ele><time>2026-04-11T14:11:10.999Z</time></trkpt><trkpt lat="45.30613237585167" lon="11.697540985117746"><ele>271.0</ele><time>2026-04-11T14:11:11.999Z</time></trkpt><trkpt lat="45.30608346947875" lon="11.697408539786556"><ele>268.8</ele><time>2026-04-11T14:11:12.999Z</time></trkpt><trkpt lat="45.30603969959519" lon="11.69727126441433"><ele>266.6</ele><time>2026-04-11T14:11:13.999Z</time></trkpt><trkpt lat="45.3060015317113" lon="11.69713172190137"><ele>264.4</ele><time>2026-04-11T14:11:14.999Z</time></trkpt><trkpt lat="45.30595203348679" lon="11.69699204079517"><ele>262.2</ele><time>2026-04-11T14:11:16Z</time></trkpt><trkpt lat="45.30592461848691" lon="11.696836479162329"><ele>260.0</ele><time>2026-04-11T14:11:17Z</time></trkpt><trkpt lat="45.30589329943099" lon="11.696687432277034"><ele>259.5</ele><time>2026-04-11T14:11:18Z</time></trkpt><trkpt lat="45.30585974493888" lon="11.696531706674936"><ele>259.0</ele><time>2026-04-11T14:11:19Z</time></trkpt><trkpt lat="45.30582413963117" lon="11.696374313221536"><ele>258.5</ele><time>2026-04-11T14:11:20Z</time></trkpt><trkpt lat="45.305799686455785" lon="11.696213177245712"><ele>258.0</ele><time>2026-04-11T14:11:21Z</time></trkpt><trkpt lat="45.305732214599836" lon="11.696065833664004"><ele>257.25</ele><time>2026-04-11T14:11:22Z</time></trkpt><trkpt lat="45.305687270029466" lon="11.695910460292662"><ele>256.5</ele><time>2026-04-11T14:11:23Z</time></trkpt><trkpt lat="45.30563206711725" lon="11.695759959772422"><ele>255.75</ele><time>2026-04-11T14:11:24Z</time></trkpt><trkpt lat="45.30558513362929" lon="11.69560525911982"><ele>255.0</ele><time>2026-04-11T14:11:25Z</time></trkpt><trkpt lat="45.30554608022579" lon="11.695450962648115"><ele>250.75</ele><time>2026-04-11T14:11:26Z</time></trkpt><trkpt lat="45.30551385532387" lon="11.69528679927688"><ele>246.5</ele><time>2026-04-11T14:11:27Z</time></trkpt><trkpt lat="45.305477518533095" lon="11.695125193271084"><ele>242.25</ele><time>2026-04-11T14:11:28Z</time></trkpt><trkpt lat="45.30544346969232" lon="11.694972100328313"><ele>238.0</ele><time>2026-04-11T14:11:29Z</time></trkpt><trkpt lat="45.30540504647715" lon="11.694822421142073"><ele>237.0</ele><time>2026-04-11T14:11:30Z</time></trkpt><trkpt lat="45.30536507186866" lon="11.694682744524382"><ele>236.0</ele><time>2026-04-11T14:11:31Z</time></trkpt><trkpt lat="45.30530252456274" lon="11.694551924214132"><ele>235.0</ele><time>2026-04-11T14:11:32Z</time></trkpt><trkpt lat="45.3052248559178" lon="11.694444440334259"><ele>234.0</ele><time>2026-04-11T14:11:33Z</time></trkpt><trkpt lat="45.3051448239422" lon="11.694342421327585"><ele>233.0</ele><time>2026-04-11T14:11:34Z</time></trkpt><trkpt lat="45.30506977343317" lon="11.694231149334687"><ele>233.0</ele><time>2026-04-11T14:11:35Z</time></trkpt><trkpt lat="45.30502566413096" lon="11.694105562712915"><ele>233.0</ele><time>2026-04-11T14:11:36Z</time></trkpt><trkpt lat="45.3049827142188" lon="11.693970968189848"><ele>233.0</ele><time>2026-04-11T14:11:37Z</time></trkpt><trkpt lat="45.30494610418725" lon="11.693815111355025"><ele>233.0</ele><time>2026-04-11T14:11:38Z</time></trkpt><trkpt lat="45.30489692019223" lon="11.693663380061558"><ele>233.0</ele><time>2026-04-11T14:11:39Z</time></trkpt><trkpt lat="45.30484633552753" lon="11.69350822953194"><ele>233.0</ele><time>2026-04-11T14:11:40Z</time></trkpt><trkpt lat="45.30478913205653" lon="11.693362760020145"><ele>233.0</ele><time>2026-04-11T14:11:41Z</time></trkpt><trkpt lat="45.30471627198682" lon="11.693230441405028"><ele>233.0</ele><time>2026-04-11T14:11:42Z</time></trkpt><trkpt lat="45.30464053166015" lon="11.69311512158729"><ele>233.0</ele><time>2026-04-11T14:11:43Z</time></trkpt><trkpt lat="45.30457109702414" lon="11.693003779408919"><ele>230.2</ele><time>2026-04-11T14:11:44Z</time></trkpt><trkpt lat="45.30450284908705" lon="11.692899569923554"><ele>227.4</ele><time>2026-04-11T14:11:45Z</time></trkpt><trkpt lat="45.304423591738995" lon="11.692819308285355"><ele>224.59999999999997</ele><time>2026-04-11T14:11:46Z</time></trkpt><trkpt lat="45.3043292170945" lon="11.692773745322198"><ele>221.79999999999998</ele><time>2026-04-11T14:11:47Z</time></trkpt><trkpt lat="45.304227188033444" lon="11.692703148609803"><ele>219.0</ele><time>2026-04-11T14:11:48Z</time></trkpt><trkpt lat="45.304112678990705" lon="11.692662686475192"><ele>219.0</ele><time>2026-04-11T14:11:49Z</time></trkpt><trkpt lat="45.30400447950297" lon="11.692582156220436"><ele>219.0</ele><time>2026-04-11T14:11:50Z</time></trkpt><trkpt lat="45.30389875723634" lon="11.692487351543253"><ele>219.0</ele><time>2026-04-11T14:11:51Z</time></trkpt><trkpt lat="45.30378543584975" lon="11.692381031365803"><ele>219.0</ele><time>2026-04-11T14:11:52Z</time></trkpt><trkpt lat="45.30366605037744" lon="11.692271268655176"><ele>217.0</ele><time>2026-04-11T14:11:53Z</time></trkpt><trkpt lat="45.30354663053824" lon="11.692162165590458"><ele>215.0</ele><time>2026-04-11T14:11:54Z</time></trkpt><trkpt lat="45.30343461620799" lon="11.69204774418575"><ele>213.0</ele><time>2026-04-11T14:11:55Z</time></trkpt><trkpt lat="45.30332258602056" lon="11.69193078645688"><ele>211.0</ele><time>2026-04-11T14:11:56Z</time></trkpt><trkpt lat="45.303211923859145" lon="11.69182062306953"><ele>210.25</ele><time>2026-04-11T14:11:57Z</time></trkpt><trkpt lat="45.30310527335427" lon="11.69172628967255"><ele>209.5</ele><time>2026-04-11T14:11:58Z</time></trkpt><trkpt lat="45.302995812209005" lon="11.69162874611183"><ele>208.75</ele><time>2026-04-11T14:11:59Z</time></trkpt><trkpt lat="45.302879355988104" lon="11.69155430260872"><ele>208.0</ele><time>2026-04-11T14:12:00Z</time></trkpt><trkpt lat="45.302753378811495" lon="11.691509549110476"><ele>207.25</ele><time>2026-04-11T14:12:01Z</time></trkpt><trkpt lat="45.3026331488177" lon="11.691479077144656"><ele>206.5</ele><time>2026-04-11T14:12:02Z</time></trkpt><trkpt lat="45.30250923206303" lon="11.691451136291981"><ele>205.75</ele><time>2026-04-11T14:12:03Z</time></trkpt><trkpt lat="45.30238447120688" lon="11.69142017104988"><ele>205.0</ele><time>2026-04-11T14:12:04Z</time></trkpt><trkpt lat="45.30225783939783" lon="11.691396192384385"><ele>202.0</ele><time>2026-04-11T14:12:05Z</time></trkpt><trkpt lat="45.30213248648935" lon="11.691389831466838"><ele>199.0</ele><time>2026-04-11T14:12:05.999Z</time></trkpt><trkpt lat="45.302003814597136" lon="11.691399161098808"><ele>196.0</ele><time>2026-04-11T14:12:06.999Z</time></trkpt><trkpt lat="45.30187732373737" lon="11.691424944632328"><ele>193.0</ele><time>2026-04-11T14:12:07.999Z</time></trkpt><trkpt lat="45.30174928373223" lon="11.69142293727217"><ele>193.0</ele><time>2026-04-11T14:12:08.999Z</time></trkpt><trkpt lat="45.30162723283335" lon="11.69145255295551"><ele>193.0</ele><time>2026-04-11T14:12:09.999Z</time></trkpt><trkpt lat="45.30150963688446" lon="11.69146261419529"><ele>193.0</ele><time>2026-04-11T14:12:10.999Z</time></trkpt><trkpt lat="45.30139531232226" lon="11.6914439004759"><ele>193.0</ele><time>2026-04-11T14:12:11.999Z</time></trkpt><trkpt lat="45.3012857340818" lon="11.691401983013408"><ele>192.0</ele><time>2026-04-11T14:12:12.999Z</time></trkpt><trkpt lat="45.301192460141515" lon="11.69132060377168"><ele>191.0</ele><time>2026-04-11T14:12:13.999Z</time></trkpt><trkpt lat="45.30112842444957" lon="11.691186138983376"><ele>190.0</ele><time>2026-04-11T14:12:14.999Z</time></trkpt><trkpt lat="45.30104375929795" lon="11.69104352570049"><ele>189.0</ele><time>2026-04-11T14:12:15.999Z</time></trkpt><trkpt lat="45.30097803570564" lon="11.69087057314477"><ele>189.0</ele><time>2026-04-11T14:12:16.999Z</time></trkpt><trkpt lat="45.30090831349012" lon="11.69069225750485"><ele>189.0</ele><time>2026-04-11T14:12:17.999Z</time></trkpt><trkpt lat="45.30083961043304" lon="11.690522594748678"><ele>189.0</ele><time>2026-04-11T14:12:18.999Z</time></trkpt><trkpt lat="45.3007697311809" lon="11.690364743684054"><ele>189.0</ele><time>2026-04-11T14:12:19.999Z</time></trkpt><trkpt lat="45.30069345535342" lon="11.690201029558407"><ele>188.0</ele><time>2026-04-11T14:12:20.999Z</time></trkpt><trkpt lat="45.300606644303514" lon="11.690035297559676"><ele>187.0</ele><time>2026-04-11T14:12:21.999Z</time></trkpt><trkpt lat="45.30051956174875" lon="11.689872839012555"><ele>186.0</ele><time>2026-04-11T14:12:22.999Z</time></trkpt><trkpt lat="45.30043889800725" lon="11.689713130760873"><ele>185.0</ele><time>2026-04-11T14:12:23.999Z</time></trkpt><trkpt lat="45.30036381076648" lon="11.689562898686988"><ele>182.75</ele><time>2026-04-11T14:12:24.999Z</time></trkpt><trkpt lat="45.30028247917891" lon="11.689413777393863"><ele>180.5</ele><time>2026-04-11T14:12:25.999Z</time></trkpt><trkpt lat="45.30020634462988" lon="11.689274344773036"><ele>178.25</ele><time>2026-04-11T14:12:26.999Z</time></trkpt><trkpt lat="45.300137484195226" lon="11.689125645645028"><ele>176.0</ele><time>2026-04-11T14:12:27.999Z</time></trkpt><trkpt lat="45.3000634957985" lon="11.688980445124406"><ele>176.0</ele><time>2026-04-11T14:12:28.999Z</time></trkpt><trkpt lat="45.299992974696394" lon="11.688836069047507"><ele>176.0</ele><time>2026-04-11T14:12:29.999Z</time></trkpt><trkpt lat="45.29992497480116" lon="11.688710405770848"><ele>176.0</ele><time>2026-04-11T14:12:30.999Z</time></trkpt><trkpt lat="45.29985615508229" lon="11.688611033303813"><ele>176.0</ele><time>2026-04-11T14:12:31.999Z</time></trkpt><trkpt lat="45.29978042332083" lon="11.688544053707377"><ele>176.0</ele><time>2026-04-11T14:12:32.999Z</time></trkpt><trkpt lat="45.29969856548232" lon="11.68851110456381"><ele>175.0</ele><time>2026-04-11T14:12:33.999Z</time></trkpt><trkpt lat="45.2996100234648" lon="11.688512584020314"><ele>174.0</ele><time>2026-04-11T14:12:34.999Z</time></trkpt><trkpt lat="45.29952358786194" lon="11.688553548041273"><ele>173.0</ele><time>2026-04-11T14:12:35.999Z</time></trkpt><trkpt lat="45.299436326262764" lon="11.688634690516325"><ele>172.0</ele><time>2026-04-11T14:12:36.999Z</time></trkpt><trkpt lat="45.299359279122434" lon="11.688740329827498"><ele>171.0</ele><time>2026-04-11T14:12:37.999Z</time></trkpt><trkpt lat="45.299285853892826" lon="11.688853649699482"><ele>171.0</ele><time>2026-04-11T14:12:38.999Z</time></trkpt><trkpt lat="45.29921551012532" lon="11.688973201303174"><ele>171.0</ele><time>2026-04-11T14:12:39.999Z</time></trkpt><trkpt lat="45.29915805057457" lon="11.689104801670652"><ele>171.0</ele><time>2026-04-11T14:12:40.999Z</time></trkpt><trkpt lat="45.29910797717579" lon="11.689248334994016"><ele>171.0</ele><time>2026-04-11T14:12:41.999Z</time></trkpt><trkpt lat="45.29906148682426" lon="11.689381790644585"><ele>171.0</ele><time>2026-04-11T14:12:42.999Z</time></trkpt><trkpt lat="45.29901046661619" lon="11.689494326955211"><ele>171.83333333333334</ele><time>2026-04-11T14:12:43.999Z</time></trkpt><trkpt lat="45.29894798088734" lon="11.689589721087012"><ele>172.66666666666666</ele><time>2026-04-11T14:12:44.999Z</time></trkpt><trkpt lat="45.298872527433744" lon="11.689650730589971"><ele>173.5</ele><time>2026-04-11T14:12:45.999Z</time></trkpt><trkpt lat="45.29878296292552" lon="11.68967556180626"><ele>174.33333333333331</ele><time>2026-04-11T14:12:46.999Z</time></trkpt><trkpt lat="45.29869843303717" lon="11.689689524740857"><ele>175.16666666666666</ele><time>2026-04-11T14:12:47.999Z</time></trkpt><trkpt lat="45.29861876223804" lon="11.689736518275861"><ele>176.0</ele><time>2026-04-11T14:12:48.999Z</time></trkpt><trkpt lat="45.29854519445785" lon="11.68980551353958"><ele>173.4</ele><time>2026-04-11T14:12:49.999Z</time></trkpt><trkpt lat="45.29847753472245" lon="11.689901228750383"><ele>170.8</ele><time>2026-04-11T14:12:50.999Z</time></trkpt><trkpt lat="45.29841172214398" lon="11.690018707867685"><ele>168.20000000000002</ele><time>2026-04-11T14:12:51.999Z</time></trkpt><trkpt lat="45.29834607983639" lon="11.690138538016988"><ele>165.60000000000002</ele><time>2026-04-11T14:12:52.999Z</time></trkpt><trkpt lat="45.298277762305474" lon="11.690239346764145"><ele>163.0</ele><time>2026-04-11T14:12:53.999Z</time></trkpt><trkpt lat="45.29821770857748" lon="11.690321598036453"><ele>163.0</ele><time>2026-04-11T14:12:54.999Z</time></trkpt><trkpt lat="45.29816870580176" lon="11.690397805972063"><ele>163.0</ele><time>2026-04-11T14:12:55.999Z</time></trkpt><trkpt lat="45.298094141792895" lon="11.690501975710093"><ele>163.0</ele><time>2026-04-11T14:12:57.999Z</time></trkpt><trkpt lat="45.298014058163695" lon="11.690479183034261"><ele>163.0</ele><time>2026-04-11T14:12:59.999Z</time></trkpt><trkpt lat="45.297988273494035" lon="11.690318765394087"><ele>163.0</ele><time>2026-04-11T14:13:01.999Z</time></trkpt><trkpt lat="45.29803358679721" lon="11.690223859187075"><ele>162.8</ele><time>2026-04-11T14:13:02.999Z</time></trkpt><trkpt lat="45.2980474084146" lon="11.690085451470217"><ele>162.60000000000002</ele><time>2026-04-11T14:13:03.999Z</time></trkpt><trkpt lat="45.29807952344875" lon="11.689938895210854"><ele>162.39999999999998</ele><time>2026-04-11T14:13:04.999Z</time></trkpt><trkpt lat="45.29809178566894" lon="11.689788011426598"><ele>162.2</ele><time>2026-04-11T14:13:05.999Z</time></trkpt><trkpt lat="45.29809729894021" lon="11.689629011908039"><ele>162.0</ele><time>2026-04-11T14:13:06.999Z</time></trkpt><trkpt lat="45.29810110790719" lon="11.68947459696173"><ele>160.79999999999998</ele><time>2026-04-11T14:13:07.999Z</time></trkpt><trkpt lat="45.29811307298685" lon="11.689319189716205"><ele>159.6</ele><time>2026-04-11T14:13:08.999Z</time></trkpt><trkpt lat="45.2981284236342" lon="11.689156739237468"><ele>158.39999999999998</ele><time>2026-04-11T14:13:09.999Z</time></trkpt><trkpt lat="45.29810722791924" lon="11.688999891167931"><ele>157.2</ele><time>2026-04-11T14:13:10.999Z</time></trkpt><trkpt lat="45.29809433012685" lon="11.688845370134725"><ele>156.0</ele><time>2026-04-11T14:13:11.999Z</time></trkpt><trkpt lat="45.29807706677162" lon="11.688698057227725"><ele>152.33333333333334</ele><time>2026-04-11T14:13:12.999Z</time></trkpt><trkpt lat="45.29806018182009" lon="11.688570312029487"><ele>148.66666666666666</ele><time>2026-04-11T14:13:13.999Z</time></trkpt><trkpt lat="45.298038963901845" lon="11.688463140229883"><ele>145.0</ele><time>2026-04-11T14:13:14.999Z</time></trkpt><trkpt lat="45.2980002350573" lon="11.688363126747353"><ele>141.33333333333331</ele><time>2026-04-11T14:13:15.999Z</time></trkpt><trkpt lat="45.29793967766581" lon="11.688285781384568"><ele>137.66666666666666</ele><time>2026-04-11T14:13:16.999Z</time></trkpt><trkpt lat="45.2978631433997" lon="11.688242526481078"><ele>134.0</ele><time>2026-04-11T14:13:17.999Z</time></trkpt><trkpt lat="45.29777424534482" lon="11.68822118265869"><ele>134.0</ele><time>2026-04-11T14:13:18.999Z</time></trkpt><trkpt lat="45.29767711640903" lon="11.688215136426164"><ele>134.0</ele><time>2026-04-11T14:13:19.999Z</time></trkpt><trkpt lat="45.29757590563167" lon="11.68820382035389"><ele>134.0</ele><time>2026-04-11T14:13:21Z</time></trkpt><trkpt lat="45.29747046821601" lon="11.688184363805934"><ele>134.0</ele><time>2026-04-11T14:13:22Z</time></trkpt><trkpt lat="45.29735843507408" lon="11.688174336864607"><ele>134.0</ele><time>2026-04-11T14:13:23Z</time></trkpt><trkpt lat="45.29724727829082" lon="11.688188726502771"><ele>131.75</ele><time>2026-04-11T14:13:24Z</time></trkpt><trkpt lat="45.29713279172825" lon="11.688216338123528"><ele>129.5</ele><time>2026-04-11T14:13:25Z</time></trkpt><trkpt lat="45.29702317005864" lon="11.688237705437365"><ele>127.25</ele><time>2026-04-11T14:13:26Z</time></trkpt><trkpt lat="45.296906349156174" lon="11.68824132105402"><ele>125.0</ele><time>2026-04-11T14:13:27Z</time></trkpt><trkpt lat="45.29678787815279" lon="11.68824337991129"><ele>125.0</ele><time>2026-04-11T14:13:28Z</time></trkpt><trkpt lat="45.296675438261" lon="11.688250653959404"><ele>125.0</ele><time>2026-04-11T14:13:29Z</time></trkpt><trkpt lat="45.29656313447379" lon="11.68825408415428"><ele>125.0</ele><time>2026-04-11T14:13:30Z</time></trkpt><trkpt lat="45.2964595185044" lon="11.688266655490867"><ele>125.0</ele><time>2026-04-11T14:13:31Z</time></trkpt><trkpt lat="45.29636961052418" lon="11.688294946516965"><ele>125.0</ele><time>2026-04-11T14:13:32Z</time></trkpt><trkpt lat="45.29628276499484" lon="11.688346342676908"><ele>122.8</ele><time>2026-04-11T14:13:33Z</time></trkpt><trkpt lat="45.29620174048669" lon="11.688437421644748"><ele>120.6</ele><time>2026-04-11T14:13:34Z</time></trkpt><trkpt lat="45.29613766541111" lon="11.688549862014101"><ele>118.4</ele><time>2026-04-11T14:13:35Z</time></trkpt><trkpt lat="45.29608170035695" lon="11.688669798677854"><ele>116.2</ele><time>2026-04-11T14:13:36Z</time></trkpt><trkpt lat="45.29603767654009" lon="11.688795066334833"><ele>114.0</ele><time>2026-04-11T14:13:37Z</time></trkpt><trkpt lat="45.29601196627669" lon="11.688923992263627"><ele>113.4</ele><time>2026-04-11T14:13:38Z</time></trkpt><trkpt lat="45.2960060567057" lon="11.68906627400825"><ele>112.80000000000001</ele><time>2026-04-11T14:13:39Z</time></trkpt><trkpt lat="45.29601410348465" lon="11.68920332164439"><ele>112.19999999999999</ele><time>2026-04-11T14:13:40Z</time></trkpt><trkpt lat="45.29602682605819" lon="11.689341238273036"><ele>111.6</ele><time>2026-04-11T14:13:41Z</time></trkpt><trkpt lat="45.29604493170529" lon="11.68948487043312"><ele>111.0</ele><time>2026-04-11T14:13:42Z</time></trkpt><trkpt lat="45.296065579171504" lon="11.68962829832734"><ele>110.33333333333333</ele><time>2026-04-11T14:13:43Z</time></trkpt><trkpt lat="45.29608188458161" lon="11.689746876072636"><ele>109.66666666666666</ele><time>2026-04-11T14:13:44Z</time></trkpt><trkpt lat="45.29608222440379" lon="11.689853291099396"><ele>109.0</ele><time>2026-04-11T14:13:45Z</time></trkpt><trkpt lat="45.296091850853365" lon="11.689943217664984"><ele>108.33333333333333</ele><time>2026-04-11T14:13:46Z</time></trkpt><trkpt lat="45.29607682782786" lon="11.690069766525028"><ele>107.66666666666666</ele><time>2026-04-11T14:13:48Z</time></trkpt><trkpt lat="45.29599578711005" lon="11.69010804647962"><ele>107.0</ele><time>2026-04-11T14:13:50Z</time></trkpt><trkpt lat="45.295887630944996" lon="11.69001807462712"><ele>107.0</ele><time>2026-04-11T14:13:51Z</time></trkpt><trkpt lat="45.295802641037504" lon="11.689937391149195"><ele>106.99999999999999</ele><time>2026-04-11T14:13:52Z</time></trkpt><trkpt lat="45.29571996321739" lon="11.689832819583234"><ele>106.99999999999999</ele><time>2026-04-11T14:13:53Z</time></trkpt><trkpt lat="45.29565412952096" lon="11.689714500949123"><ele>107.0</ele><time>2026-04-11T14:13:54Z</time></trkpt><trkpt lat="45.295594118835616" lon="11.68957085726772"><ele>107.0</ele><time>2026-04-11T14:13:55Z</time></trkpt><trkpt lat="45.2955231303941" lon="11.689396908410203"><ele>104.5</ele><time>2026-04-11T14:13:56Z</time></trkpt><trkpt lat="45.295440516101344" lon="11.68922667050743"><ele>102.0</ele><time>2026-04-11T14:13:57Z</time></trkpt><trkpt lat="45.295352979678675" lon="11.689072435862828"><ele>99.5</ele><time>2026-04-11T14:13:58Z</time></trkpt><trkpt lat="45.29528151517636" lon="11.688928702971994"><ele>97.0</ele><time>2026-04-11T14:13:59Z</time></trkpt><trkpt lat="45.295230728093614" lon="11.688777168331026"><ele>97.0</ele><time>2026-04-11T14:14:00Z</time></trkpt><trkpt lat="45.29522539961324" lon="11.688618936180294"><ele>97.0</ele><time>2026-04-11T14:14:01Z</time></trkpt><trkpt lat="45.2952062041839" lon="11.688461157485149"><ele>97.0</ele><time>2026-04-11T14:14:02Z</time></trkpt><trkpt lat="45.29523708106385" lon="11.688289359840349"><ele>97.0</ele><time>2026-04-11T14:14:03Z</time></trkpt><trkpt lat="45.29526817646263" lon="11.688126380811669"><ele>97.39999999999999</ele><time>2026-04-11T14:14:04Z</time></trkpt><trkpt lat="45.29531148829594" lon="11.687964899543049"><ele>97.8</ele><time>2026-04-11T14:14:05Z</time></trkpt><trkpt lat="45.29534573957975" lon="11.68780354431473"><ele>98.2</ele><time>2026-04-11T14:14:06Z</time></trkpt><trkpt lat="45.295404362615336" lon="11.687683577653221"><ele>98.6</ele><time>2026-04-11T14:14:07Z</time></trkpt><trkpt lat="45.295441886375066" lon="11.687573081480155"><ele>99.0</ele><time>2026-04-11T14:14:08Z</time></trkpt><trkpt lat="45.295460103326505" lon="11.687458368415339"><ele>99.2</ele><time>2026-04-11T14:14:09Z</time></trkpt><trkpt lat="45.29545083354839" lon="11.687344505270042"><ele>99.4</ele><time>2026-04-11T14:14:10Z</time></trkpt><trkpt lat="45.29543939425055" lon="11.687217938423474"><ele>99.6</ele><time>2026-04-11T14:14:11Z</time></trkpt><trkpt lat="45.29536466386638" lon="11.6871020228749"><ele>99.8</ele><time>2026-04-11T14:14:12Z</time></trkpt><trkpt lat="45.295294574337746" lon="11.68698579956383"><ele>100.0</ele><time>2026-04-11T14:14:13Z</time></trkpt><trkpt lat="45.29520410017548" lon="11.686861034275093"><ele>99.0</ele><time>2026-04-11T14:14:14Z</time></trkpt><trkpt lat="45.29511538477345" lon="11.686729190710226"><ele>98.0</ele><time>2026-04-11T14:14:15Z</time></trkpt><trkpt lat="45.29503141712566" lon="11.686602452402193"><ele>97.0</ele><time>2026-04-11T14:14:16Z</time></trkpt><trkpt lat="45.294953750786426" lon="11.68647538952157"><ele>96.0</ele><time>2026-04-11T14:14:17Z</time></trkpt><trkpt lat="45.29487016913204" lon="11.686370274144291"><ele>96.0</ele><time>2026-04-11T14:14:18Z</time></trkpt><trkpt lat="45.29477365614574" lon="11.68629462447929"><ele>96.0</ele><time>2026-04-11T14:14:19Z</time></trkpt><trkpt lat="45.2946627284014" lon="11.686249863787673"><ele>96.0</ele><time>2026-04-11T14:14:20Z</time></trkpt><trkpt lat="45.294556781489824" lon="11.686191164661674"><ele>96.0</ele><time>2026-04-11T14:14:21Z</time></trkpt><trkpt lat="45.29444826015833" lon="11.686167113558394"><ele>96.0</ele><time>2026-04-11T14:14:22Z</time></trkpt><trkpt lat="45.29435378536897" lon="11.686122837068783"><ele>94.8</ele><time>2026-04-11T14:14:23Z</time></trkpt><trkpt lat="45.2942797513172" lon="11.686056449413035"><ele>93.6</ele><time>2026-04-11T14:14:24Z</time></trkpt><trkpt lat="45.2942144013525" lon="11.68597175404487"><ele>92.4</ele><time>2026-04-11T14:14:25Z</time></trkpt><trkpt lat="45.29416670797585" lon="11.685840115886606"><ele>91.2</ele><time>2026-04-11T14:14:26Z</time></trkpt><trkpt lat="45.29412503503635" lon="11.685688421737844"><ele>90.0</ele><time>2026-04-11T14:14:27Z</time></trkpt><trkpt lat="45.29408035900166" lon="11.685523123336768"><ele>90.0</ele><time>2026-04-11T14:14:28Z</time></trkpt><trkpt lat="45.29405971553272" lon="11.6853362397276"><ele>90.0</ele><time>2026-04-11T14:14:29Z</time></trkpt><trkpt lat="45.2940137305421" lon="11.68512834064372"><ele>90.0</ele><time>2026-04-11T14:14:30Z</time></trkpt><trkpt lat="45.2939857318432" lon="11.684900778854692"><ele>90.0</ele><time>2026-04-11T14:14:31Z</time></trkpt><trkpt lat="45.29394648195747" lon="11.68465464316428"><ele>91.0</ele><time>2026-04-11T14:14:32Z</time></trkpt><trkpt lat="45.293902962055796" lon="11.684408591447653"><ele>92.0</ele><time>2026-04-11T14:14:33Z</time></trkpt><trkpt lat="45.29387197574883" lon="11.684190487911971"><ele>93.0</ele><time>2026-04-11T14:14:33.999Z</time></trkpt><trkpt lat="45.29383462210169" lon="11.683980935921921"><ele>93.0</ele><time>2026-04-11T14:14:34.999Z</time></trkpt><trkpt lat="45.293823788674324" lon="11.683777488420873"><ele>93.0</ele><time>2026-04-11T14:14:35.999Z</time></trkpt><trkpt lat="45.293828272221475" lon="11.683586270704549"><ele>93.0</ele><time>2026-04-11T14:14:36.999Z</time></trkpt><trkpt lat="45.29383585187545" lon="11.683419262934352"><ele>93.0</ele><time>2026-04-11T14:14:37.999Z</time></trkpt><trkpt lat="45.293832230321854" lon="11.683270910597834"><ele>91.4</ele><time>2026-04-11T14:14:38.999Z</time></trkpt><trkpt lat="45.29380304630264" lon="11.683138649241302"><ele>89.80000000000001</ele><time>2026-04-11T14:14:39.999Z</time></trkpt><trkpt lat="45.293756148621846" lon="11.683019010138395"><ele>88.2</ele><time>2026-04-11T14:14:40.999Z</time></trkpt><trkpt lat="45.29368097077499" lon="11.682921102014"><ele>86.6</ele><time>2026-04-11T14:14:41.999Z</time></trkpt><trkpt lat="45.293583617516404" lon="11.682852454811927"><ele>85.0</ele><time>2026-04-11T14:14:42.999Z</time></trkpt><trkpt lat="45.293480595545965" lon="11.682773486798974"><ele>83.75</ele><time>2026-04-11T14:14:43.999Z</time></trkpt><trkpt lat="45.29338199055857" lon="11.682712951153583"><ele>82.5</ele><time>2026-04-11T14:14:44.999Z</time></trkpt><trkpt lat="45.293301087880444" lon="11.68267024233101"><ele>81.25</ele><time>2026-04-11T14:14:45.999Z</time></trkpt><trkpt lat="45.29321218123625" lon="11.682444770687672"><ele>80.0</ele><time>2026-04-11T14:14:47.999Z</time></trkpt><trkpt lat="45.2932081332006" lon="11.682291949792967"><ele>80.0</ele><time>2026-04-11T14:14:48.999Z</time></trkpt><trkpt lat="45.29321230650623" lon="11.682121729865319"><ele>80.0</ele><time>2026-04-11T14:14:49.999Z</time></trkpt><trkpt lat="45.2932070442799" lon="11.681940907518506"><ele>80.0</ele><time>2026-04-11T14:14:50.999Z</time></trkpt><trkpt lat="45.29318898879756" lon="11.681751594311894"><ele>80.0</ele><time>2026-04-11T14:14:51.999Z</time></trkpt><trkpt lat="45.29315816482109" lon="11.68156090172345"><ele>79.75</ele><time>2026-04-11T14:14:52.999Z</time></trkpt><trkpt lat="45.293113633493746" lon="11.68137855468688"><ele>79.5</ele><time>2026-04-11T14:14:53.999Z</time></trkpt><trkpt lat="45.29305302863185" lon="11.681186771488013"><ele>79.25</ele><time>2026-04-11T14:14:54.999Z</time></trkpt><trkpt lat="45.29298103145387" lon="11.68100372394173"><ele>79.0</ele><time>2026-04-11T14:14:55.999Z</time></trkpt><trkpt lat="45.292910529937814" lon="11.680836571563397"><ele>78.0</ele><time>2026-04-11T14:14:56.999Z</time></trkpt><trkpt lat="45.29284803821689" lon="11.680670364382225"><ele>77.0</ele><time>2026-04-11T14:14:57.999Z</time></trkpt><trkpt lat="45.29279609576907" lon="11.680502628284062"><ele>76.0</ele><time>2026-04-11T14:14:58.999Z</time></trkpt><trkpt lat="45.29274741562358" lon="11.680341990852531"><ele>75.0</ele><time>2026-04-11T14:14:59.999Z</time></trkpt><trkpt lat="45.29270659402572" lon="11.68018543833926"><ele>75.0</ele><time>2026-04-11T14:15:00.999Z</time></trkpt><trkpt lat="45.29266716844035" lon="11.68002872488172"><ele>75.0</ele><time>2026-04-11T14:15:01.999Z</time></trkpt><trkpt lat="45.2926164172821" lon="11.679875212664163"><ele>75.0</ele><time>2026-04-11T14:15:02.999Z</time></trkpt><trkpt lat="45.29255627650864" lon="11.679722338423538"><ele>75.0</ele><time>2026-04-11T14:15:03.999Z</time></trkpt><trkpt lat="45.29246299853672" lon="11.679571445366767"><ele>73.66666666666667</ele><time>2026-04-11T14:15:04.999Z</time></trkpt><trkpt lat="45.29235172102557" lon="11.679420224369514"><ele>72.33333333333334</ele><time>2026-04-11T14:15:05.999Z</time></trkpt><trkpt lat="45.29222960050203" lon="11.679279183431793"><ele>71.0</ele><time>2026-04-11T14:15:06.999Z</time></trkpt><trkpt lat="45.29212303570385" lon="11.679088061310463"><ele>72.66666666666667</ele><time>2026-04-11T14:15:07.999Z</time></trkpt><trkpt lat="45.29201761709648" lon="11.678887872096428"><ele>74.33333333333333</ele><time>2026-04-11T14:15:08.999Z</time></trkpt><trkpt lat="45.29193808012773" lon="11.678701113489451"><ele>76.0</ele><time>2026-04-11T14:15:09.999Z</time></trkpt><trkpt lat="45.29187894481101" lon="11.678540806575116"><ele>76.0</ele><time>2026-04-11T14:15:10.999Z</time></trkpt><trkpt lat="45.29183402270357" lon="11.678417381282259"><ele>76.0</ele><time>2026-04-11T14:15:11.999Z</time></trkpt><trkpt lat="45.29180031081497" lon="11.678327450232988"><ele>76.0</ele><time>2026-04-11T14:15:12.999Z</time></trkpt><trkpt lat="45.29177876619915" lon="11.67821868420632"><ele>76.0</ele><time>2026-04-11T14:15:14.999Z</time></trkpt><trkpt lat="45.291901444990266" lon="11.67812807344861"><ele>76.0</ele><time>2026-04-11T14:15:16.999Z</time></trkpt><trkpt lat="45.29195635358646" lon="11.678035173456768"><ele>76.0</ele><time>2026-04-11T14:15:17.999Z</time></trkpt><trkpt lat="45.291981189192384" lon="11.677883038317589"><ele>76.0</ele><time>2026-04-11T14:15:18.999Z</time></trkpt><trkpt lat="45.29200866724682" lon="11.677737498634395"><ele>76.0</ele><time>2026-04-11T14:15:19.999Z</time></trkpt><trkpt lat="45.292051808106805" lon="11.677594303956287"><ele>76.0</ele><time>2026-04-11T14:15:20.999Z</time></trkpt><trkpt lat="45.29208262736104" lon="11.677446272665769"><ele>76.0</ele><time>2026-04-11T14:15:21.999Z</time></trkpt><trkpt lat="45.2921140176094" lon="11.67731187331285"><ele>75.75</ele><time>2026-04-11T14:15:22.999Z</time></trkpt><trkpt lat="45.29215388959935" lon="11.67716399175555"><ele>75.5</ele><time>2026-04-11T14:15:23.999Z</time></trkpt><trkpt lat="45.2921955383639" lon="11.67700821743083"><ele>75.25</ele><time>2026-04-11T14:15:24.999Z</time></trkpt><trkpt lat="45.29223872161068" lon="11.676852298498122"><ele>75.0</ele><time>2026-04-11T14:15:25.999Z</time></trkpt><trkpt lat="45.29228383126981" lon="11.676698842486237"><ele>75.0</ele><time>2026-04-11T14:15:27Z</time></trkpt><trkpt lat="45.29233819168941" lon="11.676559651996527"><ele>75.0</ele><time>2026-04-11T14:15:28Z</time></trkpt><trkpt lat="45.29239560679959" lon="11.676419518992482"><ele>75.0</ele><time>2026-04-11T14:15:29Z</time></trkpt><trkpt lat="45.292454205583965" lon="11.676275714859077"><ele>75.0</ele><time>2026-04-11T14:15:30Z</time></trkpt><trkpt lat="45.292482186145214" lon="11.676116477773656"><ele>74.25</ele><time>2026-04-11T14:15:31Z</time></trkpt><trkpt lat="45.292534251930086" lon="11.67596539594453"><ele>73.5</ele><time>2026-04-11T14:15:32Z</time></trkpt><trkpt lat="45.29255679335372" lon="11.67578980674791"><ele>72.75</ele><time>2026-04-11T14:15:33Z</time></trkpt><trkpt lat="45.292566897196366" lon="11.675604409238309"><ele>72.0</ele><time>2026-04-11T14:15:34Z</time></trkpt><trkpt lat="45.29256669175809" lon="11.675428259569559"><ele>71.5</ele><time>2026-04-11T14:15:35Z</time></trkpt><trkpt lat="45.29256801630978" lon="11.675251537782728"><ele>71.0</ele><time>2026-04-11T14:15:36Z</time></trkpt><trkpt lat="45.292572008719965" lon="11.675070004925015"><ele>70.5</ele><time>2026-04-11T14:15:37Z</time></trkpt><trkpt lat="45.292586896921506" lon="11.674897728054669"><ele>70.0</ele><time>2026-04-11T14:15:38Z</time></trkpt><trkpt lat="45.29260876858335" lon="11.674730895253948"><ele>70.0</ele><time>2026-04-11T14:15:39Z</time></trkpt><trkpt lat="45.292616638641626" lon="11.674575610203398"><ele>70.0</ele><time>2026-04-11T14:15:40Z</time></trkpt><trkpt lat="45.29263559826391" lon="11.67443750323666"><ele>70.0</ele><time>2026-04-11T14:15:41Z</time></trkpt><trkpt lat="45.29264494813028" lon="11.674288864292745"><ele>70.0</ele><time>2026-04-11T14:15:42Z</time></trkpt><trkpt lat="45.29266310019438" lon="11.674136583845785"><ele>70.0</ele><time>2026-04-11T14:15:43Z</time></trkpt><trkpt lat="45.292672255086494" lon="11.673984573299467"><ele>70.0</ele><time>2026-04-11T14:15:44Z</time></trkpt><trkpt lat="45.29269475490434" lon="11.673848537069588"><ele>70.0</ele><time>2026-04-11T14:15:45Z</time></trkpt><trkpt lat="45.29273017350177" lon="11.67372547571479"><ele>70.0</ele><time>2026-04-11T14:15:46Z</time></trkpt><trkpt lat="45.29276024553276" lon="11.67361176468878"><ele>70.0</ele><time>2026-04-11T14:15:47Z</time></trkpt><trkpt lat="45.29282030563982" lon="11.673520309628588"><ele>70.0</ele><time>2026-04-11T14:15:48Z</time></trkpt><trkpt lat="45.29288747019324" lon="11.673427853651418"><ele>69.5</ele><time>2026-04-11T14:15:49Z</time></trkpt><trkpt lat="45.29295825815378" lon="11.673315344834215"><ele>69.0</ele><time>2026-04-11T14:15:50Z</time></trkpt><trkpt lat="45.293020426374405" lon="11.673168074340015"><ele>68.5</ele><time>2026-04-11T14:15:51Z</time></trkpt><trkpt lat="45.29308177243966" lon="11.673007152091492"><ele>68.0</ele><time>2026-04-11T14:15:52Z</time></trkpt><trkpt lat="45.293137670077726" lon="11.67285855163592"><ele>68.83333333333334</ele><time>2026-04-11T14:15:53Z</time></trkpt><trkpt lat="45.29318939752624" lon="11.672723702396878"><ele>69.66666666666667</ele><time>2026-04-11T14:15:54Z</time></trkpt><trkpt lat="45.293237912185035" lon="11.672615190642878"><ele>70.5</ele><time>2026-04-11T14:15:55Z</time></trkpt><trkpt lat="45.29328600507114" lon="11.67252230078893"><ele>71.33333333333333</ele><time>2026-04-11T14:15:56Z</time></trkpt><trkpt lat="45.29333407629982" lon="11.67244316283445"><ele>72.16666666666666</ele><time>2026-04-11T14:15:57Z</time></trkpt><trkpt lat="45.29337455603034" lon="11.672369310370724"><ele>73.0</ele><time>2026-04-11T14:15:58Z</time></trkpt><trkpt lat="45.29340317770814" lon="11.672280471299793"><ele>73.0</ele><time>2026-04-11T14:15:59Z</time></trkpt><trkpt lat="45.2934348903015" lon="11.672166906708236"><ele>73.0</ele><time>2026-04-11T14:16:00Z</time></trkpt><trkpt lat="45.293491348907644" lon="11.672027375787453"><ele>73.0</ele><time>2026-04-11T14:16:01Z</time></trkpt><trkpt lat="45.293560221455365" lon="11.671886618473769"><ele>73.0</ele><time>2026-04-11T14:16:02Z</time></trkpt><trkpt lat="45.29363360089591" lon="11.671751575272316"><ele>73.0</ele><time>2026-04-11T14:16:03Z</time></trkpt><trkpt lat="45.29370222268241" lon="11.671621627208985"><ele>72.5</ele><time>2026-04-11T14:16:04Z</time></trkpt><trkpt lat="45.29376996651068" lon="11.671490505508991"><ele>72.0</ele><time>2026-04-11T14:16:05Z</time></trkpt><trkpt lat="45.29385398963055" lon="11.671342819330272"><ele>71.5</ele><time>2026-04-11T14:16:06Z</time></trkpt><trkpt lat="45.29395312795541" lon="11.6711782724082"><ele>71.0</ele><time>2026-04-11T14:16:07Z</time></trkpt><trkpt lat="45.29404376687469" lon="11.671039540702306"><ele>71.0</ele><time>2026-04-11T14:16:08Z</time></trkpt><trkpt lat="45.294128851979224" lon="11.67092391596543"><ele>71.0</ele><time>2026-04-11T14:16:09Z</time></trkpt><trkpt lat="45.29420442136269" lon="11.670833056390274"><ele>71.0</ele><time>2026-04-11T14:16:10Z</time></trkpt><trkpt lat="45.29428328373652" lon="11.670770755504384"><ele>71.0</ele><time>2026-04-11T14:16:11Z</time></trkpt><trkpt lat="45.29437074811926" lon="11.670752536772822"><ele>71.0</ele><time>2026-04-11T14:16:12Z</time></trkpt><trkpt lat="45.29446773347613" lon="11.6707563914226"><ele>71.0</ele><time>2026-04-11T14:16:13Z</time></trkpt><trkpt lat="45.29457008926525" lon="11.670781268774515"><ele>71.0</ele><time>2026-04-11T14:16:14Z</time></trkpt><trkpt lat="45.29467039673521" lon="11.670804473129715"><ele>71.0</ele><time>2026-04-11T14:16:15Z</time></trkpt><trkpt lat="45.29476703496405" lon="11.670801263667284"><ele>71.0</ele><time>2026-04-11T14:16:16Z</time></trkpt><trkpt lat="45.2948515800732" lon="11.670759620685368"><ele>71.0</ele><time>2026-04-11T14:16:17Z</time></trkpt><trkpt lat="45.29492757955912" lon="11.67069022445852"><ele>72.5</ele><time>2026-04-11T14:16:18Z</time></trkpt><trkpt lat="45.29497787559402" lon="11.670592747165768"><ele>74.0</ele><time>2026-04-11T14:16:19Z</time></trkpt><trkpt lat="45.295007731960524" lon="11.670473980573814"><ele>75.5</ele><time>2026-04-11T14:16:20Z</time></trkpt><trkpt lat="45.29501147814277" lon="11.67034694348852"><ele>77.0</ele><time>2026-04-11T14:16:21Z</time></trkpt><trkpt lat="45.29502157120351" lon="11.670229692786263"><ele>78.5</ele><time>2026-04-11T14:16:22Z</time></trkpt><trkpt lat="45.29503163591657" lon="11.670136516464042"><ele>80.0</ele><time>2026-04-11T14:16:23Z</time></trkpt><trkpt lat="45.295071904472294" lon="11.670032897833039"><ele>80.0</ele><time>2026-04-11T14:16:25Z</time></trkpt><trkpt lat="45.29516964714423" lon="11.670024418459763"><ele>80.0</ele><time>2026-04-11T14:16:27Z</time></trkpt><trkpt lat="45.29523780062058" lon="11.670078975462104"><ele>80.0</ele><time>2026-04-11T14:16:29Z</time></trkpt><trkpt lat="45.29530649918945" lon="11.670134391551"><ele>80.0</ele><time>2026-04-11T14:16:32Z</time></trkpt><trkpt lat="45.29537336472309" lon="11.670189136093597"><ele>80.0</ele><time>2026-04-11T14:16:35Z</time></trkpt><trkpt lat="45.295440105957226" lon="11.670224529444175"><ele>80.0</ele><time>2026-04-11T14:16:37Z</time></trkpt><trkpt lat="45.295536646828204" lon="11.670238371044768"><ele>82.4</ele><time>2026-04-11T14:16:39Z</time></trkpt><trkpt lat="45.295622706562554" lon="11.670214587260398"><ele>84.8</ele><time>2026-04-11T14:16:41Z</time></trkpt><trkpt lat="45.29571548112002" lon="11.670130125756474"><ele>87.19999999999999</ele><time>2026-04-11T14:16:43Z</time></trkpt><trkpt lat="45.295796295896224" lon="11.670003776051379"><ele>89.6</ele><time>2026-04-11T14:16:45Z</time></trkpt><trkpt lat="45.29583968442215" lon="11.669928955866043"><ele>92.0</ele><time>2026-04-11T14:16:46Z</time></trkpt><trkpt lat="45.29589887177648" lon="11.669860771501511"><ele>92.0</ele><time>2026-04-11T14:16:47Z</time></trkpt><trkpt lat="45.29596390446776" lon="11.669763629706562"><ele>92.0</ele><time>2026-04-11T14:16:48Z</time></trkpt><trkpt lat="45.29604384091446" lon="11.6696442254983"><ele>92.0</ele><time>2026-04-11T14:16:49Z</time></trkpt><trkpt lat="45.29611891427625" lon="11.669531757640112"><ele>92.0</ele><time>2026-04-11T14:16:50Z</time></trkpt><trkpt lat="45.29619539567123" lon="11.66938873300939"><ele>92.0</ele><time>2026-04-11T14:16:51Z</time></trkpt><trkpt lat="45.296290799621396" lon="11.669262937337084"><ele>92.0</ele><time>2026-04-11T14:16:52Z</time></trkpt><trkpt lat="45.296384639264204" lon="11.669135129982402"><ele>92.0</ele><time>2026-04-11T14:16:53Z</time></trkpt><trkpt lat="45.29648326231492" lon="11.669011974707088"><ele>92.0</ele><time>2026-04-11T14:16:54Z</time></trkpt><trkpt lat="45.296584881175896" lon="11.668891434069488"><ele>92.0</ele><time>2026-04-11T14:16:55Z</time></trkpt><trkpt lat="45.296681828913556" lon="11.668779143631287"><ele>94.39999999999999</ele><time>2026-04-11T14:16:56Z</time></trkpt><trkpt lat="45.29677386420832" lon="11.66867065706973"><ele>96.8</ele><time>2026-04-11T14:16:56.999Z</time></trkpt><trkpt lat="45.29685883272982" lon="11.668568149648799"><ele>99.2</ele><time>2026-04-11T14:16:57.999Z</time></trkpt><trkpt lat="45.29692652271371" lon="11.668491288694144"><ele>101.6</ele><time>2026-04-11T14:16:58.999Z</time></trkpt><trkpt lat="45.296982994175444" lon="11.668429545873902"><ele>104.0</ele><time>2026-04-11T14:16:59.999Z</time></trkpt><trkpt lat="45.29703975371749" lon="11.66836565091775"><ele>104.4</ele><time>2026-04-11T14:17:00.999Z</time></trkpt><trkpt lat="45.29709877773144" lon="11.668294927936493"><ele>104.80000000000001</ele><time>2026-04-11T14:17:01.999Z</time></trkpt><trkpt lat="45.297168747570836" lon="11.66823227321111"><ele>105.19999999999999</ele><time>2026-04-11T14:17:02.999Z</time></trkpt><trkpt lat="45.297260253121586" lon="11.6681764988588"><ele>105.6</ele><time>2026-04-11T14:17:03.999Z</time></trkpt><trkpt lat="45.29736641868498" lon="11.668132307564337"><ele>106.0</ele><time>2026-04-11T14:17:04.999Z</time></trkpt><trkpt lat="45.297479201090155" lon="11.668097370150981"><ele>106.75</ele><time>2026-04-11T14:17:05.999Z</time></trkpt><trkpt lat="45.29758915171003" lon="11.66805334471295"><ele>107.5</ele><time>2026-04-11T14:17:06.999Z</time></trkpt><trkpt lat="45.297695535302566" lon="11.667980671860507"><ele>108.25</ele><time>2026-04-11T14:17:07.999Z</time></trkpt><trkpt lat="45.297801976205" lon="11.66789239481983"><ele>109.0</ele><time>2026-04-11T14:17:08.999Z</time></trkpt><trkpt lat="45.29790733936069" lon="11.667808270540133"><ele>107.25</ele><time>2026-04-11T14:17:09.999Z</time></trkpt><trkpt lat="45.29801280150201" lon="11.667726559140881"><ele>105.5</ele><time>2026-04-11T14:17:10.999Z</time></trkpt><trkpt lat="45.2981219850552" lon="11.667649824074081"><ele>103.75</ele><time>2026-04-11T14:17:11.999Z</time></trkpt><trkpt lat="45.29822569114292" lon="11.667576000028088"><ele>102.0</ele><time>2026-04-11T14:17:12.999Z</time></trkpt><trkpt lat="45.29833030345923" lon="11.667500473829472"><ele>100.8</ele><time>2026-04-11T14:17:13.999Z</time></trkpt><trkpt lat="45.298431122761905" lon="11.667423902568109"><ele>99.6</ele><time>2026-04-11T14:17:14.999Z</time></trkpt><trkpt lat="45.29853495086286" lon="11.667354610315867"><ele>98.39999999999999</ele><time>2026-04-11T14:17:15.999Z</time></trkpt><trkpt lat="45.29863180357839" lon="11.667277393069222"><ele>97.19999999999999</ele><time>2026-04-11T14:17:16.999Z</time></trkpt><trkpt lat="45.2987230238583" lon="11.667211120650842"><ele>96.0</ele><time>2026-04-11T14:17:17.999Z</time></trkpt><trkpt lat="45.298820244655715" lon="11.667137605164196"><ele>96.0</ele><time>2026-04-11T14:17:18.999Z</time></trkpt><trkpt lat="45.298912124166826" lon="11.667049374533917"><ele>96.0</ele><time>2026-04-11T14:17:19.999Z</time></trkpt><trkpt lat="45.299001471757855" lon="11.666957563185235"><ele>96.0</ele><time>2026-04-11T14:17:20.999Z</time></trkpt><trkpt lat="45.29908631590613" lon="11.666868468012456"><ele>96.0</ele><time>2026-04-11T14:17:21.999Z</time></trkpt><trkpt lat="45.29916605569325" lon="11.666783365846396"><ele>96.0</ele><time>2026-04-11T14:17:22.999Z</time></trkpt><trkpt lat="45.29923737674688" lon="11.666690979882212"><ele>95.0</ele><time>2026-04-11T14:17:23.999Z</time></trkpt><trkpt lat="45.29929128359912" lon="11.666582929943036"><ele>94.0</ele><time>2026-04-11T14:17:24.999Z</time></trkpt><trkpt lat="45.29933531504872" lon="11.666471394112278"><ele>93.0</ele><time>2026-04-11T14:17:25.999Z</time></trkpt><trkpt lat="45.29936689241027" lon="11.666345904624134"><ele>92.0</ele><time>2026-04-11T14:17:26.999Z</time></trkpt><trkpt lat="45.29940792045924" lon="11.666216837596712"><ele>91.0</ele><time>2026-04-11T14:17:27.999Z</time></trkpt><trkpt lat="45.2994574383507" lon="11.666090097276273"><ele>90.4</ele><time>2026-04-11T14:17:28.999Z</time></trkpt><trkpt lat="45.29952369939198" lon="11.66597915849261"><ele>89.8</ele><time>2026-04-11T14:17:29.999Z</time></trkpt><trkpt lat="45.2995651306242" lon="11.665848826133491"><ele>89.2</ele><time>2026-04-11T14:17:30.999Z</time></trkpt><trkpt lat="45.29961819694016" lon="11.66573626731243"><ele>88.60000000000001</ele><time>2026-04-11T14:17:31.999Z</time></trkpt><trkpt lat="45.299673242000175" lon="11.66562150228643"><ele>88.0</ele><time>2026-04-11T14:17:33Z</time></trkpt><trkpt lat="45.299729198381634" lon="11.6655044379009"><ele>89.5</ele><time>2026-04-11T14:17:34Z</time></trkpt><trkpt lat="45.299786097317195" lon="11.665389981883772"><ele>91.0</ele><time>2026-04-11T14:17:35Z</time></trkpt><trkpt lat="45.299838401510854" lon="11.665287726067366"><ele>92.5</ele><time>2026-04-11T14:17:36Z</time></trkpt><trkpt lat="45.29989078515279" lon="11.665189513202492"><ele>94.0</ele><time>2026-04-11T14:17:37Z</time></trkpt><trkpt lat="45.29993121861203" lon="11.665101849452514"><ele>95.50000000000001</ele><time>2026-04-11T14:17:38Z</time></trkpt><trkpt lat="45.299952426657896" lon="11.66501232701797"><ele>97.0</ele><time>2026-04-11T14:17:39Z</time></trkpt><trkpt lat="45.29993372006742" lon="11.664863193981384"><ele>97.0</ele><time>2026-04-11T14:17:41Z</time></trkpt><trkpt lat="45.29982574833783" lon="11.66474233458329"><ele>97.0</ele><time>2026-04-11T14:17:43Z</time></trkpt><trkpt lat="45.29975095544772" lon="11.664674069544404"><ele>97.0</ele><time>2026-04-11T14:17:44Z</time></trkpt><trkpt lat="45.29967386572569" lon="11.66460618455591"><ele>97.0</ele><time>2026-04-11T14:17:45Z</time></trkpt><trkpt lat="45.29959505948974" lon="11.66454802056345"><ele>97.0</ele><time>2026-04-11T14:17:46Z</time></trkpt><trkpt lat="45.299531356136505" lon="11.664472857045183"><ele>94.83333333333334</ele><time>2026-04-11T14:17:47Z</time></trkpt><trkpt lat="45.29947257378647" lon="11.664398858729902"><ele>92.66666666666667</ele><time>2026-04-11T14:17:48Z</time></trkpt><trkpt lat="45.299424585867705" lon="11.66432643311314"><ele>90.5</ele><time>2026-04-11T14:17:49Z</time></trkpt><trkpt lat="45.29938782044828" lon="11.66423376646916"><ele>88.33333333333334</ele><time>2026-04-11T14:17:50Z</time></trkpt><trkpt lat="45.29935395956887" lon="11.664127915692506"><ele>86.16666666666667</ele><time>2026-04-11T14:17:51Z</time></trkpt><trkpt lat="45.29935363689492" lon="11.664007585448374"><ele>84.0</ele><time>2026-04-11T14:17:52Z</time></trkpt><trkpt lat="45.29934561858228" lon="11.66387520443367"><ele>84.0</ele><time>2026-04-11T14:17:53Z</time></trkpt><trkpt lat="45.29934644565576" lon="11.663737410543112"><ele>84.0</ele><time>2026-04-11T14:17:54Z</time></trkpt><trkpt lat="45.29935603060332" lon="11.663601708474104"><ele>84.0</ele><time>2026-04-11T14:17:55Z</time></trkpt><trkpt lat="45.299356185186696" lon="11.66347669781314"><ele>84.0</ele><time>2026-04-11T14:17:56Z</time></trkpt><trkpt lat="45.29937609392371" lon="11.663360596264969"><ele>84.0</ele><time>2026-04-11T14:17:57Z</time></trkpt><trkpt lat="45.299396135757384" lon="11.663255613719983"><ele>84.0</ele><time>2026-04-11T14:17:58Z</time></trkpt><trkpt lat="45.29941136969296" lon="11.6631495026689"><ele>83.2</ele><time>2026-04-11T14:17:59Z</time></trkpt><trkpt lat="45.299421049321545" lon="11.663055586039965"><ele>82.4</ele><time>2026-04-11T14:18:00Z</time></trkpt><trkpt lat="45.29943772101405" lon="11.662877064136755"><ele>81.6</ele><time>2026-04-11T14:18:02Z</time></trkpt><trkpt lat="45.29944189193452" lon="11.662718703127517"><ele>80.8</ele><time>2026-04-11T14:18:04Z</time></trkpt><trkpt lat="45.2993919302047" lon="11.6625759227921"><ele>80.0</ele><time>2026-04-11T14:18:06Z</time></trkpt><trkpt lat="45.2993351461498" lon="11.662471371755585"><ele>79.2</ele><time>2026-04-11T14:18:08Z</time></trkpt><trkpt lat="45.2992630474858" lon="11.662388423469727"><ele>78.4</ele><time>2026-04-11T14:18:10Z</time></trkpt><trkpt lat="45.29919734526349" lon="11.662274779464246"><ele>77.6</ele><time>2026-04-11T14:18:12Z</time></trkpt><trkpt lat="45.29915569472775" lon="11.662142273986628"><ele>76.8</ele><time>2026-04-11T14:18:14Z</time></trkpt><trkpt lat="45.29918055148157" lon="11.662000270541208"><ele>76.0</ele><time>2026-04-11T14:18:16Z</time></trkpt><trkpt lat="45.29920339189699" lon="11.661870962585189"><ele>75.5</ele><time>2026-04-11T14:18:18Z</time></trkpt><trkpt lat="45.29922450412323" lon="11.6617604298877"><ele>75.0</ele><time>2026-04-11T14:18:20Z</time></trkpt><trkpt lat="45.29924153774859" lon="11.661641266548157"><ele>74.5</ele><time>2026-04-11T14:18:22Z</time></trkpt><trkpt lat="45.29927142062302" lon="11.661536967148843"><ele>74.0</ele><time>2026-04-11T14:18:24Z</time></trkpt><trkpt lat="45.299301421938274" lon="11.66142915588881"><ele>73.5</ele><time>2026-04-11T14:18:26Z</time></trkpt><trkpt lat="45.29932898198841" lon="11.661315667602988"><ele>73.0</ele><time>2026-04-11T14:18:28Z</time></trkpt><trkpt lat="45.299361319404476" lon="11.66120789475189"><ele>73.0</ele><time>2026-04-11T14:18:30Z</time></trkpt><trkpt lat="45.29939409568053" lon="11.661107232204374"><ele>73.0</ele><time>2026-04-11T14:18:32Z</time></trkpt><trkpt lat="45.299424335921636" lon="11.66098821347499"><ele>73.0</ele><time>2026-04-11T14:18:35Z</time></trkpt><trkpt lat="45.29945953606065" lon="11.660872091555781"><ele>73.0</ele><time>2026-04-11T14:18:37Z</time></trkpt><trkpt lat="45.299495848105224" lon="11.660719996011327"><ele>73.0</ele><time>2026-04-11T14:18:39Z</time></trkpt><trkpt lat="45.29953783520688" lon="11.660541486544226"><ele>73.0</ele><time>2026-04-11T14:18:41Z</time></trkpt><trkpt lat="45.29956187829188" lon="11.660431570660252"><ele>73.0</ele><time>2026-04-11T14:18:42Z</time></trkpt><trkpt lat="45.29959144771975" lon="11.660329415262733"><ele>73.0</ele><time>2026-04-11T14:18:43Z</time></trkpt><trkpt lat="45.299627306969754" lon="11.660200757734057"><ele>73.0</ele><time>2026-04-11T14:18:44Z</time></trkpt><trkpt lat="45.29966885064286" lon="11.660066787311996"><ele>73.0</ele><time>2026-04-11T14:18:45Z</time></trkpt><trkpt lat="45.299714401259344" lon="11.659921264006327"><ele>73.5</ele><time>2026-04-11T14:18:46Z</time></trkpt><trkpt lat="45.299762330087326" lon="11.65975972846406"><ele>74.0</ele><time>2026-04-11T14:18:47Z</time></trkpt><trkpt lat="45.29981628880047" lon="11.659592622838685"><ele>74.5</ele><time>2026-04-11T14:18:48Z</time></trkpt><trkpt lat="45.29987953876892" lon="11.659430462852136"><ele>75.0</ele><time>2026-04-11T14:18:49Z</time></trkpt><trkpt lat="45.29993224935653" lon="11.659272239790463"><ele>73.6</ele><time>2026-04-11T14:18:50Z</time></trkpt><trkpt lat="45.29997193779177" lon="11.659120987151603"><ele>72.2</ele><time>2026-04-11T14:18:51Z</time></trkpt><trkpt lat="45.30000976791035" lon="11.65897191674708"><ele>70.8</ele><time>2026-04-11T14:18:52Z</time></trkpt><trkpt lat="45.30003777639245" lon="11.658822470016718"><ele>69.4</ele><time>2026-04-11T14:18:53Z</time></trkpt><trkpt lat="45.30004740815268" lon="11.658659940994383"><ele>68.0</ele><time>2026-04-11T14:18:54Z</time></trkpt><trkpt lat="45.30005237007114" lon="11.6585090785239"><ele>67.4</ele><time>2026-04-11T14:18:55Z</time></trkpt><trkpt lat="45.300050771226644" lon="11.658351044891365"><ele>66.8</ele><time>2026-04-11T14:18:56Z</time></trkpt><trkpt lat="45.30006711833603" lon="11.658200818904628"><ele>66.2</ele><time>2026-04-11T14:18:57Z</time></trkpt><trkpt lat="45.3000681171084" lon="11.65803869613634"><ele>65.6</ele><time>2026-04-11T14:18:58Z</time></trkpt><trkpt lat="45.300052464231705" lon="11.65787896414576"><ele>65.0</ele><time>2026-04-11T14:18:59Z</time></trkpt><trkpt lat="45.3000556694479" lon="11.6577266961994"><ele>64.8</ele><time>2026-04-11T14:19:00Z</time></trkpt><trkpt lat="45.30005512000226" lon="11.657580866011866"><ele>64.6</ele><time>2026-04-11T14:19:01Z</time></trkpt><trkpt lat="45.30005095945232" lon="11.65741874502372"><ele>64.4</ele><time>2026-04-11T14:19:02Z</time></trkpt><trkpt lat="45.300052764320625" lon="11.65725599085477"><ele>64.2</ele><time>2026-04-11T14:19:03Z</time></trkpt><trkpt lat="45.30005485754839" lon="11.657101687215402"><ele>64.0</ele><time>2026-04-11T14:19:04Z</time></trkpt><trkpt lat="45.30005745713503" lon="11.656944924459935"><ele>63.0</ele><time>2026-04-11T14:19:05Z</time></trkpt><trkpt lat="45.300068580410446" lon="11.656774671060782"><ele>62.0</ele><time>2026-04-11T14:19:06Z</time></trkpt><trkpt lat="45.30007687931893" lon="11.656600653387757"><ele>61.0</ele><time>2026-04-11T14:19:07Z</time></trkpt><trkpt lat="45.30008746795248" lon="11.656420312928642"><ele>60.0</ele><time>2026-04-11T14:19:08Z</time></trkpt><trkpt lat="45.3001146375661" lon="11.656243868458633"><ele>58.5</ele><time>2026-04-11T14:19:09Z</time></trkpt><trkpt lat="45.30012004442025" lon="11.656052021108867"><ele>57.0</ele><time>2026-04-11T14:19:10Z</time></trkpt><trkpt lat="45.30013427487752" lon="11.655871196732713"><ele>55.5</ele><time>2026-04-11T14:19:11Z</time></trkpt><trkpt lat="45.30015435766233" lon="11.655684779871192"><ele>54.0</ele><time>2026-04-11T14:19:12Z</time></trkpt><trkpt lat="45.30016977067209" lon="11.655503476712294"><ele>54.0</ele><time>2026-04-11T14:19:13Z</time></trkpt><trkpt lat="45.30018402809311" lon="11.655320984240518"><ele>54.0</ele><time>2026-04-11T14:19:14Z</time></trkpt><trkpt lat="45.300194484316336" lon="11.65513965946139"><ele>54.0</ele><time>2026-04-11T14:19:15Z</time></trkpt><trkpt lat="45.30021118903783" lon="11.65495241635901"><ele>54.0</ele><time>2026-04-11T14:19:16Z</time></trkpt><trkpt lat="45.300221407969396" lon="11.654772616141946"><ele>53.25</ele><time>2026-04-11T14:19:17Z</time></trkpt><trkpt lat="45.30023026828879" lon="11.654588685377758"><ele>52.5</ele><time>2026-04-11T14:19:18Z</time></trkpt><trkpt lat="45.30024458257113" lon="11.654407522623423"><ele>51.75</ele><time>2026-04-11T14:19:19Z</time></trkpt><trkpt lat="45.300247864608515" lon="11.654231159503746"><ele>51.0</ele><time>2026-04-11T14:19:20Z</time></trkpt><trkpt lat="45.300257914497294" lon="11.654066460457877"><ele>50.833333333333336</ele><time>2026-04-11T14:19:21Z</time></trkpt><trkpt lat="45.30026631396311" lon="11.65392269196889"><ele>50.66666666666667</ele><time>2026-04-11T14:19:22Z</time></trkpt><trkpt lat="45.30026932518792" lon="11.653789028235659"><ele>50.5</ele><time>2026-04-11T14:19:23Z</time></trkpt><trkpt lat="45.3002742729865" lon="11.653687573443898"><ele>50.333333333333336</ele><time>2026-04-11T14:19:24Z</time></trkpt><trkpt lat="45.30029636725575" lon="11.65354407809377"><ele>50.16666666666667</ele><time>2026-04-11T14:19:26Z</time></trkpt><trkpt lat="45.30028436585037" lon="11.653451884117239"><ele>50.0</ele><time>2026-04-11T14:19:28Z</time></trkpt><trkpt lat="45.30023134973434" lon="11.65337620193052"><ele>50.4</ele><time>2026-04-11T14:19:30Z</time></trkpt><trkpt lat="45.30021109359567" lon="11.653231374696459"><ele>50.8</ele><time>2026-04-11T14:19:32Z</time></trkpt><trkpt lat="45.3001575929061" lon="11.653132003611809"><ele>51.2</ele><time>2026-04-11T14:19:33Z</time></trkpt><trkpt lat="45.300112172959885" lon="11.653022652035556"><ele>51.6</ele><time>2026-04-11T14:19:34Z</time></trkpt><trkpt lat="45.30004794636542" lon="11.652901499785486"><ele>52.0</ele><time>2026-04-11T14:19:35Z</time></trkpt><trkpt lat="45.300002985222434" lon="11.652743673683725"><ele>52.5</ele><time>2026-04-11T14:19:36Z</time></trkpt><trkpt lat="45.29993331076265" lon="11.652583956605865"><ele>53.0</ele><time>2026-04-11T14:19:37Z</time></trkpt><trkpt lat="45.29985675610248" lon="11.652442780247428"><ele>53.5</ele><time>2026-04-11T14:19:37.999Z</time></trkpt><trkpt lat="45.29977556476689" lon="11.652298328494812"><ele>54.0</ele><time>2026-04-11T14:19:39Z</time></trkpt><trkpt lat="45.299692797327005" lon="11.652147950610907"><ele>52.25</ele><time>2026-04-11T14:19:40Z</time></trkpt><trkpt lat="45.29961577337676" lon="11.65200800791704"><ele>50.5</ele><time>2026-04-11T14:19:41Z</time></trkpt><trkpt lat="45.29952885800019" lon="11.651884244981835"><ele>48.75</ele><time>2026-04-11T14:19:42Z</time></trkpt><trkpt lat="45.29945841081529" lon="11.651742357096724"><ele>47.0</ele><time>2026-04-11T14:19:43Z</time></trkpt><trkpt lat="45.29938614971781" lon="11.651610434184763"><ele>47.0</ele><time>2026-04-11T14:19:44Z</time></trkpt><trkpt lat="45.29931065237391" lon="11.651490765005189"><ele>47.0</ele><time>2026-04-11T14:19:45Z</time></trkpt><trkpt lat="45.299218019061435" lon="11.65139220547918"><ele>47.0</ele><time>2026-04-11T14:19:46Z</time></trkpt><trkpt lat="45.29910648586702" lon="11.651300246858169"><ele>47.0</ele><time>2026-04-11T14:19:47Z</time></trkpt><trkpt lat="45.29898206377758" lon="11.651216270170389"><ele>46.5</ele><time>2026-04-11T14:19:48Z</time></trkpt><trkpt lat="45.29886237858895" lon="11.651138367439598"><ele>46.0</ele><time>2026-04-11T14:19:49Z</time></trkpt><trkpt lat="45.298742308485984" lon="11.651054009228359"><ele>45.5</ele><time>2026-04-11T14:19:50Z</time></trkpt><trkpt lat="45.29862374592292" lon="11.650962904689605"><ele>45.0</ele><time>2026-04-11T14:19:51Z</time></trkpt><trkpt lat="45.2985120485867" lon="11.650864293127752"><ele>45.0</ele><time>2026-04-11T14:19:52Z</time></trkpt><trkpt lat="45.29840509188279" lon="11.650764548245302"><ele>45.0</ele><time>2026-04-11T14:19:53Z</time></trkpt><trkpt lat="45.2983041368357" lon="11.650647566125564"><ele>45.0</ele><time>2026-04-11T14:19:54Z</time></trkpt><trkpt lat="45.29820418694277" lon="11.650523552276889"><ele>45.0</ele><time>2026-04-11T14:19:55Z</time></trkpt><trkpt lat="45.29812126251518" lon="11.65036389498726"><ele>42.666666666666664</ele><time>2026-04-11T14:19:56Z</time></trkpt><trkpt lat="45.29801768811635" lon="11.650206545763801"><ele>40.33333333333333</ele><time>2026-04-11T14:19:57Z</time></trkpt><trkpt lat="45.29791658159478" lon="11.650042143042356"><ele>38.0</ele><time>2026-04-11T14:19:58Z</time></trkpt><trkpt lat="45.29782488573901" lon="11.64988187338569"><ele>38.0</ele><time>2026-04-11T14:19:59Z</time></trkpt><trkpt lat="45.29773611782682" lon="11.649718872099466"><ele>38.0</ele><time>2026-04-11T14:20:00Z</time></trkpt><trkpt lat="45.29765077838933" lon="11.649552721149576"><ele>38.0</ele><time>2026-04-11T14:20:01Z</time></trkpt><trkpt lat="45.29756907030995" lon="11.649388680012141"><ele>38.0</ele><time>2026-04-11T14:20:02Z</time></trkpt><trkpt lat="45.297487667243146" lon="11.64921979810107"><ele>37.0</ele><time>2026-04-11T14:20:03Z</time></trkpt><trkpt lat="45.297406403069914" lon="11.649045920929915"><ele>36.0</ele><time>2026-04-11T14:20:04Z</time></trkpt><trkpt lat="45.297327290788104" lon="11.648876662299049"><ele>35.0</ele><time>2026-04-11T14:20:05Z</time></trkpt><trkpt lat="45.29723509227741" lon="11.648723369982322"><ele>34.0</ele><time>2026-04-11T14:20:06Z</time></trkpt><trkpt lat="45.29716933673047" lon="11.648546320775807"><ele>34.0</ele><time>2026-04-11T14:20:07Z</time></trkpt><trkpt lat="45.29708843023299" lon="11.648377276001652"><ele>34.0</ele><time>2026-04-11T14:20:08Z</time></trkpt><trkpt lat="45.29699617171114" lon="11.64821925890882"><ele>34.0</ele><time>2026-04-11T14:20:09Z</time></trkpt><trkpt lat="45.296916556527904" lon="11.648042256674184"><ele>34.0</ele><time>2026-04-11T14:20:10Z</time></trkpt><trkpt lat="45.296847067609484" lon="11.647855385162718"><ele>35.66666666666667</ele><time>2026-04-11T14:20:11Z</time></trkpt><trkpt lat="45.29676090486786" lon="11.647671611898549"><ele>37.333333333333336</ele><time>2026-04-11T14:20:12Z</time></trkpt><trkpt lat="45.29667302399547" lon="11.647487994613654"><ele>39.0</ele><time>2026-04-11T14:20:13Z</time></trkpt><trkpt lat="45.29657498725551" lon="11.6473232400192"><ele>39.0</ele><time>2026-04-11T14:20:14Z</time></trkpt><trkpt lat="45.296487568160096" lon="11.647153485174663"><ele>39.0</ele><time>2026-04-11T14:20:15Z</time></trkpt><trkpt lat="45.296394153390814" lon="11.646985775699543"><ele>39.0</ele><time>2026-04-11T14:20:16Z</time></trkpt><trkpt lat="45.296290277055775" lon="11.646821682436782"><ele>35.666666666666664</ele><time>2026-04-11T14:20:17Z</time></trkpt><trkpt lat="45.29618487322116" lon="11.646651074952716"><ele>32.33333333333333</ele><time>2026-04-11T14:20:18Z</time></trkpt><trkpt lat="45.29608191674087" lon="11.64648536620021"><ele>29.0</ele><time>2026-04-11T14:20:19Z</time></trkpt><trkpt lat="45.29598507354957" lon="11.646326785907807"><ele>29.0</ele><time>2026-04-11T14:20:20Z</time></trkpt><trkpt lat="45.29589427045794" lon="11.646174967468047"><ele>29.0</ele><time>2026-04-11T14:20:21Z</time></trkpt><trkpt lat="45.29580651634714" lon="11.64603056242253"><ele>29.0</ele><time>2026-04-11T14:20:22Z</time></trkpt><trkpt lat="45.29572825919205" lon="11.645892796936957"><ele>29.0</ele><time>2026-04-11T14:20:23Z</time></trkpt><trkpt lat="45.29565698418131" lon="11.645773866167081"><ele>28.666666666666664</ele><time>2026-04-11T14:20:24Z</time></trkpt><trkpt lat="45.295587518413434" lon="11.645681810561568"><ele>28.333333333333332</ele><time>2026-04-11T14:20:25Z</time></trkpt><trkpt lat="45.295506885111344" lon="11.645619873716715"><ele>28.0</ele><time>2026-04-11T14:20:26Z</time></trkpt><trkpt lat="45.29542192315735" lon="11.645596068929432"><ele>27.666666666666664</ele><time>2026-04-11T14:20:27Z</time></trkpt><trkpt lat="45.29533794446959" lon="11.645600949218963"><ele>27.333333333333332</ele><time>2026-04-11T14:20:28Z</time></trkpt><trkpt lat="45.295266188079594" lon="11.645635279662736"><ele>27.0</ele><time>2026-04-11T14:20:29Z</time></trkpt><trkpt lat="45.29521085326385" lon="11.645688619204163"><ele>26.200000000000003</ele><time>2026-04-11T14:20:30Z</time></trkpt><trkpt lat="45.29511974593742" lon="11.64572930776014"><ele>25.400000000000002</ele><time>2026-04-11T14:20:32Z</time></trkpt><trkpt lat="45.295035192376915" lon="11.645675539407394"><ele>24.6</ele><time>2026-04-11T14:20:34Z</time></trkpt><trkpt lat="45.29488943699842" lon="11.645681138312419"><ele>23.799999999999997</ele><time>2026-04-11T14:20:36Z</time></trkpt><trkpt lat="45.294782674530325" lon="11.645719431766342"><ele>23.0</ele><time>2026-04-11T14:20:37Z</time></trkpt><trkpt lat="45.29465671629013" lon="11.645753145968882"><ele>23.0</ele><time>2026-04-11T14:20:38Z</time></trkpt><trkpt lat="45.29452098646433" lon="11.645772238490723"><ele>23.0</ele><time>2026-04-11T14:20:39Z</time></trkpt><trkpt lat="45.2943820091434" lon="11.645789616040465"><ele>23.0</ele><time>2026-04-11T14:20:40Z</time></trkpt><trkpt lat="45.29423322202371" lon="11.645821359888767"><ele>23.0</ele><time>2026-04-11T14:20:41Z</time></trkpt><trkpt lat="45.294072002215366" lon="11.645850915988055"><ele>22.0</ele><time>2026-04-11T14:20:42Z</time></trkpt><trkpt lat="45.29390782175463" lon="11.645872117990862"><ele>21.0</ele><time>2026-04-11T14:20:43Z</time></trkpt><trkpt lat="45.293742988944174" lon="11.64589775686606"><ele>20.0</ele><time>2026-04-11T14:20:44Z</time></trkpt><trkpt lat="45.29357957218837" lon="11.645926090025634"><ele>20.0</ele><time>2026-04-11T14:20:45Z</time></trkpt><trkpt lat="45.29340251914018" lon="11.645926083955478"><ele>20.0</ele><time>2026-04-11T14:20:46Z</time></trkpt><trkpt lat="45.293207048047584" lon="11.645951221053426"><ele>20.0</ele><time>2026-04-11T14:20:47Z</time></trkpt><trkpt lat="45.29299116173109" lon="11.64597590818386"><ele>19.666666666666668</ele><time>2026-04-11T14:20:48Z</time></trkpt><trkpt lat="45.292780151968785" lon="11.645997817544368"><ele>19.333333333333332</ele><time>2026-04-11T14:20:49Z</time></trkpt><trkpt lat="45.29259814443828" lon="11.645996971810971"><ele>19.0</ele><time>2026-04-11T14:20:50Z</time></trkpt><trkpt lat="45.29243149766132" lon="11.645983010354236"><ele>19.0</ele><time>2026-04-11T14:20:51Z</time></trkpt><trkpt lat="45.292261624031404" lon="11.6459572061624"><ele>19.0</ele><time>2026-04-11T14:20:52Z</time></trkpt><trkpt lat="45.29208748753971" lon="11.645923750215141"><ele>19.0</ele><time>2026-04-11T14:20:53Z</time></trkpt><trkpt lat="45.291908321739385" lon="11.645890024579241"><ele>19.0</ele><time>2026-04-11T14:20:54Z</time></trkpt><trkpt lat="45.291725907480654" lon="11.645856800709183"><ele>19.0</ele><time>2026-04-11T14:20:55Z</time></trkpt><trkpt lat="45.29154664231065" lon="11.645820055930558"><ele>19.0</ele><time>2026-04-11T14:20:56Z</time></trkpt><trkpt lat="45.2913754056332" lon="11.645801364844445"><ele>18.666666666666664</ele><time>2026-04-11T14:20:57Z</time></trkpt><trkpt lat="45.29120467006221" lon="11.645777759057115"><ele>18.333333333333332</ele><time>2026-04-11T14:20:58Z</time></trkpt><trkpt lat="45.291037464265216" lon="11.645749834268921"><ele>18.0</ele><time>2026-04-11T14:20:59Z</time></trkpt><trkpt lat="45.29087522953945" lon="11.645727253500027"><ele>18.0</ele><time>2026-04-11T14:21:00Z</time></trkpt><trkpt lat="45.29071020710982" lon="11.645712574289107"><ele>18.0</ele><time>2026-04-11T14:21:01Z</time></trkpt><trkpt lat="45.290537408608294" lon="11.645707562650454"><ele>18.0</ele><time>2026-04-11T14:21:02Z</time></trkpt><trkpt lat="45.29036392272245" lon="11.64572011551151"><ele>17.333333333333332</ele><time>2026-04-11T14:21:03Z</time></trkpt><trkpt lat="45.29020008390677" lon="11.645760534231787"><ele>16.666666666666664</ele><time>2026-04-11T14:21:04Z</time></trkpt><trkpt lat="45.29003107503191" lon="11.645795390152092"><ele>16.0</ele><time>2026-04-11T14:21:05Z</time></trkpt><trkpt lat="45.289892129976074" lon="11.645830797298553"><ele>15.999999999999998</ele><time>2026-04-11T14:21:06Z</time></trkpt><trkpt lat="45.28977691069753" lon="11.645862552995757"><ele>16.0</ele><time>2026-04-11T14:21:07Z</time></trkpt><trkpt lat="45.28968005483807" lon="11.645893526313609"><ele>16.0</ele><time>2026-04-11T14:21:08Z</time></trkpt><trkpt lat="45.28959901539464" lon="11.645918222636293"><ele>16.0</ele><time>2026-04-11T14:21:09Z</time></trkpt><trkpt lat="45.28953482977807" lon="11.645917042462417"><ele>15.999999999999998</ele><time>2026-04-11T14:21:10Z</time></trkpt><trkpt lat="45.28946930671067" lon="11.64594954240144"><ele>16.0</ele><time>2026-04-11T14:21:12Z</time></trkpt><trkpt lat="45.28950093043567" lon="11.64619398986951"><ele>16.400000000000002</ele><time>2026-04-11T14:21:13Z</time></trkpt><trkpt lat="45.28952656316938" lon="11.646313070756374"><ele>16.8</ele><time>2026-04-11T14:21:14Z</time></trkpt><trkpt lat="45.28955745228174" lon="11.646439299640564"><ele>17.200000000000003</ele><time>2026-04-11T14:21:15Z</time></trkpt><trkpt lat="45.28960013693363" lon="11.646572756086794"><ele>17.6</ele><time>2026-04-11T14:21:16Z</time></trkpt><trkpt lat="45.28965205024418" lon="11.646717586149533"><ele>18.0</ele><time>2026-04-11T14:21:17Z</time></trkpt><trkpt lat="45.289721534469166" lon="11.646868577895695"><ele>18.0</ele><time>2026-04-11T14:21:18Z</time></trkpt><trkpt lat="45.289800886810085" lon="11.64703719025479"><ele>18.0</ele><time>2026-04-11T14:21:19Z</time></trkpt><trkpt lat="45.28988295844879" lon="11.64721149328681"><ele>18.0</ele><time>2026-04-11T14:21:20Z</time></trkpt><trkpt lat="45.28995717558892" lon="11.647385588823155"><ele>18.0</ele><time>2026-04-11T14:21:21Z</time></trkpt><trkpt lat="45.290034461513756" lon="11.647570940168658"><ele>18.0</ele><time>2026-04-11T14:21:22Z</time></trkpt><trkpt lat="45.290118011102166" lon="11.647774397736406"><ele>18.0</ele><time>2026-04-11T14:21:23Z</time></trkpt><trkpt lat="45.29020836204963" lon="11.647982442800188"><ele>18.0</ele><time>2026-04-11T14:21:24Z</time></trkpt><trkpt lat="45.29030414228593" lon="11.648198560461388"><ele>18.0</ele><time>2026-04-11T14:21:25Z</time></trkpt><trkpt lat="45.29039846375464" lon="11.648407521671537"><ele>18.0</ele><time>2026-04-11T14:21:26Z</time></trkpt><trkpt lat="45.29048925031802" lon="11.648613890068079"><ele>18.0</ele><time>2026-04-11T14:21:27Z</time></trkpt><trkpt lat="45.29058346867478" lon="11.648829654135218"><ele>19.0</ele><time>2026-04-11T14:21:28Z</time></trkpt><trkpt lat="45.29067506322823" lon="11.649039437065822"><ele>20.0</ele><time>2026-04-11T14:21:29Z</time></trkpt><trkpt lat="45.29075844661777" lon="11.649243613087053"><ele>21.0</ele><time>2026-04-11T14:21:30Z</time></trkpt><trkpt lat="45.29084130850826" lon="11.649443162892192"><ele>21.333333333333332</ele><time>2026-04-11T14:21:31Z</time></trkpt><trkpt lat="45.29092567714753" lon="11.649636702581317"><ele>21.666666666666664</ele><time>2026-04-11T14:21:32Z</time></trkpt><trkpt lat="45.291000911246236" lon="11.649833513060612"><ele>22.0</ele><time>2026-04-11T14:21:33Z</time></trkpt><trkpt lat="45.29107433384275" lon="11.650033871954864"><ele>22.0</ele><time>2026-04-11T14:21:34Z</time></trkpt><trkpt lat="45.29114603386159" lon="11.650240453045253"><ele>22.0</ele><time>2026-04-11T14:21:35Z</time></trkpt><trkpt lat="45.291217874688165" lon="11.650443231620663"><ele>22.0</ele><time>2026-04-11T14:21:36Z</time></trkpt><trkpt lat="45.29127369186178" lon="11.650642456601302"><ele>22.333333333333332</ele><time>2026-04-11T14:21:36.999Z</time></trkpt><trkpt lat="45.29131700626356" lon="11.650846739660224"><ele>22.666666666666668</ele><time>2026-04-11T14:21:37.999Z</time></trkpt><trkpt lat="45.291345669321196" lon="11.651055895959518"><ele>23.0</ele><time>2026-04-11T14:21:38.999Z</time></trkpt><trkpt lat="45.291365749328406" lon="11.651269586103389"><ele>23.0</ele><time>2026-04-11T14:21:39.999Z</time></trkpt><trkpt lat="45.29137884399286" lon="11.651490421965873"><ele>23.0</ele><time>2026-04-11T14:21:40.999Z</time></trkpt><trkpt lat="45.291385339721096" lon="11.651710103897132"><ele>23.0</ele><time>2026-04-11T14:21:41.999Z</time></trkpt><trkpt lat="45.29138858617818" lon="11.651933833192189"><ele>23.5</ele><time>2026-04-11T14:21:42.999Z</time></trkpt><trkpt lat="45.291399314224144" lon="11.652148520580136"><ele>24.0</ele><time>2026-04-11T14:21:43.999Z</time></trkpt><trkpt lat="45.29142794770315" lon="11.652358714979185"><ele>24.5</ele><time>2026-04-11T14:21:45Z</time></trkpt><trkpt lat="45.29146013833553" lon="11.65256022952256"><ele>25.0</ele><time>2026-04-11T14:21:46Z</time></trkpt><trkpt lat="45.2914900918672" lon="11.652746864941811"><ele>25.5</ele><time>2026-04-11T14:21:47Z</time></trkpt><trkpt lat="45.291511238389255" lon="11.652937321165338"><ele>26.0</ele><time>2026-04-11T14:21:48Z</time></trkpt><trkpt lat="45.291514331487235" lon="11.653120218534108"><ele>26.5</ele><time>2026-04-11T14:21:49Z</time></trkpt><trkpt lat="45.2914963780645" lon="11.653313526702487"><ele>27.0</ele><time>2026-04-11T14:21:50Z</time></trkpt><trkpt lat="45.29146187415456" lon="11.65351213957771"><ele>28.333333333333336</ele><time>2026-04-11T14:21:51Z</time></trkpt><trkpt lat="45.29141655271529" lon="11.653711572232316"><ele>29.666666666666668</ele><time>2026-04-11T14:21:52Z</time></trkpt><trkpt lat="45.29136550687977" lon="11.653913795788988"><ele>31.0</ele><time>2026-04-11T14:21:53Z</time></trkpt><trkpt lat="45.29131211997611" lon="11.654116583811488"><ele>31.0</ele><time>2026-04-11T14:21:54Z</time></trkpt><trkpt lat="45.29124912282493" lon="11.654317239141808"><ele>31.0</ele><time>2026-04-11T14:21:55Z</time></trkpt><trkpt lat="45.291186926702544" lon="11.654512364127408"><ele>31.0</ele><time>2026-04-11T14:21:56Z</time></trkpt><trkpt lat="45.29111310143453" lon="11.654690023044816"><ele>31.0</ele><time>2026-04-11T14:21:57Z</time></trkpt><trkpt lat="45.291045041003336" lon="11.65485906224956"><ele>31.0</ele><time>2026-04-11T14:21:58Z</time></trkpt><trkpt lat="45.29099165421143" lon="11.65502884457693"><ele>31.0</ele><time>2026-04-11T14:21:59Z</time></trkpt><trkpt lat="45.29094731927801" lon="11.655211667244373"><ele>31.0</ele><time>2026-04-11T14:22:00Z</time></trkpt><trkpt lat="45.29091283614597" lon="11.655408508919276"><ele>31.0</ele><time>2026-04-11T14:22:01Z</time></trkpt><trkpt lat="45.29088898764651" lon="11.655622067067473"><ele>31.0</ele><time>2026-04-11T14:22:02Z</time></trkpt><trkpt lat="45.29087193525093" lon="11.655839546984414"><ele>31.0</ele><time>2026-04-11T14:22:03Z</time></trkpt><trkpt lat="45.29084952083663" lon="11.656059400114431"><ele>30.666666666666668</ele><time>2026-04-11T14:22:04Z</time></trkpt><trkpt lat="45.29082364821554" lon="11.656274968916959"><ele>30.333333333333336</ele><time>2026-04-11T14:22:05Z</time></trkpt><trkpt lat="45.29079739837414" lon="11.656486133134754"><ele>30.0</ele><time>2026-04-11T14:22:06Z</time></trkpt><trkpt lat="45.290774932701474" lon="11.656689582547092"><ele>30.0</ele><time>2026-04-11T14:22:07Z</time></trkpt><trkpt lat="45.290761075134036" lon="11.656884808331963"><ele>30.0</ele><time>2026-04-11T14:22:08Z</time></trkpt><trkpt lat="45.2907682234205" lon="11.657083283313183"><ele>30.0</ele><time>2026-04-11T14:22:09Z</time></trkpt><trkpt lat="45.29079906076444" lon="11.657288764819272"><ele>30.0</ele><time>2026-04-11T14:22:10Z</time></trkpt><trkpt lat="45.2908414336697" lon="11.657497583885373"><ele>30.0</ele><time>2026-04-11T14:22:11Z</time></trkpt><trkpt lat="45.29087776899726" lon="11.657710515960115"><ele>30.0</ele><time>2026-04-11T14:22:12Z</time></trkpt><trkpt lat="45.29090931904353" lon="11.657923816103269"><ele>30.0</ele><time>2026-04-11T14:22:13Z</time></trkpt><trkpt lat="45.29094798971086" lon="11.658134129891835"><ele>30.25</ele><time>2026-04-11T14:22:14Z</time></trkpt><trkpt lat="45.29098754331422" lon="11.658339310083717"><ele>30.5</ele><time>2026-04-11T14:22:15Z</time></trkpt><trkpt lat="45.29102025789801" lon="11.658542847626244"><ele>30.75</ele><time>2026-04-11T14:22:16Z</time></trkpt><trkpt lat="45.291045135501435" lon="11.658745902915314"><ele>31.0</ele><time>2026-04-11T14:22:17Z</time></trkpt><trkpt lat="45.29106384558626" lon="11.658944577610692"><ele>31.5</ele><time>2026-04-11T14:22:18Z</time></trkpt><trkpt lat="45.29107960623655" lon="11.659141863730486"><ele>32.0</ele><time>2026-04-11T14:22:19Z</time></trkpt><trkpt lat="45.2910974203778" lon="11.659341117797581"><ele>32.5</ele><time>2026-04-11T14:22:20Z</time></trkpt><trkpt lat="45.29111386328822" lon="11.659528557281627"><ele>33.0</ele><time>2026-04-11T14:22:21Z</time></trkpt><trkpt lat="45.29113090228895" lon="11.659717426056414"><ele>33.199999999999996</ele><time>2026-04-11T14:22:22Z</time></trkpt><trkpt lat="45.29114749970938" lon="11.659891581873595"><ele>33.4</ele><time>2026-04-11T14:22:23Z</time></trkpt><trkpt lat="45.29115626465221" lon="11.660049425024082"><ele>33.599999999999994</ele><time>2026-04-11T14:22:24Z</time></trkpt><trkpt lat="45.291164132201544" lon="11.66019046649787"><ele>33.8</ele><time>2026-04-11T14:22:25Z</time></trkpt><trkpt lat="45.29117621343335" lon="11.660331825132179"><ele>34.0</ele><time>2026-04-11T14:22:26Z</time></trkpt><trkpt lat="45.29119293482939" lon="11.660476913509635"><ele>34.5</ele><time>2026-04-11T14:22:27Z</time></trkpt><trkpt lat="45.291209534748134" lon="11.660639504532123"><ele>35.0</ele><time>2026-04-11T14:22:28Z</time></trkpt><trkpt lat="45.291227352979725" lon="11.66080975790941"><ele>35.5</ele><time>2026-04-11T14:22:29Z</time></trkpt><trkpt lat="45.291241696690676" lon="11.660973787734253"><ele>36.0</ele><time>2026-04-11T14:22:30Z</time></trkpt><trkpt lat="45.29126187117793" lon="11.661125734934036"><ele>36.0</ele><time>2026-04-11T14:22:31Z</time></trkpt><trkpt lat="45.29128380674442" lon="11.66126778831825"><ele>36.0</ele><time>2026-04-11T14:22:32Z</time></trkpt><trkpt lat="45.29130048977583" lon="11.661405717868824"><ele>36.0</ele><time>2026-04-11T14:22:33Z</time></trkpt><trkpt lat="45.29131343588534" lon="11.661537317414608"><ele>36.0</ele><time>2026-04-11T14:22:34Z</time></trkpt><trkpt lat="45.291331241030875" lon="11.66166101986727"><ele>36.0</ele><time>2026-04-11T14:22:35Z</time></trkpt><trkpt lat="45.29135174947642" lon="11.661775435442784"><ele>36.0</ele><time>2026-04-11T14:22:36Z</time></trkpt><trkpt lat="45.29135360683419" lon="11.661878961174809"><ele>36.0</ele><time>2026-04-11T14:22:37Z</time></trkpt><trkpt lat="45.291306473186815" lon="11.662035817727968"><ele>36.0</ele><time>2026-04-11T14:22:39Z</time></trkpt><trkpt lat="45.2911923934438" lon="11.662105643686663"><ele>36.0</ele><time>2026-04-11T14:22:41Z</time></trkpt><trkpt lat="45.291117828215796" lon="11.662087056490638"><ele>36.0</ele><time>2026-04-11T14:22:42Z</time></trkpt><trkpt lat="45.291032727738326" lon="11.662050054133543"><ele>36.0</ele><time>2026-04-11T14:22:43Z</time></trkpt><trkpt lat="45.29092981284458" lon="11.661994364891003"><ele>36.0</ele><time>2026-04-11T14:22:44Z</time></trkpt><trkpt lat="45.29081504867548" lon="11.661916840657025"><ele>36.0</ele><time>2026-04-11T14:22:45Z</time></trkpt><trkpt lat="45.29068818976808" lon="11.661844291533278"><ele>36.0</ele><time>2026-04-11T14:22:46Z</time></trkpt><trkpt lat="45.290571078921104" lon="11.66178182856145"><ele>36.0</ele><time>2026-04-11T14:22:47Z</time></trkpt><trkpt lat="45.29045136658267" lon="11.661725650431672"><ele>36.0</ele><time>2026-04-11T14:22:48Z</time></trkpt><trkpt lat="45.29031639765879" lon="11.661682740946224"><ele>36.0</ele><time>2026-04-11T14:22:49Z</time></trkpt><trkpt lat="45.29017751007962" lon="11.661663861838967"><ele>36.0</ele><time>2026-04-11T14:22:50Z</time></trkpt><trkpt lat="45.29003323881986" lon="11.661671737915777"><ele>36.0</ele><time>2026-04-11T14:22:51Z</time></trkpt><trkpt lat="45.28988874051306" lon="11.661686380442967"><ele>36.0</ele><time>2026-04-11T14:22:52Z</time></trkpt><trkpt lat="45.289739182874406" lon="11.661689478441048"><ele>36.0</ele><time>2026-04-11T14:22:53Z</time></trkpt><trkpt lat="45.28957953820725" lon="11.661662861613241"><ele>35.333333333333336</ele><time>2026-04-11T14:22:54Z</time></trkpt><trkpt lat="45.28941490480068" lon="11.661620826922656"><ele>34.66666666666667</ele><time>2026-04-11T14:22:55Z</time></trkpt><trkpt lat="45.28925401467423" lon="11.661572154603823"><ele>34.0</ele><time>2026-04-11T14:22:56Z</time></trkpt><trkpt lat="45.2890961533723" lon="11.661526537645376"><ele>34.0</ele><time>2026-04-11T14:22:57Z</time></trkpt><trkpt lat="45.28893406808966" lon="11.661483817428486"><ele>34.0</ele><time>2026-04-11T14:22:58Z</time></trkpt><trkpt lat="45.288775542435694" lon="11.66143447086776"><ele>34.0</ele><time>2026-04-11T14:22:59Z</time></trkpt><trkpt lat="45.28861896121726" lon="11.66135995574398"><ele>34.0</ele><time>2026-04-11T14:23:00Z</time></trkpt><trkpt lat="45.28846102885372" lon="11.66127278251181"><ele>34.0</ele><time>2026-04-11T14:23:01Z</time></trkpt><trkpt lat="45.28831050688351" lon="11.66118448944571"><ele>34.0</ele><time>2026-04-11T14:23:02Z</time></trkpt><trkpt lat="45.28816458742918" lon="11.661108183094807"><ele>34.75</ele><time>2026-04-11T14:23:03Z</time></trkpt><trkpt lat="45.28802438922581" lon="11.661046896532381"><ele>35.5</ele><time>2026-04-11T14:23:04Z</time></trkpt><trkpt lat="45.287888808314804" lon="11.661015344575755"><ele>36.25</ele><time>2026-04-11T14:23:05Z</time></trkpt><trkpt lat="45.28774586058698" lon="11.661010316037299"><ele>37.0</ele><time>2026-04-11T14:23:06Z</time></trkpt><trkpt lat="45.2875885967567" lon="11.661022426091675"><ele>37.0</ele><time>2026-04-11T14:23:07Z</time></trkpt><trkpt lat="45.28743583755032" lon="11.661045774487908"><ele>37.0</ele><time>2026-04-11T14:23:08Z</time></trkpt><trkpt lat="45.287277971076286" lon="11.661071528698223"><ele>37.0</ele><time>2026-04-11T14:23:09Z</time></trkpt><trkpt lat="45.28711899916044" lon="11.661105347945885"><ele>40.333333333333336</ele><time>2026-04-11T14:23:10Z</time></trkpt><trkpt lat="45.28695926376356" lon="11.661156585836624"><ele>43.666666666666664</ele><time>2026-04-11T14:23:11Z</time></trkpt><trkpt lat="45.28679505231508" lon="11.66121150967324"><ele>47.0</ele><time>2026-04-11T14:23:12Z</time></trkpt><trkpt lat="45.28663606763526" lon="11.66127409486335"><ele>47.0</ele><time>2026-04-11T14:23:13Z</time></trkpt><trkpt lat="45.286481790446544" lon="11.66135023372341"><ele>47.0</ele><time>2026-04-11T14:23:14Z</time></trkpt><trkpt lat="45.28632523776257" lon="11.661447748034204"><ele>47.0</ele><time>2026-04-11T14:23:15Z</time></trkpt><trkpt lat="45.28617640394377" lon="11.661574260450086"><ele>45.33333333333333</ele><time>2026-04-11T14:23:16Z</time></trkpt><trkpt lat="45.286033899116234" lon="11.66171651287079"><ele>43.666666666666664</ele><time>2026-04-11T14:23:17Z</time></trkpt><trkpt lat="45.28588362946747" lon="11.661862918107756"><ele>42.0</ele><time>2026-04-11T14:23:18Z</time></trkpt><trkpt lat="45.28573365881024" lon="11.662018016200447"><ele>42.666666666666664</ele><time>2026-04-11T14:23:19Z</time></trkpt><trkpt lat="45.285590394792884" lon="11.662180613040213"><ele>43.33333333333333</ele><time>2026-04-11T14:23:20Z</time></trkpt><trkpt lat="45.28544057882988" lon="11.662347782329556"><ele>44.0</ele><time>2026-04-11T14:23:21Z</time></trkpt><trkpt lat="45.28528613743599" lon="11.662497944645745"><ele>44.0</ele><time>2026-04-11T14:23:22Z</time></trkpt><trkpt lat="45.28514019852345" lon="11.662627533400986"><ele>44.0</ele><time>2026-04-11T14:23:23Z</time></trkpt><trkpt lat="45.28499484266094" lon="11.662737543659436"><ele>44.0</ele><time>2026-04-11T14:23:24Z</time></trkpt><trkpt lat="45.284838314846795" lon="11.662823057893245"><ele>46.33333333333333</ele><time>2026-04-11T14:23:25Z</time></trkpt><trkpt lat="45.28467486746324" lon="11.662883150290806"><ele>48.666666666666664</ele><time>2026-04-11T14:23:26Z</time></trkpt><trkpt lat="45.284507100229035" lon="11.662916991476605"><ele>51.0</ele><time>2026-04-11T14:23:27Z</time></trkpt><trkpt lat="45.28433418440632" lon="11.662928737205807"><ele>51.0</ele><time>2026-04-11T14:23:28Z</time></trkpt><trkpt lat="45.284161984666625" lon="11.662932844283825"><ele>51.0</ele><time>2026-04-11T14:23:29Z</time></trkpt><trkpt lat="45.28399685621762" lon="11.66293992316263"><ele>51.0</ele><time>2026-04-11T14:23:30Z</time></trkpt><trkpt lat="45.2838391156631" lon="11.662945461239575"><ele>52.5</ele><time>2026-04-11T14:23:31Z</time></trkpt><trkpt lat="45.283691343691686" lon="11.662952049687457"><ele>54.0</ele><time>2026-04-11T14:23:32Z</time></trkpt><trkpt lat="45.283543710528406" lon="11.66296210072918"><ele>55.5</ele><time>2026-04-11T14:23:33Z</time></trkpt><trkpt lat="45.28340446977129" lon="11.662997857682303"><ele>57.0</ele><time>2026-04-11T14:23:34Z</time></trkpt><trkpt lat="45.28326698559603" lon="11.663056691877353"><ele>57.0</ele><time>2026-04-11T14:23:35Z</time></trkpt><trkpt lat="45.28313209490485" lon="11.66313255394798"><ele>57.0</ele><time>2026-04-11T14:23:36Z</time></trkpt><trkpt lat="45.28301190645433" lon="11.66320087705119"><ele>57.0</ele><time>2026-04-11T14:23:37Z</time></trkpt><trkpt lat="45.282909775398146" lon="11.66325614444377"><ele>57.0</ele><time>2026-04-11T14:23:38Z</time></trkpt><trkpt lat="45.282806954046244" lon="11.663298912222253"><ele>59.0</ele><time>2026-04-11T14:23:39Z</time></trkpt><trkpt lat="45.28269979461243" lon="11.663327715428332"><ele>61.0</ele><time>2026-04-11T14:23:40Z</time></trkpt><trkpt lat="45.28259911114213" lon="11.663345012294265"><ele>63.0</ele><time>2026-04-11T14:23:41Z</time></trkpt><trkpt lat="45.28251326917488" lon="11.66335837264263"><ele>65.0</ele><time>2026-04-11T14:23:42Z</time></trkpt><trkpt lat="45.28244291596405" lon="11.663368387896753"><ele>67.0</ele><time>2026-04-11T14:23:43Z</time></trkpt><trkpt lat="45.28232240213388" lon="11.663354325948855"><ele>66.6</ele><time>2026-04-11T14:23:45Z</time></trkpt><trkpt lat="45.28225458924227" lon="11.663330017951163"><ele>66.2</ele><time>2026-04-11T14:23:46Z</time></trkpt><trkpt lat="45.28216307307072" lon="11.663292317501599"><ele>65.8</ele><time>2026-04-11T14:23:47Z</time></trkpt><trkpt lat="45.282057550162264" lon="11.663230650638809"><ele>65.4</ele><time>2026-04-11T14:23:48Z</time></trkpt><trkpt lat="45.281934017401824" lon="11.663145213777563"><ele>65.0</ele><time>2026-04-11T14:23:48.999Z</time></trkpt><trkpt lat="45.28179332057459" lon="11.663055355605156"><ele>65.0</ele><time>2026-04-11T14:23:49.999Z</time></trkpt><trkpt lat="45.281645941446534" lon="11.662965479955473"><ele>65.0</ele><time>2026-04-11T14:23:51Z</time></trkpt><trkpt lat="45.28149735774053" lon="11.6628779280403"><ele>65.0</ele><time>2026-04-11T14:23:52Z</time></trkpt><trkpt lat="45.281363733933276" lon="11.662786163943986"><ele>63.25</ele><time>2026-04-11T14:23:53Z</time></trkpt><trkpt lat="45.281238705140744" lon="11.662686087417331"><ele>61.5</ele><time>2026-04-11T14:23:54Z</time></trkpt><trkpt lat="45.28111979233063" lon="11.66258478533626"><ele>59.75</ele><time>2026-04-11T14:23:55Z</time></trkpt><trkpt lat="45.280991099509656" lon="11.662479917015252"><ele>58.0</ele><time>2026-04-11T14:23:56Z</time></trkpt><trkpt lat="45.28085116726269" lon="11.662399279471682"><ele>58.0</ele><time>2026-04-11T14:23:57Z</time></trkpt><trkpt lat="45.2807096609688" lon="11.662351993974891"><ele>58.0</ele><time>2026-04-11T14:23:58Z</time></trkpt><trkpt lat="45.28056721052488" lon="11.662328694727773"><ele>58.0</ele><time>2026-04-11T14:23:59Z</time></trkpt><trkpt lat="45.280426252831504" lon="11.662312745656516"><ele>58.0</ele><time>2026-04-11T14:24:00Z</time></trkpt><trkpt lat="45.280290641451515" lon="11.66229104117291"><ele>55.25</ele><time>2026-04-11T14:24:01Z</time></trkpt><trkpt lat="45.28015612425055" lon="11.662272092035211"><ele>52.5</ele><time>2026-04-11T14:24:02Z</time></trkpt><trkpt lat="45.280023816404864" lon="11.662237250565612"><ele>49.75</ele><time>2026-04-11T14:24:03Z</time></trkpt><trkpt lat="45.27989657051087" lon="11.662152854856904"><ele>47.0</ele><time>2026-04-11T14:24:04Z</time></trkpt><trkpt lat="45.27976650501322" lon="11.662076373294033"><ele>49.0</ele><time>2026-04-11T14:24:05Z</time></trkpt><trkpt lat="45.279625061892865" lon="11.662001737629636"><ele>51.0</ele><time>2026-04-11T14:24:06Z</time></trkpt><trkpt lat="45.279492353545606" lon="11.661891121702988"><ele>53.0</ele><time>2026-04-11T14:24:07Z</time></trkpt><trkpt lat="45.27935862487507" lon="11.66178727620194"><ele>53.0</ele><time>2026-04-11T14:24:08Z</time></trkpt><trkpt lat="45.27922693651848" lon="11.661692979991672"><ele>53.0</ele><time>2026-04-11T14:24:09Z</time></trkpt><trkpt lat="45.27909836079211" lon="11.661606252763121"><ele>53.0</ele><time>2026-04-11T14:24:10Z</time></trkpt><trkpt lat="45.2789768448556" lon="11.661519924047234"><ele>53.0</ele><time>2026-04-11T14:24:11Z</time></trkpt><trkpt lat="45.27886306427471" lon="11.661424802332657"><ele>52.5</ele><time>2026-04-11T14:24:12Z</time></trkpt><trkpt lat="45.278753528118436" lon="11.661330435191273"><ele>52.0</ele><time>2026-04-11T14:24:13Z</time></trkpt><trkpt lat="45.27864655322599" lon="11.661233248886516"><ele>51.5</ele><time>2026-04-11T14:24:14Z</time></trkpt><trkpt lat="45.27853906162764" lon="11.66113600784223"><ele>51.0</ele><time>2026-04-11T14:24:15Z</time></trkpt><trkpt lat="45.278427204522195" lon="11.661036747566717"><ele>51.0</ele><time>2026-04-11T14:24:16Z</time></trkpt><trkpt lat="45.27830267021862" lon="11.660958786469136"><ele>51.0</ele><time>2026-04-11T14:24:17Z</time></trkpt><trkpt lat="45.27817213577159" lon="11.66089386023023"><ele>51.0</ele><time>2026-04-11T14:24:18Z</time></trkpt><trkpt lat="45.278041611699535" lon="11.660842917303196"><ele>51.0</ele><time>2026-04-11T14:24:19Z</time></trkpt><trkpt lat="45.277914919724125" lon="11.6607958872434"><ele>48.599999999999994</ele><time>2026-04-11T14:24:20Z</time></trkpt><trkpt lat="45.27779402098278" lon="11.660751794189135"><ele>46.199999999999996</ele><time>2026-04-11T14:24:21Z</time></trkpt><trkpt lat="45.27768091886779" lon="11.66071112093214"><ele>43.8</ele><time>2026-04-11T14:24:22Z</time></trkpt><trkpt lat="45.27757485255082" lon="11.66067644978412"><ele>41.4</ele><time>2026-04-11T14:24:23Z</time></trkpt><trkpt lat="45.27748062880706" lon="11.660646327395558"><ele>39.0</ele><time>2026-04-11T14:24:24Z</time></trkpt><trkpt lat="45.277400698664096" lon="11.66061846268695"><ele>39.0</ele><time>2026-04-11T14:24:25Z</time></trkpt><trkpt lat="45.27733692125304" lon="11.660609553220597"><ele>39.0</ele><time>2026-04-11T14:24:26Z</time></trkpt><trkpt lat="45.277237885940714" lon="11.66070826052383"><ele>39.0</ele><time>2026-04-11T14:24:28Z</time></trkpt><trkpt lat="45.27723199975846" lon="11.66081477545248"><ele>39.0</ele><time>2026-04-11T14:24:29Z</time></trkpt><trkpt lat="45.27723306368382" lon="11.660930421404462"><ele>39.0</ele><time>2026-04-11T14:24:30Z</time></trkpt><trkpt lat="45.27722952653281" lon="11.66105585138678"><ele>39.0</ele><time>2026-04-11T14:24:31Z</time></trkpt><trkpt lat="45.27721306300633" lon="11.661173946736582"><ele>36.833333333333336</ele><time>2026-04-11T14:24:32Z</time></trkpt><trkpt lat="45.27719140266783" lon="11.661277686279124"><ele>34.666666666666664</ele><time>2026-04-11T14:24:33Z</time></trkpt><trkpt lat="45.27716805618778" lon="11.661378233167852"><ele>32.5</ele><time>2026-04-11T14:24:34Z</time></trkpt><trkpt lat="45.27713637654677" lon="11.66147252189217"><ele>30.333333333333332</ele><time>2026-04-11T14:24:35Z</time></trkpt><trkpt lat="45.27709541404468" lon="11.661557725007956"><ele>28.166666666666664</ele><time>2026-04-11T14:24:36Z</time></trkpt><trkpt lat="45.277039895398076" lon="11.661655533622467"><ele>26.0</ele><time>2026-04-11T14:24:37Z</time></trkpt><trkpt lat="45.27698982553001" lon="11.661744484366544"><ele>26.0</ele><time>2026-04-11T14:24:38Z</time></trkpt><trkpt lat="45.276947491751514" lon="11.661832515824832"><ele>26.0</ele><time>2026-04-11T14:24:39Z</time></trkpt><trkpt lat="45.27687078637129" lon="11.661927984353689"><ele>26.0</ele><time>2026-04-11T14:24:41Z</time></trkpt><trkpt lat="45.27677641892441" lon="11.66183563249883"><ele>26.0</ele><time>2026-04-11T14:24:43Z</time></trkpt><trkpt lat="45.276730680470976" lon="11.661745022356602"><ele>26.0</ele><time>2026-04-11T14:24:44Z</time></trkpt><trkpt lat="45.276669636593084" lon="11.661655262152713"><ele>26.0</ele><time>2026-04-11T14:24:45Z</time></trkpt><trkpt lat="45.276606253578386" lon="11.661547443261753"><ele>26.0</ele><time>2026-04-11T14:24:46Z</time></trkpt><trkpt lat="45.276546851690675" lon="11.661414203630452"><ele>26.0</ele><time>2026-04-11T14:24:47Z</time></trkpt><trkpt lat="45.27648395933819" lon="11.661255418169993"><ele>26.0</ele><time>2026-04-11T14:24:48Z</time></trkpt><trkpt lat="45.2764132824736" lon="11.661096620511431"><ele>24.75</ele><time>2026-04-11T14:24:49Z</time></trkpt><trkpt lat="45.276341061506294" lon="11.66095268064458"><ele>23.5</ele><time>2026-04-11T14:24:50Z</time></trkpt><trkpt lat="45.27626786558086" lon="11.660807411452074"><ele>22.25</ele><time>2026-04-11T14:24:51Z</time></trkpt><trkpt lat="45.2761439489199" lon="11.660717567892004"><ele>21.0</ele><time>2026-04-11T14:24:52Z</time></trkpt><trkpt lat="45.27602453476004" lon="11.660627448146107"><ele>21.0</ele><time>2026-04-11T14:24:53Z</time></trkpt><trkpt lat="45.27590230858243" lon="11.660529471823397"><ele>21.0</ele><time>2026-04-11T14:24:54Z</time></trkpt><trkpt lat="45.2757850357118" lon="11.66041826390119"><ele>21.0</ele><time>2026-04-11T14:24:55Z</time></trkpt><trkpt lat="45.275685399720544" lon="11.660269168335565"><ele>21.0</ele><time>2026-04-11T14:24:56Z</time></trkpt><trkpt lat="45.27557373256744" lon="11.660129687009018"><ele>20.666666666666668</ele><time>2026-04-11T14:24:57Z</time></trkpt><trkpt lat="45.27547140721175" lon="11.659971332701351"><ele>20.333333333333336</ele><time>2026-04-11T14:24:58Z</time></trkpt><trkpt lat="45.2753611221125" lon="11.65981267231644"><ele>20.0</ele><time>2026-04-11T14:24:59Z</time></trkpt><trkpt lat="45.275274834419285" lon="11.659627755524058"><ele>20.5</ele><time>2026-04-11T14:25:00Z</time></trkpt><trkpt lat="45.2751978897772" lon="11.659447196195279"><ele>21.0</ele><time>2026-04-11T14:25:01Z</time></trkpt><trkpt lat="45.27511734669645" lon="11.659274621340545"><ele>21.5</ele><time>2026-04-11T14:25:02Z</time></trkpt><trkpt lat="45.27501713579046" lon="11.659117676860184"><ele>22.0</ele><time>2026-04-11T14:25:03Z</time></trkpt><trkpt lat="45.27490543194448" lon="11.658971695429129"><ele>22.0</ele><time>2026-04-11T14:25:04Z</time></trkpt><trkpt lat="45.27478530122778" lon="11.658842675521605"><ele>22.0</ele><time>2026-04-11T14:25:05Z</time></trkpt><trkpt lat="45.274650689283774" lon="11.658711701296152"><ele>22.0</ele><time>2026-04-11T14:25:06Z</time></trkpt><trkpt lat="45.27451111187515" lon="11.65859614206214"><ele>22.666666666666664</ele><time>2026-04-11T14:25:07Z</time></trkpt><trkpt lat="45.27435964458091" lon="11.658481555284355"><ele>23.333333333333332</ele><time>2026-04-11T14:25:08Z</time></trkpt><trkpt lat="45.27420995656585" lon="11.658370915749344"><ele>24.0</ele><time>2026-04-11T14:25:09Z</time></trkpt><trkpt lat="45.27404487604421" lon="11.658246256814603"><ele>21.333333333333332</ele><time>2026-04-11T14:25:10Z</time></trkpt><trkpt lat="45.273879462579224" lon="11.658129529114907"><ele>18.666666666666664</ele><time>2026-04-11T14:25:11Z</time></trkpt><trkpt lat="45.273721772672424" lon="11.658003001310371"><ele>16.0</ele><time>2026-04-11T14:25:12Z</time></trkpt><trkpt lat="45.27356661628714" lon="11.657890137579232"><ele>16.0</ele><time>2026-04-11T14:25:13Z</time></trkpt><trkpt lat="45.273433618393256" lon="11.657751372163082"><ele>16.0</ele><time>2026-04-11T14:25:14Z</time></trkpt><trkpt lat="45.273297914758125" lon="11.65763146457014"><ele>16.0</ele><time>2026-04-11T14:25:15Z</time></trkpt><trkpt lat="45.27316885108807" lon="11.657527169356488"><ele>15.0</ele><time>2026-04-11T14:25:16Z</time></trkpt><trkpt lat="45.27306307124771" lon="11.657363288786765"><ele>14.0</ele><time>2026-04-11T14:25:17Z</time></trkpt><trkpt lat="45.2729519353581" lon="11.657203019519745"><ele>13.0</ele><time>2026-04-11T14:25:18Z</time></trkpt><trkpt lat="45.272831707683345" lon="11.657050334325675"><ele>14.0</ele><time>2026-04-11T14:25:19Z</time></trkpt><trkpt lat="45.27273587806884" lon="11.656897992705689"><ele>15.0</ele><time>2026-04-11T14:25:20Z</time></trkpt><trkpt lat="45.27265344896093" lon="11.656756437794645"><ele>16.0</ele><time>2026-04-11T14:25:21Z</time></trkpt><trkpt lat="45.272573011322066" lon="11.656611812240392"><ele>17.0</ele><time>2026-04-11T14:25:22Z</time></trkpt><trkpt lat="45.27250874697486" lon="11.656477095124313"><ele>17.0</ele><time>2026-04-11T14:25:23Z</time></trkpt><trkpt lat="45.27245127411173" lon="11.656338270155585"><ele>17.0</ele><time>2026-04-11T14:25:24Z</time></trkpt><trkpt lat="45.27240458963653" lon="11.656210034797168"><ele>17.0</ele><time>2026-04-11T14:25:25Z</time></trkpt><trkpt lat="45.27237443766525" lon="11.6560920417738"><ele>17.0</ele><time>2026-04-11T14:25:26Z</time></trkpt><trkpt lat="45.27236189637522" lon="11.655987004225157"><ele>17.0</ele><time>2026-04-11T14:25:27Z</time></trkpt><trkpt lat="45.27228880434461" lon="11.655867006095566"><ele>16.25</ele><time>2026-04-11T14:25:29Z</time></trkpt><trkpt lat="45.27218903801765" lon="11.655917856327536"><ele>15.5</ele><time>2026-04-11T14:25:31Z</time></trkpt><trkpt lat="45.272129209178765" lon="11.656096619644382"><ele>14.75</ele><time>2026-04-11T14:25:33Z</time></trkpt><trkpt lat="45.272110821365594" lon="11.656224881329553"><ele>14.0</ele><time>2026-04-11T14:25:34Z</time></trkpt><trkpt lat="45.27202669786753" lon="11.656350064467741"><ele>14.0</ele><time>2026-04-11T14:25:35Z</time></trkpt><trkpt lat="45.27193982228273" lon="11.656488162729918"><ele>14.0</ele><time>2026-04-11T14:25:36Z</time></trkpt><trkpt lat="45.27184380189802" lon="11.656642726306066"><ele>14.0</ele><time>2026-04-11T14:25:37Z</time></trkpt><trkpt lat="45.27175167672331" lon="11.656792125166039"><ele>14.0</ele><time>2026-04-11T14:25:38Z</time></trkpt><trkpt lat="45.271648291200925" lon="11.656945158243456"><ele>13.666666666666668</ele><time>2026-04-11T14:25:39Z</time></trkpt><trkpt lat="45.27152629120731" lon="11.657114098412682"><ele>13.333333333333332</ele><time>2026-04-11T14:25:40Z</time></trkpt><trkpt lat="45.27138660183577" lon="11.657300067144579"><ele>13.0</ele><time>2026-04-11T14:25:41Z</time></trkpt><trkpt lat="45.27124221656359" lon="11.65748527148375"><ele>12.666666666666666</ele><time>2026-04-11T14:25:42Z</time></trkpt><trkpt lat="45.27110344302614" lon="11.6576690759497"><ele>12.333333333333332</ele><time>2026-04-11T14:25:43Z</time></trkpt><trkpt lat="45.27095749094295" lon="11.657860983034114"><ele>12.0</ele><time>2026-04-11T14:25:44Z</time></trkpt><trkpt lat="45.270818648375176" lon="11.658038639682834"><ele>12.0</ele><time>2026-04-11T14:25:45Z</time></trkpt><trkpt lat="45.27068447970227" lon="11.658210283861148"><ele>12.0</ele><time>2026-04-11T14:25:46Z</time></trkpt><trkpt lat="45.270552809912246" lon="11.65836858669662"><ele>12.0</ele><time>2026-04-11T14:25:47Z</time></trkpt><trkpt lat="45.27042533190174" lon="11.658491118010929"><ele>11.75</ele><time>2026-04-11T14:25:48Z</time></trkpt><trkpt lat="45.27028992664444" lon="11.658585780703861"><ele>11.5</ele><time>2026-04-11T14:25:49Z</time></trkpt><trkpt lat="45.270150106515175" lon="11.658651116424162"><ele>11.25</ele><time>2026-04-11T14:25:50Z</time></trkpt><trkpt lat="45.27000555649077" lon="11.658691017217526"><ele>11.0</ele><time>2026-04-11T14:25:51Z</time></trkpt><trkpt lat="45.26985473905069" lon="11.658698019560482"><ele>11.0</ele><time>2026-04-11T14:25:52Z</time></trkpt><trkpt lat="45.26969513090033" lon="11.65867859942724"><ele>11.0</ele><time>2026-04-11T14:25:53Z</time></trkpt><trkpt lat="45.2695346857499" lon="11.658645075053903"><ele>11.0</ele><time>2026-04-11T14:25:54Z</time></trkpt><trkpt lat="45.26936820810786" lon="11.658592034893735"><ele>11.0</ele><time>2026-04-11T14:25:55Z</time></trkpt><trkpt lat="45.26920582408263" lon="11.658515370047347"><ele>11.0</ele><time>2026-04-11T14:25:56Z</time></trkpt><trkpt lat="45.269036287495155" lon="11.658417803847643"><ele>11.0</ele><time>2026-04-11T14:25:57Z</time></trkpt><trkpt lat="45.26887130496856" lon="11.65832762099619"><ele>10.333333333333332</ele><time>2026-04-11T14:25:58Z</time></trkpt><trkpt lat="45.26869881784022" lon="11.65823312599142"><ele>9.666666666666666</ele><time>2026-04-11T14:25:59Z</time></trkpt><trkpt lat="45.268527961831424" lon="11.658136741207542"><ele>9.0</ele><time>2026-04-11T14:26:00Z</time></trkpt><trkpt lat="45.26835100358379" lon="11.658035664298076"><ele>9.0</ele><time>2026-04-11T14:26:01Z</time></trkpt><trkpt lat="45.26817286659499" lon="11.657922367226508"><ele>9.0</ele><time>2026-04-11T14:26:02Z</time></trkpt><trkpt lat="45.267999602613834" lon="11.657810147314299"><ele>9.0</ele><time>2026-04-11T14:26:03Z</time></trkpt><trkpt lat="45.26782293078427" lon="11.657698605986228"><ele>9.333333333333334</ele><time>2026-04-11T14:26:04Z</time></trkpt><trkpt lat="45.267643961368975" lon="11.657584910693831"><ele>9.666666666666668</ele><time>2026-04-11T14:26:05Z</time></trkpt><trkpt lat="45.2674613266905" lon="11.657475332261624"><ele>10.0</ele><time>2026-04-11T14:26:06Z</time></trkpt><trkpt lat="45.267284552865014" lon="11.657368415452874"><ele>9.333333333333334</ele><time>2026-04-11T14:26:07Z</time></trkpt><trkpt lat="45.26711789361768" lon="11.657262189289515"><ele>8.666666666666666</ele><time>2026-04-11T14:26:08Z</time></trkpt><trkpt lat="45.26695082204628" lon="11.657158120406464"><ele>8.0</ele><time>2026-04-11T14:26:09Z</time></trkpt><trkpt lat="45.2667813966237" lon="11.657057122898628"><ele>8.333333333333332</ele><time>2026-04-11T14:26:10Z</time></trkpt><trkpt lat="45.26661108449922" lon="11.65694676470875"><ele>8.666666666666666</ele><time>2026-04-11T14:26:11Z</time></trkpt><trkpt lat="45.2664503298039" lon="11.656845422965747"><ele>9.0</ele><time>2026-04-11T14:26:12Z</time></trkpt><trkpt lat="45.26628781911776" lon="11.656735122337"><ele>9.0</ele><time>2026-04-11T14:26:13Z</time></trkpt><trkpt lat="45.26613025632968" lon="11.656628693210397"><ele>9.0</ele><time>2026-04-11T14:26:14Z</time></trkpt><trkpt lat="45.26597137351932" lon="11.656503095573004"><ele>9.0</ele><time>2026-04-11T14:26:15Z</time></trkpt><trkpt lat="45.26581607583604" lon="11.656383520077698"><ele>9.0</ele><time>2026-04-11T14:26:16Z</time></trkpt><trkpt lat="45.26566081397438" lon="11.656258876833798"><ele>9.0</ele><time>2026-04-11T14:26:17Z</time></trkpt><trkpt lat="45.265500835155365" lon="11.656138254589845"><ele>9.0</ele><time>2026-04-11T14:26:18Z</time></trkpt><trkpt lat="45.26533833341267" lon="11.656024345333636"><ele>9.0</ele><time>2026-04-11T14:26:19Z</time></trkpt><trkpt lat="45.2651859802538" lon="11.655904900660888"><ele>9.0</ele><time>2026-04-11T14:26:20Z</time></trkpt><trkpt lat="45.26504851668653" lon="11.655799073980978"><ele>9.0</ele><time>2026-04-11T14:26:21Z</time></trkpt><trkpt lat="45.264917393752555" lon="11.655687494339142"><ele>9.0</ele><time>2026-04-11T14:26:22Z</time></trkpt><trkpt lat="45.264793725726946" lon="11.65556157609674"><ele>9.0</ele><time>2026-04-11T14:26:23Z</time></trkpt><trkpt lat="45.264677743578446" lon="11.655442417009088"><ele>9.0</ele><time>2026-04-11T14:26:24Z</time></trkpt><trkpt lat="45.26456758621866" lon="11.655322970784445"><ele>9.0</ele><time>2026-04-11T14:26:25Z</time></trkpt><trkpt lat="45.26446321114729" lon="11.655195562796443"><ele>9.25</ele><time>2026-04-11T14:26:26Z</time></trkpt><trkpt lat="45.26436063857213" lon="11.655057504862667"><ele>9.5</ele><time>2026-04-11T14:26:27Z</time></trkpt><trkpt lat="45.26426595364234" lon="11.654933994313904"><ele>9.75</ele><time>2026-04-11T14:26:28Z</time></trkpt><trkpt lat="45.264175427976866" lon="11.654802181941134"><ele>10.0</ele><time>2026-04-11T14:26:29Z</time></trkpt><trkpt lat="45.26408454826439" lon="11.654687781701327"><ele>10.0</ele><time>2026-04-11T14:26:30Z</time></trkpt><trkpt lat="45.26399454701031" lon="11.654577944383101"><ele>10.0</ele><time>2026-04-11T14:26:31Z</time></trkpt><trkpt lat="45.263898105301315" lon="11.654479674218049"><ele>10.0</ele><time>2026-04-11T14:26:32Z</time></trkpt><trkpt lat="45.26380424772664" lon="11.654388419814541"><ele>10.0</ele><time>2026-04-11T14:26:33Z</time></trkpt><trkpt lat="45.263700920168354" lon="11.654310839161104"><ele>11.25</ele><time>2026-04-11T14:26:34Z</time></trkpt><trkpt lat="45.26358897078637" lon="11.654251777905394"><ele>12.5</ele><time>2026-04-11T14:26:35Z</time></trkpt><trkpt lat="45.26347450926871" lon="11.654173023128987"><ele>13.75</ele><time>2026-04-11T14:26:36Z</time></trkpt><trkpt lat="45.263358353876406" lon="11.654072877062267"><ele>15.0</ele><time>2026-04-11T14:26:37Z</time></trkpt><trkpt lat="45.263247301199755" lon="11.653954084106857"><ele>15.0</ele><time>2026-04-11T14:26:38Z</time></trkpt><trkpt lat="45.263141930210516" lon="11.65381182604374"><ele>15.0</ele><time>2026-04-11T14:26:39Z</time></trkpt><trkpt lat="45.26302999855555" lon="11.653657180600211"><ele>15.0</ele><time>2026-04-11T14:26:40Z</time></trkpt><trkpt lat="45.26292006082712" lon="11.653494103778039"><ele>15.5</ele><time>2026-04-11T14:26:41Z</time></trkpt><trkpt lat="45.262831576031154" lon="11.653321838161537"><ele>16.0</ele><time>2026-04-11T14:26:42Z</time></trkpt><trkpt lat="45.26274480575403" lon="11.653174350069367"><ele>16.5</ele><time>2026-04-11T14:26:43Z</time></trkpt><trkpt lat="45.26265046804847" lon="11.653050142944897"><ele>17.0</ele><time>2026-04-11T14:26:44Z</time></trkpt><trkpt lat="45.26257572981063" lon="11.65291083726528"><ele>16.5</ele><time>2026-04-11T14:26:45Z</time></trkpt><trkpt lat="45.26249875156529" lon="11.65277530909241"><ele>16.0</ele><time>2026-04-11T14:26:46Z</time></trkpt><trkpt lat="45.26241879907877" lon="11.652630252100701"><ele>15.5</ele><time>2026-04-11T14:26:47Z</time></trkpt><trkpt lat="45.262333923452374" lon="11.652483270356308"><ele>15.0</ele><time>2026-04-11T14:26:48Z</time></trkpt><trkpt lat="45.26224577545512" lon="11.652331865546378"><ele>16.0</ele><time>2026-04-11T14:26:49Z</time></trkpt><trkpt lat="45.26215102299637" lon="11.652166937746749"><ele>17.0</ele><time>2026-04-11T14:26:50Z</time></trkpt><trkpt lat="45.2620523269927" lon="11.6520018961708"><ele>18.0</ele><time>2026-04-11T14:26:51Z</time></trkpt><trkpt lat="45.26195467361574" lon="11.651839641859274"><ele>18.0</ele><time>2026-04-11T14:26:52Z</time></trkpt><trkpt lat="45.26185529563939" lon="11.651662120991531"><ele>18.0</ele><time>2026-04-11T14:26:53Z</time></trkpt><trkpt lat="45.26175541910916" lon="11.651494384095786"><ele>18.0</ele><time>2026-04-11T14:26:54Z</time></trkpt><trkpt lat="45.26166506858325" lon="11.65133090596463"><ele>18.0</ele><time>2026-04-11T14:26:55Z</time></trkpt><trkpt lat="45.261582299740134" lon="11.651185151692877"><ele>18.0</ele><time>2026-04-11T14:26:56Z</time></trkpt><trkpt lat="45.26149754332223" lon="11.651049034075884"><ele>18.0</ele><time>2026-04-11T14:26:57Z</time></trkpt><trkpt lat="45.26142015962105" lon="11.650916504455159"><ele>18.0</ele><time>2026-04-11T14:26:58Z</time></trkpt><trkpt lat="45.261331736465166" lon="11.650777834628956"><ele>19.25</ele><time>2026-04-11T14:26:59Z</time></trkpt><trkpt lat="45.26123142843078" lon="11.65064334992531"><ele>20.5</ele><time>2026-04-11T14:27:00Z</time></trkpt><trkpt lat="45.26111409604156" lon="11.650520000676993"><ele>21.75</ele><time>2026-04-11T14:27:01Z</time></trkpt><trkpt lat="45.26098748452637" lon="11.650407193518125"><ele>23.0</ele><time>2026-04-11T14:27:02Z</time></trkpt><trkpt lat="45.260850738946004" lon="11.650302278805926"><ele>22.666666666666668</ele><time>2026-04-11T14:27:03Z</time></trkpt><trkpt lat="45.26070104982762" lon="11.650207347118709"><ele>22.333333333333332</ele><time>2026-04-11T14:27:04Z</time></trkpt><trkpt lat="45.260543719296244" lon="11.650126352188604"><ele>22.0</ele><time>2026-04-11T14:27:05Z</time></trkpt><trkpt lat="45.26037588881189" lon="11.65004996095425"><ele>22.0</ele><time>2026-04-11T14:27:06Z</time></trkpt><trkpt lat="45.26020194697289" lon="11.649984525532393"><ele>22.0</ele><time>2026-04-11T14:27:07Z</time></trkpt><trkpt lat="45.260028316164174" lon="11.64992508674553"><ele>22.0</ele><time>2026-04-11T14:27:08Z</time></trkpt><trkpt lat="45.25985018692982" lon="11.649866088775099"><ele>22.333333333333332</ele><time>2026-04-11T14:27:09Z</time></trkpt><trkpt lat="45.25966830920189" lon="11.649793678400451"><ele>22.666666666666668</ele><time>2026-04-11T14:27:10Z</time></trkpt><trkpt lat="45.25951078603882" lon="11.649722211719302"><ele>23.0</ele><time>2026-04-11T14:27:11Z</time></trkpt><trkpt lat="45.25936793145825" lon="11.64963063786922"><ele>23.0</ele><time>2026-04-11T14:27:12Z</time></trkpt><trkpt lat="45.259236368990486" lon="11.649512346192063"><ele>23.0</ele><time>2026-04-11T14:27:13Z</time></trkpt><trkpt lat="45.259109285163724" lon="11.649361816255949"><ele>23.0</ele><time>2026-04-11T14:27:14Z</time></trkpt><trkpt lat="45.25899144509289" lon="11.64918472167231"><ele>22.0</ele><time>2026-04-11T14:27:15Z</time></trkpt><trkpt lat="45.258882590729414" lon="11.648985706064652"><ele>21.0</ele><time>2026-04-11T14:27:16Z</time></trkpt><trkpt lat="45.258786132638235" lon="11.648789607106135"><ele>20.0</ele><time>2026-04-11T14:27:17Z</time></trkpt><trkpt lat="45.2586982174712" lon="11.648610400934963"><ele>19.666666666666668</ele><time>2026-04-11T14:27:18Z</time></trkpt><trkpt lat="45.25861163977648" lon="11.648426325601797"><ele>19.333333333333332</ele><time>2026-04-11T14:27:19Z</time></trkpt><trkpt lat="45.258533888314695" lon="11.648251490302552"><ele>19.0</ele><time>2026-04-11T14:27:20Z</time></trkpt><trkpt lat="45.2584501722169" lon="11.648061550686911"><ele>19.0</ele><time>2026-04-11T14:27:21Z</time></trkpt><trkpt lat="45.258359185033754" lon="11.647883700617653"><ele>19.0</ele><time>2026-04-11T14:27:22Z</time></trkpt><trkpt lat="45.25826519899555" lon="11.647694415526875"><ele>19.0</ele><time>2026-04-11T14:27:23Z</time></trkpt><trkpt lat="45.25816011097344" lon="11.647513086521105"><ele>18.333333333333332</ele><time>2026-04-11T14:27:24Z</time></trkpt><trkpt lat="45.25804787694462" lon="11.647340941725998"><ele>17.666666666666668</ele><time>2026-04-11T14:27:25Z</time></trkpt><trkpt lat="45.25790831189047" lon="11.647187535900516"><ele>17.0</ele><time>2026-04-11T14:27:26Z</time></trkpt><trkpt lat="45.25775308075846" lon="11.647036728734177"><ele>16.333333333333336</ele><time>2026-04-11T14:27:27Z</time></trkpt><trkpt lat="45.25759608404404" lon="11.646890631661915"><ele>15.666666666666668</ele><time>2026-04-11T14:27:28Z</time></trkpt><trkpt lat="45.25745564107232" lon="11.646775417355778"><ele>15.0</ele><time>2026-04-11T14:27:29Z</time></trkpt><trkpt lat="45.25732249262882" lon="11.646677248365272"><ele>16.0</ele><time>2026-04-11T14:27:30Z</time></trkpt><trkpt lat="45.25719522048961" lon="11.646575827574859"><ele>17.0</ele><time>2026-04-11T14:27:31Z</time></trkpt><trkpt lat="45.257070180829" lon="11.646468598955487"><ele>18.0</ele><time>2026-04-11T14:27:32Z</time></trkpt><trkpt lat="45.256944330194315" lon="11.646345817307525"><ele>19.0</ele><time>2026-04-11T14:27:33Z</time></trkpt><trkpt lat="45.256819538574234" lon="11.646201761988605"><ele>18.333333333333332</ele><time>2026-04-11T14:27:34Z</time></trkpt><trkpt lat="45.25669945232174" lon="11.646046295168027"><ele>17.666666666666668</ele><time>2026-04-11T14:27:35Z</time></trkpt><trkpt lat="45.25657595410978" lon="11.64587349341915"><ele>17.0</ele><time>2026-04-11T14:27:36Z</time></trkpt><trkpt lat="45.25645585270472" lon="11.645713242552171"><ele>18.333333333333336</ele><time>2026-04-11T14:27:37Z</time></trkpt><trkpt lat="45.25634384565818" lon="11.6455506270227"><ele>19.666666666666668</ele><time>2026-04-11T14:27:38Z</time></trkpt><trkpt lat="45.256231828019736" lon="11.645381516305077"><ele>21.0</ele><time>2026-04-11T14:27:39Z</time></trkpt><trkpt lat="45.2561225720974" lon="11.645208209110908"><ele>21.0</ele><time>2026-04-11T14:27:40Z</time></trkpt><trkpt lat="45.25602350394756" lon="11.645032173704783"><ele>21.0</ele><time>2026-04-11T14:27:41Z</time></trkpt><trkpt lat="45.25592948222653" lon="11.644861142486393"><ele>21.0</ele><time>2026-04-11T14:27:42Z</time></trkpt><trkpt lat="45.25584140194888" lon="11.64470224628781"><ele>21.0</ele><time>2026-04-11T14:27:43Z</time></trkpt><trkpt lat="45.2557571210846" lon="11.644542726825584"><ele>21.0</ele><time>2026-04-11T14:27:44Z</time></trkpt><trkpt lat="45.25567103263011" lon="11.644379209600059"><ele>21.0</ele><time>2026-04-11T14:27:45Z</time></trkpt><trkpt lat="45.25558004100022" lon="11.644210666328458"><ele>21.0</ele><time>2026-04-11T14:27:46Z</time></trkpt><trkpt lat="45.255483153308454" lon="11.644058003099842"><ele>21.666666666666668</ele><time>2026-04-11T14:27:47Z</time></trkpt><trkpt lat="45.25537266028953" lon="11.643907470536899"><ele>22.333333333333336</ele><time>2026-04-11T14:27:48Z</time></trkpt><trkpt lat="45.255254152883964" lon="11.64376874193788"><ele>23.0</ele><time>2026-04-11T14:27:49Z</time></trkpt><trkpt lat="45.255132897366956" lon="11.643655365556356"><ele>23.75</ele><time>2026-04-11T14:27:50Z</time></trkpt><trkpt lat="45.25502051509957" lon="11.643530164311299"><ele>24.5</ele><time>2026-04-11T14:27:51Z</time></trkpt><trkpt lat="45.25490258323594" lon="11.64341935679996"><ele>25.25</ele><time>2026-04-11T14:27:52Z</time></trkpt><trkpt lat="45.254796307507796" lon="11.643295024292282"><ele>26.0</ele><time>2026-04-11T14:27:53Z</time></trkpt><trkpt lat="45.25469670514738" lon="11.64314244532285"><ele>26.0</ele><time>2026-04-11T14:27:54Z</time></trkpt><trkpt lat="45.25460972533739" lon="11.64296063443495"><ele>26.0</ele><time>2026-04-11T14:27:55Z</time></trkpt><trkpt lat="45.254519509429755" lon="11.6427723348338"><ele>26.0</ele><time>2026-04-11T14:27:56Z</time></trkpt><trkpt lat="45.25445719605091" lon="11.642564034774274"><ele>24.5</ele><time>2026-04-11T14:27:57Z</time></trkpt><trkpt lat="45.25440792999237" lon="11.642380398820839"><ele>23.0</ele><time>2026-04-11T14:27:58Z</time></trkpt><trkpt lat="45.254360251654425" lon="11.642213474396486"><ele>21.5</ele><time>2026-04-11T14:27:59Z</time></trkpt><trkpt lat="45.254302338380015" lon="11.64206590187113"><ele>20.0</ele><time>2026-04-11T14:28:00Z</time></trkpt><trkpt lat="45.254228090904" lon="11.6419240743978"><ele>20.0</ele><time>2026-04-11T14:28:01Z</time></trkpt><trkpt lat="45.25413445824219" lon="11.641796546669305"><ele>20.0</ele><time>2026-04-11T14:28:02Z</time></trkpt><trkpt lat="45.25403304510403" lon="11.64168187535908"><ele>20.0</ele><time>2026-04-11T14:28:03Z</time></trkpt><trkpt lat="45.25392105463744" lon="11.641587687838625"><ele>20.0</ele><time>2026-04-11T14:28:04Z</time></trkpt><trkpt lat="45.25379770888474" lon="11.641512400482364"><ele>20.0</ele><time>2026-04-11T14:28:05Z</time></trkpt><trkpt lat="45.253671389868785" lon="11.641459557662003"><ele>20.0</ele><time>2026-04-11T14:28:06Z</time></trkpt><trkpt lat="45.25354215935941" lon="11.64143434203965"><ele>20.0</ele><time>2026-04-11T14:28:07Z</time></trkpt><trkpt lat="45.25341388225334" lon="11.641425280298506"><ele>20.0</ele><time>2026-04-11T14:28:08Z</time></trkpt><trkpt lat="45.25329296139736" lon="11.64138260684212"><ele>20.0</ele><time>2026-04-11T14:28:09Z</time></trkpt><trkpt lat="45.253180617530404" lon="11.64139002463251"><ele>20.0</ele><time>2026-04-11T14:28:10Z</time></trkpt><trkpt lat="45.25307642265834" lon="11.641366840430912"><ele>20.0</ele><time>2026-04-11T14:28:11Z</time></trkpt><trkpt lat="45.252982578455885" lon="11.641345635184265"><ele>20.0</ele><time>2026-04-11T14:28:12Z</time></trkpt><trkpt lat="45.252891897342366" lon="11.641325219412842"><ele>20.0</ele><time>2026-04-11T14:28:13Z</time></trkpt><trkpt lat="45.252809429455354" lon="11.641307837268041"><ele>19.2</ele><time>2026-04-11T14:28:14Z</time></trkpt><trkpt lat="45.252725470478424" lon="11.64127518752432"><ele>18.4</ele><time>2026-04-11T14:28:15Z</time></trkpt><trkpt lat="45.25263543925419" lon="11.641226577771734"><ele>17.6</ele><time>2026-04-11T14:28:16Z</time></trkpt><trkpt lat="45.25254432942735" lon="11.641158446628799"><ele>16.8</ele><time>2026-04-11T14:28:17Z</time></trkpt><trkpt lat="45.25245133993752" lon="11.641077992154163"><ele>16.0</ele><time>2026-04-11T14:28:18Z</time></trkpt><trkpt lat="45.252357523732066" lon="11.640995493914009"><ele>15.75</ele><time>2026-04-11T14:28:19Z</time></trkpt><trkpt lat="45.2522546819132" lon="11.64090813552362"><ele>15.5</ele><time>2026-04-11T14:28:20Z</time></trkpt><trkpt lat="45.25215251486643" lon="11.640817496002136"><ele>15.25</ele><time>2026-04-11T14:28:21Z</time></trkpt><trkpt lat="45.252051689599725" lon="11.640725087815659"><ele>15.0</ele><time>2026-04-11T14:28:22Z</time></trkpt><trkpt lat="45.25194784206182" lon="11.640632166305416"><ele>15.0</ele><time>2026-04-11T14:28:23Z</time></trkpt><trkpt lat="45.2518468457038" lon="11.640545170108"><ele>15.0</ele><time>2026-04-11T14:28:24Z</time></trkpt><trkpt lat="45.25174833393815" lon="11.640450757056785"><ele>15.0</ele><time>2026-04-11T14:28:25Z</time></trkpt><trkpt lat="45.25164040621484" lon="11.640359876378795"><ele>15.0</ele><time>2026-04-11T14:28:26Z</time></trkpt><trkpt lat="45.25152823716495" lon="11.640273145032307"><ele>14.75</ele><time>2026-04-11T14:28:27Z</time></trkpt><trkpt lat="45.25139872711628" lon="11.64021535799337"><ele>14.5</ele><time>2026-04-11T14:28:28Z</time></trkpt><trkpt lat="45.25125398875242" lon="11.640169052936145"><ele>14.25</ele><time>2026-04-11T14:28:29Z</time></trkpt><trkpt lat="45.25110598634348" lon="11.640154963035272"><ele>14.0</ele><time>2026-04-11T14:28:30Z</time></trkpt><trkpt lat="45.250956422553685" lon="11.640159040655954"><ele>14.0</ele><time>2026-04-11T14:28:31Z</time></trkpt><trkpt lat="45.25081022947695" lon="11.64017353920033"><ele>14.0</ele><time>2026-04-11T14:28:32Z</time></trkpt><trkpt lat="45.25068136953114" lon="11.640184865892973"><ele>14.0</ele><time>2026-04-11T14:28:33Z</time></trkpt><trkpt lat="45.25056303907653" lon="11.640188823210943"><ele>14.0</ele><time>2026-04-11T14:28:34Z</time></trkpt><trkpt lat="45.250449916655796" lon="11.640194520613932"><ele>13.799999999999999</ele><time>2026-04-11T14:28:35Z</time></trkpt><trkpt lat="45.25034592036129" lon="11.640206930727622"><ele>13.599999999999998</ele><time>2026-04-11T14:28:36Z</time></trkpt><trkpt lat="45.25025632123749" lon="11.64021759018667"><ele>13.4</ele><time>2026-04-11T14:28:37Z</time></trkpt><trkpt lat="45.250179884664135" lon="11.640222382791752"><ele>13.2</ele><time>2026-04-11T14:28:38Z</time></trkpt><trkpt lat="45.25011439826731" lon="11.640209676030704"><ele>13.0</ele><time>2026-04-11T14:28:39Z</time></trkpt><trkpt lat="45.25002133328821" lon="11.640097678784807"><ele>12.999999999999998</ele><time>2026-04-11T14:28:41Z</time></trkpt><trkpt lat="45.24991431625022" lon="11.640031291419541"><ele>13.0</ele><time>2026-04-11T14:28:43Z</time></trkpt><trkpt lat="45.24985840583669" lon="11.64007981695119"><ele>13.0</ele><time>2026-04-11T14:28:44Z</time></trkpt><trkpt lat="45.24982920323079" lon="11.640171055423295"><ele>13.0</ele><time>2026-04-11T14:28:45Z</time></trkpt><trkpt lat="45.24982698933576" lon="11.640280215606658"><ele>12.999999999999998</ele><time>2026-04-11T14:28:46Z</time></trkpt><trkpt lat="45.2498183179461" lon="11.640391781366173"><ele>13.0</ele><time>2026-04-11T14:28:47Z</time></trkpt><trkpt lat="45.24979062818872" lon="11.640506447390605"><ele>13.0</ele><time>2026-04-11T14:28:48Z</time></trkpt><trkpt lat="45.24974779120326" lon="11.640625641632377"><ele>13.0</ele><time>2026-04-11T14:28:49Z</time></trkpt><trkpt lat="45.24969065490914" lon="11.640763691983754"><ele>13.0</ele><time>2026-04-11T14:28:50Z</time></trkpt><trkpt lat="45.249619642962365" lon="11.640917976118631"><ele>13.0</ele><time>2026-04-11T14:28:51Z</time></trkpt><trkpt lat="45.24954608709671" lon="11.641092418932152"><ele>13.0</ele><time>2026-04-11T14:28:52Z</time></trkpt><trkpt lat="45.249469041949965" lon="11.641271516024398"><ele>13.0</ele><time>2026-04-11T14:28:53Z</time></trkpt><trkpt lat="45.24938451044306" lon="11.641437279240128"><ele>13.0</ele><time>2026-04-11T14:28:54Z</time></trkpt><trkpt lat="45.249298189135416" lon="11.641580080992727"><ele>13.0</ele><time>2026-04-11T14:28:55Z</time></trkpt><trkpt lat="45.24920853345507" lon="11.64169530996817"><ele>13.0</ele><time>2026-04-11T14:28:56Z</time></trkpt><trkpt lat="45.24909473987749" lon="11.641773614864961"><ele>13.0</ele><time>2026-04-11T14:28:57Z</time></trkpt><trkpt lat="45.24898844990658" lon="11.641875149262512"><ele>13.0</ele><time>2026-04-11T14:28:58Z</time></trkpt><trkpt lat="45.248859832183406" lon="11.641947098010103"><ele>13.0</ele><time>2026-04-11T14:28:59Z</time></trkpt><trkpt lat="45.24873593454138" lon="11.642014089652394"><ele>13.5</ele><time>2026-04-11T14:29:00Z</time></trkpt><trkpt lat="45.248615529364486" lon="11.642079955516675"><ele>14.0</ele><time>2026-04-11T14:29:01Z</time></trkpt><trkpt lat="45.2484979381841" lon="11.642150403888154"><ele>14.5</ele><time>2026-04-11T14:29:02Z</time></trkpt><trkpt lat="45.2483820323017" lon="11.642213514698858"><ele>15.0</ele><time>2026-04-11T14:29:03Z</time></trkpt><trkpt lat="45.24826412242611" lon="11.642275271927128"><ele>15.0</ele><time>2026-04-11T14:29:04Z</time></trkpt><trkpt lat="45.24814086208255" lon="11.642338578215647"><ele>15.0</ele><time>2026-04-11T14:29:05Z</time></trkpt><trkpt lat="45.2480160431337" lon="11.642409720508986"><ele>15.0</ele><time>2026-04-11T14:29:06Z</time></trkpt><trkpt lat="45.247886753754955" lon="11.642484762633664"><ele>15.0</ele><time>2026-04-11T14:29:07Z</time></trkpt><trkpt lat="45.24775561031348" lon="11.642550067971046"><ele>14.5</ele><time>2026-04-11T14:29:08Z</time></trkpt><trkpt lat="45.24762035527555" lon="11.642615863315415"><ele>14.0</ele><time>2026-04-11T14:29:09Z</time></trkpt><trkpt lat="45.24748397203051" lon="11.642666984792356"><ele>13.5</ele><time>2026-04-11T14:29:10Z</time></trkpt><trkpt lat="45.24734691997366" lon="11.64272018751029"><ele>13.0</ele><time>2026-04-11T14:29:11Z</time></trkpt><trkpt lat="45.247207804919654" lon="11.642755122124463"><ele>13.0</ele><time>2026-04-11T14:29:12Z</time></trkpt><trkpt lat="45.24706015387385" lon="11.642784151355917"><ele>13.0</ele><time>2026-04-11T14:29:13Z</time></trkpt><trkpt lat="45.24691219457937" lon="11.642810918811769"><ele>13.0</ele><time>2026-04-11T14:29:14Z</time></trkpt><trkpt lat="45.24676996348598" lon="11.642826855464776"><ele>13.0</ele><time>2026-04-11T14:29:15Z</time></trkpt><trkpt lat="45.246629717978706" lon="11.642839721730818"><ele>13.75</ele><time>2026-04-11T14:29:16Z</time></trkpt><trkpt lat="45.24649494105636" lon="11.642860689455679"><ele>14.5</ele><time>2026-04-11T14:29:17Z</time></trkpt><trkpt lat="45.246350930549774" lon="11.642876760873055"><ele>15.25</ele><time>2026-04-11T14:29:18Z</time></trkpt><trkpt lat="45.2462115933676" lon="11.642894207145021"><ele>16.0</ele><time>2026-04-11T14:29:19Z</time></trkpt><trkpt lat="45.24606441155976" lon="11.642911035413201"><ele>16.0</ele><time>2026-04-11T14:29:20Z</time></trkpt><trkpt lat="45.24591256354383" lon="11.642923340663929"><ele>16.0</ele><time>2026-04-11T14:29:21Z</time></trkpt><trkpt lat="45.245777408622665" lon="11.642945213439482"><ele>16.0</ele><time>2026-04-11T14:29:22Z</time></trkpt><trkpt lat="45.2456450901883" lon="11.642967791534618"><ele>16.0</ele><time>2026-04-11T14:29:23Z</time></trkpt><trkpt lat="45.245510351530505" lon="11.642982745528782"><ele>15.8</ele><time>2026-04-11T14:29:24Z</time></trkpt><trkpt lat="45.245380982388916" lon="11.643010741897665"><ele>15.600000000000001</ele><time>2026-04-11T14:29:25Z</time></trkpt><trkpt lat="45.24526788290261" lon="11.643036259412034"><ele>15.4</ele><time>2026-04-11T14:29:26Z</time></trkpt><trkpt lat="45.24518226611408" lon="11.643056310661134"><ele>15.2</ele><time>2026-04-11T14:29:27Z</time></trkpt><trkpt lat="45.24511522287375" lon="11.643068287053907"><ele>15.0</ele><time>2026-04-11T14:29:28Z</time></trkpt><trkpt lat="45.245035241433996" lon="11.643091049528998"><ele>15.0</ele><time>2026-04-11T14:29:30Z</time></trkpt><trkpt lat="45.244950650869264" lon="11.643136845678688"><ele>15.0</ele><time>2026-04-11T14:29:34Z</time></trkpt><trkpt lat="45.24488570232307" lon="11.643169170567226"><ele>15.0</ele><time>2026-04-11T14:29:35Z</time></trkpt><trkpt lat="45.24479034697866" lon="11.64320876963925"><ele>15.0</ele><time>2026-04-11T14:29:36Z</time></trkpt><trkpt lat="45.24467616067676" lon="11.643244182991639"><ele>15.0</ele><time>2026-04-11T14:29:37Z</time></trkpt><trkpt lat="45.244537502591314" lon="11.643286356630748"><ele>14.0</ele><time>2026-04-11T14:29:38Z</time></trkpt><trkpt lat="45.244402839586336" lon="11.643337724897105"><ele>13.0</ele><time>2026-04-11T14:29:39Z</time></trkpt><trkpt lat="45.24426055090469" lon="11.643397502824385"><ele>12.0</ele><time>2026-04-11T14:29:40Z</time></trkpt><trkpt lat="45.24410232268361" lon="11.643459528203154"><ele>12.0</ele><time>2026-04-11T14:29:41Z</time></trkpt><trkpt lat="45.24394232338052" lon="11.6435158015282"><ele>12.0</ele><time>2026-04-11T14:29:42Z</time></trkpt><trkpt lat="45.2437839989273" lon="11.643575115628595"><ele>12.0</ele><time>2026-04-11T14:29:43Z</time></trkpt><trkpt lat="45.243612306409865" lon="11.643638629652294"><ele>13.0</ele><time>2026-04-11T14:29:44Z</time></trkpt><trkpt lat="45.24343269729629" lon="11.643707426328495"><ele>14.0</ele><time>2026-04-11T14:29:45Z</time></trkpt><trkpt lat="45.243253091518504" lon="11.64378179884188"><ele>15.0</ele><time>2026-04-11T14:29:46Z</time></trkpt><trkpt lat="45.24307626382178" lon="11.643846223837391"><ele>15.0</ele><time>2026-04-11T14:29:47Z</time></trkpt><trkpt lat="45.24290120488637" lon="11.643910093103203"><ele>15.0</ele><time>2026-04-11T14:29:48Z</time></trkpt><trkpt lat="45.24272520942105" lon="11.643977595986371"><ele>15.0</ele><time>2026-04-11T14:29:49Z</time></trkpt><trkpt lat="45.24254543765132" lon="11.644042375124057"><ele>15.0</ele><time>2026-04-11T14:29:50Z</time></trkpt><trkpt lat="45.24237257736568" lon="11.644115479367217"><ele>15.0</ele><time>2026-04-11T14:29:51Z</time></trkpt><trkpt lat="45.242194680927135" lon="11.644184382125855"><ele>15.0</ele><time>2026-04-11T14:29:52Z</time></trkpt><trkpt lat="45.24202681695261" lon="11.644262684993038"><ele>14.666666666666668</ele><time>2026-04-11T14:29:53Z</time></trkpt><trkpt lat="45.24185288582108" lon="11.644341780430963"><ele>14.333333333333334</ele><time>2026-04-11T14:29:54Z</time></trkpt><trkpt lat="45.24168711465187" lon="11.644436264261117"><ele>14.0</ele><time>2026-04-11T14:29:55Z</time></trkpt><trkpt lat="45.24151980961899" lon="11.644526091634054"><ele>13.666666666666668</ele><time>2026-04-11T14:29:56Z</time></trkpt><trkpt lat="45.24135634523529" lon="11.644626786504428"><ele>13.333333333333332</ele><time>2026-04-11T14:29:57Z</time></trkpt><trkpt lat="45.24118883038458" lon="11.644724038012917"><ele>13.0</ele><time>2026-04-11T14:29:58Z</time></trkpt><trkpt lat="45.241018647165816" lon="11.6448203149245"><ele>13.0</ele><time>2026-04-11T14:29:59Z</time></trkpt><trkpt lat="45.240857358971084" lon="11.644929716368765"><ele>13.0</ele><time>2026-04-11T14:30:00Z</time></trkpt><trkpt lat="45.240692046010594" lon="11.645023294626892"><ele>13.0</ele><time>2026-04-11T14:30:01Z</time></trkpt><trkpt lat="45.240525224410064" lon="11.645128019822677"><ele>13.0</ele><time>2026-04-11T14:30:02Z</time></trkpt><trkpt lat="45.2403609309823" lon="11.645232326741947"><ele>13.0</ele><time>2026-04-11T14:30:03Z</time></trkpt><trkpt lat="45.24019648721996" lon="11.645343601481944"><ele>13.0</ele><time>2026-04-11T14:30:04Z</time></trkpt><trkpt lat="45.2400296421031" lon="11.645438818555245"><ele>13.333333333333332</ele><time>2026-04-11T14:30:05Z</time></trkpt><trkpt lat="45.23986235547155" lon="11.645547900383908"><ele>13.666666666666668</ele><time>2026-04-11T14:30:06Z</time></trkpt><trkpt lat="45.23969526528198" lon="11.645648539845055"><ele>14.0</ele><time>2026-04-11T14:30:07Z</time></trkpt><trkpt lat="45.23952615048583" lon="11.645754770238185"><ele>14.0</ele><time>2026-04-11T14:30:08Z</time></trkpt><trkpt lat="45.23936240596047" lon="11.645865204116635"><ele>14.0</ele><time>2026-04-11T14:30:09Z</time></trkpt><trkpt lat="45.239216129122774" lon="11.645949966342739"><ele>14.0</ele><time>2026-04-11T14:30:10Z</time></trkpt><trkpt lat="45.23907911152764" lon="11.646024561262829"><ele>14.0</ele><time>2026-04-11T14:30:11Z</time></trkpt><trkpt lat="45.23895276035362" lon="11.646109768484203"><ele>14.0</ele><time>2026-04-11T14:30:12Z</time></trkpt><trkpt lat="45.23883464293487" lon="11.646201420597631"><ele>14.0</ele><time>2026-04-11T14:30:13Z</time></trkpt><trkpt lat="45.2387271161783" lon="11.646329449517365"><ele>14.0</ele><time>2026-04-11T14:30:14Z</time></trkpt><trkpt lat="45.23862004156255" lon="11.646478130559098"><ele>14.0</ele><time>2026-04-11T14:30:15Z</time></trkpt><trkpt lat="45.238523251687596" lon="11.646652856808288"><ele>14.0</ele><time>2026-04-11T14:30:16Z</time></trkpt><trkpt lat="45.23843471659063" lon="11.646844424161218"><ele>14.0</ele><time>2026-04-11T14:30:17Z</time></trkpt><trkpt lat="45.23834890500469" lon="11.647036490860161"><ele>14.0</ele><time>2026-04-11T14:30:18Z</time></trkpt><trkpt lat="45.23827423070658" lon="11.647212143525262"><ele>14.0</ele><time>2026-04-11T14:30:19Z</time></trkpt><trkpt lat="45.23819393151872" lon="11.647379221962334"><ele>14.0</ele><time>2026-04-11T14:30:20Z</time></trkpt><trkpt lat="45.238106155366424" lon="11.647530003290754"><ele>14.0</ele><time>2026-04-11T14:30:21Z</time></trkpt><trkpt lat="45.23800652667458" lon="11.64764912546287"><ele>14.0</ele><time>2026-04-11T14:30:22Z</time></trkpt><trkpt lat="45.237900690180744" lon="11.647742004015445"><ele>14.0</ele><time>2026-04-11T14:30:23Z</time></trkpt><trkpt lat="45.2377797508652" lon="11.647826965000789"><ele>14.0</ele><time>2026-04-11T14:30:24Z</time></trkpt><trkpt lat="45.237647644830815" lon="11.647908411231281"><ele>14.0</ele><time>2026-04-11T14:30:25Z</time></trkpt><trkpt lat="45.23751818103131" lon="11.64800084738002"><ele>14.25</ele><time>2026-04-11T14:30:26Z</time></trkpt><trkpt lat="45.237387290352714" lon="11.648098125390195"><ele>14.5</ele><time>2026-04-11T14:30:27Z</time></trkpt><trkpt lat="45.237259640150086" lon="11.648188984098072"><ele>14.75</ele><time>2026-04-11T14:30:28Z</time></trkpt><trkpt lat="45.23713999717261" lon="11.648272285567279"><ele>15.0</ele><time>2026-04-11T14:30:29Z</time></trkpt><trkpt lat="45.23700874375471" lon="11.648363874694388"><ele>15.0</ele><time>2026-04-11T14:30:30Z</time></trkpt><trkpt lat="45.236885651292575" lon="11.648452087779619"><ele>15.0</ele><time>2026-04-11T14:30:31Z</time></trkpt><trkpt lat="45.236767995720776" lon="11.648542926718148"><ele>15.0</ele><time>2026-04-11T14:30:32Z</time></trkpt><trkpt lat="45.23665103633318" lon="11.648638039772235"><ele>15.0</ele><time>2026-04-11T14:30:33Z</time></trkpt><trkpt lat="45.23653431438313" lon="11.648718935114811"><ele>15.0</ele><time>2026-04-11T14:30:34Z</time></trkpt><trkpt lat="45.236425096284755" lon="11.648793437833952"><ele>15.0</ele><time>2026-04-11T14:30:35Z</time></trkpt><trkpt lat="45.23632117368349" lon="11.648866436259913"><ele>15.0</ele><time>2026-04-11T14:30:36Z</time></trkpt><trkpt lat="45.23622121371927" lon="11.648937051832656"><ele>15.0</ele><time>2026-04-11T14:30:37Z</time></trkpt><trkpt lat="45.236125920588414" lon="11.649007385840314"><ele>15.0</ele><time>2026-04-11T14:30:38Z</time></trkpt><trkpt lat="45.23602707408954" lon="11.649076063580122"><ele>15.0</ele><time>2026-04-11T14:30:39Z</time></trkpt><trkpt lat="45.23592342280669" lon="11.649153975877244"><ele>15.0</ele><time>2026-04-11T14:30:40Z</time></trkpt><trkpt lat="45.23581735399522" lon="11.649231498202086"><ele>15.0</ele><time>2026-04-11T14:30:41Z</time></trkpt><trkpt lat="45.23571069197662" lon="11.64930501608091"><ele>14.75</ele><time>2026-04-11T14:30:42Z</time></trkpt><trkpt lat="45.23559644568957" lon="11.649390193451362"><ele>14.5</ele><time>2026-04-11T14:30:43Z</time></trkpt><trkpt lat="45.2354878299791" lon="11.649464849217766"><ele>14.25</ele><time>2026-04-11T14:30:44Z</time></trkpt><trkpt lat="45.23538819247539" lon="11.649535334530446"><ele>14.0</ele><time>2026-04-11T14:30:45Z</time></trkpt><trkpt lat="45.23529267209161" lon="11.649598826664826"><ele>14.0</ele><time>2026-04-11T14:30:46Z</time></trkpt><trkpt lat="45.23519732065053" lon="11.649662851049053"><ele>13.999999999999998</ele><time>2026-04-11T14:30:47Z</time></trkpt><trkpt lat="45.23511046025308" lon="11.649711115778919"><ele>13.999999999999998</ele><time>2026-04-11T14:30:48Z</time></trkpt><trkpt lat="45.235005134465204" lon="11.6497360177915"><ele>14.0</ele><time>2026-04-11T14:30:49Z</time></trkpt><trkpt lat="45.2348884083474" lon="11.649730630508506"><ele>14.0</ele><time>2026-04-11T14:30:50Z</time></trkpt><trkpt lat="45.23477571692769" lon="11.649678678822884"><ele>13.75</ele><time>2026-04-11T14:30:51Z</time></trkpt><trkpt lat="45.23466232265857" lon="11.649661037410205"><ele>13.5</ele><time>2026-04-11T14:30:52Z</time></trkpt><trkpt lat="45.23454979127847" lon="11.649615886517505"><ele>13.25</ele><time>2026-04-11T14:30:53Z</time></trkpt><trkpt lat="45.234439066731596" lon="11.649585959786043"><ele>13.0</ele><time>2026-04-11T14:30:54Z</time></trkpt><trkpt lat="45.23432386050738" lon="11.649572816922808"><ele>13.0</ele><time>2026-04-11T14:30:55Z</time></trkpt><trkpt lat="45.23420354514886" lon="11.649567450377017"><ele>13.0</ele><time>2026-04-11T14:30:56Z</time></trkpt><trkpt lat="45.23408208911424" lon="11.649581145510574"><ele>13.0</ele><time>2026-04-11T14:30:57Z</time></trkpt><trkpt lat="45.23395715708997" lon="11.649611224741248"><ele>13.0</ele><time>2026-04-11T14:30:58Z</time></trkpt><trkpt lat="45.233835422108704" lon="11.649662850854012"><ele>13.0</ele><time>2026-04-11T14:30:59Z</time></trkpt><trkpt lat="45.233720336710974" lon="11.649732260752641"><ele>13.0</ele><time>2026-04-11T14:31:00Z</time></trkpt><trkpt lat="45.23360442759853" lon="11.649813288049758"><ele>13.0</ele><time>2026-04-11T14:31:01Z</time></trkpt><trkpt lat="45.23348757761729" lon="11.649914223853632"><ele>13.0</ele><time>2026-04-11T14:31:02Z</time></trkpt><trkpt lat="45.23338316117525" lon="11.65004577644007"><ele>13.0</ele><time>2026-04-11T14:31:03Z</time></trkpt><trkpt lat="45.233291684230316" lon="11.650186415076753"><ele>13.0</ele><time>2026-04-11T14:31:04Z</time></trkpt><trkpt lat="45.23321406775768" lon="11.650321028653051"><ele>13.0</ele><time>2026-04-11T14:31:05Z</time></trkpt><trkpt lat="45.233144389939994" lon="11.65044001349979"><ele>13.0</ele><time>2026-04-11T14:31:06Z</time></trkpt><trkpt lat="45.233084561320496" lon="11.65055712087587"><ele>13.0</ele><time>2026-04-11T14:31:07Z</time></trkpt><trkpt lat="45.23302512090775" lon="11.650665398642232"><ele>13.0</ele><time>2026-04-11T14:31:08Z</time></trkpt><trkpt lat="45.23295856073951" lon="11.650775804658416"><ele>13.0</ele><time>2026-04-11T14:31:09Z</time></trkpt><trkpt lat="45.23288830201403" lon="11.650892368597342"><ele>13.0</ele><time>2026-04-11T14:31:10Z</time></trkpt><trkpt lat="45.23282314600952" lon="11.651010844131912"><ele>13.0</ele><time>2026-04-11T14:31:11Z</time></trkpt><trkpt lat="45.2327559546918" lon="11.651127227261117"><ele>13.0</ele><time>2026-04-11T14:31:12Z</time></trkpt><trkpt lat="45.23268633290998" lon="11.651250587599689"><ele>13.0</ele><time>2026-04-11T14:31:13Z</time></trkpt><trkpt lat="45.23261749947194" lon="11.651374474148337"><ele>13.0</ele><time>2026-04-11T14:31:14Z</time></trkpt><trkpt lat="45.23254093338222" lon="11.651509025248723"><ele>13.0</ele><time>2026-04-11T14:31:15Z</time></trkpt><trkpt lat="45.232462649498515" lon="11.65164423032721"><ele>13.0</ele><time>2026-04-11T14:31:16Z</time></trkpt><trkpt lat="45.23239029899605" lon="11.651775339183569"><ele>13.0</ele><time>2026-04-11T14:31:17Z</time></trkpt><trkpt lat="45.23231985219954" lon="11.651905961577032"><ele>13.0</ele><time>2026-04-11T14:31:18Z</time></trkpt><trkpt lat="45.232244470356704" lon="11.652032161950933"><ele>13.0</ele><time>2026-04-11T14:31:19Z</time></trkpt><trkpt lat="45.23216007300961" lon="11.652143518887193"><ele>13.0</ele><time>2026-04-11T14:31:20Z</time></trkpt><trkpt lat="45.23206620923348" lon="11.652243049694032"><ele>13.0</ele><time>2026-04-11T14:31:21Z</time></trkpt><trkpt lat="45.231966128139966" lon="11.652332901645645"><ele>13.0</ele><time>2026-04-11T14:31:22Z</time></trkpt><trkpt lat="45.2318636925911" lon="11.652410640008448"><ele>13.0</ele><time>2026-04-11T14:31:23Z</time></trkpt><trkpt lat="45.231758053034376" lon="11.65248660883959"><ele>13.0</ele><time>2026-04-11T14:31:24Z</time></trkpt><trkpt lat="45.23165864302759" lon="11.652568747345246"><ele>13.0</ele><time>2026-04-11T14:31:25Z</time></trkpt><trkpt lat="45.23156205881274" lon="11.65266349418823"><ele>13.0</ele><time>2026-04-11T14:31:26Z</time></trkpt><trkpt lat="45.231469042648456" lon="11.65277117396632"><ele>13.0</ele><time>2026-04-11T14:31:27Z</time></trkpt><trkpt lat="45.23138233760843" lon="11.652890408317388"><ele>12.75</ele><time>2026-04-11T14:31:28Z</time></trkpt><trkpt lat="45.23129873865563" lon="11.653012052690254"><ele>12.5</ele><time>2026-04-11T14:31:29Z</time></trkpt><trkpt lat="45.231216916891086" lon="11.653134908727905"><ele>12.25</ele><time>2026-04-11T14:31:30Z</time></trkpt><trkpt lat="45.2311342355537" lon="11.653253328238495"><ele>12.0</ele><time>2026-04-11T14:31:31Z</time></trkpt><trkpt lat="45.231049141070116" lon="11.653366488379755"><ele>12.0</ele><time>2026-04-11T14:31:32Z</time></trkpt><trkpt lat="45.23096347602133" lon="11.653484038731046"><ele>12.0</ele><time>2026-04-11T14:31:33Z</time></trkpt><trkpt lat="45.2308827243443" lon="11.653603754729646"><ele>12.0</ele><time>2026-04-11T14:31:34Z</time></trkpt><trkpt lat="45.23080267883834" lon="11.653718235671295"><ele>12.0</ele><time>2026-04-11T14:31:35Z</time></trkpt><trkpt lat="45.230727821875085" lon="11.653824314906947"><ele>12.0</ele><time>2026-04-11T14:31:36Z</time></trkpt><trkpt lat="45.23065325500407" lon="11.653923684779494"><ele>12.0</ele><time>2026-04-11T14:31:37Z</time></trkpt><trkpt lat="45.23058209228866" lon="11.654025642857828"><ele>12.0</ele><time>2026-04-11T14:31:38Z</time></trkpt><trkpt lat="45.23051456575879" lon="11.654124165435006"><ele>12.0</ele><time>2026-04-11T14:31:39Z</time></trkpt><trkpt lat="45.23044448665833" lon="11.654223224643939"><ele>12.0</ele><time>2026-04-11T14:31:40Z</time></trkpt><trkpt lat="45.23038612444993" lon="11.654312748231087"><ele>12.0</ele><time>2026-04-11T14:31:41Z</time></trkpt><trkpt lat="45.23033367309528" lon="11.654383557871142"><ele>12.0</ele><time>2026-04-11T14:31:42Z</time></trkpt><trkpt lat="45.230255955079926" lon="11.654470296826958"><ele>12.0</ele><time>2026-04-11T14:31:44Z</time></trkpt><trkpt lat="45.23016915339648" lon="11.65446239122394"><ele>12.0</ele><time>2026-04-11T14:31:47Z</time></trkpt><trkpt lat="45.23014269068252" lon="11.654365117412155"><ele>12.0</ele><time>2026-04-11T14:31:48Z</time></trkpt><trkpt lat="45.23009009937945" lon="11.654315007741973"><ele>12.0</ele><time>2026-04-11T14:31:49Z</time></trkpt><trkpt lat="45.230036224958056" lon="11.654252931214744"><ele>12.0</ele><time>2026-04-11T14:31:50Z</time></trkpt><trkpt lat="45.22998458261919" lon="11.654189667987822"><ele>12.0</ele><time>2026-04-11T14:31:51Z</time></trkpt><trkpt lat="45.2298937068688" lon="11.654092577981325"><ele>12.0</ele><time>2026-04-11T14:31:53Z</time></trkpt><trkpt lat="45.22983373448742" lon="11.654019413850335"><ele>12.0</ele><time>2026-04-11T14:31:55Z</time></trkpt><trkpt lat="45.22976254393871" lon="11.653897369936017"><ele>12.0</ele><time>2026-04-11T14:31:57Z</time></trkpt><trkpt lat="45.229684442831164" lon="11.653771554209252"><ele>12.399999999999999</ele><time>2026-04-11T14:31:59Z</time></trkpt><trkpt lat="45.22964144985463" lon="11.653692503193765"><ele>12.799999999999999</ele><time>2026-04-11T14:32:00Z</time></trkpt><trkpt lat="45.22957333846493" lon="11.653580987858037"><ele>13.2</ele><time>2026-04-11T14:32:02Z</time></trkpt><trkpt lat="45.22952191101048" lon="11.653491764340677"><ele>13.6</ele><time>2026-04-11T14:32:04Z</time></trkpt><trkpt lat="45.229433862846506" lon="11.653420459998312"><ele>14.0</ele><time>2026-04-11T14:32:06Z</time></trkpt><trkpt lat="45.22935326542046" lon="11.653304324874428"><ele>14.2</ele><time>2026-04-11T14:32:08Z</time></trkpt><trkpt lat="45.22924742961635" lon="11.653189998921146"><ele>14.399999999999999</ele><time>2026-04-11T14:32:10Z</time></trkpt><trkpt lat="45.22918729542186" lon="11.653125040669282"><ele>14.6</ele><time>2026-04-11T14:32:11Z</time></trkpt><trkpt lat="45.229116329610456" lon="11.653077374534798"><ele>14.8</ele><time>2026-04-11T14:32:12Z</time></trkpt><trkpt lat="45.22905173740092" lon="11.652991491326816"><ele>15.0</ele><time>2026-04-11T14:32:13Z</time></trkpt><trkpt lat="45.22898238741549" lon="11.652917274293243"><ele>14.833333333333334</ele><time>2026-04-11T14:32:14Z</time></trkpt><trkpt lat="45.22891893920307" lon="11.65282677777727"><ele>14.666666666666668</ele><time>2026-04-11T14:32:15Z</time></trkpt><trkpt lat="45.228850567155604" lon="11.652751569873487"><ele>14.5</ele><time>2026-04-11T14:32:16Z</time></trkpt><trkpt lat="45.228785326313165" lon="11.652688048869312"><ele>14.333333333333334</ele><time>2026-04-11T14:32:17Z</time></trkpt><trkpt lat="45.228719245984635" lon="11.652630546770434"><ele>14.166666666666668</ele><time>2026-04-11T14:32:18Z</time></trkpt><trkpt lat="45.22866431399173" lon="11.652573134161843"><ele>14.0</ele><time>2026-04-11T14:32:19Z</time></trkpt><trkpt lat="45.228575625737726" lon="11.652481743265621"><ele>13.833333333333334</ele><time>2026-04-11T14:32:21Z</time></trkpt><trkpt lat="45.22852047430212" lon="11.652423208177956"><ele>13.666666666666668</ele><time>2026-04-11T14:32:23Z</time></trkpt><trkpt lat="45.22846336209006" lon="11.652377559646178"><ele>13.5</ele><time>2026-04-11T14:32:25Z</time></trkpt><trkpt lat="45.228374800428924" lon="11.652287078996007"><ele>13.333333333333332</ele><time>2026-04-11T14:32:27Z</time></trkpt><trkpt lat="45.228334211531426" lon="11.652217738109396"><ele>13.166666666666666</ele><time>2026-04-11T14:32:28Z</time></trkpt><trkpt lat="45.22826037138006" lon="11.652182751202378"><ele>13.0</ele><time>2026-04-11T14:32:29Z</time></trkpt><trkpt lat="45.22820696690045" lon="11.652125787242362"><ele>13.0</ele><time>2026-04-11T14:32:30Z</time></trkpt><trkpt lat="45.22812143184452" lon="11.652052457204238"><ele>13.0</ele><time>2026-04-11T14:32:32Z</time></trkpt><trkpt lat="45.22798801004568" lon="11.65194072744833"><ele>13.0</ele><time>2026-04-11T14:32:35Z</time></trkpt><trkpt lat="45.22788291315865" lon="11.652077311451439"><ele>13.0</ele><time>2026-04-11T14:32:37Z</time></trkpt><trkpt lat="45.22782260775127" lon="11.652260631286916"><ele>12.999999999999998</ele><time>2026-04-11T14:32:39Z</time></trkpt><trkpt lat="45.22776207111223" lon="11.652362467251143"><ele>13.0</ele><time>2026-04-11T14:32:40Z</time></trkpt><trkpt lat="45.2277100325978" lon="11.652483462143739"><ele>13.0</ele><time>2026-04-11T14:32:41Z</time></trkpt><trkpt lat="45.22765690996722" lon="11.6525892353265"><ele>13.0</ele><time>2026-04-11T14:32:42Z</time></trkpt><trkpt lat="45.22761176795814" lon="11.65269333771928"><ele>12.999999999999998</ele><time>2026-04-11T14:32:43Z</time></trkpt><trkpt lat="45.22757136499625" lon="11.652788315805994"><ele>13.0</ele><time>2026-04-11T14:32:44Z</time></trkpt><trkpt lat="45.22752632134293" lon="11.652857536569899"><ele>13.166666666666666</ele><time>2026-04-11T14:32:45Z</time></trkpt><trkpt lat="45.227443572832165" lon="11.652977044453591"><ele>13.333333333333332</ele><time>2026-04-11T14:32:47Z</time></trkpt><trkpt lat="45.227403883594775" lon="11.653059158082202"><ele>13.5</ele><time>2026-04-11T14:32:48Z</time></trkpt><trkpt lat="45.2273737566098" lon="11.653138604507344"><ele>13.666666666666668</ele><time>2026-04-11T14:32:49Z</time></trkpt><trkpt lat="45.22729769173572" lon="11.653242541607092"><ele>13.833333333333334</ele><time>2026-04-11T14:32:51Z</time></trkpt><trkpt lat="45.22721897200562" lon="11.653232514391249"><ele>14.0</ele><time>2026-04-11T14:32:53Z</time></trkpt><trkpt lat="45.22713987689165" lon="11.653299570725904"><ele>14.0</ele><time>2026-04-11T14:32:55Z</time></trkpt><trkpt lat="45.22708652492589" lon="11.653386383403003"><ele>13.999999999999998</ele><time>2026-04-11T14:32:56Z</time></trkpt><trkpt lat="45.22702639641955" lon="11.653496110547678"><ele>13.999999999999998</ele><time>2026-04-11T14:32:57Z</time></trkpt><trkpt lat="45.22696874104666" lon="11.653611540459478"><ele>14.0</ele><time>2026-04-11T14:32:58Z</time></trkpt><trkpt lat="45.226907769521006" lon="11.653726452686765"><ele>14.0</ele><time>2026-04-11T14:32:59Z</time></trkpt><trkpt lat="45.22685295135089" lon="11.653837283592065"><ele>14.0</ele><time>2026-04-11T14:33:00Z</time></trkpt><trkpt lat="45.22679605386329" lon="11.65394819268917"><ele>13.999999999999998</ele><time>2026-04-11T14:33:01Z</time></trkpt><trkpt lat="45.22674377972983" lon="11.654053628107874"><ele>13.999999999999998</ele><time>2026-04-11T14:33:02Z</time></trkpt><trkpt lat="45.226696547019365" lon="11.654162957040462"><ele>14.0</ele><time>2026-04-11T14:33:03Z</time></trkpt><trkpt lat="45.22664624069771" lon="11.654277962437616"><ele>14.0</ele><time>2026-04-11T14:33:04Z</time></trkpt><trkpt lat="45.226596349110146" lon="11.654389399034315"><ele>14.2</ele><time>2026-04-11T14:33:05Z</time></trkpt><trkpt lat="45.22654680024568" lon="11.654502091894118"><ele>14.399999999999999</ele><time>2026-04-11T14:33:06Z</time></trkpt><trkpt lat="45.2264960704152" lon="11.654615147286501"><ele>14.6</ele><time>2026-04-11T14:33:07Z</time></trkpt><trkpt lat="45.22643501911191" lon="11.654723382742729"><ele>14.8</ele><time>2026-04-11T14:33:08Z</time></trkpt><trkpt lat="45.22638374810456" lon="11.654854335599623"><ele>15.0</ele><time>2026-04-11T14:33:09Z</time></trkpt><trkpt lat="45.226315924686546" lon="11.654994593724249"><ele>14.4</ele><time>2026-04-11T14:33:10Z</time></trkpt><trkpt lat="45.226242772967474" lon="11.655131368803447"><ele>13.8</ele><time>2026-04-11T14:33:11Z</time></trkpt><trkpt lat="45.226183645846426" lon="11.65525885566516"><ele>13.2</ele><time>2026-04-11T14:33:12Z</time></trkpt><trkpt lat="45.22612609864015" lon="11.655380783734968"><ele>12.6</ele><time>2026-04-11T14:33:13Z</time></trkpt><trkpt lat="45.2260672494095" lon="11.655500338039253"><ele>12.0</ele><time>2026-04-11T14:33:14Z</time></trkpt><trkpt lat="45.226011770695905" lon="11.655609878929308"><ele>11.8</ele><time>2026-04-11T14:33:15Z</time></trkpt><trkpt lat="45.22595257623151" lon="11.655733935393107"><ele>11.6</ele><time>2026-04-11T14:33:16Z</time></trkpt><trkpt lat="45.22588498336331" lon="11.655865197782934"><ele>11.4</ele><time>2026-04-11T14:33:17Z</time></trkpt><trkpt lat="45.2258262662521" lon="11.655998523868295"><ele>11.200000000000001</ele><time>2026-04-11T14:33:18Z</time></trkpt><trkpt lat="45.22575768578195" lon="11.65612924855782"><ele>11.0</ele><time>2026-04-11T14:33:19Z</time></trkpt><trkpt lat="45.225697381176744" lon="11.656263541766"><ele>11.25</ele><time>2026-04-11T14:33:20Z</time></trkpt><trkpt lat="45.225638121477665" lon="11.656399246784286"><ele>11.5</ele><time>2026-04-11T14:33:21Z</time></trkpt><trkpt lat="45.225572796770805" lon="11.65654299532113"><ele>11.75</ele><time>2026-04-11T14:33:22Z</time></trkpt><trkpt lat="45.22550039791535" lon="11.656681314917291"><ele>12.0</ele><time>2026-04-11T14:33:23Z</time></trkpt><trkpt lat="45.2254326007663" lon="11.656822992335824"><ele>12.0</ele><time>2026-04-11T14:33:24Z</time></trkpt><trkpt lat="45.22536136413457" lon="11.65696486804022"><ele>12.0</ele><time>2026-04-11T14:33:25Z</time></trkpt><trkpt lat="45.225294050613165" lon="11.657108603552215"><ele>12.0</ele><time>2026-04-11T14:33:26Z</time></trkpt><trkpt lat="45.22523296533794" lon="11.657251400732006"><ele>12.0</ele><time>2026-04-11T14:33:27Z</time></trkpt><trkpt lat="45.22516464689579" lon="11.657390342571516"><ele>12.0</ele><time>2026-04-11T14:33:28Z</time></trkpt><trkpt lat="45.225100987008396" lon="11.657529040124606"><ele>12.0</ele><time>2026-04-11T14:33:29Z</time></trkpt><trkpt lat="45.22503360572798" lon="11.657666901705602"><ele>12.0</ele><time>2026-04-11T14:33:30Z</time></trkpt><trkpt lat="45.22497197227538" lon="11.657798897912889"><ele>12.0</ele><time>2026-04-11T14:33:31Z</time></trkpt><trkpt lat="45.22491077318682" lon="11.657922511039741"><ele>12.166666666666666</ele><time>2026-04-11T14:33:32Z</time></trkpt><trkpt lat="45.224861063438766" lon="11.658037045843473"><ele>12.333333333333332</ele><time>2026-04-11T14:33:33Z</time></trkpt><trkpt lat="45.224815531873965" lon="11.658147404044009"><ele>12.5</ele><time>2026-04-11T14:33:34Z</time></trkpt><trkpt lat="45.22476327283323" lon="11.658261799971108"><ele>12.666666666666666</ele><time>2026-04-11T14:33:35Z</time></trkpt><trkpt lat="45.22472281574315" lon="11.658364780797779"><ele>12.833333333333332</ele><time>2026-04-11T14:33:36Z</time></trkpt><trkpt lat="45.22469475044482" lon="11.658476817684873"><ele>13.0</ele><time>2026-04-11T14:33:37Z</time></trkpt><trkpt lat="45.224662446056826" lon="11.658580046958868"><ele>12.857142857142856</ele><time>2026-04-11T14:33:38Z</time></trkpt><trkpt lat="45.22463141482189" lon="11.65868107931499"><ele>12.714285714285715</ele><time>2026-04-11T14:33:39Z</time></trkpt><trkpt lat="45.22460525422345" lon="11.658788154447501"><ele>12.571428571428571</ele><time>2026-04-11T14:33:40Z</time></trkpt><trkpt lat="45.2245855422705" lon="11.65888252908921"><ele>12.428571428571427</ele><time>2026-04-11T14:33:41Z</time></trkpt><trkpt lat="45.224578281801605" lon="11.65897609506032"><ele>12.285714285714285</ele><time>2026-04-11T14:33:42Z</time></trkpt><trkpt lat="45.224595460341696" lon="11.659072020710814"><ele>12.142857142857142</ele><time>2026-04-11T14:33:43Z</time></trkpt><trkpt lat="45.22463197724679" lon="11.659174265319043"><ele>12.0</ele><time>2026-04-11T14:33:44Z</time></trkpt><trkpt lat="45.22469801418271" lon="11.65927169327071"><ele>12.0</ele><time>2026-04-11T14:33:45Z</time></trkpt><trkpt lat="45.22476673376536" lon="11.65937412731967"><ele>12.0</ele><time>2026-04-11T14:33:46Z</time></trkpt><trkpt lat="45.22484136921732" lon="11.65949575860037"><ele>12.0</ele><time>2026-04-11T14:33:47Z</time></trkpt><trkpt lat="45.22492616892418" lon="11.659616000264698"><ele>12.0</ele><time>2026-04-11T14:33:48Z</time></trkpt><trkpt lat="45.22499642511588" lon="11.659747870016702"><ele>11.8</ele><time>2026-04-11T14:33:49Z</time></trkpt><trkpt lat="45.22507273298273" lon="11.659878455668009"><ele>11.6</ele><time>2026-04-11T14:33:50Z</time></trkpt><trkpt lat="45.22514693707313" lon="11.660004991732817"><ele>11.4</ele><time>2026-04-11T14:33:51Z</time></trkpt><trkpt lat="45.22521586267479" lon="11.660116991789385"><ele>11.200000000000001</ele><time>2026-04-11T14:33:52Z</time></trkpt><trkpt lat="45.22527985005698" lon="11.660217140229639"><ele>11.0</ele><time>2026-04-11T14:33:53Z</time></trkpt><trkpt lat="45.225333251912076" lon="11.660303552505807"><ele>11.0</ele><time>2026-04-11T14:33:54Z</time></trkpt><trkpt lat="45.225397735972734" lon="11.660419511123168"><ele>11.0</ele><time>2026-04-11T14:33:56Z</time></trkpt><trkpt lat="45.22545109422693" lon="11.66048150521015"><ele>11.0</ele><time>2026-04-11T14:33:59Z</time></trkpt><trkpt lat="45.225489405111446" lon="11.66055941033914"><ele>11.0</ele><time>2026-04-11T14:34:11Z</time></trkpt><trkpt lat="45.22562758299929" lon="11.660491722615042"><ele>11.0</ele><time>2026-04-11T14:34:29Z</time></trkpt><trkpt lat="45.22568425169661" lon="11.660421591340057"><ele>11.600000000000001</ele><time>2026-04-11T14:34:30Z</time></trkpt><trkpt lat="45.2257692764142" lon="11.660339955104769"><ele>12.2</ele><time>2026-04-11T14:34:32Z</time></trkpt><trkpt lat="45.225837334104696" lon="11.660277378257232"><ele>12.799999999999999</ele><time>2026-04-11T14:34:34Z</time></trkpt><trkpt lat="45.22590078778065" lon="11.660224683915713"><ele>13.399999999999999</ele><time>2026-04-11T14:34:36Z</time></trkpt><trkpt lat="45.22597067882635" lon="11.660303472446907"><ele>14.0</ele><time>2026-04-11T14:34:38Z</time></trkpt><trkpt lat="45.226057377768775" lon="11.660400406620122"><ele>14.000000000000002</ele><time>2026-04-11T14:34:40Z</time></trkpt><trkpt lat="45.226116071850754" lon="11.660456549395082"><ele>14.0</ele><time>2026-04-11T14:34:41Z</time></trkpt><trkpt lat="45.22618789372015" lon="11.660507169669591"><ele>14.0</ele><time>2026-04-11T14:34:42Z</time></trkpt><trkpt lat="45.22626458407709" lon="11.660556873984532"><ele>14.0</ele><time>2026-04-11T14:34:43Z</time></trkpt><trkpt lat="45.22634144282802" lon="11.660592169332748"><ele>14.000000000000002</ele><time>2026-04-11T14:34:44Z</time></trkpt><trkpt lat="45.2264165844378" lon="11.660607737037918"><ele>14.0</ele><time>2026-04-11T14:34:45Z</time></trkpt><trkpt lat="45.22648936033029" lon="11.660626380898593"><ele>13.666666666666668</ele><time>2026-04-11T14:34:46Z</time></trkpt><trkpt lat="45.22655878528619" lon="11.660651454555829"><ele>13.333333333333334</ele><time>2026-04-11T14:34:47Z</time></trkpt><trkpt lat="45.22662912562914" lon="11.66067990099319"><ele>13.0</ele><time>2026-04-11T14:34:48Z</time></trkpt><trkpt lat="45.22669832731025" lon="11.660715491733585"><ele>12.666666666666668</ele><time>2026-04-11T14:34:49Z</time></trkpt><trkpt lat="45.226767670237656" lon="11.660772669556904"><ele>12.333333333333334</ele><time>2026-04-11T14:34:50Z</time></trkpt><trkpt lat="45.22682990979787" lon="11.66085714606719"><ele>12.0</ele><time>2026-04-11T14:34:51Z</time></trkpt><trkpt lat="45.22688582665484" lon="11.66095846611934"><ele>12.0</ele><time>2026-04-11T14:34:52Z</time></trkpt><trkpt lat="45.22694735462448" lon="11.661056894211544"><ele>12.0</ele><time>2026-04-11T14:34:53Z</time></trkpt><trkpt lat="45.22701769205022" lon="11.66114500185751"><ele>12.0</ele><time>2026-04-11T14:34:54Z</time></trkpt><trkpt lat="45.227085036696295" lon="11.661216970882132"><ele>12.0</ele><time>2026-04-11T14:34:55Z</time></trkpt><trkpt lat="45.22714787299132" lon="11.6612800522443"><ele>12.0</ele><time>2026-04-11T14:34:56Z</time></trkpt><trkpt lat="45.22720824125762" lon="11.661334888804221"><ele>12.0</ele><time>2026-04-11T14:34:57Z</time></trkpt><trkpt lat="45.22726225797799" lon="11.661383029439651"><ele>11.833333333333334</ele><time>2026-04-11T14:34:58Z</time></trkpt><trkpt lat="45.22734359523385" lon="11.661420378748797"><ele>11.666666666666666</ele><time>2026-04-11T14:35:00Z</time></trkpt><trkpt lat="45.22740156742598" lon="11.661469230193179"><ele>11.5</ele><time>2026-04-11T14:35:02Z</time></trkpt><trkpt lat="45.22743481112395" lon="11.661568013636407"><ele>11.333333333333332</ele><time>2026-04-11T14:35:04Z</time></trkpt><trkpt lat="45.227409889122185" lon="11.661708878014288"><ele>11.166666666666666</ele><time>2026-04-11T14:35:06Z</time></trkpt><trkpt lat="45.227368759014546" lon="11.661852046721966"><ele>11.0</ele><time>2026-04-11T14:35:08Z</time></trkpt><trkpt lat="45.22740917919774" lon="11.66198110055069"><ele>11.0</ele><time>2026-04-11T14:35:10Z</time></trkpt><trkpt lat="45.22749934227379" lon="11.66208729023109"><ele>11.0</ele><time>2026-04-11T14:35:12Z</time></trkpt><trkpt lat="45.227609637105516" lon="11.662182464306527"><ele>11.0</ele><time>2026-04-11T14:35:14Z</time></trkpt><trkpt lat="45.22766573646498" lon="11.662231626465429"><ele>11.0</ele><time>2026-04-11T14:35:15Z</time></trkpt><trkpt lat="45.22776906987895" lon="11.662324021516849"><ele>11.0</ele><time>2026-04-11T14:35:17Z</time></trkpt><trkpt lat="45.227866469747845" lon="11.66240429070214"><ele>11.0</ele><time>2026-04-11T14:35:19Z</time></trkpt><trkpt lat="45.2279545025327" lon="11.66247540559448"><ele>11.0</ele><time>2026-04-11T14:35:21Z</time></trkpt><trkpt lat="45.22802755382782" lon="11.662539746677478"><ele>11.0</ele><time>2026-04-11T14:35:23Z</time></trkpt><trkpt lat="45.22810124298717" lon="11.66261087901016"><ele>11.0</ele><time>2026-04-11T14:35:25Z</time></trkpt><trkpt lat="45.22817346653103" lon="11.662667269786283"><ele>11.0</ele><time>2026-04-11T14:35:27Z</time></trkpt><trkpt lat="45.22823341373104" lon="11.662718872428412"><ele>11.0</ele><time>2026-04-11T14:35:29Z</time></trkpt><trkpt lat="45.22827504115976" lon="11.6628023383229"><ele>11.0</ele><time>2026-04-11T14:35:36Z</time></trkpt><trkpt lat="45.22831827622792" lon="11.6628966395919"><ele>11.0</ele><time>2026-04-11T14:35:38Z</time></trkpt><trkpt lat="45.22836584572302" lon="11.662962282859883"><ele>11.0</ele><time>2026-04-11T14:35:40Z</time></trkpt><trkpt lat="45.228439379349304" lon="11.662945083245345"><ele>11.0</ele><time>2026-04-11T14:35:42Z</time></trkpt><trkpt lat="45.22848448836113" lon="11.66281007882861"><ele>11.0</ele><time>2026-04-11T14:35:44Z</time></trkpt><trkpt lat="45.228514681314984" lon="11.662640580965537"><ele>11.0</ele><time>2026-04-11T14:35:46Z</time></trkpt><trkpt lat="45.22854584201968" lon="11.662549704399638"><ele>10.833333333333332</ele><time>2026-04-11T14:35:47Z</time></trkpt><trkpt lat="45.22858217004702" lon="11.662466598354554"><ele>10.666666666666666</ele><time>2026-04-11T14:35:48Z</time></trkpt><trkpt lat="45.22862457703713" lon="11.662369456282788"><ele>10.5</ele><time>2026-04-11T14:35:49Z</time></trkpt><trkpt lat="45.22866865257283" lon="11.662273491429422"><ele>10.333333333333334</ele><time>2026-04-11T14:35:50Z</time></trkpt><trkpt lat="45.22870679314297" lon="11.6621710088127"><ele>10.166666666666668</ele><time>2026-04-11T14:35:51Z</time></trkpt><trkpt lat="45.228748964814784" lon="11.662060644638386"><ele>10.0</ele><time>2026-04-11T14:35:52Z</time></trkpt><trkpt lat="45.228795894237244" lon="11.661949108301576"><ele>10.4</ele><time>2026-04-11T14:35:53Z</time></trkpt><trkpt lat="45.228846781388796" lon="11.661833195338081"><ele>10.8</ele><time>2026-04-11T14:35:54Z</time></trkpt><trkpt lat="45.2288998711357" lon="11.661711124530214"><ele>11.2</ele><time>2026-04-11T14:35:55Z</time></trkpt><trkpt lat="45.228953257599734" lon="11.661579215212917"><ele>11.6</ele><time>2026-04-11T14:35:56Z</time></trkpt><trkpt lat="45.22900700921401" lon="11.661438032899003"><ele>12.0</ele><time>2026-04-11T14:35:57Z</time></trkpt><trkpt lat="45.229062533053146" lon="11.661309432545922"><ele>12.2</ele><time>2026-04-11T14:35:58Z</time></trkpt><trkpt lat="45.229118038642675" lon="11.66118534844395"><ele>12.399999999999999</ele><time>2026-04-11T14:35:59Z</time></trkpt><trkpt lat="45.229168286469005" lon="11.661067862905075"><ele>12.600000000000001</ele><time>2026-04-11T14:36:00Z</time></trkpt><trkpt lat="45.2292166661058" lon="11.66095435458292"><ele>12.8</ele><time>2026-04-11T14:36:01Z</time></trkpt><trkpt lat="45.22925755020639" lon="11.660847782072327"><ele>13.0</ele><time>2026-04-11T14:36:02Z</time></trkpt><trkpt lat="45.22930461493141" lon="11.660750064110953"><ele>12.999999999999998</ele><time>2026-04-11T14:36:03Z</time></trkpt><trkpt lat="45.22934335170815" lon="11.660656430982042"><ele>13.0</ele><time>2026-04-11T14:36:04Z</time></trkpt><trkpt lat="45.229385902007785" lon="11.660574351267387"><ele>13.0</ele><time>2026-04-11T14:36:05Z</time></trkpt><trkpt lat="45.22942261274636" lon="11.660501217863974"><ele>13.0</ele><time>2026-04-11T14:36:06Z</time></trkpt><trkpt lat="45.22946132833934" lon="11.660422327902978"><ele>12.999999999999998</ele><time>2026-04-11T14:36:07Z</time></trkpt><trkpt lat="45.22953935415426" lon="11.660291247438709"><ele>13.0</ele><time>2026-04-11T14:36:09Z</time></trkpt><trkpt lat="45.22960163876091" lon="11.660231574700877"><ele>12.8</ele><time>2026-04-11T14:36:10Z</time></trkpt><trkpt lat="45.229681142757975" lon="11.660169816669045"><ele>12.600000000000001</ele><time>2026-04-11T14:36:11Z</time></trkpt><trkpt lat="45.22976723422135" lon="11.660117122726989"><ele>12.399999999999999</ele><time>2026-04-11T14:36:12Z</time></trkpt><trkpt lat="45.229857707016635" lon="11.660075406113128"><ele>12.2</ele><time>2026-04-11T14:36:13Z</time></trkpt><trkpt lat="45.22995797246672" lon="11.66007768397159"><ele>12.0</ele><time>2026-04-11T14:36:14Z</time></trkpt><trkpt lat="45.23005961493366" lon="11.660100775827196"><ele>12.25</ele><time>2026-04-11T14:36:15Z</time></trkpt><trkpt lat="45.23017034383014" lon="11.66011503492697"><ele>12.5</ele><time>2026-04-11T14:36:16Z</time></trkpt><trkpt lat="45.23028003070352" lon="11.660216376913711"><ele>12.75</ele><time>2026-04-11T14:36:17Z</time></trkpt><trkpt lat="45.230373223966296" lon="11.6602980086109"><ele>13.0</ele><time>2026-04-11T14:36:18Z</time></trkpt><trkpt lat="45.23044830218208" lon="11.660394829801833"><ele>13.0</ele><time>2026-04-11T14:36:19Z</time></trkpt><trkpt lat="45.23052170522518" lon="11.660516130314027"><ele>13.0</ele><time>2026-04-11T14:36:19.999Z</time></trkpt><trkpt lat="45.23057252522026" lon="11.66066530442002"><ele>13.0</ele><time>2026-04-11T14:36:20.999Z</time></trkpt><trkpt lat="45.23060564827955" lon="11.660835266722996"><ele>13.0</ele><time>2026-04-11T14:36:21.999Z</time></trkpt><trkpt lat="45.23063988372517" lon="11.661019788844918"><ele>13.25</ele><time>2026-04-11T14:36:22.999Z</time></trkpt><trkpt lat="45.23067012828027" lon="11.661208475002706"><ele>13.5</ele><time>2026-04-11T14:36:23.999Z</time></trkpt><trkpt lat="45.230707916753936" lon="11.661402884805753"><ele>13.75</ele><time>2026-04-11T14:36:24.999Z</time></trkpt><trkpt lat="45.230753803013904" lon="11.661594196736182"><ele>14.0</ele><time>2026-04-11T14:36:25.999Z</time></trkpt><trkpt lat="45.23079841639014" lon="11.66177733450068"><ele>13.75</ele><time>2026-04-11T14:36:27Z</time></trkpt><trkpt lat="45.23084365298097" lon="11.661967837710723"><ele>13.5</ele><time>2026-04-11T14:36:28Z</time></trkpt><trkpt lat="45.23088829431964" lon="11.662163371871927"><ele>13.25</ele><time>2026-04-11T14:36:29Z</time></trkpt><trkpt lat="45.23094974904942" lon="11.66237062155049"><ele>13.0</ele><time>2026-04-11T14:36:30Z</time></trkpt><trkpt lat="45.23102176333811" lon="11.662582182058811"><ele>13.0</ele><time>2026-04-11T14:36:31Z</time></trkpt><trkpt lat="45.23109562302988" lon="11.662807380496055"><ele>13.0</ele><time>2026-04-11T14:36:32Z</time></trkpt><trkpt lat="45.23117488044442" lon="11.663037901541648"><ele>13.0</ele><time>2026-04-11T14:36:33Z</time></trkpt><trkpt lat="45.23124792302637" lon="11.663254289303268"><ele>13.0</ele><time>2026-04-11T14:36:34Z</time></trkpt><trkpt lat="45.23131698778851" lon="11.66347348034217"><ele>13.0</ele><time>2026-04-11T14:36:35Z</time></trkpt><trkpt lat="45.231392413866445" lon="11.663701360139482"><ele>13.0</ele><time>2026-04-11T14:36:36Z</time></trkpt><trkpt lat="45.2314596646631" lon="11.663909555176891"><ele>14.0</ele><time>2026-04-11T14:36:37Z</time></trkpt><trkpt lat="45.23152506147764" lon="11.664109580726542"><ele>15.0</ele><time>2026-04-11T14:36:38Z</time></trkpt><trkpt lat="45.23158833406372" lon="11.664308692813316"><ele>16.0</ele><time>2026-04-11T14:36:39Z</time></trkpt><trkpt lat="45.23165081171871" lon="11.664510053484236"><ele>16.0</ele><time>2026-04-11T14:36:40Z</time></trkpt><trkpt lat="45.23172924162368" lon="11.664721418445243"><ele>16.0</ele><time>2026-04-11T14:36:41Z</time></trkpt><trkpt lat="45.231814594527144" lon="11.664924957869399"><ele>16.0</ele><time>2026-04-11T14:36:42Z</time></trkpt><trkpt lat="45.23191245401425" lon="11.665131761723012"><ele>14.666666666666666</ele><time>2026-04-11T14:36:43Z</time></trkpt><trkpt lat="45.232003563949114" lon="11.665326955429975"><ele>13.333333333333332</ele><time>2026-04-11T14:36:44Z</time></trkpt><trkpt lat="45.23209355536251" lon="11.66551763848469"><ele>12.0</ele><time>2026-04-11T14:36:45Z</time></trkpt><trkpt lat="45.23218500639425" lon="11.665709842911035"><ele>12.0</ele><time>2026-04-11T14:36:46Z</time></trkpt><trkpt lat="45.23227697714296" lon="11.665906584934495"><ele>12.0</ele><time>2026-04-11T14:36:47Z</time></trkpt><trkpt lat="45.23236608963805" lon="11.666112525428616"><ele>12.0</ele><time>2026-04-11T14:36:48Z</time></trkpt><trkpt lat="45.23246116396432" lon="11.666326000612697"><ele>12.666666666666668</ele><time>2026-04-11T14:36:49Z</time></trkpt><trkpt lat="45.232551637650744" lon="11.666528328582118"><ele>13.333333333333334</ele><time>2026-04-11T14:36:50Z</time></trkpt><trkpt lat="45.23264125400095" lon="11.666709500330944"><ele>14.0</ele><time>2026-04-11T14:36:51Z</time></trkpt><trkpt lat="45.23273195794697" lon="11.666891428621541"><ele>13.666666666666668</ele><time>2026-04-11T14:36:52Z</time></trkpt><trkpt lat="45.23282294645642" lon="11.667061884248104"><ele>13.333333333333332</ele><time>2026-04-11T14:36:53Z</time></trkpt><trkpt lat="45.232917471362875" lon="11.667220929664158"><ele>13.0</ele><time>2026-04-11T14:36:54Z</time></trkpt><trkpt lat="45.23301217750482" lon="11.667402228080846"><ele>13.0</ele><time>2026-04-11T14:36:55Z</time></trkpt><trkpt lat="45.23311126785306" lon="11.667577213315376"><ele>13.0</ele><time>2026-04-11T14:36:56Z</time></trkpt><trkpt lat="45.23320246683925" lon="11.66774874397966"><ele>13.0</ele><time>2026-04-11T14:36:57Z</time></trkpt><trkpt lat="45.23329139543127" lon="11.667926162710113"><ele>13.333333333333332</ele><time>2026-04-11T14:36:58Z</time></trkpt><trkpt lat="45.23338216808823" lon="11.668111795212722"><ele>13.666666666666668</ele><time>2026-04-11T14:36:59Z</time></trkpt><trkpt lat="45.2334678841499" lon="11.668305505533233"><ele>14.0</ele><time>2026-04-11T14:37:00Z</time></trkpt><trkpt lat="45.23355266053582" lon="11.668504574515584"><ele>13.666666666666668</ele><time>2026-04-11T14:37:01Z</time></trkpt><trkpt lat="45.233644271949316" lon="11.66871932792373"><ele>13.333333333333332</ele><time>2026-04-11T14:37:02Z</time></trkpt><trkpt lat="45.233737490442685" lon="11.668939909776089"><ele>13.0</ele><time>2026-04-11T14:37:03Z</time></trkpt><trkpt lat="45.233823726887785" lon="11.669135057882926"><ele>13.0</ele><time>2026-04-11T14:37:04Z</time></trkpt><trkpt lat="45.23389992572141" lon="11.669320148290629"><ele>13.0</ele><time>2026-04-11T14:37:05Z</time></trkpt><trkpt lat="45.233973090151835" lon="11.669486054497305"><ele>13.0</ele><time>2026-04-11T14:37:06Z</time></trkpt><trkpt lat="45.23404315859189" lon="11.669648937541027"><ele>13.0</ele><time>2026-04-11T14:37:07Z</time></trkpt><trkpt lat="45.23411024984152" lon="11.66979875757146"><ele>13.0</ele><time>2026-04-11T14:37:08Z</time></trkpt><trkpt lat="45.234176654970994" lon="11.669953118551057"><ele>13.0</ele><time>2026-04-11T14:37:09Z</time></trkpt><trkpt lat="45.23424102137042" lon="11.670105658850225"><ele>13.0</ele><time>2026-04-11T14:37:10Z</time></trkpt><trkpt lat="45.23430386596217" lon="11.670257423264736"><ele>13.0</ele><time>2026-04-11T14:37:11Z</time></trkpt><trkpt lat="45.23436473302372" lon="11.670403375645856"><ele>13.0</ele><time>2026-04-11T14:37:12Z</time></trkpt><trkpt lat="45.23442478894075" lon="11.670543366042507"><ele>13.0</ele><time>2026-04-11T14:37:13Z</time></trkpt><trkpt lat="45.23448236057106" lon="11.670671218645165"><ele>13.0</ele><time>2026-04-11T14:37:14Z</time></trkpt><trkpt lat="45.234536015315996" lon="11.670808046051274"><ele>13.0</ele><time>2026-04-11T14:37:15Z</time></trkpt><trkpt lat="45.234589843659016" lon="11.670937460883723"><ele>13.0</ele><time>2026-04-11T14:37:16Z</time></trkpt><trkpt lat="45.23464706322425" lon="11.671071562112052"><ele>12.8</ele><time>2026-04-11T14:37:17Z</time></trkpt><trkpt lat="45.234704227557664" lon="11.671205120576477"><ele>12.600000000000001</ele><time>2026-04-11T14:37:18Z</time></trkpt><trkpt lat="45.23475438414889" lon="11.671326183373214"><ele>12.399999999999999</ele><time>2026-04-11T14:37:19Z</time></trkpt><trkpt lat="45.234797895411894" lon="11.67142825972255"><ele>12.2</ele><time>2026-04-11T14:37:20Z</time></trkpt><trkpt lat="45.23483434602773" lon="11.671512716859699"><ele>12.0</ele><time>2026-04-11T14:37:21Z</time></trkpt><trkpt lat="45.234900321201216" lon="11.67162367430784"><ele>12.2</ele><time>2026-04-11T14:37:23Z</time></trkpt><trkpt lat="45.234938517055056" lon="11.671719087529096"><ele>12.399999999999999</ele><time>2026-04-11T14:38:37Z</time></trkpt><trkpt lat="45.23502665015799" lon="11.671835216714397"><ele>12.600000000000001</ele><time>2026-04-11T14:38:39Z</time></trkpt><trkpt lat="45.23508704634897" lon="11.671922843195926"><ele>12.8</ele><time>2026-04-11T14:38:40Z</time></trkpt><trkpt lat="45.235147257999394" lon="11.672016234750158"><ele>13.0</ele><time>2026-04-11T14:38:41Z</time></trkpt><trkpt lat="45.235210050255375" lon="11.672125321691102"><ele>13.0</ele><time>2026-04-11T14:38:42Z</time></trkpt><trkpt lat="45.23527785127396" lon="11.672243213572445"><ele>13.0</ele><time>2026-04-11T14:38:43Z</time></trkpt><trkpt lat="45.23534314020902" lon="11.672382221249887"><ele>13.0</ele><time>2026-04-11T14:38:44Z</time></trkpt><trkpt lat="45.23540155937118" lon="11.672542478169065"><ele>13.0</ele><time>2026-04-11T14:38:45Z</time></trkpt><trkpt lat="45.2354597961907" lon="11.672705723551669"><ele>12.25</ele><time>2026-04-11T14:38:46Z</time></trkpt><trkpt lat="45.23552483686847" lon="11.672868634581077"><ele>11.5</ele><time>2026-04-11T14:38:47Z</time></trkpt><trkpt lat="45.23560145071555" lon="11.673038912788362"><ele>10.75</ele><time>2026-04-11T14:38:48Z</time></trkpt><trkpt lat="45.23568862929959" lon="11.673220286503788"><ele>10.0</ele><time>2026-04-11T14:38:49Z</time></trkpt><trkpt lat="45.23578166200011" lon="11.673403027808959"><ele>11.0</ele><time>2026-04-11T14:38:50Z</time></trkpt><trkpt lat="45.23588227264264" lon="11.673596221642468"><ele>12.0</ele><time>2026-04-11T14:38:51Z</time></trkpt><trkpt lat="45.235985903952866" lon="11.673789578797361"><ele>13.0</ele><time>2026-04-11T14:38:52Z</time></trkpt><trkpt lat="45.236098709371454" lon="11.67399565172201"><ele>13.0</ele><time>2026-04-11T14:38:53Z</time></trkpt><trkpt lat="45.23622062294346" lon="11.67420588484308"><ele>13.0</ele><time>2026-04-11T14:38:54Z</time></trkpt><trkpt lat="45.236342178281866" lon="11.674421505549642"><ele>13.0</ele><time>2026-04-11T14:38:55Z</time></trkpt><trkpt lat="45.236469584192044" lon="11.67464327456609"><ele>12.666666666666666</ele><time>2026-04-11T14:38:56Z</time></trkpt><trkpt lat="45.23659259381082" lon="11.674862276527719"><ele>12.333333333333332</ele><time>2026-04-11T14:38:57Z</time></trkpt><trkpt lat="45.23671711519365" lon="11.675087693706194"><ele>12.0</ele><time>2026-04-11T14:38:58Z</time></trkpt><trkpt lat="45.23683629808724" lon="11.675313964254427"><ele>12.0</ele><time>2026-04-11T14:38:59Z</time></trkpt><trkpt lat="45.23695425528533" lon="11.675536405181024"><ele>12.0</ele><time>2026-04-11T14:39:00Z</time></trkpt><trkpt lat="45.23705748587087" lon="11.67577156439197"><ele>12.0</ele><time>2026-04-11T14:39:01Z</time></trkpt><trkpt lat="45.237155167520804" lon="11.676002876523537"><ele>11.666666666666666</ele><time>2026-04-11T14:39:02Z</time></trkpt><trkpt lat="45.237255086811736" lon="11.676236012385452"><ele>11.333333333333332</ele><time>2026-04-11T14:39:03Z</time></trkpt><trkpt lat="45.23735337588161" lon="11.67646431555108"><ele>11.0</ele><time>2026-04-11T14:39:04Z</time></trkpt><trkpt lat="45.23744974925744" lon="11.676693028872867"><ele>12.0</ele><time>2026-04-11T14:39:05Z</time></trkpt><trkpt lat="45.237546197478444" lon="11.67692463049983"><ele>13.0</ele><time>2026-04-11T14:39:06Z</time></trkpt><trkpt lat="45.23764722419372" lon="11.677161509889226"><ele>14.0</ele><time>2026-04-11T14:39:07Z</time></trkpt><trkpt lat="45.23774779660074" lon="11.67740304245806"><ele>14.0</ele><time>2026-04-11T14:39:08Z</time></trkpt><trkpt lat="45.23784608499629" lon="11.677656657930815"><ele>14.0</ele><time>2026-04-11T14:39:09Z</time></trkpt><trkpt lat="45.23794252206784" lon="11.677902691189798"><ele>14.0</ele><time>2026-04-11T14:39:10Z</time></trkpt><trkpt lat="45.23802976931376" lon="11.678142287346889"><ele>14.333333333333334</ele><time>2026-04-11T14:39:11Z</time></trkpt><trkpt lat="45.2381127592369" lon="11.678372182723972"><ele>14.666666666666668</ele><time>2026-04-11T14:39:12Z</time></trkpt><trkpt lat="45.238198345296134" lon="11.678600141838375"><ele>15.0</ele><time>2026-04-11T14:39:13Z</time></trkpt><trkpt lat="45.23829200043973" lon="11.678842635818796"><ele>15.0</ele><time>2026-04-11T14:39:14Z</time></trkpt><trkpt lat="45.238385573416444" lon="11.679087759279513"><ele>15.0</ele><time>2026-04-11T14:39:15Z</time></trkpt><trkpt lat="45.238470307678995" lon="11.679330419748892"><ele>15.0</ele><time>2026-04-11T14:39:16Z</time></trkpt><trkpt lat="45.23855056982444" lon="11.679554202431179"><ele>14.0</ele><time>2026-04-11T14:39:17Z</time></trkpt><trkpt lat="45.23862143936187" lon="11.679755111200455"><ele>13.0</ele><time>2026-04-11T14:39:18Z</time></trkpt><trkpt lat="45.238693191520255" lon="11.67995064864517"><ele>12.0</ele><time>2026-04-11T14:39:19Z</time></trkpt><trkpt lat="45.2387809234414" lon="11.680130728625718"><ele>11.666666666666666</ele><time>2026-04-11T14:39:20Z</time></trkpt><trkpt lat="45.238885083704446" lon="11.680297629366597"><ele>11.333333333333332</ele><time>2026-04-11T14:39:21Z</time></trkpt><trkpt lat="45.239012928001145" lon="11.68045764873888"><ele>11.0</ele><time>2026-04-11T14:39:22Z</time></trkpt><trkpt lat="45.239154999237236" lon="11.68061382927855"><ele>11.0</ele><time>2026-04-11T14:39:23Z</time></trkpt><trkpt lat="45.23930338702012" lon="11.680783637121628"><ele>11.0</ele><time>2026-04-11T14:39:24Z</time></trkpt><trkpt lat="45.23946046704558" lon="11.680952823512076"><ele>11.0</ele><time>2026-04-11T14:39:25Z</time></trkpt><trkpt lat="45.239620214391394" lon="11.681134201352908"><ele>11.0</ele><time>2026-04-11T14:39:26Z</time></trkpt><trkpt lat="45.239779805911496" lon="11.681319385941439"><ele>11.0</ele><time>2026-04-11T14:39:27Z</time></trkpt><trkpt lat="45.239936818333405" lon="11.681497420445105"><ele>11.0</ele><time>2026-04-11T14:39:28Z</time></trkpt><trkpt lat="45.24008872472391" lon="11.681671922601149"><ele>11.0</ele><time>2026-04-11T14:39:29Z</time></trkpt><trkpt lat="45.24023003992636" lon="11.681821824907823"><ele>11.0</ele><time>2026-04-11T14:39:30Z</time></trkpt><trkpt lat="45.24036846929066" lon="11.681962080680986"><ele>11.0</ele><time>2026-04-11T14:39:31Z</time></trkpt><trkpt lat="45.24052201163952" lon="11.682073960397462"><ele>11.666666666666666</ele><time>2026-04-11T14:39:32Z</time></trkpt><trkpt lat="45.24068519656299" lon="11.682154848859978"><ele>12.333333333333332</ele><time>2026-04-11T14:39:33Z</time></trkpt><trkpt lat="45.24084186362156" lon="11.68222962616408"><ele>13.0</ele><time>2026-04-11T14:39:34Z</time></trkpt><trkpt lat="45.24097176303396" lon="11.682324195738099"><ele>13.0</ele><time>2026-04-11T14:39:35Z</time></trkpt><trkpt lat="45.24108657451353" lon="11.682408125764498"><ele>13.0</ele><time>2026-04-11T14:39:36Z</time></trkpt><trkpt lat="45.24119539645268" lon="11.68249208546134"><ele>13.0</ele><time>2026-04-11T14:39:37Z</time></trkpt><trkpt lat="45.24127510742655" lon="11.682629093545374"><ele>13.0</ele><time>2026-04-11T14:39:38Z</time></trkpt><trkpt lat="45.24135125836233" lon="11.682795432788364"><ele>13.333333333333332</ele><time>2026-04-11T14:39:39Z</time></trkpt><trkpt lat="45.241428504617296" lon="11.682968382729316"><ele>13.666666666666668</ele><time>2026-04-11T14:39:40Z</time></trkpt><trkpt lat="45.24150036510266" lon="11.683161063190319"><ele>14.0</ele><time>2026-04-11T14:39:41Z</time></trkpt><trkpt lat="45.24157794594314" lon="11.683357160379549"><ele>14.0</ele><time>2026-04-11T14:39:42Z</time></trkpt><trkpt lat="45.241663526096694" lon="11.6835522265115"><ele>14.0</ele><time>2026-04-11T14:39:43Z</time></trkpt><trkpt lat="45.2417491150403" lon="11.683750220970811"><ele>14.0</ele><time>2026-04-11T14:39:44Z</time></trkpt><trkpt lat="45.241835571662904" lon="11.683954547570952"><ele>13.333333333333334</ele><time>2026-04-11T14:39:45Z</time></trkpt><trkpt lat="45.24192155663111" lon="11.684144921042245"><ele>12.666666666666668</ele><time>2026-04-11T14:39:46Z</time></trkpt><trkpt lat="45.24201849636246" lon="11.684325629073935"><ele>12.0</ele><time>2026-04-11T14:39:47Z</time></trkpt><trkpt lat="45.24213066452672" lon="11.684514453748458"><ele>12.0</ele><time>2026-04-11T14:39:48Z</time></trkpt><trkpt lat="45.242247095071455" lon="11.684694398007597"><ele>12.0</ele><time>2026-04-11T14:39:49Z</time></trkpt><trkpt lat="45.242358773834155" lon="11.68484920858116"><ele>12.0</ele><time>2026-04-11T14:39:50Z</time></trkpt><trkpt lat="45.242453817489434" lon="11.685002344631553"><ele>12.0</ele><time>2026-04-11T14:39:51Z</time></trkpt><trkpt lat="45.2425452118155" lon="11.685135350619252"><ele>12.0</ele><time>2026-04-11T14:39:52Z</time></trkpt><trkpt lat="45.242635478603866" lon="11.685259581414664"><ele>12.0</ele><time>2026-04-11T14:39:53Z</time></trkpt><trkpt lat="45.24271036823761" lon="11.685385867284927"><ele>12.0</ele><time>2026-04-11T14:39:54Z</time></trkpt><trkpt lat="45.24279171511331" lon="11.685504053771476"><ele>12.0</ele><time>2026-04-11T14:39:55Z</time></trkpt><trkpt lat="45.24288040810682" lon="11.685637236156106"><ele>12.0</ele><time>2026-04-11T14:39:56Z</time></trkpt><trkpt lat="45.242976186492854" lon="11.68577746637867"><ele>12.0</ele><time>2026-04-11T14:39:57Z</time></trkpt><trkpt lat="45.243064696606915" lon="11.685910869690629"><ele>12.0</ele><time>2026-04-11T14:39:58Z</time></trkpt><trkpt lat="45.243145322841805" lon="11.686043988370212"><ele>12.25</ele><time>2026-04-11T14:39:59Z</time></trkpt><trkpt lat="45.243224031148195" lon="11.686189024819608"><ele>12.5</ele><time>2026-04-11T14:40:00Z</time></trkpt><trkpt lat="45.243302598239815" lon="11.686344144491194"><ele>12.75</ele><time>2026-04-11T14:40:01Z</time></trkpt><trkpt lat="45.24337035306852" lon="11.686520318594479"><ele>13.0</ele><time>2026-04-11T14:40:02Z</time></trkpt><trkpt lat="45.24342254878269" lon="11.68671323806922"><ele>13.0</ele><time>2026-04-11T14:40:03Z</time></trkpt><trkpt lat="45.24347096233351" lon="11.686914370510625"><ele>13.0</ele><time>2026-04-11T14:40:04Z</time></trkpt><trkpt lat="45.243510400520556" lon="11.687120150811971"><ele>13.0</ele><time>2026-04-11T14:40:05Z</time></trkpt><trkpt lat="45.243543978961675" lon="11.687322819694204"><ele>13.0</ele><time>2026-04-11T14:40:06Z</time></trkpt><trkpt lat="45.24356670093334" lon="11.68752658816599"><ele>13.25</ele><time>2026-04-11T14:40:07Z</time></trkpt><trkpt lat="45.24358369277168" lon="11.687723734624075"><ele>13.5</ele><time>2026-04-11T14:40:08Z</time></trkpt><trkpt lat="45.2435917137587" lon="11.687904204958292"><ele>13.75</ele><time>2026-04-11T14:40:09Z</time></trkpt><trkpt lat="45.24359996169691" lon="11.688066965595773"><ele>14.0</ele><time>2026-04-11T14:40:10Z</time></trkpt><trkpt lat="45.24361071361293" lon="11.688212061067164"><ele>14.000000000000002</ele><time>2026-04-11T14:40:11Z</time></trkpt><trkpt lat="45.24362069362924" lon="11.688332964100626"><ele>14.0</ele><time>2026-04-11T14:40:12Z</time></trkpt><trkpt lat="45.243629757121354" lon="11.688448737551385"><ele>14.0</ele><time>2026-04-11T14:40:13Z</time></trkpt><trkpt lat="45.24362672554885" lon="11.688559622949052"><ele>14.0</ele><time>2026-04-11T14:40:14Z</time></trkpt><trkpt lat="45.24360676847954" lon="11.688662300103115"><ele>14.000000000000002</ele><time>2026-04-11T14:40:15Z</time></trkpt><trkpt lat="45.24355227289249" lon="11.688791079938404"><ele>14.0</ele><time>2026-04-11T14:40:16Z</time></trkpt><trkpt lat="45.24348547389315" lon="11.68894968038768"><ele>14.0</ele><time>2026-04-11T14:40:17Z</time></trkpt><trkpt lat="45.24340927332157" lon="11.689126626639544"><ele>14.0</ele><time>2026-04-11T14:40:18Z</time></trkpt><trkpt lat="45.243339140596454" lon="11.689325162588604"><ele>14.0</ele><time>2026-04-11T14:40:19Z</time></trkpt><trkpt lat="45.24326524718133" lon="11.689550800939585"><ele>14.0</ele><time>2026-04-11T14:40:20Z</time></trkpt><trkpt lat="45.24319926699707" lon="11.689758761560157"><ele>14.0</ele><time>2026-04-11T14:40:21Z</time></trkpt><trkpt lat="45.2431433889861" lon="11.68994251717354"><ele>14.0</ele><time>2026-04-11T14:40:22Z</time></trkpt><trkpt lat="45.24308713683621" lon="11.690089520343996"><ele>14.0</ele><time>2026-04-11T14:40:23Z</time></trkpt><trkpt lat="45.24302749365556" lon="11.690220464074065"><ele>15.5</ele><time>2026-04-11T14:40:24Z</time></trkpt><trkpt lat="45.24295945107548" lon="11.690339105380533"><ele>17.0</ele><time>2026-04-11T14:40:25Z</time></trkpt><trkpt lat="45.24286776907689" lon="11.690415719899237"><ele>18.5</ele><time>2026-04-11T14:40:26Z</time></trkpt><trkpt lat="45.24274796007502" lon="11.69044830480666"><ele>20.0</ele><time>2026-04-11T14:40:27Z</time></trkpt><trkpt lat="45.242606877897934" lon="11.690508876547126"><ele>20.0</ele><time>2026-04-11T14:40:28Z</time></trkpt><trkpt lat="45.24244134558499" lon="11.690537490489575"><ele>20.0</ele><time>2026-04-11T14:40:29Z</time></trkpt><trkpt lat="45.24229962564529" lon="11.69056596793173"><ele>20.0</ele><time>2026-04-11T14:40:30Z</time></trkpt><trkpt lat="45.24217046796928" lon="11.690582041516599"><ele>20.0</ele><time>2026-04-11T14:40:31Z</time></trkpt><trkpt lat="45.242049867440045" lon="11.690606329328428"><ele>19.5</ele><time>2026-04-11T14:40:32Z</time></trkpt><trkpt lat="45.24193827246656" lon="11.690647032278447"><ele>19.0</ele><time>2026-04-11T14:40:33Z</time></trkpt><trkpt lat="45.24182309405514" lon="11.690708161907654"><ele>18.5</ele><time>2026-04-11T14:40:34Z</time></trkpt><trkpt lat="45.24172216140261" lon="11.690802255449995"><ele>18.0</ele><time>2026-04-11T14:40:35Z</time></trkpt><trkpt lat="45.241611365996796" lon="11.690924127493524"><ele>18.0</ele><time>2026-04-11T14:40:36Z</time></trkpt><trkpt lat="45.241487355231435" lon="11.691088452574254"><ele>18.0</ele><time>2026-04-11T14:40:37Z</time></trkpt><trkpt lat="45.24134720350591" lon="11.691264933197676"><ele>18.0</ele><time>2026-04-11T14:40:38Z</time></trkpt><trkpt lat="45.24121993480127" lon="11.69142282039208"><ele>18.25</ele><time>2026-04-11T14:40:39Z</time></trkpt><trkpt lat="45.24109198371138" lon="11.691547579110741"><ele>18.5</ele><time>2026-04-11T14:40:40Z</time></trkpt><trkpt lat="45.24097110043051" lon="11.691663642855193"><ele>18.75</ele><time>2026-04-11T14:40:41Z</time></trkpt><trkpt lat="45.24084907331316" lon="11.691745080755794"><ele>19.0</ele><time>2026-04-11T14:40:42Z</time></trkpt><trkpt lat="45.24070659251564" lon="11.691800987141137"><ele>17.666666666666664</ele><time>2026-04-11T14:40:43Z</time></trkpt><trkpt lat="45.24056118024827" lon="11.691837844518403"><ele>16.333333333333332</ele><time>2026-04-11T14:40:44Z</time></trkpt><trkpt lat="45.24040483802774" lon="11.691872242040366"><ele>15.0</ele><time>2026-04-11T14:40:45Z</time></trkpt><trkpt lat="45.24025800727093" lon="11.69191275402657"><ele>16.25</ele><time>2026-04-11T14:40:46Z</time></trkpt><trkpt lat="45.240116434914505" lon="11.691966718596872"><ele>17.5</ele><time>2026-04-11T14:40:47Z</time></trkpt><trkpt lat="45.23999378535412" lon="11.692032404024069"><ele>18.75</ele><time>2026-04-11T14:40:48Z</time></trkpt><trkpt lat="45.23987397346381" lon="11.692127103060175"><ele>20.0</ele><time>2026-04-11T14:40:49Z</time></trkpt><trkpt lat="45.23975358293801" lon="11.692261044591815"><ele>20.0</ele><time>2026-04-11T14:40:50Z</time></trkpt><trkpt lat="45.23963233470934" lon="11.692404328923493"><ele>20.0</ele><time>2026-04-11T14:40:51Z</time></trkpt><trkpt lat="45.23951723524676" lon="11.692538269283748"><ele>20.0</ele><time>2026-04-11T14:40:52Z</time></trkpt><trkpt lat="45.23939418400618" lon="11.69264802559569"><ele>20.0</ele><time>2026-04-11T14:40:53Z</time></trkpt><trkpt lat="45.239252649907414" lon="11.692734268241285"><ele>20.0</ele><time>2026-04-11T14:40:54Z</time></trkpt><trkpt lat="45.239096583721754" lon="11.692802896599085"><ele>20.0</ele><time>2026-04-11T14:40:55Z</time></trkpt><trkpt lat="45.23893410657009" lon="11.692875359901448"><ele>21.75</ele><time>2026-04-11T14:40:56Z</time></trkpt><trkpt lat="45.23878663232448" lon="11.692940854172058"><ele>23.5</ele><time>2026-04-11T14:40:57Z</time></trkpt><trkpt lat="45.23864945937871" lon="11.693004914981902"><ele>25.25</ele><time>2026-04-11T14:40:58Z</time></trkpt><trkpt lat="45.23852458558447" lon="11.693091377478982"><ele>27.0</ele><time>2026-04-11T14:40:59Z</time></trkpt><trkpt lat="45.23840283474376" lon="11.693218158160516"><ele>27.0</ele><time>2026-04-11T14:41:00Z</time></trkpt><trkpt lat="45.238285120647" lon="11.693369227420602"><ele>27.0</ele><time>2026-04-11T14:41:01Z</time></trkpt><trkpt lat="45.23815705745812" lon="11.693516443397268"><ele>27.0</ele><time>2026-04-11T14:41:02Z</time></trkpt><trkpt lat="45.238018242709764" lon="11.693654154838436"><ele>27.666666666666664</ele><time>2026-04-11T14:41:03Z</time></trkpt><trkpt lat="45.23786922099625" lon="11.69377104194781"><ele>28.333333333333332</ele><time>2026-04-11T14:41:04Z</time></trkpt><trkpt lat="45.23773041448047" lon="11.69387091496704"><ele>29.0</ele><time>2026-04-11T14:41:05Z</time></trkpt><trkpt lat="45.23760675972922" lon="11.693954740280589"><ele>29.0</ele><time>2026-04-11T14:41:06Z</time></trkpt><trkpt lat="45.23748745801522" lon="11.69402879269045"><ele>29.0</ele><time>2026-04-11T14:41:07Z</time></trkpt><trkpt lat="45.237372734019544" lon="11.69409891488709"><ele>29.0</ele><time>2026-04-11T14:41:08Z</time></trkpt><trkpt lat="45.237265671071334" lon="11.694162527398225"><ele>29.0</ele><time>2026-04-11T14:41:09Z</time></trkpt><trkpt lat="45.237163050811596" lon="11.694202944255638"><ele>27.799999999999997</ele><time>2026-04-11T14:41:10Z</time></trkpt><trkpt lat="45.2370586076197" lon="11.694204605515685"><ele>26.599999999999998</ele><time>2026-04-11T14:41:11Z</time></trkpt><trkpt lat="45.236959242644325" lon="11.694157919270559"><ele>25.4</ele><time>2026-04-11T14:41:12Z</time></trkpt><trkpt lat="45.23686871984871" lon="11.69407289559352"><ele>24.2</ele><time>2026-04-11T14:41:13Z</time></trkpt><trkpt lat="45.236779050810455" lon="11.69398396816112"><ele>23.0</ele><time>2026-04-11T14:41:14Z</time></trkpt><trkpt lat="45.2366784508347" lon="11.693922679772177"><ele>23.0</ele><time>2026-04-11T14:41:15Z</time></trkpt><trkpt lat="45.23657139771001" lon="11.693920503909252"><ele>23.0</ele><time>2026-04-11T14:41:16Z</time></trkpt><trkpt lat="45.236471864793884" lon="11.693971845829054"><ele>23.0</ele><time>2026-04-11T14:41:17Z</time></trkpt><trkpt lat="45.2363839477827" lon="11.694060051010887"><ele>23.0</ele><time>2026-04-11T14:41:18Z</time></trkpt><trkpt lat="45.23631821244126" lon="11.694167382995762"><ele>23.0</ele><time>2026-04-11T14:41:19Z</time></trkpt><trkpt lat="45.23628863531507" lon="11.694295494777744"><ele>21.75</ele><time>2026-04-11T14:41:20Z</time></trkpt><trkpt lat="45.2363031190076" lon="11.694439221520325"><ele>20.5</ele><time>2026-04-11T14:41:21Z</time></trkpt><trkpt lat="45.236293851661074" lon="11.694609733895913"><ele>19.25</ele><time>2026-04-11T14:41:22Z</time></trkpt><trkpt lat="45.23630206828872" lon="11.69478396791444"><ele>18.0</ele><time>2026-04-11T14:41:23Z</time></trkpt><trkpt lat="45.23632371085286" lon="11.694954677255577"><ele>18.0</ele><time>2026-04-11T14:41:24Z</time></trkpt><trkpt lat="45.23632396263376" lon="11.695128221843753"><ele>18.0</ele><time>2026-04-11T14:41:25Z</time></trkpt><trkpt lat="45.23632115310691" lon="11.695302664542472"><ele>18.0</ele><time>2026-04-11T14:41:26Z</time></trkpt><trkpt lat="45.236309143189146" lon="11.695479597341468"><ele>18.0</ele><time>2026-04-11T14:41:27Z</time></trkpt><trkpt lat="45.236282255743646" lon="11.695665308167994"><ele>18.0</ele><time>2026-04-11T14:41:28Z</time></trkpt><trkpt lat="45.236246110231214" lon="11.695851248206944"><ele>18.0</ele><time>2026-04-11T14:41:29Z</time></trkpt><trkpt lat="45.23622804218795" lon="11.696023838744551"><ele>18.0</ele><time>2026-04-11T14:41:30Z</time></trkpt><trkpt lat="45.2362317565821" lon="11.696184006011292"><ele>18.0</ele><time>2026-04-11T14:41:31Z</time></trkpt><trkpt lat="45.236252808462595" lon="11.696333328337"><ele>17.5</ele><time>2026-04-11T14:41:32Z</time></trkpt><trkpt lat="45.23627240924322" lon="11.696484749951047"><ele>17.0</ele><time>2026-04-11T14:41:33Z</time></trkpt><trkpt lat="45.2363453945635" lon="11.696621939237383"><ele>16.5</ele><time>2026-04-11T14:41:34Z</time></trkpt><trkpt lat="45.23641843272297" lon="11.696787495572355"><ele>16.0</ele><time>2026-04-11T14:41:35Z</time></trkpt><trkpt lat="45.23650956776959" lon="11.69697572974564"><ele>17.666666666666664</ele><time>2026-04-11T14:41:36Z</time></trkpt><trkpt lat="45.236607026439174" lon="11.697183532729083"><ele>19.333333333333332</ele><time>2026-04-11T14:41:37Z</time></trkpt><trkpt lat="45.23669099903573" lon="11.697381820244484"><ele>21.0</ele><time>2026-04-11T14:41:38Z</time></trkpt><trkpt lat="45.23677866854086" lon="11.697584873139775"><ele>19.5</ele><time>2026-04-11T14:41:39Z</time></trkpt><trkpt lat="45.236863055986504" lon="11.697775958394907"><ele>18.0</ele><time>2026-04-11T14:41:40Z</time></trkpt><trkpt lat="45.23694122105411" lon="11.697953708595046"><ele>16.5</ele><time>2026-04-11T14:41:41Z</time></trkpt><trkpt lat="45.23701648978061" lon="11.698122081119614"><ele>15.0</ele><time>2026-04-11T14:41:42Z</time></trkpt><trkpt lat="45.23708764208342" lon="11.698282595284601"><ele>15.0</ele><time>2026-04-11T14:41:43Z</time></trkpt><trkpt lat="45.23715876277598" lon="11.698439907279242"><ele>15.0</ele><time>2026-04-11T14:41:44Z</time></trkpt><trkpt lat="45.23722207110781" lon="11.698584630497354"><ele>15.0</ele><time>2026-04-11T14:41:45Z</time></trkpt><trkpt lat="45.23727954788336" lon="11.6987274349983"><ele>15.0</ele><time>2026-04-11T14:41:46Z</time></trkpt><trkpt lat="45.23733202650125" lon="11.698865217618701"><ele>15.0</ele><time>2026-04-11T14:41:47Z</time></trkpt><trkpt lat="45.23739064177178" lon="11.699009994476784"><ele>15.0</ele><time>2026-04-11T14:41:48Z</time></trkpt><trkpt lat="45.23746094149338" lon="11.699158814543463"><ele>15.0</ele><time>2026-04-11T14:41:49Z</time></trkpt><trkpt lat="45.2375378836565" lon="11.69931580076925"><ele>15.0</ele><time>2026-04-11T14:41:50Z</time></trkpt><trkpt lat="45.23761085484976" lon="11.69946273523099"><ele>15.0</ele><time>2026-04-11T14:41:51Z</time></trkpt><trkpt lat="45.23767492260931" lon="11.699592506279862"><ele>15.0</ele><time>2026-04-11T14:41:52Z</time></trkpt><trkpt lat="45.237734454063556" lon="11.699711744317272"><ele>15.0</ele><time>2026-04-11T14:41:53Z</time></trkpt><trkpt lat="45.23779269973596" lon="11.69982426580236"><ele>15.0</ele><time>2026-04-11T14:41:54Z</time></trkpt><trkpt lat="45.23785246546277" lon="11.699932273126054"><ele>15.0</ele><time>2026-04-11T14:41:55Z</time></trkpt><trkpt lat="45.2379066227586" lon="11.700042937471162"><ele>15.0</ele><time>2026-04-11T14:41:56Z</time></trkpt><trkpt lat="45.237952596406956" lon="11.700166684331984"><ele>15.0</ele><time>2026-04-11T14:41:57Z</time></trkpt><trkpt lat="45.23798374302344" lon="11.700304286567357"><ele>15.0</ele><time>2026-04-11T14:41:58Z</time></trkpt><trkpt lat="45.237988607388075" lon="11.700458873213071"><ele>15.0</ele><time>2026-04-11T14:41:59Z</time></trkpt><trkpt lat="45.23797351921884" lon="11.700637805119365"><ele>15.0</ele><time>2026-04-11T14:42:00Z</time></trkpt><trkpt lat="45.23794993342216" lon="11.70082155402367"><ele>14.0</ele><time>2026-04-11T14:42:01Z</time></trkpt><trkpt lat="45.23793514582525" lon="11.700991926889413"><ele>13.0</ele><time>2026-04-11T14:42:02Z</time></trkpt><trkpt lat="45.2379242052205" lon="11.701152011665767"><ele>12.0</ele><time>2026-04-11T14:42:03Z</time></trkpt><trkpt lat="45.23791173321747" lon="11.701312109420783"><ele>11.0</ele><time>2026-04-11T14:42:04Z</time></trkpt><trkpt lat="45.23789680904987" lon="11.70146851646855"><ele>10.75</ele><time>2026-04-11T14:42:05Z</time></trkpt><trkpt lat="45.23787576337057" lon="11.701622141170377"><ele>10.5</ele><time>2026-04-11T14:42:06Z</time></trkpt><trkpt lat="45.237845970241594" lon="11.701781332919614"><ele>10.25</ele><time>2026-04-11T14:42:07Z</time></trkpt><trkpt lat="45.23781276324063" lon="11.701948195041197"><ele>10.0</ele><time>2026-04-11T14:42:08Z</time></trkpt><trkpt lat="45.23777026376678" lon="11.702121678085602"><ele>10.5</ele><time>2026-04-11T14:42:09Z</time></trkpt><trkpt lat="45.237723248103585" lon="11.702281809680354"><ele>11.0</ele><time>2026-04-11T14:42:10Z</time></trkpt><trkpt lat="45.23766804309057" lon="11.702433254022814"><ele>11.5</ele><time>2026-04-11T14:42:11Z</time></trkpt><trkpt lat="45.23760600882857" lon="11.702582669478883"><ele>12.0</ele><time>2026-04-11T14:42:12Z</time></trkpt><trkpt lat="45.23753738337521" lon="11.702744049576761"><ele>12.0</ele><time>2026-04-11T14:42:13Z</time></trkpt><trkpt lat="45.23747140925233" lon="11.702911104703823"><ele>12.0</ele><time>2026-04-11T14:42:14Z</time></trkpt><trkpt lat="45.237407136668246" lon="11.703074528350044"><ele>12.0</ele><time>2026-04-11T14:42:15Z</time></trkpt><trkpt lat="45.23734702478784" lon="11.703227710979041"><ele>12.0</ele><time>2026-04-11T14:42:16Z</time></trkpt><trkpt lat="45.23729086237732" lon="11.70337108977818"><ele>11.8</ele><time>2026-04-11T14:42:17Z</time></trkpt><trkpt lat="45.237235786988464" lon="11.703512869686392"><ele>11.6</ele><time>2026-04-11T14:42:18Z</time></trkpt><trkpt lat="45.23718295599094" lon="11.703651453984307"><ele>11.4</ele><time>2026-04-11T14:42:19Z</time></trkpt><trkpt lat="45.23712940653624" lon="11.703783432580053"><ele>11.200000000000001</ele><time>2026-04-11T14:42:20Z</time></trkpt><trkpt lat="45.23708357356895" lon="11.70390168239211"><ele>11.0</ele><time>2026-04-11T14:42:21Z</time></trkpt><trkpt lat="45.23704871532493" lon="11.704014002376152"><ele>11.0</ele><time>2026-04-11T14:42:22Z</time></trkpt><trkpt lat="45.237029447468366" lon="11.704120959183552"><ele>11.0</ele><time>2026-04-11T14:42:23Z</time></trkpt><trkpt lat="45.237036901471086" lon="11.70421804064239"><ele>11.0</ele><time>2026-04-11T14:42:24Z</time></trkpt><trkpt lat="45.2370678614622" lon="11.704311243468513"><ele>11.0</ele><time>2026-04-11T14:42:25Z</time></trkpt><trkpt lat="45.23711296691278" lon="11.704410206913254"><ele>11.0</ele><time>2026-04-11T14:42:26Z</time></trkpt><trkpt lat="45.23717685570447" lon="11.704501642863299"><ele>11.0</ele><time>2026-04-11T14:42:27Z</time></trkpt><trkpt lat="45.23725746709973" lon="11.704589928182902"><ele>11.833333333333332</ele><time>2026-04-11T14:42:28Z</time></trkpt><trkpt lat="45.23734700436463" lon="11.70467329554843"><ele>12.666666666666666</ele><time>2026-04-11T14:42:29Z</time></trkpt><trkpt lat="45.23742595304059" lon="11.704750447473485"><ele>13.5</ele><time>2026-04-11T14:42:30Z</time></trkpt><trkpt lat="45.23749624071436" lon="11.704817948638368"><ele>14.333333333333332</ele><time>2026-04-11T14:42:31Z</time></trkpt><trkpt lat="45.23756193528998" lon="11.70488152678154"><ele>15.166666666666666</ele><time>2026-04-11T14:42:32Z</time></trkpt><trkpt lat="45.23762360621544" lon="11.704946041291132"><ele>16.0</ele><time>2026-04-11T14:42:33Z</time></trkpt><trkpt lat="45.23768380336435" lon="11.705006115766183"><ele>16.0</ele><time>2026-04-11T14:42:34Z</time></trkpt><trkpt lat="45.23774278683889" lon="11.70505717473077"><ele>15.999999999999998</ele><time>2026-04-11T14:42:35Z</time></trkpt><trkpt lat="45.237799299853464" lon="11.705097644489456"><ele>16.0</ele><time>2026-04-11T14:42:36Z</time></trkpt><trkpt lat="45.23785698882473" lon="11.705142262348994"><ele>16.0</ele><time>2026-04-11T14:42:37Z</time></trkpt><trkpt lat="45.23791312915435" lon="11.705203201988978"><ele>15.999999999999998</ele><time>2026-04-11T14:42:38Z</time></trkpt><trkpt lat="45.237972402992156" lon="11.705252403754441"><ele>16.0</ele><time>2026-04-11T14:42:39Z</time></trkpt><trkpt lat="45.23801620216146" lon="11.70532986643305"><ele>16.0</ele><time>2026-04-11T14:42:40Z</time></trkpt><trkpt lat="45.23804382946973" lon="11.705416235489727"><ele>17.0</ele><time>2026-04-11T14:42:41Z</time></trkpt><trkpt lat="45.2380173753576" lon="11.705580161682288"><ele>18.0</ele><time>2026-04-11T14:42:43Z</time></trkpt><trkpt lat="45.23796534042364" lon="11.705654273911044"><ele>19.0</ele><time>2026-04-11T14:42:44Z</time></trkpt><trkpt lat="45.237919653329925" lon="11.705752791984484"><ele>20.0</ele><time>2026-04-11T14:42:45Z</time></trkpt><trkpt lat="45.23788860108205" lon="11.705873623737657"><ele>21.0</ele><time>2026-04-11T14:42:46Z</time></trkpt><trkpt lat="45.23786964108866" lon="11.705993847492353"><ele>20.666666666666668</ele><time>2026-04-11T14:42:47Z</time></trkpt><trkpt lat="45.23786180537766" lon="11.706107198796595"><ele>20.333333333333332</ele><time>2026-04-11T14:42:48Z</time></trkpt><trkpt lat="45.237863658141066" lon="11.70620677474925"><ele>20.0</ele><time>2026-04-11T14:42:49Z</time></trkpt><trkpt lat="45.23786946482294" lon="11.706306939639669"><ele>19.666666666666664</ele><time>2026-04-11T14:42:50Z</time></trkpt><trkpt lat="45.23787998637379" lon="11.706411253084292"><ele>19.333333333333332</ele><time>2026-04-11T14:42:51Z</time></trkpt><trkpt lat="45.237895876675154" lon="11.706521598739531"><ele>19.0</ele><time>2026-04-11T14:42:52Z</time></trkpt><trkpt lat="45.237920074385904" lon="11.706627423071545"><ele>19.0</ele><time>2026-04-11T14:42:53Z</time></trkpt><trkpt lat="45.23795108910792" lon="11.706735698274159"><ele>19.0</ele><time>2026-04-11T14:42:54Z</time></trkpt><trkpt lat="45.23798976685563" lon="11.706843972356516"><ele>19.0</ele><time>2026-04-11T14:42:55Z</time></trkpt><trkpt lat="45.23803963929205" lon="11.7069409005075"><ele>19.0</ele><time>2026-04-11T14:42:56Z</time></trkpt><trkpt lat="45.23810023819429" lon="11.707022916843707"><ele>19.0</ele><time>2026-04-11T14:42:57Z</time></trkpt><trkpt lat="45.23815889885252" lon="11.707111888446164"><ele>19.0</ele><time>2026-04-11T14:42:58Z</time></trkpt><trkpt lat="45.2382149769164" lon="11.707204666920775"><ele>19.0</ele><time>2026-04-11T14:42:59Z</time></trkpt><trkpt lat="45.23827952483026" lon="11.707311077404473"><ele>19.0</ele><time>2026-04-11T14:43:00Z</time></trkpt><trkpt lat="45.23835809386939" lon="11.707412574535978"><ele>19.0</ele><time>2026-04-11T14:43:01Z</time></trkpt><trkpt lat="45.23845355215079" lon="11.707507719182567"><ele>19.0</ele><time>2026-04-11T14:43:02Z</time></trkpt><trkpt lat="45.23856394390129" lon="11.707596375769418"><ele>19.0</ele><time>2026-04-11T14:43:03Z</time></trkpt><trkpt lat="45.238675038183054" lon="11.707683156152884"><ele>17.75</ele><time>2026-04-11T14:43:04Z</time></trkpt><trkpt lat="45.23878086121586" lon="11.707773333568417"><ele>16.5</ele><time>2026-04-11T14:43:05Z</time></trkpt><trkpt lat="45.238878896351544" lon="11.707859074101894"><ele>15.25</ele><time>2026-04-11T14:43:06Z</time></trkpt><trkpt lat="45.23897923615777" lon="11.707939843033124"><ele>14.0</ele><time>2026-04-11T14:43:07Z</time></trkpt><trkpt lat="45.23907178703757" lon="11.708019301880435"><ele>14.0</ele><time>2026-04-11T14:43:08Z</time></trkpt><trkpt lat="45.23915795411646" lon="11.708103852578448"><ele>14.0</ele><time>2026-04-11T14:43:09Z</time></trkpt><trkpt lat="45.23924073190057" lon="11.708200948075904"><ele>14.0</ele><time>2026-04-11T14:43:10Z</time></trkpt><trkpt lat="45.239319784012835" lon="11.708332008601655"><ele>14.0</ele><time>2026-04-11T14:43:11Z</time></trkpt><trkpt lat="45.239390834071585" lon="11.708489054007428"><ele>12.25</ele><time>2026-04-11T14:43:12Z</time></trkpt><trkpt lat="45.23946018312217" lon="11.708672391524576"><ele>10.5</ele><time>2026-04-11T14:43:13Z</time></trkpt><trkpt lat="45.2395391017314" lon="11.708845854599682"><ele>8.75</ele><time>2026-04-11T14:43:14Z</time></trkpt><trkpt lat="45.23963416853306" lon="11.708997767344938"><ele>7.0</ele><time>2026-04-11T14:43:15Z</time></trkpt><trkpt lat="45.23975347020869" lon="11.709128230111075"><ele>7.666666666666667</ele><time>2026-04-11T14:43:16Z</time></trkpt><trkpt lat="45.239895474049106" lon="11.709247621402605"><ele>8.333333333333334</ele><time>2026-04-11T14:43:17Z</time></trkpt><trkpt lat="45.24005081063135" lon="11.709396102899769"><ele>9.0</ele><time>2026-04-11T14:43:18Z</time></trkpt><trkpt lat="45.240230534568866" lon="11.709537721277101"><ele>9.0</ele><time>2026-04-11T14:43:19Z</time></trkpt><trkpt lat="45.24042405667462" lon="11.709688216683686"><ele>9.0</ele><time>2026-04-11T14:43:20Z</time></trkpt><trkpt lat="45.24061122067038" lon="11.709833277006481"><ele>9.0</ele><time>2026-04-11T14:43:21Z</time></trkpt><trkpt lat="45.240807207230894" lon="11.709985008424821"><ele>8.5</ele><time>2026-04-11T14:43:22Z</time></trkpt><trkpt lat="45.24102079110674" lon="11.710137019033231"><ele>8.0</ele><time>2026-04-11T14:43:23Z</time></trkpt><trkpt lat="45.24123892945937" lon="11.710311338585472"><ele>9.5</ele><time>2026-04-11T14:43:24Z</time></trkpt><trkpt lat="45.24145485306994" lon="11.710474094970404"><ele>11.0</ele><time>2026-04-11T14:43:25Z</time></trkpt><trkpt lat="45.241649470486756" lon="11.71062411368383"><ele>11.0</ele><time>2026-04-11T14:43:26Z</time></trkpt><trkpt lat="45.24182383849805" lon="11.71075919820166"><ele>11.0</ele><time>2026-04-11T14:43:27Z</time></trkpt><trkpt lat="45.24198751499881" lon="11.710889466737406"><ele>11.0</ele><time>2026-04-11T14:43:28Z</time></trkpt><trkpt lat="45.2421403025596" lon="11.71101033202257"><ele>10.333333333333332</ele><time>2026-04-11T14:43:29Z</time></trkpt><trkpt lat="45.24228235236716" lon="11.711125569447436"><ele>9.666666666666666</ele><time>2026-04-11T14:43:30Z</time></trkpt><trkpt lat="45.24242288902715" lon="11.71123170996808"><ele>9.0</ele><time>2026-04-11T14:43:31Z</time></trkpt><trkpt lat="45.242551939874474" lon="11.71131834541038"><ele>9.0</ele><time>2026-04-11T14:43:32Z</time></trkpt><trkpt lat="45.24269366328927" lon="11.711397407028565"><ele>9.0</ele><time>2026-04-11T14:43:33Z</time></trkpt><trkpt lat="45.24285064523484" lon="11.711453581526582"><ele>9.0</ele><time>2026-04-11T14:43:34Z</time></trkpt><trkpt lat="45.24301964979771" lon="11.711487612341264"><ele>9.0</ele><time>2026-04-11T14:43:35Z</time></trkpt><trkpt lat="45.243196190116265" lon="11.71150556791914"><ele>9.0</ele><time>2026-04-11T14:43:36Z</time></trkpt><trkpt lat="45.24337515144413" lon="11.71151489278026"><ele>9.0</ele><time>2026-04-11T14:43:37Z</time></trkpt><trkpt lat="45.24356594678148" lon="11.711531430253213"><ele>9.0</ele><time>2026-04-11T14:43:38Z</time></trkpt><trkpt lat="45.243756372508244" lon="11.711538322984026"><ele>9.0</ele><time>2026-04-11T14:43:39Z</time></trkpt><trkpt lat="45.243957189420854" lon="11.711548384636293"><ele>9.0</ele><time>2026-04-11T14:43:40Z</time></trkpt><trkpt lat="45.244161962776474" lon="11.711566711772884"><ele>9.0</ele><time>2026-04-11T14:43:41Z</time></trkpt><trkpt lat="45.24437641577107" lon="11.711591016865146"><ele>9.0</ele><time>2026-04-11T14:43:42Z</time></trkpt><trkpt lat="45.244585721082125" lon="11.711597753807366"><ele>9.0</ele><time>2026-04-11T14:43:43Z</time></trkpt><trkpt lat="45.24479584337228" lon="11.71161158940449"><ele>8.666666666666666</ele><time>2026-04-11T14:43:44Z</time></trkpt><trkpt lat="45.244998740705746" lon="11.711631853955387"><ele>8.333333333333332</ele><time>2026-04-11T14:43:45Z</time></trkpt><trkpt lat="45.24519085054202" lon="11.71165557918176"><ele>8.0</ele><time>2026-04-11T14:43:46Z</time></trkpt><trkpt lat="45.24538026047917" lon="11.7117027618438"><ele>8.0</ele><time>2026-04-11T14:43:47Z</time></trkpt><trkpt lat="45.245568382331555" lon="11.71177139171665"><ele>8.0</ele><time>2026-04-11T14:43:48Z</time></trkpt><trkpt lat="45.24575386590012" lon="11.711864744179714"><ele>8.0</ele><time>2026-04-11T14:43:49Z</time></trkpt><trkpt lat="45.24593889696186" lon="11.711977099937652"><ele>8.0</ele><time>2026-04-11T14:43:50Z</time></trkpt><trkpt lat="45.246131932572546" lon="11.712099024455085"><ele>8.0</ele><time>2026-04-11T14:43:51Z</time></trkpt><trkpt lat="45.246320912608184" lon="11.71221075483979"><ele>8.0</ele><time>2026-04-11T14:43:52Z</time></trkpt><trkpt lat="45.246492869170886" lon="11.712314607108658"><ele>8.0</ele><time>2026-04-11T14:43:53Z</time></trkpt><trkpt lat="45.246646113200256" lon="11.71240345008128"><ele>8.0</ele><time>2026-04-11T14:43:54Z</time></trkpt><trkpt lat="45.24679078181619" lon="11.712494754925968"><ele>8.0</ele><time>2026-04-11T14:43:55Z</time></trkpt><trkpt lat="45.24692167242216" lon="11.712580103359283"><ele>8.0</ele><time>2026-04-11T14:43:56Z</time></trkpt><trkpt lat="45.247046371573106" lon="11.712684628135179"><ele>8.0</ele><time>2026-04-11T14:43:57Z</time></trkpt><trkpt lat="45.2471588071024" lon="11.71281576096811"><ele>8.0</ele><time>2026-04-11T14:43:58Z</time></trkpt><trkpt lat="45.24725660741521" lon="11.712976582511292"><ele>8.0</ele><time>2026-04-11T14:43:59Z</time></trkpt><trkpt lat="45.247343013992555" lon="11.71316807106951"><ele>6.0</ele><time>2026-04-11T14:44:00Z</time></trkpt><trkpt lat="45.247418570975896" lon="11.71337927027219"><ele>4.0</ele><time>2026-04-11T14:44:01Z</time></trkpt><trkpt lat="45.247492888233076" lon="11.713597736256432"><ele>2.0</ele><time>2026-04-11T14:44:02Z</time></trkpt><trkpt lat="45.247575320728124" lon="11.713826227191923"><ele>2.0</ele><time>2026-04-11T14:44:03Z</time></trkpt><trkpt lat="45.24766685176712" lon="11.714058893515725"><ele>2.0</ele><time>2026-04-11T14:44:04Z</time></trkpt><trkpt lat="45.24775869364607" lon="11.714300468703126"><ele>2.0</ele><time>2026-04-11T14:44:05Z</time></trkpt><trkpt lat="45.24784977071213" lon="11.714528387402385"><ele>1.3333333333333333</ele><time>2026-04-11T14:44:06Z</time></trkpt><trkpt lat="45.24794055707598" lon="11.714758283278638"><ele>0.6666666666666666</ele><time>2026-04-11T14:44:07Z</time></trkpt><trkpt lat="45.24802945704614" lon="11.714988709567134"><ele>0.0</ele><time>2026-04-11T14:44:08Z</time></trkpt><trkpt lat="45.248111042376145" lon="11.715217664457077"><ele>1.3333333333333333</ele><time>2026-04-11T14:44:09Z</time></trkpt><trkpt lat="45.2481896103766" lon="11.715418451066137"><ele>2.6666666666666665</ele><time>2026-04-11T14:44:10Z</time></trkpt><trkpt lat="45.24827091625464" lon="11.715642235079981"><ele>4.0</ele><time>2026-04-11T14:44:11Z</time></trkpt><trkpt lat="45.24835519107704" lon="11.715868020399546"><ele>3.0</ele><time>2026-04-11T14:44:12Z</time></trkpt><trkpt lat="45.24844366005255" lon="11.71609890177775"><ele>2.0</ele><time>2026-04-11T14:44:13Z</time></trkpt><trkpt lat="45.24853231170091" lon="11.716335333196355"><ele>1.0</ele><time>2026-04-11T14:44:14Z</time></trkpt><trkpt lat="45.248615383489046" lon="11.716549503605794"><ele>1.0</ele><time>2026-04-11T14:44:15Z</time></trkpt><trkpt lat="45.24868473720173" lon="11.716744329785458"><ele>1.0</ele><time>2026-04-11T14:44:16Z</time></trkpt><trkpt lat="45.248746847440536" lon="11.716920997992293"><ele>1.0</ele><time>2026-04-11T14:44:17Z</time></trkpt><trkpt lat="45.24880470463068" lon="11.717082029887337"><ele>1.0</ele><time>2026-04-11T14:44:18Z</time></trkpt><trkpt lat="45.248857267180696" lon="11.717217509609242"><ele>0.8</ele><time>2026-04-11T14:44:19Z</time></trkpt><trkpt lat="45.248902070098445" lon="11.717332201708002"><ele>0.6000000000000001</ele><time>2026-04-11T14:44:20Z</time></trkpt><trkpt lat="45.248938422234886" lon="11.717414259987459"><ele>0.4</ele><time>2026-04-11T14:44:21Z</time></trkpt><trkpt lat="45.24897683873402" lon="11.71753085189342"><ele>0.2</ele><time>2026-04-11T14:44:23Z</time></trkpt><trkpt lat="45.249100711479116" lon="11.717455747925555"><ele>0.0</ele><time>2026-04-11T14:44:24Z</time></trkpt><trkpt lat="45.24916754422827" lon="11.717404109276048"><ele>0.8</ele><time>2026-04-11T14:44:25Z</time></trkpt><trkpt lat="45.24923970472528" lon="11.717358121079648"><ele>1.6</ele><time>2026-04-11T14:44:26Z</time></trkpt><trkpt lat="45.24932541817229" lon="11.717328087751653"><ele>2.4000000000000004</ele><time>2026-04-11T14:44:27Z</time></trkpt><trkpt lat="45.24942484373904" lon="11.717303325934965"><ele>3.2</ele><time>2026-04-11T14:44:28Z</time></trkpt><trkpt lat="45.249526640036564" lon="11.717267660921756"><ele>4.0</ele><time>2026-04-11T14:44:29Z</time></trkpt><trkpt lat="45.24963580846342" lon="11.717226301329493"><ele>4.0</ele><time>2026-04-11T14:44:30Z</time></trkpt><trkpt lat="45.249749923320216" lon="11.717187835877821"><ele>4.0</ele><time>2026-04-11T14:44:31Z</time></trkpt><trkpt lat="45.24985857163797" lon="11.717152259478933"><ele>4.0</ele><time>2026-04-11T14:44:32Z</time></trkpt><trkpt lat="45.24998699912301" lon="11.717106702221527"><ele>4.0</ele><time>2026-04-11T14:44:33Z</time></trkpt><trkpt lat="45.25012139765596" lon="11.717054788404972"><ele>3.333333333333333</ele><time>2026-04-11T14:44:34Z</time></trkpt><trkpt lat="45.25027094927886" lon="11.71700411045628"><ele>2.6666666666666665</ele><time>2026-04-11T14:44:35Z</time></trkpt><trkpt lat="45.25042977354217" lon="11.716951532665409"><ele>2.0</ele><time>2026-04-11T14:44:36Z</time></trkpt><trkpt lat="45.25059081408782" lon="11.716894466115349"><ele>1.3333333333333333</ele><time>2026-04-11T14:44:37Z</time></trkpt><trkpt lat="45.2507497876342" lon="11.716840738871344"><ele>0.6666666666666666</ele><time>2026-04-11T14:44:38Z</time></trkpt><trkpt lat="45.25091452332944" lon="11.716782319090523"><ele>0.0</ele><time>2026-04-11T14:44:39Z</time></trkpt><trkpt lat="45.251085782096446" lon="11.716719887228892"><ele>0.0</ele><time>2026-04-11T14:44:40Z</time></trkpt><trkpt lat="45.251256636029716" lon="11.71665628131912"><ele>0.0</ele><time>2026-04-11T14:44:41Z</time></trkpt><trkpt lat="45.25142321295565" lon="11.716593044883295"><ele>0.0</ele><time>2026-04-11T14:44:42Z</time></trkpt><trkpt lat="45.25160074941566" lon="11.716537528969019"><ele>0.0</ele><time>2026-04-11T14:44:43Z</time></trkpt><trkpt lat="45.25177853074351" lon="11.716478411635622"><ele>0.0</ele><time>2026-04-11T14:44:44Z</time></trkpt><trkpt lat="45.25195260385076" lon="11.716410459693916"><ele>0.0</ele><time>2026-04-11T14:44:45Z</time></trkpt><trkpt lat="45.25214282314776" lon="11.716344187189504"><ele>0.3333333333333333</ele><time>2026-04-11T14:44:46Z</time></trkpt><trkpt lat="45.25233688061597" lon="11.716276077644807"><ele>0.6666666666666666</ele><time>2026-04-11T14:44:47Z</time></trkpt><trkpt lat="45.252537425556234" lon="11.716206987159467"><ele>1.0</ele><time>2026-04-11T14:44:48Z</time></trkpt><trkpt lat="45.25273589982472" lon="11.716139199976256"><ele>1.0</ele><time>2026-04-11T14:44:49Z</time></trkpt><trkpt lat="45.25293936933434" lon="11.716069245624618"><ele>1.0</ele><time>2026-04-11T14:44:50Z</time></trkpt><trkpt lat="45.253143611664456" lon="11.715992812730626"><ele>1.0</ele><time>2026-04-11T14:44:51Z</time></trkpt><trkpt lat="45.25335078643552" lon="11.715915365173865"><ele>1.0</ele><time>2026-04-11T14:44:52Z</time></trkpt><trkpt lat="45.25355440426476" lon="11.715835742880653"><ele>1.0</ele><time>2026-04-11T14:44:53Z</time></trkpt><trkpt lat="45.25376272693972" lon="11.715762630727259"><ele>1.0</ele><time>2026-04-11T14:44:54Z</time></trkpt><trkpt lat="45.25397434133822" lon="11.715689692233049"><ele>1.6666666666666665</ele><time>2026-04-11T14:44:55Z</time></trkpt><trkpt lat="45.25417835874553" lon="11.71561285909572"><ele>2.3333333333333335</ele><time>2026-04-11T14:44:56Z</time></trkpt><trkpt lat="45.254367321335046" lon="11.715551786475828"><ele>3.0</ele><time>2026-04-11T14:44:57Z</time></trkpt><trkpt lat="45.254549631808665" lon="11.715486435691473"><ele>3.0</ele><time>2026-04-11T14:44:58Z</time></trkpt><trkpt lat="45.254724875365795" lon="11.715425432779437"><ele>3.0</ele><time>2026-04-11T14:44:59Z</time></trkpt><trkpt lat="45.254883197400986" lon="11.715376255140363"><ele>3.0</ele><time>2026-04-11T14:45:00Z</time></trkpt><trkpt lat="45.255036271602755" lon="11.715321303775667"><ele>2.75</ele><time>2026-04-11T14:45:01Z</time></trkpt><trkpt lat="45.255180995041" lon="11.71526651113979"><ele>2.5</ele><time>2026-04-11T14:45:02Z</time></trkpt><trkpt lat="45.2553114676141" lon="11.715220079920218"><ele>2.25</ele><time>2026-04-11T14:45:03Z</time></trkpt><trkpt lat="45.255429196131495" lon="11.715191220842463"><ele>2.0</ele><time>2026-04-11T14:45:04Z</time></trkpt><trkpt lat="45.25553060079969" lon="11.715184443027585"><ele>2.4000000000000004</ele><time>2026-04-11T14:45:05Z</time></trkpt><trkpt lat="45.255628288827374" lon="11.715211852442765"><ele>2.8000000000000003</ele><time>2026-04-11T14:45:06Z</time></trkpt><trkpt lat="45.25571682091574" lon="11.715297115434069"><ele>3.2</ele><time>2026-04-11T14:45:07Z</time></trkpt><trkpt lat="45.25582386862007" lon="11.715340807829167"><ele>3.6</ele><time>2026-04-11T14:45:08Z</time></trkpt><trkpt lat="45.25594808341998" lon="11.715346387230236"><ele>4.0</ele><time>2026-04-11T14:45:09Z</time></trkpt><trkpt lat="45.256082226385246" lon="11.715393732039582"><ele>4.0</ele><time>2026-04-11T14:45:10Z</time></trkpt><trkpt lat="45.256229227575695" lon="11.715473776254145"><ele>4.0</ele><time>2026-04-11T14:45:11Z</time></trkpt><trkpt lat="45.25639554125413" lon="11.715578227041682"><ele>4.0</ele><time>2026-04-11T14:45:12Z</time></trkpt><trkpt lat="45.256566643229256" lon="11.715678659996561"><ele>5.666666666666666</ele><time>2026-04-11T14:45:13Z</time></trkpt><trkpt lat="45.25674888422136" lon="11.715777454638104"><ele>7.333333333333333</ele><time>2026-04-11T14:45:14Z</time></trkpt><trkpt lat="45.25692881828974" lon="11.71586196522227"><ele>9.0</ele><time>2026-04-11T14:45:15Z</time></trkpt><trkpt lat="45.257094910766355" lon="11.715920430978091"><ele>9.0</ele><time>2026-04-11T14:45:16Z</time></trkpt><trkpt lat="45.2572584057087" lon="11.715994926330309"><ele>9.0</ele><time>2026-04-11T14:45:17Z</time></trkpt><trkpt lat="45.25739072487265" lon="11.716053138875642"><ele>9.0</ele><time>2026-04-11T14:45:18Z</time></trkpt><trkpt lat="45.25751761478552" lon="11.716125373244823"><ele>9.0</ele><time>2026-04-11T14:45:19Z</time></trkpt><trkpt lat="45.257628581099134" lon="11.71621675823782"><ele>8.25</ele><time>2026-04-11T14:45:20Z</time></trkpt><trkpt lat="45.2577120319706" lon="11.716352417953516"><ele>7.5</ele><time>2026-04-11T14:45:21Z</time></trkpt><trkpt lat="45.25779098211296" lon="11.716514371408287"><ele>6.75</ele><time>2026-04-11T14:45:22Z</time></trkpt><trkpt lat="45.25786785942469" lon="11.716704823010508"><ele>6.0</ele><time>2026-04-11T14:45:23Z</time></trkpt><trkpt lat="45.25792593938165" lon="11.716927597843885"><ele>5.666666666666667</ele><time>2026-04-11T14:45:24Z</time></trkpt><trkpt lat="45.25799472239298" lon="11.71716112407307"><ele>5.333333333333334</ele><time>2026-04-11T14:45:25Z</time></trkpt><trkpt lat="45.25805515190466" lon="11.717411799850728"><ele>5.0</ele><time>2026-04-11T14:45:26Z</time></trkpt><trkpt lat="45.258128109641724" lon="11.7176478774313"><ele>5.0</ele><time>2026-04-11T14:45:27Z</time></trkpt><trkpt lat="45.25821208718497" lon="11.717855390174776"><ele>5.0</ele><time>2026-04-11T14:45:28Z</time></trkpt><trkpt lat="45.25830640959992" lon="11.718045349888346"><ele>5.0</ele><time>2026-04-11T14:45:29Z</time></trkpt><trkpt lat="45.25841424987919" lon="11.71823787672371"><ele>5.0</ele><time>2026-04-11T14:45:30Z</time></trkpt><trkpt lat="45.25853003781775" lon="11.718429102650083"><ele>5.0</ele><time>2026-04-11T14:45:31Z</time></trkpt><trkpt lat="45.25863991070903" lon="11.718611555879985"><ele>5.0</ele><time>2026-04-11T14:45:32Z</time></trkpt><trkpt lat="45.258753534624944" lon="11.718797551418366"><ele>5.666666666666667</ele><time>2026-04-11T14:45:33Z</time></trkpt><trkpt lat="45.2588749319" lon="11.718974501088661"><ele>6.333333333333334</ele><time>2026-04-11T14:45:34Z</time></trkpt><trkpt lat="45.259014778605646" lon="11.719156836071319"><ele>7.0</ele><time>2026-04-11T14:45:35Z</time></trkpt><trkpt lat="45.259169483296326" lon="11.719324924666877"><ele>5.666666666666667</ele><time>2026-04-11T14:45:36Z</time></trkpt><trkpt lat="45.25933030792685" lon="11.719505681932878"><ele>4.333333333333334</ele><time>2026-04-11T14:45:37Z</time></trkpt><trkpt lat="45.25949161489074" lon="11.719681320837436"><ele>3.0</ele><time>2026-04-11T14:45:38Z</time></trkpt><trkpt lat="45.259643226829425" lon="11.719856131773213"><ele>3.666666666666667</ele><time>2026-04-11T14:45:39Z</time></trkpt><trkpt lat="45.259796786108325" lon="11.720031567028126"><ele>4.333333333333334</ele><time>2026-04-11T14:45:40Z</time></trkpt><trkpt lat="45.25995343986038" lon="11.720187169783067"><ele>5.0</ele><time>2026-04-11T14:45:41Z</time></trkpt><trkpt lat="45.260116601517886" lon="11.720321480678574"><ele>5.0</ele><time>2026-04-11T14:45:42Z</time></trkpt><trkpt lat="45.260290787908545" lon="11.720438902137506"><ele>5.0</ele><time>2026-04-11T14:45:43Z</time></trkpt><trkpt lat="45.260476768517805" lon="11.720547617937996"><ele>5.0</ele><time>2026-04-11T14:45:44Z</time></trkpt><trkpt lat="45.26066373197502" lon="11.720638763539295"><ele>6.333333333333334</ele><time>2026-04-11T14:45:45Z</time></trkpt><trkpt lat="45.26085157637664" lon="11.720728856994"><ele>7.666666666666667</ele><time>2026-04-11T14:45:46Z</time></trkpt><trkpt lat="45.26103570615116" lon="11.72081046956813"><ele>9.0</ele><time>2026-04-11T14:45:47Z</time></trkpt><trkpt lat="45.26120976761992" lon="11.720890084737905"><ele>9.0</ele><time>2026-04-11T14:45:48Z</time></trkpt><trkpt lat="45.261366541467126" lon="11.720950122914836"><ele>9.0</ele><time>2026-04-11T14:45:49Z</time></trkpt><trkpt lat="45.26152121986337" lon="11.720996311914677"><ele>9.0</ele><time>2026-04-11T14:45:50Z</time></trkpt><trkpt lat="45.26166833585153" lon="11.721026298643315"><ele>10.666666666666668</ele><time>2026-04-11T14:45:51Z</time></trkpt><trkpt lat="45.26181520284226" lon="11.721037180822718"><ele>12.333333333333334</ele><time>2026-04-11T14:45:52Z</time></trkpt><trkpt lat="45.261971606802305" lon="11.721028521643676"><ele>14.0</ele><time>2026-04-11T14:45:53Z</time></trkpt><trkpt lat="45.2621373157957" lon="11.721013969051615"><ele>12.333333333333334</ele><time>2026-04-11T14:45:54Z</time></trkpt><trkpt lat="45.2623000253479" lon="11.720992648173242"><ele>10.666666666666668</ele><time>2026-04-11T14:45:55Z</time></trkpt><trkpt lat="45.26245709021578" lon="11.720974466416699"><ele>9.0</ele><time>2026-04-11T14:45:56Z</time></trkpt><trkpt lat="45.262603790996735" lon="11.72096972621076"><ele>9.0</ele><time>2026-04-11T14:45:57Z</time></trkpt><trkpt lat="45.26274922956229" lon="11.720961387222719"><ele>9.0</ele><time>2026-04-11T14:45:58Z</time></trkpt><trkpt lat="45.26289724909237" lon="11.72094602388051"><ele>9.0</ele><time>2026-04-11T14:45:59Z</time></trkpt><trkpt lat="45.263046179901906" lon="11.720915465072665"><ele>9.0</ele><time>2026-04-11T14:46:00Z</time></trkpt><trkpt lat="45.26319078920575" lon="11.720865369705116"><ele>8.25</ele><time>2026-04-11T14:46:01Z</time></trkpt><trkpt lat="45.26332624646531" lon="11.720789824612433"><ele>7.5</ele><time>2026-04-11T14:46:02Z</time></trkpt><trkpt lat="45.26344545837432" lon="11.720695924643154"><ele>6.75</ele><time>2026-04-11T14:46:03Z</time></trkpt><trkpt lat="45.26355484740101" lon="11.72059752950457"><ele>6.0</ele><time>2026-04-11T14:46:04Z</time></trkpt><trkpt lat="45.26366634738726" lon="11.720498618082678"><ele>6.0</ele><time>2026-04-11T14:46:05Z</time></trkpt><trkpt lat="45.26377369052832" lon="11.720401373967581"><ele>6.0</ele><time>2026-04-11T14:46:06Z</time></trkpt><trkpt lat="45.263883675662655" lon="11.7203154216041"><ele>6.0</ele><time>2026-04-11T14:46:07Z</time></trkpt><trkpt lat="45.264003070366485" lon="11.720274594249705"><ele>6.0</ele><time>2026-04-11T14:46:08Z</time></trkpt><trkpt lat="45.26412801882597" lon="11.720225728266827"><ele>6.5</ele><time>2026-04-11T14:46:09Z</time></trkpt><trkpt lat="45.264262439465526" lon="11.720198976869556"><ele>7.0</ele><time>2026-04-11T14:46:10Z</time></trkpt><trkpt lat="45.264403522063475" lon="11.720169876904626"><ele>7.5</ele><time>2026-04-11T14:46:11Z</time></trkpt><trkpt lat="45.264558421290886" lon="11.720162802923522"><ele>8.0</ele><time>2026-04-11T14:46:12Z</time></trkpt><trkpt lat="45.26472128173743" lon="11.720146911269198"><ele>8.666666666666666</ele><time>2026-04-11T14:46:13Z</time></trkpt><trkpt lat="45.26488373094793" lon="11.720122815240863"><ele>9.333333333333334</ele><time>2026-04-11T14:46:14Z</time></trkpt><trkpt lat="45.265047797951866" lon="11.720097000752903"><ele>10.0</ele><time>2026-04-11T14:46:15Z</time></trkpt><trkpt lat="45.26521310390297" lon="11.720062138211055"><ele>10.0</ele><time>2026-04-11T14:46:16Z</time></trkpt><trkpt lat="45.26537202568257" lon="11.720005265933814"><ele>10.0</ele><time>2026-04-11T14:46:17Z</time></trkpt><trkpt lat="45.265531853668385" lon="11.71993834840825"><ele>10.0</ele><time>2026-04-11T14:46:18Z</time></trkpt><trkpt lat="45.265678682304056" lon="11.719883094366052"><ele>11.0</ele><time>2026-04-11T14:46:19Z</time></trkpt><trkpt lat="45.26580446146997" lon="11.719837069391222"><ele>12.0</ele><time>2026-04-11T14:46:20Z</time></trkpt><trkpt lat="45.265919139437074" lon="11.719792596906531"><ele>13.0</ele><time>2026-04-11T14:46:21Z</time></trkpt><trkpt lat="45.266025993347924" lon="11.719792936533427"><ele>14.0</ele><time>2026-04-11T14:46:22Z</time></trkpt><trkpt lat="45.266125967614094" lon="11.71979504569034"><ele>14.0</ele><time>2026-04-11T14:46:23Z</time></trkpt><trkpt lat="45.26622784719862" lon="11.719800324937712"><ele>13.999999999999998</ele><time>2026-04-11T14:46:24Z</time></trkpt><trkpt lat="45.26632699037103" lon="11.719849875083515"><ele>13.999999999999998</ele><time>2026-04-11T14:46:25Z</time></trkpt><trkpt lat="45.26641919400385" lon="11.719948635077433"><ele>14.0</ele><time>2026-04-11T14:46:26Z</time></trkpt><trkpt lat="45.26650576080854" lon="11.720060504917846"><ele>14.0</ele><time>2026-04-11T14:46:27Z</time></trkpt><trkpt lat="45.266609244807995" lon="11.720187879693194"><ele>13.5</ele><time>2026-04-11T14:46:28Z</time></trkpt><trkpt lat="45.26669986319391" lon="11.720337561448028"><ele>13.0</ele><time>2026-04-11T14:46:29Z</time></trkpt><trkpt lat="45.266790818908994" lon="11.720475059202187"><ele>12.5</ele><time>2026-04-11T14:46:30Z</time></trkpt><trkpt lat="45.26687949480534" lon="11.720595398037759"><ele>12.0</ele><time>2026-04-11T14:46:31Z</time></trkpt><trkpt lat="45.26695453770242" lon="11.720707072588548"><ele>12.0</ele><time>2026-04-11T14:46:32Z</time></trkpt><trkpt lat="45.26702555548605" lon="11.720802976579069"><ele>12.0</ele><time>2026-04-11T14:46:33Z</time></trkpt><trkpt lat="45.26708925305492" lon="11.720893572069246"><ele>12.0</ele><time>2026-04-11T14:46:34Z</time></trkpt><trkpt lat="45.26714878749871" lon="11.720976117098457"><ele>12.0</ele><time>2026-04-11T14:46:35Z</time></trkpt><trkpt lat="45.26720269101019" lon="11.721048224873984"><ele>12.0</ele><time>2026-04-11T14:46:36Z</time></trkpt><trkpt lat="45.26729799268948" lon="11.72115385425494"><ele>12.399999999999999</ele><time>2026-04-11T14:46:38Z</time></trkpt><trkpt lat="45.26740286443593" lon="11.721221792293424"><ele>12.799999999999999</ele><time>2026-04-11T14:46:40Z</time></trkpt><trkpt lat="45.26752802293044" lon="11.721226658149877"><ele>13.2</ele><time>2026-04-11T14:46:42Z</time></trkpt><trkpt lat="45.26759371775247" lon="11.721206841600239"><ele>13.6</ele><time>2026-04-11T14:46:43Z</time></trkpt><trkpt lat="45.267710840231665" lon="11.721137652144913"><ele>14.0</ele><time>2026-04-11T14:46:45Z</time></trkpt><trkpt lat="45.26776527972122" lon="11.721081540380482"><ele>14.166666666666668</ele><time>2026-04-11T14:46:46Z</time></trkpt><trkpt lat="45.26781809270147" lon="11.721012596880412"><ele>14.333333333333334</ele><time>2026-04-11T14:46:47Z</time></trkpt><trkpt lat="45.26786738516956" lon="11.720936786617356"><ele>14.5</ele><time>2026-04-11T14:46:48Z</time></trkpt><trkpt lat="45.26791972388406" lon="11.720858915435043"><ele>14.666666666666668</ele><time>2026-04-11T14:46:49Z</time></trkpt><trkpt lat="45.26797488535272" lon="11.720782620721929"><ele>14.833333333333334</ele><time>2026-04-11T14:46:50Z</time></trkpt><trkpt lat="45.26803558095547" lon="11.720707133482401"><ele>15.0</ele><time>2026-04-11T14:46:51Z</time></trkpt><trkpt lat="45.268093146050525" lon="11.720635981200745"><ele>16.0</ele><time>2026-04-11T14:46:52Z</time></trkpt><trkpt lat="45.26814467716183" lon="11.720568330368835"><ele>17.0</ele><time>2026-04-11T14:46:53Z</time></trkpt><trkpt lat="45.268225974942446" lon="11.720439148524592"><ele>18.0</ele><time>2026-04-11T14:46:54.999Z</time></trkpt><trkpt lat="45.26829967263213" lon="11.720304478901117"><ele>19.0</ele><time>2026-04-11T14:46:57Z</time></trkpt><trkpt lat="45.268362141298226" lon="11.720163621970736"><ele>20.0</ele><time>2026-04-11T14:46:59Z</time></trkpt><trkpt lat="45.268393974189166" lon="11.720029699169483"><ele>20.833333333333336</ele><time>2026-04-11T14:47:01Z</time></trkpt><trkpt lat="45.26841521219839" lon="11.71989762287873"><ele>21.666666666666668</ele><time>2026-04-11T14:47:03Z</time></trkpt><trkpt lat="45.2684290821471" lon="11.719743018544811"><ele>22.5</ele><time>2026-04-11T14:47:05Z</time></trkpt><trkpt lat="45.26843923869045" lon="11.719650460889348"><ele>23.333333333333336</ele><time>2026-04-11T14:47:06Z</time></trkpt><trkpt lat="45.2684528764521" lon="11.719556337209745"><ele>24.166666666666668</ele><time>2026-04-11T14:47:07Z</time></trkpt><trkpt lat="45.26847406239613" lon="11.719454301000987"><ele>25.0</ele><time>2026-04-11T14:47:08Z</time></trkpt><trkpt lat="45.26850055416605" lon="11.719356957652293"><ele>26.0</ele><time>2026-04-11T14:47:09Z</time></trkpt><trkpt lat="45.26852492680583" lon="11.719270832380952"><ele>27.0</ele><time>2026-04-11T14:47:10Z</time></trkpt><trkpt lat="45.26856485236523" lon="11.71918035266573"><ele>28.0</ele><time>2026-04-11T14:47:11Z</time></trkpt><trkpt lat="45.268610109887234" lon="11.719111615687108"><ele>29.0</ele><time>2026-04-11T14:47:12Z</time></trkpt><trkpt lat="45.2686603136977" lon="11.719046723533918"><ele>29.999999999999996</ele><time>2026-04-11T14:47:13Z</time></trkpt><trkpt lat="45.26871081942001" lon="11.718989693929007"><ele>31.0</ele><time>2026-04-11T14:47:14Z</time></trkpt><trkpt lat="45.26880702308082" lon="11.71893298081812"><ele>32.0</ele><time>2026-04-11T14:47:16Z</time></trkpt><trkpt lat="45.26891585547106" lon="11.718964279782028"><ele>33.33333333333333</ele><time>2026-04-11T14:47:18Z</time></trkpt><trkpt lat="45.26897441768674" lon="11.719006662686638"><ele>34.666666666666664</ele><time>2026-04-11T14:47:19Z</time></trkpt><trkpt lat="45.26906057422452" lon="11.719103595518591"><ele>36.0</ele><time>2026-04-11T14:47:21Z</time></trkpt><trkpt lat="45.26914660346539" lon="11.719188201159817"><ele>37.333333333333336</ele><time>2026-04-11T14:47:23Z</time></trkpt><trkpt lat="45.26920620267119" lon="11.719248212273806"><ele>38.66666666666667</ele><time>2026-04-11T14:47:24Z</time></trkpt><trkpt lat="45.26926410764932" lon="11.719302777636797"><ele>40.0</ele><time>2026-04-11T14:47:25Z</time></trkpt><trkpt lat="45.26932333953152" lon="11.719355441425515"><ele>39.66666666666667</ele><time>2026-04-11T14:47:26Z</time></trkpt><trkpt lat="45.2693810185242" lon="11.719402385425658"><ele>39.333333333333336</ele><time>2026-04-11T14:47:27Z</time></trkpt><trkpt lat="45.2694309835109" lon="11.71946101870271"><ele>39.0</ele><time>2026-04-11T14:47:28Z</time></trkpt><trkpt lat="45.26948410615919" lon="11.71955448328116"><ele>38.666666666666664</ele><time>2026-04-11T14:47:30Z</time></trkpt><trkpt lat="45.269536157013285" lon="11.719648969449771"><ele>38.33333333333333</ele><time>2026-04-11T14:47:33Z</time></trkpt><trkpt lat="45.26957470247993" lon="11.719769742859077"><ele>38.0</ele><time>2026-04-11T14:47:36Z</time></trkpt><trkpt lat="45.26954750385047" lon="11.719914308532278"><ele>38.0</ele><time>2026-04-11T14:47:38Z</time></trkpt><trkpt lat="45.26954171002627" lon="11.720007810558245"><ele>38.0</ele><time>2026-04-11T14:47:39Z</time></trkpt><trkpt lat="45.26955289062558" lon="11.720102617018599"><ele>38.0</ele><time>2026-04-11T14:47:40Z</time></trkpt><trkpt lat="45.269530415094785" lon="11.720228215930288"><ele>38.0</ele><time>2026-04-11T14:47:42Z</time></trkpt><trkpt lat="45.26953771451636" lon="11.720318666050362"><ele>34.0</ele><time>2026-04-11T14:47:44Z</time></trkpt></trkseg><trkseg><trkpt lat="45.26956305377676" lon="11.720936726789661"><ele>34.0</ele><time>2026-04-11T15:23:18.038Z</time></trkpt><trkpt lat="45.269603142056525" lon="11.721047124332022"><ele>34.0</ele><time>2026-04-11T15:25:59Z</time></trkpt><trkpt lat="45.26964701363969" lon="11.72122181208812"><ele>34.0</ele><time>2026-04-11T15:26:01Z</time></trkpt><trkpt lat="45.26968903309203" lon="11.72134103508882"><ele>34.0</ele><time>2026-04-11T15:26:02Z</time></trkpt><trkpt lat="45.269731843595125" lon="11.721448742684428"><ele>34.0</ele><time>2026-04-11T15:26:03Z</time></trkpt><trkpt lat="45.26977971802665" lon="11.721538970483756"><ele>34.6</ele><time>2026-04-11T15:26:04Z</time></trkpt><trkpt lat="45.269837290086485" lon="11.721623495018074"><ele>35.2</ele><time>2026-04-11T15:26:05Z</time></trkpt><trkpt lat="45.26989765887301" lon="11.721707046720619"><ele>35.800000000000004</ele><time>2026-04-11T15:26:06Z</time></trkpt><trkpt lat="45.269963696329405" lon="11.721783455256006"><ele>36.4</ele><time>2026-04-11T15:26:07Z</time></trkpt><trkpt lat="45.27004008126941" lon="11.721874454417746"><ele>37.0</ele><time>2026-04-11T15:26:08Z</time></trkpt><trkpt lat="45.270121625267585" lon="11.721973359073782"><ele>37.0</ele><time>2026-04-11T15:26:09Z</time></trkpt><trkpt lat="45.270208998466195" lon="11.722081662080203"><ele>37.0</ele><time>2026-04-11T15:26:10Z</time></trkpt><trkpt lat="45.2703058048128" lon="11.722192517130896"><ele>37.0</ele><time>2026-04-11T15:26:11Z</time></trkpt><trkpt lat="45.27039695120868" lon="11.722303210486734"><ele>37.0</ele><time>2026-04-11T15:26:12Z</time></trkpt><trkpt lat="45.27047998335504" lon="11.722416521308626"><ele>37.0</ele><time>2026-04-11T15:26:13Z</time></trkpt><trkpt lat="45.270551794137226" lon="11.722533865911396"><ele>37.0</ele><time>2026-04-11T15:26:14Z</time></trkpt><trkpt lat="45.27059768900028" lon="11.722685422231852"><ele>37.0</ele><time>2026-04-11T15:26:14.999Z</time></trkpt><trkpt lat="45.27062791772175" lon="11.722822831540999"><ele>37.0</ele><time>2026-04-11T15:26:15.999Z</time></trkpt><trkpt lat="45.270656964131426" lon="11.722949885591378"><ele>37.0</ele><time>2026-04-11T15:26:16.999Z</time></trkpt><trkpt lat="45.27067677738599" lon="11.723059853842457"><ele>39.0</ele><time>2026-04-11T15:26:17.999Z</time></trkpt><trkpt lat="45.27069272923655" lon="11.723175766399626"><ele>41.0</ele><time>2026-04-11T15:26:18.999Z</time></trkpt><trkpt lat="45.27070541542717" lon="11.723304351293077"><ele>43.0</ele><time>2026-04-11T15:26:19.999Z</time></trkpt><trkpt lat="45.270721457954586" lon="11.723435123678133"><ele>45.0</ele><time>2026-04-11T15:26:20.999Z</time></trkpt><trkpt lat="45.270727603633276" lon="11.723564873450409"><ele>46.99999999999999</ele><time>2026-04-11T15:26:21.999Z</time></trkpt><trkpt lat="45.2707237627826" lon="11.723691713621646"><ele>49.0</ele><time>2026-04-11T15:26:22.999Z</time></trkpt><trkpt lat="45.27071412632878" lon="11.723823283414491"><ele>49.400000000000006</ele><time>2026-04-11T15:26:23.999Z</time></trkpt><trkpt lat="45.27068802127603" lon="11.723965813380927"><ele>49.8</ele><time>2026-04-11T15:26:24.999Z</time></trkpt><trkpt lat="45.270639122220025" lon="11.724101403521031"><ele>50.2</ele><time>2026-04-11T15:26:25.999Z</time></trkpt><trkpt lat="45.27058084224785" lon="11.724236528839603"><ele>50.599999999999994</ele><time>2026-04-11T15:26:26.999Z</time></trkpt><trkpt lat="45.270515773055926" lon="11.724388553979667"><ele>51.0</ele><time>2026-04-11T15:26:27.999Z</time></trkpt><trkpt lat="45.27045715581909" lon="11.724546040171552"><ele>48.5</ele><time>2026-04-11T15:26:28.999Z</time></trkpt><trkpt lat="45.27040140773214" lon="11.724707909909272"><ele>46.0</ele><time>2026-04-11T15:26:29.999Z</time></trkpt><trkpt lat="45.27034498250137" lon="11.724863126603749"><ele>43.5</ele><time>2026-04-11T15:26:30.999Z</time></trkpt><trkpt lat="45.270283370187435" lon="11.725027988492707"><ele>41.0</ele><time>2026-04-11T15:26:31.999Z</time></trkpt><trkpt lat="45.270222321639075" lon="11.72519806880794"><ele>42.75</ele><time>2026-04-11T15:26:32.999Z</time></trkpt><trkpt lat="45.27016361768198" lon="11.725371797262646"><ele>44.5</ele><time>2026-04-11T15:26:33.999Z</time></trkpt><trkpt lat="45.27010164250304" lon="11.725547653003423"><ele>46.25</ele><time>2026-04-11T15:26:34.999Z</time></trkpt><trkpt lat="45.270032521896226" lon="11.725724871723845"><ele>48.0</ele><time>2026-04-11T15:26:35.999Z</time></trkpt><trkpt lat="45.269969629152385" lon="11.725891405628028"><ele>48.25</ele><time>2026-04-11T15:26:36.999Z</time></trkpt><trkpt lat="45.26991201372844" lon="11.726062761517843"><ele>48.5</ele><time>2026-04-11T15:26:37.999Z</time></trkpt><trkpt lat="45.26986038147898" lon="11.726227168035235"><ele>48.75</ele><time>2026-04-11T15:26:38.999Z</time></trkpt><trkpt lat="45.26979549869766" lon="11.726382922737086"><ele>49.0</ele><time>2026-04-11T15:26:39.999Z</time></trkpt><trkpt lat="45.26973608953809" lon="11.726489131781824"><ele>49.0</ele><time>2026-04-11T15:26:40.999Z</time></trkpt><trkpt lat="45.26968328406657" lon="11.726593469467986"><ele>49.0</ele><time>2026-04-11T15:26:41.999Z</time></trkpt><trkpt lat="45.26963750552658" lon="11.72670489521126"><ele>49.0</ele><time>2026-04-11T15:26:42.999Z</time></trkpt><trkpt lat="45.269537165034066" lon="11.726768112679945"><ele>49.0</ele><time>2026-04-11T15:26:43.999Z</time></trkpt><trkpt lat="45.26942807374967" lon="11.726833770730314"><ele>49.0</ele><time>2026-04-11T15:26:44.999Z</time></trkpt><trkpt lat="45.26934048925358" lon="11.726921870369312"><ele>48.400000000000006</ele><time>2026-04-11T15:26:45.999Z</time></trkpt><trkpt lat="45.26926316780916" lon="11.727022835137264"><ele>47.8</ele><time>2026-04-11T15:26:46.999Z</time></trkpt><trkpt lat="45.26917622719998" lon="11.727103725246105"><ele>47.2</ele><time>2026-04-11T15:26:47.999Z</time></trkpt><trkpt lat="45.2690992039067" lon="11.727205496121403"><ele>46.599999999999994</ele><time>2026-04-11T15:26:48.999Z</time></trkpt><trkpt lat="45.2690221257165" lon="11.727285946760327"><ele>46.0</ele><time>2026-04-11T15:26:49.999Z</time></trkpt><trkpt lat="45.268935819891425" lon="11.727342964729939"><ele>45.0</ele><time>2026-04-11T15:26:50.999Z</time></trkpt><trkpt lat="45.2688604452188" lon="11.72739116226163"><ele>44.0</ele><time>2026-04-11T15:26:51.999Z</time></trkpt><trkpt lat="45.2688057612928" lon="11.727463775280674"><ele>43.0</ele><time>2026-04-11T15:26:52.999Z</time></trkpt><trkpt lat="45.26877125877449" lon="11.72756483907631"><ele>42.0</ele><time>2026-04-11T15:26:53.999Z</time></trkpt><trkpt lat="45.268777385605084" lon="11.727677462113219"><ele>41.0</ele><time>2026-04-11T15:26:54.999Z</time></trkpt><trkpt lat="45.26881092684545" lon="11.727813838305037"><ele>40.0</ele><time>2026-04-11T15:26:55.999Z</time></trkpt><trkpt lat="45.268859558347245" lon="11.727954249222417"><ele>38.75</ele><time>2026-04-11T15:26:56.999Z</time></trkpt><trkpt lat="45.26892066879652" lon="11.72809831211623"><ele>37.5</ele><time>2026-04-11T15:26:57.999Z</time></trkpt><trkpt lat="45.26899329404627" lon="11.728241794542065"><ele>36.25</ele><time>2026-04-11T15:26:58.999Z</time></trkpt><trkpt lat="45.269079272178956" lon="11.728365113210682"><ele>35.0</ele><time>2026-04-11T15:26:59.999Z</time></trkpt><trkpt lat="45.269168068815866" lon="11.72846812120545"><ele>32.2</ele><time>2026-04-11T15:27:00.999Z</time></trkpt><trkpt lat="45.269252858179144" lon="11.728569546160758"><ele>29.4</ele><time>2026-04-11T15:27:01.999Z</time></trkpt><trkpt lat="45.26932843770689" lon="11.728674044903254"><ele>26.6</ele><time>2026-04-11T15:27:02.999Z</time></trkpt><trkpt lat="45.26940366755722" lon="11.728773428807905"><ele>23.8</ele><time>2026-04-11T15:27:03.999Z</time></trkpt><trkpt lat="45.26946948582577" lon="11.728901512960482"><ele>21.0</ele><time>2026-04-11T15:27:04.999Z</time></trkpt><trkpt lat="45.26954337786501" lon="11.729005674936797"><ele>21.0</ele><time>2026-04-11T15:27:05.999Z</time></trkpt><trkpt lat="45.2695842137574" lon="11.729141584348723"><ele>21.0</ele><time>2026-04-11T15:27:06.999Z</time></trkpt><trkpt lat="45.26960967965705" lon="11.729277686945471"><ele>21.0</ele><time>2026-04-11T15:27:07.999Z</time></trkpt><trkpt lat="45.269613280633585" lon="11.729423482918637"><ele>21.0</ele><time>2026-04-11T15:27:08.999Z</time></trkpt><trkpt lat="45.269593945648296" lon="11.72957540243564"><ele>21.0</ele><time>2026-04-11T15:27:09.999Z</time></trkpt><trkpt lat="45.26955674734672" lon="11.729756019227974"><ele>19.0</ele><time>2026-04-11T15:27:10.999Z</time></trkpt><trkpt lat="45.26950803450897" lon="11.729946918034527"><ele>17.0</ele><time>2026-04-11T15:27:11.999Z</time></trkpt><trkpt lat="45.269459524425635" lon="11.730152287353555"><ele>15.0</ele><time>2026-04-11T15:27:12.999Z</time></trkpt><trkpt lat="45.26941721982548" lon="11.730359429904189"><ele>13.0</ele><time>2026-04-11T15:27:13.999Z</time></trkpt><trkpt lat="45.269372850431985" lon="11.730565981937003"><ele>12.5</ele><time>2026-04-11T15:27:14.999Z</time></trkpt><trkpt lat="45.26933330221029" lon="11.730763537351178"><ele>12.0</ele><time>2026-04-11T15:27:15.999Z</time></trkpt><trkpt lat="45.26929147673859" lon="11.730962622201574"><ele>11.5</ele><time>2026-04-11T15:27:16.999Z</time></trkpt><trkpt lat="45.26925051575197" lon="11.731155196113637"><ele>11.0</ele><time>2026-04-11T15:27:17.999Z</time></trkpt><trkpt lat="45.26921484141803" lon="11.731355665024541"><ele>11.0</ele><time>2026-04-11T15:27:18.999Z</time></trkpt><trkpt lat="45.26919396949738" lon="11.731542045221088"><ele>11.0</ele><time>2026-04-11T15:27:19.999Z</time></trkpt><trkpt lat="45.26919187526987" lon="11.731730054459286"><ele>11.0</ele><time>2026-04-11T15:27:20.999Z</time></trkpt><trkpt lat="45.269212151124535" lon="11.731881688263002"><ele>11.0</ele><time>2026-04-11T15:27:21.999Z</time></trkpt><trkpt lat="45.26925635775943" lon="11.732017021927485"><ele>10.75</ele><time>2026-04-11T15:27:22.999Z</time></trkpt><trkpt lat="45.26932550845235" lon="11.732133534989376"><ele>10.5</ele><time>2026-04-11T15:27:23.999Z</time></trkpt><trkpt lat="45.269409544598105" lon="11.732233064319802"><ele>10.25</ele><time>2026-04-11T15:27:24.999Z</time></trkpt><trkpt lat="45.269488938827024" lon="11.7323495201803"><ele>10.0</ele><time>2026-04-11T15:27:25.999Z</time></trkpt><trkpt lat="45.269562165587715" lon="11.732482522694655"><ele>10.0</ele><time>2026-04-11T15:27:26.999Z</time></trkpt><trkpt lat="45.26960995945671" lon="11.732630287565009"><ele>10.0</ele><time>2026-04-11T15:27:27.999Z</time></trkpt><trkpt lat="45.26964724814763" lon="11.732775044950946"><ele>10.0</ele><time>2026-04-11T15:27:28.999Z</time></trkpt><trkpt lat="45.26965719352908" lon="11.732925411369264"><ele>10.0</ele><time>2026-04-11T15:27:29.999Z</time></trkpt><trkpt lat="45.26965362289239" lon="11.73310012447041"><ele>9.75</ele><time>2026-04-11T15:27:30.999Z</time></trkpt><trkpt lat="45.269607382212214" lon="11.733266120358111"><ele>9.5</ele><time>2026-04-11T15:27:31.999Z</time></trkpt><trkpt lat="45.26954284980672" lon="11.733431366428391"><ele>9.25</ele><time>2026-04-11T15:27:32.999Z</time></trkpt><trkpt lat="45.26947714525771" lon="11.73359049033346"><ele>9.0</ele><time>2026-04-11T15:27:33.999Z</time></trkpt><trkpt lat="45.26941835630981" lon="11.733771978399927"><ele>8.75</ele><time>2026-04-11T15:27:34.999Z</time></trkpt><trkpt lat="45.269376932980656" lon="11.733959557807076"><ele>8.5</ele><time>2026-04-11T15:27:35.999Z</time></trkpt><trkpt lat="45.269363166581954" lon="11.73412856835221"><ele>8.25</ele><time>2026-04-11T15:27:36.999Z</time></trkpt><trkpt lat="45.269369281007364" lon="11.734296782318895"><ele>8.0</ele><time>2026-04-11T15:27:37.999Z</time></trkpt><trkpt lat="45.26940281908741" lon="11.734471509967335"><ele>7.666666666666666</ele><time>2026-04-11T15:27:38.999Z</time></trkpt><trkpt lat="45.26945936778145" lon="11.73466293114281"><ele>7.333333333333334</ele><time>2026-04-11T15:27:39.999Z</time></trkpt><trkpt lat="45.26952514253173" lon="11.734882460615667"><ele>7.0</ele><time>2026-04-11T15:27:40.999Z</time></trkpt><trkpt lat="45.26958420939238" lon="11.735093582498825"><ele>7.0</ele><time>2026-04-11T15:27:41.999Z</time></trkpt><trkpt lat="45.26962457099008" lon="11.735288821108686"><ele>7.0</ele><time>2026-04-11T15:27:42.999Z</time></trkpt><trkpt lat="45.269658727391615" lon="11.735478327786083"><ele>7.0</ele><time>2026-04-11T15:27:43.999Z</time></trkpt><trkpt lat="45.26966148090705" lon="11.735655315435288"><ele>7.0</ele><time>2026-04-11T15:27:44.999Z</time></trkpt><trkpt lat="45.26964922890147" lon="11.735855489696513"><ele>7.333333333333334</ele><time>2026-04-11T15:27:45.999Z</time></trkpt><trkpt lat="45.26962076441003" lon="11.736081089739937"><ele>7.666666666666666</ele><time>2026-04-11T15:27:46.999Z</time></trkpt><trkpt lat="45.269599464512886" lon="11.736314175023793"><ele>8.0</ele><time>2026-04-11T15:27:47.999Z</time></trkpt><trkpt lat="45.269596080015916" lon="11.736539335563569"><ele>8.0</ele><time>2026-04-11T15:27:48.999Z</time></trkpt><trkpt lat="45.26960116939029" lon="11.73676917462859"><ele>8.0</ele><time>2026-04-11T15:27:49.999Z</time></trkpt><trkpt lat="45.26960212537344" lon="11.737013448250137"><ele>8.0</ele><time>2026-04-11T15:27:50.999Z</time></trkpt><trkpt lat="45.26960596707087" lon="11.73724585545446"><ele>8.0</ele><time>2026-04-11T15:27:51.999Z</time></trkpt><trkpt lat="45.2696139544353" lon="11.737458000692992"><ele>8.0</ele><time>2026-04-11T15:27:52.999Z</time></trkpt><trkpt lat="45.26962397473259" lon="11.73767112335051"><ele>8.0</ele><time>2026-04-11T15:27:53.999Z</time></trkpt><trkpt lat="45.269658757110385" lon="11.737882161638725"><ele>7.666666666666666</ele><time>2026-04-11T15:27:54.999Z</time></trkpt><trkpt lat="45.26971052667185" lon="11.738117735435837"><ele>7.333333333333334</ele><time>2026-04-11T15:27:55.999Z</time></trkpt><trkpt lat="45.269768927914555" lon="11.738350990393453"><ele>7.0</ele><time>2026-04-11T15:27:56.999Z</time></trkpt><trkpt lat="45.269815884045016" lon="11.738602026773183"><ele>9.0</ele><time>2026-04-11T15:27:57.999Z</time></trkpt><trkpt lat="45.2698603128942" lon="11.738861728578582"><ele>11.0</ele><time>2026-04-11T15:27:58.999Z</time></trkpt><trkpt lat="45.26990210135766" lon="11.739115052890835"><ele>13.0</ele><time>2026-04-11T15:27:59.999Z</time></trkpt><trkpt lat="45.26994623515801" lon="11.739343172100527"><ele>12.0</ele><time>2026-04-11T15:28:00.999Z</time></trkpt><trkpt lat="45.26998132999383" lon="11.739567455378312"><ele>11.0</ele><time>2026-04-11T15:28:01.999Z</time></trkpt><trkpt lat="45.27002135142403" lon="11.739763012231132"><ele>10.0</ele><time>2026-04-11T15:28:02.999Z</time></trkpt><trkpt lat="45.27007151476362" lon="11.739973818857607"><ele>10.0</ele><time>2026-04-11T15:28:03.999Z</time></trkpt><trkpt lat="45.27012820224578" lon="11.740165436479474"><ele>10.0</ele><time>2026-04-11T15:28:04.999Z</time></trkpt><trkpt lat="45.27019677961809" lon="11.740362858951041"><ele>10.0</ele><time>2026-04-11T15:28:05.999Z</time></trkpt><trkpt lat="45.27026281299413" lon="11.740529197021823"><ele>10.0</ele><time>2026-04-11T15:28:06.999Z</time></trkpt><trkpt lat="45.270330355858746" lon="11.740693797410831"><ele>9.5</ele><time>2026-04-11T15:28:07.999Z</time></trkpt><trkpt lat="45.27039945808991" lon="11.740820984837756"><ele>9.0</ele><time>2026-04-11T15:28:08.999Z</time></trkpt><trkpt lat="45.270479010124355" lon="11.740923618111548"><ele>8.5</ele><time>2026-04-11T15:28:09.999Z</time></trkpt><trkpt lat="45.270575031987185" lon="11.740993259718959"><ele>8.0</ele><time>2026-04-11T15:28:10.999Z</time></trkpt><trkpt lat="45.27069212047848" lon="11.74105492108063"><ele>7.25</ele><time>2026-04-11T15:28:11.999Z</time></trkpt><trkpt lat="45.270820478107034" lon="11.741100881043133"><ele>6.5</ele><time>2026-04-11T15:28:12.999Z</time></trkpt><trkpt lat="45.27094209893657" lon="11.74115997921335"><ele>5.75</ele><time>2026-04-11T15:28:13.999Z</time></trkpt><trkpt lat="45.27106201090874" lon="11.741222132722744"><ele>5.0</ele><time>2026-04-11T15:28:14.999Z</time></trkpt><trkpt lat="45.27117027799826" lon="11.741278670593053"><ele>5.0</ele><time>2026-04-11T15:28:15.999Z</time></trkpt><trkpt lat="45.27127873688238" lon="11.741320314175669"><ele>5.0</ele><time>2026-04-11T15:28:16.999Z</time></trkpt><trkpt lat="45.27137776070865" lon="11.741368432243988"><ele>5.0</ele><time>2026-04-11T15:28:17.999Z</time></trkpt><trkpt lat="45.2714669581958" lon="11.741438104722471"><ele>5.0</ele><time>2026-04-11T15:28:18.999Z</time></trkpt><trkpt lat="45.27155695885109" lon="11.74149028346348"><ele>5.0</ele><time>2026-04-11T15:28:19.999Z</time></trkpt><trkpt lat="45.27162911292505" lon="11.741594779433825"><ele>7.5</ele><time>2026-04-11T15:28:20.999Z</time></trkpt><trkpt lat="45.27167021179486" lon="11.741737594375822"><ele>10.0</ele><time>2026-04-11T15:28:21.999Z</time></trkpt><trkpt lat="45.27169145326908" lon="11.741892114613265"><ele>12.5</ele><time>2026-04-11T15:28:22.999Z</time></trkpt><trkpt lat="45.27165899048563" lon="11.742052375779014"><ele>15.0</ele><time>2026-04-11T15:28:23.999Z</time></trkpt><trkpt lat="45.27163571829034" lon="11.742220905846342"><ele>15.0</ele><time>2026-04-11T15:28:24.999Z</time></trkpt><trkpt lat="45.27158020560962" lon="11.742390837940956"><ele>15.0</ele><time>2026-04-11T15:28:25.999Z</time></trkpt><trkpt lat="45.271527095586336" lon="11.742560803295493"><ele>15.0</ele><time>2026-04-11T15:28:26.999Z</time></trkpt><trkpt lat="45.27147150099498" lon="11.742741306898134"><ele>15.0</ele><time>2026-04-11T15:28:27.999Z</time></trkpt><trkpt lat="45.27140509666852" lon="11.742920135614362"><ele>12.333333333333334</ele><time>2026-04-11T15:28:28.999Z</time></trkpt><trkpt lat="45.271317195934785" lon="11.743101800485263"><ele>9.666666666666668</ele><time>2026-04-11T15:28:29.999Z</time></trkpt><trkpt lat="45.27120863922089" lon="11.74327892409982"><ele>7.0</ele><time>2026-04-11T15:28:30.999Z</time></trkpt><trkpt lat="45.27110287370358" lon="11.743443280789588"><ele>10.0</ele><time>2026-04-11T15:28:31.999Z</time></trkpt><trkpt lat="45.27099768722783" lon="11.743625559232022"><ele>13.0</ele><time>2026-04-11T15:28:32.999Z</time></trkpt><trkpt lat="45.27089210842287" lon="11.74381415360745"><ele>16.0</ele><time>2026-04-11T15:28:33.999Z</time></trkpt><trkpt lat="45.270782482859566" lon="11.7440059245406"><ele>16.0</ele><time>2026-04-11T15:28:34.999Z</time></trkpt><trkpt lat="45.270674551454114" lon="11.744204016273667"><ele>16.0</ele><time>2026-04-11T15:28:35.999Z</time></trkpt><trkpt lat="45.270583810051306" lon="11.74439189707679"><ele>16.0</ele><time>2026-04-11T15:28:36.999Z</time></trkpt><trkpt lat="45.27050054377622" lon="11.744587108815903"><ele>16.0</ele><time>2026-04-11T15:28:37.999Z</time></trkpt><trkpt lat="45.270413556236804" lon="11.74475257071861"><ele>16.0</ele><time>2026-04-11T15:28:38.999Z</time></trkpt><trkpt lat="45.2703148655992" lon="11.744909438549579"><ele>16.0</ele><time>2026-04-11T15:28:39.999Z</time></trkpt><trkpt lat="45.27021665364789" lon="11.745072249877001"><ele>16.0</ele><time>2026-04-11T15:28:40.999Z</time></trkpt><trkpt lat="45.270127705488754" lon="11.745230286539577"><ele>16.0</ele><time>2026-04-11T15:28:41.999Z</time></trkpt><trkpt lat="45.270051374703684" lon="11.745383241520464"><ele>16.0</ele><time>2026-04-11T15:28:42.999Z</time></trkpt><trkpt lat="45.269974509032124" lon="11.74553489280151"><ele>16.0</ele><time>2026-04-11T15:28:43.999Z</time></trkpt><trkpt lat="45.26991055226133" lon="11.745674081159626"><ele>16.0</ele><time>2026-04-11T15:28:44.999Z</time></trkpt><trkpt lat="45.26984804660963" lon="11.745812475115448"><ele>16.0</ele><time>2026-04-11T15:28:45.999Z</time></trkpt><trkpt lat="45.26978612592717" lon="11.745944196710523"><ele>16.0</ele><time>2026-04-11T15:28:46.999Z</time></trkpt><trkpt lat="45.26972682613973" lon="11.74605873259625"><ele>16.0</ele><time>2026-04-11T15:28:47.999Z</time></trkpt><trkpt lat="45.269666588648434" lon="11.746175438737168"><ele>16.0</ele><time>2026-04-11T15:28:48.999Z</time></trkpt><trkpt lat="45.26961486193024" lon="11.746292696725524"><ele>16.0</ele><time>2026-04-11T15:28:49.999Z</time></trkpt><trkpt lat="45.2695575308171" lon="11.74641941831069"><ele>14.600000000000001</ele><time>2026-04-11T15:28:50.999Z</time></trkpt><trkpt lat="45.26949894066536" lon="11.746543122570602"><ele>13.200000000000001</ele><time>2026-04-11T15:28:51.999Z</time></trkpt><trkpt lat="45.269444554622844" lon="11.746659392125467"><ele>11.8</ele><time>2026-04-11T15:28:52.999Z</time></trkpt><trkpt lat="45.26939300430119" lon="11.74676416901985"><ele>10.4</ele><time>2026-04-11T15:28:53.999Z</time></trkpt><trkpt lat="45.26933933522167" lon="11.746866438959833"><ele>9.0</ele><time>2026-04-11T15:28:54.999Z</time></trkpt><trkpt lat="45.26928217787579" lon="11.746941190545446"><ele>8.666666666666666</ele><time>2026-04-11T15:28:55.999Z</time></trkpt><trkpt lat="45.2692177819979" lon="11.746992640101459"><ele>8.333333333333334</ele><time>2026-04-11T15:28:56.999Z</time></trkpt><trkpt lat="45.269141207953" lon="11.747014098349196"><ele>8.0</ele><time>2026-04-11T15:28:57.999Z</time></trkpt><trkpt lat="45.26905748733773" lon="11.747006109025985"><ele>7.666666666666667</ele><time>2026-04-11T15:28:58.999Z</time></trkpt><trkpt lat="45.268964502928604" lon="11.746986149532516"><ele>7.333333333333334</ele><time>2026-04-11T15:28:59.999Z</time></trkpt><trkpt lat="45.268878761362615" lon="11.746970826671435"><ele>7.0</ele><time>2026-04-11T15:29:00.999Z</time></trkpt><trkpt lat="45.26880196654071" lon="11.746957730371138"><ele>7.000000000000001</ele><time>2026-04-11T15:29:01.999Z</time></trkpt><trkpt lat="45.26872999085581" lon="11.746952088050488"><ele>7.0</ele><time>2026-04-11T15:29:02.999Z</time></trkpt><trkpt lat="45.268670094294485" lon="11.746983338204757"><ele>7.0</ele><time>2026-04-11T15:29:03.999Z</time></trkpt><trkpt lat="45.268629863039905" lon="11.747056789104002"><ele>7.0</ele><time>2026-04-11T15:29:04.999Z</time></trkpt><trkpt lat="45.2686498178071" lon="11.747245529762301"><ele>7.000000000000001</ele><time>2026-04-11T15:29:06.999Z</time></trkpt><trkpt lat="45.268688856295846" lon="11.747358862099102"><ele>7.0</ele><time>2026-04-11T15:29:07.999Z</time></trkpt><trkpt lat="45.26872395344218" lon="11.74748387775844"><ele>7.0</ele><time>2026-04-11T15:29:08.999Z</time></trkpt><trkpt lat="45.268760247856875" lon="11.747627911842947"><ele>7.0</ele><time>2026-04-11T15:29:09.999Z</time></trkpt><trkpt lat="45.268804810180534" lon="11.747785498851783"><ele>7.0</ele><time>2026-04-11T15:29:10.999Z</time></trkpt><trkpt lat="45.26885243553232" lon="11.747960454596251"><ele>7.0</ele><time>2026-04-11T15:29:11.999Z</time></trkpt><trkpt lat="45.26890618533069" lon="11.748164357194325"><ele>6.666666666666667</ele><time>2026-04-11T15:29:12.999Z</time></trkpt><trkpt lat="45.26896377692075" lon="11.748375410015234"><ele>6.333333333333334</ele><time>2026-04-11T15:29:13.999Z</time></trkpt><trkpt lat="45.26902485844821" lon="11.748609746878111"><ele>6.0</ele><time>2026-04-11T15:29:14.999Z</time></trkpt><trkpt lat="45.269086804308415" lon="11.748840378621663"><ele>6.0</ele><time>2026-04-11T15:29:15.999Z</time></trkpt><trkpt lat="45.26915114185416" lon="11.749097175361607"><ele>6.0</ele><time>2026-04-11T15:29:16.999Z</time></trkpt><trkpt lat="45.269225435015045" lon="11.74937524579613"><ele>6.0</ele><time>2026-04-11T15:29:17.999Z</time></trkpt><trkpt lat="45.26929864080816" lon="11.749648329584959"><ele>5.666666666666667</ele><time>2026-04-11T15:29:18.999Z</time></trkpt><trkpt lat="45.269365163699874" lon="11.749910781112819"><ele>5.333333333333334</ele><time>2026-04-11T15:29:19.999Z</time></trkpt><trkpt lat="45.26942885920904" lon="11.750164378572963"><ele>5.0</ele><time>2026-04-11T15:29:20.999Z</time></trkpt><trkpt lat="45.26948929286431" lon="11.750407387845422"><ele>4.666666666666667</ele><time>2026-04-11T15:29:21.999Z</time></trkpt><trkpt lat="45.2695528388145" lon="11.750635835740148"><ele>4.333333333333333</ele><time>2026-04-11T15:29:22.999Z</time></trkpt><trkpt lat="45.26961641494834" lon="11.75088561076673"><ele>4.0</ele><time>2026-04-11T15:29:23.999Z</time></trkpt><trkpt lat="45.26968046174226" lon="11.75112070522272"><ele>3.6666666666666665</ele><time>2026-04-11T15:29:24.999Z</time></trkpt><trkpt lat="45.26974125745336" lon="11.75135829936635"><ele>3.333333333333333</ele><time>2026-04-11T15:29:25.999Z</time></trkpt><trkpt lat="45.269800966509955" lon="11.7515939215814"><ele>3.0</ele><time>2026-04-11T15:29:26.999Z</time></trkpt><trkpt lat="45.269860235747075" lon="11.751826869949163"><ele>3.333333333333333</ele><time>2026-04-11T15:29:27.999Z</time></trkpt><trkpt lat="45.269922054741066" lon="11.752072743229517"><ele>3.6666666666666665</ele><time>2026-04-11T15:29:28.999Z</time></trkpt><trkpt lat="45.269988146784485" lon="11.752304757751356"><ele>4.0</ele><time>2026-04-11T15:29:29.999Z</time></trkpt><trkpt lat="45.27005288415561" lon="11.75255649547677"><ele>3.6666666666666665</ele><time>2026-04-11T15:29:30.999Z</time></trkpt><trkpt lat="45.27011768568006" lon="11.752798030154521"><ele>3.333333333333333</ele><time>2026-04-11T15:29:31.999Z</time></trkpt><trkpt lat="45.270179006523094" lon="11.753035395722808"><ele>3.0</ele><time>2026-04-11T15:29:32.999Z</time></trkpt><trkpt lat="45.27024021817725" lon="11.75328860657195"><ele>3.0</ele><time>2026-04-11T15:29:33.999Z</time></trkpt><trkpt lat="45.27030206747483" lon="11.753532755406576"><ele>3.0</ele><time>2026-04-11T15:29:34.999Z</time></trkpt><trkpt lat="45.27036799758752" lon="11.753775879086625"><ele>3.0</ele><time>2026-04-11T15:29:35.999Z</time></trkpt><trkpt lat="45.27043206136771" lon="11.75402306885426"><ele>3.0</ele><time>2026-04-11T15:29:36.999Z</time></trkpt><trkpt lat="45.27049385237359" lon="11.754254680538635"><ele>3.0</ele><time>2026-04-11T15:29:37.999Z</time></trkpt><trkpt lat="45.270554979195666" lon="11.754491279511544"><ele>3.0</ele><time>2026-04-11T15:29:38.999Z</time></trkpt><trkpt lat="45.270616787326915" lon="11.754724348958064"><ele>3.0</ele><time>2026-04-11T15:29:39.999Z</time></trkpt><trkpt lat="45.270675548491084" lon="11.75495670453495"><ele>3.0</ele><time>2026-04-11T15:29:40.999Z</time></trkpt><trkpt lat="45.270734783020536" lon="11.755185792856249"><ele>3.0</ele><time>2026-04-11T15:29:41.999Z</time></trkpt><trkpt lat="45.27079448588467" lon="11.755417022775625"><ele>3.333333333333333</ele><time>2026-04-11T15:29:42.999Z</time></trkpt><trkpt lat="45.270854770217056" lon="11.7556442017173"><ele>3.6666666666666665</ele><time>2026-04-11T15:29:43.999Z</time></trkpt><trkpt lat="45.270914195298694" lon="11.755873106090116"><ele>4.0</ele><time>2026-04-11T15:29:44.999Z</time></trkpt><trkpt lat="45.27097962306006" lon="11.75611412475044"><ele>4.333333333333333</ele><time>2026-04-11T15:29:45.999Z</time></trkpt><trkpt lat="45.271042702923566" lon="11.756354392793671"><ele>4.666666666666667</ele><time>2026-04-11T15:29:46.999Z</time></trkpt><trkpt lat="45.27110562498379" lon="11.756590205453186"><ele>5.0</ele><time>2026-04-11T15:29:47.999Z</time></trkpt><trkpt lat="45.27117515206165" lon="11.756842751804484"><ele>5.333333333333334</ele><time>2026-04-11T15:29:48.999Z</time></trkpt><trkpt lat="45.27124309409434" lon="11.757084683654393"><ele>5.666666666666667</ele><time>2026-04-11T15:29:49.999Z</time></trkpt><trkpt lat="45.27130725526182" lon="11.75733912678158"><ele>6.0</ele><time>2026-04-11T15:29:50.999Z</time></trkpt><trkpt lat="45.27137363764175" lon="11.757603718264338"><ele>6.0</ele><time>2026-04-11T15:29:51.999Z</time></trkpt><trkpt lat="45.27144161491045" lon="11.75787079897092"><ele>6.0</ele><time>2026-04-11T15:29:52.999Z</time></trkpt><trkpt lat="45.2715089989513" lon="11.758127102414665"><ele>6.0</ele><time>2026-04-11T15:29:53.999Z</time></trkpt><trkpt lat="45.271576867956966" lon="11.758388571536715"><ele>6.0</ele><time>2026-04-11T15:29:54.999Z</time></trkpt><trkpt lat="45.27164992719399" lon="11.758664962156088"><ele>6.0</ele><time>2026-04-11T15:29:55.999Z</time></trkpt><trkpt lat="45.27171966541877" lon="11.758940553243015"><ele>6.0</ele><time>2026-04-11T15:29:56.999Z</time></trkpt><trkpt lat="45.271791524947496" lon="11.759216070112084"><ele>6.0</ele><time>2026-04-11T15:29:57.999Z</time></trkpt><trkpt lat="45.271866335677494" lon="11.759489940111914"><ele>6.0</ele><time>2026-04-11T15:29:58.999Z</time></trkpt><trkpt lat="45.271940451438226" lon="11.759770369254086"><ele>6.0</ele><time>2026-04-11T15:29:59.999Z</time></trkpt><trkpt lat="45.27200839890934" lon="11.760049200090293"><ele>6.0</ele><time>2026-04-11T15:30:00.999Z</time></trkpt><trkpt lat="45.27207911319793" lon="11.760339135153108"><ele>6.0</ele><time>2026-04-11T15:30:01.999Z</time></trkpt><trkpt lat="45.27215431154168" lon="11.760626471959021"><ele>6.0</ele><time>2026-04-11T15:30:02.999Z</time></trkpt><trkpt lat="45.272233132360995" lon="11.760918488438822"><ele>5.333333333333333</ele><time>2026-04-11T15:30:03.999Z</time></trkpt><trkpt lat="45.2723130076449" lon="11.76121051823144"><ele>4.666666666666666</ele><time>2026-04-11T15:30:04.999Z</time></trkpt><trkpt lat="45.27238935153214" lon="11.761498003483235"><ele>4.0</ele><time>2026-04-11T15:30:05.999Z</time></trkpt><trkpt lat="45.27246716013234" lon="11.76180019472274"><ele>4.666666666666666</ele><time>2026-04-11T15:30:06.999Z</time></trkpt><trkpt lat="45.27254525721294" lon="11.762102417771647"><ele>5.333333333333333</ele><time>2026-04-11T15:30:07.999Z</time></trkpt><trkpt lat="45.272620625790076" lon="11.762399880854618"><ele>6.0</ele><time>2026-04-11T15:30:08.999Z</time></trkpt><trkpt lat="45.27269383633287" lon="11.762682220729534"><ele>6.0</ele><time>2026-04-11T15:30:09.999Z</time></trkpt><trkpt lat="45.27276424269442" lon="11.762959167109765"><ele>6.0</ele><time>2026-04-11T15:30:10.999Z</time></trkpt><trkpt lat="45.27283050874721" lon="11.763207316117763"><ele>6.0</ele><time>2026-04-11T15:30:11.999Z</time></trkpt><trkpt lat="45.27290083127978" lon="11.76345695102584"><ele>6.0</ele><time>2026-04-11T15:30:12.999Z</time></trkpt><trkpt lat="45.272965413614116" lon="11.763702227108356"><ele>6.0</ele><time>2026-04-11T15:30:13.999Z</time></trkpt><trkpt lat="45.27302859723361" lon="11.76394750724031"><ele>6.0</ele><time>2026-04-11T15:30:14.999Z</time></trkpt><trkpt lat="45.273078349717906" lon="11.764161245797007"><ele>6.666666666666666</ele><time>2026-04-11T15:30:15.999Z</time></trkpt><trkpt lat="45.27313215475995" lon="11.76437556038859"><ele>7.333333333333333</ele><time>2026-04-11T15:30:16.999Z</time></trkpt><trkpt lat="45.273197472412214" lon="11.764596651880785"><ele>8.0</ele><time>2026-04-11T15:30:17.999Z</time></trkpt><trkpt lat="45.27325211224082" lon="11.764802994425718"><ele>8.0</ele><time>2026-04-11T15:30:18.999Z</time></trkpt><trkpt lat="45.27329758885552" lon="11.764993512380139"><ele>8.0</ele><time>2026-04-11T15:30:19.999Z</time></trkpt><trkpt lat="45.27335025122896" lon="11.765187077468063"><ele>8.0</ele><time>2026-04-11T15:30:20.999Z</time></trkpt><trkpt lat="45.27339499629715" lon="11.765370836076134"><ele>8.0</ele><time>2026-04-11T15:30:21.999Z</time></trkpt><trkpt lat="45.273449615407245" lon="11.765558604346824"><ele>8.25</ele><time>2026-04-11T15:30:22.999Z</time></trkpt><trkpt lat="45.27349945156855" lon="11.765737889784328"><ele>8.5</ele><time>2026-04-11T15:30:23.999Z</time></trkpt><trkpt lat="45.27354850534946" lon="11.765916246147174"><ele>8.75</ele><time>2026-04-11T15:30:24.999Z</time></trkpt><trkpt lat="45.27359304116881" lon="11.766091518764656"><ele>9.0</ele><time>2026-04-11T15:30:25.999Z</time></trkpt><trkpt lat="45.27364170532903" lon="11.766275406971028"><ele>7.75</ele><time>2026-04-11T15:30:26.999Z</time></trkpt><trkpt lat="45.27368932756384" lon="11.766459822965935"><ele>6.5</ele><time>2026-04-11T15:30:27.999Z</time></trkpt><trkpt lat="45.273734880458235" lon="11.766632701504333"><ele>5.25</ele><time>2026-04-11T15:30:28.999Z</time></trkpt><trkpt lat="45.2737821218073" lon="11.766793298404172"><ele>4.0</ele><time>2026-04-11T15:30:29.999Z</time></trkpt><trkpt lat="45.27382049766825" lon="11.766953281724414"><ele>4.0</ele><time>2026-04-11T15:30:30.999Z</time></trkpt><trkpt lat="45.27385822781759" lon="11.767107248120425"><ele>4.0</ele><time>2026-04-11T15:30:31.999Z</time></trkpt><trkpt lat="45.273898468572284" lon="11.767256061323355"><ele>4.0</ele><time>2026-04-11T15:30:32.999Z</time></trkpt><trkpt lat="45.27393837986746" lon="11.767400128477796"><ele>4.0</ele><time>2026-04-11T15:30:33.999Z</time></trkpt><trkpt lat="45.2739752968525" lon="11.767540139992475"><ele>4.0</ele><time>2026-04-11T15:30:34.999Z</time></trkpt><trkpt lat="45.274009631047115" lon="11.767669973736522"><ele>3.9999999999999996</ele><time>2026-04-11T15:30:35.999Z</time></trkpt><trkpt lat="45.274043613219355" lon="11.767785450675666"><ele>4.0</ele><time>2026-04-11T15:30:36.999Z</time></trkpt><trkpt lat="45.27407535374938" lon="11.767889887359283"><ele>4.0</ele><time>2026-04-11T15:30:37.999Z</time></trkpt><trkpt lat="45.274104447004" lon="11.767986212244587"><ele>4.0</ele><time>2026-04-11T15:30:38.999Z</time></trkpt><trkpt lat="45.27413374071396" lon="11.768065681997072"><ele>3.9999999999999996</ele><time>2026-04-11T15:30:39.999Z</time></trkpt><trkpt lat="45.27418674926561" lon="11.768216362389442"><ele>4.0</ele><time>2026-04-11T15:30:41.999Z</time></trkpt><trkpt lat="45.274222955395935" lon="11.768348017003058"><ele>3.9999999999999996</ele><time>2026-04-11T15:30:43.999Z</time></trkpt><trkpt lat="45.27424789580619" lon="11.76843744614273"><ele>4.0</ele><time>2026-04-11T15:30:45.999Z</time></trkpt><trkpt lat="45.274267942597675" lon="11.768523223154236"><ele>4.0</ele><time>2026-04-11T15:31:09.999Z</time></trkpt><trkpt lat="45.27430768887348" lon="11.768711555860403"><ele>4.0</ele><time>2026-04-11T15:31:11.999Z</time></trkpt><trkpt lat="45.27433078013945" lon="11.768824144952102"><ele>3.9999999999999996</ele><time>2026-04-11T15:31:12.999Z</time></trkpt><trkpt lat="45.27435652894364" lon="11.768925495540556"><ele>4.0</ele><time>2026-04-11T15:31:13.999Z</time></trkpt><trkpt lat="45.27437904695936" lon="11.769041472887148"><ele>4.4</ele><time>2026-04-11T15:31:14.999Z</time></trkpt><trkpt lat="45.274408446934935" lon="11.769164357221506"><ele>4.800000000000001</ele><time>2026-04-11T15:31:15.999Z</time></trkpt><trkpt lat="45.27444106255679" lon="11.769298260437472"><ele>5.199999999999999</ele><time>2026-04-11T15:31:16.999Z</time></trkpt><trkpt lat="45.27445515266686" lon="11.769450316907543"><ele>5.6</ele><time>2026-04-11T15:31:17.999Z</time></trkpt><trkpt lat="45.27443548783551" lon="11.769602630901268"><ele>6.0</ele><time>2026-04-11T15:31:18.999Z</time></trkpt><trkpt lat="45.274390640477414" lon="11.769768245448272"><ele>6.0</ele><time>2026-04-11T15:31:19.999Z</time></trkpt><trkpt lat="45.27434014395788" lon="11.769954475745749"><ele>6.0</ele><time>2026-04-11T15:31:20.999Z</time></trkpt><trkpt lat="45.27428671777899" lon="11.770116829069888"><ele>6.0</ele><time>2026-04-11T15:31:21.999Z</time></trkpt><trkpt lat="45.274221008761536" lon="11.770291701506645"><ele>6.0</ele><time>2026-04-11T15:31:22.999Z</time></trkpt><trkpt lat="45.27414186062357" lon="11.770461642292425"><ele>6.0</ele><time>2026-04-11T15:31:23.999Z</time></trkpt><trkpt lat="45.27404083979622" lon="11.770635937877197"><ele>6.0</ele><time>2026-04-11T15:31:24.999Z</time></trkpt><trkpt lat="45.27393608319138" lon="11.770829688152117"><ele>6.0</ele><time>2026-04-11T15:31:25.999Z</time></trkpt><trkpt lat="45.27382991627642" lon="11.770996764623746"><ele>6.0</ele><time>2026-04-11T15:31:26.999Z</time></trkpt><trkpt lat="45.2737161683884" lon="11.771176336966384"><ele>6.0</ele><time>2026-04-11T15:31:27.999Z</time></trkpt><trkpt lat="45.27360488754619" lon="11.771351501569765"><ele>6.0</ele><time>2026-04-11T15:31:28.999Z</time></trkpt><trkpt lat="45.27349402017253" lon="11.771535570010679"><ele>6.0</ele><time>2026-04-11T15:31:29.999Z</time></trkpt><trkpt lat="45.273379917836515" lon="11.77172474163563"><ele>6.0</ele><time>2026-04-11T15:31:30.999Z</time></trkpt><trkpt lat="45.273260723983604" lon="11.771913336581806"><ele>6.0</ele><time>2026-04-11T15:31:31.999Z</time></trkpt><trkpt lat="45.2731343364566" lon="11.772108000641838"><ele>7.0</ele><time>2026-04-11T15:31:32.999Z</time></trkpt><trkpt lat="45.2730044916924" lon="11.772304805197063"><ele>8.0</ele><time>2026-04-11T15:31:33.999Z</time></trkpt><trkpt lat="45.27288761019059" lon="11.77249044253874"><ele>9.0</ele><time>2026-04-11T15:31:34.999Z</time></trkpt><trkpt lat="45.27278061623013" lon="11.772655420506995"><ele>8.75</ele><time>2026-04-11T15:31:35.999Z</time></trkpt><trkpt lat="45.27268602199967" lon="11.772807858049651"><ele>8.5</ele><time>2026-04-11T15:31:36.999Z</time></trkpt><trkpt lat="45.27260129482864" lon="11.772936465727877"><ele>8.25</ele><time>2026-04-11T15:31:37.999Z</time></trkpt><trkpt lat="45.27251605065689" lon="11.773060834426673"><ele>8.0</ele><time>2026-04-11T15:31:38.999Z</time></trkpt><trkpt lat="45.272435216519916" lon="11.77316741566049"><ele>7.999999999999999</ele><time>2026-04-11T15:31:39.999Z</time></trkpt><trkpt lat="45.2723619602664" lon="11.773261444081442"><ele>8.0</ele><time>2026-04-11T15:31:40.999Z</time></trkpt><trkpt lat="45.27229350589868" lon="11.773349023029555"><ele>8.0</ele><time>2026-04-11T15:31:41.999Z</time></trkpt><trkpt lat="45.27223581754027" lon="11.773429259653376"><ele>8.0</ele><time>2026-04-11T15:31:42.999Z</time></trkpt><trkpt lat="45.27218801582608" lon="11.773510842888973"><ele>7.999999999999999</ele><time>2026-04-11T15:31:43.999Z</time></trkpt><trkpt lat="45.272146452289" lon="11.773598485919285"><ele>8.0</ele><time>2026-04-11T15:31:46Z</time></trkpt><trkpt lat="45.272113672976" lon="11.7736948537893"><ele>7.800000000000001</ele><time>2026-04-11T15:33:09Z</time></trkpt><trkpt lat="45.27205545833861" lon="11.773758579729433"><ele>7.6000000000000005</ele><time>2026-04-11T15:33:11Z</time></trkpt><trkpt lat="45.272185420778975" lon="11.773934630004902"><ele>7.3999999999999995</ele><time>2026-04-11T15:33:13Z</time></trkpt><trkpt lat="45.27224119808748" lon="11.773976559649565"><ele>7.199999999999999</ele><time>2026-04-11T15:33:14Z</time></trkpt><trkpt lat="45.27230580381148" lon="11.774029820733215"><ele>7.0</ele><time>2026-04-11T15:33:15Z</time></trkpt><trkpt lat="45.272376092919494" lon="11.774086558338897"><ele>7.0</ele><time>2026-04-11T15:33:16Z</time></trkpt><trkpt lat="45.27245726838073" lon="11.774152180631893"><ele>7.0</ele><time>2026-04-11T15:33:17Z</time></trkpt><trkpt lat="45.2725554087692" lon="11.774232536409961"><ele>7.0</ele><time>2026-04-11T15:33:18Z</time></trkpt><trkpt lat="45.272668222082096" lon="11.774318199855013"><ele>7.0</ele><time>2026-04-11T15:33:19Z</time></trkpt><trkpt lat="45.27278185716096" lon="11.774401445962368"><ele>7.0</ele><time>2026-04-11T15:33:20Z</time></trkpt><trkpt lat="45.272900262499476" lon="11.774492177888083"><ele>7.0</ele><time>2026-04-11T15:33:21Z</time></trkpt><trkpt lat="45.27303347185065" lon="11.774594054951873"><ele>7.0</ele><time>2026-04-11T15:33:22Z</time></trkpt><trkpt lat="45.273172110965255" lon="11.774698989747188"><ele>7.0</ele><time>2026-04-11T15:33:23Z</time></trkpt><trkpt lat="45.27331788817225" lon="11.774807848642828"><ele>7.333333333333334</ele><time>2026-04-11T15:33:24Z</time></trkpt><trkpt lat="45.27347195260256" lon="11.774923285541451"><ele>7.666666666666666</ele><time>2026-04-11T15:33:25Z</time></trkpt><trkpt lat="45.27363093612301" lon="11.775046164868764"><ele>8.0</ele><time>2026-04-11T15:33:26Z</time></trkpt><trkpt lat="45.273799473985626" lon="11.775164833965205"><ele>7.666666666666666</ele><time>2026-04-11T15:33:27Z</time></trkpt><trkpt lat="45.27397554165552" lon="11.775290642358053"><ele>7.333333333333334</ele><time>2026-04-11T15:33:28Z</time></trkpt><trkpt lat="45.27415778381292" lon="11.775423169853553"><ele>7.0</ele><time>2026-04-11T15:33:29Z</time></trkpt><trkpt lat="45.2743440871125" lon="11.775555737947329"><ele>7.0</ele><time>2026-04-11T15:33:30Z</time></trkpt><trkpt lat="45.274528416682806" lon="11.775687198633776"><ele>7.0</ele><time>2026-04-11T15:33:31Z</time></trkpt><trkpt lat="45.27471155399428" lon="11.775817182879617"><ele>7.0</ele><time>2026-04-11T15:33:32Z</time></trkpt><trkpt lat="45.27489600756649" lon="11.775940865144499"><ele>6.666666666666667</ele><time>2026-04-11T15:33:33Z</time></trkpt><trkpt lat="45.27508767687465" lon="11.776065119470807"><ele>6.333333333333334</ele><time>2026-04-11T15:33:34Z</time></trkpt><trkpt lat="45.2752862244485" lon="11.77619747664039"><ele>6.0</ele><time>2026-04-11T15:33:35Z</time></trkpt><trkpt lat="45.27547824703666" lon="11.776329386411538"><ele>6.333333333333334</ele><time>2026-04-11T15:33:36Z</time></trkpt><trkpt lat="45.27567114123817" lon="11.776464600963685"><ele>6.666666666666667</ele><time>2026-04-11T15:33:37Z</time></trkpt><trkpt lat="45.27586476412131" lon="11.776595548217578"><ele>7.0</ele><time>2026-04-11T15:33:38Z</time></trkpt><trkpt lat="45.27605933562579" lon="11.776723065009882"><ele>7.0</ele><time>2026-04-11T15:33:39Z</time></trkpt><trkpt lat="45.27625294928786" lon="11.77685129700938"><ele>7.0</ele><time>2026-04-11T15:33:40Z</time></trkpt><trkpt lat="45.27644877687625" lon="11.776983024665004"><ele>7.0</ele><time>2026-04-11T15:33:41Z</time></trkpt><trkpt lat="45.27664009611491" lon="11.777109882133788"><ele>6.333333333333334</ele><time>2026-04-11T15:33:42Z</time></trkpt><trkpt lat="45.276833426311676" lon="11.77723980699667"><ele>5.666666666666667</ele><time>2026-04-11T15:33:43Z</time></trkpt><trkpt lat="45.27702842367881" lon="11.777371068675896"><ele>5.0</ele><time>2026-04-11T15:33:44Z</time></trkpt><trkpt lat="45.277222268567" lon="11.777492577968694"><ele>4.666666666666667</ele><time>2026-04-11T15:33:45Z</time></trkpt><trkpt lat="45.277415387246045" lon="11.777615917779382"><ele>4.333333333333333</ele><time>2026-04-11T15:33:46Z</time></trkpt><trkpt lat="45.2776112394434" lon="11.777743488422145"><ele>4.0</ele><time>2026-04-11T15:33:47Z</time></trkpt><trkpt lat="45.27780447528806" lon="11.777871568061617"><ele>3.6666666666666665</ele><time>2026-04-11T15:33:48Z</time></trkpt><trkpt lat="45.278000109598274" lon="11.778005110547621"><ele>3.333333333333333</ele><time>2026-04-11T15:33:49Z</time></trkpt><trkpt lat="45.27820185040301" lon="11.778136528863506"><ele>3.0</ele><time>2026-04-11T15:33:50Z</time></trkpt><trkpt lat="45.27839566506438" lon="11.778268498024582"><ele>3.666666666666667</ele><time>2026-04-11T15:33:51Z</time></trkpt><trkpt lat="45.27858625650313" lon="11.778397463606344"><ele>4.333333333333334</ele><time>2026-04-11T15:33:52Z</time></trkpt><trkpt lat="45.27878351402512" lon="11.77853428673883"><ele>5.0</ele><time>2026-04-11T15:33:53Z</time></trkpt><trkpt lat="45.27898164721764" lon="11.778668489556408"><ele>5.333333333333334</ele><time>2026-04-11T15:33:54Z</time></trkpt><trkpt lat="45.27917908099311" lon="11.778806055453336"><ele>5.666666666666667</ele><time>2026-04-11T15:33:55Z</time></trkpt><trkpt lat="45.27937259771939" lon="11.778937710121257"><ele>6.0</ele><time>2026-04-11T15:33:56Z</time></trkpt><trkpt lat="45.279569939576035" lon="11.779075137326059"><ele>6.0</ele><time>2026-04-11T15:33:57Z</time></trkpt><trkpt lat="45.27976645468631" lon="11.779206550718175"><ele>6.0</ele><time>2026-04-11T15:33:58Z</time></trkpt><trkpt lat="45.27996368585279" lon="11.779338287840224"><ele>6.0</ele><time>2026-04-11T15:33:59Z</time></trkpt><trkpt lat="45.28015753186992" lon="11.779470026717771"><ele>6.0</ele><time>2026-04-11T15:34:00Z</time></trkpt><trkpt lat="45.28035343969171" lon="11.77960507389524"><ele>6.0</ele><time>2026-04-11T15:34:01Z</time></trkpt><trkpt lat="45.280547695431004" lon="11.779739636831595"><ele>6.0</ele><time>2026-04-11T15:34:02Z</time></trkpt><trkpt lat="45.28073920343119" lon="11.779870101024786"><ele>6.0</ele><time>2026-04-11T15:34:03Z</time></trkpt><trkpt lat="45.280940141290564" lon="11.780003921369218"><ele>6.0</ele><time>2026-04-11T15:34:04Z</time></trkpt><trkpt lat="45.281135620424195" lon="11.780130316719838"><ele>6.0</ele><time>2026-04-11T15:34:05Z</time></trkpt><trkpt lat="45.28133395713182" lon="11.780255313695726"><ele>6.666666666666666</ele><time>2026-04-11T15:34:06Z</time></trkpt><trkpt lat="45.28153359914461" lon="11.780376819285046"><ele>7.333333333333333</ele><time>2026-04-11T15:34:07Z</time></trkpt><trkpt lat="45.281732738811485" lon="11.780499296954408"><ele>8.0</ele><time>2026-04-11T15:34:08Z</time></trkpt><trkpt lat="45.28193621206666" lon="11.780618192369008"><ele>8.0</ele><time>2026-04-11T15:34:09Z</time></trkpt><trkpt lat="45.282135796066584" lon="11.780728920463229"><ele>8.0</ele><time>2026-04-11T15:34:10Z</time></trkpt><trkpt lat="45.282334979714676" lon="11.780839983359423"><ele>8.0</ele><time>2026-04-11T15:34:11Z</time></trkpt><trkpt lat="45.282512769111186" lon="11.78094466786596"><ele>7.333333333333333</ele><time>2026-04-11T15:34:12Z</time></trkpt><trkpt lat="45.28267597944089" lon="11.78105950848164"><ele>6.666666666666666</ele><time>2026-04-11T15:34:13Z</time></trkpt><trkpt lat="45.28282168278018" lon="11.781164743199676"><ele>6.0</ele><time>2026-04-11T15:34:14Z</time></trkpt><trkpt lat="45.28298268827737" lon="11.781274483781537"><ele>7.333333333333334</ele><time>2026-04-11T15:34:15Z</time></trkpt><trkpt lat="45.283131651851996" lon="11.781380230035943"><ele>8.666666666666668</ele><time>2026-04-11T15:34:16Z</time></trkpt><trkpt lat="45.28328812659106" lon="11.781492315231073"><ele>10.0</ele><time>2026-04-11T15:34:17Z</time></trkpt><trkpt lat="45.28344177611054" lon="11.781599086434104"><ele>10.0</ele><time>2026-04-11T15:34:18Z</time></trkpt><trkpt lat="45.28359341942782" lon="11.781704858887839"><ele>10.0</ele><time>2026-04-11T15:34:19Z</time></trkpt><trkpt lat="45.283748446752" lon="11.781815130562427"><ele>10.0</ele><time>2026-04-11T15:34:20Z</time></trkpt><trkpt lat="45.28390321582738" lon="11.781921427542013"><ele>9.0</ele><time>2026-04-11T15:34:21Z</time></trkpt><trkpt lat="45.28406413419726" lon="11.782032142027907"><ele>8.0</ele><time>2026-04-11T15:34:22Z</time></trkpt><trkpt lat="45.28422259366557" lon="11.782139234343607"><ele>7.0</ele><time>2026-04-11T15:34:23Z</time></trkpt><trkpt lat="45.28438566215827" lon="11.782247619797634"><ele>7.0</ele><time>2026-04-11T15:34:24Z</time></trkpt><trkpt lat="45.284555294224845" lon="11.782360182300383"><ele>7.0</ele><time>2026-04-11T15:34:25Z</time></trkpt><trkpt lat="45.28471847462723" lon="11.782471306921712"><ele>7.0</ele><time>2026-04-11T15:34:26Z</time></trkpt><trkpt lat="45.284884814199515" lon="11.782587743047742"><ele>7.0</ele><time>2026-04-11T15:34:27Z</time></trkpt><trkpt lat="45.285049418382044" lon="11.782713208439962"><ele>7.0</ele><time>2026-04-11T15:34:28Z</time></trkpt><trkpt lat="45.285202002689225" lon="11.782815021342273"><ele>7.0</ele><time>2026-04-11T15:34:29Z</time></trkpt><trkpt lat="45.285344744441595" lon="11.782918527617774"><ele>7.0</ele><time>2026-04-11T15:34:30Z</time></trkpt><trkpt lat="45.28548430671894" lon="11.783012400219466"><ele>7.0</ele><time>2026-04-11T15:34:31Z</time></trkpt><trkpt lat="45.28560694319369" lon="11.783088063873288"><ele>7.0</ele><time>2026-04-11T15:34:32Z</time></trkpt><trkpt lat="45.28573950171848" lon="11.78317094825548"><ele>7.0</ele><time>2026-04-11T15:34:33Z</time></trkpt><trkpt lat="45.28586018322781" lon="11.78324815434829"><ele>7.5</ele><time>2026-04-11T15:34:34Z</time></trkpt><trkpt lat="45.28597843624225" lon="11.783322088119226"><ele>8.0</ele><time>2026-04-11T15:34:35Z</time></trkpt><trkpt lat="45.286090316834986" lon="11.783391390331486"><ele>8.5</ele><time>2026-04-11T15:34:36Z</time></trkpt><trkpt lat="45.286203729075396" lon="11.783462438989218"><ele>9.0</ele><time>2026-04-11T15:34:37Z</time></trkpt><trkpt lat="45.28631716286505" lon="11.783534140924782"><ele>9.25</ele><time>2026-04-11T15:34:38Z</time></trkpt><trkpt lat="45.28642884460327" lon="11.78360674577937"><ele>9.5</ele><time>2026-04-11T15:34:39Z</time></trkpt><trkpt lat="45.2865457919392" lon="11.783675298236435"><ele>9.75</ele><time>2026-04-11T15:34:40Z</time></trkpt><trkpt lat="45.28665919398283" lon="11.78374190500707"><ele>10.0</ele><time>2026-04-11T15:34:41Z</time></trkpt><trkpt lat="45.28677372075824" lon="11.783802297827222"><ele>10.0</ele><time>2026-04-11T15:34:42Z</time></trkpt><trkpt lat="45.286890841253374" lon="11.783874468218382"><ele>10.0</ele><time>2026-04-11T15:34:43Z</time></trkpt><trkpt lat="45.28700686598936" lon="11.78395337050514"><ele>10.0</ele><time>2026-04-11T15:34:44Z</time></trkpt><trkpt lat="45.28711478889549" lon="11.784041656841246"><ele>10.0</ele><time>2026-04-11T15:34:45Z</time></trkpt><trkpt lat="45.28721919499447" lon="11.784111316542118"><ele>10.25</ele><time>2026-04-11T15:34:46Z</time></trkpt><trkpt lat="45.28732829944764" lon="11.784159541213599"><ele>10.5</ele><time>2026-04-11T15:34:47Z</time></trkpt><trkpt lat="45.287428338001895" lon="11.78421206265414"><ele>10.75</ele><time>2026-04-11T15:34:48Z</time></trkpt><trkpt lat="45.28753038866965" lon="11.784280370517413"><ele>11.0</ele><time>2026-04-11T15:34:49Z</time></trkpt><trkpt lat="45.28764792626346" lon="11.78435142288176"><ele>11.0</ele><time>2026-04-11T15:34:50Z</time></trkpt><trkpt lat="45.287778780317595" lon="11.784426650890591"><ele>11.0</ele><time>2026-04-11T15:34:51Z</time></trkpt><trkpt lat="45.28790747346803" lon="11.784517627754985"><ele>11.0</ele><time>2026-04-11T15:34:52Z</time></trkpt><trkpt lat="45.28802237126327" lon="11.784601647918343"><ele>11.0</ele><time>2026-04-11T15:34:53Z</time></trkpt><trkpt lat="45.28813008257678" lon="11.784675558788807"><ele>11.200000000000001</ele><time>2026-04-11T15:34:54Z</time></trkpt><trkpt lat="45.28822805948973" lon="11.784737177032767"><ele>11.4</ele><time>2026-04-11T15:34:55Z</time></trkpt><trkpt lat="45.28832259132072" lon="11.784793104325436"><ele>11.6</ele><time>2026-04-11T15:34:56Z</time></trkpt><trkpt lat="45.288405940162974" lon="11.784843002320569"><ele>11.8</ele><time>2026-04-11T15:34:57Z</time></trkpt><trkpt lat="45.28847789725104" lon="11.78488747533547"><ele>12.0</ele><time>2026-04-11T15:34:58Z</time></trkpt><trkpt lat="45.288558211154125" lon="11.784940229822464"><ele>12.0</ele><time>2026-04-11T15:35:00Z</time></trkpt><trkpt lat="45.28861119491532" lon="11.7849979198072"><ele>12.0</ele><time>2026-04-11T15:35:04Z</time></trkpt><trkpt lat="45.288673518695596" lon="11.785040505939062"><ele>12.0</ele><time>2026-04-11T15:35:05Z</time></trkpt><trkpt lat="45.28875062415131" lon="11.785085327933217"><ele>12.0</ele><time>2026-04-11T15:35:06Z</time></trkpt><trkpt lat="45.288821597678684" lon="11.785131062828027"><ele>12.0</ele><time>2026-04-11T15:35:07Z</time></trkpt><trkpt lat="45.288902664709205" lon="11.78517722655058"><ele>12.0</ele><time>2026-04-11T15:35:08Z</time></trkpt><trkpt lat="45.28897743576296" lon="11.785229167732824"><ele>11.4</ele><time>2026-04-11T15:35:09Z</time></trkpt><trkpt lat="45.289064115885175" lon="11.785284580505374"><ele>10.799999999999999</ele><time>2026-04-11T15:35:10Z</time></trkpt><trkpt lat="45.289154317875884" lon="11.785344430437082"><ele>10.2</ele><time>2026-04-11T15:35:11Z</time></trkpt><trkpt lat="45.289248097930304" lon="11.785401429443246"><ele>9.6</ele><time>2026-04-11T15:35:12Z</time></trkpt><trkpt lat="45.28935161105819" lon="11.78546221173952"><ele>9.0</ele><time>2026-04-11T15:35:13Z</time></trkpt><trkpt lat="45.28945717261432" lon="11.785535404687833"><ele>9.0</ele><time>2026-04-11T15:35:14Z</time></trkpt><trkpt lat="45.28955381932446" lon="11.785589909990518"><ele>9.0</ele><time>2026-04-11T15:35:15Z</time></trkpt><trkpt lat="45.28966939853168" lon="11.785659212402905"><ele>9.0</ele><time>2026-04-11T15:35:16Z</time></trkpt><trkpt lat="45.289787573842744" lon="11.7857288295154"><ele>9.0</ele><time>2026-04-11T15:35:17Z</time></trkpt><trkpt lat="45.28990640024807" lon="11.78581106921554"><ele>9.25</ele><time>2026-04-11T15:35:18Z</time></trkpt><trkpt lat="45.29003347227025" lon="11.78589714824635"><ele>9.5</ele><time>2026-04-11T15:35:19Z</time></trkpt><trkpt lat="45.29015358425849" lon="11.78597527578186"><ele>9.75</ele><time>2026-04-11T15:35:20Z</time></trkpt><trkpt lat="45.29026810843878" lon="11.786052717137059"><ele>10.0</ele><time>2026-04-11T15:35:21Z</time></trkpt><trkpt lat="45.290378381052406" lon="11.78613167060441"><ele>10.0</ele><time>2026-04-11T15:35:22Z</time></trkpt><trkpt lat="45.29047521126933" lon="11.786204233883975"><ele>10.0</ele><time>2026-04-11T15:35:23Z</time></trkpt><trkpt lat="45.29055538838995" lon="11.786284164870668"><ele>10.0</ele><time>2026-04-11T15:35:24Z</time></trkpt><trkpt lat="45.29062649096743" lon="11.786360836476792"><ele>10.0</ele><time>2026-04-11T15:35:25Z</time></trkpt><trkpt lat="45.29069512259253" lon="11.786436461838226"><ele>10.0</ele><time>2026-04-11T15:35:26Z</time></trkpt><trkpt lat="45.29075888882274" lon="11.786529151305917"><ele>9.5</ele><time>2026-04-11T15:35:27Z</time></trkpt><trkpt lat="45.290819958202476" lon="11.786644355561135"><ele>9.0</ele><time>2026-04-11T15:35:28Z</time></trkpt><trkpt lat="45.290882384584116" lon="11.786793753544673"><ele>8.5</ele><time>2026-04-11T15:35:29Z</time></trkpt><trkpt lat="45.29093384337723" lon="11.786975504446128"><ele>8.0</ele><time>2026-04-11T15:35:30Z</time></trkpt><trkpt lat="45.290979567843635" lon="11.787182093115076"><ele>8.0</ele><time>2026-04-11T15:35:31Z</time></trkpt><trkpt lat="45.29104205262143" lon="11.787374926747539"><ele>8.0</ele><time>2026-04-11T15:35:32Z</time></trkpt><trkpt lat="45.29112165177103" lon="11.787545343465943"><ele>8.0</ele><time>2026-04-11T15:35:33Z</time></trkpt><trkpt lat="45.291224246618235" lon="11.787692404352539"><ele>8.0</ele><time>2026-04-11T15:35:34Z</time></trkpt><trkpt lat="45.29133898680612" lon="11.787834741849151"><ele>7.25</ele><time>2026-04-11T15:35:35Z</time></trkpt><trkpt lat="45.29146042088973" lon="11.787971705361006"><ele>6.5</ele><time>2026-04-11T15:35:36Z</time></trkpt><trkpt lat="45.291569386647005" lon="11.788088103427073"><ele>5.75</ele><time>2026-04-11T15:35:37Z</time></trkpt><trkpt lat="45.29168314393259" lon="11.788177738318884"><ele>5.0</ele><time>2026-04-11T15:35:38Z</time></trkpt><trkpt lat="45.29179761794236" lon="11.788245898898195"><ele>5.0</ele><time>2026-04-11T15:35:39Z</time></trkpt><trkpt lat="45.2919212187727" lon="11.788280836385352"><ele>5.0</ele><time>2026-04-11T15:35:40Z</time></trkpt><trkpt lat="45.29205053882192" lon="11.788294048196455"><ele>5.0</ele><time>2026-04-11T15:35:41Z</time></trkpt><trkpt lat="45.2921914754004" lon="11.788297090787333"><ele>5.0</ele><time>2026-04-11T15:35:42Z</time></trkpt><trkpt lat="45.29233715076025" lon="11.78830428751089"><ele>5.666666666666667</ele><time>2026-04-11T15:35:43Z</time></trkpt><trkpt lat="45.292489847071096" lon="11.788314445773057"><ele>6.333333333333334</ele><time>2026-04-11T15:35:44Z</time></trkpt><trkpt lat="45.29264685809361" lon="11.788330718657116"><ele>7.0</ele><time>2026-04-11T15:35:45Z</time></trkpt><trkpt lat="45.2927981722198" lon="11.788343115177433"><ele>7.0</ele><time>2026-04-11T15:35:46Z</time></trkpt><trkpt lat="45.29295259076307" lon="11.788352629845628"><ele>7.0</ele><time>2026-04-11T15:35:47Z</time></trkpt><trkpt lat="45.29311390019463" lon="11.788366719270154"><ele>7.0</ele><time>2026-04-11T15:35:48Z</time></trkpt><trkpt lat="45.293271165227736" lon="11.788383806437082"><ele>8.0</ele><time>2026-04-11T15:35:49Z</time></trkpt><trkpt lat="45.293427445941894" lon="11.788394705526224"><ele>9.0</ele><time>2026-04-11T15:35:50Z</time></trkpt><trkpt lat="45.293586390398026" lon="11.788405181903933"><ele>10.0</ele><time>2026-04-11T15:35:51Z</time></trkpt><trkpt lat="45.29374937090889" lon="11.788417377909536"><ele>10.0</ele><time>2026-04-11T15:35:52Z</time></trkpt><trkpt lat="45.2939004473999" lon="11.788420014968514"><ele>10.0</ele><time>2026-04-11T15:35:53Z</time></trkpt><trkpt lat="45.29404635243403" lon="11.788430580004313"><ele>10.0</ele><time>2026-04-11T15:35:54Z</time></trkpt><trkpt lat="45.29419171220181" lon="11.78844802557054"><ele>10.0</ele><time>2026-04-11T15:35:55Z</time></trkpt><trkpt lat="45.29433865415086" lon="11.788472995470071"><ele>9.75</ele><time>2026-04-11T15:35:56Z</time></trkpt><trkpt lat="45.294472699011195" lon="11.788508937427661"><ele>9.5</ele><time>2026-04-11T15:35:57Z</time></trkpt><trkpt lat="45.29461168317814" lon="11.788560495155172"><ele>9.25</ele><time>2026-04-11T15:35:58Z</time></trkpt><trkpt lat="45.294738686337254" lon="11.78862230311586"><ele>9.0</ele><time>2026-04-11T15:35:59Z</time></trkpt><trkpt lat="45.294875926571876" lon="11.788698541332082"><ele>8.666666666666666</ele><time>2026-04-11T15:36:00Z</time></trkpt><trkpt lat="45.29501466334267" lon="11.78879080721048"><ele>8.333333333333332</ele><time>2026-04-11T15:36:01Z</time></trkpt><trkpt lat="45.295160953005166" lon="11.788909746819872"><ele>8.0</ele><time>2026-04-11T15:36:02Z</time></trkpt><trkpt lat="45.295308845594576" lon="11.789046523765052"><ele>8.0</ele><time>2026-04-11T15:36:03Z</time></trkpt><trkpt lat="45.29545273363206" lon="11.789184678524371"><ele>8.0</ele><time>2026-04-11T15:36:04Z</time></trkpt><trkpt lat="45.295594409204064" lon="11.789319027802737"><ele>8.0</ele><time>2026-04-11T15:36:05Z</time></trkpt><trkpt lat="45.29572604724557" lon="11.789450611677896"><ele>8.333333333333332</ele><time>2026-04-11T15:36:06Z</time></trkpt><trkpt lat="45.29585502240788" lon="11.789580374705183"><ele>8.666666666666666</ele><time>2026-04-11T15:36:07Z</time></trkpt><trkpt lat="45.295975810814454" lon="11.789698535910583"><ele>9.0</ele><time>2026-04-11T15:36:08Z</time></trkpt><trkpt lat="45.29609987172151" lon="11.789821613078953"><ele>9.0</ele><time>2026-04-11T15:36:09Z</time></trkpt><trkpt lat="45.29622114207027" lon="11.78993088127039"><ele>9.0</ele><time>2026-04-11T15:36:10Z</time></trkpt><trkpt lat="45.29634781775832" lon="11.790040075385035"><ele>9.0</ele><time>2026-04-11T15:36:11Z</time></trkpt><trkpt lat="45.29646355467351" lon="11.79013150753953"><ele>9.0</ele><time>2026-04-11T15:36:12Z</time></trkpt><trkpt lat="45.296572030616325" lon="11.790215645084782"><ele>9.0</ele><time>2026-04-11T15:36:13Z</time></trkpt><trkpt lat="45.29667386778137" lon="11.790302586396356"><ele>9.0</ele><time>2026-04-11T15:36:14Z</time></trkpt><trkpt lat="45.29678139766411" lon="11.790391782672797"><ele>9.0</ele><time>2026-04-11T15:36:15Z</time></trkpt><trkpt lat="45.296895266941604" lon="11.790486755151756"><ele>9.0</ele><time>2026-04-11T15:36:16Z</time></trkpt><trkpt lat="45.29701182931207" lon="11.790584382852463"><ele>9.0</ele><time>2026-04-11T15:36:17Z</time></trkpt><trkpt lat="45.29713063480504" lon="11.79068220153747"><ele>9.0</ele><time>2026-04-11T15:36:18Z</time></trkpt><trkpt lat="45.2972496176247" lon="11.790781078979776"><ele>9.0</ele><time>2026-04-11T15:36:19Z</time></trkpt><trkpt lat="45.2973714822204" lon="11.790884783101838"><ele>9.0</ele><time>2026-04-11T15:36:20Z</time></trkpt><trkpt lat="45.29749333911022" lon="11.790984865008227"><ele>8.25</ele><time>2026-04-11T15:36:21Z</time></trkpt><trkpt lat="45.29761176276785" lon="11.791077812714937"><ele>7.5</ele><time>2026-04-11T15:36:22Z</time></trkpt><trkpt lat="45.297724101459565" lon="11.79117088637336"><ele>6.75</ele><time>2026-04-11T15:36:23Z</time></trkpt><trkpt lat="45.29783383833678" lon="11.79126163983005"><ele>6.0</ele><time>2026-04-11T15:36:24Z</time></trkpt><trkpt lat="45.29794083728547" lon="11.79135358263516"><ele>6.0</ele><time>2026-04-11T15:36:25Z</time></trkpt><trkpt lat="45.298044516623094" lon="11.79144225173973"><ele>6.0</ele><time>2026-04-11T15:36:26Z</time></trkpt><trkpt lat="45.298144600787175" lon="11.791530125322351"><ele>6.0</ele><time>2026-04-11T15:36:27Z</time></trkpt><trkpt lat="45.29824413957542" lon="11.791620863291566"><ele>6.0</ele><time>2026-04-11T15:36:28Z</time></trkpt><trkpt lat="45.298354652535764" lon="11.791716659196158"><ele>6.0</ele><time>2026-04-11T15:36:29Z</time></trkpt><trkpt lat="45.29848798670338" lon="11.791827953209163"><ele>6.0</ele><time>2026-04-11T15:36:30Z</time></trkpt><trkpt lat="45.298632186293034" lon="11.79194215381532"><ele>6.0</ele><time>2026-04-11T15:36:31Z</time></trkpt><trkpt lat="45.29878611972143" lon="11.792058236601214"><ele>6.333333333333334</ele><time>2026-04-11T15:36:32Z</time></trkpt><trkpt lat="45.298956472939274" lon="11.792185722640186"><ele>6.666666666666667</ele><time>2026-04-11T15:36:33Z</time></trkpt><trkpt lat="45.29912548960147" lon="11.792309275331949"><ele>7.0</ele><time>2026-04-11T15:36:34Z</time></trkpt><trkpt lat="45.29929609743713" lon="11.792433190242573"><ele>7.0</ele><time>2026-04-11T15:36:35Z</time></trkpt><trkpt lat="45.29946908737505" lon="11.792564605951124"><ele>7.0</ele><time>2026-04-11T15:36:36Z</time></trkpt><trkpt lat="45.29965160165462" lon="11.792695589656377"><ele>7.0</ele><time>2026-04-11T15:36:37Z</time></trkpt><trkpt lat="45.29983891201261" lon="11.792825642825179"><ele>6.666666666666667</ele><time>2026-04-11T15:36:38Z</time></trkpt><trkpt lat="45.30002229565284" lon="11.79295320240485"><ele>6.333333333333334</ele><time>2026-04-11T15:36:39Z</time></trkpt><trkpt lat="45.30020471048949" lon="11.793081898950025"><ele>6.0</ele><time>2026-04-11T15:36:40Z</time></trkpt><trkpt lat="45.30039186507132" lon="11.793210452266354"><ele>6.0</ele><time>2026-04-11T15:36:41Z</time></trkpt><trkpt lat="45.30058081928042" lon="11.793343073215171"><ele>6.0</ele><time>2026-04-11T15:36:42Z</time></trkpt><trkpt lat="45.30076368007432" lon="11.793469624902658"><ele>6.0</ele><time>2026-04-11T15:36:43Z</time></trkpt><trkpt lat="45.30095598537163" lon="11.793604883537887"><ele>6.0</ele><time>2026-04-11T15:36:44Z</time></trkpt><trkpt lat="45.301146620738095" lon="11.793734233346779"><ele>6.0</ele><time>2026-04-11T15:36:45Z</time></trkpt><trkpt lat="45.30134022566576" lon="11.793869247326892"><ele>6.0</ele><time>2026-04-11T15:36:46Z</time></trkpt><trkpt lat="45.30153132492383" lon="11.794000737188755"><ele>6.0</ele><time>2026-04-11T15:36:47Z</time></trkpt><trkpt lat="45.30172400409558" lon="11.79413147349399"><ele>6.0</ele><time>2026-04-11T15:36:48Z</time></trkpt><trkpt lat="45.30192208193479" lon="11.794264540798983"><ele>6.0</ele><time>2026-04-11T15:36:49Z</time></trkpt><trkpt lat="45.30211668653679" lon="11.79439561500368"><ele>6.333333333333334</ele><time>2026-04-11T15:36:50Z</time></trkpt><trkpt lat="45.30231245466815" lon="11.794523799332236"><ele>6.666666666666667</ele><time>2026-04-11T15:36:51Z</time></trkpt><trkpt lat="45.30250963478546" lon="11.79465081263919"><ele>7.0</ele><time>2026-04-11T15:36:52Z</time></trkpt><trkpt lat="45.30270398511159" lon="11.79478273644894"><ele>7.0</ele><time>2026-04-11T15:36:53Z</time></trkpt><trkpt lat="45.302897718278594" lon="11.79491424400352"><ele>7.0</ele><time>2026-04-11T15:36:54Z</time></trkpt><trkpt lat="45.303092943871455" lon="11.79504470268851"><ele>7.0</ele><time>2026-04-11T15:36:55Z</time></trkpt><trkpt lat="45.30328510529327" lon="11.79516684574699"><ele>6.666666666666667</ele><time>2026-04-11T15:36:56Z</time></trkpt><trkpt lat="45.30348230347786" lon="11.795291647815604"><ele>6.333333333333334</ele><time>2026-04-11T15:36:57Z</time></trkpt><trkpt lat="45.30368093952584" lon="11.795415149170939"><ele>6.0</ele><time>2026-04-11T15:36:58Z</time></trkpt><trkpt lat="45.30387370330307" lon="11.795538605011801"><ele>6.0</ele><time>2026-04-11T15:36:59Z</time></trkpt><trkpt lat="45.30407147546186" lon="11.795664924016855"><ele>6.0</ele><time>2026-04-11T15:37:00Z</time></trkpt><trkpt lat="45.30426538613053" lon="11.795786162909073"><ele>6.0</ele><time>2026-04-11T15:37:01Z</time></trkpt><trkpt lat="45.304463680265485" lon="11.795909028241594"><ele>6.0</ele><time>2026-04-11T15:37:02Z</time></trkpt><trkpt lat="45.30466097193074" lon="11.79603370186957"><ele>6.0</ele><time>2026-04-11T15:37:03Z</time></trkpt><trkpt lat="45.30486137968788" lon="11.79616058283357"><ele>6.0</ele><time>2026-04-11T15:37:04Z</time></trkpt><trkpt lat="45.305057066345604" lon="11.796288027105886"><ele>6.0</ele><time>2026-04-11T15:37:05Z</time></trkpt><trkpt lat="45.30525516983243" lon="11.796418030409736"><ele>6.0</ele><time>2026-04-11T15:37:06Z</time></trkpt><trkpt lat="45.3054519526454" lon="11.79655003291618"><ele>6.0</ele><time>2026-04-11T15:37:07Z</time></trkpt><trkpt lat="45.30564524539057" lon="11.79668598287586"><ele>6.0</ele><time>2026-04-11T15:37:08Z</time></trkpt><trkpt lat="45.305839861300846" lon="11.796822601622141"><ele>6.0</ele><time>2026-04-11T15:37:09Z</time></trkpt><trkpt lat="45.3060368176495" lon="11.796958740175212"><ele>6.0</ele><time>2026-04-11T15:37:10Z</time></trkpt><trkpt lat="45.306231584068215" lon="11.797092234574102"><ele>5.666666666666667</ele><time>2026-04-11T15:37:11Z</time></trkpt><trkpt lat="45.306426930173515" lon="11.797223341032511"><ele>5.333333333333334</ele><time>2026-04-11T15:37:12Z</time></trkpt><trkpt lat="45.306626330610825" lon="11.797356046968138"><ele>5.0</ele><time>2026-04-11T15:37:13Z</time></trkpt><trkpt lat="45.30682480647308" lon="11.79748378090081"><ele>5.0</ele><time>2026-04-11T15:37:14Z</time></trkpt><trkpt lat="45.30702021130158" lon="11.79761376676133"><ele>5.0</ele><time>2026-04-11T15:37:15Z</time></trkpt><trkpt lat="45.30721751671555" lon="11.79774353006986"><ele>5.0</ele><time>2026-04-11T15:37:16Z</time></trkpt><trkpt lat="45.30741338239468" lon="11.79787507997126"><ele>5.0</ele><time>2026-04-11T15:37:17Z</time></trkpt><trkpt lat="45.3076098792323" lon="11.798004688959088"><ele>5.0</ele><time>2026-04-11T15:37:18Z</time></trkpt><trkpt lat="45.30780521467907" lon="11.798133507862477"><ele>5.0</ele><time>2026-04-11T15:37:19Z</time></trkpt><trkpt lat="45.3080028938599" lon="11.798263360887292"><ele>5.0</ele><time>2026-04-11T15:37:20Z</time></trkpt><trkpt lat="45.30819965258942" lon="11.798392149583277"><ele>5.0</ele><time>2026-04-11T15:37:21Z</time></trkpt><trkpt lat="45.30839386884582" lon="11.798524917016852"><ele>5.0</ele><time>2026-04-11T15:37:22Z</time></trkpt><trkpt lat="45.30858983151962" lon="11.79866135433088"><ele>4.666666666666667</ele><time>2026-04-11T15:37:23Z</time></trkpt><trkpt lat="45.30878066914128" lon="11.79880284604082"><ele>4.333333333333333</ele><time>2026-04-11T15:37:24Z</time></trkpt><trkpt lat="45.30897587692161" lon="11.79894862955461"><ele>4.0</ele><time>2026-04-11T15:37:25Z</time></trkpt><trkpt lat="45.30916482826914" lon="11.799095142022175"><ele>5.333333333333333</ele><time>2026-04-11T15:37:26Z</time></trkpt><trkpt lat="45.30935806518171" lon="11.799242229877576"><ele>6.666666666666666</ele><time>2026-04-11T15:37:27Z</time></trkpt><trkpt lat="45.309545431473346" lon="11.799391451645711"><ele>8.0</ele><time>2026-04-11T15:37:28Z</time></trkpt><trkpt lat="45.309735340137415" lon="11.799539703392076"><ele>8.0</ele><time>2026-04-11T15:37:29Z</time></trkpt><trkpt lat="45.30992175116301" lon="11.79968647954685"><ele>8.0</ele><time>2026-04-11T15:37:30Z</time></trkpt><trkpt lat="45.3100995890256" lon="11.799819530683191"><ele>8.0</ele><time>2026-04-11T15:37:31Z</time></trkpt><trkpt lat="45.31026102363837" lon="11.799944442113222"><ele>8.0</ele><time>2026-04-11T15:37:32Z</time></trkpt><trkpt lat="45.310405344245" lon="11.800063628880752"><ele>8.0</ele><time>2026-04-11T15:37:33Z</time></trkpt><trkpt lat="45.31054862054823" lon="11.800179663259133"><ele>8.0</ele><time>2026-04-11T15:37:34Z</time></trkpt><trkpt lat="45.31068013633075" lon="11.800283775664735"><ele>7.25</ele><time>2026-04-11T15:37:35Z</time></trkpt><trkpt lat="45.310804410005495" lon="11.800387869899863"><ele>6.5</ele><time>2026-04-11T15:37:36Z</time></trkpt><trkpt lat="45.310920465757796" lon="11.80048776946843"><ele>5.75</ele><time>2026-04-11T15:37:37Z</time></trkpt><trkpt lat="45.311042368920994" lon="11.800596621601763"><ele>5.0</ele><time>2026-04-11T15:37:38Z</time></trkpt><trkpt lat="45.31117154081173" lon="11.80071264264556"><ele>5.0</ele><time>2026-04-11T15:37:39Z</time></trkpt><trkpt lat="45.31129761634095" lon="11.80082655591365"><ele>5.0</ele><time>2026-04-11T15:37:40Z</time></trkpt><trkpt lat="45.31143167267551" lon="11.800945344885651"><ele>5.0</ele><time>2026-04-11T15:37:41Z</time></trkpt><trkpt lat="45.31156730307993" lon="11.801061373865691"><ele>6.0</ele><time>2026-04-11T15:37:42Z</time></trkpt><trkpt lat="45.311709547421415" lon="11.801178168647205"><ele>7.0</ele><time>2026-04-11T15:37:43Z</time></trkpt><trkpt lat="45.31184800499032" lon="11.801292647063303"><ele>8.0</ele><time>2026-04-11T15:37:44Z</time></trkpt><trkpt lat="45.31199502341379" lon="11.801422069790261"><ele>8.0</ele><time>2026-04-11T15:37:45Z</time></trkpt><trkpt lat="45.312141255592714" lon="11.801549915714679"><ele>8.0</ele><time>2026-04-11T15:37:46Z</time></trkpt><trkpt lat="45.312292152428086" lon="11.80168103101071"><ele>8.0</ele><time>2026-04-11T15:37:47Z</time></trkpt><trkpt lat="45.3124406413464" lon="11.801809732809112"><ele>7.666666666666666</ele><time>2026-04-11T15:37:48Z</time></trkpt><trkpt lat="45.31259487089187" lon="11.80194506048658"><ele>7.333333333333334</ele><time>2026-04-11T15:37:49Z</time></trkpt><trkpt lat="45.31273695550851" lon="11.802071203260892"><ele>7.0</ele><time>2026-04-11T15:37:50Z</time></trkpt><trkpt lat="45.31287739767967" lon="11.802192775592403"><ele>7.0</ele><time>2026-04-11T15:37:51Z</time></trkpt><trkpt lat="45.31301356109649" lon="11.802311701732739"><ele>7.0</ele><time>2026-04-11T15:37:52Z</time></trkpt><trkpt lat="45.31315170144566" lon="11.802429151139545"><ele>7.0</ele><time>2026-04-11T15:37:53Z</time></trkpt><trkpt lat="45.313296797073185" lon="11.802557614098994"><ele>7.0</ele><time>2026-04-11T15:37:54Z</time></trkpt><trkpt lat="45.313425562913395" lon="11.802666342691314"><ele>7.0</ele><time>2026-04-11T15:37:55Z</time></trkpt><trkpt lat="45.313557352694936" lon="11.80277349319548"><ele>7.0</ele><time>2026-04-11T15:37:56Z</time></trkpt><trkpt lat="45.31369293218634" lon="11.802878781890774"><ele>7.0</ele><time>2026-04-11T15:37:57Z</time></trkpt><trkpt lat="45.3138281339757" lon="11.80298031208627"><ele>7.0</ele><time>2026-04-11T15:37:58Z</time></trkpt><trkpt lat="45.31395932934201" lon="11.803080341331436"><ele>7.0</ele><time>2026-04-11T15:37:59Z</time></trkpt><trkpt lat="45.3140881703113" lon="11.80318662203225"><ele>7.0</ele><time>2026-04-11T15:38:00Z</time></trkpt><trkpt lat="45.314218715264396" lon="11.80329832265229"><ele>7.0</ele><time>2026-04-11T15:38:01Z</time></trkpt><trkpt lat="45.31434181082642" lon="11.803412289481159"><ele>7.0</ele><time>2026-04-11T15:38:02Z</time></trkpt><trkpt lat="45.31446654998323" lon="11.80353172649177"><ele>7.0</ele><time>2026-04-11T15:38:03Z</time></trkpt><trkpt lat="45.31459480861724" lon="11.803647944450908"><ele>7.0</ele><time>2026-04-11T15:38:04Z</time></trkpt><trkpt lat="45.31472298776421" lon="11.80376626948808"><ele>7.0</ele><time>2026-04-11T15:38:05Z</time></trkpt><trkpt lat="45.3148525958281" lon="11.803884323145184"><ele>7.333333333333334</ele><time>2026-04-11T15:38:06Z</time></trkpt><trkpt lat="45.31498193641032" lon="11.804010300139103"><ele>7.666666666666666</ele><time>2026-04-11T15:38:07Z</time></trkpt><trkpt lat="45.31510101224598" lon="11.80414388733097"><ele>8.0</ele><time>2026-04-11T15:38:08Z</time></trkpt><trkpt lat="45.315218997943234" lon="11.80429760898898"><ele>7.666666666666666</ele><time>2026-04-11T15:38:09Z</time></trkpt><trkpt lat="45.315320641297525" lon="11.804465215699107"><ele>7.333333333333334</ele><time>2026-04-11T15:38:10Z</time></trkpt><trkpt lat="45.31541035527406" lon="11.804644772418474"><ele>7.0</ele><time>2026-04-11T15:38:11Z</time></trkpt><trkpt lat="45.31549697301505" lon="11.80482247447792"><ele>7.0</ele><time>2026-04-11T15:38:12Z</time></trkpt><trkpt lat="45.315584321700605" lon="11.804995601409127"><ele>7.0</ele><time>2026-04-11T15:38:13Z</time></trkpt><trkpt lat="45.31568209473919" lon="11.805173828012169"><ele>7.0</ele><time>2026-04-11T15:38:14Z</time></trkpt><trkpt lat="45.31578158175606" lon="11.805336779827496"><ele>7.0</ele><time>2026-04-11T15:38:15Z</time></trkpt><trkpt lat="45.31587854755549" lon="11.80548926179703"><ele>7.0</ele><time>2026-04-11T15:38:16Z</time></trkpt><trkpt lat="45.315982620981195" lon="11.805651467056679"><ele>7.0</ele><time>2026-04-11T15:38:17Z</time></trkpt><trkpt lat="45.316095459813546" lon="11.805800527938281"><ele>7.0</ele><time>2026-04-11T15:38:18Z</time></trkpt><trkpt lat="45.316225932090674" lon="11.805943040355837"><ele>7.0</ele><time>2026-04-11T15:38:19Z</time></trkpt><trkpt lat="45.31637277206136" lon="11.806085366750347"><ele>7.0</ele><time>2026-04-11T15:38:20Z</time></trkpt><trkpt lat="45.316533509113384" lon="11.806220414190124"><ele>6.666666666666667</ele><time>2026-04-11T15:38:21Z</time></trkpt><trkpt lat="45.31671733712717" lon="11.80635029904145"><ele>6.333333333333334</ele><time>2026-04-11T15:38:22Z</time></trkpt><trkpt lat="45.31690538032456" lon="11.806468953360108"><ele>6.0</ele><time>2026-04-11T15:38:23Z</time></trkpt><trkpt lat="45.31711295537878" lon="11.806582257313758"><ele>7.5</ele><time>2026-04-11T15:38:24Z</time></trkpt><trkpt lat="45.31732951088805" lon="11.80669713251662"><ele>9.0</ele><time>2026-04-11T15:38:25Z</time></trkpt><trkpt lat="45.31755430242506" lon="11.806815496507904"><ele>8.5</ele><time>2026-04-11T15:38:26Z</time></trkpt><trkpt lat="45.31778318155756" lon="11.806929019046141"><ele>8.0</ele><time>2026-04-11T15:38:27Z</time></trkpt><trkpt lat="45.31800356253842" lon="11.807039957255832"><ele>7.333333333333333</ele><time>2026-04-11T15:38:28Z</time></trkpt><trkpt lat="45.318206502803605" lon="11.807140449017663"><ele>6.666666666666666</ele><time>2026-04-11T15:38:29Z</time></trkpt><trkpt lat="45.3184015815613" lon="11.807242487379158"><ele>6.0</ele><time>2026-04-11T15:38:30Z</time></trkpt><trkpt lat="45.318585573541405" lon="11.807346041026642"><ele>6.0</ele><time>2026-04-11T15:38:31Z</time></trkpt><trkpt lat="45.31876896632657" lon="11.807460924555347"><ele>6.0</ele><time>2026-04-11T15:38:32Z</time></trkpt><trkpt lat="45.31894901603355" lon="11.807579020975913"><ele>6.0</ele><time>2026-04-11T15:38:33Z</time></trkpt><trkpt lat="45.31912588962642" lon="11.807707522186009"><ele>6.0</ele><time>2026-04-11T15:38:34Z</time></trkpt><trkpt lat="45.31930356628983" lon="11.807846736874348"><ele>6.0</ele><time>2026-04-11T15:38:35Z</time></trkpt><trkpt lat="45.319456538273236" lon="11.808002567175718"><ele>6.0</ele><time>2026-04-11T15:38:36Z</time></trkpt><trkpt lat="45.31960147798549" lon="11.80812699080443"><ele>6.333333333333334</ele><time>2026-04-11T15:38:37Z</time></trkpt><trkpt lat="45.31973762286979" lon="11.808241378243347"><ele>6.666666666666667</ele><time>2026-04-11T15:38:38Z</time></trkpt><trkpt lat="45.31987633423346" lon="11.808334713080372"><ele>7.0</ele><time>2026-04-11T15:38:39Z</time></trkpt><trkpt lat="45.32010370977493" lon="11.80853917982789"><ele>7.0</ele><time>2026-04-11T15:38:41Z</time></trkpt><trkpt lat="45.320211403709195" lon="11.808634039776363"><ele>6.999999999999999</ele><time>2026-04-11T15:38:42Z</time></trkpt><trkpt lat="45.32031016473505" lon="11.808720609769507"><ele>6.999999999999999</ele><time>2026-04-11T15:38:43Z</time></trkpt><trkpt lat="45.32040063854003" lon="11.80880534558788"><ele>7.0</ele><time>2026-04-11T15:38:44Z</time></trkpt><trkpt lat="45.32047751058445" lon="11.808876931108475"><ele>7.0</ele><time>2026-04-11T15:38:45Z</time></trkpt><trkpt lat="45.320543899406765" lon="11.808943248379043"><ele>6.833333333333334</ele><time>2026-04-11T15:38:46Z</time></trkpt><trkpt lat="45.320606459125734" lon="11.809007923913112"><ele>6.666666666666667</ele><time>2026-04-11T15:38:47Z</time></trkpt><trkpt lat="45.32066514925398" lon="11.80907581952776"><ele>6.5</ele><time>2026-04-11T15:38:48Z</time></trkpt><trkpt lat="45.32072893944111" lon="11.80914169987228"><ele>6.333333333333334</ele><time>2026-04-11T15:38:49Z</time></trkpt><trkpt lat="45.32079279396982" lon="11.809201517289045"><ele>6.166666666666667</ele><time>2026-04-11T15:38:50Z</time></trkpt><trkpt lat="45.32085934982473" lon="11.809266375074765"><ele>6.0</ele><time>2026-04-11T15:38:51Z</time></trkpt><trkpt lat="45.32092402321299" lon="11.809325733135706"><ele>6.0</ele><time>2026-04-11T15:38:52Z</time></trkpt><trkpt lat="45.320988011559244" lon="11.809387342714055"><ele>6.0</ele><time>2026-04-11T15:38:53Z</time></trkpt><trkpt lat="45.3210508427556" lon="11.80944068964683"><ele>6.0</ele><time>2026-04-11T15:38:54Z</time></trkpt><trkpt lat="45.32111392098413" lon="11.809495472742732"><ele>6.0</ele><time>2026-04-11T15:38:55Z</time></trkpt><trkpt lat="45.321177066786305" lon="11.809549344507237"><ele>6.0</ele><time>2026-04-11T15:38:56Z</time></trkpt><trkpt lat="45.32124128342339" lon="11.809608049597555"><ele>6.0</ele><time>2026-04-11T15:38:57Z</time></trkpt><trkpt lat="45.32130710444154" lon="11.809669732721575"><ele>6.0</ele><time>2026-04-11T15:38:58Z</time></trkpt><trkpt lat="45.32137414675322" lon="11.80973038615344"><ele>6.0</ele><time>2026-04-11T15:38:59Z</time></trkpt><trkpt lat="45.321439999595626" lon="11.809785952864528"><ele>6.0</ele><time>2026-04-11T15:39:00Z</time></trkpt><trkpt lat="45.321504578944584" lon="11.809839978303172"><ele>6.0</ele><time>2026-04-11T15:39:01Z</time></trkpt><trkpt lat="45.32157332805935" lon="11.809899173576174"><ele>6.0</ele><time>2026-04-11T15:39:02Z</time></trkpt><trkpt lat="45.32164593725321" lon="11.809964456567918"><ele>6.0</ele><time>2026-04-11T15:39:03Z</time></trkpt><trkpt lat="45.32171362191257" lon="11.810026545665954"><ele>6.333333333333333</ele><time>2026-04-11T15:39:04Z</time></trkpt><trkpt lat="45.321783567189485" lon="11.810090283447378"><ele>6.666666666666666</ele><time>2026-04-11T15:39:05Z</time></trkpt><trkpt lat="45.3218530578374" lon="11.810152584414352"><ele>7.0</ele><time>2026-04-11T15:39:06Z</time></trkpt><trkpt lat="45.32192301920285" lon="11.810212250014114"><ele>7.333333333333333</ele><time>2026-04-11T15:39:07Z</time></trkpt><trkpt lat="45.321992673814634" lon="11.810274063114237"><ele>7.666666666666666</ele><time>2026-04-11T15:39:08Z</time></trkpt><trkpt lat="45.32206678644103" lon="11.810339939075307"><ele>8.0</ele><time>2026-04-11T15:39:09Z</time></trkpt><trkpt lat="45.32214095292621" lon="11.810409931203841"><ele>7.999999999999999</ele><time>2026-04-11T15:39:10Z</time></trkpt><trkpt lat="45.32221952636874" lon="11.810481621428108"><ele>8.0</ele><time>2026-04-11T15:39:11Z</time></trkpt><trkpt lat="45.32230291250325" lon="11.810555038731147"><ele>8.0</ele><time>2026-04-11T15:39:12Z</time></trkpt><trkpt lat="45.32238399640543" lon="11.810621034638384"><ele>8.0</ele><time>2026-04-11T15:39:13Z</time></trkpt><trkpt lat="45.322456923187694" lon="11.810681518521008"><ele>7.999999999999999</ele><time>2026-04-11T15:39:14Z</time></trkpt><trkpt lat="45.32252609223561" lon="11.810737518961268"><ele>8.0</ele><time>2026-04-11T15:39:15Z</time></trkpt><trkpt lat="45.32259209939773" lon="11.810793398607647"><ele>8.5</ele><time>2026-04-11T15:39:16Z</time></trkpt><trkpt lat="45.32265361975104" lon="11.810919312956218"><ele>9.0</ele><time>2026-04-11T15:39:18Z</time></trkpt><trkpt lat="45.32258581391102" lon="11.811098263656808"><ele>9.5</ele><time>2026-04-11T15:39:20Z</time></trkpt><trkpt lat="45.32253191147535" lon="11.811223118366089"><ele>10.0</ele><time>2026-04-11T15:39:21Z</time></trkpt><trkpt lat="45.322480317588415" lon="11.811383280048705"><ele>10.0</ele><time>2026-04-11T15:39:22Z</time></trkpt><trkpt lat="45.322419568744436" lon="11.811552509833666"><ele>10.0</ele><time>2026-04-11T15:39:23Z</time></trkpt><trkpt lat="45.32235730511906" lon="11.81172494953007"><ele>10.0</ele><time>2026-04-11T15:39:24Z</time></trkpt><trkpt lat="45.322287517329706" lon="11.81191551416113"><ele>10.0</ele><time>2026-04-11T15:39:25Z</time></trkpt><trkpt lat="45.32221619323587" lon="11.812119039427929"><ele>10.0</ele><time>2026-04-11T15:39:26Z</time></trkpt><trkpt lat="45.32214748886579" lon="11.812321383552169"><ele>10.0</ele><time>2026-04-11T15:39:27Z</time></trkpt><trkpt lat="45.32208377925957" lon="11.812513820389071"><ele>10.0</ele><time>2026-04-11T15:39:28Z</time></trkpt><trkpt lat="45.32201652104728" lon="11.812707502827108"><ele>9.25</ele><time>2026-04-11T15:39:29Z</time></trkpt><trkpt lat="45.32195141108033" lon="11.812895611342258"><ele>8.5</ele><time>2026-04-11T15:39:30Z</time></trkpt><trkpt lat="45.321888647181375" lon="11.813082646504915"><ele>7.75</ele><time>2026-04-11T15:39:31Z</time></trkpt><trkpt lat="45.32182233073406" lon="11.81327588125931"><ele>7.0</ele><time>2026-04-11T15:39:32Z</time></trkpt><trkpt lat="45.321755973851" lon="11.813468833082192"><ele>6.75</ele><time>2026-04-11T15:39:33Z</time></trkpt><trkpt lat="45.32169139849833" lon="11.813650372134681"><ele>6.5</ele><time>2026-04-11T15:39:34Z</time></trkpt><trkpt lat="45.3216330083581" lon="11.813824157191434"><ele>6.25</ele><time>2026-04-11T15:39:35Z</time></trkpt><trkpt lat="45.32157219211065" lon="11.814004415553477"><ele>6.0</ele><time>2026-04-11T15:39:36Z</time></trkpt><trkpt lat="45.32151617309571" lon="11.814179166540509"><ele>5.75</ele><time>2026-04-11T15:39:37Z</time></trkpt><trkpt lat="45.32145547874451" lon="11.814357935635398"><ele>5.5</ele><time>2026-04-11T15:39:38Z</time></trkpt><trkpt lat="45.32139394977945" lon="11.814534682618959"><ele>5.25</ele><time>2026-04-11T15:39:39Z</time></trkpt><trkpt lat="45.32133173504586" lon="11.814711036114455"><ele>5.0</ele><time>2026-04-11T15:39:40Z</time></trkpt><trkpt lat="45.32127032235404" lon="11.814884266729571"><ele>6.0</ele><time>2026-04-11T15:39:41Z</time></trkpt><trkpt lat="45.32121074905857" lon="11.815055770451544"><ele>7.0</ele><time>2026-04-11T15:39:42Z</time></trkpt><trkpt lat="45.32115099502268" lon="11.815224020100212"><ele>8.0</ele><time>2026-04-11T15:39:43Z</time></trkpt><trkpt lat="45.32108683288934" lon="11.81539831881406"><ele>9.0</ele><time>2026-04-11T15:39:44Z</time></trkpt><trkpt lat="45.321015976955444" lon="11.81557520903878"><ele>9.0</ele><time>2026-04-11T15:39:45Z</time></trkpt><trkpt lat="45.320931073239045" lon="11.815751447939345"><ele>9.0</ele><time>2026-04-11T15:39:46Z</time></trkpt><trkpt lat="45.32083437672802" lon="11.815919090508233"><ele>9.0</ele><time>2026-04-11T15:39:47Z</time></trkpt><trkpt lat="45.320730656479434" lon="11.81607128956472"><ele>8.75</ele><time>2026-04-11T15:39:48Z</time></trkpt><trkpt lat="45.32063687988683" lon="11.816197390716637"><ele>8.5</ele><time>2026-04-11T15:39:49Z</time></trkpt><trkpt lat="45.320550997008986" lon="11.816315466284196"><ele>8.25</ele><time>2026-04-11T15:39:50Z</time></trkpt><trkpt lat="45.32047038275556" lon="11.816430136865401"><ele>8.0</ele><time>2026-04-11T15:39:51Z</time></trkpt><trkpt lat="45.3203910937875" lon="11.816542847954368"><ele>8.0</ele><time>2026-04-11T15:39:52Z</time></trkpt><trkpt lat="45.320309410138506" lon="11.816658234028681"><ele>8.0</ele><time>2026-04-11T15:39:53Z</time></trkpt><trkpt lat="45.320225883032684" lon="11.816774653346815"><ele>8.0</ele><time>2026-04-11T15:39:54Z</time></trkpt><trkpt lat="45.32013682784097" lon="11.816905876826514"><ele>8.0</ele><time>2026-04-11T15:39:55Z</time></trkpt><trkpt lat="45.320037398466106" lon="11.817055805356082"><ele>8.0</ele><time>2026-04-11T15:39:56Z</time></trkpt><trkpt lat="45.31994098886127" lon="11.817219015007078"><ele>8.0</ele><time>2026-04-11T15:39:57Z</time></trkpt><trkpt lat="45.319857833653735" lon="11.817402986480685"><ele>8.0</ele><time>2026-04-11T15:39:58Z</time></trkpt><trkpt lat="45.31978645434811" lon="11.81760429860331"><ele>8.0</ele><time>2026-04-11T15:39:59Z</time></trkpt><trkpt lat="45.31972205598565" lon="11.81780589853397"><ele>8.0</ele><time>2026-04-11T15:40:00Z</time></trkpt><trkpt lat="45.31967463049156" lon="11.81800240166166"><ele>8.0</ele><time>2026-04-11T15:40:01Z</time></trkpt><trkpt lat="45.31964031022475" lon="11.81820632880706"><ele>8.0</ele><time>2026-04-11T15:40:02Z</time></trkpt><trkpt lat="45.31961690446082" lon="11.818399608381672"><ele>7.75</ele><time>2026-04-11T15:40:03Z</time></trkpt><trkpt lat="45.31960424260852" lon="11.818593536256985"><ele>7.5</ele><time>2026-04-11T15:40:04Z</time></trkpt><trkpt lat="45.31960036340499" lon="11.818785691394092"><ele>7.25</ele><time>2026-04-11T15:40:05Z</time></trkpt><trkpt lat="45.319605734204224" lon="11.818984009041417"><ele>7.0</ele><time>2026-04-11T15:40:06Z</time></trkpt><trkpt lat="45.319623391983214" lon="11.819179528838195"><ele>7.0</ele><time>2026-04-11T15:40:07Z</time></trkpt><trkpt lat="45.31965292984251" lon="11.819376307319462"><ele>7.0</ele><time>2026-04-11T15:40:08Z</time></trkpt><trkpt lat="45.31969509304267" lon="11.819581577031707"><ele>7.0</ele><time>2026-04-11T15:40:09Z</time></trkpt><trkpt lat="45.31974800152863" lon="11.81978038517806"><ele>7.0</ele><time>2026-04-11T15:40:10Z</time></trkpt><trkpt lat="45.31981187979548" lon="11.819964319851945"><ele>7.0</ele><time>2026-04-11T15:40:11Z</time></trkpt><trkpt lat="45.31989141305846" lon="11.820143160231614"><ele>7.0</ele><time>2026-04-11T15:40:12Z</time></trkpt><trkpt lat="45.31997608527549" lon="11.82031859516618"><ele>7.0</ele><time>2026-04-11T15:40:13Z</time></trkpt><trkpt lat="45.320058904728356" lon="11.820487779928248"><ele>7.0</ele><time>2026-04-11T15:40:14Z</time></trkpt><trkpt lat="45.32014453540338" lon="11.820659139713804"><ele>6.75</ele><time>2026-04-11T15:40:15Z</time></trkpt><trkpt lat="45.3202249996331" lon="11.820820518290216"><ele>6.5</ele><time>2026-04-11T15:40:16Z</time></trkpt><trkpt lat="45.320305660454935" lon="11.820973306331679"><ele>6.25</ele><time>2026-04-11T15:40:17Z</time></trkpt><trkpt lat="45.320376292857176" lon="11.82112066959602"><ele>6.0</ele><time>2026-04-11T15:40:18Z</time></trkpt><trkpt lat="45.32044674827073" lon="11.821265718206174"><ele>6.199999999999999</ele><time>2026-04-11T15:40:19Z</time></trkpt><trkpt lat="45.320518947958384" lon="11.82140967670765"><ele>6.3999999999999995</ele><time>2026-04-11T15:40:20Z</time></trkpt><trkpt lat="45.320584387499565" lon="11.821541701912716"><ele>6.6</ele><time>2026-04-11T15:40:21Z</time></trkpt><trkpt lat="45.32064745022922" lon="11.821667777746294"><ele>6.8</ele><time>2026-04-11T15:40:22Z</time></trkpt><trkpt lat="45.3207038322541" lon="11.821787345554648"><ele>7.0</ele><time>2026-04-11T15:40:23Z</time></trkpt><trkpt lat="45.32075546190208" lon="11.82190018521952"><ele>7.166666666666667</ele><time>2026-04-11T15:40:24Z</time></trkpt><trkpt lat="45.32079847700671" lon="11.821987393920976"><ele>7.333333333333334</ele><time>2026-04-11T15:40:25Z</time></trkpt><trkpt lat="45.32083835185384" lon="11.822064362929716"><ele>7.5</ele><time>2026-04-11T15:40:26Z</time></trkpt><trkpt lat="45.32088626399253" lon="11.822160060476705"><ele>7.666666666666666</ele><time>2026-04-11T15:40:27Z</time></trkpt><trkpt lat="45.3209429832839" lon="11.822270800527775"><ele>7.833333333333333</ele><time>2026-04-11T15:40:28Z</time></trkpt><trkpt lat="45.32100403976023" lon="11.822397290026432"><ele>8.0</ele><time>2026-04-11T15:40:29Z</time></trkpt><trkpt lat="45.32107379997033" lon="11.822540084952447"><ele>8.0</ele><time>2026-04-11T15:40:30Z</time></trkpt><trkpt lat="45.32114787133599" lon="11.822696465788825"><ele>8.0</ele><time>2026-04-11T15:40:31Z</time></trkpt><trkpt lat="45.32122324885629" lon="11.822855016505626"><ele>8.0</ele><time>2026-04-11T15:40:32Z</time></trkpt><trkpt lat="45.32129249616987" lon="11.82301642698754"><ele>8.0</ele><time>2026-04-11T15:40:33Z</time></trkpt><trkpt lat="45.321360884825914" lon="11.82319831562428"><ele>7.666666666666666</ele><time>2026-04-11T15:40:34Z</time></trkpt><trkpt lat="45.32142485057698" lon="11.82339973881657"><ele>7.333333333333334</ele><time>2026-04-11T15:40:35Z</time></trkpt><trkpt lat="45.32148858311535" lon="11.823630698295803"><ele>7.0</ele><time>2026-04-11T15:40:36Z</time></trkpt><trkpt lat="45.321545932712596" lon="11.823879153011802"><ele>7.0</ele><time>2026-04-11T15:40:37Z</time></trkpt><trkpt lat="45.32160253509479" lon="11.824128022660028"><ele>7.0</ele><time>2026-04-11T15:40:38Z</time></trkpt><trkpt lat="45.32166244110057" lon="11.824360488158746"><ele>7.0</ele><time>2026-04-11T15:40:39Z</time></trkpt><trkpt lat="45.32172754290522" lon="11.82461626940905"><ele>7.0</ele><time>2026-04-11T15:40:40Z</time></trkpt><trkpt lat="45.321798391475504" lon="11.824872804794312"><ele>7.0</ele><time>2026-04-11T15:40:41Z</time></trkpt><trkpt lat="45.32186223068227" lon="11.825126392466045"><ele>7.0</ele><time>2026-04-11T15:40:42Z</time></trkpt><trkpt lat="45.3219235341713" lon="11.825367921167485"><ele>7.0</ele><time>2026-04-11T15:40:43Z</time></trkpt><trkpt lat="45.321983315796174" lon="11.825608526906342"><ele>7.0</ele><time>2026-04-11T15:40:44Z</time></trkpt><trkpt lat="45.32203872689619" lon="11.825836835652783"><ele>7.0</ele><time>2026-04-11T15:40:45Z</time></trkpt><trkpt lat="45.322097722669" lon="11.826068544252555"><ele>6.666666666666667</ele><time>2026-04-11T15:40:46Z</time></trkpt><trkpt lat="45.322161516519955" lon="11.826323248893118"><ele>6.333333333333334</ele><time>2026-04-11T15:40:47Z</time></trkpt><trkpt lat="45.322225243599036" lon="11.826566256195788"><ele>6.0</ele><time>2026-04-11T15:40:48Z</time></trkpt><trkpt lat="45.322291561724406" lon="11.826830816900996"><ele>6.666666666666666</ele><time>2026-04-11T15:40:49Z</time></trkpt><trkpt lat="45.32235858727826" lon="11.827097696298159"><ele>7.333333333333333</ele><time>2026-04-11T15:40:50Z</time></trkpt><trkpt lat="45.32242214590086" lon="11.827350824305237"><ele>8.0</ele><time>2026-04-11T15:40:51Z</time></trkpt><trkpt lat="45.322486958630066" lon="11.827593444739001"><ele>8.0</ele><time>2026-04-11T15:40:52Z</time></trkpt><trkpt lat="45.322551864046005" lon="11.827848709884698"><ele>8.0</ele><time>2026-04-11T15:40:53Z</time></trkpt><trkpt lat="45.32262040419248" lon="11.828101967060169"><ele>8.0</ele><time>2026-04-11T15:40:54Z</time></trkpt><trkpt lat="45.322682052847675" lon="11.828350106368758"><ele>7.666666666666666</ele><time>2026-04-11T15:40:55Z</time></trkpt><trkpt lat="45.32274276290724" lon="11.828594782329922"><ele>7.333333333333334</ele><time>2026-04-11T15:40:56Z</time></trkpt><trkpt lat="45.32280682710925" lon="11.828834210441919"><ele>7.0</ele><time>2026-04-11T15:40:57Z</time></trkpt><trkpt lat="45.32286110559127" lon="11.829088264078129"><ele>6.333333333333334</ele><time>2026-04-11T15:40:58Z</time></trkpt><trkpt lat="45.322909400893366" lon="11.829329471531725"><ele>5.666666666666667</ele><time>2026-04-11T15:40:59Z</time></trkpt><trkpt lat="45.32293893551902" lon="11.829589504505108"><ele>5.0</ele><time>2026-04-11T15:41:00Z</time></trkpt><trkpt lat="45.32296572913982" lon="11.82983535628232"><ele>5.0</ele><time>2026-04-11T15:41:01Z</time></trkpt><trkpt lat="45.322976402992516" lon="11.830096073806335"><ele>5.0</ele><time>2026-04-11T15:41:02Z</time></trkpt><trkpt lat="45.32298223791988" lon="11.830342883563084"><ele>5.0</ele><time>2026-04-11T15:41:03Z</time></trkpt><trkpt lat="45.32298699373543" lon="11.830595484509105"><ele>5.666666666666667</ele><time>2026-04-11T15:41:04Z</time></trkpt><trkpt lat="45.32299117487041" lon="11.830849837258542"><ele>6.333333333333334</ele><time>2026-04-11T15:41:05Z</time></trkpt><trkpt lat="45.323006446134706" lon="11.831084529325027"><ele>7.0</ele><time>2026-04-11T15:41:06Z</time></trkpt><trkpt lat="45.32301532015307" lon="11.831324365966083"><ele>7.0</ele><time>2026-04-11T15:41:07Z</time></trkpt><trkpt lat="45.32302036974297" lon="11.83157702579272"><ele>7.0</ele><time>2026-04-11T15:41:08Z</time></trkpt><trkpt lat="45.32303540814998" lon="11.831823075312125"><ele>7.0</ele><time>2026-04-11T15:41:09Z</time></trkpt><trkpt lat="45.32304691209224" lon="11.832079623567719"><ele>7.0</ele><time>2026-04-11T15:41:10Z</time></trkpt><trkpt lat="45.32305326353853" lon="11.832356366415878"><ele>7.0</ele><time>2026-04-11T15:41:11Z</time></trkpt><trkpt lat="45.3230537503009" lon="11.832630450890191"><ele>7.0</ele><time>2026-04-11T15:41:12Z</time></trkpt><trkpt lat="45.323042196513605" lon="11.83291492201179"><ele>7.333333333333334</ele><time>2026-04-11T15:41:13Z</time></trkpt><trkpt lat="45.323026858216025" lon="11.833200588787326"><ele>7.666666666666666</ele><time>2026-04-11T15:41:14Z</time></trkpt><trkpt lat="45.32299742188039" lon="11.833493254189843"><ele>8.0</ele><time>2026-04-11T15:41:15Z</time></trkpt><trkpt lat="45.32296546754067" lon="11.833787884558973"><ele>8.0</ele><time>2026-04-11T15:41:16Z</time></trkpt><trkpt lat="45.32292539127076" lon="11.83408692536359"><ele>8.0</ele><time>2026-04-11T15:41:17Z</time></trkpt><trkpt lat="45.32289059288248" lon="11.834379354957807"><ele>8.0</ele><time>2026-04-11T15:41:18Z</time></trkpt><trkpt lat="45.32285761032813" lon="11.834667260645473"><ele>8.0</ele><time>2026-04-11T15:41:19Z</time></trkpt><trkpt lat="45.32282523687684" lon="11.834948398440059"><ele>8.0</ele><time>2026-04-11T15:41:20Z</time></trkpt><trkpt lat="45.322781603721175" lon="11.835237283349374"><ele>8.0</ele><time>2026-04-11T15:41:21Z</time></trkpt><trkpt lat="45.32275312463696" lon="11.835514738920022"><ele>8.0</ele><time>2026-04-11T15:41:22Z</time></trkpt><trkpt lat="45.32272126050209" lon="11.835790890769243"><ele>8.0</ele><time>2026-04-11T15:41:23Z</time></trkpt><trkpt lat="45.32268961436154" lon="11.836053264624125"><ele>8.0</ele><time>2026-04-11T15:41:24Z</time></trkpt><trkpt lat="45.32265622803537" lon="11.836314653653307"><ele>8.0</ele><time>2026-04-11T15:41:25Z</time></trkpt><trkpt lat="45.32263602820884" lon="11.836568397901285"><ele>8.0</ele><time>2026-04-11T15:41:26Z</time></trkpt><trkpt lat="45.322602062137705" lon="11.836824987969965"><ele>8.0</ele><time>2026-04-11T15:41:27Z</time></trkpt><trkpt lat="45.32257102992182" lon="11.837079377006608"><ele>7.666666666666666</ele><time>2026-04-11T15:41:28Z</time></trkpt><trkpt lat="45.32254285757645" lon="11.837340909935985"><ele>7.333333333333334</ele><time>2026-04-11T15:41:29Z</time></trkpt><trkpt lat="45.32249894677552" lon="11.837608099973385"><ele>7.0</ele><time>2026-04-11T15:41:30Z</time></trkpt><trkpt lat="45.322452493683144" lon="11.837869088946865"><ele>7.0</ele><time>2026-04-11T15:41:31Z</time></trkpt><trkpt lat="45.3223947375192" lon="11.83813974671236"><ele>7.0</ele><time>2026-04-11T15:41:32Z</time></trkpt><trkpt lat="45.322336019442155" lon="11.838408194816287"><ele>7.0</ele><time>2026-04-11T15:41:33Z</time></trkpt><trkpt lat="45.32227673101265" lon="11.838679843394411"><ele>7.0</ele><time>2026-04-11T15:41:34Z</time></trkpt><trkpt lat="45.32221399629346" lon="11.838954579795544"><ele>7.0</ele><time>2026-04-11T15:41:35Z</time></trkpt><trkpt lat="45.32215703638693" lon="11.83922052618964"><ele>7.0</ele><time>2026-04-11T15:41:36Z</time></trkpt><trkpt lat="45.322099363048544" lon="11.839476100151469"><ele>7.0</ele><time>2026-04-11T15:41:37Z</time></trkpt><trkpt lat="45.32204579210853" lon="11.839720497476856"><ele>7.0</ele><time>2026-04-11T15:41:38Z</time></trkpt><trkpt lat="45.321998114781465" lon="11.839959486342979"><ele>7.0</ele><time>2026-04-11T15:41:39Z</time></trkpt><trkpt lat="45.321941996531244" lon="11.840205051989138"><ele>6.333333333333334</ele><time>2026-04-11T15:41:40Z</time></trkpt><trkpt lat="45.32189233292483" lon="11.840427297529523"><ele>5.666666666666667</ele><time>2026-04-11T15:41:41Z</time></trkpt><trkpt lat="45.32183585105585" lon="11.840666423890793"><ele>5.0</ele><time>2026-04-11T15:41:42Z</time></trkpt><trkpt lat="45.32178465455162" lon="11.840903007146089"><ele>5.0</ele><time>2026-04-11T15:41:43Z</time></trkpt><trkpt lat="45.32173607106187" lon="11.841149821608338"><ele>5.0</ele><time>2026-04-11T15:41:44Z</time></trkpt><trkpt lat="45.321700000306116" lon="11.84139708063603"><ele>5.0</ele><time>2026-04-11T15:41:45Z</time></trkpt><trkpt lat="45.32167412505843" lon="11.84165741731063"><ele>4.666666666666667</ele><time>2026-04-11T15:41:46Z</time></trkpt><trkpt lat="45.32166052010587" lon="11.841930327056604"><ele>4.333333333333333</ele><time>2026-04-11T15:41:47Z</time></trkpt><trkpt lat="45.32165329409538" lon="11.842217776914781"><ele>4.0</ele><time>2026-04-11T15:41:48Z</time></trkpt><trkpt lat="45.321657516695566" lon="11.842490106109077"><ele>4.0</ele><time>2026-04-11T15:41:49Z</time></trkpt><trkpt lat="45.321670340976056" lon="11.842758986892385"><ele>4.0</ele><time>2026-04-11T15:41:50Z</time></trkpt><trkpt lat="45.321685959892136" lon="11.843027736845972"><ele>4.0</ele><time>2026-04-11T15:41:51Z</time></trkpt><trkpt lat="45.321699100116966" lon="11.843290612345427"><ele>4.333333333333333</ele><time>2026-04-11T15:41:52Z</time></trkpt><trkpt lat="45.321709345761455" lon="11.843563262864343"><ele>4.666666666666667</ele><time>2026-04-11T15:41:53Z</time></trkpt><trkpt lat="45.32171929601288" lon="11.84383029647365"><ele>5.0</ele><time>2026-04-11T15:41:54Z</time></trkpt><trkpt lat="45.32173041972813" lon="11.84410402168959"><ele>5.333333333333334</ele><time>2026-04-11T15:41:55Z</time></trkpt><trkpt lat="45.32174366426149" lon="11.844377735687203"><ele>5.666666666666667</ele><time>2026-04-11T15:41:56Z</time></trkpt><trkpt lat="45.321756184145656" lon="11.844645388765072"><ele>6.0</ele><time>2026-04-11T15:41:57Z</time></trkpt><trkpt lat="45.32176247272809" lon="11.844922419422211"><ele>5.666666666666667</ele><time>2026-04-11T15:41:58Z</time></trkpt><trkpt lat="45.32176384546152" lon="11.845192264092148"><ele>5.333333333333334</ele><time>2026-04-11T15:41:59Z</time></trkpt><trkpt lat="45.321749798360514" lon="11.845462898946293"><ele>5.0</ele><time>2026-04-11T15:42:00Z</time></trkpt><trkpt lat="45.32172912051977" lon="11.845721288250635"><ele>5.0</ele><time>2026-04-11T15:42:01Z</time></trkpt><trkpt lat="45.32170148167649" lon="11.845963605188034"><ele>5.0</ele><time>2026-04-11T15:42:02Z</time></trkpt><trkpt lat="45.321658008411625" lon="11.846209171201643"><ele>5.0</ele><time>2026-04-11T15:42:03Z</time></trkpt><trkpt lat="45.32160495018539" lon="11.846450693441264"><ele>5.0</ele><time>2026-04-11T15:42:04Z</time></trkpt><trkpt lat="45.321549339187186" lon="11.84667778742375"><ele>5.0</ele><time>2026-04-11T15:42:05Z</time></trkpt><trkpt lat="45.32149072276304" lon="11.846924745235164"><ele>5.0</ele><time>2026-04-11T15:42:06Z</time></trkpt><trkpt lat="45.321439770472004" lon="11.847167079442645"><ele>5.333333333333334</ele><time>2026-04-11T15:42:07Z</time></trkpt><trkpt lat="45.32139420853962" lon="11.847400364673058"><ele>5.666666666666667</ele><time>2026-04-11T15:42:08Z</time></trkpt><trkpt lat="45.321338218562616" lon="11.847639676220409"><ele>6.0</ele><time>2026-04-11T15:42:09Z</time></trkpt><trkpt lat="45.32128667072777" lon="11.84787288103231"><ele>6.0</ele><time>2026-04-11T15:42:10Z</time></trkpt><trkpt lat="45.32124284770017" lon="11.848103996895851"><ele>6.0</ele><time>2026-04-11T15:42:11Z</time></trkpt><trkpt lat="45.321192247104804" lon="11.848332955807898"><ele>6.0</ele><time>2026-04-11T15:42:12Z</time></trkpt><trkpt lat="45.32114347514417" lon="11.848554848430828"><ele>6.0</ele><time>2026-04-11T15:42:13Z</time></trkpt><trkpt lat="45.3210938481835" lon="11.848782557245876"><ele>6.0</ele><time>2026-04-11T15:42:14Z</time></trkpt><trkpt lat="45.32104011712274" lon="11.84901402906848"><ele>6.0</ele><time>2026-04-11T15:42:15Z</time></trkpt><trkpt lat="45.32098772002221" lon="11.849247031508204"><ele>6.0</ele><time>2026-04-11T15:42:16Z</time></trkpt><trkpt lat="45.320938260012746" lon="11.849478398537807"><ele>6.0</ele><time>2026-04-11T15:42:17Z</time></trkpt><trkpt lat="45.320886767924925" lon="11.849711274353936"><ele>6.0</ele><time>2026-04-11T15:42:18Z</time></trkpt><trkpt lat="45.32083900686423" lon="11.849940328997807"><ele>6.0</ele><time>2026-04-11T15:42:19Z</time></trkpt><trkpt lat="45.320785994157" lon="11.850179300963779"><ele>6.0</ele><time>2026-04-11T15:42:20Z</time></trkpt><trkpt lat="45.32073208827939" lon="11.85041519224184"><ele>6.0</ele><time>2026-04-11T15:42:21Z</time></trkpt><trkpt lat="45.32067800373555" lon="11.85065505332661"><ele>6.0</ele><time>2026-04-11T15:42:22Z</time></trkpt><trkpt lat="45.32062991447042" lon="11.85089306527561"><ele>6.0</ele><time>2026-04-11T15:42:23Z</time></trkpt><trkpt lat="45.32058439751939" lon="11.851124964465841"><ele>6.0</ele><time>2026-04-11T15:42:24Z</time></trkpt><trkpt lat="45.3205349581983" lon="11.851361765743533"><ele>6.0</ele><time>2026-04-11T15:42:25Z</time></trkpt><trkpt lat="45.32048485296944" lon="11.851595748276402"><ele>6.0</ele><time>2026-04-11T15:42:26Z</time></trkpt><trkpt lat="45.32043713167573" lon="11.851823055529483"><ele>6.0</ele><time>2026-04-11T15:42:27Z</time></trkpt><trkpt lat="45.32038967500836" lon="11.852049767772353"><ele>6.0</ele><time>2026-04-11T15:42:28Z</time></trkpt><trkpt lat="45.32034006950318" lon="11.852275223976173"><ele>6.0</ele><time>2026-04-11T15:42:29Z</time></trkpt><trkpt lat="45.32028694082605" lon="11.852493718702414"><ele>6.0</ele><time>2026-04-11T15:42:30Z</time></trkpt><trkpt lat="45.32023240491966" lon="11.852710529741886"><ele>6.0</ele><time>2026-04-11T15:42:31Z</time></trkpt><trkpt lat="45.32017285934051" lon="11.85292323229111"><ele>6.0</ele><time>2026-04-11T15:42:32Z</time></trkpt><trkpt lat="45.32011681131046" lon="11.85313050473187"><ele>6.0</ele><time>2026-04-11T15:42:33Z</time></trkpt><trkpt lat="45.32005781933025" lon="11.853331790998036"><ele>5.75</ele><time>2026-04-11T15:42:34Z</time></trkpt><trkpt lat="45.32000158241352" lon="11.853518894021603"><ele>5.5</ele><time>2026-04-11T15:42:35Z</time></trkpt><trkpt lat="45.31994798456201" lon="11.853701347745622"><ele>5.25</ele><time>2026-04-11T15:42:36Z</time></trkpt><trkpt lat="45.31989622743941" lon="11.853892392878011"><ele>5.0</ele><time>2026-04-11T15:42:37Z</time></trkpt><trkpt lat="45.31984310989418" lon="11.854092973206063"><ele>5.333333333333334</ele><time>2026-04-11T15:42:38Z</time></trkpt><trkpt lat="45.31979181638698" lon="11.854292006037905"><ele>5.666666666666667</ele><time>2026-04-11T15:42:39Z</time></trkpt><trkpt lat="45.319745645206424" lon="11.854497456026538"><ele>6.0</ele><time>2026-04-11T15:42:40Z</time></trkpt><trkpt lat="45.31970591457801" lon="11.854713086762342"><ele>6.333333333333334</ele><time>2026-04-11T15:42:41Z</time></trkpt><trkpt lat="45.31968098453819" lon="11.854932494508697"><ele>6.666666666666667</ele><time>2026-04-11T15:42:42Z</time></trkpt><trkpt lat="45.3196708495379" lon="11.85515901048277"><ele>7.0</ele><time>2026-04-11T15:42:43Z</time></trkpt><trkpt lat="45.31967302836769" lon="11.855385941091697"><ele>7.0</ele><time>2026-04-11T15:42:44Z</time></trkpt><trkpt lat="45.3196925730679" lon="11.855602754744591"><ele>7.0</ele><time>2026-04-11T15:42:45Z</time></trkpt><trkpt lat="45.31972797273654" lon="11.855817986467475"><ele>7.0</ele><time>2026-04-11T15:42:46Z</time></trkpt><trkpt lat="45.31977500904065" lon="11.85602362625255"><ele>7.0</ele><time>2026-04-11T15:42:47Z</time></trkpt><trkpt lat="45.31983261935891" lon="11.856235165927805"><ele>7.0</ele><time>2026-04-11T15:42:48Z</time></trkpt><trkpt lat="45.3198925286906" lon="11.85644817259557"><ele>7.0</ele><time>2026-04-11T15:42:49Z</time></trkpt><trkpt lat="45.319959684483315" lon="11.856656276333894"><ele>6.5</ele><time>2026-04-11T15:42:50Z</time></trkpt><trkpt lat="45.320022082032196" lon="11.856834987846616"><ele>6.0</ele><time>2026-04-11T15:42:51Z</time></trkpt><trkpt lat="45.320084658484994" lon="11.857010711065652"><ele>5.5</ele><time>2026-04-11T15:42:52Z</time></trkpt><trkpt lat="45.32013948756255" lon="11.857187139151504"><ele>5.0</ele><time>2026-04-11T15:42:53Z</time></trkpt><trkpt lat="45.320196012034685" lon="11.85736382530833"><ele>5.0</ele><time>2026-04-11T15:42:54Z</time></trkpt><trkpt lat="45.32025834816288" lon="11.857538200987163"><ele>5.0</ele><time>2026-04-11T15:42:55Z</time></trkpt><trkpt lat="45.32032195894009" lon="11.857712932499025"><ele>5.0</ele><time>2026-04-11T15:42:56Z</time></trkpt><trkpt lat="45.32038340841962" lon="11.85788734426844"><ele>5.0</ele><time>2026-04-11T15:42:57Z</time></trkpt><trkpt lat="45.320437264526284" lon="11.858076544570668"><ele>5.0</ele><time>2026-04-11T15:42:58Z</time></trkpt><trkpt lat="45.32047546810946" lon="11.858259868105048"><ele>5.0</ele><time>2026-04-11T15:42:59Z</time></trkpt><trkpt lat="45.320497689645656" lon="11.858450479133898"><ele>5.0</ele><time>2026-04-11T15:43:00Z</time></trkpt><trkpt lat="45.32050609196226" lon="11.858644319237372"><ele>5.0</ele><time>2026-04-11T15:43:01Z</time></trkpt><trkpt lat="45.32050129246451" lon="11.858851627447274"><ele>5.5</ele><time>2026-04-11T15:43:02Z</time></trkpt><trkpt lat="45.320493426265806" lon="11.859046611565587"><ele>6.0</ele><time>2026-04-11T15:43:03Z</time></trkpt><trkpt lat="45.320483983294054" lon="11.859234949540228"><ele>6.5</ele><time>2026-04-11T15:43:04Z</time></trkpt><trkpt lat="45.3204783732578" lon="11.859412069100749"><ele>7.0</ele><time>2026-04-11T15:43:05Z</time></trkpt><trkpt lat="45.32047198664798" lon="11.859595460120211"><ele>7.0</ele><time>2026-04-11T15:43:06Z</time></trkpt><trkpt lat="45.32046722304959" lon="11.859781108952808"><ele>7.0</ele><time>2026-04-11T15:43:07Z</time></trkpt><trkpt lat="45.3204615345356" lon="11.859970595205725"><ele>7.0</ele><time>2026-04-11T15:43:08Z</time></trkpt><trkpt lat="45.32045641752797" lon="11.86015610386632"><ele>7.0</ele><time>2026-04-11T15:43:09Z</time></trkpt><trkpt lat="45.32044895302503" lon="11.860348112213357"><ele>7.0</ele><time>2026-04-11T15:43:10Z</time></trkpt><trkpt lat="45.320441315188965" lon="11.860547936169818"><ele>7.0</ele><time>2026-04-11T15:43:11Z</time></trkpt><trkpt lat="45.32043337304315" lon="11.860737251406455"><ele>7.0</ele><time>2026-04-11T15:43:12Z</time></trkpt><trkpt lat="45.32042496804596" lon="11.860917161152734"><ele>7.0</ele><time>2026-04-11T15:43:13Z</time></trkpt><trkpt lat="45.32041721560668" lon="11.861080520203299"><ele>7.0</ele><time>2026-04-11T15:43:14Z</time></trkpt><trkpt lat="45.32040971319371" lon="11.861224854199305"><ele>6.999999999999999</ele><time>2026-04-11T15:43:15Z</time></trkpt><trkpt lat="45.32040277854249" lon="11.86136897874837"><ele>6.999999999999999</ele><time>2026-04-11T15:43:16Z</time></trkpt><trkpt lat="45.32040078163707" lon="11.861502866191834"><ele>7.0</ele><time>2026-04-11T15:43:17Z</time></trkpt><trkpt lat="45.32039605431935" lon="11.86162362200073"><ele>7.0</ele><time>2026-04-11T15:43:18Z</time></trkpt><trkpt lat="45.32037964694748" lon="11.861938232008049"><ele>7.166666666666667</ele><time>2026-04-11T15:43:21Z</time></trkpt><trkpt lat="45.320375191378425" lon="11.862098200632273"><ele>7.333333333333334</ele><time>2026-04-11T15:43:23Z</time></trkpt><trkpt lat="45.320368283465776" lon="11.862255406592586"><ele>7.5</ele><time>2026-04-11T15:43:25Z</time></trkpt><trkpt lat="45.320361970344585" lon="11.86234725377729"><ele>7.666666666666666</ele><time>2026-04-11T15:43:26Z</time></trkpt><trkpt lat="45.320358562607375" lon="11.86244979036129"><ele>7.833333333333333</ele><time>2026-04-11T15:43:27Z</time></trkpt><trkpt lat="45.320352237681654" lon="11.862551426925373"><ele>8.0</ele><time>2026-04-11T15:43:28Z</time></trkpt><trkpt lat="45.32034643696979" lon="11.862651734193452"><ele>7.999999999999999</ele><time>2026-04-11T15:43:29Z</time></trkpt><trkpt lat="45.32034453195754" lon="11.86279003442758"><ele>8.0</ele><time>2026-04-11T15:43:31Z</time></trkpt><trkpt lat="45.32035067519254" lon="11.86288587680966"><ele>8.0</ele><time>2026-04-11T15:43:35Z</time></trkpt><trkpt lat="45.3203406022086" lon="11.862993095080835"><ele>8.0</ele><time>2026-04-11T15:43:42Z</time></trkpt><trkpt lat="45.32034151018088" lon="11.863084410718546"><ele>7.999999999999999</ele><time>2026-04-11T15:43:43Z</time></trkpt><trkpt lat="45.32033558267492" lon="11.863183022486997"><ele>8.0</ele><time>2026-04-11T15:43:44Z</time></trkpt><trkpt lat="45.320332998651374" lon="11.863332883022155"><ele>8.200000000000001</ele><time>2026-04-11T15:43:46Z</time></trkpt><trkpt lat="45.320315218693906" lon="11.863510804335572"><ele>8.4</ele><time>2026-04-11T15:43:48Z</time></trkpt><trkpt lat="45.320305204816755" lon="11.86362451004779"><ele>8.600000000000001</ele><time>2026-04-11T15:43:49Z</time></trkpt><trkpt lat="45.32029751287478" lon="11.863763235100166"><ele>8.8</ele><time>2026-04-11T15:43:50Z</time></trkpt><trkpt lat="45.32029638880641" lon="11.86392784424073"><ele>9.0</ele><time>2026-04-11T15:43:51Z</time></trkpt><trkpt lat="45.32029069237573" lon="11.864105411078526"><ele>9.0</ele><time>2026-04-11T15:43:52Z</time></trkpt><trkpt lat="45.32028239660958" lon="11.86428913159223"><ele>9.0</ele><time>2026-04-11T15:43:53Z</time></trkpt><trkpt lat="45.32027322606179" lon="11.864485181130732"><ele>9.0</ele><time>2026-04-11T15:43:54Z</time></trkpt><trkpt lat="45.32026498533972" lon="11.864695972161062"><ele>9.0</ele><time>2026-04-11T15:43:55Z</time></trkpt><trkpt lat="45.32025562614757" lon="11.864918408135729"><ele>8.666666666666666</ele><time>2026-04-11T15:43:56Z</time></trkpt><trkpt lat="45.32024110223264" lon="11.865137520130155"><ele>8.333333333333332</ele><time>2026-04-11T15:43:57Z</time></trkpt><trkpt lat="45.32021570107347" lon="11.865350437074488"><ele>8.0</ele><time>2026-04-11T15:43:58Z</time></trkpt><trkpt lat="45.32018526990555" lon="11.865569873074008"><ele>8.0</ele><time>2026-04-11T15:43:59Z</time></trkpt><trkpt lat="45.320144861034535" lon="11.865790212991032"><ele>8.0</ele><time>2026-04-11T15:44:00Z</time></trkpt><trkpt lat="45.32009437981094" lon="11.866017075931516"><ele>8.0</ele><time>2026-04-11T15:44:01Z</time></trkpt><trkpt lat="45.32003991087643" lon="11.866245869881126"><ele>7.666666666666666</ele><time>2026-04-11T15:44:02Z</time></trkpt><trkpt lat="45.31997918821293" lon="11.866485349515386"><ele>7.333333333333334</ele><time>2026-04-11T15:44:03Z</time></trkpt><trkpt lat="45.31991912388115" lon="11.866732412493565"><ele>7.0</ele><time>2026-04-11T15:44:04Z</time></trkpt><trkpt lat="45.319861400768986" lon="11.866979521040435"><ele>7.333333333333334</ele><time>2026-04-11T15:44:05Z</time></trkpt><trkpt lat="45.319800289995165" lon="11.867243654539816"><ele>7.666666666666666</ele><time>2026-04-11T15:44:06Z</time></trkpt><trkpt lat="45.319742706949924" lon="11.867510881261005"><ele>8.0</ele><time>2026-04-11T15:44:07Z</time></trkpt><trkpt lat="45.3196840538861" lon="11.867749000647622"><ele>8.0</ele><time>2026-04-11T15:44:08Z</time></trkpt><trkpt lat="45.31962952998629" lon="11.86796845470158"><ele>8.0</ele><time>2026-04-11T15:44:09Z</time></trkpt><trkpt lat="45.31958348996813" lon="11.868165565626677"><ele>8.0</ele><time>2026-04-11T15:44:10Z</time></trkpt><trkpt lat="45.31953557383217" lon="11.868348675939977"><ele>8.0</ele><time>2026-04-11T15:44:11Z</time></trkpt><trkpt lat="45.31949579251807" lon="11.868534853001725"><ele>7.75</ele><time>2026-04-11T15:44:12Z</time></trkpt><trkpt lat="45.31945772489689" lon="11.868703254414532"><ele>7.5</ele><time>2026-04-11T15:44:13Z</time></trkpt><trkpt lat="45.31942218130386" lon="11.86886838274161"><ele>7.25</ele><time>2026-04-11T15:44:14Z</time></trkpt><trkpt lat="45.319386116670636" lon="11.86901781284234"><ele>7.0</ele><time>2026-04-11T15:44:15Z</time></trkpt><trkpt lat="45.319348241514206" lon="11.869169850468648"><ele>7.0</ele><time>2026-04-11T15:44:16Z</time></trkpt><trkpt lat="45.31930272304739" lon="11.869340018725165"><ele>7.0</ele><time>2026-04-11T15:44:17Z</time></trkpt><trkpt lat="45.31925685205346" lon="11.869535017827747"><ele>7.0</ele><time>2026-04-11T15:44:18Z</time></trkpt><trkpt lat="45.31920803827974" lon="11.86975935692362"><ele>7.0</ele><time>2026-04-11T15:44:19Z</time></trkpt><trkpt lat="45.319153420936225" lon="11.870002201557515"><ele>7.0</ele><time>2026-04-11T15:44:20Z</time></trkpt><trkpt lat="45.31909017918986" lon="11.870260306912382"><ele>7.0</ele><time>2026-04-11T15:44:21Z</time></trkpt><trkpt lat="45.31901241900619" lon="11.870529760416689"><ele>7.0</ele><time>2026-04-11T15:44:22Z</time></trkpt><trkpt lat="45.31891736889936" lon="11.87080674041517"><ele>6.666666666666667</ele><time>2026-04-11T15:44:23Z</time></trkpt><trkpt lat="45.3188102438476" lon="11.871054640506182"><ele>6.333333333333334</ele><time>2026-04-11T15:44:24Z</time></trkpt><trkpt lat="45.31870115156706" lon="11.871295775538103"><ele>6.0</ele><time>2026-04-11T15:44:25Z</time></trkpt><trkpt lat="45.31858629010981" lon="11.87153990106789"><ele>6.333333333333334</ele><time>2026-04-11T15:44:26Z</time></trkpt><trkpt lat="45.318484006728724" lon="11.8717775599533"><ele>6.666666666666667</ele><time>2026-04-11T15:44:27Z</time></trkpt><trkpt lat="45.31839128561954" lon="11.872009305768982"><ele>7.0</ele><time>2026-04-11T15:44:28Z</time></trkpt><trkpt lat="45.318303104112815" lon="11.872240566013202"><ele>7.0</ele><time>2026-04-11T15:44:29Z</time></trkpt><trkpt lat="45.31823387878821" lon="11.872482502993616"><ele>7.0</ele><time>2026-04-11T15:44:30Z</time></trkpt><trkpt lat="45.3181710985646" lon="11.872736334423562"><ele>7.0</ele><time>2026-04-11T15:44:31Z</time></trkpt><trkpt lat="45.318108861936885" lon="11.872996691276018"><ele>7.333333333333334</ele><time>2026-04-11T15:44:32Z</time></trkpt><trkpt lat="45.31804387107922" lon="11.873264804801694"><ele>7.666666666666666</ele><time>2026-04-11T15:44:33Z</time></trkpt><trkpt lat="45.31798361727079" lon="11.873540687366592"><ele>8.0</ele><time>2026-04-11T15:44:34Z</time></trkpt><trkpt lat="45.317923136802364" lon="11.873817359437997"><ele>7.333333333333333</ele><time>2026-04-11T15:44:35Z</time></trkpt><trkpt lat="45.31786016323192" lon="11.874099857321001"><ele>6.666666666666666</ele><time>2026-04-11T15:44:36Z</time></trkpt><trkpt lat="45.317798661560644" lon="11.874382554029957"><ele>6.0</ele><time>2026-04-11T15:44:37Z</time></trkpt><trkpt lat="45.3177402717292" lon="11.874642894838994"><ele>6.0</ele><time>2026-04-11T15:44:38Z</time></trkpt><trkpt lat="45.31769094477343" lon="11.8748922335824"><ele>6.0</ele><time>2026-04-11T15:44:39Z</time></trkpt><trkpt lat="45.31764002461927" lon="11.87513083330426"><ele>6.0</ele><time>2026-04-11T15:44:40Z</time></trkpt><trkpt lat="45.31759515270524" lon="11.875359911799691"><ele>5.666666666666667</ele><time>2026-04-11T15:44:41Z</time></trkpt><trkpt lat="45.31755592719167" lon="11.875603932100052"><ele>5.333333333333334</ele><time>2026-04-11T15:44:42Z</time></trkpt><trkpt lat="45.3175275383449" lon="11.875850608814577"><ele>5.0</ele><time>2026-04-11T15:44:43Z</time></trkpt><trkpt lat="45.31749855914505" lon="11.876111158581391"><ele>5.0</ele><time>2026-04-11T15:44:44Z</time></trkpt><trkpt lat="45.31746874553541" lon="11.87636061803743"><ele>5.0</ele><time>2026-04-11T15:44:45Z</time></trkpt><trkpt lat="45.31743512391452" lon="11.876623482442943"><ele>5.0</ele><time>2026-04-11T15:44:46Z</time></trkpt><trkpt lat="45.31740307137475" lon="11.876883516738607"><ele>5.0</ele><time>2026-04-11T15:44:47Z</time></trkpt><trkpt lat="45.31737659016201" lon="11.877147778338058"><ele>5.0</ele><time>2026-04-11T15:44:48Z</time></trkpt><trkpt lat="45.317345424720536" lon="11.877405363095502"><ele>5.0</ele><time>2026-04-11T15:44:49Z</time></trkpt><trkpt lat="45.31730916209414" lon="11.87765621648144"><ele>5.333333333333334</ele><time>2026-04-11T15:44:50Z</time></trkpt><trkpt lat="45.3172727919388" lon="11.877893515859467"><ele>5.666666666666667</ele><time>2026-04-11T15:44:51Z</time></trkpt><trkpt lat="45.31722581662103" lon="11.87810511281163"><ele>6.0</ele><time>2026-04-11T15:44:52Z</time></trkpt><trkpt lat="45.31717632805834" lon="11.878302652707616"><ele>6.0</ele><time>2026-04-11T15:44:53Z</time></trkpt><trkpt lat="45.317134343112684" lon="11.878476678337542"><ele>6.0</ele><time>2026-04-11T15:44:54Z</time></trkpt><trkpt lat="45.31709080987364" lon="11.878639910895643"><ele>6.0</ele><time>2026-04-11T15:44:55Z</time></trkpt><trkpt lat="45.31705483438847" lon="11.878786350820832"><ele>6.0</ele><time>2026-04-11T15:44:56Z</time></trkpt><trkpt lat="45.31701965664865" lon="11.878919847770383"><ele>6.0</ele><time>2026-04-11T15:44:57Z</time></trkpt><trkpt lat="45.316988532196156" lon="11.87903413891906"><ele>6.0</ele><time>2026-04-11T15:44:58Z</time></trkpt><trkpt lat="45.31695718376709" lon="11.879125236559197"><ele>6.0</ele><time>2026-04-11T15:44:59Z</time></trkpt><trkpt lat="45.31686241336087" lon="11.87923645270655"><ele>6.0</ele><time>2026-04-11T15:45:01Z</time></trkpt><trkpt lat="45.31678281900805" lon="11.87934516968124"><ele>6.0</ele><time>2026-04-11T15:45:03Z</time></trkpt><trkpt lat="45.31677751654736" lon="11.87944497606501"><ele>6.0</ele><time>2026-04-11T15:45:04Z</time></trkpt><trkpt lat="45.31679785996762" lon="11.879568387170584"><ele>6.0</ele><time>2026-04-11T15:45:05Z</time></trkpt><trkpt lat="45.31675668844406" lon="11.87970881689169"><ele>6.0</ele><time>2026-04-11T15:45:06Z</time></trkpt><trkpt lat="45.31675434143106" lon="11.879865799637003"><ele>6.0</ele><time>2026-04-11T15:45:07Z</time></trkpt><trkpt lat="45.316740293416885" lon="11.880046954360587"><ele>6.0</ele><time>2026-04-11T15:45:08Z</time></trkpt><trkpt lat="45.31669683779715" lon="11.88023831758065"><ele>6.0</ele><time>2026-04-11T15:45:09Z</time></trkpt><trkpt lat="45.316642227866865" lon="11.880474449397894"><ele>6.0</ele><time>2026-04-11T15:45:10Z</time></trkpt><trkpt lat="45.31659292454024" lon="11.880702787181791"><ele>6.0</ele><time>2026-04-11T15:45:11Z</time></trkpt><trkpt lat="45.316539101598536" lon="11.880928056400009"><ele>6.0</ele><time>2026-04-11T15:45:12Z</time></trkpt><trkpt lat="45.316491223454065" lon="11.881147672875043"><ele>6.0</ele><time>2026-04-11T15:45:13Z</time></trkpt><trkpt lat="45.31640242412069" lon="11.881339396073486"><ele>6.0</ele><time>2026-04-11T15:45:14Z</time></trkpt><trkpt lat="45.31632572600818" lon="11.881524343801326"><ele>6.0</ele><time>2026-04-11T15:45:15Z</time></trkpt><trkpt lat="45.31622278938426" lon="11.881601643582604"><ele>6.0</ele><time>2026-04-11T15:45:16Z</time></trkpt><trkpt lat="45.316154485754915" lon="11.881574031875111"><ele>6.0</ele><time>2026-04-11T15:45:17Z</time></trkpt><trkpt lat="45.316036923857396" lon="11.881687125802822"><ele>6.0</ele><time>2026-04-11T15:45:18Z</time></trkpt><trkpt lat="45.315957044405344" lon="11.881795267172473"><ele>6.0</ele><time>2026-04-11T15:45:19Z</time></trkpt><trkpt lat="45.31585739397527" lon="11.8819368198207"><ele>6.25</ele><time>2026-04-11T15:45:20Z</time></trkpt><trkpt lat="45.31578182411133" lon="11.88210172890383"><ele>6.5</ele><time>2026-04-11T15:45:21Z</time></trkpt><trkpt lat="45.315736425719216" lon="11.882243330227924"><ele>6.75</ele><time>2026-04-11T15:45:22Z</time></trkpt><trkpt lat="45.31568848831782" lon="11.882401129097358"><ele>7.0</ele><time>2026-04-11T15:45:23Z</time></trkpt><trkpt lat="45.31566309814537" lon="11.882529690697107"><ele>6.75</ele><time>2026-04-11T15:45:24Z</time></trkpt><trkpt lat="45.315644838512895" lon="11.88264753842054"><ele>6.5</ele><time>2026-04-11T15:45:25Z</time></trkpt><trkpt lat="45.315642070020644" lon="11.882738154641254"><ele>6.25</ele><time>2026-04-11T15:45:26Z</time></trkpt><trkpt lat="45.31567119981574" lon="11.88285548550917"><ele>6.0</ele><time>2026-04-11T15:45:28Z</time></trkpt><trkpt lat="45.31593024229706" lon="11.883290037029578"><ele>6.0</ele><time>2026-04-11T15:45:30Z</time></trkpt><trkpt lat="45.31589568687219" lon="11.88338336100004"><ele>6.0</ele><time>2026-04-11T15:45:31Z</time></trkpt><trkpt lat="45.31584634300957" lon="11.883493636287751"><ele>6.0</ele><time>2026-04-11T15:45:32Z</time></trkpt><trkpt lat="45.315804378446295" lon="11.883598492812897"><ele>6.0</ele><time>2026-04-11T15:45:33Z</time></trkpt><trkpt lat="45.315750044224735" lon="11.88372633572789"><ele>6.0</ele><time>2026-04-11T15:45:34Z</time></trkpt><trkpt lat="45.315688047241224" lon="11.88386878155073"><ele>6.25</ele><time>2026-04-11T15:45:35Z</time></trkpt><trkpt lat="45.31561962132991" lon="11.884021531003672"><ele>6.5</ele><time>2026-04-11T15:45:36Z</time></trkpt><trkpt lat="45.31555338377573" lon="11.884175439762322"><ele>6.75</ele><time>2026-04-11T15:45:37Z</time></trkpt><trkpt lat="45.31548181890037" lon="11.884345258903636"><ele>7.0</ele><time>2026-04-11T15:45:38Z</time></trkpt><trkpt lat="45.31540686373085" lon="11.884524791762393"><ele>7.0</ele><time>2026-04-11T15:45:39Z</time></trkpt><trkpt lat="45.31533030507049" lon="11.884699950368292"><ele>7.0</ele><time>2026-04-11T15:45:40Z</time></trkpt><trkpt lat="45.315259401731254" lon="11.884864524631581"><ele>7.0</ele><time>2026-04-11T15:45:41Z</time></trkpt><trkpt lat="45.31519621437505" lon="11.885024755227331"><ele>7.0</ele><time>2026-04-11T15:45:42Z</time></trkpt><trkpt lat="45.31513362185282" lon="11.885176551218823"><ele>7.0</ele><time>2026-04-11T15:45:43Z</time></trkpt><trkpt lat="45.3150747138396" lon="11.885315365884383"><ele>6.999999999999999</ele><time>2026-04-11T15:45:44Z</time></trkpt><trkpt lat="45.31501495205851" lon="11.885439770456413"><ele>6.999999999999999</ele><time>2026-04-11T15:45:45Z</time></trkpt><trkpt lat="45.314964342398646" lon="11.885531367479032"><ele>7.0</ele><time>2026-04-11T15:45:46Z</time></trkpt><trkpt lat="45.3149078102179" lon="11.88557712364367"><ele>7.0</ele><time>2026-04-11T15:45:47Z</time></trkpt><trkpt lat="45.31478369484027" lon="11.885570153745235"><ele>7.0</ele><time>2026-04-11T15:45:49Z</time></trkpt><trkpt lat="45.31471894405885" lon="11.885576541265822"><ele>7.0</ele><time>2026-04-11T15:45:50Z</time></trkpt><trkpt lat="45.314667703144536" lon="11.885633681370111"><ele>7.0</ele><time>2026-04-11T15:45:51Z</time></trkpt><trkpt lat="45.31465602264462" lon="11.885722544106526"><ele>7.0</ele><time>2026-04-11T15:45:52Z</time></trkpt><trkpt lat="45.31468299572613" lon="11.885812985092706"><ele>7.0</ele><time>2026-04-11T15:45:53Z</time></trkpt><trkpt lat="45.314733902936204" lon="11.885902455453884"><ele>7.0</ele><time>2026-04-11T15:45:54Z</time></trkpt><trkpt lat="45.314770663895516" lon="11.886015496615135"><ele>7.0</ele><time>2026-04-11T15:45:55Z</time></trkpt><trkpt lat="45.31477285321242" lon="11.886167109938048"><ele>6.75</ele><time>2026-04-11T15:45:56Z</time></trkpt><trkpt lat="45.31475087335614" lon="11.886341502897583"><ele>6.5</ele><time>2026-04-11T15:45:57Z</time></trkpt><trkpt lat="45.31470878314819" lon="11.8865203146536"><ele>6.25</ele><time>2026-04-11T15:45:58Z</time></trkpt><trkpt lat="45.31466314871381" lon="11.886717524264146"><ele>6.0</ele><time>2026-04-11T15:45:59Z</time></trkpt><trkpt lat="45.31462385663883" lon="11.886953374905618"><ele>6.0</ele><time>2026-04-11T15:46:00Z</time></trkpt><trkpt lat="45.31457528337988" lon="11.88721249373282"><ele>6.0</ele><time>2026-04-11T15:46:01Z</time></trkpt><trkpt lat="45.314519548975035" lon="11.887487816039473"><ele>6.0</ele><time>2026-04-11T15:46:02Z</time></trkpt><trkpt lat="45.314461554352015" lon="11.887749295858624"><ele>6.0</ele><time>2026-04-11T15:46:03Z</time></trkpt><trkpt lat="45.314400505566525" lon="11.888020090453624"><ele>6.0</ele><time>2026-04-11T15:46:04Z</time></trkpt><trkpt lat="45.314341465793696" lon="11.888305955912095"><ele>6.0</ele><time>2026-04-11T15:46:05Z</time></trkpt><trkpt lat="45.31428261089745" lon="11.888590109461997"><ele>5.666666666666667</ele><time>2026-04-11T15:46:06Z</time></trkpt><trkpt lat="45.31422479710184" lon="11.888862448960738"><ele>5.333333333333334</ele><time>2026-04-11T15:46:07Z</time></trkpt><trkpt lat="45.314169013466" lon="11.889145720190204"><ele>5.0</ele><time>2026-04-11T15:46:08Z</time></trkpt><trkpt lat="45.31412733143172" lon="11.889430396207574"><ele>5.0</ele><time>2026-04-11T15:46:09Z</time></trkpt><trkpt lat="45.31409713118444" lon="11.889725585460505"><ele>5.0</ele><time>2026-04-11T15:46:10Z</time></trkpt><trkpt lat="45.31407705011411" lon="11.890033711719761"><ele>5.0</ele><time>2026-04-11T15:46:11Z</time></trkpt><trkpt lat="45.314062115612685" lon="11.890335842066136"><ele>5.0</ele><time>2026-04-11T15:46:12Z</time></trkpt><trkpt lat="45.31405749035142" lon="11.890630870649604"><ele>5.0</ele><time>2026-04-11T15:46:13Z</time></trkpt><trkpt lat="45.31405139361181" lon="11.890929335504712"><ele>5.0</ele><time>2026-04-11T15:46:14Z</time></trkpt><trkpt lat="45.31403728802598" lon="11.891227307802055"><ele>5.333333333333334</ele><time>2026-04-11T15:46:15Z</time></trkpt><trkpt lat="45.31401261221721" lon="11.891522998142486"><ele>5.666666666666667</ele><time>2026-04-11T15:46:16Z</time></trkpt><trkpt lat="45.31397735081563" lon="11.891820710054867"><ele>6.0</ele><time>2026-04-11T15:46:17Z</time></trkpt><trkpt lat="45.31393526302804" lon="11.892115997219994"><ele>5.666666666666667</ele><time>2026-04-11T15:46:18Z</time></trkpt><trkpt lat="45.31389122500649" lon="11.892417400177662"><ele>5.333333333333334</ele><time>2026-04-11T15:46:19Z</time></trkpt><trkpt lat="45.31385146969713" lon="11.892712765911437"><ele>5.0</ele><time>2026-04-11T15:46:20Z</time></trkpt><trkpt lat="45.31380533179541" lon="11.893017958592667"><ele>5.0</ele><time>2026-04-11T15:46:21Z</time></trkpt><trkpt lat="45.31376046499615" lon="11.893312064133855"><ele>5.0</ele><time>2026-04-11T15:46:22Z</time></trkpt><trkpt lat="45.31371961759199" lon="11.893603936288065"><ele>5.0</ele><time>2026-04-11T15:46:23Z</time></trkpt><trkpt lat="45.31367957987285" lon="11.893895062475318"><ele>5.0</ele><time>2026-04-11T15:46:24Z</time></trkpt><trkpt lat="45.31364226293457" lon="11.894176704333814"><ele>5.0</ele><time>2026-04-11T15:46:25Z</time></trkpt><trkpt lat="45.313602687730295" lon="11.894459101858939"><ele>5.0</ele><time>2026-04-11T15:46:26Z</time></trkpt><trkpt lat="45.313561962310764" lon="11.894742450519589"><ele>5.0</ele><time>2026-04-11T15:46:27Z</time></trkpt><trkpt lat="45.313523751166926" lon="11.895015484503288"><ele>5.0</ele><time>2026-04-11T15:46:28Z</time></trkpt><trkpt lat="45.31348366996338" lon="11.895290026052002"><ele>5.0</ele><time>2026-04-11T15:46:29Z</time></trkpt><trkpt lat="45.313444856582514" lon="11.895557034871336"><ele>5.0</ele><time>2026-04-11T15:46:30Z</time></trkpt><trkpt lat="45.31340059611417" lon="11.89583532823059"><ele>5.0</ele><time>2026-04-11T15:46:31Z</time></trkpt><trkpt lat="45.31335633727673" lon="11.896108652188124"><ele>5.0</ele><time>2026-04-11T15:46:32Z</time></trkpt><trkpt lat="45.31331856756799" lon="11.896371300423342"><ele>5.0</ele><time>2026-04-11T15:46:33Z</time></trkpt><trkpt lat="45.31328198136383" lon="11.896620072062133"><ele>5.0</ele><time>2026-04-11T15:46:34Z</time></trkpt><trkpt lat="45.31323947415683" lon="11.896870181061018"><ele>5.0</ele><time>2026-04-11T15:46:35Z</time></trkpt><trkpt lat="45.31319469777945" lon="11.897115126902692"><ele>5.0</ele><time>2026-04-11T15:46:36Z</time></trkpt><trkpt lat="45.31315393025295" lon="11.897355073780385"><ele>5.0</ele><time>2026-04-11T15:46:37Z</time></trkpt><trkpt lat="45.31310709833743" lon="11.897595162929806"><ele>5.0</ele><time>2026-04-11T15:46:38Z</time></trkpt><trkpt lat="45.31305672081878" lon="11.897829553454821"><ele>5.0</ele><time>2026-04-11T15:46:39Z</time></trkpt><trkpt lat="45.31300070408131" lon="11.898065860487796"><ele>5.0</ele><time>2026-04-11T15:46:40Z</time></trkpt><trkpt lat="45.312949574778656" lon="11.898285483465175"><ele>5.0</ele><time>2026-04-11T15:46:41Z</time></trkpt><trkpt lat="45.31290283455817" lon="11.898490834243601"><ele>5.0</ele><time>2026-04-11T15:46:42Z</time></trkpt><trkpt lat="45.312854685305425" lon="11.898695562241722"><ele>5.0</ele><time>2026-04-11T15:46:43Z</time></trkpt><trkpt lat="45.31280683228695" lon="11.898903361377995"><ele>5.0</ele><time>2026-04-11T15:46:44Z</time></trkpt><trkpt lat="45.312760527903805" lon="11.899098121771855"><ele>5.0</ele><time>2026-04-11T15:46:45Z</time></trkpt><trkpt lat="45.31271752162388" lon="11.89929628689838"><ele>5.0</ele><time>2026-04-11T15:46:46Z</time></trkpt><trkpt lat="45.31267294019453" lon="11.899496858505803"><ele>5.0</ele><time>2026-04-11T15:46:47Z</time></trkpt><trkpt lat="45.312628887667586" lon="11.899700799386416"><ele>5.0</ele><time>2026-04-11T15:46:48Z</time></trkpt><trkpt lat="45.31258436010324" lon="11.899899900517381"><ele>5.333333333333334</ele><time>2026-04-11T15:46:49Z</time></trkpt><trkpt lat="45.312542347583225" lon="11.90010230744679"><ele>5.666666666666667</ele><time>2026-04-11T15:46:50Z</time></trkpt><trkpt lat="45.31248232899732" lon="11.900322036264077"><ele>6.0</ele><time>2026-04-11T15:46:51Z</time></trkpt><trkpt lat="45.31242578384704" lon="11.900531043635263"><ele>6.0</ele><time>2026-04-11T15:46:52Z</time></trkpt><trkpt lat="45.31236635795546" lon="11.900745862125165"><ele>6.0</ele><time>2026-04-11T15:46:53Z</time></trkpt><trkpt lat="45.31230511630155" lon="11.900961591285157"><ele>6.0</ele><time>2026-04-11T15:46:54Z</time></trkpt><trkpt lat="45.31224505510668" lon="11.901165241847856"><ele>5.75</ele><time>2026-04-11T15:46:55Z</time></trkpt><trkpt lat="45.3121871042885" lon="11.901371302515473"><ele>5.5</ele><time>2026-04-11T15:46:56Z</time></trkpt><trkpt lat="45.31213092100299" lon="11.901569674547286"><ele>5.25</ele><time>2026-04-11T15:46:57Z</time></trkpt><trkpt lat="45.312072093455036" lon="11.901754362353904"><ele>5.0</ele><time>2026-04-11T15:46:58Z</time></trkpt><trkpt lat="45.31201581401776" lon="11.901951449535291"><ele>4.666666666666667</ele><time>2026-04-11T15:46:59Z</time></trkpt><trkpt lat="45.31195402976898" lon="11.902145459597227"><ele>4.333333333333333</ele><time>2026-04-11T15:47:00Z</time></trkpt><trkpt lat="45.3118885249653" lon="11.902331306887266"><ele>4.0</ele><time>2026-04-11T15:47:01Z</time></trkpt><trkpt lat="45.31181507712349" lon="11.902523651133514"><ele>4.25</ele><time>2026-04-11T15:47:02Z</time></trkpt><trkpt lat="45.31174429436089" lon="11.902706431932286"><ele>4.5</ele><time>2026-04-11T15:47:03Z</time></trkpt><trkpt lat="45.31167578388539" lon="11.902886172074513"><ele>4.75</ele><time>2026-04-11T15:47:04Z</time></trkpt><trkpt lat="45.311612337327254" lon="11.903075323604234"><ele>5.0</ele><time>2026-04-11T15:47:05Z</time></trkpt><trkpt lat="45.31155568848167" lon="11.903269270480353"><ele>5.0</ele><time>2026-04-11T15:47:06Z</time></trkpt><trkpt lat="45.31151164257721" lon="11.903466133186463"><ele>5.0</ele><time>2026-04-11T15:47:07Z</time></trkpt><trkpt lat="45.311481255094996" lon="11.903661847500539"><ele>5.0</ele><time>2026-04-11T15:47:08Z</time></trkpt><trkpt lat="45.3114613306133" lon="11.90385752720417"><ele>5.0</ele><time>2026-04-11T15:47:09Z</time></trkpt><trkpt lat="45.31145470978296" lon="11.904058373588667"><ele>4.5</ele><time>2026-04-11T15:47:10Z</time></trkpt><trkpt lat="45.31145919715838" lon="11.90426342356294"><ele>4.0</ele><time>2026-04-11T15:47:11Z</time></trkpt><trkpt lat="45.31147813973445" lon="11.904457954270487"><ele>3.5</ele><time>2026-04-11T15:47:12Z</time></trkpt><trkpt lat="45.31149940799457" lon="11.904649152035395"><ele>3.0</ele><time>2026-04-11T15:47:13Z</time></trkpt><trkpt lat="45.31152158462112" lon="11.904839134875994"><ele>3.0</ele><time>2026-04-11T15:47:14Z</time></trkpt><trkpt lat="45.31154053277294" lon="11.905027063231529"><ele>3.0</ele><time>2026-04-11T15:47:15Z</time></trkpt><trkpt lat="45.31156265029711" lon="11.90521449743409"><ele>3.0</ele><time>2026-04-11T15:47:16Z</time></trkpt><trkpt lat="45.311580324763554" lon="11.905394279290258"><ele>3.0</ele><time>2026-04-11T15:47:17Z</time></trkpt><trkpt lat="45.31159730283735" lon="11.905575434356985"><ele>3.25</ele><time>2026-04-11T15:47:18Z</time></trkpt><trkpt lat="45.31161177593816" lon="11.905749334389295"><ele>3.5</ele><time>2026-04-11T15:47:19Z</time></trkpt><trkpt lat="45.31162281187383" lon="11.90591452966565"><ele>3.75</ele><time>2026-04-11T15:47:20Z</time></trkpt><trkpt lat="45.31163417504577" lon="11.906072058811393"><ele>4.0</ele><time>2026-04-11T15:47:21Z</time></trkpt><trkpt lat="45.311646423389455" lon="11.906215554731896"><ele>4.0</ele><time>2026-04-11T15:47:22Z</time></trkpt><trkpt lat="45.311657944956735" lon="11.90634642790911"><ele>4.0</ele><time>2026-04-11T15:47:23Z</time></trkpt><trkpt lat="45.311662139730785" lon="11.906462227476093"><ele>4.0</ele><time>2026-04-11T15:47:24Z</time></trkpt><trkpt lat="45.31165537313415" lon="11.90655216500334"><ele>4.0</ele><time>2026-04-11T15:47:25Z</time></trkpt><trkpt lat="45.3116204519906" lon="11.90670064336939"><ele>4.0</ele><time>2026-04-11T15:47:27Z</time></trkpt><trkpt lat="45.31157120376448" lon="11.906835035601778"><ele>3.8000000000000003</ele><time>2026-04-11T15:47:29Z</time></trkpt><trkpt lat="45.31158503222246" lon="11.906980134554331"><ele>3.6000000000000005</ele><time>2026-04-11T15:47:31Z</time></trkpt><trkpt lat="45.311630116302986" lon="11.907081205090643"><ele>3.4</ele><time>2026-04-11T15:47:32Z</time></trkpt><trkpt lat="45.31167328759799" lon="11.907203494313755"><ele>3.2</ele><time>2026-04-11T15:47:33Z</time></trkpt><trkpt lat="45.31169675017619" lon="11.907368816003236"><ele>3.0</ele><time>2026-04-11T15:47:34Z</time></trkpt><trkpt lat="45.31175046438385" lon="11.907545558846081"><ele>3.0</ele><time>2026-04-11T15:47:35Z</time></trkpt><trkpt lat="45.31171176694542" lon="11.907764006015869"><ele>3.0</ele><time>2026-04-11T15:47:36Z</time></trkpt><trkpt lat="45.3117163358887" lon="11.907988790542039"><ele>3.0</ele><time>2026-04-11T15:47:37Z</time></trkpt><trkpt lat="45.31172394197395" lon="11.908233018671725"><ele>3.333333333333333</ele><time>2026-04-11T15:47:38Z</time></trkpt><trkpt lat="45.31173222014691" lon="11.90850348244036"><ele>3.6666666666666665</ele><time>2026-04-11T15:47:39Z</time></trkpt><trkpt lat="45.31173555154697" lon="11.908769123857278"><ele>4.0</ele><time>2026-04-11T15:47:40Z</time></trkpt><trkpt lat="45.31174545324925" lon="11.909041352010624"><ele>4.0</ele><time>2026-04-11T15:47:41Z</time></trkpt><trkpt lat="45.3117585373979" lon="11.909328247892235"><ele>4.0</ele><time>2026-04-11T15:47:42Z</time></trkpt><trkpt lat="45.31176947395817" lon="11.909607324461152"><ele>4.0</ele><time>2026-04-11T15:47:43Z</time></trkpt><trkpt lat="45.31178575313331" lon="11.909901976302205"><ele>4.0</ele><time>2026-04-11T15:47:44Z</time></trkpt><trkpt lat="45.311803447123886" lon="11.910191368821687"><ele>4.0</ele><time>2026-04-11T15:47:45Z</time></trkpt><trkpt lat="45.31182348823348" lon="11.910478238810368"><ele>4.0</ele><time>2026-04-11T15:47:46Z</time></trkpt><trkpt lat="45.311840961005394" lon="11.91075540769287"><ele>4.0</ele><time>2026-04-11T15:47:47Z</time></trkpt><trkpt lat="45.31185042553918" lon="11.911031432477227"><ele>4.0</ele><time>2026-04-11T15:47:48Z</time></trkpt><trkpt lat="45.31185804296826" lon="11.911303471723887"><ele>4.0</ele><time>2026-04-11T15:47:49Z</time></trkpt><trkpt lat="45.31186606421702" lon="11.911574543328351"><ele>5.0</ele><time>2026-04-11T15:47:50Z</time></trkpt><trkpt lat="45.31187643653802" lon="11.911840233898493"><ele>6.0</ele><time>2026-04-11T15:47:51Z</time></trkpt><trkpt lat="45.31188194617495" lon="11.912104993123819"><ele>7.0</ele><time>2026-04-11T15:47:52Z</time></trkpt><trkpt lat="45.31188699547613" lon="11.912369243495254"><ele>7.0</ele><time>2026-04-11T15:47:53Z</time></trkpt><trkpt lat="45.3118953492676" lon="11.912632077736518"><ele>7.0</ele><time>2026-04-11T15:47:54Z</time></trkpt><trkpt lat="45.31190649767898" lon="11.912889372788415"><ele>7.0</ele><time>2026-04-11T15:47:55Z</time></trkpt><trkpt lat="45.31191999765137" lon="11.913143521537586"><ele>7.0</ele><time>2026-04-11T15:47:56Z</time></trkpt><trkpt lat="45.31194211125974" lon="11.91339229551818"><ele>7.0</ele><time>2026-04-11T15:47:57Z</time></trkpt><trkpt lat="45.31197439800772" lon="11.9136389174581"><ele>7.0</ele><time>2026-04-11T15:47:58Z</time></trkpt><trkpt lat="45.31200586170961" lon="11.91386682112706"><ele>7.0</ele><time>2026-04-11T15:47:59Z</time></trkpt><trkpt lat="45.312035880132186" lon="11.914075581310037"><ele>7.0</ele><time>2026-04-11T15:48:00Z</time></trkpt><trkpt lat="45.312061652212606" lon="11.914271243600597"><ele>7.0</ele><time>2026-04-11T15:48:01Z</time></trkpt><trkpt lat="45.31208769508167" lon="11.914454113451564"><ele>7.0</ele><time>2026-04-11T15:48:02Z</time></trkpt><trkpt lat="45.312107791296775" lon="11.914623374864954"><ele>7.0</ele><time>2026-04-11T15:48:03Z</time></trkpt><trkpt lat="45.312126543906714" lon="11.914785383115461"><ele>6.999999999999999</ele><time>2026-04-11T15:48:04Z</time></trkpt><trkpt lat="45.31214402560142" lon="11.914932993923594"><ele>6.999999999999999</ele><time>2026-04-11T15:48:05Z</time></trkpt><trkpt lat="45.312158526094215" lon="11.915043252074968"><ele>7.0</ele><time>2026-04-11T15:48:06Z</time></trkpt><trkpt lat="45.31216353501732" lon="11.915160642349731"><ele>7.0</ele><time>2026-04-11T15:48:07Z</time></trkpt><trkpt lat="45.31213319148127" lon="11.915250865151878"><ele>6.666666666666667</ele><time>2026-04-11T15:48:08Z</time></trkpt><trkpt lat="45.312088612615966" lon="11.91533091920222"><ele>6.333333333333334</ele><time>2026-04-11T15:48:09Z</time></trkpt><trkpt lat="45.312035347471806" lon="11.915382760409463"><ele>6.0</ele><time>2026-04-11T15:48:10Z</time></trkpt><trkpt lat="45.3120045739286" lon="11.915471476943559"><ele>5.666666666666667</ele><time>2026-04-11T15:48:11Z</time></trkpt><trkpt lat="45.31201201044188" lon="11.915577593174245"><ele>5.333333333333334</ele><time>2026-04-11T15:48:12Z</time></trkpt><trkpt lat="45.312028325576286" lon="11.915674725169557"><ele>5.0</ele><time>2026-04-11T15:48:13Z</time></trkpt><trkpt lat="45.312111098244436" lon="11.915753086834993"><ele>5.0</ele><time>2026-04-11T15:48:14Z</time></trkpt><trkpt lat="45.31215910899686" lon="11.915844704123806"><ele>5.0</ele><time>2026-04-11T15:48:15Z</time></trkpt><trkpt lat="45.31219180104746" lon="11.91597684061345"><ele>5.0</ele><time>2026-04-11T15:48:16Z</time></trkpt><trkpt lat="45.31221350761481" lon="11.916123412951638"><ele>5.0</ele><time>2026-04-11T15:48:17Z</time></trkpt><trkpt lat="45.312222375915184" lon="11.916286799950553"><ele>5.0</ele><time>2026-04-11T15:48:18Z</time></trkpt><trkpt lat="45.312207566601096" lon="11.91647126301084"><ele>5.0</ele><time>2026-04-11T15:48:19Z</time></trkpt><trkpt lat="45.31217872412765" lon="11.916661548464969"><ele>5.0</ele><time>2026-04-11T15:48:20Z</time></trkpt><trkpt lat="45.312152734033546" lon="11.916859583269604"><ele>5.0</ele><time>2026-04-11T15:48:21Z</time></trkpt><trkpt lat="45.3121341231021" lon="11.917045099100205"><ele>5.0</ele><time>2026-04-11T15:48:22Z</time></trkpt><trkpt lat="45.31211441780534" lon="11.91721916468284"><ele>4.833333333333334</ele><time>2026-04-11T15:48:23Z</time></trkpt><trkpt lat="45.31209743131717" lon="11.91736977391485"><ele>4.666666666666667</ele><time>2026-04-11T15:48:24Z</time></trkpt><trkpt lat="45.3120850416415" lon="11.917502247144023"><ele>4.5</ele><time>2026-04-11T15:48:25Z</time></trkpt><trkpt lat="45.31207565210299" lon="11.91760962191868"><ele>4.333333333333333</ele><time>2026-04-11T15:48:26Z</time></trkpt><trkpt lat="45.312088190040264" lon="11.917705321320767"><ele>4.166666666666666</ele><time>2026-04-11T15:48:27Z</time></trkpt><trkpt lat="45.312128253818024" lon="11.917779194315052"><ele>4.0</ele><time>2026-04-11T15:48:28Z</time></trkpt><trkpt lat="45.312197842545956" lon="11.917826975673105"><ele>4.0</ele><time>2026-04-11T15:48:29Z</time></trkpt><trkpt lat="45.312290662148804" lon="11.91784387935406"><ele>4.0</ele><time>2026-04-11T15:48:30Z</time></trkpt><trkpt lat="45.31239632726105" lon="11.917859243381914"><ele>4.0</ele><time>2026-04-11T15:48:31Z</time></trkpt><trkpt lat="45.31250580864494" lon="11.917869798329562"><ele>4.0</ele><time>2026-04-11T15:48:32Z</time></trkpt><trkpt lat="45.312622759848665" lon="11.917882593447686"><ele>4.0</ele><time>2026-04-11T15:48:33Z</time></trkpt><trkpt lat="45.31273867369602" lon="11.917811202502993"><ele>4.0</ele><time>2026-04-11T15:48:34Z</time></trkpt><trkpt lat="45.31285519818691" lon="11.917749785757382"><ele>4.0</ele><time>2026-04-11T15:48:35Z</time></trkpt><trkpt lat="45.31297483785116" lon="11.917683236192456"><ele>4.0</ele><time>2026-04-11T15:48:36Z</time></trkpt><trkpt lat="45.31311174648248" lon="11.917639485814144"><ele>4.0</ele><time>2026-04-11T15:48:37Z</time></trkpt><trkpt lat="45.3132414711276" lon="11.917581979656903"><ele>3.75</ele><time>2026-04-11T15:48:38Z</time></trkpt><trkpt lat="45.3133726400291" lon="11.917501392344375"><ele>3.5</ele><time>2026-04-11T15:48:39Z</time></trkpt><trkpt lat="45.31350914684705" lon="11.917446026089848"><ele>3.25</ele><time>2026-04-11T15:48:40Z</time></trkpt><trkpt lat="45.3136434952741" lon="11.91739003316084"><ele>3.0</ele><time>2026-04-11T15:48:41Z</time></trkpt><trkpt lat="45.313773827578395" lon="11.917334168549537"><ele>3.25</ele><time>2026-04-11T15:48:42Z</time></trkpt><trkpt lat="45.31390683920495" lon="11.917287813366007"><ele>3.5</ele><time>2026-04-11T15:48:43Z</time></trkpt><trkpt lat="45.31402275612966" lon="11.91733152456702"><ele>3.75</ele><time>2026-04-11T15:48:44Z</time></trkpt><trkpt lat="45.31414547973696" lon="11.917372023172845"><ele>4.0</ele><time>2026-04-11T15:48:45Z</time></trkpt><trkpt lat="45.31427301816946" lon="11.917417953919813"><ele>4.0</ele><time>2026-04-11T15:48:46Z</time></trkpt><trkpt lat="45.3144080289278" lon="11.917441271925512"><ele>4.0</ele><time>2026-04-11T15:48:47Z</time></trkpt><trkpt lat="45.31454165512475" lon="11.91747980557123"><ele>4.0</ele><time>2026-04-11T15:48:48Z</time></trkpt><trkpt lat="45.3146734525159" lon="11.917503320875033"><ele>4.0</ele><time>2026-04-11T15:48:49Z</time></trkpt><trkpt lat="45.31479212120685" lon="11.91750758267992"><ele>4.0</ele><time>2026-04-11T15:48:50Z</time></trkpt><trkpt lat="45.314899866872544" lon="11.917540491647182"><ele>4.0</ele><time>2026-04-11T15:48:51Z</time></trkpt><trkpt lat="45.314986800395644" lon="11.917559091854475"><ele>4.0</ele><time>2026-04-11T15:48:52Z</time></trkpt><trkpt lat="45.31505542058038" lon="11.917559142139758"><ele>4.0</ele><time>2026-04-11T15:48:53Z</time></trkpt><trkpt lat="45.31513215834142" lon="11.917611016675776"><ele>4.0</ele><time>2026-04-11T15:48:55Z</time></trkpt><trkpt lat="45.315153060940006" lon="11.917795500640898"><ele>4.0</ele><time>2026-04-11T15:48:59Z</time></trkpt><trkpt lat="45.31511710963296" lon="11.917918006111357"><ele>4.0</ele><time>2026-04-11T15:49:00Z</time></trkpt><trkpt lat="45.315078601733944" lon="11.918059932228328"><ele>4.0</ele><time>2026-04-11T15:49:01Z</time></trkpt><trkpt lat="45.31503963010634" lon="11.91823751863594"><ele>4.0</ele><time>2026-04-11T15:49:02Z</time></trkpt><trkpt lat="45.31500638987245" lon="11.918410546149945"><ele>4.0</ele><time>2026-04-11T15:49:03Z</time></trkpt><trkpt lat="45.31497225457203" lon="11.918584200227542"><ele>4.0</ele><time>2026-04-11T15:49:04Z</time></trkpt><trkpt lat="45.31493330399288" lon="11.918782091852343"><ele>4.0</ele><time>2026-04-11T15:49:05Z</time></trkpt><trkpt lat="45.31489165237553" lon="11.918990316734073"><ele>4.0</ele><time>2026-04-11T15:49:06Z</time></trkpt><trkpt lat="45.31484397243135" lon="11.919217891306676"><ele>4.0</ele><time>2026-04-11T15:49:07Z</time></trkpt><trkpt lat="45.31479538052149" lon="11.91943594782966"><ele>4.0</ele><time>2026-04-11T15:49:08Z</time></trkpt><trkpt lat="45.31474919817924" lon="11.919661240678836"><ele>4.0</ele><time>2026-04-11T15:49:09Z</time></trkpt><trkpt lat="45.31470087681918" lon="11.919885927619552"><ele>3.6666666666666665</ele><time>2026-04-11T15:49:10Z</time></trkpt><trkpt lat="45.3146583757023" lon="11.92010293918391"><ele>3.333333333333333</ele><time>2026-04-11T15:49:11Z</time></trkpt><trkpt lat="45.31461688268573" lon="11.920320818776055"><ele>3.0</ele><time>2026-04-11T15:49:12Z</time></trkpt><trkpt lat="45.314575576108545" lon="11.920530197423856"><ele>3.0</ele><time>2026-04-11T15:49:13Z</time></trkpt><trkpt lat="45.31453548439304" lon="11.920744081296968"><ele>3.0</ele><time>2026-04-11T15:49:14Z</time></trkpt><trkpt lat="45.31449590866117" lon="11.920955297668087"><ele>3.0</ele><time>2026-04-11T15:49:15Z</time></trkpt><trkpt lat="45.3144564473253" lon="11.921174291569699"><ele>3.333333333333333</ele><time>2026-04-11T15:49:16Z</time></trkpt><trkpt lat="45.31441647065323" lon="11.9213951172477"><ele>3.6666666666666665</ele><time>2026-04-11T15:49:17Z</time></trkpt><trkpt lat="45.31437488379101" lon="11.921612285876837"><ele>4.0</ele><time>2026-04-11T15:49:18Z</time></trkpt><trkpt lat="45.31432887073002" lon="11.92183239608327"><ele>4.0</ele><time>2026-04-11T15:49:19Z</time></trkpt><trkpt lat="45.31428184103961" lon="11.92205092655095"><ele>4.0</ele><time>2026-04-11T15:49:20Z</time></trkpt><trkpt lat="45.31422178995972" lon="11.922274808472759"><ele>4.0</ele><time>2026-04-11T15:49:21Z</time></trkpt><trkpt lat="45.314154654458505" lon="11.922481982199562"><ele>4.0</ele><time>2026-04-11T15:49:22Z</time></trkpt><trkpt lat="45.31408095569101" lon="11.922670417700848"><ele>4.0</ele><time>2026-04-11T15:49:23Z</time></trkpt><trkpt lat="45.31401011583247" lon="11.922838221266625"><ele>4.0</ele><time>2026-04-11T15:49:24Z</time></trkpt><trkpt lat="45.313929387728024" lon="11.923002144590138"><ele>4.0</ele><time>2026-04-11T15:49:25Z</time></trkpt><trkpt lat="45.31384786797012" lon="11.923156636158055"><ele>4.0</ele><time>2026-04-11T15:49:26Z</time></trkpt><trkpt lat="45.313767566842046" lon="11.923306924563294"><ele>4.0</ele><time>2026-04-11T15:49:27Z</time></trkpt><trkpt lat="45.313687146040685" lon="11.923457101021516"><ele>4.0</ele><time>2026-04-11T15:49:28Z</time></trkpt><trkpt lat="45.31360914426581" lon="11.923592986179617"><ele>4.0</ele><time>2026-04-11T15:49:29Z</time></trkpt><trkpt lat="45.31352808744184" lon="11.92373004321607"><ele>3.75</ele><time>2026-04-11T15:49:30Z</time></trkpt><trkpt lat="45.313451857588184" lon="11.923870020043765"><ele>3.5</ele><time>2026-04-11T15:49:31Z</time></trkpt><trkpt lat="45.313375241003314" lon="11.92401633289675"><ele>3.25</ele><time>2026-04-11T15:49:32Z</time></trkpt><trkpt lat="45.31329740748163" lon="11.924164798883266"><ele>3.0</ele><time>2026-04-11T15:49:33Z</time></trkpt><trkpt lat="45.31322110491234" lon="11.924309748369035"><ele>3.0</ele><time>2026-04-11T15:49:34Z</time></trkpt><trkpt lat="45.31314294864507" lon="11.924455662185881"><ele>3.0</ele><time>2026-04-11T15:49:35Z</time></trkpt><trkpt lat="45.313059931915944" lon="11.924612431464363"><ele>3.0</ele><time>2026-04-11T15:49:36Z</time></trkpt><trkpt lat="45.31297462568109" lon="11.924772995752127"><ele>3.0</ele><time>2026-04-11T15:49:37Z</time></trkpt><trkpt lat="45.31289373085148" lon="11.92493428696924"><ele>2.75</ele><time>2026-04-11T15:49:38Z</time></trkpt><trkpt lat="45.31281161665972" lon="11.92510156127975"><ele>2.5</ele><time>2026-04-11T15:49:39Z</time></trkpt><trkpt lat="45.3127331140616" lon="11.92527953330473"><ele>2.25</ele><time>2026-04-11T15:49:40Z</time></trkpt><trkpt lat="45.312661959191296" lon="11.925476483185008"><ele>2.0</ele><time>2026-04-11T15:49:41Z</time></trkpt><trkpt lat="45.312594533273014" lon="11.92568362824942"><ele>1.6666666666666665</ele><time>2026-04-11T15:49:42Z</time></trkpt><trkpt lat="45.31253977387038" lon="11.925897906422325"><ele>1.3333333333333333</ele><time>2026-04-11T15:49:43Z</time></trkpt><trkpt lat="45.312480649098646" lon="11.92611855776814"><ele>1.0</ele><time>2026-04-11T15:49:44Z</time></trkpt><trkpt lat="45.31243023044221" lon="11.926332026933943"><ele>1.0</ele><time>2026-04-11T15:49:45Z</time></trkpt><trkpt lat="45.31238408808" lon="11.926518778375256"><ele>1.0</ele><time>2026-04-11T15:49:46Z</time></trkpt><trkpt lat="45.312338305187374" lon="11.926690994486565"><ele>1.0</ele><time>2026-04-11T15:49:47Z</time></trkpt><trkpt lat="45.312291818050156" lon="11.926851154953985"><ele>1.0</ele><time>2026-04-11T15:49:48Z</time></trkpt><trkpt lat="45.312245732090744" lon="11.927012800559728"><ele>1.5</ele><time>2026-04-11T15:49:49Z</time></trkpt><trkpt lat="45.312202554146694" lon="11.927162221190107"><ele>2.0</ele><time>2026-04-11T15:49:50Z</time></trkpt><trkpt lat="45.31214987769768" lon="11.927326301586731"><ele>2.5</ele><time>2026-04-11T15:49:51Z</time></trkpt><trkpt lat="45.312100183751426" lon="11.927486096179184"><ele>3.0</ele><time>2026-04-11T15:49:52Z</time></trkpt><trkpt lat="45.31204824081052" lon="11.927651970761145"><ele>3.25</ele><time>2026-04-11T15:49:53Z</time></trkpt><trkpt lat="45.31199390913534" lon="11.927828204180802"><ele>3.5</ele><time>2026-04-11T15:49:54Z</time></trkpt><trkpt lat="45.31193944702134" lon="11.928004764659613"><ele>3.75</ele><time>2026-04-11T15:49:55Z</time></trkpt><trkpt lat="45.31188481660797" lon="11.928184668980071"><ele>4.0</ele><time>2026-04-11T15:49:56Z</time></trkpt><trkpt lat="45.31183032377033" lon="11.928356960378789"><ele>3.75</ele><time>2026-04-11T15:49:57Z</time></trkpt><trkpt lat="45.3117720341487" lon="11.928542928660406"><ele>3.5</ele><time>2026-04-11T15:49:58Z</time></trkpt><trkpt lat="45.31171674681797" lon="11.928723964766402"><ele>3.25</ele><time>2026-04-11T15:49:59Z</time></trkpt><trkpt lat="45.311659259356674" lon="11.928911682251371"><ele>3.0</ele><time>2026-04-11T15:50:00Z</time></trkpt><trkpt lat="45.311604367206236" lon="11.92909859298227"><ele>3.0</ele><time>2026-04-11T15:50:01Z</time></trkpt><trkpt lat="45.31154901656596" lon="11.929283182050561"><ele>3.0</ele><time>2026-04-11T15:50:02Z</time></trkpt><trkpt lat="45.31149238179141" lon="11.929469527534724"><ele>3.0</ele><time>2026-04-11T15:50:03Z</time></trkpt><trkpt lat="45.31143732929728" lon="11.92965586010703"><ele>3.0</ele><time>2026-04-11T15:50:04Z</time></trkpt><trkpt lat="45.31138705251687" lon="11.929849793906744"><ele>3.0</ele><time>2026-04-11T15:50:05Z</time></trkpt><trkpt lat="45.31134096475059" lon="11.93004958450036"><ele>3.0</ele><time>2026-04-11T15:50:06Z</time></trkpt><trkpt lat="45.31129766628376" lon="11.930258389729094"><ele>3.0</ele><time>2026-04-11T15:50:07Z</time></trkpt><trkpt lat="45.31126089528349" lon="11.93046269141146"><ele>3.0</ele><time>2026-04-11T15:50:08Z</time></trkpt><trkpt lat="45.31122263895327" lon="11.9306670175027"><ele>3.0</ele><time>2026-04-11T15:50:09Z</time></trkpt><trkpt lat="45.31118369367789" lon="11.930866983594758"><ele>3.0</ele><time>2026-04-11T15:50:10Z</time></trkpt><trkpt lat="45.31114357744645" lon="11.931071175586256"><ele>3.0</ele><time>2026-04-11T15:50:11Z</time></trkpt><trkpt lat="45.311106039981404" lon="11.931289074711543"><ele>3.0</ele><time>2026-04-11T15:50:12Z</time></trkpt><trkpt lat="45.31107945198907" lon="11.931507949720935"><ele>3.0</ele><time>2026-04-11T15:50:13Z</time></trkpt><trkpt lat="45.31106190322638" lon="11.931725970434492"><ele>3.0</ele><time>2026-04-11T15:50:14Z</time></trkpt><trkpt lat="45.31105010348471" lon="11.931941713105175"><ele>3.0</ele><time>2026-04-11T15:50:15Z</time></trkpt><trkpt lat="45.31103594198111" lon="11.932155447458968"><ele>3.0</ele><time>2026-04-11T15:50:16Z</time></trkpt><trkpt lat="45.31102150859765" lon="11.93237414688421"><ele>3.0</ele><time>2026-04-11T15:50:17Z</time></trkpt><trkpt lat="45.31100940380752" lon="11.932588589138014"><ele>3.0</ele><time>2026-04-11T15:50:18Z</time></trkpt><trkpt lat="45.31100251369321" lon="11.932776213366557"><ele>3.0</ele><time>2026-04-11T15:50:19Z</time></trkpt><trkpt lat="45.3109950022496" lon="11.932951833415515"><ele>3.0</ele><time>2026-04-11T15:50:20Z</time></trkpt><trkpt lat="45.31098505517191" lon="11.933122223307565"><ele>3.0</ele><time>2026-04-11T15:50:21Z</time></trkpt><trkpt lat="45.31097477112347" lon="11.93328931624601"><ele>3.2</ele><time>2026-04-11T15:50:22Z</time></trkpt><trkpt lat="45.31096698154154" lon="11.93345259428859"><ele>3.4</ele><time>2026-04-11T15:50:23Z</time></trkpt><trkpt lat="45.310964526786414" lon="11.93360990844776"><ele>3.6000000000000005</ele><time>2026-04-11T15:50:24Z</time></trkpt><trkpt lat="45.31095127768035" lon="11.933769638731036"><ele>3.8000000000000003</ele><time>2026-04-11T15:50:25Z</time></trkpt><trkpt lat="45.31094261878405" lon="11.933921829745923"><ele>4.0</ele><time>2026-04-11T15:50:26Z</time></trkpt><trkpt lat="45.310938890265966" lon="11.934069718327505"><ele>4.0</ele><time>2026-04-11T15:50:27Z</time></trkpt><trkpt lat="45.31094430357794" lon="11.934202496960555"><ele>4.0</ele><time>2026-04-11T15:50:28Z</time></trkpt><trkpt lat="45.31095869126153" lon="11.934315424689961"><ele>4.0</ele><time>2026-04-11T15:50:29Z</time></trkpt><trkpt lat="45.31097457751169" lon="11.934403696100562"><ele>4.0</ele><time>2026-04-11T15:50:30Z</time></trkpt><trkpt lat="45.31100620717049" lon="11.934558622544566"><ele>4.0</ele><time>2026-04-11T15:50:32Z</time></trkpt><trkpt lat="45.31102677974523" lon="11.934701345922123"><ele>3.6</ele><time>2026-04-11T15:50:34Z</time></trkpt><trkpt lat="45.31104436717825" lon="11.93485011381818"><ele>3.2</ele><time>2026-04-11T15:50:36Z</time></trkpt><trkpt lat="45.31108799334498" lon="11.934985569734012"><ele>2.8000000000000003</ele><time>2026-04-11T15:50:38Z</time></trkpt><trkpt lat="45.31121197168376" lon="11.9350253837381"><ele>2.4000000000000004</ele><time>2026-04-11T15:50:40Z</time></trkpt><trkpt lat="45.31129651302798" lon="11.934985711898328"><ele>2.0</ele><time>2026-04-11T15:50:41Z</time></trkpt><trkpt lat="45.31138640340941" lon="11.934943352863108"><ele>1.75</ele><time>2026-04-11T15:50:42Z</time></trkpt><trkpt lat="45.31148764027763" lon="11.93489812119584"><ele>1.5</ele><time>2026-04-11T15:50:43Z</time></trkpt><trkpt lat="45.31159960189042" lon="11.934848150717881"><ele>1.25</ele><time>2026-04-11T15:50:44Z</time></trkpt><trkpt lat="45.31170972367819" lon="11.934803307038283"><ele>1.0</ele><time>2026-04-11T15:50:45Z</time></trkpt><trkpt lat="45.31182031724569" lon="11.93476292979406"><ele>1.0</ele><time>2026-04-11T15:50:46Z</time></trkpt><trkpt lat="45.31193023397982" lon="11.934723357804241"><ele>1.0</ele><time>2026-04-11T15:50:47Z</time></trkpt><trkpt lat="45.312033720829604" lon="11.93469091074718"><ele>1.0</ele><time>2026-04-11T15:50:48Z</time></trkpt><trkpt lat="45.312139625012215" lon="11.934662266860025"><ele>1.0</ele><time>2026-04-11T15:50:49Z</time></trkpt><trkpt lat="45.31224957561146" lon="11.934634764737874"><ele>1.0</ele><time>2026-04-11T15:50:50Z</time></trkpt><trkpt lat="45.31236066880043" lon="11.934612546288516"><ele>1.25</ele><time>2026-04-11T15:50:51Z</time></trkpt><trkpt lat="45.31246988312072" lon="11.93459324876644"><ele>1.5</ele><time>2026-04-11T15:50:52Z</time></trkpt><trkpt lat="45.312586395269165" lon="11.934575923937254"><ele>1.75</ele><time>2026-04-11T15:50:53Z</time></trkpt><trkpt lat="45.3127061700485" lon="11.934561892138953"><ele>2.0</ele><time>2026-04-11T15:50:54Z</time></trkpt><trkpt lat="45.312821405838676" lon="11.934553906173912"><ele>2.0</ele><time>2026-04-11T15:50:55Z</time></trkpt><trkpt lat="45.31293255620108" lon="11.934517201649143"><ele>2.0</ele><time>2026-04-11T15:50:56Z</time></trkpt><trkpt lat="45.31305372433667" lon="11.934520929570041"><ele>2.0</ele><time>2026-04-11T15:50:57Z</time></trkpt><trkpt lat="45.31318452986911" lon="11.934524167725264"><ele>2.0</ele><time>2026-04-11T15:50:58Z</time></trkpt><trkpt lat="45.313323827248716" lon="11.934535127813401"><ele>2.333333333333333</ele><time>2026-04-11T15:50:59Z</time></trkpt><trkpt lat="45.313464004030386" lon="11.934582599453606"><ele>2.6666666666666665</ele><time>2026-04-11T15:51:00Z</time></trkpt><trkpt lat="45.31361390579017" lon="11.934607816785455"><ele>3.0</ele><time>2026-04-11T15:51:01Z</time></trkpt><trkpt lat="45.313771970221524" lon="11.934639086628197"><ele>3.0</ele><time>2026-04-11T15:51:02Z</time></trkpt><trkpt lat="45.31392839171978" lon="11.934647088285393"><ele>3.0</ele><time>2026-04-11T15:51:03Z</time></trkpt><trkpt lat="45.31408005518231" lon="11.934682225325057"><ele>3.0</ele><time>2026-04-11T15:51:04Z</time></trkpt><trkpt lat="45.314222664119136" lon="11.934735897630386"><ele>3.0</ele><time>2026-04-11T15:51:05Z</time></trkpt><trkpt lat="45.31436660842933" lon="11.934768819846633"><ele>3.0</ele><time>2026-04-11T15:51:06Z</time></trkpt><trkpt lat="45.31450488048648" lon="11.934800444739981"><ele>3.0</ele><time>2026-04-11T15:51:07Z</time></trkpt><trkpt lat="45.31464559962201" lon="11.934832629313817"><ele>3.0</ele><time>2026-04-11T15:51:08Z</time></trkpt><trkpt lat="45.314788124319605" lon="11.934865617705707"><ele>3.5</ele><time>2026-04-11T15:51:09Z</time></trkpt><trkpt lat="45.31493077398538" lon="11.93490267637103"><ele>4.0</ele><time>2026-04-11T15:51:10Z</time></trkpt><trkpt lat="45.31506892402086" lon="11.934944548168078"><ele>4.5</ele><time>2026-04-11T15:51:11Z</time></trkpt><trkpt lat="45.31520754124242" lon="11.934998640273573"><ele>5.0</ele><time>2026-04-11T15:51:12Z</time></trkpt><trkpt lat="45.31534746810894" lon="11.93504268119263"><ele>4.75</ele><time>2026-04-11T15:51:13Z</time></trkpt><trkpt lat="45.31547151848555" lon="11.935146065860591"><ele>4.5</ele><time>2026-04-11T15:51:14Z</time></trkpt><trkpt lat="45.31559822841436" lon="11.935242726559375"><ele>4.25</ele><time>2026-04-11T15:51:15Z</time></trkpt><trkpt lat="45.315721434374574" lon="11.935347365428997"><ele>4.0</ele><time>2026-04-11T15:51:16Z</time></trkpt><trkpt lat="45.31584143824024" lon="11.935461445262177"><ele>4.0</ele><time>2026-04-11T15:51:17Z</time></trkpt><trkpt lat="45.315960665890216" lon="11.935569811728389"><ele>4.0</ele><time>2026-04-11T15:51:18Z</time></trkpt><trkpt lat="45.31606147801314" lon="11.93572088451149"><ele>4.0</ele><time>2026-04-11T15:51:19Z</time></trkpt><trkpt lat="45.31616183275987" lon="11.935865517001172"><ele>4.0</ele><time>2026-04-11T15:51:20Z</time></trkpt><trkpt lat="45.316259821349334" lon="11.936019986979002"><ele>4.0</ele><time>2026-04-11T15:51:21Z</time></trkpt><trkpt lat="45.31635112316423" lon="11.936178538531275"><ele>4.0</ele><time>2026-04-11T15:51:22Z</time></trkpt><trkpt lat="45.31643811155822" lon="11.936338616157416"><ele>4.0</ele><time>2026-04-11T15:51:23Z</time></trkpt><trkpt lat="45.316526692132776" lon="11.93650613914005"><ele>4.0</ele><time>2026-04-11T15:51:24Z</time></trkpt><trkpt lat="45.31661192733215" lon="11.936668138744281"><ele>4.0</ele><time>2026-04-11T15:51:25Z</time></trkpt><trkpt lat="45.31669649676898" lon="11.93683050662202"><ele>4.0</ele><time>2026-04-11T15:51:26Z</time></trkpt><trkpt lat="45.31678155389297" lon="11.936996207207265"><ele>4.0</ele><time>2026-04-11T15:51:27Z</time></trkpt><trkpt lat="45.31686913217408" lon="11.937161247079887"><ele>4.0</ele><time>2026-04-11T15:51:28Z</time></trkpt><trkpt lat="45.31695829194997" lon="11.937328049091027"><ele>4.0</ele><time>2026-04-11T15:51:29Z</time></trkpt><trkpt lat="45.317054700465505" lon="11.937480153418603"><ele>4.0</ele><time>2026-04-11T15:51:30Z</time></trkpt><trkpt lat="45.31713748770295" lon="11.937642773160174"><ele>4.0</ele><time>2026-04-11T15:51:31Z</time></trkpt><trkpt lat="45.317227489252566" lon="11.937805662595624"><ele>4.0</ele><time>2026-04-11T15:51:32Z</time></trkpt><trkpt lat="45.31732246809845" lon="11.937960114011473"><ele>4.0</ele><time>2026-04-11T15:51:33Z</time></trkpt><trkpt lat="45.3174270932172" lon="11.93810634251283"><ele>4.0</ele><time>2026-04-11T15:51:34Z</time></trkpt><trkpt lat="45.31753590960089" lon="11.938240648911593"><ele>4.0</ele><time>2026-04-11T15:51:35Z</time></trkpt><trkpt lat="45.31765266390284" lon="11.938363384751145"><ele>4.0</ele><time>2026-04-11T15:51:36Z</time></trkpt><trkpt lat="45.31777356157387" lon="11.938479764257846"><ele>4.0</ele><time>2026-04-11T15:51:37Z</time></trkpt><trkpt lat="45.31789860295981" lon="11.938586279754139"><ele>4.0</ele><time>2026-04-11T15:51:38Z</time></trkpt><trkpt lat="45.3180245895885" lon="11.93869286975927"><ele>4.0</ele><time>2026-04-11T15:51:39Z</time></trkpt><trkpt lat="45.31814785040778" lon="11.938786765438065"><ele>4.0</ele><time>2026-04-11T15:51:40Z</time></trkpt><trkpt lat="45.318268978158386" lon="11.938902101758877"><ele>4.0</ele><time>2026-04-11T15:51:41Z</time></trkpt><trkpt lat="45.318397935588195" lon="11.939003502906154"><ele>4.0</ele><time>2026-04-11T15:51:42Z</time></trkpt><trkpt lat="45.318522071058574" lon="11.939103334639796"><ele>4.0</ele><time>2026-04-11T15:51:43Z</time></trkpt><trkpt lat="45.318649839627064" lon="11.939206149480478"><ele>4.0</ele><time>2026-04-11T15:51:44Z</time></trkpt><trkpt lat="45.31877507693727" lon="11.939305966036125"><ele>4.25</ele><time>2026-04-11T15:51:45Z</time></trkpt><trkpt lat="45.318901111357754" lon="11.93940618372751"><ele>4.5</ele><time>2026-04-11T15:51:46Z</time></trkpt><trkpt lat="45.31903090863979" lon="11.939510993262907"><ele>4.75</ele><time>2026-04-11T15:51:47Z</time></trkpt><trkpt lat="45.31915110958728" lon="11.939611410004723"><ele>5.0</ele><time>2026-04-11T15:51:48Z</time></trkpt><trkpt lat="45.31927240347776" lon="11.939721995142552"><ele>5.0</ele><time>2026-04-11T15:51:49Z</time></trkpt><trkpt lat="45.31938978824189" lon="11.93983409779292"><ele>5.0</ele><time>2026-04-11T15:51:50Z</time></trkpt><trkpt lat="45.319508577042825" lon="11.939949816275163"><ele>5.0</ele><time>2026-04-11T15:51:51Z</time></trkpt><trkpt lat="45.31962759130193" lon="11.940069263666386"><ele>5.0</ele><time>2026-04-11T15:51:52Z</time></trkpt><trkpt lat="45.31975515629338" lon="11.940176023793427"><ele>5.0</ele><time>2026-04-11T15:51:53Z</time></trkpt><trkpt lat="45.31986053674561" lon="11.940327629126951"><ele>5.0</ele><time>2026-04-11T15:51:54Z</time></trkpt><trkpt lat="45.31996857901503" lon="11.94045861520543"><ele>5.0</ele><time>2026-04-11T15:51:55Z</time></trkpt><trkpt lat="45.32007588054558" lon="11.940595088339231"><ele>5.0</ele><time>2026-04-11T15:51:56Z</time></trkpt><trkpt lat="45.320178956561584" lon="11.940736300079989"><ele>5.0</ele><time>2026-04-11T15:51:57Z</time></trkpt><trkpt lat="45.32028001234113" lon="11.940883960998018"><ele>5.0</ele><time>2026-04-11T15:51:58Z</time></trkpt><trkpt lat="45.320394418845666" lon="11.941014129942424"><ele>5.0</ele><time>2026-04-11T15:51:59Z</time></trkpt><trkpt lat="45.320499559507226" lon="11.94115310371831"><ele>5.0</ele><time>2026-04-11T15:52:00Z</time></trkpt><trkpt lat="45.320612665020604" lon="11.94128419383206"><ele>4.75</ele><time>2026-04-11T15:52:01Z</time></trkpt><trkpt lat="45.32073805932625" lon="11.941391562569105"><ele>4.5</ele><time>2026-04-11T15:52:02Z</time></trkpt><trkpt lat="45.320863274380365" lon="11.941487100825812"><ele>4.25</ele><time>2026-04-11T15:52:03Z</time></trkpt><trkpt lat="45.32099644375799" lon="11.941567546336907"><ele>4.0</ele><time>2026-04-11T15:52:04Z</time></trkpt><trkpt lat="45.32112965050736" lon="11.941656546224085"><ele>4.0</ele><time>2026-04-11T15:52:05Z</time></trkpt><trkpt lat="45.32127291044378" lon="11.941705956619376"><ele>4.0</ele><time>2026-04-11T15:52:06Z</time></trkpt><trkpt lat="45.3214061995611" lon="11.941812238460672"><ele>4.0</ele><time>2026-04-11T15:52:07Z</time></trkpt><trkpt lat="45.32155742383127" lon="11.941834672880535"><ele>3.6666666666666665</ele><time>2026-04-11T15:52:08Z</time></trkpt><trkpt lat="45.32171378895542" lon="11.941705965445665"><ele>3.333333333333333</ele><time>2026-04-11T15:52:09Z</time></trkpt><trkpt lat="45.32185586808285" lon="11.941687342500698"><ele>3.0</ele><time>2026-04-11T15:52:10Z</time></trkpt><trkpt lat="45.322001002574304" lon="11.94166717036481"><ele>3.0</ele><time>2026-04-11T15:52:11Z</time></trkpt><trkpt lat="45.32214443608795" lon="11.941646452453424"><ele>3.0</ele><time>2026-04-11T15:52:12Z</time></trkpt><trkpt lat="45.32229294008616" lon="11.941628183842555"><ele>3.0</ele><time>2026-04-11T15:52:13Z</time></trkpt><trkpt lat="45.32243660986535" lon="11.941651192634508"><ele>3.0</ele><time>2026-04-11T15:52:14Z</time></trkpt><trkpt lat="45.322579997054916" lon="11.941636586876003"><ele>3.0</ele><time>2026-04-11T15:52:15Z</time></trkpt><trkpt lat="45.32272573966957" lon="11.941621450274823"><ele>3.0</ele><time>2026-04-11T15:52:16Z</time></trkpt><trkpt lat="45.322870201001706" lon="11.941606809403215"><ele>3.0</ele><time>2026-04-11T15:52:17Z</time></trkpt><trkpt lat="45.32301397211011" lon="11.94159405122779"><ele>3.0</ele><time>2026-04-11T15:52:18Z</time></trkpt><trkpt lat="45.32314409204421" lon="11.941591086792366"><ele>3.0</ele><time>2026-04-11T15:52:19Z</time></trkpt><trkpt lat="45.32326109606291" lon="11.941622716632116"><ele>3.0</ele><time>2026-04-11T15:52:20Z</time></trkpt><trkpt lat="45.32337932845041" lon="11.94168351270048"><ele>3.0</ele><time>2026-04-11T15:52:21Z</time></trkpt><trkpt lat="45.323510393782605" lon="11.94174566701663"><ele>3.0</ele><time>2026-04-11T15:52:22Z</time></trkpt><trkpt lat="45.32363793871094" lon="11.94180998687538"><ele>3.0</ele><time>2026-04-11T15:52:23Z</time></trkpt><trkpt lat="45.32376536897308" lon="11.941876777317965"><ele>3.0</ele><time>2026-04-11T15:52:24Z</time></trkpt><trkpt lat="45.32388829061618" lon="11.941957135464097"><ele>3.0</ele><time>2026-04-11T15:52:25Z</time></trkpt><trkpt lat="45.324009588953516" lon="11.942057528947753"><ele>3.0</ele><time>2026-04-11T15:52:26Z</time></trkpt><trkpt lat="45.3241296299961" lon="11.94217346611696"><ele>3.0</ele><time>2026-04-11T15:52:27Z</time></trkpt><trkpt lat="45.3242433957068" lon="11.942294211844633"><ele>3.0</ele><time>2026-04-11T15:52:28Z</time></trkpt><trkpt lat="45.324346422379016" lon="11.942416247713782"><ele>3.0</ele><time>2026-04-11T15:52:29Z</time></trkpt><trkpt lat="45.324446930187726" lon="11.9425475916007"><ele>3.0</ele><time>2026-04-11T15:52:30Z</time></trkpt><trkpt lat="45.324552682119986" lon="11.942685696255541"><ele>3.25</ele><time>2026-04-11T15:52:31Z</time></trkpt><trkpt lat="45.32467271574023" lon="11.94280465569568"><ele>3.5</ele><time>2026-04-11T15:52:32Z</time></trkpt><trkpt lat="45.324788178124635" lon="11.942931460350673"><ele>3.75</ele><time>2026-04-11T15:52:33Z</time></trkpt><trkpt lat="45.32489608582601" lon="11.943056284053451"><ele>4.0</ele><time>2026-04-11T15:52:34Z</time></trkpt><trkpt lat="45.32501720197898" lon="11.943165263547106"><ele>4.0</ele><time>2026-04-11T15:52:35Z</time></trkpt><trkpt lat="45.32513817437812" lon="11.9432761515064"><ele>4.0</ele><time>2026-04-11T15:52:36Z</time></trkpt><trkpt lat="45.32525768602635" lon="11.943377700202687"><ele>4.0</ele><time>2026-04-11T15:52:37Z</time></trkpt><trkpt lat="45.32538721495687" lon="11.943447646457393"><ele>4.0</ele><time>2026-04-11T15:52:38Z</time></trkpt><trkpt lat="45.32550399817682" lon="11.94351890770632"><ele>4.0</ele><time>2026-04-11T15:52:39Z</time></trkpt><trkpt lat="45.32563116177756" lon="11.943602673370465"><ele>4.0</ele><time>2026-04-11T15:52:40Z</time></trkpt><trkpt lat="45.3257635689387" lon="11.943667474502995"><ele>4.0</ele><time>2026-04-11T15:52:41Z</time></trkpt><trkpt lat="45.325892459392705" lon="11.943724445134176"><ele>4.0</ele><time>2026-04-11T15:52:42Z</time></trkpt><trkpt lat="45.32601966337785" lon="11.943781984983485"><ele>4.0</ele><time>2026-04-11T15:52:43Z</time></trkpt><trkpt lat="45.32613578177949" lon="11.943834510339101"><ele>4.0</ele><time>2026-04-11T15:52:44Z</time></trkpt><trkpt lat="45.32625284692324" lon="11.94388746418592"><ele>4.0</ele><time>2026-04-11T15:52:45Z</time></trkpt><trkpt lat="45.32637900510653" lon="11.943946811193342"><ele>4.0</ele><time>2026-04-11T15:52:46Z</time></trkpt><trkpt lat="45.32650782460383" lon="11.944010083871886"><ele>4.0</ele><time>2026-04-11T15:52:47Z</time></trkpt><trkpt lat="45.32664092711438" lon="11.944080507411439"><ele>4.0</ele><time>2026-04-11T15:52:48Z</time></trkpt><trkpt lat="45.326777223531415" lon="11.944157393466066"><ele>4.0</ele><time>2026-04-11T15:52:49Z</time></trkpt><trkpt lat="45.326914562183575" lon="11.944240003586131"><ele>4.0</ele><time>2026-04-11T15:52:50Z</time></trkpt><trkpt lat="45.32704092626238" lon="11.944337894480588"><ele>3.75</ele><time>2026-04-11T15:52:51Z</time></trkpt><trkpt lat="45.32715557009912" lon="11.94445654476031"><ele>3.5</ele><time>2026-04-11T15:52:52Z</time></trkpt><trkpt lat="45.32725054080014" lon="11.944597514708864"><ele>3.25</ele><time>2026-04-11T15:52:53Z</time></trkpt><trkpt lat="45.32734419185269" lon="11.94474677359344"><ele>3.0</ele><time>2026-04-11T15:52:54Z</time></trkpt><trkpt lat="45.32743608255998" lon="11.944889534837754"><ele>3.0</ele><time>2026-04-11T15:52:55Z</time></trkpt><trkpt lat="45.3275445466834" lon="11.945014802905117"><ele>3.0</ele><time>2026-04-11T15:52:56Z</time></trkpt><trkpt lat="45.327653816361874" lon="11.945146908816913"><ele>3.0</ele><time>2026-04-11T15:52:57Z</time></trkpt><trkpt lat="45.32776775586224" lon="11.945267746988371"><ele>3.0</ele><time>2026-04-11T15:52:58Z</time></trkpt><trkpt lat="45.327886444582305" lon="11.94537830139802"><ele>3.0</ele><time>2026-04-11T15:52:59Z</time></trkpt><trkpt lat="45.32799817005347" lon="11.945469125760152"><ele>3.0</ele><time>2026-04-11T15:53:00Z</time></trkpt><trkpt lat="45.32810840435639" lon="11.945533731569528"><ele>3.0</ele><time>2026-04-11T15:53:01Z</time></trkpt><trkpt lat="45.32822100340971" lon="11.945593514573583"><ele>3.0</ele><time>2026-04-11T15:53:02Z</time></trkpt><trkpt lat="45.32835362491459" lon="11.945579942841205"><ele>3.5</ele><time>2026-04-11T15:53:03Z</time></trkpt><trkpt lat="45.32848185245387" lon="11.945558371614137"><ele>4.0</ele><time>2026-04-11T15:53:04Z</time></trkpt><trkpt lat="45.32861157156803" lon="11.945504301827016"><ele>4.5</ele><time>2026-04-11T15:53:05Z</time></trkpt><trkpt lat="45.328746485110905" lon="11.945458677357113"><ele>5.0</ele><time>2026-04-11T15:53:06Z</time></trkpt><trkpt lat="45.32888015014048" lon="11.945392777434202"><ele>4.75</ele><time>2026-04-11T15:53:07Z</time></trkpt><trkpt lat="45.3290105891261" lon="11.945332992915375"><ele>4.5</ele><time>2026-04-11T15:53:08Z</time></trkpt><trkpt lat="45.32913974621615" lon="11.945285476084257"><ele>4.25</ele><time>2026-04-11T15:53:09Z</time></trkpt><trkpt lat="45.32926884961294" lon="11.945277997164993"><ele>4.0</ele><time>2026-04-11T15:53:10Z</time></trkpt><trkpt lat="45.329404042276764" lon="11.945293906848411"><ele>4.0</ele><time>2026-04-11T15:53:11Z</time></trkpt><trkpt lat="45.32954657124181" lon="11.945317632998242"><ele>4.0</ele><time>2026-04-11T15:53:12Z</time></trkpt><trkpt lat="45.329698294135" lon="11.945323812895383"><ele>4.0</ele><time>2026-04-11T15:53:13Z</time></trkpt><trkpt lat="45.32984044771201" lon="11.94529847254278"><ele>4.0</ele><time>2026-04-11T15:53:14Z</time></trkpt><trkpt lat="45.32998915917675" lon="11.945328975926879"><ele>4.0</ele><time>2026-04-11T15:53:15Z</time></trkpt><trkpt lat="45.33013537919376" lon="11.945344880714575"><ele>4.0</ele><time>2026-04-11T15:53:16Z</time></trkpt><trkpt lat="45.330275281152346" lon="11.945357896722589"><ele>4.0</ele><time>2026-04-11T15:53:17Z</time></trkpt><trkpt lat="45.33041706989266" lon="11.945371088293447"><ele>4.0</ele><time>2026-04-11T15:53:18Z</time></trkpt><trkpt lat="45.33055908502099" lon="11.945385527088167"><ele>4.0</ele><time>2026-04-11T15:53:19Z</time></trkpt><trkpt lat="45.3307019048529" lon="11.945402063535765"><ele>4.0</ele><time>2026-04-11T15:53:20Z</time></trkpt><trkpt lat="45.330842129176204" lon="11.945419636067474"><ele>4.0</ele><time>2026-04-11T15:53:21Z</time></trkpt><trkpt lat="45.33098452230042" lon="11.945437480369938"><ele>4.0</ele><time>2026-04-11T15:53:22Z</time></trkpt><trkpt lat="45.33112784123666" lon="11.945455440725635"><ele>4.0</ele><time>2026-04-11T15:53:23Z</time></trkpt><trkpt lat="45.33127514797155" lon="11.945473900814214"><ele>4.0</ele><time>2026-04-11T15:53:24Z</time></trkpt><trkpt lat="45.33141608406595" lon="11.945491562546929"><ele>4.0</ele><time>2026-04-11T15:53:25Z</time></trkpt><trkpt lat="45.33156082839879" lon="11.945509399803054"><ele>4.0</ele><time>2026-04-11T15:53:26Z</time></trkpt><trkpt lat="45.33170698440077" lon="11.945505006390345"><ele>3.5</ele><time>2026-04-11T15:53:27Z</time></trkpt><trkpt lat="45.331850767289055" lon="11.945529305042923"><ele>3.0</ele><time>2026-04-11T15:53:28Z</time></trkpt><trkpt lat="45.33199713312194" lon="11.945550417790999"><ele>2.5</ele><time>2026-04-11T15:53:29Z</time></trkpt><trkpt lat="45.33213832871376" lon="11.94556506703425"><ele>2.0</ele><time>2026-04-11T15:53:30Z</time></trkpt><trkpt lat="45.33228199172738" lon="11.945582577076133"><ele>2.0</ele><time>2026-04-11T15:53:31Z</time></trkpt><trkpt lat="45.332425205664585" lon="11.94559806176098"><ele>2.0</ele><time>2026-04-11T15:53:32Z</time></trkpt><trkpt lat="45.33256778979488" lon="11.945613435150815"><ele>2.0</ele><time>2026-04-11T15:53:33Z</time></trkpt><trkpt lat="45.33271320652629" lon="11.945662279594934"><ele>2.0</ele><time>2026-04-11T15:53:34Z</time></trkpt><trkpt lat="45.33285508659922" lon="11.945695088415341"><ele>2.0</ele><time>2026-04-11T15:53:35Z</time></trkpt><trkpt lat="45.33299384211911" lon="11.945734450908668"><ele>2.0</ele><time>2026-04-11T15:53:36Z</time></trkpt><trkpt lat="45.33313362593746" lon="11.94578168506692"><ele>2.0</ele><time>2026-04-11T15:53:37Z</time></trkpt><trkpt lat="45.333277560040976" lon="11.945808094655064"><ele>2.0</ele><time>2026-04-11T15:53:38Z</time></trkpt><trkpt lat="45.33342087076131" lon="11.94585932972592"><ele>2.25</ele><time>2026-04-11T15:53:39Z</time></trkpt><trkpt lat="45.3335601137562" lon="11.945895967005859"><ele>2.5</ele><time>2026-04-11T15:53:40Z</time></trkpt><trkpt lat="45.3337043340853" lon="11.945925023048991"><ele>2.75</ele><time>2026-04-11T15:53:41Z</time></trkpt><trkpt lat="45.33384820078399" lon="11.945942654752995"><ele>3.0</ele><time>2026-04-11T15:53:42Z</time></trkpt><trkpt lat="45.333989266318845" lon="11.945983590361077"><ele>3.25</ele><time>2026-04-11T15:53:43Z</time></trkpt><trkpt lat="45.33413737061912" lon="11.946003160268548"><ele>3.5</ele><time>2026-04-11T15:53:44Z</time></trkpt><trkpt lat="45.334279030481085" lon="11.946024600149784"><ele>3.75</ele><time>2026-04-11T15:53:45Z</time></trkpt><trkpt lat="45.33442205745419" lon="11.946050597007632"><ele>4.0</ele><time>2026-04-11T15:53:46Z</time></trkpt><trkpt lat="45.33456531583711" lon="11.94608025267432"><ele>4.0</ele><time>2026-04-11T15:53:47Z</time></trkpt><trkpt lat="45.33470858211749" lon="11.946111827654041"><ele>4.0</ele><time>2026-04-11T15:53:48Z</time></trkpt><trkpt lat="45.33485124207009" lon="11.946144151746967"><ele>4.0</ele><time>2026-04-11T15:53:49Z</time></trkpt><trkpt lat="45.334994068472504" lon="11.946176513559841"><ele>4.0</ele><time>2026-04-11T15:53:50Z</time></trkpt><trkpt lat="45.33513778792438" lon="11.946209077787447"><ele>3.75</ele><time>2026-04-11T15:53:51Z</time></trkpt><trkpt lat="45.33528011771316" lon="11.946237697327106"><ele>3.5</ele><time>2026-04-11T15:53:52Z</time></trkpt><trkpt lat="45.33542386636775" lon="11.946264076955202"><ele>3.25</ele><time>2026-04-11T15:53:53Z</time></trkpt><trkpt lat="45.33557023574345" lon="11.946289082924682"><ele>3.0</ele><time>2026-04-11T15:53:54Z</time></trkpt><trkpt lat="45.335712169832895" lon="11.946311630587044"><ele>2.75</ele><time>2026-04-11T15:53:55Z</time></trkpt><trkpt lat="45.33585563989502" lon="11.94632835103625"><ele>2.5</ele><time>2026-04-11T15:53:56Z</time></trkpt><trkpt lat="45.33599888755393" lon="11.946345174701753"><ele>2.25</ele><time>2026-04-11T15:53:57Z</time></trkpt><trkpt lat="45.33614462953093" lon="11.946362022194053"><ele>2.0</ele><time>2026-04-11T15:53:58Z</time></trkpt><trkpt lat="45.33628907448019" lon="11.946379683767516"><ele>2.5</ele><time>2026-04-11T15:53:59Z</time></trkpt><trkpt lat="45.33643271486914" lon="11.946398432974513"><ele>3.0</ele><time>2026-04-11T15:54:00Z</time></trkpt><trkpt lat="45.336577765104586" lon="11.946421587637486"><ele>3.5</ele><time>2026-04-11T15:54:01Z</time></trkpt><trkpt lat="45.33671524101997" lon="11.946451741091119"><ele>4.0</ele><time>2026-04-11T15:54:02Z</time></trkpt><trkpt lat="45.33685671773542" lon="11.946497179473017"><ele>4.0</ele><time>2026-04-11T15:54:03Z</time></trkpt><trkpt lat="45.33699535243713" lon="11.946551301550906"><ele>4.0</ele><time>2026-04-11T15:54:04Z</time></trkpt><trkpt lat="45.33713503531799" lon="11.946606243176998"><ele>4.0</ele><time>2026-04-11T15:54:05Z</time></trkpt><trkpt lat="45.33727614380271" lon="11.946658160504098"><ele>4.0</ele><time>2026-04-11T15:54:06Z</time></trkpt><trkpt lat="45.33741812136579" lon="11.946705300228917"><ele>4.0</ele><time>2026-04-11T15:54:07Z</time></trkpt><trkpt lat="45.337561056076574" lon="11.946744865428752"><ele>4.0</ele><time>2026-04-11T15:54:08Z</time></trkpt><trkpt lat="45.33770273971811" lon="11.946776217923667"><ele>4.0</ele><time>2026-04-11T15:54:09Z</time></trkpt><trkpt lat="45.33784780919523" lon="11.946803857114702"><ele>4.0</ele><time>2026-04-11T15:54:10Z</time></trkpt><trkpt lat="45.337992593758514" lon="11.946828277114891"><ele>3.75</ele><time>2026-04-11T15:54:11Z</time></trkpt><trkpt lat="45.33813527284385" lon="11.946850449741298"><ele>3.5</ele><time>2026-04-11T15:54:12Z</time></trkpt><trkpt lat="45.33828205533346" lon="11.946873260029886"><ele>3.25</ele><time>2026-04-11T15:54:13Z</time></trkpt><trkpt lat="45.33842622801667" lon="11.946894450459718"><ele>3.0</ele><time>2026-04-11T15:54:14Z</time></trkpt><trkpt lat="45.338568468239515" lon="11.946914579932201"><ele>3.0</ele><time>2026-04-11T15:54:15Z</time></trkpt><trkpt lat="45.33871277754967" lon="11.946935001954591"><ele>3.0</ele><time>2026-04-11T15:54:16Z</time></trkpt><trkpt lat="45.33885713690796" lon="11.946957577299004"><ele>3.0</ele><time>2026-04-11T15:54:17Z</time></trkpt><trkpt lat="45.33900362911722" lon="11.946983034640805"><ele>3.0</ele><time>2026-04-11T15:54:18Z</time></trkpt><trkpt lat="45.339143861718945" lon="11.947010687017585"><ele>3.25</ele><time>2026-04-11T15:54:19Z</time></trkpt><trkpt lat="45.339271798028896" lon="11.947039466936369"><ele>3.5</ele><time>2026-04-11T15:54:20Z</time></trkpt><trkpt lat="45.339394488311" lon="11.947068555234877"><ele>3.75</ele><time>2026-04-11T15:54:21Z</time></trkpt><trkpt lat="45.339520037102496" lon="11.94709618699119"><ele>4.0</ele><time>2026-04-11T15:54:22Z</time></trkpt><trkpt lat="45.33965610152461" lon="11.947124795095096"><ele>4.25</ele><time>2026-04-11T15:54:23Z</time></trkpt><trkpt lat="45.339804897476206" lon="11.94712863824827"><ele>4.5</ele><time>2026-04-11T15:54:24Z</time></trkpt><trkpt lat="45.33995490225326" lon="11.947143505109056"><ele>4.75</ele><time>2026-04-11T15:54:25Z</time></trkpt><trkpt lat="45.34010081009922" lon="11.94714606180731"><ele>5.0</ele><time>2026-04-11T15:54:26Z</time></trkpt><trkpt lat="45.34023314149275" lon="11.947151287846937"><ele>5.0</ele><time>2026-04-11T15:54:27Z</time></trkpt><trkpt lat="45.34036199888954" lon="11.947174879803988"><ele>5.0</ele><time>2026-04-11T15:54:28Z</time></trkpt><trkpt lat="45.3404789754721" lon="11.94718532797016"><ele>5.0</ele><time>2026-04-11T15:54:29Z</time></trkpt><trkpt lat="45.34058695042992" lon="11.94720157641745"><ele>5.0</ele><time>2026-04-11T15:54:30Z</time></trkpt><trkpt lat="45.340692037781906" lon="11.947224048597151"><ele>5.0</ele><time>2026-04-11T15:54:31Z</time></trkpt><trkpt lat="45.34078954651693" lon="11.947249784965821"><ele>5.0</ele><time>2026-04-11T15:54:32Z</time></trkpt><trkpt lat="45.34088509698573" lon="11.94727924461061"><ele>5.0</ele><time>2026-04-11T15:54:33Z</time></trkpt><trkpt lat="45.340982966656554" lon="11.947295114248325"><ele>5.0</ele><time>2026-04-11T15:54:34Z</time></trkpt><trkpt lat="45.34107821738969" lon="11.947329539882539"><ele>5.0</ele><time>2026-04-11T15:54:35Z</time></trkpt><trkpt lat="45.341172278846415" lon="11.947367029641867"><ele>5.0</ele><time>2026-04-11T15:54:36Z</time></trkpt><trkpt lat="45.34127247643246" lon="11.947401131382598"><ele>5.0</ele><time>2026-04-11T15:54:37Z</time></trkpt><trkpt lat="45.34136831368468" lon="11.947452145584752"><ele>5.0</ele><time>2026-04-11T15:54:38Z</time></trkpt><trkpt lat="45.341467320101735" lon="11.947474612592758"><ele>5.0</ele><time>2026-04-11T15:54:39Z</time></trkpt><trkpt lat="45.34157016194433" lon="11.947483721556937"><ele>5.0</ele><time>2026-04-11T15:54:40Z</time></trkpt><trkpt lat="45.3416817698091" lon="11.947487103188523"><ele>4.6</ele><time>2026-04-11T15:54:41Z</time></trkpt><trkpt lat="45.341786008236575" lon="11.947487103188417"><ele>4.2</ele><time>2026-04-11T15:54:42Z</time></trkpt><trkpt lat="45.34188165819703" lon="11.947489096938371"><ele>3.8</ele><time>2026-04-11T15:54:43Z</time></trkpt><trkpt lat="45.34197606639133" lon="11.947492573341268"><ele>3.4</ele><time>2026-04-11T15:54:44Z</time></trkpt><trkpt lat="45.34206310888707" lon="11.947501499516516"><ele>3.0</ele><time>2026-04-11T15:54:45Z</time></trkpt><trkpt lat="45.34214190755613" lon="11.94751818892741"><ele>3.0</ele><time>2026-04-11T15:54:46Z</time></trkpt><trkpt lat="45.34221475485067" lon="11.947539683091064"><ele>3.0</ele><time>2026-04-11T15:54:47Z</time></trkpt><trkpt lat="45.34228830275181" lon="11.947577906407586"><ele>3.0</ele><time>2026-04-11T15:54:47.999Z</time></trkpt><trkpt lat="45.34236772377922" lon="11.947624317606381"><ele>3.0</ele><time>2026-04-11T15:54:48.999Z</time></trkpt><trkpt lat="45.34245232564459" lon="11.947652838887281"><ele>3.0</ele><time>2026-04-11T15:54:49.999Z</time></trkpt><trkpt lat="45.342533687377305" lon="11.947695360601738"><ele>3.0</ele><time>2026-04-11T15:54:50.999Z</time></trkpt><trkpt lat="45.34261984142164" lon="11.947718741700669"><ele>3.0</ele><time>2026-04-11T15:54:52Z</time></trkpt><trkpt lat="45.342718121647124" lon="11.94772889025266"><ele>3.0</ele><time>2026-04-11T15:54:53Z</time></trkpt><trkpt lat="45.34282456767414" lon="11.947754525444692"><ele>3.0</ele><time>2026-04-11T15:54:54Z</time></trkpt><trkpt lat="45.3429354605075" lon="11.947755678618975"><ele>3.0</ele><time>2026-04-11T15:54:55Z</time></trkpt><trkpt lat="45.34303666682748" lon="11.947756003960988"><ele>3.0</ele><time>2026-04-11T15:54:56Z</time></trkpt><trkpt lat="45.34312480581959" lon="11.947756287296498"><ele>3.3333333333333335</ele><time>2026-04-11T15:54:57Z</time></trkpt><trkpt lat="45.34320755432665" lon="11.947756553303025"><ele>3.666666666666667</ele><time>2026-04-11T15:54:58Z</time></trkpt><trkpt lat="45.3432860445321" lon="11.94775575835668"><ele>4.0</ele><time>2026-04-11T15:54:59Z</time></trkpt><trkpt lat="45.343354564829596" lon="11.94775371411949"><ele>4.333333333333334</ele><time>2026-04-11T15:55:00Z</time></trkpt><trkpt lat="45.34344840652488" lon="11.947760661554522"><ele>4.666666666666667</ele><time>2026-04-11T15:55:02Z</time></trkpt><trkpt lat="45.34349331779405" lon="11.947892717125352"><ele>5.0</ele><time>2026-04-11T15:55:03Z</time></trkpt><trkpt lat="45.34351993048434" lon="11.948025111788832"><ele>5.0</ele><time>2026-04-11T15:55:04Z</time></trkpt><trkpt lat="45.34353499664327" lon="11.94817229597418"><ele>5.0</ele><time>2026-04-11T15:55:05Z</time></trkpt><trkpt lat="45.34354772676784" lon="11.94833584941321"><ele>5.0</ele><time>2026-04-11T15:55:06Z</time></trkpt><trkpt lat="45.34355509298122" lon="11.948499715823695"><ele>5.0</ele><time>2026-04-11T15:55:07Z</time></trkpt><trkpt lat="45.3435501711438" lon="11.948666570190719"><ele>4.75</ele><time>2026-04-11T15:55:08Z</time></trkpt><trkpt lat="45.34353775802972" lon="11.948840605170036"><ele>4.5</ele><time>2026-04-11T15:55:09Z</time></trkpt><trkpt lat="45.34352645835821" lon="11.949009597594806"><ele>4.25</ele><time>2026-04-11T15:55:10Z</time></trkpt><trkpt lat="45.343509957145415" lon="11.949165539366813"><ele>4.0</ele><time>2026-04-11T15:55:11Z</time></trkpt><trkpt lat="45.34349118143279" lon="11.949329371826732"><ele>4.0</ele><time>2026-04-11T15:55:12Z</time></trkpt><trkpt lat="45.34347071127809" lon="11.949493185321549"><ele>4.0</ele><time>2026-04-11T15:55:13Z</time></trkpt><trkpt lat="45.343450186349266" lon="11.949655685057627"><ele>4.0</ele><time>2026-04-11T15:55:14Z</time></trkpt><trkpt lat="45.343429075103835" lon="11.949817315604964"><ele>4.0</ele><time>2026-04-11T15:55:15Z</time></trkpt><trkpt lat="45.343408271497786" lon="11.9499796898306"><ele>3.5</ele><time>2026-04-11T15:55:16Z</time></trkpt><trkpt lat="45.343386067264674" lon="11.950149086451507"><ele>3.0</ele><time>2026-04-11T15:55:17Z</time></trkpt><trkpt lat="45.343361212341634" lon="11.950320658710272"><ele>2.5</ele><time>2026-04-11T15:55:18Z</time></trkpt><trkpt lat="45.34333499132492" lon="11.950505189492924"><ele>2.0</ele><time>2026-04-11T15:55:19Z</time></trkpt><trkpt lat="45.34330784879403" lon="11.950696233493325"><ele>2.0</ele><time>2026-04-11T15:55:20Z</time></trkpt><trkpt lat="45.34329051893634" lon="11.95089342924299"><ele>2.0</ele><time>2026-04-11T15:55:21Z</time></trkpt><trkpt lat="45.343286621483394" lon="11.95108161844843"><ele>2.0</ele><time>2026-04-11T15:55:22Z</time></trkpt><trkpt lat="45.34330549134698" lon="11.951273852932246"><ele>2.0</ele><time>2026-04-11T15:55:23Z</time></trkpt><trkpt lat="45.3433403125971" lon="11.95146692723623"><ele>2.0</ele><time>2026-04-11T15:55:24Z</time></trkpt><trkpt lat="45.34337714673082" lon="11.95166928335183"><ele>2.0</ele><time>2026-04-11T15:55:25Z</time></trkpt><trkpt lat="45.343412908018394" lon="11.951870777772335"><ele>2.0</ele><time>2026-04-11T15:55:26Z</time></trkpt><trkpt lat="45.343439728426986" lon="11.95207434717398"><ele>2.0</ele><time>2026-04-11T15:55:27Z</time></trkpt><trkpt lat="45.343438389648554" lon="11.952279085709904"><ele>2.0</ele><time>2026-04-11T15:55:28Z</time></trkpt><trkpt lat="45.34344037710873" lon="11.95247921931689"><ele>2.0</ele><time>2026-04-11T15:55:29Z</time></trkpt><trkpt lat="45.34344236371245" lon="11.952677342019221"><ele>2.0</ele><time>2026-04-11T15:55:30Z</time></trkpt><trkpt lat="45.343455742328054" lon="11.952879540403268"><ele>2.0</ele><time>2026-04-11T15:55:31Z</time></trkpt><trkpt lat="45.34345188562229" lon="11.953088193771016"><ele>2.5</ele><time>2026-04-11T15:55:32Z</time></trkpt><trkpt lat="45.343448755711115" lon="11.953296864395458"><ele>3.0</ele><time>2026-04-11T15:55:33Z</time></trkpt><trkpt lat="45.34345106815481" lon="11.953495131183551"><ele>3.5</ele><time>2026-04-11T15:55:34Z</time></trkpt><trkpt lat="45.3434445839545" lon="11.953704584880452"><ele>4.0</ele><time>2026-04-11T15:55:35Z</time></trkpt><trkpt lat="45.34342935176763" lon="11.953912458425634"><ele>4.0</ele><time>2026-04-11T15:55:36Z</time></trkpt><trkpt lat="45.343414573725894" lon="11.954121389861681"><ele>4.0</ele><time>2026-04-11T15:55:37Z</time></trkpt><trkpt lat="45.34340415344094" lon="11.954325606008833"><ele>4.0</ele><time>2026-04-11T15:55:38Z</time></trkpt><trkpt lat="45.34339571852139" lon="11.954524316462377"><ele>4.0</ele><time>2026-04-11T15:55:39Z</time></trkpt><trkpt lat="45.34339294535368" lon="11.954730549620907"><ele>4.5</ele><time>2026-04-11T15:55:40Z</time></trkpt><trkpt lat="45.34338504566384" lon="11.954935400585374"><ele>5.0</ele><time>2026-04-11T15:55:41Z</time></trkpt><trkpt lat="45.343361586373405" lon="11.955144712609371"><ele>5.5</ele><time>2026-04-11T15:55:42Z</time></trkpt><trkpt lat="45.34332048707084" lon="11.955340464775208"><ele>6.0</ele><time>2026-04-11T15:55:43Z</time></trkpt><trkpt lat="45.34326659565762" lon="11.955525227508256"><ele>6.25</ele><time>2026-04-11T15:55:44Z</time></trkpt><trkpt lat="45.34321694906111" lon="11.955718993333463"><ele>6.5</ele><time>2026-04-11T15:55:45Z</time></trkpt><trkpt lat="45.34318343004116" lon="11.955913948729407"><ele>6.75</ele><time>2026-04-11T15:55:46Z</time></trkpt><trkpt lat="45.343165558036354" lon="11.956097312702303"><ele>7.0</ele><time>2026-04-11T15:55:47Z</time></trkpt><trkpt lat="45.34316319401921" lon="11.956260328906069"><ele>7.0</ele><time>2026-04-11T15:55:48Z</time></trkpt><trkpt lat="45.343157619754656" lon="11.956417711714565"><ele>6.999999999999999</ele><time>2026-04-11T15:55:49Z</time></trkpt><trkpt lat="45.34315095837363" lon="11.956565943985257"><ele>6.999999999999999</ele><time>2026-04-11T15:55:50Z</time></trkpt><trkpt lat="45.34315023632508" lon="11.956703613129882"><ele>7.0</ele><time>2026-04-11T15:55:51Z</time></trkpt><trkpt lat="45.34315585328278" lon="11.956831911523517"><ele>7.0</ele><time>2026-04-11T15:55:52Z</time></trkpt><trkpt lat="45.34315171150272" lon="11.95695929389185"><ele>7.0</ele><time>2026-04-11T15:55:53Z</time></trkpt><trkpt lat="45.34315466512935" lon="11.95707602623092"><ele>6.999999999999999</ele><time>2026-04-11T15:55:54Z</time></trkpt><trkpt lat="45.343218993721784" lon="11.957205181377516"><ele>6.999999999999999</ele><time>2026-04-11T15:55:56Z</time></trkpt><trkpt lat="45.343354306743834" lon="11.957211540806782"><ele>7.0</ele><time>2026-04-11T15:55:58Z</time></trkpt><trkpt lat="45.34344409495424" lon="11.9572058302895"><ele>7.0</ele><time>2026-04-11T15:55:59Z</time></trkpt><trkpt lat="45.34354902300513" lon="11.957231898701624"><ele>7.0</ele><time>2026-04-11T15:56:00Z</time></trkpt><trkpt lat="45.34365914436465" lon="11.957284000811793"><ele>7.0</ele><time>2026-04-11T15:56:01Z</time></trkpt><trkpt lat="45.34376831549162" lon="11.957334127530073"><ele>7.0</ele><time>2026-04-11T15:56:02Z</time></trkpt><trkpt lat="45.34388706987825" lon="11.957375803871468"><ele>7.0</ele><time>2026-04-11T15:56:03Z</time></trkpt><trkpt lat="45.34401370082454" lon="11.957419602010598"><ele>7.25</ele><time>2026-04-11T15:56:04Z</time></trkpt><trkpt lat="45.34414186135588" lon="11.95746088107022"><ele>7.5</ele><time>2026-04-11T15:56:05Z</time></trkpt><trkpt lat="45.344258696720786" lon="11.957523318141531"><ele>7.75</ele><time>2026-04-11T15:56:06Z</time></trkpt><trkpt lat="45.34437871430007" lon="11.957543383859027"><ele>8.0</ele><time>2026-04-11T15:56:07Z</time></trkpt><trkpt lat="45.34449592126362" lon="11.957592102846382"><ele>8.0</ele><time>2026-04-11T15:56:08Z</time></trkpt><trkpt lat="45.34460775768547" lon="11.957651886956663"><ele>8.0</ele><time>2026-04-11T15:56:09Z</time></trkpt><trkpt lat="45.34471250483723" lon="11.957726918397446"><ele>8.0</ele><time>2026-04-11T15:56:10Z</time></trkpt><trkpt lat="45.3448044795504" lon="11.957809380671144"><ele>8.0</ele><time>2026-04-11T15:56:11Z</time></trkpt><trkpt lat="45.34489853707831" lon="11.957895337415009"><ele>7.833333333333333</ele><time>2026-04-11T15:56:12Z</time></trkpt><trkpt lat="45.34497496018499" lon="11.957975724405145"><ele>7.666666666666666</ele><time>2026-04-11T15:56:13Z</time></trkpt><trkpt lat="45.345039685774694" lon="11.95806436248965"><ele>7.5</ele><time>2026-04-11T15:56:14Z</time></trkpt><trkpt lat="45.34508409851992" lon="11.95815856920635"><ele>7.333333333333334</ele><time>2026-04-11T15:56:15Z</time></trkpt><trkpt lat="45.34513440598157" lon="11.958252216334564"><ele>7.166666666666667</ele><time>2026-04-11T15:56:16Z</time></trkpt><trkpt lat="45.345149319394324" lon="11.95838429282802"><ele>7.0</ele><time>2026-04-11T15:56:17Z</time></trkpt><trkpt lat="45.34518072465335" lon="11.958481186307926"><ele>7.0</ele><time>2026-04-11T15:56:18Z</time></trkpt><trkpt lat="45.345293011840695" lon="11.95850850296031"><ele>6.999999999999999</ele><time>2026-04-11T15:56:19Z</time></trkpt><trkpt lat="45.34538895239589" lon="11.958541219133533"><ele>6.999999999999999</ele><time>2026-04-11T15:56:20Z</time></trkpt><trkpt lat="45.34547973659132" lon="11.958610301709163"><ele>7.0</ele><time>2026-04-11T15:56:21Z</time></trkpt><trkpt lat="45.345569439961324" lon="11.958717468105064"><ele>7.0</ele><time>2026-04-11T15:56:22Z</time></trkpt><trkpt lat="45.34565964741898" lon="11.958845041910537"><ele>6.666666666666667</ele><time>2026-04-11T15:56:23Z</time></trkpt><trkpt lat="45.34575823269424" lon="11.958987451463086"><ele>6.333333333333334</ele><time>2026-04-11T15:56:24Z</time></trkpt><trkpt lat="45.34586918382933" lon="11.959138776130276"><ele>6.0</ele><time>2026-04-11T15:56:25Z</time></trkpt><trkpt lat="45.345985476939234" lon="11.959294309648296"><ele>6.666666666666666</ele><time>2026-04-11T15:56:26Z</time></trkpt><trkpt lat="45.34610301169065" lon="11.959452979156563"><ele>7.333333333333333</ele><time>2026-04-11T15:56:27Z</time></trkpt><trkpt lat="45.34620824771091" lon="11.959598571059296"><ele>8.0</ele><time>2026-04-11T15:56:28Z</time></trkpt><trkpt lat="45.34632593854861" lon="11.959761007562124"><ele>8.0</ele><time>2026-04-11T15:56:29Z</time></trkpt><trkpt lat="45.346437807024984" lon="11.959908913149915"><ele>8.0</ele><time>2026-04-11T15:56:30Z</time></trkpt><trkpt lat="45.346546148154" lon="11.960033624777454"><ele>8.0</ele><time>2026-04-11T15:56:31Z</time></trkpt><trkpt lat="45.3466603503539" lon="11.96014175060946"><ele>8.0</ele><time>2026-04-11T15:56:32Z</time></trkpt><trkpt lat="45.34677756207103" lon="11.960233395966963"><ele>7.75</ele><time>2026-04-11T15:56:33Z</time></trkpt><trkpt lat="45.346903515596246" lon="11.960316949027682"><ele>7.5</ele><time>2026-04-11T15:56:34Z</time></trkpt><trkpt lat="45.3470442764896" lon="11.960369404472146"><ele>7.25</ele><time>2026-04-11T15:56:35Z</time></trkpt><trkpt lat="45.34719089470817" lon="11.960380952279808"><ele>7.0</ele><time>2026-04-11T15:56:36Z</time></trkpt><trkpt lat="45.34733149717449" lon="11.960377583788166"><ele>7.0</ele><time>2026-04-11T15:56:37Z</time></trkpt><trkpt lat="45.34747281177348" lon="11.960331641317975"><ele>7.0</ele><time>2026-04-11T15:56:38Z</time></trkpt><trkpt lat="45.3476072691228" lon="11.960249594126825"><ele>7.0</ele><time>2026-04-11T15:56:39Z</time></trkpt><trkpt lat="45.34773344135483" lon="11.960141163169636"><ele>7.0</ele><time>2026-04-11T15:56:40Z</time></trkpt><trkpt lat="45.34784986721849" lon="11.960017203602707"><ele>7.0</ele><time>2026-04-11T15:56:41Z</time></trkpt><trkpt lat="45.347971540424716" lon="11.959899221500024"><ele>7.0</ele><time>2026-04-11T15:56:42Z</time></trkpt><trkpt lat="45.3480665106597" lon="11.959748773449396"><ele>7.0</ele><time>2026-04-11T15:56:43Z</time></trkpt><trkpt lat="45.34816707721946" lon="11.959608026771058"><ele>7.0</ele><time>2026-04-11T15:56:44Z</time></trkpt><trkpt lat="45.34826064826386" lon="11.95946967555462"><ele>7.199999999999999</ele><time>2026-04-11T15:56:45Z</time></trkpt><trkpt lat="45.34834201654765" lon="11.95934321012151"><ele>7.3999999999999995</ele><time>2026-04-11T15:56:46Z</time></trkpt><trkpt lat="45.34841227324063" lon="11.959236020385392"><ele>7.6000000000000005</ele><time>2026-04-11T15:56:47Z</time></trkpt><trkpt lat="45.3484771971074" lon="11.959138267856591"><ele>7.800000000000001</ele><time>2026-04-11T15:56:48Z</time></trkpt><trkpt lat="45.34854408894432" lon="11.9590367962976"><ele>8.0</ele><time>2026-04-11T15:56:49Z</time></trkpt><trkpt lat="45.34860542189071" lon="11.95894133522711"><ele>7.833333333333333</ele><time>2026-04-11T15:56:50Z</time></trkpt><trkpt lat="45.34866272108745" lon="11.958849373328949"><ele>7.666666666666666</ele><time>2026-04-11T15:56:51Z</time></trkpt><trkpt lat="45.348715388168145" lon="11.958762219890913"><ele>7.5</ele><time>2026-04-11T15:56:52Z</time></trkpt><trkpt lat="45.34876185616584" lon="11.958683270287013"><ele>7.333333333333334</ele><time>2026-04-11T15:56:53Z</time></trkpt><trkpt lat="45.348808846055896" lon="11.958611700399043"><ele>7.166666666666667</ele><time>2026-04-11T15:56:54Z</time></trkpt><trkpt lat="45.34885453189165" lon="11.95854420922396"><ele>7.0</ele><time>2026-04-11T15:56:55Z</time></trkpt><trkpt lat="45.348943842289444" lon="11.958438552550518"><ele>7.000000000000001</ele><time>2026-04-11T15:56:57Z</time></trkpt><trkpt lat="45.34902743595373" lon="11.958311384240917"><ele>7.0</ele><time>2026-04-11T15:56:59Z</time></trkpt><trkpt lat="45.349073501059294" lon="11.958241306944535"><ele>7.0</ele><time>2026-04-11T15:57:00Z</time></trkpt><trkpt lat="45.3491074387107" lon="11.958155845621464"><ele>7.0</ele><time>2026-04-11T15:57:01Z</time></trkpt><trkpt lat="45.349157514183354" lon="11.958079240762066"><ele>7.000000000000001</ele><time>2026-04-11T15:57:02Z</time></trkpt><trkpt lat="45.34921657129282" lon="11.958023659010644"><ele>7.0</ele><time>2026-04-11T15:57:03Z</time></trkpt><trkpt lat="45.34926741342577" lon="11.957946314531181"><ele>7.000000000000001</ele><time>2026-04-11T15:57:04Z</time></trkpt><trkpt lat="45.349317309968534" lon="11.95787040862433"><ele>7.0</ele><time>2026-04-11T15:57:05Z</time></trkpt><trkpt lat="45.34936220942977" lon="11.957772372258693"><ele>7.0</ele><time>2026-04-11T15:57:06Z</time></trkpt><trkpt lat="45.349424261494946" lon="11.957690491645835"><ele>7.0</ele><time>2026-04-11T15:57:07Z</time></trkpt><trkpt lat="45.349489538618194" lon="11.957598320879113"><ele>7.000000000000001</ele><time>2026-04-11T15:57:08Z</time></trkpt><trkpt lat="45.34955511685811" lon="11.957499433189755"><ele>7.0</ele><time>2026-04-11T15:57:09Z</time></trkpt><trkpt lat="45.34962343717233" lon="11.95739100605808"><ele>7.0</ele><time>2026-04-11T15:57:10Z</time></trkpt><trkpt lat="45.34970233882681" lon="11.957289492715232"><ele>7.0</ele><time>2026-04-11T15:57:11Z</time></trkpt><trkpt lat="45.349768281356106" lon="11.95715749091911"><ele>7.0</ele><time>2026-04-11T15:57:12Z</time></trkpt><trkpt lat="45.349849329728094" lon="11.95704145825906"><ele>7.0</ele><time>2026-04-11T15:57:13Z</time></trkpt><trkpt lat="45.349927974436774" lon="11.956923086751765"><ele>7.0</ele><time>2026-04-11T15:57:14Z</time></trkpt><trkpt lat="45.35001051181879" lon="11.956809501284589"><ele>6.999999999999999</ele><time>2026-04-11T15:57:15Z</time></trkpt><trkpt lat="45.35008703546522" lon="11.956698055089555"><ele>6.999999999999999</ele><time>2026-04-11T15:57:16Z</time></trkpt><trkpt lat="45.350157716869795" lon="11.956583862262086"><ele>7.0</ele><time>2026-04-11T15:57:17Z</time></trkpt><trkpt lat="45.35021932258652" lon="11.956475368431665"><ele>7.0</ele><time>2026-04-11T15:57:18Z</time></trkpt><trkpt lat="45.3502835381768" lon="11.956386184962398"><ele>7.0</ele><time>2026-04-11T15:57:19Z</time></trkpt><trkpt lat="45.350334794147855" lon="11.956305274695827"><ele>6.999999999999999</ele><time>2026-04-11T15:57:20Z</time></trkpt><trkpt lat="45.35040130935717" lon="11.956214929482659"><ele>6.999999999999999</ele><time>2026-04-11T15:57:21Z</time></trkpt><trkpt lat="45.35047413961901" lon="11.956118657462213"><ele>7.0</ele><time>2026-04-11T15:57:22Z</time></trkpt><trkpt lat="45.350549996038055" lon="11.95600490515619"><ele>7.0</ele><time>2026-04-11T15:57:23Z</time></trkpt><trkpt lat="45.350637258189984" lon="11.955865260198713"><ele>7.0</ele><time>2026-04-11T15:57:24Z</time></trkpt><trkpt lat="45.350749945020596" lon="11.955684271486385"><ele>7.0</ele><time>2026-04-11T15:57:25Z</time></trkpt><trkpt lat="45.35088765086642" lon="11.955471060822068"><ele>7.0</ele><time>2026-04-11T15:57:26Z</time></trkpt><trkpt lat="45.351038068173324" lon="11.955238519912436"><ele>7.0</ele><time>2026-04-11T15:57:27Z</time></trkpt><trkpt lat="45.35120416384222" lon="11.95499036849797"><ele>7.0</ele><time>2026-04-11T15:57:28Z</time></trkpt><trkpt lat="45.35140167692658" lon="11.9546929451993"><ele>7.0</ele><time>2026-04-11T15:57:29Z</time></trkpt><trkpt lat="45.35158065053576" lon="11.954420143985162"><ele>7.0</ele><time>2026-04-11T15:57:30Z</time></trkpt><trkpt lat="45.35173719556193" lon="11.954178913057126"><ele>6.333333333333334</ele><time>2026-04-11T15:57:31Z</time></trkpt><trkpt lat="45.35187792369819" lon="11.953955500885051"><ele>5.666666666666667</ele><time>2026-04-11T15:57:32Z</time></trkpt><trkpt lat="45.352002126055744" lon="11.95373842321307"><ele>5.0</ele><time>2026-04-11T15:57:33Z</time></trkpt><trkpt lat="45.352110758951696" lon="11.953516966537153"><ele>5.333333333333334</ele><time>2026-04-11T15:57:34Z</time></trkpt><trkpt lat="45.35221636369" lon="11.95330539484591"><ele>5.666666666666667</ele><time>2026-04-11T15:57:35Z</time></trkpt><trkpt lat="45.35227630853568" lon="11.953073205927156"><ele>6.0</ele><time>2026-04-11T15:57:36Z</time></trkpt><trkpt lat="45.35233444711786" lon="11.952848609917357"><ele>6.0</ele><time>2026-04-11T15:57:37Z</time></trkpt><trkpt lat="45.352386411000694" lon="11.952643727136872"><ele>6.0</ele><time>2026-04-11T15:57:38Z</time></trkpt><trkpt lat="45.3524162070179" lon="11.952445877704202"><ele>6.0</ele><time>2026-04-11T15:57:39Z</time></trkpt><trkpt lat="45.35244065186977" lon="11.952246324354045"><ele>6.0</ele><time>2026-04-11T15:57:40Z</time></trkpt><trkpt lat="45.35246260851132" lon="11.952060171779863"><ele>5.8</ele><time>2026-04-11T15:57:41Z</time></trkpt><trkpt lat="45.35248263216557" lon="11.95188255306061"><ele>5.6</ele><time>2026-04-11T15:57:42Z</time></trkpt><trkpt lat="45.35250063662182" lon="11.951716809024424"><ele>5.4</ele><time>2026-04-11T15:57:43Z</time></trkpt><trkpt lat="45.35251699755544" lon="11.951566194473243"><ele>5.2</ele><time>2026-04-11T15:57:44Z</time></trkpt><trkpt lat="45.352519801362035" lon="11.9514364645958"><ele>5.0</ele><time>2026-04-11T15:57:45Z</time></trkpt><trkpt lat="45.352555710165284" lon="11.951331074222999"><ele>5.0</ele><time>2026-04-11T15:57:46Z</time></trkpt><trkpt lat="45.35259940529425" lon="11.951231066893321"><ele>5.0</ele><time>2026-04-11T15:57:47Z</time></trkpt><trkpt lat="45.35265979478495" lon="11.951122583425564"><ele>5.0</ele><time>2026-04-11T15:57:48Z</time></trkpt><trkpt lat="45.35272100694264" lon="11.951033079487996"><ele>5.0</ele><time>2026-04-11T15:57:49Z</time></trkpt><trkpt lat="45.35284985292268" lon="11.951097576460363"><ele>5.0</ele><time>2026-04-11T15:57:50Z</time></trkpt><trkpt lat="45.35294973835167" lon="11.951118631835683"><ele>5.2</ele><time>2026-04-11T15:57:51Z</time></trkpt><trkpt lat="45.353050391686175" lon="11.951116893071413"><ele>5.4</ele><time>2026-04-11T15:57:52Z</time></trkpt><trkpt lat="45.35315271967769" lon="11.951147484357012"><ele>5.6</ele><time>2026-04-11T15:57:53Z</time></trkpt><trkpt lat="45.35325180615003" lon="11.951165984243131"><ele>5.8</ele><time>2026-04-11T15:57:54Z</time></trkpt><trkpt lat="45.353339099338584" lon="11.951188521318494"><ele>6.0</ele><time>2026-04-11T15:57:55Z</time></trkpt><trkpt lat="45.35342665286559" lon="11.95121576398705"><ele>5.999999999999999</ele><time>2026-04-11T15:57:56Z</time></trkpt><trkpt lat="45.3534964579443" lon="11.951234080466275"><ele>6.0</ele><time>2026-04-11T15:57:57Z</time></trkpt><trkpt lat="45.35356185344072" lon="11.951268790027264"><ele>6.0</ele><time>2026-04-11T15:57:58Z</time></trkpt><trkpt lat="45.35361411056356" lon="11.951328819976421"><ele>6.0</ele><time>2026-04-11T15:57:59Z</time></trkpt><trkpt lat="45.35365360754221" lon="11.95140674842321"><ele>6.0</ele><time>2026-04-11T15:58:00Z</time></trkpt><trkpt lat="45.35368852169613" lon="11.951486675718966"><ele>5.999999999999999</ele><time>2026-04-11T15:58:01Z</time></trkpt><trkpt lat="45.35373312481746" lon="11.951567464128333"><ele>6.0</ele><time>2026-04-11T15:58:02Z</time></trkpt><trkpt lat="45.35378350704108" lon="11.9516421769649"><ele>6.0</ele><time>2026-04-11T15:58:03Z</time></trkpt><trkpt lat="45.35384064226149" lon="11.951712710572727"><ele>6.0</ele><time>2026-04-11T15:58:04Z</time></trkpt><trkpt lat="45.35390335719154" lon="11.951763809175935"><ele>6.0</ele><time>2026-04-11T15:58:05Z</time></trkpt><trkpt lat="45.35397489205919" lon="11.951797758574815"><ele>6.0</ele><time>2026-04-11T15:58:06Z</time></trkpt><trkpt lat="45.35404707506446" lon="11.951813611656396"><ele>6.0</ele><time>2026-04-11T15:58:07Z</time></trkpt><trkpt lat="45.35411059326125" lon="11.95182964555949"><ele>6.0</ele><time>2026-04-11T15:58:08Z</time></trkpt><trkpt lat="45.35418047520736" lon="11.951941369208184"><ele>6.0</ele><time>2026-04-11T15:58:10Z</time></trkpt><trkpt lat="45.35412035468178" lon="11.952052395561807"><ele>6.0</ele><time>2026-04-11T15:58:12Z</time></trkpt><trkpt lat="45.354053507350216" lon="11.952153430874166"><ele>6.0</ele><time>2026-04-11T15:58:14Z</time></trkpt><trkpt lat="45.354060075690775" lon="11.952291959284985"><ele>6.0</ele><time>2026-04-11T15:58:16Z</time></trkpt><trkpt lat="45.35413773662936" lon="11.95240607927466"><ele>6.0</ele><time>2026-04-11T15:58:18Z</time></trkpt><trkpt lat="45.35423512759866" lon="11.952522484327579"><ele>6.0</ele><time>2026-04-11T15:58:20Z</time></trkpt><trkpt lat="45.35428595066206" lon="11.952591700242944"><ele>6.0</ele><time>2026-04-11T15:58:21Z</time></trkpt><trkpt lat="45.354338987093264" lon="11.952662155660658"><ele>6.0</ele><time>2026-04-11T15:58:22Z</time></trkpt><trkpt lat="45.3543930600749" lon="11.9527446459569"><ele>6.0</ele><time>2026-04-11T15:58:23Z</time></trkpt><trkpt lat="45.35445235179926" lon="11.952828405830521"><ele>6.0</ele><time>2026-04-11T15:58:24Z</time></trkpt><trkpt lat="45.35451415952194" lon="11.952913162037001"><ele>6.0</ele><time>2026-04-11T15:58:25Z</time></trkpt><trkpt lat="45.35458056007516" lon="11.95299000272811"><ele>6.0</ele><time>2026-04-11T15:58:26Z</time></trkpt><trkpt lat="45.35464642437972" lon="11.953074699866935"><ele>6.0</ele><time>2026-04-11T15:58:27Z</time></trkpt><trkpt lat="45.35471402934066" lon="11.953167227662622"><ele>6.0</ele><time>2026-04-11T15:58:28Z</time></trkpt><trkpt lat="45.35478196850403" lon="11.95325967269708"><ele>6.0</ele><time>2026-04-11T15:58:29Z</time></trkpt><trkpt lat="45.35485072948543" lon="11.953347546644398"><ele>6.0</ele><time>2026-04-11T15:58:30Z</time></trkpt><trkpt lat="45.354920129229846" lon="11.953437171698083"><ele>6.0</ele><time>2026-04-11T15:58:31Z</time></trkpt><trkpt lat="45.354990157386865" lon="11.953524340410194"><ele>6.0</ele><time>2026-04-11T15:58:32Z</time></trkpt><trkpt lat="45.35506067546911" lon="11.953613620087705"><ele>6.0</ele><time>2026-04-11T15:58:33Z</time></trkpt><trkpt lat="45.355128453191675" lon="11.953701382122908"><ele>6.0</ele><time>2026-04-11T15:58:34Z</time></trkpt><trkpt lat="45.35519362243019" lon="11.95378822396043"><ele>6.0</ele><time>2026-04-11T15:58:35Z</time></trkpt><trkpt lat="45.35525505605897" lon="11.95386539040551"><ele>6.0</ele><time>2026-04-11T15:58:36Z</time></trkpt><trkpt lat="45.355307288998404" lon="11.953939954787035"><ele>6.0</ele><time>2026-04-11T15:58:37Z</time></trkpt><trkpt lat="45.3553559006341" lon="11.954004720685766"><ele>6.0</ele><time>2026-04-11T15:58:38Z</time></trkpt><trkpt lat="45.35544304240569" lon="11.954103652598253"><ele>6.0</ele><time>2026-04-11T15:58:40Z</time></trkpt><trkpt lat="45.35549316071646" lon="11.954266005157699"><ele>6.0</ele><time>2026-04-11T15:58:43Z</time></trkpt><trkpt lat="45.35548913608492" lon="11.954377371551727"><ele>6.0</ele><time>2026-04-11T15:58:45Z</time></trkpt><trkpt lat="45.35551863384938" lon="11.954456794224674"><ele>6.0</ele><time>2026-04-11T15:58:47Z</time></trkpt><trkpt lat="45.3556389391132" lon="11.95443774451123"><ele>6.0</ele><time>2026-04-11T15:58:52Z</time></trkpt><trkpt lat="45.355706191600525" lon="11.954417700626259"><ele>6.0</ele><time>2026-04-11T15:58:55Z</time></trkpt><trkpt lat="45.355825567423544" lon="11.954272092522872"><ele>6.0</ele><time>2026-04-11T15:58:58Z</time></trkpt><trkpt lat="45.35582233131888" lon="11.954179943111528"><ele>3.0</ele><time>2026-04-11T15:59:01Z</time></trkpt><trkpt lat="45.35582233131888" lon="11.954179943111528"><ele>3.0</ele><time>2026-04-11T15:59:01Z</time></trkpt><trkpt lat="45.35582233131888" lon="11.954179943111528"><ele>3.0</ele><time>2026-04-11T15:59:01Z</time></trkpt><trkpt lat="45.35582233131888" lon="11.954179943111528"><ele>3.0</ele><time>2026-04-11T15:59:01Z</time></trkpt></trkseg></trk></gpx>